<?xml version="1.0" encoding="UTF-8"?>
<gpx version="1.1" creator="https://www.youtrack.es" xsi:schemaLocation="http://www.topografix.com/GPX/1/1 http://www.topografix.com/GPX/1/1/gpx.xsd http://www.garmin.com/xmlschemas/GpxExtensions/v3 http://www.garmin.com/xmlschemas/GpxExtensionsv3.xsd http://www.garmin.com/xmlschemas/TrackPointExtension/v1 http://www.garmin.com/xmlschemas/TrackPointExtensionv1.xsd" xmlns:gpxtpx="http://www.garmin.com/xmlschemas/TrackPointExtension/v1" xmlns:gpxx="http://www.garmin.com/xmlschemas/GpxExtensions/v3" xmlns:xsi="http://www.w3.org/2001/XMLSchema-instance">
  <metadata>
    <link href="https://www.youtrack.es">
      <text>YouTrack.es</text>
    </link>
    <time>2026-05-08T12:59:13Z</time>
  </metadata>
  <trk>
    <src>https://www.youtrack.es</src>
    <link href="https://www.youtrack.es/ruta/11413-ruta-2020-dia2">
      <text>YouTrack.es</text>
    </link>
    <trkseg>
      <trkpt lat="40.942890" lon="-4.108820">
        <ele>1024.349</ele>
        <time>2020-02-27T19:16:56Z</time>
      </trkpt>
      <trkpt lat="40.942840" lon="-4.108760">
        <ele>1024.602</ele>
        <time>2020-02-27T19:17:16Z</time>
      </trkpt>
      <trkpt lat="40.942830" lon="-4.108770">
        <ele>1024.522</ele>
        <time>2020-02-27T19:17:36Z</time>
      </trkpt>
      <trkpt lat="40.942820" lon="-4.108770">
        <ele>1024.508</ele>
        <time>2020-02-27T19:17:56Z</time>
      </trkpt>
      <trkpt lat="40.942810" lon="-4.108780">
        <ele>1024.438</ele>
        <time>2020-02-27T19:18:16Z</time>
      </trkpt>
      <trkpt lat="40.942760" lon="-4.108780">
        <ele>1024.471</ele>
        <time>2020-02-27T19:18:36Z</time>
      </trkpt>
      <trkpt lat="40.942750" lon="-4.108770">
        <ele>1024.476</ele>
        <time>2020-02-27T19:18:56Z</time>
      </trkpt>
      <trkpt lat="40.942740" lon="-4.108770">
        <ele>1024.387</ele>
        <time>2020-02-27T19:19:16Z</time>
      </trkpt>
      <trkpt lat="40.942730" lon="-4.108760">
        <ele>1024.459</ele>
        <time>2020-02-27T19:19:36Z</time>
      </trkpt>
      <trkpt lat="40.942720" lon="-4.108760">
        <ele>1024.477</ele>
        <time>2020-02-27T19:19:56Z</time>
      </trkpt>
      <trkpt lat="40.942670" lon="-4.108820">
        <ele>1024.090</ele>
        <time>2020-02-27T19:20:16Z</time>
      </trkpt>
      <trkpt lat="40.942600" lon="-4.108850">
        <ele>1023.695</ele>
        <time>2020-02-27T19:20:36Z</time>
      </trkpt>
      <trkpt lat="40.942510" lon="-4.108910">
        <ele>1023.058</ele>
        <time>2020-02-27T19:20:56Z</time>
      </trkpt>
      <trkpt lat="40.942330" lon="-4.108980">
        <ele>1022.752</ele>
        <time>2020-02-27T19:21:16Z</time>
      </trkpt>
      <trkpt lat="40.942260" lon="-4.108980">
        <ele>1022.717</ele>
        <time>2020-02-27T19:21:36Z</time>
      </trkpt>
      <trkpt lat="40.941070" lon="-4.109430">
        <ele>1020.108</ele>
        <time>2020-02-27T19:21:56Z</time>
      </trkpt>
      <trkpt lat="40.940900" lon="-4.109480">
        <ele>1019.879</ele>
        <time>2020-02-27T19:22:16Z</time>
      </trkpt>
      <trkpt lat="40.940340" lon="-4.109540">
        <ele>1015.812</ele>
        <time>2020-02-27T19:22:36Z</time>
      </trkpt>
      <trkpt lat="40.940200" lon="-4.109540">
        <ele>1014.847</ele>
        <time>2020-02-27T19:22:56Z</time>
      </trkpt>
      <trkpt lat="40.939890" lon="-4.109570">
        <ele>1013.418</ele>
        <time>2020-02-27T19:23:16Z</time>
      </trkpt>
      <trkpt lat="40.939780" lon="-4.109590">
        <ele>1013.110</ele>
        <time>2020-02-27T19:23:36Z</time>
      </trkpt>
      <trkpt lat="40.939760" lon="-4.109590">
        <ele>1013.018</ele>
        <time>2020-02-27T19:23:56Z</time>
      </trkpt>
      <trkpt lat="40.939710" lon="-4.109610">
        <ele>1012.821</ele>
        <time>2020-02-27T19:24:16Z</time>
      </trkpt>
      <trkpt lat="40.939680" lon="-4.109630">
        <ele>1012.566</ele>
        <time>2020-02-27T19:24:36Z</time>
      </trkpt>
      <trkpt lat="40.939650" lon="-4.109640">
        <ele>1012.371</ele>
        <time>2020-02-27T19:24:56Z</time>
      </trkpt>
      <trkpt lat="40.939600" lon="-4.109670">
        <ele>1011.941</ele>
        <time>2020-02-27T19:25:16Z</time>
      </trkpt>
      <trkpt lat="40.939500" lon="-4.109760">
        <ele>1011.015</ele>
        <time>2020-02-27T19:25:36Z</time>
      </trkpt>
      <trkpt lat="40.939480" lon="-4.109770">
        <ele>1010.908</ele>
        <time>2020-02-27T19:25:56Z</time>
      </trkpt>
      <trkpt lat="40.938490" lon="-4.110570">
        <ele>1010.471</ele>
        <time>2020-02-27T19:26:16Z</time>
      </trkpt>
      <trkpt lat="40.938460" lon="-4.110600">
        <ele>1010.344</ele>
        <time>2020-02-27T19:26:36Z</time>
      </trkpt>
      <trkpt lat="40.937980" lon="-4.110930">
        <ele>1009.949</ele>
        <time>2020-02-27T19:26:56Z</time>
      </trkpt>
      <trkpt lat="40.937730" lon="-4.111140">
        <ele>1010.190</ele>
        <time>2020-02-27T19:27:16Z</time>
      </trkpt>
      <trkpt lat="40.937730" lon="-4.111250">
        <ele>1009.892</ele>
        <time>2020-02-27T19:27:36Z</time>
      </trkpt>
      <trkpt lat="40.937720" lon="-4.111260">
        <ele>1009.840</ele>
        <time>2020-02-27T19:27:56Z</time>
      </trkpt>
      <trkpt lat="40.937720" lon="-4.111270">
        <ele>1009.813</ele>
        <time>2020-02-27T19:28:16Z</time>
      </trkpt>
      <trkpt lat="40.937710" lon="-4.111280">
        <ele>1009.898</ele>
        <time>2020-02-27T19:28:36Z</time>
      </trkpt>
      <trkpt lat="40.937710" lon="-4.111290">
        <ele>1009.823</ele>
        <time>2020-02-27T19:28:56Z</time>
      </trkpt>
      <trkpt lat="40.937700" lon="-4.111290">
        <ele>1009.883</ele>
        <time>2020-02-27T19:29:16Z</time>
      </trkpt>
      <trkpt lat="40.937700" lon="-4.111300">
        <ele>1009.811</ele>
        <time>2020-02-27T19:29:36Z</time>
      </trkpt>
      <trkpt lat="40.937690" lon="-4.111300">
        <ele>1009.908</ele>
        <time>2020-02-27T19:29:56Z</time>
      </trkpt>
      <trkpt lat="40.937690" lon="-4.111310">
        <ele>1009.846</ele>
        <time>2020-02-27T19:30:16Z</time>
      </trkpt>
      <trkpt lat="40.937680" lon="-4.111310">
        <ele>1009.999</ele>
        <time>2020-02-27T19:30:36Z</time>
      </trkpt>
      <trkpt lat="40.937680" lon="-4.111320">
        <ele>1009.984</ele>
        <time>2020-02-27T19:30:56Z</time>
      </trkpt>
      <trkpt lat="40.937660" lon="-4.111320">
        <ele>1010.045</ele>
        <time>2020-02-27T19:31:16Z</time>
      </trkpt>
      <trkpt lat="40.937660" lon="-4.111330">
        <ele>1010.077</ele>
        <time>2020-02-27T19:31:36Z</time>
      </trkpt>
      <trkpt lat="40.937610" lon="-4.111330">
        <ele>1010.395</ele>
        <time>2020-02-27T19:31:56Z</time>
      </trkpt>
      <trkpt lat="40.937610" lon="-4.111320">
        <ele>1010.388</ele>
        <time>2020-02-27T19:32:16Z</time>
      </trkpt>
      <trkpt lat="40.937590" lon="-4.111320">
        <ele>1010.443</ele>
        <time>2020-02-27T19:32:36Z</time>
      </trkpt>
      <trkpt lat="40.937590" lon="-4.111310">
        <ele>1010.455</ele>
        <time>2020-02-27T19:32:56Z</time>
      </trkpt>
      <trkpt lat="40.937580" lon="-4.111310">
        <ele>1010.507</ele>
        <time>2020-02-27T19:33:16Z</time>
      </trkpt>
      <trkpt lat="40.937560" lon="-4.111290">
        <ele>1010.617</ele>
        <time>2020-02-27T19:33:36Z</time>
      </trkpt>
      <trkpt lat="40.937560" lon="-4.111280">
        <ele>1010.708</ele>
        <time>2020-02-27T19:33:56Z</time>
      </trkpt>
      <trkpt lat="40.937550" lon="-4.111270">
        <ele>1010.719</ele>
        <time>2020-02-27T19:34:16Z</time>
      </trkpt>
      <trkpt lat="40.937550" lon="-4.111260">
        <ele>1010.782</ele>
        <time>2020-02-27T19:34:36Z</time>
      </trkpt>
      <trkpt lat="40.937540" lon="-4.111250">
        <ele>1010.837</ele>
        <time>2020-02-27T19:34:56Z</time>
      </trkpt>
      <trkpt lat="40.937540" lon="-4.111170">
        <ele>1010.818</ele>
        <time>2020-02-27T19:35:16Z</time>
      </trkpt>
      <trkpt lat="40.935500" lon="-4.109990">
        <ele>1020.270</ele>
        <time>2020-02-27T19:35:36Z</time>
      </trkpt>
      <trkpt lat="40.935450" lon="-4.109970">
        <ele>1020.428</ele>
        <time>2020-02-27T19:35:56Z</time>
      </trkpt>
      <trkpt lat="40.934480" lon="-4.109340">
        <ele>1025.221</ele>
        <time>2020-02-27T19:36:16Z</time>
      </trkpt>
      <trkpt lat="40.934400" lon="-4.109330">
        <ele>1025.656</ele>
        <time>2020-02-27T19:36:36Z</time>
      </trkpt>
      <trkpt lat="40.934350" lon="-4.109310">
        <ele>1025.892</ele>
        <time>2020-02-27T19:36:56Z</time>
      </trkpt>
      <trkpt lat="40.934230" lon="-4.109310">
        <ele>1026.373</ele>
        <time>2020-02-27T19:37:16Z</time>
      </trkpt>
      <trkpt lat="40.934190" lon="-4.109330">
        <ele>1026.320</ele>
        <time>2020-02-27T19:37:36Z</time>
      </trkpt>
      <trkpt lat="40.934190" lon="-4.109350">
        <ele>1026.308</ele>
        <time>2020-02-27T19:37:56Z</time>
      </trkpt>
      <trkpt lat="40.934180" lon="-4.109360">
        <ele>1026.353</ele>
        <time>2020-02-27T19:38:16Z</time>
      </trkpt>
      <trkpt lat="40.934180" lon="-4.109380">
        <ele>1026.226</ele>
        <time>2020-02-27T19:38:36Z</time>
      </trkpt>
      <trkpt lat="40.934170" lon="-4.109400">
        <ele>1026.141</ele>
        <time>2020-02-27T19:38:56Z</time>
      </trkpt>
      <trkpt lat="40.934160" lon="-4.109410">
        <ele>1026.262</ele>
        <time>2020-02-27T19:39:16Z</time>
      </trkpt>
      <trkpt lat="40.934160" lon="-4.109420">
        <ele>1026.144</ele>
        <time>2020-02-27T19:39:36Z</time>
      </trkpt>
      <trkpt lat="40.934150" lon="-4.109440">
        <ele>1026.152</ele>
        <time>2020-02-27T19:39:56Z</time>
      </trkpt>
      <trkpt lat="40.934120" lon="-4.109470">
        <ele>1026.245</ele>
        <time>2020-02-27T19:40:16Z</time>
      </trkpt>
      <trkpt lat="40.934100" lon="-4.109480">
        <ele>1026.410</ele>
        <time>2020-02-27T19:40:36Z</time>
      </trkpt>
      <trkpt lat="40.934090" lon="-4.109490">
        <ele>1026.477</ele>
        <time>2020-02-27T19:40:56Z</time>
      </trkpt>
      <trkpt lat="40.934080" lon="-4.109490">
        <ele>1026.561</ele>
        <time>2020-02-27T19:41:16Z</time>
      </trkpt>
      <trkpt lat="40.934070" lon="-4.109500">
        <ele>1026.527</ele>
        <time>2020-02-27T19:41:36Z</time>
      </trkpt>
      <trkpt lat="40.934060" lon="-4.109500">
        <ele>1026.608</ele>
        <time>2020-02-27T19:41:56Z</time>
      </trkpt>
      <trkpt lat="40.934050" lon="-4.109510">
        <ele>1026.681</ele>
        <time>2020-02-27T19:42:16Z</time>
      </trkpt>
      <trkpt lat="40.934000" lon="-4.109510">
        <ele>1027.064</ele>
        <time>2020-02-27T19:42:36Z</time>
      </trkpt>
      <trkpt lat="40.933990" lon="-4.109500">
        <ele>1027.149</ele>
        <time>2020-02-27T19:42:56Z</time>
      </trkpt>
      <trkpt lat="40.933980" lon="-4.109500">
        <ele>1027.190</ele>
        <time>2020-02-27T19:43:16Z</time>
      </trkpt>
      <trkpt lat="40.933960" lon="-4.109490">
        <ele>1027.372</ele>
        <time>2020-02-27T19:43:36Z</time>
      </trkpt>
      <trkpt lat="40.933950" lon="-4.109490">
        <ele>1027.480</ele>
        <time>2020-02-27T19:43:56Z</time>
      </trkpt>
      <trkpt lat="40.933930" lon="-4.109470">
        <ele>1027.673</ele>
        <time>2020-02-27T19:44:16Z</time>
      </trkpt>
      <trkpt lat="40.933920" lon="-4.109470">
        <ele>1027.728</ele>
        <time>2020-02-27T19:44:36Z</time>
      </trkpt>
      <trkpt lat="40.933910" lon="-4.109450">
        <ele>1027.851</ele>
        <time>2020-02-27T19:44:56Z</time>
      </trkpt>
      <trkpt lat="40.933880" lon="-4.109420">
        <ele>1028.001</ele>
        <time>2020-02-27T19:45:16Z</time>
      </trkpt>
      <trkpt lat="40.933880" lon="-4.109400">
        <ele>1028.011</ele>
        <time>2020-02-27T19:45:36Z</time>
      </trkpt>
      <trkpt lat="40.933870" lon="-4.109390">
        <ele>1028.108</ele>
        <time>2020-02-27T19:45:56Z</time>
      </trkpt>
      <trkpt lat="40.933860" lon="-4.109370">
        <ele>1028.149</ele>
        <time>2020-02-27T19:46:16Z</time>
      </trkpt>
      <trkpt lat="40.933860" lon="-4.109360">
        <ele>1028.132</ele>
        <time>2020-02-27T19:46:36Z</time>
      </trkpt>
      <trkpt lat="40.933850" lon="-4.109340">
        <ele>1028.267</ele>
        <time>2020-02-27T19:46:56Z</time>
      </trkpt>
      <trkpt lat="40.933850" lon="-4.109320">
        <ele>1028.268</ele>
        <time>2020-02-27T19:47:16Z</time>
      </trkpt>
      <trkpt lat="40.933730" lon="-4.109170">
        <ele>1029.170</ele>
        <time>2020-02-27T19:47:36Z</time>
      </trkpt>
      <trkpt lat="40.933270" lon="-4.108740">
        <ele>1033.048</ele>
        <time>2020-02-27T19:47:56Z</time>
      </trkpt>
      <trkpt lat="40.933210" lon="-4.108700">
        <ele>1033.611</ele>
        <time>2020-02-27T19:48:16Z</time>
      </trkpt>
      <trkpt lat="40.933110" lon="-4.108720">
        <ele>1034.246</ele>
        <time>2020-02-27T19:48:36Z</time>
      </trkpt>
      <trkpt lat="40.933030" lon="-4.108750">
        <ele>1034.828</ele>
        <time>2020-02-27T19:48:56Z</time>
      </trkpt>
      <trkpt lat="40.932980" lon="-4.108790">
        <ele>1035.289</ele>
        <time>2020-02-27T19:49:16Z</time>
      </trkpt>
      <trkpt lat="40.932960" lon="-4.108800">
        <ele>1035.417</ele>
        <time>2020-02-27T19:49:36Z</time>
      </trkpt>
      <trkpt lat="40.932850" lon="-4.108910">
        <ele>1036.208</ele>
        <time>2020-02-27T19:49:56Z</time>
      </trkpt>
      <trkpt lat="40.932320" lon="-4.109380">
        <ele>1040.546</ele>
        <time>2020-02-27T19:50:16Z</time>
      </trkpt>
      <trkpt lat="40.932090" lon="-4.109560">
        <ele>1042.089</ele>
        <time>2020-02-27T19:50:36Z</time>
      </trkpt>
      <trkpt lat="40.931930" lon="-4.109660">
        <ele>1043.374</ele>
        <time>2020-02-27T19:50:56Z</time>
      </trkpt>
      <trkpt lat="40.931400" lon="-4.109900">
        <ele>1046.375</ele>
        <time>2020-02-27T19:51:16Z</time>
      </trkpt>
      <trkpt lat="40.931290" lon="-4.109940">
        <ele>1047.017</ele>
        <time>2020-02-27T19:51:36Z</time>
      </trkpt>
      <trkpt lat="40.930800" lon="-4.110040">
        <ele>1049.035</ele>
        <time>2020-02-27T19:51:56Z</time>
      </trkpt>
      <trkpt lat="40.930740" lon="-4.110040">
        <ele>1049.268</ele>
        <time>2020-02-27T19:52:16Z</time>
      </trkpt>
      <trkpt lat="40.930720" lon="-4.110030">
        <ele>1049.363</ele>
        <time>2020-02-27T19:52:36Z</time>
      </trkpt>
      <trkpt lat="40.930690" lon="-4.110000">
        <ele>1049.526</ele>
        <time>2020-02-27T19:52:56Z</time>
      </trkpt>
      <trkpt lat="40.930510" lon="-4.110010">
        <ele>1050.047</ele>
        <time>2020-02-27T19:53:16Z</time>
      </trkpt>
      <trkpt lat="40.930320" lon="-4.110040">
        <ele>1049.911</ele>
        <time>2020-02-27T19:53:36Z</time>
      </trkpt>
      <trkpt lat="40.930150" lon="-4.110050">
        <ele>1049.808</ele>
        <time>2020-02-27T19:53:56Z</time>
      </trkpt>
      <trkpt lat="40.929860" lon="-4.110090">
        <ele>1049.796</ele>
        <time>2020-02-27T19:54:16Z</time>
      </trkpt>
      <trkpt lat="40.929530" lon="-4.110110">
        <ele>1050.349</ele>
        <time>2020-02-27T19:54:36Z</time>
      </trkpt>
      <trkpt lat="40.929430" lon="-4.110100">
        <ele>1050.624</ele>
        <time>2020-02-27T19:54:56Z</time>
      </trkpt>
      <trkpt lat="40.927950" lon="-4.109730">
        <ele>1054.025</ele>
        <time>2020-02-27T19:55:16Z</time>
      </trkpt>
      <trkpt lat="40.927880" lon="-4.109750">
        <ele>1053.957</ele>
        <time>2020-02-27T19:55:36Z</time>
      </trkpt>
      <trkpt lat="40.927730" lon="-4.109740">
        <ele>1053.995</ele>
        <time>2020-02-27T19:55:56Z</time>
      </trkpt>
      <trkpt lat="40.927730" lon="-4.109770">
        <ele>1053.858</ele>
        <time>2020-02-27T19:56:16Z</time>
      </trkpt>
      <trkpt lat="40.927720" lon="-4.109790">
        <ele>1053.813</ele>
        <time>2020-02-27T19:56:36Z</time>
      </trkpt>
      <trkpt lat="40.927710" lon="-4.109800">
        <ele>1053.724</ele>
        <time>2020-02-27T19:56:56Z</time>
      </trkpt>
      <trkpt lat="40.927710" lon="-4.109820">
        <ele>1053.604</ele>
        <time>2020-02-27T19:57:16Z</time>
      </trkpt>
      <trkpt lat="40.927700" lon="-4.109830">
        <ele>1053.614</ele>
        <time>2020-02-27T19:57:36Z</time>
      </trkpt>
      <trkpt lat="40.927690" lon="-4.109850">
        <ele>1053.508</ele>
        <time>2020-02-27T19:57:56Z</time>
      </trkpt>
      <trkpt lat="40.927680" lon="-4.109860">
        <ele>1053.586</ele>
        <time>2020-02-27T19:58:16Z</time>
      </trkpt>
      <trkpt lat="40.927670" lon="-4.109880">
        <ele>1053.479</ele>
        <time>2020-02-27T19:58:36Z</time>
      </trkpt>
      <trkpt lat="40.927660" lon="-4.109890">
        <ele>1053.434</ele>
        <time>2020-02-27T19:58:56Z</time>
      </trkpt>
      <trkpt lat="40.927640" lon="-4.109900">
        <ele>1053.425</ele>
        <time>2020-02-27T19:59:16Z</time>
      </trkpt>
      <trkpt lat="40.927630" lon="-4.109910">
        <ele>1053.367</ele>
        <time>2020-02-27T19:59:36Z</time>
      </trkpt>
      <trkpt lat="40.927610" lon="-4.109920">
        <ele>1053.355</ele>
        <time>2020-02-27T19:59:56Z</time>
      </trkpt>
      <trkpt lat="40.927600" lon="-4.109930">
        <ele>1053.348</ele>
        <time>2020-02-27T20:00:16Z</time>
      </trkpt>
      <trkpt lat="40.927580" lon="-4.109930">
        <ele>1053.393</ele>
        <time>2020-02-27T20:00:36Z</time>
      </trkpt>
      <trkpt lat="40.927570" lon="-4.109940">
        <ele>1053.245</ele>
        <time>2020-02-27T20:00:56Z</time>
      </trkpt>
      <trkpt lat="40.927520" lon="-4.109940">
        <ele>1053.247</ele>
        <time>2020-02-27T20:01:16Z</time>
      </trkpt>
      <trkpt lat="40.927510" lon="-4.109930">
        <ele>1053.311</ele>
        <time>2020-02-27T20:01:36Z</time>
      </trkpt>
      <trkpt lat="40.927500" lon="-4.109930">
        <ele>1053.308</ele>
        <time>2020-02-27T20:01:56Z</time>
      </trkpt>
      <trkpt lat="40.927490" lon="-4.109920">
        <ele>1053.328</ele>
        <time>2020-02-27T20:02:16Z</time>
      </trkpt>
      <trkpt lat="40.927480" lon="-4.109920">
        <ele>1053.351</ele>
        <time>2020-02-27T20:02:36Z</time>
      </trkpt>
      <trkpt lat="40.927470" lon="-4.109910">
        <ele>1053.326</ele>
        <time>2020-02-27T20:02:56Z</time>
      </trkpt>
      <trkpt lat="40.927460" lon="-4.109910">
        <ele>1053.347</ele>
        <time>2020-02-27T20:03:16Z</time>
      </trkpt>
      <trkpt lat="40.927410" lon="-4.109860">
        <ele>1053.359</ele>
        <time>2020-02-27T20:03:36Z</time>
      </trkpt>
      <trkpt lat="40.927380" lon="-4.109800">
        <ele>1053.467</ele>
        <time>2020-02-27T20:03:56Z</time>
      </trkpt>
      <trkpt lat="40.927380" lon="-4.109790">
        <ele>1053.480</ele>
        <time>2020-02-27T20:04:16Z</time>
      </trkpt>
      <trkpt lat="40.927370" lon="-4.109780">
        <ele>1053.465</ele>
        <time>2020-02-27T20:04:36Z</time>
      </trkpt>
      <trkpt lat="40.927370" lon="-4.109750">
        <ele>1053.533</ele>
        <time>2020-02-27T20:04:56Z</time>
      </trkpt>
      <trkpt lat="40.927360" lon="-4.109730">
        <ele>1053.523</ele>
        <time>2020-02-27T20:05:16Z</time>
      </trkpt>
      <trkpt lat="40.927360" lon="-4.109640">
        <ele>1053.615</ele>
        <time>2020-02-27T20:05:36Z</time>
      </trkpt>
      <trkpt lat="40.927060" lon="-4.109520">
        <ele>1052.708</ele>
        <time>2020-02-27T20:05:56Z</time>
      </trkpt>
      <trkpt lat="40.926280" lon="-4.109300">
        <ele>1052.337</ele>
        <time>2020-02-27T20:06:16Z</time>
      </trkpt>
      <trkpt lat="40.924590" lon="-4.108880">
        <ele>1056.060</ele>
        <time>2020-02-27T20:06:36Z</time>
      </trkpt>
      <trkpt lat="40.924510" lon="-4.108870">
        <ele>1056.075</ele>
        <time>2020-02-27T20:06:56Z</time>
      </trkpt>
      <trkpt lat="40.924390" lon="-4.108880">
        <ele>1055.226</ele>
        <time>2020-02-27T20:07:16Z</time>
      </trkpt>
      <trkpt lat="40.924380" lon="-4.108930">
        <ele>1054.938</ele>
        <time>2020-02-27T20:07:36Z</time>
      </trkpt>
      <trkpt lat="40.924360" lon="-4.108980">
        <ele>1054.586</ele>
        <time>2020-02-27T20:07:56Z</time>
      </trkpt>
      <trkpt lat="40.924330" lon="-4.109020">
        <ele>1053.999</ele>
        <time>2020-02-27T20:08:16Z</time>
      </trkpt>
      <trkpt lat="40.924310" lon="-4.109060">
        <ele>1053.414</ele>
        <time>2020-02-27T20:08:36Z</time>
      </trkpt>
      <trkpt lat="40.924240" lon="-4.109130">
        <ele>1052.279</ele>
        <time>2020-02-27T20:08:56Z</time>
      </trkpt>
      <trkpt lat="40.924200" lon="-4.109150">
        <ele>1051.505</ele>
        <time>2020-02-27T20:09:16Z</time>
      </trkpt>
      <trkpt lat="40.924110" lon="-4.109170">
        <ele>1051.025</ele>
        <time>2020-02-27T20:09:36Z</time>
      </trkpt>
      <trkpt lat="40.924040" lon="-4.109170">
        <ele>1051.008</ele>
        <time>2020-02-27T20:09:56Z</time>
      </trkpt>
      <trkpt lat="40.924030" lon="-4.109160">
        <ele>1051.031</ele>
        <time>2020-02-27T20:10:16Z</time>
      </trkpt>
      <trkpt lat="40.923970" lon="-4.109140">
        <ele>1051.134</ele>
        <time>2020-02-27T20:10:36Z</time>
      </trkpt>
      <trkpt lat="40.923940" lon="-4.109120">
        <ele>1051.269</ele>
        <time>2020-02-27T20:10:56Z</time>
      </trkpt>
      <trkpt lat="40.923890" lon="-4.109070">
        <ele>1051.360</ele>
        <time>2020-02-27T20:11:16Z</time>
      </trkpt>
      <trkpt lat="40.923830" lon="-4.108980">
        <ele>1051.742</ele>
        <time>2020-02-27T20:11:36Z</time>
      </trkpt>
      <trkpt lat="40.923830" lon="-4.108960">
        <ele>1051.710</ele>
        <time>2020-02-27T20:11:56Z</time>
      </trkpt>
      <trkpt lat="40.923810" lon="-4.108920">
        <ele>1051.923</ele>
        <time>2020-02-27T20:12:16Z</time>
      </trkpt>
      <trkpt lat="40.923810" lon="-4.108900">
        <ele>1052.038</ele>
        <time>2020-02-27T20:12:36Z</time>
      </trkpt>
      <trkpt lat="40.923800" lon="-4.108880">
        <ele>1052.018</ele>
        <time>2020-02-27T20:12:56Z</time>
      </trkpt>
      <trkpt lat="40.923800" lon="-4.108840">
        <ele>1052.298</ele>
        <time>2020-02-27T20:13:16Z</time>
      </trkpt>
      <trkpt lat="40.923790" lon="-4.108820">
        <ele>1052.217</ele>
        <time>2020-02-27T20:13:36Z</time>
      </trkpt>
      <trkpt lat="40.923720" lon="-4.108760">
        <ele>1052.508</ele>
        <time>2020-02-27T20:13:56Z</time>
      </trkpt>
      <trkpt lat="40.923630" lon="-4.108720">
        <ele>1052.635</ele>
        <time>2020-02-27T20:14:16Z</time>
      </trkpt>
      <trkpt lat="40.923380" lon="-4.108640">
        <ele>1052.138</ele>
        <time>2020-02-27T20:14:36Z</time>
      </trkpt>
      <trkpt lat="40.921910" lon="-4.108260">
        <ele>1058.673</ele>
        <time>2020-02-27T20:14:56Z</time>
      </trkpt>
      <trkpt lat="40.921530" lon="-4.108140">
        <ele>1062.724</ele>
        <time>2020-02-27T20:15:16Z</time>
      </trkpt>
      <trkpt lat="40.921320" lon="-4.108060">
        <ele>1064.036</ele>
        <time>2020-02-27T20:15:36Z</time>
      </trkpt>
      <trkpt lat="40.921240" lon="-4.108020">
        <ele>1064.234</ele>
        <time>2020-02-27T20:15:56Z</time>
      </trkpt>
      <trkpt lat="40.921140" lon="-4.107990">
        <ele>1064.427</ele>
        <time>2020-02-27T20:16:16Z</time>
      </trkpt>
      <trkpt lat="40.920190" lon="-4.107540">
        <ele>1061.412</ele>
        <time>2020-02-27T20:16:36Z</time>
      </trkpt>
      <trkpt lat="40.918090" lon="-4.106380">
        <ele>1056.825</ele>
        <time>2020-02-27T20:16:56Z</time>
      </trkpt>
      <trkpt lat="40.918080" lon="-4.106370">
        <ele>1057.026</ele>
        <time>2020-02-27T20:17:16Z</time>
      </trkpt>
      <trkpt lat="40.915530" lon="-4.105000">
        <ele>1059.008</ele>
        <time>2020-02-27T20:17:36Z</time>
      </trkpt>
      <trkpt lat="40.914040" lon="-4.104270">
        <ele>1064.808</ele>
        <time>2020-02-27T20:17:56Z</time>
      </trkpt>
      <trkpt lat="40.913490" lon="-4.104050">
        <ele>1067.046</ele>
        <time>2020-02-27T20:18:16Z</time>
      </trkpt>
      <trkpt lat="40.912800" lon="-4.103810">
        <ele>1067.789</ele>
        <time>2020-02-27T20:18:36Z</time>
      </trkpt>
      <trkpt lat="40.911860" lon="-4.103540">
        <ele>1066.544</ele>
        <time>2020-02-27T20:18:56Z</time>
      </trkpt>
      <trkpt lat="40.911320" lon="-4.103420">
        <ele>1068.255</ele>
        <time>2020-02-27T20:19:16Z</time>
      </trkpt>
      <trkpt lat="40.910570" lon="-4.103290">
        <ele>1069.087</ele>
        <time>2020-02-27T20:19:36Z</time>
      </trkpt>
      <trkpt lat="40.910550" lon="-4.103280">
        <ele>1069.045</ele>
        <time>2020-02-27T20:19:56Z</time>
      </trkpt>
      <trkpt lat="40.910310" lon="-4.103240">
        <ele>1069.038</ele>
        <time>2020-02-27T20:20:16Z</time>
      </trkpt>
      <trkpt lat="40.909560" lon="-4.103160">
        <ele>1069.733</ele>
        <time>2020-02-27T20:20:36Z</time>
      </trkpt>
      <trkpt lat="40.908820" lon="-4.103130">
        <ele>1071.576</ele>
        <time>2020-02-27T20:20:56Z</time>
      </trkpt>
      <trkpt lat="40.908170" lon="-4.103140">
        <ele>1072.990</ele>
        <time>2020-02-27T20:21:16Z</time>
      </trkpt>
      <trkpt lat="40.907630" lon="-4.103170">
        <ele>1074.519</ele>
        <time>2020-02-27T20:21:36Z</time>
      </trkpt>
      <trkpt lat="40.907530" lon="-4.103230">
        <ele>1074.908</ele>
        <time>2020-02-27T20:21:56Z</time>
      </trkpt>
      <trkpt lat="40.907520" lon="-4.103240">
        <ele>1074.921</ele>
        <time>2020-02-27T20:22:16Z</time>
      </trkpt>
      <trkpt lat="40.907500" lon="-4.103250">
        <ele>1075.024</ele>
        <time>2020-02-27T20:22:36Z</time>
      </trkpt>
      <trkpt lat="40.907010" lon="-4.103330">
        <ele>1076.089</ele>
        <time>2020-02-27T20:22:56Z</time>
      </trkpt>
      <trkpt lat="40.906620" lon="-4.103420">
        <ele>1077.260</ele>
        <time>2020-02-27T20:23:16Z</time>
      </trkpt>
      <trkpt lat="40.906600" lon="-4.103430">
        <ele>1077.212</ele>
        <time>2020-02-27T20:23:36Z</time>
      </trkpt>
      <trkpt lat="40.906270" lon="-4.103520">
        <ele>1078.320</ele>
        <time>2020-02-27T20:23:56Z</time>
      </trkpt>
      <trkpt lat="40.906250" lon="-4.103530">
        <ele>1078.443</ele>
        <time>2020-02-27T20:24:16Z</time>
      </trkpt>
      <trkpt lat="40.905390" lon="-4.103780">
        <ele>1079.678</ele>
        <time>2020-02-27T20:24:36Z</time>
      </trkpt>
      <trkpt lat="40.905370" lon="-4.103790">
        <ele>1079.613</ele>
        <time>2020-02-27T20:24:56Z</time>
      </trkpt>
      <trkpt lat="40.905250" lon="-4.103820">
        <ele>1079.243</ele>
        <time>2020-02-27T20:25:16Z</time>
      </trkpt>
      <trkpt lat="40.905220" lon="-4.103840">
        <ele>1079.207</ele>
        <time>2020-02-27T20:25:36Z</time>
      </trkpt>
      <trkpt lat="40.905170" lon="-4.103860">
        <ele>1079.108</ele>
        <time>2020-02-27T20:25:56Z</time>
      </trkpt>
      <trkpt lat="40.905030" lon="-4.103940">
        <ele>1079.065</ele>
        <time>2020-02-27T20:26:16Z</time>
      </trkpt>
      <trkpt lat="40.904980" lon="-4.104090">
        <ele>1079.078</ele>
        <time>2020-02-27T20:26:36Z</time>
      </trkpt>
      <trkpt lat="40.904900" lon="-4.104210">
        <ele>1078.873</ele>
        <time>2020-02-27T20:26:56Z</time>
      </trkpt>
      <trkpt lat="40.904820" lon="-4.104310">
        <ele>1078.514</ele>
        <time>2020-02-27T20:27:16Z</time>
      </trkpt>
      <trkpt lat="40.904770" lon="-4.104360">
        <ele>1078.316</ele>
        <time>2020-02-27T20:27:36Z</time>
      </trkpt>
      <trkpt lat="40.904610" lon="-4.104460">
        <ele>1077.984</ele>
        <time>2020-02-27T20:27:56Z</time>
      </trkpt>
      <trkpt lat="40.904540" lon="-4.104480">
        <ele>1077.977</ele>
        <time>2020-02-27T20:28:16Z</time>
      </trkpt>
      <trkpt lat="40.904470" lon="-4.104490">
        <ele>1077.822</ele>
        <time>2020-02-27T20:28:36Z</time>
      </trkpt>
      <trkpt lat="40.904330" lon="-4.104470">
        <ele>1077.925</ele>
        <time>2020-02-27T20:28:56Z</time>
      </trkpt>
      <trkpt lat="40.904260" lon="-4.104450">
        <ele>1078.026</ele>
        <time>2020-02-27T20:29:16Z</time>
      </trkpt>
      <trkpt lat="40.904130" lon="-4.104370">
        <ele>1078.308</ele>
        <time>2020-02-27T20:29:36Z</time>
      </trkpt>
      <trkpt lat="40.904070" lon="-4.104320">
        <ele>1078.408</ele>
        <time>2020-02-27T20:29:56Z</time>
      </trkpt>
      <trkpt lat="40.903930" lon="-4.104150">
        <ele>1079.146</ele>
        <time>2020-02-27T20:30:16Z</time>
      </trkpt>
      <trkpt lat="40.903890" lon="-4.104070">
        <ele>1079.349</ele>
        <time>2020-02-27T20:30:36Z</time>
      </trkpt>
      <trkpt lat="40.903860" lon="-4.103990">
        <ele>1079.644</ele>
        <time>2020-02-27T20:30:56Z</time>
      </trkpt>
      <trkpt lat="40.903820" lon="-4.103830">
        <ele>1080.085</ele>
        <time>2020-02-27T20:31:16Z</time>
      </trkpt>
      <trkpt lat="40.903810" lon="-4.103750">
        <ele>1080.067</ele>
        <time>2020-02-27T20:31:36Z</time>
      </trkpt>
      <trkpt lat="40.903810" lon="-4.103580">
        <ele>1080.095</ele>
        <time>2020-02-27T20:31:56Z</time>
      </trkpt>
      <trkpt lat="40.903820" lon="-4.103490">
        <ele>1080.088</ele>
        <time>2020-02-27T20:32:16Z</time>
      </trkpt>
      <trkpt lat="40.903830" lon="-4.103470">
        <ele>1080.083</ele>
        <time>2020-02-27T20:32:36Z</time>
      </trkpt>
      <trkpt lat="40.903830" lon="-4.103430">
        <ele>1080.069</ele>
        <time>2020-02-27T20:32:56Z</time>
      </trkpt>
      <trkpt lat="40.903840" lon="-4.103410">
        <ele>1080.004</ele>
        <time>2020-02-27T20:33:16Z</time>
      </trkpt>
      <trkpt lat="40.903840" lon="-4.103390">
        <ele>1080.024</ele>
        <time>2020-02-27T20:33:36Z</time>
      </trkpt>
      <trkpt lat="40.903870" lon="-4.103320">
        <ele>1080.008</ele>
        <time>2020-02-27T20:33:56Z</time>
      </trkpt>
      <trkpt lat="40.903870" lon="-4.103300">
        <ele>1080.010</ele>
        <time>2020-02-27T20:34:16Z</time>
      </trkpt>
      <trkpt lat="40.903880" lon="-4.103270">
        <ele>1080.093</ele>
        <time>2020-02-27T20:34:36Z</time>
      </trkpt>
      <trkpt lat="40.903900" lon="-4.103240">
        <ele>1080.098</ele>
        <time>2020-02-27T20:34:56Z</time>
      </trkpt>
      <trkpt lat="40.903910" lon="-4.103210">
        <ele>1080.019</ele>
        <time>2020-02-27T20:35:16Z</time>
      </trkpt>
      <trkpt lat="40.903940" lon="-4.103160">
        <ele>1080.011</ele>
        <time>2020-02-27T20:35:36Z</time>
      </trkpt>
      <trkpt lat="40.903950" lon="-4.103130">
        <ele>1080.049</ele>
        <time>2020-02-27T20:35:56Z</time>
      </trkpt>
      <trkpt lat="40.903970" lon="-4.103100">
        <ele>1080.012</ele>
        <time>2020-02-27T20:36:16Z</time>
      </trkpt>
      <trkpt lat="40.903980" lon="-4.102750">
        <ele>1080.777</ele>
        <time>2020-02-27T20:36:36Z</time>
      </trkpt>
      <trkpt lat="40.903940" lon="-4.102590">
        <ele>1080.883</ele>
        <time>2020-02-27T20:36:56Z</time>
      </trkpt>
      <trkpt lat="40.903900" lon="-4.102490">
        <ele>1081.025</ele>
        <time>2020-02-27T20:37:16Z</time>
      </trkpt>
      <trkpt lat="40.903830" lon="-4.102360">
        <ele>1081.017</ele>
        <time>2020-02-27T20:37:36Z</time>
      </trkpt>
      <trkpt lat="40.903710" lon="-4.102230">
        <ele>1081.008</ele>
        <time>2020-02-27T20:37:56Z</time>
      </trkpt>
      <trkpt lat="40.903620" lon="-4.102180">
        <ele>1081.182</ele>
        <time>2020-02-27T20:38:16Z</time>
      </trkpt>
      <trkpt lat="40.903570" lon="-4.102160">
        <ele>1081.335</ele>
        <time>2020-02-27T20:38:36Z</time>
      </trkpt>
      <trkpt lat="40.903450" lon="-4.102130">
        <ele>1081.760</ele>
        <time>2020-02-27T20:38:56Z</time>
      </trkpt>
      <trkpt lat="40.903370" lon="-4.102120">
        <ele>1081.981</ele>
        <time>2020-02-27T20:39:16Z</time>
      </trkpt>
      <trkpt lat="40.903130" lon="-4.102160">
        <ele>1082.263</ele>
        <time>2020-02-27T20:39:36Z</time>
      </trkpt>
      <trkpt lat="40.903040" lon="-4.102190">
        <ele>1082.161</ele>
        <time>2020-02-27T20:39:56Z</time>
      </trkpt>
      <trkpt lat="40.902900" lon="-4.102260">
        <ele>1082.014</ele>
        <time>2020-02-27T20:40:16Z</time>
      </trkpt>
      <trkpt lat="40.902460" lon="-4.102550">
        <ele>1081.559</ele>
        <time>2020-02-27T20:40:36Z</time>
      </trkpt>
      <trkpt lat="40.902270" lon="-4.102660">
        <ele>1079.867</ele>
        <time>2020-02-27T20:40:56Z</time>
      </trkpt>
      <trkpt lat="40.902000" lon="-4.102790">
        <ele>1077.481</ele>
        <time>2020-02-27T20:41:16Z</time>
      </trkpt>
      <trkpt lat="40.901840" lon="-4.102850">
        <ele>1076.419</ele>
        <time>2020-02-27T20:41:36Z</time>
      </trkpt>
      <trkpt lat="40.901750" lon="-4.102870">
        <ele>1076.008</ele>
        <time>2020-02-27T20:41:56Z</time>
      </trkpt>
      <trkpt lat="40.901610" lon="-4.102920">
        <ele>1075.360</ele>
        <time>2020-02-27T20:42:16Z</time>
      </trkpt>
      <trkpt lat="40.901370" lon="-4.102960">
        <ele>1074.383</ele>
        <time>2020-02-27T20:42:36Z</time>
      </trkpt>
      <trkpt lat="40.901070" lon="-4.102990">
        <ele>1074.248</ele>
        <time>2020-02-27T20:42:56Z</time>
      </trkpt>
      <trkpt lat="40.900810" lon="-4.102990">
        <ele>1074.379</ele>
        <time>2020-02-27T20:43:16Z</time>
      </trkpt>
      <trkpt lat="40.900590" lon="-4.102970">
        <ele>1075.271</ele>
        <time>2020-02-27T20:43:36Z</time>
      </trkpt>
      <trkpt lat="40.893130" lon="-4.101630">
        <ele>1090.179</ele>
        <time>2020-02-27T20:43:56Z</time>
      </trkpt>
      <trkpt lat="40.893120" lon="-4.101620">
        <ele>1090.212</ele>
        <time>2020-02-27T20:44:16Z</time>
      </trkpt>
      <trkpt lat="40.890320" lon="-4.100890">
        <ele>1093.057</ele>
        <time>2020-02-27T20:44:36Z</time>
      </trkpt>
      <trkpt lat="40.890280" lon="-4.100870">
        <ele>1093.086</ele>
        <time>2020-02-27T20:44:56Z</time>
      </trkpt>
      <trkpt lat="40.887960" lon="-4.100260">
        <ele>1104.160</ele>
        <time>2020-02-27T20:45:16Z</time>
      </trkpt>
      <trkpt lat="40.887790" lon="-4.100240">
        <ele>1104.126</ele>
        <time>2020-02-27T20:45:36Z</time>
      </trkpt>
      <trkpt lat="40.887330" lon="-4.100150">
        <ele>1103.808</ele>
        <time>2020-02-27T20:45:56Z</time>
      </trkpt>
      <trkpt lat="40.885990" lon="-4.099810">
        <ele>1106.192</ele>
        <time>2020-02-27T20:46:16Z</time>
      </trkpt>
      <trkpt lat="40.885280" lon="-4.099600">
        <ele>1110.085</ele>
        <time>2020-02-27T20:46:36Z</time>
      </trkpt>
      <trkpt lat="40.883610" lon="-4.099320">
        <ele>1120.090</ele>
        <time>2020-02-27T20:46:56Z</time>
      </trkpt>
      <trkpt lat="40.882930" lon="-4.099240">
        <ele>1120.221</ele>
        <time>2020-02-27T20:47:16Z</time>
      </trkpt>
      <trkpt lat="40.882870" lon="-4.099240">
        <ele>1120.483</ele>
        <time>2020-02-27T20:47:36Z</time>
      </trkpt>
      <trkpt lat="40.882780" lon="-4.099210">
        <ele>1120.861</ele>
        <time>2020-02-27T20:47:56Z</time>
      </trkpt>
      <trkpt lat="40.880830" lon="-4.099120">
        <ele>1126.234</ele>
        <time>2020-02-27T20:48:16Z</time>
      </trkpt>
      <trkpt lat="40.880510" lon="-4.099120">
        <ele>1127.619</ele>
        <time>2020-02-27T20:48:36Z</time>
      </trkpt>
      <trkpt lat="40.880220" lon="-4.099100">
        <ele>1130.042</ele>
        <time>2020-02-27T20:48:56Z</time>
      </trkpt>
      <trkpt lat="40.880080" lon="-4.099080">
        <ele>1130.222</ele>
        <time>2020-02-27T20:49:16Z</time>
      </trkpt>
      <trkpt lat="40.879270" lon="-4.098880">
        <ele>1133.314</ele>
        <time>2020-02-27T20:49:36Z</time>
      </trkpt>
      <trkpt lat="40.879220" lon="-4.098860">
        <ele>1133.708</ele>
        <time>2020-02-27T20:49:56Z</time>
      </trkpt>
      <trkpt lat="40.879200" lon="-4.098860">
        <ele>1133.938</ele>
        <time>2020-02-27T20:50:16Z</time>
      </trkpt>
      <trkpt lat="40.878760" lon="-4.098740">
        <ele>1136.041</ele>
        <time>2020-02-27T20:50:36Z</time>
      </trkpt>
      <trkpt lat="40.878480" lon="-4.098700">
        <ele>1137.266</ele>
        <time>2020-02-27T20:50:56Z</time>
      </trkpt>
      <trkpt lat="40.878330" lon="-4.098690">
        <ele>1137.717</ele>
        <time>2020-02-27T20:51:16Z</time>
      </trkpt>
      <trkpt lat="40.877940" lon="-4.098720">
        <ele>1138.819</ele>
        <time>2020-02-27T20:51:36Z</time>
      </trkpt>
      <trkpt lat="40.877600" lon="-4.098820">
        <ele>1139.677</ele>
        <time>2020-02-27T20:51:56Z</time>
      </trkpt>
      <trkpt lat="40.877450" lon="-4.098890">
        <ele>1140.240</ele>
        <time>2020-02-27T20:52:16Z</time>
      </trkpt>
      <trkpt lat="40.877180" lon="-4.099040">
        <ele>1141.245</ele>
        <time>2020-02-27T20:52:36Z</time>
      </trkpt>
      <trkpt lat="40.875340" lon="-4.100230">
        <ele>1150.322</ele>
        <time>2020-02-27T20:52:56Z</time>
      </trkpt>
      <trkpt lat="40.875330" lon="-4.100240">
        <ele>1150.262</ele>
        <time>2020-02-27T20:53:16Z</time>
      </trkpt>
      <trkpt lat="40.875100" lon="-4.100390">
        <ele>1151.108</ele>
        <time>2020-02-27T20:53:36Z</time>
      </trkpt>
      <trkpt lat="40.874660" lon="-4.100630">
        <ele>1155.108</ele>
        <time>2020-02-27T20:53:56Z</time>
      </trkpt>
      <trkpt lat="40.874470" lon="-4.100700">
        <ele>1156.726</ele>
        <time>2020-02-27T20:54:16Z</time>
      </trkpt>
      <trkpt lat="40.874180" lon="-4.100760">
        <ele>1157.729</ele>
        <time>2020-02-27T20:54:36Z</time>
      </trkpt>
      <trkpt lat="40.873960" lon="-4.100770">
        <ele>1157.744</ele>
        <time>2020-02-27T20:54:56Z</time>
      </trkpt>
      <trkpt lat="40.866880" lon="-4.100650">
        <ele>1168.455</ele>
        <time>2020-02-27T20:55:16Z</time>
      </trkpt>
      <trkpt lat="40.866620" lon="-4.100630">
        <ele>1167.637</ele>
        <time>2020-02-27T20:55:36Z</time>
      </trkpt>
      <trkpt lat="40.866430" lon="-4.100590">
        <ele>1167.085</ele>
        <time>2020-02-27T20:55:56Z</time>
      </trkpt>
      <trkpt lat="40.866110" lon="-4.100490">
        <ele>1166.278</ele>
        <time>2020-02-27T20:56:16Z</time>
      </trkpt>
      <trkpt lat="40.865660" lon="-4.100280">
        <ele>1162.773</ele>
        <time>2020-02-27T20:56:36Z</time>
      </trkpt>
      <trkpt lat="40.865460" lon="-4.100150">
        <ele>1161.868</ele>
        <time>2020-02-27T20:56:56Z</time>
      </trkpt>
      <trkpt lat="40.865370" lon="-4.100070">
        <ele>1161.442</ele>
        <time>2020-02-27T20:57:16Z</time>
      </trkpt>
      <trkpt lat="40.865250" lon="-4.099930">
        <ele>1160.926</ele>
        <time>2020-02-27T20:57:36Z</time>
      </trkpt>
      <trkpt lat="40.865020" lon="-4.099510">
        <ele>1160.108</ele>
        <time>2020-02-27T20:57:56Z</time>
      </trkpt>
      <trkpt lat="40.864570" lon="-4.098470">
        <ele>1153.860</ele>
        <time>2020-02-27T20:58:16Z</time>
      </trkpt>
      <trkpt lat="40.864450" lon="-4.098270">
        <ele>1153.383</ele>
        <time>2020-02-27T20:58:36Z</time>
      </trkpt>
      <trkpt lat="40.864330" lon="-4.098120">
        <ele>1151.768</ele>
        <time>2020-02-27T20:58:56Z</time>
      </trkpt>
      <trkpt lat="40.864120" lon="-4.097950">
        <ele>1149.129</ele>
        <time>2020-02-27T20:59:16Z</time>
      </trkpt>
      <trkpt lat="40.864030" lon="-4.097900">
        <ele>1148.941</ele>
        <time>2020-02-27T20:59:36Z</time>
      </trkpt>
      <trkpt lat="40.863830" lon="-4.097830">
        <ele>1148.289</ele>
        <time>2020-02-27T20:59:56Z</time>
      </trkpt>
      <trkpt lat="40.863720" lon="-4.097820">
        <ele>1147.532</ele>
        <time>2020-02-27T21:00:16Z</time>
      </trkpt>
      <trkpt lat="40.863490" lon="-4.097830">
        <ele>1144.487</ele>
        <time>2020-02-27T21:00:36Z</time>
      </trkpt>
      <trkpt lat="40.863260" lon="-4.097870">
        <ele>1141.063</ele>
        <time>2020-02-27T21:00:56Z</time>
      </trkpt>
      <trkpt lat="40.863060" lon="-4.097950">
        <ele>1140.144</ele>
        <time>2020-02-27T21:01:16Z</time>
      </trkpt>
      <trkpt lat="40.862870" lon="-4.098090">
        <ele>1139.518</ele>
        <time>2020-02-27T21:01:36Z</time>
      </trkpt>
      <trkpt lat="40.862720" lon="-4.098280">
        <ele>1141.408</ele>
        <time>2020-02-27T21:01:56Z</time>
      </trkpt>
      <trkpt lat="40.862720" lon="-4.098290">
        <ele>1141.470</ele>
        <time>2020-02-27T21:02:16Z</time>
      </trkpt>
      <trkpt lat="40.862650" lon="-4.098400">
        <ele>1142.363</ele>
        <time>2020-02-27T21:02:36Z</time>
      </trkpt>
      <trkpt lat="40.862610" lon="-4.098480">
        <ele>1142.738</ele>
        <time>2020-02-27T21:02:56Z</time>
      </trkpt>
      <trkpt lat="40.862610" lon="-4.098490">
        <ele>1142.589</ele>
        <time>2020-02-27T21:03:16Z</time>
      </trkpt>
      <trkpt lat="40.862570" lon="-4.098580">
        <ele>1143.251</ele>
        <time>2020-02-27T21:03:36Z</time>
      </trkpt>
      <trkpt lat="40.862510" lon="-4.098830">
        <ele>1146.499</ele>
        <time>2020-02-27T21:03:56Z</time>
      </trkpt>
      <trkpt lat="40.862500" lon="-4.098940">
        <ele>1147.252</ele>
        <time>2020-02-27T21:04:16Z</time>
      </trkpt>
      <trkpt lat="40.862500" lon="-4.099190">
        <ele>1148.267</ele>
        <time>2020-02-27T21:04:36Z</time>
      </trkpt>
      <trkpt lat="40.862580" lon="-4.099630">
        <ele>1152.054</ele>
        <time>2020-02-27T21:04:56Z</time>
      </trkpt>
      <trkpt lat="40.862770" lon="-4.100400">
        <ele>1146.456</ele>
        <time>2020-02-27T21:05:16Z</time>
      </trkpt>
      <trkpt lat="40.863180" lon="-4.101310">
        <ele>1148.111</ele>
        <time>2020-02-27T21:05:36Z</time>
      </trkpt>
      <trkpt lat="40.863250" lon="-4.101510">
        <ele>1147.908</ele>
        <time>2020-02-27T21:05:56Z</time>
      </trkpt>
      <trkpt lat="40.863320" lon="-4.101820">
        <ele>1146.369</ele>
        <time>2020-02-27T21:06:16Z</time>
      </trkpt>
      <trkpt lat="40.863340" lon="-4.101980">
        <ele>1145.832</ele>
        <time>2020-02-27T21:06:36Z</time>
      </trkpt>
      <trkpt lat="40.863390" lon="-4.103510">
        <ele>1149.177</ele>
        <time>2020-02-27T21:06:56Z</time>
      </trkpt>
      <trkpt lat="40.863360" lon="-4.103950">
        <ele>1153.888</ele>
        <time>2020-02-27T21:07:16Z</time>
      </trkpt>
      <trkpt lat="40.863330" lon="-4.104080">
        <ele>1154.050</ele>
        <time>2020-02-27T21:07:36Z</time>
      </trkpt>
      <trkpt lat="40.862680" lon="-4.105870">
        <ele>1163.328</ele>
        <time>2020-02-27T21:07:56Z</time>
      </trkpt>
      <trkpt lat="40.862490" lon="-4.106320">
        <ele>1165.851</ele>
        <time>2020-02-27T21:08:16Z</time>
      </trkpt>
      <trkpt lat="40.862180" lon="-4.106910">
        <ele>1165.696</ele>
        <time>2020-02-27T21:08:36Z</time>
      </trkpt>
      <trkpt lat="40.862170" lon="-4.106940">
        <ele>1165.454</ele>
        <time>2020-02-27T21:08:56Z</time>
      </trkpt>
      <trkpt lat="40.860390" lon="-4.110070">
        <ele>1165.856</ele>
        <time>2020-02-27T21:09:16Z</time>
      </trkpt>
      <trkpt lat="40.855280" lon="-4.118090">
        <ele>1173.911</ele>
        <time>2020-02-27T21:09:36Z</time>
      </trkpt>
      <trkpt lat="40.852640" lon="-4.122730">
        <ele>1174.308</ele>
        <time>2020-02-27T21:09:56Z</time>
      </trkpt>
      <trkpt lat="40.851770" lon="-4.124680">
        <ele>1177.879</ele>
        <time>2020-02-27T21:10:16Z</time>
      </trkpt>
      <trkpt lat="40.851750" lon="-4.124710">
        <ele>1177.892</ele>
        <time>2020-02-27T21:10:36Z</time>
      </trkpt>
      <trkpt lat="40.850490" lon="-4.127650">
        <ele>1176.677</ele>
        <time>2020-02-27T21:10:56Z</time>
      </trkpt>
      <trkpt lat="40.850490" lon="-4.127660">
        <ele>1176.578</ele>
        <time>2020-02-27T21:11:16Z</time>
      </trkpt>
      <trkpt lat="40.850080" lon="-4.128570">
        <ele>1173.920</ele>
        <time>2020-02-27T21:11:36Z</time>
      </trkpt>
      <trkpt lat="40.849760" lon="-4.129220">
        <ele>1171.768</ele>
        <time>2020-02-27T21:11:56Z</time>
      </trkpt>
      <trkpt lat="40.846010" lon="-4.136250">
        <ele>1175.971</ele>
        <time>2020-02-27T21:12:16Z</time>
      </trkpt>
      <trkpt lat="40.844630" lon="-4.138580">
        <ele>1170.246</ele>
        <time>2020-02-27T21:12:36Z</time>
      </trkpt>
      <trkpt lat="40.844280" lon="-4.139220">
        <ele>1167.944</ele>
        <time>2020-02-27T21:12:56Z</time>
      </trkpt>
      <trkpt lat="40.841510" lon="-4.143980">
        <ele>1165.905</ele>
        <time>2020-02-27T21:13:16Z</time>
      </trkpt>
      <trkpt lat="40.841470" lon="-4.144070">
        <ele>1166.015</ele>
        <time>2020-02-27T21:13:36Z</time>
      </trkpt>
      <trkpt lat="40.840440" lon="-4.145820">
        <ele>1165.408</ele>
        <time>2020-02-27T21:13:56Z</time>
      </trkpt>
      <trkpt lat="40.840400" lon="-4.145920">
        <ele>1165.228</ele>
        <time>2020-02-27T21:14:16Z</time>
      </trkpt>
      <trkpt lat="40.840080" lon="-4.146510">
        <ele>1164.321</ele>
        <time>2020-02-27T21:14:36Z</time>
      </trkpt>
      <trkpt lat="40.839930" lon="-4.146840">
        <ele>1163.556</ele>
        <time>2020-02-27T21:14:56Z</time>
      </trkpt>
      <trkpt lat="40.839580" lon="-4.147740">
        <ele>1161.647</ele>
        <time>2020-02-27T21:15:16Z</time>
      </trkpt>
      <trkpt lat="40.839430" lon="-4.148070">
        <ele>1162.129</ele>
        <time>2020-02-27T21:15:36Z</time>
      </trkpt>
      <trkpt lat="40.839370" lon="-4.148170">
        <ele>1162.187</ele>
        <time>2020-02-27T21:15:56Z</time>
      </trkpt>
      <trkpt lat="40.839220" lon="-4.148560">
        <ele>1162.670</ele>
        <time>2020-02-27T21:16:16Z</time>
      </trkpt>
      <trkpt lat="40.834690" lon="-4.159160">
        <ele>1157.355</ele>
        <time>2020-02-27T21:16:36Z</time>
      </trkpt>
      <trkpt lat="40.834680" lon="-4.159220">
        <ele>1157.379</ele>
        <time>2020-02-27T21:16:56Z</time>
      </trkpt>
      <trkpt lat="40.833790" lon="-4.161380">
        <ele>1163.705</ele>
        <time>2020-02-27T21:17:16Z</time>
      </trkpt>
      <trkpt lat="40.833550" lon="-4.161910">
        <ele>1164.225</ele>
        <time>2020-02-27T21:17:36Z</time>
      </trkpt>
      <trkpt lat="40.832980" lon="-4.163020">
        <ele>1160.508</ele>
        <time>2020-02-27T21:17:56Z</time>
      </trkpt>
      <trkpt lat="40.832790" lon="-4.163330">
        <ele>1160.091</ele>
        <time>2020-02-27T21:18:16Z</time>
      </trkpt>
      <trkpt lat="40.832470" lon="-4.163910">
        <ele>1155.974</ele>
        <time>2020-02-27T21:18:36Z</time>
      </trkpt>
      <trkpt lat="40.832390" lon="-4.164000">
        <ele>1155.669</ele>
        <time>2020-02-27T21:18:56Z</time>
      </trkpt>
      <trkpt lat="40.830550" lon="-4.167590">
        <ele>1159.710</ele>
        <time>2020-02-27T21:19:16Z</time>
      </trkpt>
      <trkpt lat="40.830550" lon="-4.167600">
        <ele>1159.792</ele>
        <time>2020-02-27T21:19:36Z</time>
      </trkpt>
      <trkpt lat="40.830460" lon="-4.167790">
        <ele>1159.740</ele>
        <time>2020-02-27T21:19:56Z</time>
      </trkpt>
      <trkpt lat="40.830400" lon="-4.167980">
        <ele>1159.713</ele>
        <time>2020-02-27T21:20:16Z</time>
      </trkpt>
      <trkpt lat="40.830330" lon="-4.168280">
        <ele>1159.798</ele>
        <time>2020-02-27T21:20:36Z</time>
      </trkpt>
      <trkpt lat="40.830310" lon="-4.168410">
        <ele>1159.599</ele>
        <time>2020-02-27T21:20:56Z</time>
      </trkpt>
      <trkpt lat="40.830190" lon="-4.170860">
        <ele>1144.907</ele>
        <time>2020-02-27T21:21:16Z</time>
      </trkpt>
      <trkpt lat="40.830100" lon="-4.171470">
        <ele>1141.327</ele>
        <time>2020-02-27T21:21:36Z</time>
      </trkpt>
      <trkpt lat="40.829980" lon="-4.171890">
        <ele>1139.908</ele>
        <time>2020-02-27T21:21:56Z</time>
      </trkpt>
      <trkpt lat="40.829880" lon="-4.172150">
        <ele>1138.723</ele>
        <time>2020-02-27T21:22:16Z</time>
      </trkpt>
      <trkpt lat="40.829760" lon="-4.172410">
        <ele>1136.866</ele>
        <time>2020-02-27T21:22:36Z</time>
      </trkpt>
      <trkpt lat="40.829510" lon="-4.172820">
        <ele>1130.861</ele>
        <time>2020-02-27T21:22:56Z</time>
      </trkpt>
      <trkpt lat="40.829100" lon="-4.173300">
        <ele>1129.342</ele>
        <time>2020-02-27T21:23:16Z</time>
      </trkpt>
      <trkpt lat="40.827910" lon="-4.174550">
        <ele>1123.754</ele>
        <time>2020-02-27T21:23:36Z</time>
      </trkpt>
      <trkpt lat="40.827850" lon="-4.174630">
        <ele>1123.832</ele>
        <time>2020-02-27T21:23:56Z</time>
      </trkpt>
      <trkpt lat="40.827540" lon="-4.174970">
        <ele>1125.715</ele>
        <time>2020-02-27T21:24:16Z</time>
      </trkpt>
      <trkpt lat="40.826760" lon="-4.175760">
        <ele>1129.980</ele>
        <time>2020-02-27T21:24:36Z</time>
      </trkpt>
      <trkpt lat="40.826200" lon="-4.176400">
        <ele>1131.798</ele>
        <time>2020-02-27T21:24:56Z</time>
      </trkpt>
      <trkpt lat="40.826010" lon="-4.176650">
        <ele>1132.415</ele>
        <time>2020-02-27T21:25:16Z</time>
      </trkpt>
      <trkpt lat="40.825820" lon="-4.176930">
        <ele>1133.126</ele>
        <time>2020-02-27T21:25:36Z</time>
      </trkpt>
      <trkpt lat="40.824430" lon="-4.179520">
        <ele>1134.808</ele>
        <time>2020-02-27T21:25:56Z</time>
      </trkpt>
      <trkpt lat="40.824370" lon="-4.179590">
        <ele>1134.983</ele>
        <time>2020-02-27T21:26:16Z</time>
      </trkpt>
      <trkpt lat="40.820650" lon="-4.186610">
        <ele>1146.556</ele>
        <time>2020-02-27T21:26:36Z</time>
      </trkpt>
      <trkpt lat="40.820640" lon="-4.186640">
        <ele>1146.661</ele>
        <time>2020-02-27T21:26:56Z</time>
      </trkpt>
      <trkpt lat="40.820170" lon="-4.187520">
        <ele>1147.852</ele>
        <time>2020-02-27T21:27:16Z</time>
      </trkpt>
      <trkpt lat="40.820160" lon="-4.187530">
        <ele>1147.864</ele>
        <time>2020-02-27T21:27:36Z</time>
      </trkpt>
      <trkpt lat="40.815230" lon="-4.196850">
        <ele>1177.252</ele>
        <time>2020-02-27T21:27:56Z</time>
      </trkpt>
      <trkpt lat="40.814810" lon="-4.197490">
        <ele>1179.765</ele>
        <time>2020-02-27T21:28:16Z</time>
      </trkpt>
      <trkpt lat="40.808220" lon="-4.204730">
        <ele>1188.850</ele>
        <time>2020-02-27T21:28:36Z</time>
      </trkpt>
      <trkpt lat="40.807990" lon="-4.205050">
        <ele>1188.162</ele>
        <time>2020-02-27T21:28:56Z</time>
      </trkpt>
      <trkpt lat="40.807910" lon="-4.205340">
        <ele>1186.883</ele>
        <time>2020-02-27T21:29:16Z</time>
      </trkpt>
      <trkpt lat="40.807910" lon="-4.205360">
        <ele>1186.811</ele>
        <time>2020-02-27T21:29:36Z</time>
      </trkpt>
      <trkpt lat="40.807920" lon="-4.205370">
        <ele>1186.608</ele>
        <time>2020-02-27T21:29:56Z</time>
      </trkpt>
      <trkpt lat="40.807920" lon="-4.205400">
        <ele>1186.550</ele>
        <time>2020-02-27T21:30:16Z</time>
      </trkpt>
      <trkpt lat="40.807930" lon="-4.205410">
        <ele>1186.493</ele>
        <time>2020-02-27T21:30:36Z</time>
      </trkpt>
      <trkpt lat="40.807930" lon="-4.205520">
        <ele>1186.078</ele>
        <time>2020-02-27T21:30:56Z</time>
      </trkpt>
      <trkpt lat="40.807920" lon="-4.205530">
        <ele>1186.149</ele>
        <time>2020-02-27T21:31:16Z</time>
      </trkpt>
      <trkpt lat="40.807920" lon="-4.205550">
        <ele>1186.011</ele>
        <time>2020-02-27T21:31:36Z</time>
      </trkpt>
      <trkpt lat="40.807910" lon="-4.205550">
        <ele>1186.129</ele>
        <time>2020-02-27T21:31:56Z</time>
      </trkpt>
      <trkpt lat="40.807910" lon="-4.205570">
        <ele>1186.052</ele>
        <time>2020-02-27T21:32:16Z</time>
      </trkpt>
      <trkpt lat="40.807900" lon="-4.205580">
        <ele>1186.097</ele>
        <time>2020-02-27T21:32:36Z</time>
      </trkpt>
      <trkpt lat="40.807890" lon="-4.205600">
        <ele>1186.035</ele>
        <time>2020-02-27T21:32:56Z</time>
      </trkpt>
      <trkpt lat="40.807890" lon="-4.205610">
        <ele>1186.086</ele>
        <time>2020-02-27T21:33:16Z</time>
      </trkpt>
      <trkpt lat="40.807830" lon="-4.205670">
        <ele>1186.214</ele>
        <time>2020-02-27T21:33:36Z</time>
      </trkpt>
      <trkpt lat="40.807820" lon="-4.205670">
        <ele>1186.308</ele>
        <time>2020-02-27T21:33:56Z</time>
      </trkpt>
      <trkpt lat="40.807810" lon="-4.205680">
        <ele>1186.317</ele>
        <time>2020-02-27T21:34:16Z</time>
      </trkpt>
      <trkpt lat="40.807800" lon="-4.205680">
        <ele>1186.470</ele>
        <time>2020-02-27T21:34:36Z</time>
      </trkpt>
      <trkpt lat="40.807780" lon="-4.205690">
        <ele>1186.585</ele>
        <time>2020-02-27T21:34:56Z</time>
      </trkpt>
      <trkpt lat="40.807720" lon="-4.205690">
        <ele>1186.876</ele>
        <time>2020-02-27T21:35:16Z</time>
      </trkpt>
      <trkpt lat="40.807710" lon="-4.205680">
        <ele>1186.988</ele>
        <time>2020-02-27T21:35:36Z</time>
      </trkpt>
      <trkpt lat="40.807700" lon="-4.205680">
        <ele>1187.046</ele>
        <time>2020-02-27T21:35:56Z</time>
      </trkpt>
      <trkpt lat="40.807680" lon="-4.205670">
        <ele>1187.119</ele>
        <time>2020-02-27T21:36:16Z</time>
      </trkpt>
      <trkpt lat="40.807660" lon="-4.205650">
        <ele>1187.414</ele>
        <time>2020-02-27T21:36:36Z</time>
      </trkpt>
      <trkpt lat="40.807650" lon="-4.205630">
        <ele>1187.566</ele>
        <time>2020-02-27T21:36:56Z</time>
      </trkpt>
      <trkpt lat="40.807410" lon="-4.205680">
        <ele>1188.429</ele>
        <time>2020-02-27T21:37:16Z</time>
      </trkpt>
      <trkpt lat="40.807180" lon="-4.205860">
        <ele>1187.821</ele>
        <time>2020-02-27T21:37:36Z</time>
      </trkpt>
      <trkpt lat="40.806710" lon="-4.206360">
        <ele>1184.108</ele>
        <time>2020-02-27T21:37:56Z</time>
      </trkpt>
      <trkpt lat="40.805980" lon="-4.207220">
        <ele>1183.050</ele>
        <time>2020-02-27T21:38:16Z</time>
      </trkpt>
      <trkpt lat="40.805750" lon="-4.207600">
        <ele>1183.563</ele>
        <time>2020-02-27T21:38:36Z</time>
      </trkpt>
      <trkpt lat="40.805240" lon="-4.208660">
        <ele>1184.048</ele>
        <time>2020-02-27T21:38:56Z</time>
      </trkpt>
      <trkpt lat="40.805120" lon="-4.208860">
        <ele>1183.719</ele>
        <time>2020-02-27T21:39:16Z</time>
      </trkpt>
      <trkpt lat="40.805110" lon="-4.208890">
        <ele>1183.621</ele>
        <time>2020-02-27T21:39:36Z</time>
      </trkpt>
      <trkpt lat="40.804760" lon="-4.209390">
        <ele>1184.139</ele>
        <time>2020-02-27T21:39:56Z</time>
      </trkpt>
      <trkpt lat="40.804550" lon="-4.209620">
        <ele>1184.862</ele>
        <time>2020-02-27T21:40:16Z</time>
      </trkpt>
      <trkpt lat="40.804270" lon="-4.209870">
        <ele>1185.137</ele>
        <time>2020-02-27T21:40:36Z</time>
      </trkpt>
      <trkpt lat="40.804040" lon="-4.210040">
        <ele>1185.545</ele>
        <time>2020-02-27T21:40:56Z</time>
      </trkpt>
      <trkpt lat="40.803770" lon="-4.210190">
        <ele>1186.947</ele>
        <time>2020-02-27T21:41:16Z</time>
      </trkpt>
      <trkpt lat="40.803400" lon="-4.210350">
        <ele>1188.711</ele>
        <time>2020-02-27T21:41:36Z</time>
      </trkpt>
      <trkpt lat="40.803190" lon="-4.210410">
        <ele>1190.308</ele>
        <time>2020-02-27T21:41:56Z</time>
      </trkpt>
      <trkpt lat="40.802870" lon="-4.210460">
        <ele>1192.078</ele>
        <time>2020-02-27T21:42:16Z</time>
      </trkpt>
      <trkpt lat="40.802440" lon="-4.210460">
        <ele>1192.961</ele>
        <time>2020-02-27T21:42:36Z</time>
      </trkpt>
      <trkpt lat="40.801800" lon="-4.210400">
        <ele>1189.526</ele>
        <time>2020-02-27T21:42:56Z</time>
      </trkpt>
      <trkpt lat="40.801150" lon="-4.210390">
        <ele>1184.527</ele>
        <time>2020-02-27T21:43:16Z</time>
      </trkpt>
      <trkpt lat="40.800840" lon="-4.210450">
        <ele>1183.869</ele>
        <time>2020-02-27T21:43:36Z</time>
      </trkpt>
      <trkpt lat="40.800630" lon="-4.210510">
        <ele>1184.747</ele>
        <time>2020-02-27T21:43:56Z</time>
      </trkpt>
      <trkpt lat="40.800350" lon="-4.210620">
        <ele>1186.010</ele>
        <time>2020-02-27T21:44:16Z</time>
      </trkpt>
      <trkpt lat="40.800190" lon="-4.210710">
        <ele>1186.565</ele>
        <time>2020-02-27T21:44:36Z</time>
      </trkpt>
      <trkpt lat="40.800180" lon="-4.210710">
        <ele>1186.675</ele>
        <time>2020-02-27T21:44:56Z</time>
      </trkpt>
      <trkpt lat="40.800020" lon="-4.210800">
        <ele>1187.128</ele>
        <time>2020-02-27T21:45:16Z</time>
      </trkpt>
      <trkpt lat="40.799900" lon="-4.210880">
        <ele>1187.620</ele>
        <time>2020-02-27T21:45:36Z</time>
      </trkpt>
      <trkpt lat="40.799710" lon="-4.211040">
        <ele>1188.408</ele>
        <time>2020-02-27T21:45:56Z</time>
      </trkpt>
      <trkpt lat="40.799690" lon="-4.211050">
        <ele>1188.641</ele>
        <time>2020-02-27T21:46:16Z</time>
      </trkpt>
      <trkpt lat="40.799360" lon="-4.211370">
        <ele>1190.734</ele>
        <time>2020-02-27T21:46:36Z</time>
      </trkpt>
      <trkpt lat="40.799160" lon="-4.211610">
        <ele>1191.359</ele>
        <time>2020-02-27T21:46:56Z</time>
      </trkpt>
      <trkpt lat="40.799000" lon="-4.211830">
        <ele>1191.620</ele>
        <time>2020-02-27T21:47:16Z</time>
      </trkpt>
      <trkpt lat="40.798730" lon="-4.212280">
        <ele>1193.422</ele>
        <time>2020-02-27T21:47:36Z</time>
      </trkpt>
      <trkpt lat="40.797640" lon="-4.214400">
        <ele>1211.160</ele>
        <time>2020-02-27T21:47:56Z</time>
      </trkpt>
      <trkpt lat="40.797640" lon="-4.214410">
        <ele>1211.063</ele>
        <time>2020-02-27T21:48:16Z</time>
      </trkpt>
      <trkpt lat="40.797610" lon="-4.214470">
        <ele>1211.678</ele>
        <time>2020-02-27T21:48:36Z</time>
      </trkpt>
      <trkpt lat="40.797280" lon="-4.214980">
        <ele>1216.131</ele>
        <time>2020-02-27T21:48:56Z</time>
      </trkpt>
      <trkpt lat="40.797040" lon="-4.215260">
        <ele>1216.861</ele>
        <time>2020-02-27T21:49:16Z</time>
      </trkpt>
      <trkpt lat="40.796710" lon="-4.215580">
        <ele>1217.507</ele>
        <time>2020-02-27T21:49:36Z</time>
      </trkpt>
      <trkpt lat="40.796530" lon="-4.215730">
        <ele>1217.608</ele>
        <time>2020-02-27T21:49:56Z</time>
      </trkpt>
      <trkpt lat="40.796130" lon="-4.216000">
        <ele>1215.637</ele>
        <time>2020-02-27T21:50:16Z</time>
      </trkpt>
      <trkpt lat="40.795900" lon="-4.216110">
        <ele>1214.890</ele>
        <time>2020-02-27T21:50:36Z</time>
      </trkpt>
      <trkpt lat="40.795470" lon="-4.216280">
        <ele>1212.975</ele>
        <time>2020-02-27T21:50:56Z</time>
      </trkpt>
      <trkpt lat="40.795160" lon="-4.216350">
        <ele>1212.116</ele>
        <time>2020-02-27T21:51:16Z</time>
      </trkpt>
      <trkpt lat="40.795140" lon="-4.216360">
        <ele>1211.918</ele>
        <time>2020-02-27T21:51:36Z</time>
      </trkpt>
      <trkpt lat="40.795090" lon="-4.216370">
        <ele>1211.646</ele>
        <time>2020-02-27T21:51:56Z</time>
      </trkpt>
      <trkpt lat="40.794850" lon="-4.216390">
        <ele>1210.439</ele>
        <time>2020-02-27T21:52:16Z</time>
      </trkpt>
      <trkpt lat="40.794690" lon="-4.216390">
        <ele>1209.354</ele>
        <time>2020-02-27T21:52:36Z</time>
      </trkpt>
      <trkpt lat="40.794320" lon="-4.216360">
        <ele>1203.225</ele>
        <time>2020-02-27T21:52:56Z</time>
      </trkpt>
      <trkpt lat="40.794090" lon="-4.216310">
        <ele>1202.326</ele>
        <time>2020-02-27T21:53:16Z</time>
      </trkpt>
      <trkpt lat="40.793740" lon="-4.216210">
        <ele>1202.408</ele>
        <time>2020-02-27T21:53:36Z</time>
      </trkpt>
      <trkpt lat="40.793280" lon="-4.216050">
        <ele>1203.408</ele>
        <time>2020-02-27T21:53:56Z</time>
      </trkpt>
      <trkpt lat="40.793250" lon="-4.216060">
        <ele>1203.446</ele>
        <time>2020-02-27T21:54:16Z</time>
      </trkpt>
      <trkpt lat="40.793230" lon="-4.216060">
        <ele>1203.479</ele>
        <time>2020-02-27T21:54:36Z</time>
      </trkpt>
      <trkpt lat="40.792250" lon="-4.215770">
        <ele>1208.634</ele>
        <time>2020-02-27T21:54:56Z</time>
      </trkpt>
      <trkpt lat="40.791070" lon="-4.215370">
        <ele>1214.475</ele>
        <time>2020-02-27T21:55:16Z</time>
      </trkpt>
      <trkpt lat="40.790490" lon="-4.215100">
        <ele>1217.297</ele>
        <time>2020-02-27T21:55:36Z</time>
      </trkpt>
      <trkpt lat="40.790270" lon="-4.214960">
        <ele>1218.475</ele>
        <time>2020-02-27T21:55:56Z</time>
      </trkpt>
      <trkpt lat="40.788800" lon="-4.213850">
        <ele>1228.488</ele>
        <time>2020-02-27T21:56:16Z</time>
      </trkpt>
      <trkpt lat="40.788660" lon="-4.213760">
        <ele>1229.473</ele>
        <time>2020-02-27T21:56:36Z</time>
      </trkpt>
      <trkpt lat="40.788210" lon="-4.213410">
        <ele>1232.653</ele>
        <time>2020-02-27T21:56:56Z</time>
      </trkpt>
      <trkpt lat="40.788040" lon="-4.213300">
        <ele>1233.504</ele>
        <time>2020-02-27T21:57:16Z</time>
      </trkpt>
      <trkpt lat="40.788010" lon="-4.213270">
        <ele>1234.014</ele>
        <time>2020-02-27T21:57:36Z</time>
      </trkpt>
      <trkpt lat="40.787970" lon="-4.213250">
        <ele>1234.408</ele>
        <time>2020-02-27T21:57:56Z</time>
      </trkpt>
      <trkpt lat="40.787900" lon="-4.213180">
        <ele>1235.579</ele>
        <time>2020-02-27T21:58:16Z</time>
      </trkpt>
      <trkpt lat="40.787600" lon="-4.213020">
        <ele>1237.562</ele>
        <time>2020-02-27T21:58:36Z</time>
      </trkpt>
      <trkpt lat="40.787570" lon="-4.213010">
        <ele>1237.637</ele>
        <time>2020-02-27T21:58:56Z</time>
      </trkpt>
      <trkpt lat="40.787490" lon="-4.212970">
        <ele>1238.248</ele>
        <time>2020-02-27T21:59:16Z</time>
      </trkpt>
      <trkpt lat="40.787270" lon="-4.212910">
        <ele>1238.310</ele>
        <time>2020-02-27T21:59:36Z</time>
      </trkpt>
      <trkpt lat="40.787220" lon="-4.212890">
        <ele>1238.458</ele>
        <time>2020-02-27T21:59:56Z</time>
      </trkpt>
      <trkpt lat="40.786840" lon="-4.212830">
        <ele>1238.111</ele>
        <time>2020-02-27T22:00:16Z</time>
      </trkpt>
      <trkpt lat="40.786510" lon="-4.212830">
        <ele>1237.366</ele>
        <time>2020-02-27T22:00:36Z</time>
      </trkpt>
      <trkpt lat="40.785780" lon="-4.212940">
        <ele>1237.059</ele>
        <time>2020-02-27T22:00:56Z</time>
      </trkpt>
      <trkpt lat="40.785730" lon="-4.212940">
        <ele>1237.203</ele>
        <time>2020-02-27T22:01:16Z</time>
      </trkpt>
      <trkpt lat="40.785670" lon="-4.212950">
        <ele>1237.323</ele>
        <time>2020-02-27T22:01:36Z</time>
      </trkpt>
      <trkpt lat="40.785510" lon="-4.212960">
        <ele>1238.008</ele>
        <time>2020-02-27T22:01:56Z</time>
      </trkpt>
      <trkpt lat="40.785040" lon="-4.212950">
        <ele>1240.689</ele>
        <time>2020-02-27T22:02:16Z</time>
      </trkpt>
      <trkpt lat="40.784810" lon="-4.212910">
        <ele>1241.082</ele>
        <time>2020-02-27T22:02:36Z</time>
      </trkpt>
      <trkpt lat="40.784580" lon="-4.212850">
        <ele>1240.857</ele>
        <time>2020-02-27T22:02:56Z</time>
      </trkpt>
      <trkpt lat="40.784410" lon="-4.212790">
        <ele>1240.748</ele>
        <time>2020-02-27T22:03:16Z</time>
      </trkpt>
      <trkpt lat="40.784120" lon="-4.212650">
        <ele>1240.820</ele>
        <time>2020-02-27T22:03:36Z</time>
      </trkpt>
      <trkpt lat="40.783770" lon="-4.212420">
        <ele>1240.358</ele>
        <time>2020-02-27T22:03:56Z</time>
      </trkpt>
      <trkpt lat="40.783320" lon="-4.212010">
        <ele>1239.171</ele>
        <time>2020-02-27T22:04:16Z</time>
      </trkpt>
      <trkpt lat="40.782710" lon="-4.211240">
        <ele>1240.416</ele>
        <time>2020-02-27T22:04:36Z</time>
      </trkpt>
      <trkpt lat="40.782460" lon="-4.210950">
        <ele>1242.965</ele>
        <time>2020-02-27T22:04:56Z</time>
      </trkpt>
      <trkpt lat="40.782130" lon="-4.210630">
        <ele>1247.068</ele>
        <time>2020-02-27T22:05:16Z</time>
      </trkpt>
      <trkpt lat="40.781940" lon="-4.210490">
        <ele>1249.514</ele>
        <time>2020-02-27T22:05:36Z</time>
      </trkpt>
      <trkpt lat="40.781790" lon="-4.210400">
        <ele>1250.708</ele>
        <time>2020-02-27T22:05:56Z</time>
      </trkpt>
      <trkpt lat="40.781750" lon="-4.210360">
        <ele>1251.130</ele>
        <time>2020-02-27T22:06:16Z</time>
      </trkpt>
      <trkpt lat="40.779580" lon="-4.208930">
        <ele>1258.153</ele>
        <time>2020-02-27T22:06:36Z</time>
      </trkpt>
      <trkpt lat="40.779550" lon="-4.208920">
        <ele>1258.178</ele>
        <time>2020-02-27T22:06:56Z</time>
      </trkpt>
      <trkpt lat="40.779430" lon="-4.208860">
        <ele>1258.339</ele>
        <time>2020-02-27T22:07:16Z</time>
      </trkpt>
      <trkpt lat="40.779190" lon="-4.208800">
        <ele>1259.031</ele>
        <time>2020-02-27T22:07:36Z</time>
      </trkpt>
      <trkpt lat="40.778370" lon="-4.208700">
        <ele>1261.439</ele>
        <time>2020-02-27T22:07:56Z</time>
      </trkpt>
      <trkpt lat="40.778300" lon="-4.208680">
        <ele>1261.512</ele>
        <time>2020-02-27T22:08:16Z</time>
      </trkpt>
      <trkpt lat="40.777880" lon="-4.208700">
        <ele>1262.397</ele>
        <time>2020-02-27T22:08:36Z</time>
      </trkpt>
      <trkpt lat="40.777880" lon="-4.208710">
        <ele>1262.399</ele>
        <time>2020-02-27T22:08:56Z</time>
      </trkpt>
      <trkpt lat="40.777860" lon="-4.208720">
        <ele>1262.307</ele>
        <time>2020-02-27T22:09:16Z</time>
      </trkpt>
      <trkpt lat="40.777830" lon="-4.208750">
        <ele>1262.327</ele>
        <time>2020-02-27T22:09:36Z</time>
      </trkpt>
      <trkpt lat="40.777820" lon="-4.208750">
        <ele>1262.308</ele>
        <time>2020-02-27T22:09:56Z</time>
      </trkpt>
      <trkpt lat="40.777810" lon="-4.208760">
        <ele>1262.343</ele>
        <time>2020-02-27T22:10:16Z</time>
      </trkpt>
      <trkpt lat="40.777770" lon="-4.208760">
        <ele>1262.536</ele>
        <time>2020-02-27T22:10:36Z</time>
      </trkpt>
      <trkpt lat="40.777780" lon="-4.208820">
        <ele>1262.251</ele>
        <time>2020-02-27T22:10:56Z</time>
      </trkpt>
      <trkpt lat="40.777770" lon="-4.209130">
        <ele>1260.382</ele>
        <time>2020-02-27T22:11:16Z</time>
      </trkpt>
      <trkpt lat="40.777780" lon="-4.209130">
        <ele>1260.374</ele>
        <time>2020-02-27T22:11:36Z</time>
      </trkpt>
      <trkpt lat="40.777780" lon="-4.209140">
        <ele>1260.292</ele>
        <time>2020-02-27T22:11:56Z</time>
      </trkpt>
      <trkpt lat="40.777800" lon="-4.209140">
        <ele>1260.115</ele>
        <time>2020-02-27T22:12:16Z</time>
      </trkpt>
      <trkpt lat="40.777800" lon="-4.209150">
        <ele>1260.080</ele>
        <time>2020-02-27T22:12:36Z</time>
      </trkpt>
      <trkpt lat="40.777810" lon="-4.209150">
        <ele>1260.071</ele>
        <time>2020-02-27T22:12:56Z</time>
      </trkpt>
      <trkpt lat="40.777810" lon="-4.209160">
        <ele>1259.941</ele>
        <time>2020-02-27T22:13:16Z</time>
      </trkpt>
      <trkpt lat="40.777820" lon="-4.209160">
        <ele>1259.915</ele>
        <time>2020-02-27T22:13:36Z</time>
      </trkpt>
      <trkpt lat="40.777820" lon="-4.209180">
        <ele>1259.708</ele>
        <time>2020-02-27T22:13:56Z</time>
      </trkpt>
      <trkpt lat="40.777830" lon="-4.209180">
        <ele>1259.761</ele>
        <time>2020-02-27T22:14:16Z</time>
      </trkpt>
      <trkpt lat="40.777830" lon="-4.209240">
        <ele>1259.254</ele>
        <time>2020-02-27T22:14:36Z</time>
      </trkpt>
      <trkpt lat="40.777820" lon="-4.209240">
        <ele>1259.369</ele>
        <time>2020-02-27T22:14:56Z</time>
      </trkpt>
      <trkpt lat="40.777820" lon="-4.209260">
        <ele>1259.160</ele>
        <time>2020-02-27T22:15:16Z</time>
      </trkpt>
      <trkpt lat="40.777810" lon="-4.209260">
        <ele>1259.222</ele>
        <time>2020-02-27T22:15:36Z</time>
      </trkpt>
      <trkpt lat="40.777810" lon="-4.209270">
        <ele>1259.130</ele>
        <time>2020-02-27T22:15:56Z</time>
      </trkpt>
      <trkpt lat="40.777800" lon="-4.209270">
        <ele>1259.123</ele>
        <time>2020-02-27T22:16:16Z</time>
      </trkpt>
      <trkpt lat="40.777800" lon="-4.209280">
        <ele>1259.148</ele>
        <time>2020-02-27T22:16:36Z</time>
      </trkpt>
      <trkpt lat="40.777750" lon="-4.209280">
        <ele>1259.311</ele>
        <time>2020-02-27T22:16:56Z</time>
      </trkpt>
      <trkpt lat="40.777730" lon="-4.209260">
        <ele>1259.621</ele>
        <time>2020-02-27T22:17:16Z</time>
      </trkpt>
      <trkpt lat="40.777730" lon="-4.209250">
        <ele>1259.603</ele>
        <time>2020-02-27T22:17:36Z</time>
      </trkpt>
      <trkpt lat="40.777720" lon="-4.209250">
        <ele>1259.708</ele>
        <time>2020-02-27T22:17:56Z</time>
      </trkpt>
      <trkpt lat="40.777720" lon="-4.209170">
        <ele>1260.295</ele>
        <time>2020-02-27T22:18:16Z</time>
      </trkpt>
      <trkpt lat="40.777730" lon="-4.209170">
        <ele>1260.218</ele>
        <time>2020-02-27T22:18:36Z</time>
      </trkpt>
      <trkpt lat="40.777730" lon="-4.209150">
        <ele>1260.333</ele>
        <time>2020-02-27T22:18:56Z</time>
      </trkpt>
      <trkpt lat="40.777740" lon="-4.209150">
        <ele>1260.364</ele>
        <time>2020-02-27T22:19:16Z</time>
      </trkpt>
      <trkpt lat="40.777740" lon="-4.209140">
        <ele>1260.316</ele>
        <time>2020-02-27T22:19:36Z</time>
      </trkpt>
      <trkpt lat="40.777760" lon="-4.209140">
        <ele>1260.334</ele>
        <time>2020-02-27T22:19:56Z</time>
      </trkpt>
      <trkpt lat="40.777770" lon="-4.209130">
        <ele>1260.387</ele>
        <time>2020-02-27T22:20:16Z</time>
      </trkpt>
      <trkpt lat="40.777780" lon="-4.208820">
        <ele>1262.272</ele>
        <time>2020-02-27T22:20:36Z</time>
      </trkpt>
      <trkpt lat="40.777670" lon="-4.208820">
        <ele>1262.685</ele>
        <time>2020-02-27T22:20:56Z</time>
      </trkpt>
      <trkpt lat="40.777630" lon="-4.208800">
        <ele>1262.989</ele>
        <time>2020-02-27T22:21:16Z</time>
      </trkpt>
      <trkpt lat="40.777610" lon="-4.208800">
        <ele>1262.917</ele>
        <time>2020-02-27T22:21:36Z</time>
      </trkpt>
      <trkpt lat="40.777600" lon="-4.208790">
        <ele>1263.008</ele>
        <time>2020-02-27T22:21:56Z</time>
      </trkpt>
      <trkpt lat="40.777580" lon="-4.208780">
        <ele>1263.162</ele>
        <time>2020-02-27T22:22:16Z</time>
      </trkpt>
      <trkpt lat="40.777460" lon="-4.208690">
        <ele>1263.975</ele>
        <time>2020-02-27T22:22:36Z</time>
      </trkpt>
      <trkpt lat="40.777390" lon="-4.208660">
        <ele>1264.210</ele>
        <time>2020-02-27T22:22:56Z</time>
      </trkpt>
      <trkpt lat="40.777180" lon="-4.208630">
        <ele>1265.221</ele>
        <time>2020-02-27T22:23:16Z</time>
      </trkpt>
      <trkpt lat="40.777100" lon="-4.208600">
        <ele>1265.993</ele>
        <time>2020-02-27T22:23:36Z</time>
      </trkpt>
      <trkpt lat="40.777010" lon="-4.208520">
        <ele>1266.921</ele>
        <time>2020-02-27T22:23:56Z</time>
      </trkpt>
      <trkpt lat="40.776660" lon="-4.208470">
        <ele>1268.624</ele>
        <time>2020-02-27T22:24:16Z</time>
      </trkpt>
      <trkpt lat="40.776470" lon="-4.208410">
        <ele>1270.179</ele>
        <time>2020-02-27T22:24:36Z</time>
      </trkpt>
      <trkpt lat="40.776400" lon="-4.208380">
        <ele>1270.854</ele>
        <time>2020-02-27T22:24:56Z</time>
      </trkpt>
      <trkpt lat="40.776310" lon="-4.208320">
        <ele>1271.656</ele>
        <time>2020-02-27T22:25:16Z</time>
      </trkpt>
      <trkpt lat="40.776200" lon="-4.208220">
        <ele>1272.811</ele>
        <time>2020-02-27T22:25:36Z</time>
      </trkpt>
      <trkpt lat="40.775170" lon="-4.207060">
        <ele>1275.508</ele>
        <time>2020-02-27T22:25:56Z</time>
      </trkpt>
      <trkpt lat="40.774600" lon="-4.206350">
        <ele>1268.619</ele>
        <time>2020-02-27T22:26:16Z</time>
      </trkpt>
      <trkpt lat="40.774350" lon="-4.206000">
        <ele>1265.882</ele>
        <time>2020-02-27T22:26:36Z</time>
      </trkpt>
      <trkpt lat="40.773920" lon="-4.205320">
        <ele>1260.347</ele>
        <time>2020-02-27T22:26:56Z</time>
      </trkpt>
      <trkpt lat="40.773800" lon="-4.205080">
        <ele>1258.678</ele>
        <time>2020-02-27T22:27:16Z</time>
      </trkpt>
      <trkpt lat="40.773790" lon="-4.205080">
        <ele>1258.570</ele>
        <time>2020-02-27T22:27:36Z</time>
      </trkpt>
      <trkpt lat="40.773560" lon="-4.204550">
        <ele>1256.198</ele>
        <time>2020-02-27T22:27:56Z</time>
      </trkpt>
      <trkpt lat="40.773450" lon="-4.204250">
        <ele>1254.861</ele>
        <time>2020-02-27T22:28:16Z</time>
      </trkpt>
      <trkpt lat="40.773040" lon="-4.202920">
        <ele>1250.346</ele>
        <time>2020-02-27T22:28:36Z</time>
      </trkpt>
      <trkpt lat="40.772930" lon="-4.202660">
        <ele>1248.698</ele>
        <time>2020-02-27T22:28:56Z</time>
      </trkpt>
      <trkpt lat="40.772800" lon="-4.202440">
        <ele>1247.515</ele>
        <time>2020-02-27T22:29:16Z</time>
      </trkpt>
      <trkpt lat="40.772740" lon="-4.202360">
        <ele>1247.026</ele>
        <time>2020-02-27T22:29:36Z</time>
      </trkpt>
      <trkpt lat="40.771900" lon="-4.201510">
        <ele>1242.108</ele>
        <time>2020-02-27T22:29:56Z</time>
      </trkpt>
      <trkpt lat="40.771780" lon="-4.201410">
        <ele>1241.143</ele>
        <time>2020-02-27T22:30:16Z</time>
      </trkpt>
      <trkpt lat="40.771580" lon="-4.201280">
        <ele>1240.176</ele>
        <time>2020-02-27T22:30:36Z</time>
      </trkpt>
      <trkpt lat="40.771460" lon="-4.201230">
        <ele>1239.181</ele>
        <time>2020-02-27T22:30:56Z</time>
      </trkpt>
      <trkpt lat="40.771240" lon="-4.201190">
        <ele>1238.392</ele>
        <time>2020-02-27T22:31:16Z</time>
      </trkpt>
      <trkpt lat="40.771130" lon="-4.201190">
        <ele>1238.274</ele>
        <time>2020-02-27T22:31:36Z</time>
      </trkpt>
      <trkpt lat="40.771030" lon="-4.201210">
        <ele>1238.252</ele>
        <time>2020-02-27T22:31:56Z</time>
      </trkpt>
      <trkpt lat="40.770850" lon="-4.201270">
        <ele>1238.285</ele>
        <time>2020-02-27T22:32:16Z</time>
      </trkpt>
      <trkpt lat="40.767180" lon="-4.202760">
        <ele>1221.050</ele>
        <time>2020-02-27T22:32:36Z</time>
      </trkpt>
      <trkpt lat="40.766960" lon="-4.202870">
        <ele>1218.429</ele>
        <time>2020-02-27T22:32:56Z</time>
      </trkpt>
      <trkpt lat="40.766850" lon="-4.202960">
        <ele>1218.400</ele>
        <time>2020-02-27T22:33:16Z</time>
      </trkpt>
      <trkpt lat="40.766790" lon="-4.203020">
        <ele>1218.820</ele>
        <time>2020-02-27T22:33:36Z</time>
      </trkpt>
      <trkpt lat="40.766640" lon="-4.203210">
        <ele>1219.708</ele>
        <time>2020-02-27T22:33:56Z</time>
      </trkpt>
      <trkpt lat="40.766570" lon="-4.203350">
        <ele>1219.266</ele>
        <time>2020-02-27T22:34:16Z</time>
      </trkpt>
      <trkpt lat="40.766520" lon="-4.203490">
        <ele>1218.769</ele>
        <time>2020-02-27T22:34:36Z</time>
      </trkpt>
      <trkpt lat="40.766470" lon="-4.203740">
        <ele>1218.124</ele>
        <time>2020-02-27T22:34:56Z</time>
      </trkpt>
      <trkpt lat="40.766400" lon="-4.205030">
        <ele>1211.445</ele>
        <time>2020-02-27T22:35:16Z</time>
      </trkpt>
      <trkpt lat="40.766350" lon="-4.205400">
        <ele>1208.737</ele>
        <time>2020-02-27T22:35:36Z</time>
      </trkpt>
      <trkpt lat="40.766330" lon="-4.205490">
        <ele>1207.675</ele>
        <time>2020-02-27T22:35:56Z</time>
      </trkpt>
      <trkpt lat="40.766320" lon="-4.205510">
        <ele>1207.588</ele>
        <time>2020-02-27T22:36:16Z</time>
      </trkpt>
      <trkpt lat="40.766090" lon="-4.206300">
        <ele>1203.963</ele>
        <time>2020-02-27T22:36:36Z</time>
      </trkpt>
      <trkpt lat="40.766010" lon="-4.206520">
        <ele>1202.622</ele>
        <time>2020-02-27T22:36:56Z</time>
      </trkpt>
      <trkpt lat="40.765820" lon="-4.206900">
        <ele>1201.162</ele>
        <time>2020-02-27T22:37:16Z</time>
      </trkpt>
      <trkpt lat="40.765720" lon="-4.207050">
        <ele>1200.108</ele>
        <time>2020-02-27T22:37:36Z</time>
      </trkpt>
      <trkpt lat="40.765550" lon="-4.207240">
        <ele>1201.208</ele>
        <time>2020-02-27T22:37:56Z</time>
      </trkpt>
      <trkpt lat="40.763670" lon="-4.209050">
        <ele>1186.786</ele>
        <time>2020-02-27T22:38:16Z</time>
      </trkpt>
      <trkpt lat="40.762360" lon="-4.210070">
        <ele>1179.229</ele>
        <time>2020-02-27T22:38:36Z</time>
      </trkpt>
      <trkpt lat="40.762160" lon="-4.210190">
        <ele>1177.414</ele>
        <time>2020-02-27T22:38:56Z</time>
      </trkpt>
      <trkpt lat="40.762010" lon="-4.210250">
        <ele>1176.425</ele>
        <time>2020-02-27T22:39:16Z</time>
      </trkpt>
      <trkpt lat="40.760400" lon="-4.210650">
        <ele>1171.397</ele>
        <time>2020-02-27T22:39:36Z</time>
      </trkpt>
      <trkpt lat="40.760330" lon="-4.210700">
        <ele>1171.085</ele>
        <time>2020-02-27T22:39:56Z</time>
      </trkpt>
      <trkpt lat="40.759830" lon="-4.210830">
        <ele>1169.458</ele>
        <time>2020-02-27T22:40:16Z</time>
      </trkpt>
      <trkpt lat="40.759720" lon="-4.210850">
        <ele>1169.023</ele>
        <time>2020-02-27T22:40:36Z</time>
      </trkpt>
      <trkpt lat="40.759030" lon="-4.211030">
        <ele>1166.079</ele>
        <time>2020-02-27T22:40:56Z</time>
      </trkpt>
      <trkpt lat="40.758870" lon="-4.211060">
        <ele>1164.505</ele>
        <time>2020-02-27T22:41:16Z</time>
      </trkpt>
      <trkpt lat="40.758810" lon="-4.211100">
        <ele>1163.025</ele>
        <time>2020-02-27T22:41:36Z</time>
      </trkpt>
      <trkpt lat="40.758800" lon="-4.211100">
        <ele>1162.908</ele>
        <time>2020-02-27T22:41:56Z</time>
      </trkpt>
      <trkpt lat="40.758800" lon="-4.211110">
        <ele>1162.731</ele>
        <time>2020-02-27T22:42:16Z</time>
      </trkpt>
      <trkpt lat="40.758630" lon="-4.211140">
        <ele>1160.294</ele>
        <time>2020-02-27T22:42:36Z</time>
      </trkpt>
      <trkpt lat="40.758560" lon="-4.211170">
        <ele>1160.099</ele>
        <time>2020-02-27T22:42:56Z</time>
      </trkpt>
      <trkpt lat="40.758390" lon="-4.211270">
        <ele>1160.070</ele>
        <time>2020-02-27T22:43:16Z</time>
      </trkpt>
      <trkpt lat="40.758320" lon="-4.211330">
        <ele>1160.022</ele>
        <time>2020-02-27T22:43:36Z</time>
      </trkpt>
      <trkpt lat="40.758320" lon="-4.211340">
        <ele>1160.060</ele>
        <time>2020-02-27T22:43:56Z</time>
      </trkpt>
      <trkpt lat="40.757530" lon="-4.212300">
        <ele>1160.253</ele>
        <time>2020-02-27T22:44:16Z</time>
      </trkpt>
      <trkpt lat="40.754660" lon="-4.215520">
        <ele>1158.428</ele>
        <time>2020-02-27T22:44:36Z</time>
      </trkpt>
      <trkpt lat="40.754380" lon="-4.215880">
        <ele>1158.551</ele>
        <time>2020-02-27T22:44:56Z</time>
      </trkpt>
      <trkpt lat="40.754200" lon="-4.216160">
        <ele>1158.601</ele>
        <time>2020-02-27T22:45:16Z</time>
      </trkpt>
      <trkpt lat="40.754180" lon="-4.216180">
        <ele>1158.611</ele>
        <time>2020-02-27T22:45:36Z</time>
      </trkpt>
      <trkpt lat="40.753850" lon="-4.216740">
        <ele>1159.708</ele>
        <time>2020-02-27T22:45:56Z</time>
      </trkpt>
      <trkpt lat="40.752870" lon="-4.218580">
        <ele>1159.149</ele>
        <time>2020-02-27T22:46:16Z</time>
      </trkpt>
      <trkpt lat="40.751730" lon="-4.221060">
        <ele>1149.452</ele>
        <time>2020-02-27T22:46:36Z</time>
      </trkpt>
      <trkpt lat="40.751500" lon="-4.221650">
        <ele>1149.057</ele>
        <time>2020-02-27T22:46:56Z</time>
      </trkpt>
      <trkpt lat="40.751080" lon="-4.223170">
        <ele>1146.288</ele>
        <time>2020-02-27T22:47:16Z</time>
      </trkpt>
      <trkpt lat="40.750750" lon="-4.223890">
        <ele>1144.720</ele>
        <time>2020-02-27T22:47:36Z</time>
      </trkpt>
      <trkpt lat="40.749790" lon="-4.225570">
        <ele>1138.238</ele>
        <time>2020-02-27T22:47:56Z</time>
      </trkpt>
      <trkpt lat="40.749430" lon="-4.226290">
        <ele>1134.311</ele>
        <time>2020-02-27T22:48:16Z</time>
      </trkpt>
      <trkpt lat="40.749070" lon="-4.227280">
        <ele>1130.576</ele>
        <time>2020-02-27T22:48:36Z</time>
      </trkpt>
      <trkpt lat="40.749050" lon="-4.227300">
        <ele>1130.454</ele>
        <time>2020-02-27T22:48:56Z</time>
      </trkpt>
      <trkpt lat="40.748970" lon="-4.227450">
        <ele>1130.156</ele>
        <time>2020-02-27T22:49:16Z</time>
      </trkpt>
      <trkpt lat="40.748760" lon="-4.227700">
        <ele>1130.011</ele>
        <time>2020-02-27T22:49:36Z</time>
      </trkpt>
      <trkpt lat="40.748640" lon="-4.227780">
        <ele>1130.008</ele>
        <time>2020-02-27T22:49:56Z</time>
      </trkpt>
      <trkpt lat="40.748390" lon="-4.227900">
        <ele>1130.079</ele>
        <time>2020-02-27T22:50:16Z</time>
      </trkpt>
      <trkpt lat="40.748310" lon="-4.227930">
        <ele>1129.372</ele>
        <time>2020-02-27T22:50:36Z</time>
      </trkpt>
      <trkpt lat="40.747860" lon="-4.228010">
        <ele>1121.267</ele>
        <time>2020-02-27T22:50:56Z</time>
      </trkpt>
      <trkpt lat="40.746020" lon="-4.227940">
        <ele>1130.958</ele>
        <time>2020-02-27T22:51:16Z</time>
      </trkpt>
      <trkpt lat="40.745380" lon="-4.227970">
        <ele>1134.030</ele>
        <time>2020-02-27T22:51:36Z</time>
      </trkpt>
      <trkpt lat="40.745160" lon="-4.228000">
        <ele>1135.618</ele>
        <time>2020-02-27T22:51:56Z</time>
      </trkpt>
      <trkpt lat="40.744950" lon="-4.228050">
        <ele>1137.311</ele>
        <time>2020-02-27T22:52:16Z</time>
      </trkpt>
      <trkpt lat="40.744580" lon="-4.228270">
        <ele>1139.886</ele>
        <time>2020-02-27T22:52:36Z</time>
      </trkpt>
      <trkpt lat="40.743940" lon="-4.228890">
        <ele>1141.298</ele>
        <time>2020-02-27T22:52:56Z</time>
      </trkpt>
      <trkpt lat="40.743940" lon="-4.228900">
        <ele>1141.215</ele>
        <time>2020-02-27T22:53:16Z</time>
      </trkpt>
      <trkpt lat="40.741980" lon="-4.230980">
        <ele>1140.126</ele>
        <time>2020-02-27T22:53:36Z</time>
      </trkpt>
      <trkpt lat="40.741510" lon="-4.231370">
        <ele>1140.008</ele>
        <time>2020-02-27T22:53:56Z</time>
      </trkpt>
      <trkpt lat="40.741080" lon="-4.231650">
        <ele>1140.023</ele>
        <time>2020-02-27T22:54:16Z</time>
      </trkpt>
      <trkpt lat="40.740740" lon="-4.231840">
        <ele>1140.066</ele>
        <time>2020-02-27T22:54:36Z</time>
      </trkpt>
      <trkpt lat="40.740650" lon="-4.231880">
        <ele>1140.081</ele>
        <time>2020-02-27T22:54:56Z</time>
      </trkpt>
      <trkpt lat="40.740570" lon="-4.231900">
        <ele>1140.012</ele>
        <time>2020-02-27T22:55:16Z</time>
      </trkpt>
      <trkpt lat="40.740480" lon="-4.231890">
        <ele>1140.294</ele>
        <time>2020-02-27T22:55:36Z</time>
      </trkpt>
      <trkpt lat="40.740370" lon="-4.231850">
        <ele>1140.442</ele>
        <time>2020-02-27T22:55:56Z</time>
      </trkpt>
      <trkpt lat="40.740240" lon="-4.231780">
        <ele>1140.745</ele>
        <time>2020-02-27T22:56:16Z</time>
      </trkpt>
      <trkpt lat="40.739740" lon="-4.231290">
        <ele>1142.080</ele>
        <time>2020-02-27T22:56:36Z</time>
      </trkpt>
      <trkpt lat="40.739740" lon="-4.231300">
        <ele>1142.079</ele>
        <time>2020-02-27T22:56:56Z</time>
      </trkpt>
      <trkpt lat="40.739730" lon="-4.231300">
        <ele>1142.005</ele>
        <time>2020-02-27T22:57:16Z</time>
      </trkpt>
      <trkpt lat="40.739730" lon="-4.231310">
        <ele>1142.025</ele>
        <time>2020-02-27T22:57:36Z</time>
      </trkpt>
      <trkpt lat="40.739720" lon="-4.231320">
        <ele>1142.008</ele>
        <time>2020-02-27T22:57:56Z</time>
      </trkpt>
      <trkpt lat="40.739720" lon="-4.231330">
        <ele>1142.011</ele>
        <time>2020-02-27T22:58:16Z</time>
      </trkpt>
      <trkpt lat="40.739710" lon="-4.231330">
        <ele>1142.274</ele>
        <time>2020-02-27T22:58:36Z</time>
      </trkpt>
      <trkpt lat="40.739700" lon="-4.231340">
        <ele>1142.329</ele>
        <time>2020-02-27T22:58:56Z</time>
      </trkpt>
      <trkpt lat="40.739690" lon="-4.231340">
        <ele>1142.440</ele>
        <time>2020-02-27T22:59:16Z</time>
      </trkpt>
      <trkpt lat="40.739690" lon="-4.231350">
        <ele>1142.422</ele>
        <time>2020-02-27T22:59:36Z</time>
      </trkpt>
      <trkpt lat="40.739670" lon="-4.231350">
        <ele>1142.770</ele>
        <time>2020-02-27T22:59:56Z</time>
      </trkpt>
      <trkpt lat="40.739670" lon="-4.231360">
        <ele>1142.713</ele>
        <time>2020-02-27T23:00:16Z</time>
      </trkpt>
      <trkpt lat="40.739620" lon="-4.231360">
        <ele>1143.418</ele>
        <time>2020-02-27T23:00:36Z</time>
      </trkpt>
      <trkpt lat="40.739620" lon="-4.231350">
        <ele>1143.456</ele>
        <time>2020-02-27T23:00:56Z</time>
      </trkpt>
      <trkpt lat="40.739600" lon="-4.231350">
        <ele>1143.759</ele>
        <time>2020-02-27T23:01:16Z</time>
      </trkpt>
      <trkpt lat="40.739600" lon="-4.231340">
        <ele>1143.714</ele>
        <time>2020-02-27T23:01:36Z</time>
      </trkpt>
      <trkpt lat="40.739590" lon="-4.231340">
        <ele>1143.808</ele>
        <time>2020-02-27T23:01:56Z</time>
      </trkpt>
      <trkpt lat="40.739590" lon="-4.231330">
        <ele>1143.889</ele>
        <time>2020-02-27T23:02:16Z</time>
      </trkpt>
      <trkpt lat="40.739580" lon="-4.231330">
        <ele>1143.972</ele>
        <time>2020-02-27T23:02:36Z</time>
      </trkpt>
      <trkpt lat="40.739570" lon="-4.231320">
        <ele>1144.157</ele>
        <time>2020-02-27T23:02:56Z</time>
      </trkpt>
      <trkpt lat="40.739570" lon="-4.231310">
        <ele>1144.058</ele>
        <time>2020-02-27T23:03:16Z</time>
      </trkpt>
      <trkpt lat="40.739560" lon="-4.231310">
        <ele>1144.250</ele>
        <time>2020-02-27T23:03:36Z</time>
      </trkpt>
      <trkpt lat="40.739560" lon="-4.231290">
        <ele>1144.118</ele>
        <time>2020-02-27T23:03:56Z</time>
      </trkpt>
      <trkpt lat="40.739550" lon="-4.231280">
        <ele>1144.251</ele>
        <time>2020-02-27T23:04:16Z</time>
      </trkpt>
      <trkpt lat="40.739550" lon="-4.231270">
        <ele>1144.256</ele>
        <time>2020-02-27T23:04:36Z</time>
      </trkpt>
      <trkpt lat="40.739310" lon="-4.231470">
        <ele>1147.545</ele>
        <time>2020-02-27T23:04:56Z</time>
      </trkpt>
      <trkpt lat="40.738890" lon="-4.231730">
        <ele>1149.047</ele>
        <time>2020-02-27T23:05:16Z</time>
      </trkpt>
      <trkpt lat="40.738490" lon="-4.232010">
        <ele>1149.011</ele>
        <time>2020-02-27T23:05:36Z</time>
      </trkpt>
      <trkpt lat="40.738200" lon="-4.232240">
        <ele>1149.008</ele>
        <time>2020-02-27T23:05:56Z</time>
      </trkpt>
      <trkpt lat="40.738120" lon="-4.232320">
        <ele>1149.088</ele>
        <time>2020-02-27T23:06:16Z</time>
      </trkpt>
      <trkpt lat="40.737600" lon="-4.232950">
        <ele>1150.031</ele>
        <time>2020-02-27T23:06:36Z</time>
      </trkpt>
      <trkpt lat="40.736580" lon="-4.234340">
        <ele>1150.066</ele>
        <time>2020-02-27T23:06:56Z</time>
      </trkpt>
      <trkpt lat="40.736220" lon="-4.234870">
        <ele>1150.667</ele>
        <time>2020-02-27T23:07:16Z</time>
      </trkpt>
      <trkpt lat="40.735340" lon="-4.235890">
        <ele>1148.889</ele>
        <time>2020-02-27T23:07:36Z</time>
      </trkpt>
      <trkpt lat="40.734490" lon="-4.236760">
        <ele>1147.287</ele>
        <time>2020-02-27T23:07:56Z</time>
      </trkpt>
      <trkpt lat="40.734470" lon="-4.236770">
        <ele>1147.220</ele>
        <time>2020-02-27T23:08:16Z</time>
      </trkpt>
      <trkpt lat="40.734350" lon="-4.236910">
        <ele>1146.295</ele>
        <time>2020-02-27T23:08:36Z</time>
      </trkpt>
      <trkpt lat="40.733490" lon="-4.237810">
        <ele>1139.953</ele>
        <time>2020-02-27T23:08:56Z</time>
      </trkpt>
      <trkpt lat="40.733460" lon="-4.237830">
        <ele>1139.804</ele>
        <time>2020-02-27T23:09:16Z</time>
      </trkpt>
      <trkpt lat="40.733030" lon="-4.238290">
        <ele>1139.114</ele>
        <time>2020-02-27T23:09:36Z</time>
      </trkpt>
      <trkpt lat="40.733010" lon="-4.238300">
        <ele>1139.208</ele>
        <time>2020-02-27T23:09:56Z</time>
      </trkpt>
      <trkpt lat="40.732820" lon="-4.238440">
        <ele>1139.829</ele>
        <time>2020-02-27T23:10:16Z</time>
      </trkpt>
      <trkpt lat="40.732540" lon="-4.238610">
        <ele>1141.792</ele>
        <time>2020-02-27T23:10:36Z</time>
      </trkpt>
      <trkpt lat="40.732530" lon="-4.238610">
        <ele>1141.847</ele>
        <time>2020-02-27T23:10:56Z</time>
      </trkpt>
      <trkpt lat="40.731040" lon="-4.239450">
        <ele>1147.238</ele>
        <time>2020-02-27T23:11:16Z</time>
      </trkpt>
      <trkpt lat="40.730890" lon="-4.239590">
        <ele>1147.390</ele>
        <time>2020-02-27T23:11:36Z</time>
      </trkpt>
      <trkpt lat="40.730850" lon="-4.239650">
        <ele>1147.238</ele>
        <time>2020-02-27T23:11:56Z</time>
      </trkpt>
      <trkpt lat="40.730300" lon="-4.240240">
        <ele>1149.061</ele>
        <time>2020-02-27T23:12:16Z</time>
      </trkpt>
      <trkpt lat="40.729880" lon="-4.240600">
        <ele>1150.796</ele>
        <time>2020-02-27T23:12:36Z</time>
      </trkpt>
      <trkpt lat="40.729890" lon="-4.240620">
        <ele>1150.681</ele>
        <time>2020-02-27T23:12:56Z</time>
      </trkpt>
      <trkpt lat="40.729890" lon="-4.240660">
        <ele>1150.561</ele>
        <time>2020-02-27T23:13:16Z</time>
      </trkpt>
      <trkpt lat="40.729900" lon="-4.240680">
        <ele>1150.417</ele>
        <time>2020-02-27T23:13:36Z</time>
      </trkpt>
      <trkpt lat="40.729900" lon="-4.240830">
        <ele>1150.008</ele>
        <time>2020-02-27T23:13:56Z</time>
      </trkpt>
      <trkpt lat="40.729880" lon="-4.240900">
        <ele>1150.082</ele>
        <time>2020-02-27T23:14:16Z</time>
      </trkpt>
      <trkpt lat="40.729850" lon="-4.240970">
        <ele>1150.065</ele>
        <time>2020-02-27T23:14:36Z</time>
      </trkpt>
      <trkpt lat="40.729830" lon="-4.241000">
        <ele>1150.070</ele>
        <time>2020-02-27T23:14:56Z</time>
      </trkpt>
      <trkpt lat="40.729810" lon="-4.241020">
        <ele>1150.041</ele>
        <time>2020-02-27T23:15:16Z</time>
      </trkpt>
      <trkpt lat="40.729810" lon="-4.241030">
        <ele>1150.033</ele>
        <time>2020-02-27T23:15:36Z</time>
      </trkpt>
      <trkpt lat="40.729790" lon="-4.241050">
        <ele>1150.081</ele>
        <time>2020-02-27T23:15:56Z</time>
      </trkpt>
      <trkpt lat="40.729790" lon="-4.241060">
        <ele>1150.094</ele>
        <time>2020-02-27T23:16:16Z</time>
      </trkpt>
      <trkpt lat="40.729780" lon="-4.241060">
        <ele>1150.059</ele>
        <time>2020-02-27T23:16:36Z</time>
      </trkpt>
      <trkpt lat="40.729780" lon="-4.241070">
        <ele>1150.014</ele>
        <time>2020-02-27T23:16:56Z</time>
      </trkpt>
      <trkpt lat="40.729760" lon="-4.241080">
        <ele>1150.054</ele>
        <time>2020-02-27T23:17:16Z</time>
      </trkpt>
      <trkpt lat="40.729750" lon="-4.241090">
        <ele>1150.009</ele>
        <time>2020-02-27T23:17:36Z</time>
      </trkpt>
      <trkpt lat="40.729730" lon="-4.241100">
        <ele>1150.008</ele>
        <time>2020-02-27T23:17:56Z</time>
      </trkpt>
      <trkpt lat="40.729720" lon="-4.241110">
        <ele>1150.075</ele>
        <time>2020-02-27T23:18:16Z</time>
      </trkpt>
      <trkpt lat="40.729680" lon="-4.241130">
        <ele>1150.078</ele>
        <time>2020-02-27T23:18:36Z</time>
      </trkpt>
      <trkpt lat="40.729660" lon="-4.241130">
        <ele>1150.093</ele>
        <time>2020-02-27T23:18:56Z</time>
      </trkpt>
      <trkpt lat="40.729650" lon="-4.241140">
        <ele>1150.044</ele>
        <time>2020-02-27T23:19:16Z</time>
      </trkpt>
      <trkpt lat="40.729540" lon="-4.241140">
        <ele>1150.056</ele>
        <time>2020-02-27T23:19:36Z</time>
      </trkpt>
      <trkpt lat="40.729510" lon="-4.241130">
        <ele>1150.064</ele>
        <time>2020-02-27T23:19:56Z</time>
      </trkpt>
      <trkpt lat="40.729450" lon="-4.241090">
        <ele>1150.127</ele>
        <time>2020-02-27T23:20:16Z</time>
      </trkpt>
      <trkpt lat="40.729420" lon="-4.241060">
        <ele>1150.552</ele>
        <time>2020-02-27T23:20:36Z</time>
      </trkpt>
      <trkpt lat="40.729390" lon="-4.241040">
        <ele>1150.794</ele>
        <time>2020-02-27T23:20:56Z</time>
      </trkpt>
      <trkpt lat="40.729330" lon="-4.240930">
        <ele>1151.757</ele>
        <time>2020-02-27T23:21:16Z</time>
      </trkpt>
      <trkpt lat="40.729200" lon="-4.240950">
        <ele>1152.022</ele>
        <time>2020-02-27T23:21:36Z</time>
      </trkpt>
      <trkpt lat="40.728880" lon="-4.240970">
        <ele>1153.008</ele>
        <time>2020-02-27T23:21:56Z</time>
      </trkpt>
      <trkpt lat="40.727280" lon="-4.240940">
        <ele>1153.263</ele>
        <time>2020-02-27T23:22:16Z</time>
      </trkpt>
      <trkpt lat="40.727260" lon="-4.240950">
        <ele>1153.236</ele>
        <time>2020-02-27T23:22:36Z</time>
      </trkpt>
      <trkpt lat="40.727150" lon="-4.240960">
        <ele>1153.151</ele>
        <time>2020-02-27T23:22:56Z</time>
      </trkpt>
      <trkpt lat="40.727050" lon="-4.240990">
        <ele>1152.942</ele>
        <time>2020-02-27T23:23:16Z</time>
      </trkpt>
      <trkpt lat="40.726910" lon="-4.241060">
        <ele>1152.424</ele>
        <time>2020-02-27T23:23:36Z</time>
      </trkpt>
      <trkpt lat="40.726910" lon="-4.241070">
        <ele>1152.382</ele>
        <time>2020-02-27T23:23:56Z</time>
      </trkpt>
      <trkpt lat="40.725210" lon="-4.242210">
        <ele>1160.475</ele>
        <time>2020-02-27T23:24:16Z</time>
      </trkpt>
      <trkpt lat="40.725190" lon="-4.242230">
        <ele>1160.740</ele>
        <time>2020-02-27T23:24:36Z</time>
      </trkpt>
      <trkpt lat="40.725070" lon="-4.242270">
        <ele>1161.822</ele>
        <time>2020-02-27T23:24:56Z</time>
      </trkpt>
      <trkpt lat="40.724920" lon="-4.242270">
        <ele>1163.262</ele>
        <time>2020-02-27T23:25:16Z</time>
      </trkpt>
      <trkpt lat="40.724870" lon="-4.242260">
        <ele>1163.708</ele>
        <time>2020-02-27T23:25:36Z</time>
      </trkpt>
      <trkpt lat="40.724840" lon="-4.242260">
        <ele>1164.008</ele>
        <time>2020-02-27T23:25:56Z</time>
      </trkpt>
      <trkpt lat="40.724800" lon="-4.242240">
        <ele>1164.386</ele>
        <time>2020-02-27T23:26:16Z</time>
      </trkpt>
      <trkpt lat="40.724720" lon="-4.242220">
        <ele>1165.069</ele>
        <time>2020-02-27T23:26:36Z</time>
      </trkpt>
      <trkpt lat="40.724690" lon="-4.242200">
        <ele>1165.144</ele>
        <time>2020-02-27T23:26:56Z</time>
      </trkpt>
      <trkpt lat="40.724350" lon="-4.242030">
        <ele>1167.575</ele>
        <time>2020-02-27T23:27:16Z</time>
      </trkpt>
      <trkpt lat="40.724340" lon="-4.242020">
        <ele>1167.647</ele>
        <time>2020-02-27T23:27:36Z</time>
      </trkpt>
      <trkpt lat="40.723900" lon="-4.241750">
        <ele>1170.845</ele>
        <time>2020-02-27T23:27:56Z</time>
      </trkpt>
      <trkpt lat="40.723860" lon="-4.241740">
        <ele>1171.138</ele>
        <time>2020-02-27T23:28:16Z</time>
      </trkpt>
      <trkpt lat="40.723790" lon="-4.241710">
        <ele>1171.513</ele>
        <time>2020-02-27T23:28:36Z</time>
      </trkpt>
      <trkpt lat="40.723710" lon="-4.241710">
        <ele>1172.477</ele>
        <time>2020-02-27T23:28:56Z</time>
      </trkpt>
      <trkpt lat="40.723660" lon="-4.241730">
        <ele>1173.261</ele>
        <time>2020-02-27T23:29:16Z</time>
      </trkpt>
      <trkpt lat="40.723610" lon="-4.241760">
        <ele>1174.027</ele>
        <time>2020-02-27T23:29:36Z</time>
      </trkpt>
      <trkpt lat="40.723540" lon="-4.241850">
        <ele>1174.808</ele>
        <time>2020-02-27T23:29:56Z</time>
      </trkpt>
      <trkpt lat="40.723230" lon="-4.242380">
        <ele>1177.661</ele>
        <time>2020-02-27T23:30:16Z</time>
      </trkpt>
      <trkpt lat="40.723240" lon="-4.242400">
        <ele>1177.754</ele>
        <time>2020-02-27T23:30:36Z</time>
      </trkpt>
      <trkpt lat="40.723260" lon="-4.242420">
        <ele>1178.089</ele>
        <time>2020-02-27T23:30:56Z</time>
      </trkpt>
      <trkpt lat="40.723260" lon="-4.242430">
        <ele>1178.020</ele>
        <time>2020-02-27T23:31:16Z</time>
      </trkpt>
      <trkpt lat="40.723270" lon="-4.242440">
        <ele>1178.232</ele>
        <time>2020-02-27T23:31:36Z</time>
      </trkpt>
      <trkpt lat="40.723270" lon="-4.242460">
        <ele>1178.310</ele>
        <time>2020-02-27T23:31:56Z</time>
      </trkpt>
      <trkpt lat="40.723280" lon="-4.242470">
        <ele>1178.473</ele>
        <time>2020-02-27T23:32:16Z</time>
      </trkpt>
      <trkpt lat="40.723280" lon="-4.242490">
        <ele>1178.628</ele>
        <time>2020-02-27T23:32:36Z</time>
      </trkpt>
      <trkpt lat="40.723290" lon="-4.242500">
        <ele>1178.792</ele>
        <time>2020-02-27T23:32:56Z</time>
      </trkpt>
      <trkpt lat="40.723290" lon="-4.242600">
        <ele>1179.473</ele>
        <time>2020-02-27T23:33:16Z</time>
      </trkpt>
      <trkpt lat="40.723280" lon="-4.242620">
        <ele>1179.520</ele>
        <time>2020-02-27T23:33:36Z</time>
      </trkpt>
      <trkpt lat="40.723280" lon="-4.242650">
        <ele>1179.708</ele>
        <time>2020-02-27T23:33:56Z</time>
      </trkpt>
      <trkpt lat="40.723260" lon="-4.242670">
        <ele>1179.773</ele>
        <time>2020-02-27T23:34:16Z</time>
      </trkpt>
      <trkpt lat="40.723260" lon="-4.242680">
        <ele>1179.876</ele>
        <time>2020-02-27T23:34:36Z</time>
      </trkpt>
      <trkpt lat="40.723250" lon="-4.242700">
        <ele>1179.831</ele>
        <time>2020-02-27T23:34:56Z</time>
      </trkpt>
      <trkpt lat="40.723530" lon="-4.243020">
        <ele>1182.632</ele>
        <time>2020-02-27T23:35:16Z</time>
      </trkpt>
      <trkpt lat="40.723620" lon="-4.243180">
        <ele>1183.914</ele>
        <time>2020-02-27T23:35:36Z</time>
      </trkpt>
      <trkpt lat="40.723690" lon="-4.243420">
        <ele>1185.392</ele>
        <time>2020-02-27T23:35:56Z</time>
      </trkpt>
      <trkpt lat="40.723700" lon="-4.243480">
        <ele>1185.785</ele>
        <time>2020-02-27T23:36:16Z</time>
      </trkpt>
      <trkpt lat="40.723700" lon="-4.243690">
        <ele>1187.190</ele>
        <time>2020-02-27T23:36:36Z</time>
      </trkpt>
      <trkpt lat="40.723690" lon="-4.243780">
        <ele>1187.527</ele>
        <time>2020-02-27T23:36:56Z</time>
      </trkpt>
      <trkpt lat="40.723290" lon="-4.245780">
        <ele>1198.768</ele>
        <time>2020-02-27T23:37:16Z</time>
      </trkpt>
      <trkpt lat="40.723270" lon="-4.246060">
        <ele>1199.814</ele>
        <time>2020-02-27T23:37:36Z</time>
      </trkpt>
      <trkpt lat="40.722830" lon="-4.248270">
        <ele>1199.408</ele>
        <time>2020-02-27T23:37:56Z</time>
      </trkpt>
      <trkpt lat="40.722840" lon="-4.248270">
        <ele>1199.426</ele>
        <time>2020-02-27T23:38:16Z</time>
      </trkpt>
      <trkpt lat="40.722850" lon="-4.248280">
        <ele>1199.429</ele>
        <time>2020-02-27T23:38:36Z</time>
      </trkpt>
      <trkpt lat="40.722860" lon="-4.248280">
        <ele>1199.494</ele>
        <time>2020-02-27T23:38:56Z</time>
      </trkpt>
      <trkpt lat="40.722890" lon="-4.248310">
        <ele>1199.515</ele>
        <time>2020-02-27T23:39:16Z</time>
      </trkpt>
      <trkpt lat="40.722890" lon="-4.248320">
        <ele>1199.497</ele>
        <time>2020-02-27T23:39:36Z</time>
      </trkpt>
      <trkpt lat="40.722910" lon="-4.248340">
        <ele>1199.485</ele>
        <time>2020-02-27T23:39:56Z</time>
      </trkpt>
      <trkpt lat="40.722910" lon="-4.248350">
        <ele>1199.418</ele>
        <time>2020-02-27T23:40:16Z</time>
      </trkpt>
      <trkpt lat="40.722920" lon="-4.248370">
        <ele>1199.243</ele>
        <time>2020-02-27T23:40:36Z</time>
      </trkpt>
      <trkpt lat="40.722930" lon="-4.248380">
        <ele>1199.287</ele>
        <time>2020-02-27T23:40:56Z</time>
      </trkpt>
      <trkpt lat="40.722930" lon="-4.248410">
        <ele>1199.042</ele>
        <time>2020-02-27T23:41:16Z</time>
      </trkpt>
      <trkpt lat="40.722940" lon="-4.248420">
        <ele>1199.026</ele>
        <time>2020-02-27T23:41:36Z</time>
      </trkpt>
      <trkpt lat="40.722940" lon="-4.248500">
        <ele>1198.408</ele>
        <time>2020-02-27T23:41:56Z</time>
      </trkpt>
      <trkpt lat="40.722930" lon="-4.248520">
        <ele>1198.262</ele>
        <time>2020-02-27T23:42:16Z</time>
      </trkpt>
      <trkpt lat="40.722930" lon="-4.248540">
        <ele>1198.165</ele>
        <time>2020-02-27T23:42:36Z</time>
      </trkpt>
      <trkpt lat="40.722920" lon="-4.248550">
        <ele>1198.010</ele>
        <time>2020-02-27T23:42:56Z</time>
      </trkpt>
      <trkpt lat="40.722920" lon="-4.248570">
        <ele>1197.821</ele>
        <time>2020-02-27T23:43:16Z</time>
      </trkpt>
      <trkpt lat="40.722900" lon="-4.248590">
        <ele>1197.663</ele>
        <time>2020-02-27T23:43:36Z</time>
      </trkpt>
      <trkpt lat="40.722900" lon="-4.248600">
        <ele>1197.551</ele>
        <time>2020-02-27T23:43:56Z</time>
      </trkpt>
      <trkpt lat="40.722880" lon="-4.248620">
        <ele>1197.394</ele>
        <time>2020-02-27T23:44:16Z</time>
      </trkpt>
      <trkpt lat="40.722870" lon="-4.248620">
        <ele>1197.399</ele>
        <time>2020-02-27T23:44:36Z</time>
      </trkpt>
      <trkpt lat="40.722860" lon="-4.248630">
        <ele>1197.283</ele>
        <time>2020-02-27T23:44:56Z</time>
      </trkpt>
      <trkpt lat="40.722860" lon="-4.248640">
        <ele>1197.225</ele>
        <time>2020-02-27T23:45:16Z</time>
      </trkpt>
      <trkpt lat="40.722850" lon="-4.248640">
        <ele>1197.117</ele>
        <time>2020-02-27T23:45:36Z</time>
      </trkpt>
      <trkpt lat="40.722840" lon="-4.248650">
        <ele>1197.108</ele>
        <time>2020-02-27T23:45:56Z</time>
      </trkpt>
      <trkpt lat="40.722830" lon="-4.248650">
        <ele>1197.022</ele>
        <time>2020-02-27T23:46:16Z</time>
      </trkpt>
      <trkpt lat="40.722820" lon="-4.248660">
        <ele>1196.965</ele>
        <time>2020-02-27T23:46:36Z</time>
      </trkpt>
      <trkpt lat="40.722830" lon="-4.248790">
        <ele>1196.480</ele>
        <time>2020-02-27T23:46:56Z</time>
      </trkpt>
      <trkpt lat="40.722830" lon="-4.249090">
        <ele>1194.691</ele>
        <time>2020-02-27T23:47:16Z</time>
      </trkpt>
      <trkpt lat="40.722800" lon="-4.249400">
        <ele>1192.353</ele>
        <time>2020-02-27T23:47:36Z</time>
      </trkpt>
      <trkpt lat="40.722720" lon="-4.250910">
        <ele>1177.231</ele>
        <time>2020-02-27T23:47:56Z</time>
      </trkpt>
      <trkpt lat="40.722560" lon="-4.256460">
        <ele>1156.824</ele>
        <time>2020-02-27T23:48:16Z</time>
      </trkpt>
      <trkpt lat="40.722610" lon="-4.256680">
        <ele>1156.679</ele>
        <time>2020-02-27T23:48:36Z</time>
      </trkpt>
      <trkpt lat="40.723610" lon="-4.260230">
        <ele>1159.861</ele>
        <time>2020-02-27T23:48:56Z</time>
      </trkpt>
      <trkpt lat="40.723610" lon="-4.260240">
        <ele>1159.921</ele>
        <time>2020-02-27T23:49:16Z</time>
      </trkpt>
      <trkpt lat="40.723740" lon="-4.260660">
        <ele>1160.213</ele>
        <time>2020-02-27T23:49:36Z</time>
      </trkpt>
      <trkpt lat="40.723770" lon="-4.260820">
        <ele>1160.408</ele>
        <time>2020-02-27T23:49:56Z</time>
      </trkpt>
      <trkpt lat="40.723770" lon="-4.260940">
        <ele>1160.670</ele>
        <time>2020-02-27T23:50:16Z</time>
      </trkpt>
      <trkpt lat="40.723760" lon="-4.261000">
        <ele>1160.893</ele>
        <time>2020-02-27T23:50:36Z</time>
      </trkpt>
      <trkpt lat="40.723780" lon="-4.261020">
        <ele>1160.838</ele>
        <time>2020-02-27T23:50:56Z</time>
      </trkpt>
      <trkpt lat="40.723810" lon="-4.261130">
        <ele>1161.089</ele>
        <time>2020-02-27T23:51:16Z</time>
      </trkpt>
      <trkpt lat="40.723840" lon="-4.261200">
        <ele>1161.131</ele>
        <time>2020-02-27T23:51:36Z</time>
      </trkpt>
      <trkpt lat="40.725000" lon="-4.265130">
        <ele>1161.079</ele>
        <time>2020-02-27T23:51:56Z</time>
      </trkpt>
      <trkpt lat="40.725040" lon="-4.265230">
        <ele>1160.952</ele>
        <time>2020-02-27T23:52:16Z</time>
      </trkpt>
      <trkpt lat="40.726400" lon="-4.269920">
        <ele>1150.017</ele>
        <time>2020-02-27T23:52:36Z</time>
      </trkpt>
      <trkpt lat="40.726420" lon="-4.269970">
        <ele>1150.082</ele>
        <time>2020-02-27T23:52:56Z</time>
      </trkpt>
      <trkpt lat="40.727130" lon="-4.272420">
        <ele>1150.043</ele>
        <time>2020-02-27T23:53:16Z</time>
      </trkpt>
      <trkpt lat="40.727130" lon="-4.272440">
        <ele>1150.017</ele>
        <time>2020-02-27T23:53:36Z</time>
      </trkpt>
      <trkpt lat="40.727300" lon="-4.273230">
        <ele>1150.008</ele>
        <time>2020-02-27T23:53:56Z</time>
      </trkpt>
      <trkpt lat="40.727330" lon="-4.273570">
        <ele>1150.052</ele>
        <time>2020-02-27T23:54:16Z</time>
      </trkpt>
      <trkpt lat="40.727240" lon="-4.276100">
        <ele>1150.015</ele>
        <time>2020-02-27T23:54:36Z</time>
      </trkpt>
      <trkpt lat="40.727230" lon="-4.276180">
        <ele>1150.040</ele>
        <time>2020-02-27T23:54:56Z</time>
      </trkpt>
      <trkpt lat="40.726880" lon="-4.283520">
        <ele>1158.881</ele>
        <time>2020-02-27T23:55:16Z</time>
      </trkpt>
      <trkpt lat="40.726870" lon="-4.283570">
        <ele>1158.743</ele>
        <time>2020-02-27T23:55:36Z</time>
      </trkpt>
      <trkpt lat="40.726670" lon="-4.287210">
        <ele>1166.071</ele>
        <time>2020-02-27T23:55:56Z</time>
      </trkpt>
      <trkpt lat="40.726620" lon="-4.287730">
        <ele>1167.564</ele>
        <time>2020-02-27T23:56:16Z</time>
      </trkpt>
      <trkpt lat="40.726540" lon="-4.288190">
        <ele>1168.669</ele>
        <time>2020-02-27T23:56:36Z</time>
      </trkpt>
      <trkpt lat="40.726500" lon="-4.288320">
        <ele>1168.822</ele>
        <time>2020-02-27T23:56:56Z</time>
      </trkpt>
      <trkpt lat="40.726390" lon="-4.288570">
        <ele>1168.062</ele>
        <time>2020-02-27T23:57:16Z</time>
      </trkpt>
      <trkpt lat="40.725320" lon="-4.290440">
        <ele>1169.708</ele>
        <time>2020-02-27T23:57:36Z</time>
      </trkpt>
      <trkpt lat="40.725040" lon="-4.290980">
        <ele>1169.208</ele>
        <time>2020-02-27T23:57:56Z</time>
      </trkpt>
      <trkpt lat="40.724920" lon="-4.291270">
        <ele>1169.476</ele>
        <time>2020-02-27T23:58:16Z</time>
      </trkpt>
      <trkpt lat="40.724880" lon="-4.291430">
        <ele>1169.759</ele>
        <time>2020-02-27T23:58:36Z</time>
      </trkpt>
      <trkpt lat="40.724860" lon="-4.291580">
        <ele>1170.254</ele>
        <time>2020-02-27T23:58:56Z</time>
      </trkpt>
      <trkpt lat="40.724820" lon="-4.292200">
        <ele>1172.645</ele>
        <time>2020-02-27T23:59:16Z</time>
      </trkpt>
      <trkpt lat="40.724780" lon="-4.292450">
        <ele>1173.487</ele>
        <time>2020-02-27T23:59:36Z</time>
      </trkpt>
      <trkpt lat="40.724750" lon="-4.292560">
        <ele>1173.735</ele>
        <time>2020-02-27T23:59:56Z</time>
      </trkpt>
      <trkpt lat="40.724610" lon="-4.292920">
        <ele>1175.148</ele>
        <time>2020-02-28T00:00:16Z</time>
      </trkpt>
      <trkpt lat="40.724100" lon="-4.294030">
        <ele>1178.843</ele>
        <time>2020-02-28T00:00:36Z</time>
      </trkpt>
      <trkpt lat="40.724100" lon="-4.294040">
        <ele>1178.875</ele>
        <time>2020-02-28T00:00:56Z</time>
      </trkpt>
      <trkpt lat="40.723380" lon="-4.295670">
        <ele>1180.528</ele>
        <time>2020-02-28T00:01:16Z</time>
      </trkpt>
      <trkpt lat="40.723000" lon="-4.296350">
        <ele>1182.120</ele>
        <time>2020-02-28T00:01:36Z</time>
      </trkpt>
      <trkpt lat="40.721420" lon="-4.298720">
        <ele>1188.608</ele>
        <time>2020-02-28T00:01:56Z</time>
      </trkpt>
      <trkpt lat="40.721320" lon="-4.298900">
        <ele>1189.091</ele>
        <time>2020-02-28T00:02:16Z</time>
      </trkpt>
      <trkpt lat="40.721310" lon="-4.298930">
        <ele>1189.164</ele>
        <time>2020-02-28T00:02:36Z</time>
      </trkpt>
      <trkpt lat="40.721210" lon="-4.299120">
        <ele>1189.329</ele>
        <time>2020-02-28T00:02:56Z</time>
      </trkpt>
      <trkpt lat="40.720910" lon="-4.299590">
        <ele>1190.380</ele>
        <time>2020-02-28T00:03:16Z</time>
      </trkpt>
      <trkpt lat="40.720880" lon="-4.299650">
        <ele>1190.272</ele>
        <time>2020-02-28T00:03:36Z</time>
      </trkpt>
      <trkpt lat="40.720860" lon="-4.299670">
        <ele>1190.260</ele>
        <time>2020-02-28T00:03:56Z</time>
      </trkpt>
      <trkpt lat="40.720630" lon="-4.300210">
        <ele>1190.953</ele>
        <time>2020-02-28T00:04:16Z</time>
      </trkpt>
      <trkpt lat="40.720550" lon="-4.300360">
        <ele>1190.638</ele>
        <time>2020-02-28T00:04:36Z</time>
      </trkpt>
      <trkpt lat="40.720290" lon="-4.300760">
        <ele>1191.665</ele>
        <time>2020-02-28T00:04:56Z</time>
      </trkpt>
      <trkpt lat="40.719800" lon="-4.301310">
        <ele>1192.768</ele>
        <time>2020-02-28T00:05:16Z</time>
      </trkpt>
      <trkpt lat="40.719790" lon="-4.301330">
        <ele>1192.914</ele>
        <time>2020-02-28T00:05:36Z</time>
      </trkpt>
      <trkpt lat="40.719230" lon="-4.302120">
        <ele>1197.508</ele>
        <time>2020-02-28T00:05:56Z</time>
      </trkpt>
      <trkpt lat="40.718950" lon="-4.302570">
        <ele>1199.380</ele>
        <time>2020-02-28T00:06:16Z</time>
      </trkpt>
      <trkpt lat="40.718900" lon="-4.302670">
        <ele>1199.143</ele>
        <time>2020-02-28T00:06:36Z</time>
      </trkpt>
      <trkpt lat="40.718870" lon="-4.302760">
        <ele>1199.038</ele>
        <time>2020-02-28T00:06:56Z</time>
      </trkpt>
      <trkpt lat="40.718650" lon="-4.303120">
        <ele>1199.459</ele>
        <time>2020-02-28T00:07:16Z</time>
      </trkpt>
      <trkpt lat="40.718630" lon="-4.303140">
        <ele>1199.481</ele>
        <time>2020-02-28T00:07:36Z</time>
      </trkpt>
      <trkpt lat="40.713990" lon="-4.310870">
        <ele>1222.559</ele>
        <time>2020-02-28T00:07:56Z</time>
      </trkpt>
      <trkpt lat="40.712680" lon="-4.313590">
        <ele>1228.432</ele>
        <time>2020-02-28T00:08:16Z</time>
      </trkpt>
      <trkpt lat="40.712220" lon="-4.314620">
        <ele>1230.047</ele>
        <time>2020-02-28T00:08:36Z</time>
      </trkpt>
      <trkpt lat="40.709410" lon="-4.320490">
        <ele>1241.384</ele>
        <time>2020-02-28T00:08:56Z</time>
      </trkpt>
      <trkpt lat="40.709330" lon="-4.320680">
        <ele>1242.207</ele>
        <time>2020-02-28T00:09:16Z</time>
      </trkpt>
      <trkpt lat="40.709320" lon="-4.320690">
        <ele>1242.317</ele>
        <time>2020-02-28T00:09:36Z</time>
      </trkpt>
      <trkpt lat="40.707480" lon="-4.324630">
        <ele>1262.208</ele>
        <time>2020-02-28T00:09:56Z</time>
      </trkpt>
      <trkpt lat="40.707440" lon="-4.324740">
        <ele>1262.742</ele>
        <time>2020-02-28T00:10:16Z</time>
      </trkpt>
      <trkpt lat="40.707430" lon="-4.324740">
        <ele>1262.885</ele>
        <time>2020-02-28T00:10:36Z</time>
      </trkpt>
      <trkpt lat="40.706730" lon="-4.326260">
        <ele>1262.290</ele>
        <time>2020-02-28T00:10:56Z</time>
      </trkpt>
      <trkpt lat="40.706140" lon="-4.327260">
        <ele>1259.011</ele>
        <time>2020-02-28T00:11:16Z</time>
      </trkpt>
      <trkpt lat="40.706140" lon="-4.327270">
        <ele>1259.053</ele>
        <time>2020-02-28T00:11:36Z</time>
      </trkpt>
      <trkpt lat="40.706050" lon="-4.327460">
        <ele>1259.011</ele>
        <time>2020-02-28T00:11:56Z</time>
      </trkpt>
      <trkpt lat="40.706050" lon="-4.327470">
        <ele>1259.044</ele>
        <time>2020-02-28T00:12:16Z</time>
      </trkpt>
      <trkpt lat="40.706000" lon="-4.327680">
        <ele>1259.659</ele>
        <time>2020-02-28T00:12:36Z</time>
      </trkpt>
      <trkpt lat="40.705970" lon="-4.327930">
        <ele>1260.026</ele>
        <time>2020-02-28T00:12:56Z</time>
      </trkpt>
      <trkpt lat="40.705780" lon="-4.330980">
        <ele>1270.047</ele>
        <time>2020-02-28T00:13:16Z</time>
      </trkpt>
      <trkpt lat="40.705770" lon="-4.331000">
        <ele>1270.011</ele>
        <time>2020-02-28T00:13:36Z</time>
      </trkpt>
      <trkpt lat="40.704430" lon="-4.357720">
        <ele>1305.008</ele>
        <time>2020-02-28T00:13:56Z</time>
      </trkpt>
      <trkpt lat="40.704370" lon="-4.358360">
        <ele>1303.066</ele>
        <time>2020-02-28T00:14:16Z</time>
      </trkpt>
      <trkpt lat="40.702960" lon="-4.367150">
        <ele>1290.079</ele>
        <time>2020-02-28T00:14:36Z</time>
      </trkpt>
      <trkpt lat="40.702950" lon="-4.367260">
        <ele>1290.064</ele>
        <time>2020-02-28T00:14:56Z</time>
      </trkpt>
      <trkpt lat="40.702410" lon="-4.370530">
        <ele>1282.115</ele>
        <time>2020-02-28T00:15:16Z</time>
      </trkpt>
      <trkpt lat="40.702050" lon="-4.372430">
        <ele>1279.427</ele>
        <time>2020-02-28T00:15:36Z</time>
      </trkpt>
      <trkpt lat="40.701090" lon="-4.376960">
        <ele>1280.025</ele>
        <time>2020-02-28T00:15:56Z</time>
      </trkpt>
      <trkpt lat="40.699470" lon="-4.384110">
        <ele>1271.358</ele>
        <time>2020-02-28T00:16:16Z</time>
      </trkpt>
      <trkpt lat="40.699470" lon="-4.384150">
        <ele>1271.033</ele>
        <time>2020-02-28T00:16:36Z</time>
      </trkpt>
      <trkpt lat="40.698730" lon="-4.387380">
        <ele>1270.679</ele>
        <time>2020-02-28T00:16:56Z</time>
      </trkpt>
      <trkpt lat="40.698720" lon="-4.387390">
        <ele>1270.605</ele>
        <time>2020-02-28T00:17:16Z</time>
      </trkpt>
      <trkpt lat="40.696620" lon="-4.396680">
        <ele>1270.025</ele>
        <time>2020-02-28T00:17:36Z</time>
      </trkpt>
      <trkpt lat="40.696620" lon="-4.396710">
        <ele>1270.008</ele>
        <time>2020-02-28T00:17:56Z</time>
      </trkpt>
      <trkpt lat="40.696410" lon="-4.397630">
        <ele>1270.061</ele>
        <time>2020-02-28T00:18:16Z</time>
      </trkpt>
      <trkpt lat="40.696330" lon="-4.398120">
        <ele>1270.094</ele>
        <time>2020-02-28T00:18:36Z</time>
      </trkpt>
      <trkpt lat="40.695700" lon="-4.400940">
        <ele>1267.889</ele>
        <time>2020-02-28T00:18:56Z</time>
      </trkpt>
      <trkpt lat="40.695660" lon="-4.401080">
        <ele>1267.470</ele>
        <time>2020-02-28T00:19:16Z</time>
      </trkpt>
      <trkpt lat="40.689900" lon="-4.426650">
        <ele>1270.062</ele>
        <time>2020-02-28T00:19:36Z</time>
      </trkpt>
      <trkpt lat="40.689900" lon="-4.426670">
        <ele>1270.040</ele>
        <time>2020-02-28T00:19:56Z</time>
      </trkpt>
      <trkpt lat="40.689110" lon="-4.429990">
        <ele>1270.093</ele>
        <time>2020-02-28T00:20:16Z</time>
      </trkpt>
      <trkpt lat="40.669120" lon="-4.420450">
        <ele>1268.468</ele>
        <time>2020-02-28T00:20:36Z</time>
      </trkpt>
      <trkpt lat="40.668930" lon="-4.420400">
        <ele>1270.234</ele>
        <time>2020-02-28T00:20:56Z</time>
      </trkpt>
      <trkpt lat="40.668730" lon="-4.420390">
        <ele>1272.355</ele>
        <time>2020-02-28T00:21:16Z</time>
      </trkpt>
      <trkpt lat="40.668630" lon="-4.420400">
        <ele>1273.410</ele>
        <time>2020-02-28T00:21:36Z</time>
      </trkpt>
      <trkpt lat="40.668340" lon="-4.420530">
        <ele>1277.008</ele>
        <time>2020-02-28T00:21:56Z</time>
      </trkpt>
      <trkpt lat="40.668260" lon="-4.420580">
        <ele>1278.087</ele>
        <time>2020-02-28T00:22:16Z</time>
      </trkpt>
      <trkpt lat="40.668080" lon="-4.420750">
        <ele>1279.940</ele>
        <time>2020-02-28T00:22:36Z</time>
      </trkpt>
      <trkpt lat="40.667970" lon="-4.420880">
        <ele>1280.885</ele>
        <time>2020-02-28T00:22:56Z</time>
      </trkpt>
      <trkpt lat="40.666430" lon="-4.423280">
        <ele>1290.366</ele>
        <time>2020-02-28T00:23:16Z</time>
      </trkpt>
      <trkpt lat="40.666230" lon="-4.423560">
        <ele>1293.368</ele>
        <time>2020-02-28T00:23:36Z</time>
      </trkpt>
      <trkpt lat="40.666040" lon="-4.423780">
        <ele>1295.386</ele>
        <time>2020-02-28T00:23:56Z</time>
      </trkpt>
      <trkpt lat="40.665900" lon="-4.423890">
        <ele>1296.319</ele>
        <time>2020-02-28T00:24:16Z</time>
      </trkpt>
      <trkpt lat="40.665820" lon="-4.423940">
        <ele>1296.794</ele>
        <time>2020-02-28T00:24:36Z</time>
      </trkpt>
      <trkpt lat="40.665700" lon="-4.424000">
        <ele>1297.295</ele>
        <time>2020-02-28T00:24:56Z</time>
      </trkpt>
      <trkpt lat="40.662720" lon="-4.425230">
        <ele>1306.649</ele>
        <time>2020-02-28T00:25:16Z</time>
      </trkpt>
      <trkpt lat="40.662650" lon="-4.425240">
        <ele>1306.723</ele>
        <time>2020-02-28T00:25:36Z</time>
      </trkpt>
      <trkpt lat="40.661480" lon="-4.425050">
        <ele>1310.308</ele>
        <time>2020-02-28T00:25:56Z</time>
      </trkpt>
      <trkpt lat="40.661410" lon="-4.425030">
        <ele>1310.793</ele>
        <time>2020-02-28T00:26:16Z</time>
      </trkpt>
      <trkpt lat="40.661360" lon="-4.425000">
        <ele>1311.166</ele>
        <time>2020-02-28T00:26:36Z</time>
      </trkpt>
      <trkpt lat="40.661310" lon="-4.424960">
        <ele>1311.771</ele>
        <time>2020-02-28T00:26:56Z</time>
      </trkpt>
      <trkpt lat="40.660830" lon="-4.424360">
        <ele>1315.662</ele>
        <time>2020-02-28T00:27:16Z</time>
      </trkpt>
      <trkpt lat="40.660330" lon="-4.423680">
        <ele>1318.144</ele>
        <time>2020-02-28T00:27:36Z</time>
      </trkpt>
      <trkpt lat="40.660320" lon="-4.423680">
        <ele>1318.152</ele>
        <time>2020-02-28T00:27:56Z</time>
      </trkpt>
      <trkpt lat="40.660130" lon="-4.423430">
        <ele>1321.835</ele>
        <time>2020-02-28T00:28:16Z</time>
      </trkpt>
      <trkpt lat="40.660030" lon="-4.423330">
        <ele>1323.080</ele>
        <time>2020-02-28T00:28:36Z</time>
      </trkpt>
      <trkpt lat="40.659980" lon="-4.423290">
        <ele>1323.837</ele>
        <time>2020-02-28T00:28:56Z</time>
      </trkpt>
      <trkpt lat="40.659830" lon="-4.423230">
        <ele>1325.949</ele>
        <time>2020-02-28T00:29:16Z</time>
      </trkpt>
      <trkpt lat="40.659720" lon="-4.423230">
        <ele>1326.813</ele>
        <time>2020-02-28T00:29:36Z</time>
      </trkpt>
      <trkpt lat="40.659620" lon="-4.423250">
        <ele>1327.908</ele>
        <time>2020-02-28T00:29:56Z</time>
      </trkpt>
      <trkpt lat="40.659480" lon="-4.423330">
        <ele>1328.797</ele>
        <time>2020-02-28T00:30:16Z</time>
      </trkpt>
      <trkpt lat="40.659240" lon="-4.423490">
        <ele>1329.430</ele>
        <time>2020-02-28T00:30:36Z</time>
      </trkpt>
      <trkpt lat="40.659110" lon="-4.423560">
        <ele>1329.585</ele>
        <time>2020-02-28T00:30:56Z</time>
      </trkpt>
      <trkpt lat="40.659060" lon="-4.423570">
        <ele>1329.856</ele>
        <time>2020-02-28T00:31:16Z</time>
      </trkpt>
      <trkpt lat="40.658860" lon="-4.423570">
        <ele>1331.618</ele>
        <time>2020-02-28T00:31:36Z</time>
      </trkpt>
      <trkpt lat="40.658650" lon="-4.423520">
        <ele>1332.656</ele>
        <time>2020-02-28T00:31:56Z</time>
      </trkpt>
      <trkpt lat="40.658470" lon="-4.423450">
        <ele>1333.789</ele>
        <time>2020-02-28T00:32:16Z</time>
      </trkpt>
      <trkpt lat="40.658350" lon="-4.423380">
        <ele>1335.064</ele>
        <time>2020-02-28T00:32:36Z</time>
      </trkpt>
      <trkpt lat="40.658260" lon="-4.423310">
        <ele>1336.648</ele>
        <time>2020-02-28T00:32:56Z</time>
      </trkpt>
      <trkpt lat="40.658210" lon="-4.423260">
        <ele>1337.761</ele>
        <time>2020-02-28T00:33:16Z</time>
      </trkpt>
      <trkpt lat="40.658170" lon="-4.423240">
        <ele>1338.217</ele>
        <time>2020-02-28T00:33:36Z</time>
      </trkpt>
      <trkpt lat="40.658160" lon="-4.423240">
        <ele>1338.108</ele>
        <time>2020-02-28T00:33:56Z</time>
      </trkpt>
      <trkpt lat="40.658040" lon="-4.423210">
        <ele>1338.998</ele>
        <time>2020-02-28T00:34:16Z</time>
      </trkpt>
      <trkpt lat="40.658000" lon="-4.423220">
        <ele>1339.391</ele>
        <time>2020-02-28T00:34:36Z</time>
      </trkpt>
      <trkpt lat="40.657900" lon="-4.423270">
        <ele>1339.916</ele>
        <time>2020-02-28T00:34:56Z</time>
      </trkpt>
      <trkpt lat="40.657840" lon="-4.423350">
        <ele>1339.617</ele>
        <time>2020-02-28T00:35:16Z</time>
      </trkpt>
      <trkpt lat="40.657650" lon="-4.423510">
        <ele>1340.389</ele>
        <time>2020-02-28T00:35:36Z</time>
      </trkpt>
      <trkpt lat="40.657170" lon="-4.423730">
        <ele>1342.697</ele>
        <time>2020-02-28T00:35:56Z</time>
      </trkpt>
      <trkpt lat="40.656950" lon="-4.423850">
        <ele>1344.740</ele>
        <time>2020-02-28T00:36:16Z</time>
      </trkpt>
      <trkpt lat="40.656860" lon="-4.423880">
        <ele>1345.415</ele>
        <time>2020-02-28T00:36:36Z</time>
      </trkpt>
      <trkpt lat="40.656750" lon="-4.423880">
        <ele>1346.936</ele>
        <time>2020-02-28T00:36:56Z</time>
      </trkpt>
      <trkpt lat="40.656670" lon="-4.423870">
        <ele>1348.217</ele>
        <time>2020-02-28T00:37:16Z</time>
      </trkpt>
      <trkpt lat="40.656500" lon="-4.423830">
        <ele>1348.418</ele>
        <time>2020-02-28T00:37:36Z</time>
      </trkpt>
      <trkpt lat="40.656480" lon="-4.423810">
        <ele>1348.708</ele>
        <time>2020-02-28T00:37:56Z</time>
      </trkpt>
      <trkpt lat="40.656450" lon="-4.423800">
        <ele>1348.857</ele>
        <time>2020-02-28T00:38:16Z</time>
      </trkpt>
      <trkpt lat="40.656400" lon="-4.423770">
        <ele>1349.230</ele>
        <time>2020-02-28T00:38:36Z</time>
      </trkpt>
      <trkpt lat="40.656270" lon="-4.423670">
        <ele>1350.255</ele>
        <time>2020-02-28T00:38:56Z</time>
      </trkpt>
      <trkpt lat="40.656140" lon="-4.423520">
        <ele>1352.176</ele>
        <time>2020-02-28T00:39:16Z</time>
      </trkpt>
      <trkpt lat="40.656070" lon="-4.423390">
        <ele>1352.738</ele>
        <time>2020-02-28T00:39:36Z</time>
      </trkpt>
      <trkpt lat="40.656070" lon="-4.423380">
        <ele>1352.846</ele>
        <time>2020-02-28T00:39:56Z</time>
      </trkpt>
      <trkpt lat="40.655970" lon="-4.423170">
        <ele>1353.729</ele>
        <time>2020-02-28T00:40:16Z</time>
      </trkpt>
      <trkpt lat="40.655920" lon="-4.423040">
        <ele>1354.434</ele>
        <time>2020-02-28T00:40:36Z</time>
      </trkpt>
      <trkpt lat="40.655840" lon="-4.422900">
        <ele>1354.827</ele>
        <time>2020-02-28T00:40:56Z</time>
      </trkpt>
      <trkpt lat="40.655820" lon="-4.422850">
        <ele>1355.268</ele>
        <time>2020-02-28T00:41:16Z</time>
      </trkpt>
      <trkpt lat="40.655790" lon="-4.422820">
        <ele>1355.414</ele>
        <time>2020-02-28T00:41:36Z</time>
      </trkpt>
      <trkpt lat="40.655750" lon="-4.422790">
        <ele>1355.608</ele>
        <time>2020-02-28T00:41:56Z</time>
      </trkpt>
      <trkpt lat="40.655660" lon="-4.422760">
        <ele>1355.646</ele>
        <time>2020-02-28T00:42:16Z</time>
      </trkpt>
      <trkpt lat="40.655560" lon="-4.422760">
        <ele>1355.389</ele>
        <time>2020-02-28T00:42:36Z</time>
      </trkpt>
      <trkpt lat="40.655440" lon="-4.422800">
        <ele>1356.074</ele>
        <time>2020-02-28T00:42:56Z</time>
      </trkpt>
      <trkpt lat="40.655370" lon="-4.422840">
        <ele>1356.465</ele>
        <time>2020-02-28T00:43:16Z</time>
      </trkpt>
      <trkpt lat="40.655320" lon="-4.422880">
        <ele>1356.737</ele>
        <time>2020-02-28T00:43:36Z</time>
      </trkpt>
      <trkpt lat="40.655210" lon="-4.423020">
        <ele>1357.375</ele>
        <time>2020-02-28T00:43:56Z</time>
      </trkpt>
      <trkpt lat="40.655180" lon="-4.423080">
        <ele>1357.288</ele>
        <time>2020-02-28T00:44:16Z</time>
      </trkpt>
      <trkpt lat="40.655060" lon="-4.423410">
        <ele>1355.823</ele>
        <time>2020-02-28T00:44:36Z</time>
      </trkpt>
      <trkpt lat="40.654950" lon="-4.423550">
        <ele>1355.853</ele>
        <time>2020-02-28T00:44:56Z</time>
      </trkpt>
      <trkpt lat="40.654500" lon="-4.423870">
        <ele>1355.904</ele>
        <time>2020-02-28T00:45:16Z</time>
      </trkpt>
      <trkpt lat="40.654230" lon="-4.424100">
        <ele>1358.514</ele>
        <time>2020-02-28T00:45:36Z</time>
      </trkpt>
      <trkpt lat="40.654190" lon="-4.424120">
        <ele>1359.208</ele>
        <time>2020-02-28T00:45:56Z</time>
      </trkpt>
      <trkpt lat="40.654030" lon="-4.424240">
        <ele>1359.699</ele>
        <time>2020-02-28T00:46:16Z</time>
      </trkpt>
      <trkpt lat="40.653970" lon="-4.424270">
        <ele>1360.052</ele>
        <time>2020-02-28T00:46:36Z</time>
      </trkpt>
      <trkpt lat="40.653890" lon="-4.424290">
        <ele>1360.837</ele>
        <time>2020-02-28T00:46:56Z</time>
      </trkpt>
      <trkpt lat="40.653830" lon="-4.424290">
        <ele>1361.098</ele>
        <time>2020-02-28T00:47:16Z</time>
      </trkpt>
      <trkpt lat="40.653680" lon="-4.424260">
        <ele>1362.120</ele>
        <time>2020-02-28T00:47:36Z</time>
      </trkpt>
      <trkpt lat="40.653450" lon="-4.424180">
        <ele>1362.688</ele>
        <time>2020-02-28T00:47:56Z</time>
      </trkpt>
      <trkpt lat="40.653380" lon="-4.424140">
        <ele>1362.841</ele>
        <time>2020-02-28T00:48:16Z</time>
      </trkpt>
      <trkpt lat="40.653330" lon="-4.424090">
        <ele>1363.136</ele>
        <time>2020-02-28T00:48:36Z</time>
      </trkpt>
      <trkpt lat="40.653270" lon="-4.423980">
        <ele>1363.922</ele>
        <time>2020-02-28T00:48:56Z</time>
      </trkpt>
      <trkpt lat="40.653250" lon="-4.423900">
        <ele>1364.762</ele>
        <time>2020-02-28T00:49:16Z</time>
      </trkpt>
      <trkpt lat="40.653240" lon="-4.423880">
        <ele>1364.808</ele>
        <time>2020-02-28T00:49:36Z</time>
      </trkpt>
      <trkpt lat="40.653100" lon="-4.423150">
        <ele>1370.008</ele>
        <time>2020-02-28T00:49:56Z</time>
      </trkpt>
      <trkpt lat="40.652990" lon="-4.422680">
        <ele>1373.876</ele>
        <time>2020-02-28T00:50:16Z</time>
      </trkpt>
      <trkpt lat="40.652940" lon="-4.422560">
        <ele>1374.249</ele>
        <time>2020-02-28T00:50:36Z</time>
      </trkpt>
      <trkpt lat="40.652940" lon="-4.422550">
        <ele>1374.464</ele>
        <time>2020-02-28T00:50:56Z</time>
      </trkpt>
      <trkpt lat="40.652850" lon="-4.422390">
        <ele>1374.575</ele>
        <time>2020-02-28T00:51:16Z</time>
      </trkpt>
      <trkpt lat="40.652770" lon="-4.422280">
        <ele>1375.047</ele>
        <time>2020-02-28T00:51:36Z</time>
      </trkpt>
      <trkpt lat="40.652680" lon="-4.422240">
        <ele>1376.195</ele>
        <time>2020-02-28T00:51:56Z</time>
      </trkpt>
      <trkpt lat="40.652640" lon="-4.422230">
        <ele>1376.428</ele>
        <time>2020-02-28T00:52:16Z</time>
      </trkpt>
      <trkpt lat="40.652610" lon="-4.422230">
        <ele>1376.573</ele>
        <time>2020-02-28T00:52:36Z</time>
      </trkpt>
      <trkpt lat="40.652580" lon="-4.422240">
        <ele>1376.599</ele>
        <time>2020-02-28T00:52:56Z</time>
      </trkpt>
      <trkpt lat="40.652550" lon="-4.422270">
        <ele>1376.407</ele>
        <time>2020-02-28T00:53:16Z</time>
      </trkpt>
      <trkpt lat="40.652520" lon="-4.422310">
        <ele>1376.227</ele>
        <time>2020-02-28T00:53:36Z</time>
      </trkpt>
      <trkpt lat="40.652510" lon="-4.422330">
        <ele>1376.108</ele>
        <time>2020-02-28T00:53:56Z</time>
      </trkpt>
      <trkpt lat="40.652460" lon="-4.422510">
        <ele>1375.673</ele>
        <time>2020-02-28T00:54:16Z</time>
      </trkpt>
      <trkpt lat="40.652440" lon="-4.422560">
        <ele>1375.526</ele>
        <time>2020-02-28T00:54:36Z</time>
      </trkpt>
      <trkpt lat="40.652360" lon="-4.422680">
        <ele>1375.951</ele>
        <time>2020-02-28T00:54:56Z</time>
      </trkpt>
      <trkpt lat="40.652270" lon="-4.422780">
        <ele>1376.912</ele>
        <time>2020-02-28T00:55:16Z</time>
      </trkpt>
      <trkpt lat="40.651910" lon="-4.423050">
        <ele>1379.344</ele>
        <time>2020-02-28T00:55:36Z</time>
      </trkpt>
      <trkpt lat="40.651750" lon="-4.423190">
        <ele>1379.652</ele>
        <time>2020-02-28T00:55:56Z</time>
      </trkpt>
      <trkpt lat="40.651720" lon="-4.423210">
        <ele>1379.815</ele>
        <time>2020-02-28T00:56:16Z</time>
      </trkpt>
      <trkpt lat="40.651640" lon="-4.423280">
        <ele>1380.360</ele>
        <time>2020-02-28T00:56:36Z</time>
      </trkpt>
      <trkpt lat="40.651480" lon="-4.423360">
        <ele>1380.548</ele>
        <time>2020-02-28T00:56:56Z</time>
      </trkpt>
      <trkpt lat="40.651390" lon="-4.423380">
        <ele>1380.761</ele>
        <time>2020-02-28T00:57:16Z</time>
      </trkpt>
      <trkpt lat="40.650080" lon="-4.423460">
        <ele>1388.617</ele>
        <time>2020-02-28T00:57:36Z</time>
      </trkpt>
      <trkpt lat="40.649900" lon="-4.423450">
        <ele>1389.208</ele>
        <time>2020-02-28T00:57:56Z</time>
      </trkpt>
      <trkpt lat="40.649820" lon="-4.423430">
        <ele>1389.268</ele>
        <time>2020-02-28T00:58:16Z</time>
      </trkpt>
      <trkpt lat="40.649700" lon="-4.423370">
        <ele>1389.171</ele>
        <time>2020-02-28T00:58:36Z</time>
      </trkpt>
      <trkpt lat="40.649620" lon="-4.423300">
        <ele>1389.136</ele>
        <time>2020-02-28T00:58:56Z</time>
      </trkpt>
      <trkpt lat="40.649560" lon="-4.423230">
        <ele>1389.477</ele>
        <time>2020-02-28T00:59:16Z</time>
      </trkpt>
      <trkpt lat="40.647740" lon="-4.419360">
        <ele>1392.939</ele>
        <time>2020-02-28T00:59:36Z</time>
      </trkpt>
      <trkpt lat="40.647280" lon="-4.418000">
        <ele>1391.667</ele>
        <time>2020-02-28T00:59:56Z</time>
      </trkpt>
      <trkpt lat="40.647210" lon="-4.417830">
        <ele>1391.460</ele>
        <time>2020-02-28T01:00:16Z</time>
      </trkpt>
      <trkpt lat="40.647200" lon="-4.417790">
        <ele>1391.465</ele>
        <time>2020-02-28T01:00:36Z</time>
      </trkpt>
      <trkpt lat="40.647120" lon="-4.417640">
        <ele>1391.015</ele>
        <time>2020-02-28T01:00:56Z</time>
      </trkpt>
      <trkpt lat="40.647080" lon="-4.417580">
        <ele>1390.765</ele>
        <time>2020-02-28T01:01:16Z</time>
      </trkpt>
      <trkpt lat="40.647040" lon="-4.417540">
        <ele>1390.311</ele>
        <time>2020-02-28T01:01:36Z</time>
      </trkpt>
      <trkpt lat="40.647010" lon="-4.417500">
        <ele>1390.208</ele>
        <time>2020-02-28T01:01:56Z</time>
      </trkpt>
      <trkpt lat="40.646450" lon="-4.417190">
        <ele>1384.615</ele>
        <time>2020-02-28T01:02:16Z</time>
      </trkpt>
      <trkpt lat="40.646350" lon="-4.417110">
        <ele>1384.138</ele>
        <time>2020-02-28T01:02:36Z</time>
      </trkpt>
      <trkpt lat="40.646210" lon="-4.416970">
        <ele>1384.173</ele>
        <time>2020-02-28T01:02:56Z</time>
      </trkpt>
      <trkpt lat="40.646100" lon="-4.416840">
        <ele>1384.454</ele>
        <time>2020-02-28T01:03:16Z</time>
      </trkpt>
      <trkpt lat="40.646010" lon="-4.416710">
        <ele>1385.076</ele>
        <time>2020-02-28T01:03:36Z</time>
      </trkpt>
      <trkpt lat="40.645980" lon="-4.416650">
        <ele>1385.374</ele>
        <time>2020-02-28T01:03:56Z</time>
      </trkpt>
      <trkpt lat="40.645960" lon="-4.416590">
        <ele>1385.527</ele>
        <time>2020-02-28T01:04:16Z</time>
      </trkpt>
      <trkpt lat="40.645930" lon="-4.416380">
        <ele>1386.742</ele>
        <time>2020-02-28T01:04:36Z</time>
      </trkpt>
      <trkpt lat="40.645930" lon="-4.416210">
        <ele>1386.378</ele>
        <time>2020-02-28T01:04:56Z</time>
      </trkpt>
      <trkpt lat="40.645650" lon="-4.412560">
        <ele>1391.133</ele>
        <time>2020-02-28T01:05:16Z</time>
      </trkpt>
      <trkpt lat="40.645590" lon="-4.408820">
        <ele>1384.226</ele>
        <time>2020-02-28T01:05:36Z</time>
      </trkpt>
      <trkpt lat="40.645580" lon="-4.408710">
        <ele>1384.808</ele>
        <time>2020-02-28T01:05:56Z</time>
      </trkpt>
      <trkpt lat="40.645530" lon="-4.408510">
        <ele>1385.471</ele>
        <time>2020-02-28T01:06:16Z</time>
      </trkpt>
      <trkpt lat="40.645430" lon="-4.408330">
        <ele>1385.224</ele>
        <time>2020-02-28T01:06:36Z</time>
      </trkpt>
      <trkpt lat="40.645300" lon="-4.408160">
        <ele>1384.559</ele>
        <time>2020-02-28T01:06:56Z</time>
      </trkpt>
      <trkpt lat="40.645010" lon="-4.407860">
        <ele>1382.340</ele>
        <time>2020-02-28T01:07:16Z</time>
      </trkpt>
      <trkpt lat="40.645000" lon="-4.407840">
        <ele>1382.352</ele>
        <time>2020-02-28T01:07:36Z</time>
      </trkpt>
      <trkpt lat="40.644870" lon="-4.407710">
        <ele>1381.480</ele>
        <time>2020-02-28T01:07:56Z</time>
      </trkpt>
      <trkpt lat="40.644660" lon="-4.407470">
        <ele>1380.133</ele>
        <time>2020-02-28T01:08:16Z</time>
      </trkpt>
      <trkpt lat="40.644600" lon="-4.407380">
        <ele>1380.078</ele>
        <time>2020-02-28T01:08:36Z</time>
      </trkpt>
      <trkpt lat="40.644500" lon="-4.407200">
        <ele>1380.746</ele>
        <time>2020-02-28T01:08:56Z</time>
      </trkpt>
      <trkpt lat="40.644470" lon="-4.407120">
        <ele>1380.788</ele>
        <time>2020-02-28T01:09:16Z</time>
      </trkpt>
      <trkpt lat="40.644440" lon="-4.406990">
        <ele>1380.716</ele>
        <time>2020-02-28T01:09:36Z</time>
      </trkpt>
      <trkpt lat="40.644430" lon="-4.406980">
        <ele>1380.508</ele>
        <time>2020-02-28T01:09:56Z</time>
      </trkpt>
      <trkpt lat="40.644390" lon="-4.406830">
        <ele>1380.068</ele>
        <time>2020-02-28T01:10:16Z</time>
      </trkpt>
      <trkpt lat="40.644380" lon="-4.406750">
        <ele>1379.941</ele>
        <time>2020-02-28T01:10:36Z</time>
      </trkpt>
      <trkpt lat="40.644330" lon="-4.406520">
        <ele>1378.856</ele>
        <time>2020-02-28T01:10:56Z</time>
      </trkpt>
      <trkpt lat="40.644320" lon="-4.406390">
        <ele>1378.567</ele>
        <time>2020-02-28T01:11:16Z</time>
      </trkpt>
      <trkpt lat="40.643610" lon="-4.401770">
        <ele>1375.269</ele>
        <time>2020-02-28T01:11:36Z</time>
      </trkpt>
      <trkpt lat="40.643590" lon="-4.401690">
        <ele>1375.537</ele>
        <time>2020-02-28T01:11:56Z</time>
      </trkpt>
      <trkpt lat="40.643570" lon="-4.401650">
        <ele>1375.470</ele>
        <time>2020-02-28T01:12:16Z</time>
      </trkpt>
      <trkpt lat="40.643570" lon="-4.401640">
        <ele>1375.585</ele>
        <time>2020-02-28T01:12:36Z</time>
      </trkpt>
      <trkpt lat="40.643550" lon="-4.401590">
        <ele>1375.713</ele>
        <time>2020-02-28T01:12:56Z</time>
      </trkpt>
      <trkpt lat="40.643500" lon="-4.401540">
        <ele>1375.243</ele>
        <time>2020-02-28T01:13:16Z</time>
      </trkpt>
      <trkpt lat="40.643470" lon="-4.401520">
        <ele>1374.807</ele>
        <time>2020-02-28T01:13:36Z</time>
      </trkpt>
      <trkpt lat="40.643390" lon="-4.401500">
        <ele>1373.308</ele>
        <time>2020-02-28T01:13:56Z</time>
      </trkpt>
      <trkpt lat="40.643260" lon="-4.401500">
        <ele>1372.445</ele>
        <time>2020-02-28T01:14:16Z</time>
      </trkpt>
      <trkpt lat="40.643090" lon="-4.401520">
        <ele>1372.938</ele>
        <time>2020-02-28T01:14:36Z</time>
      </trkpt>
      <trkpt lat="40.643080" lon="-4.401530">
        <ele>1372.953</ele>
        <time>2020-02-28T01:14:56Z</time>
      </trkpt>
      <trkpt lat="40.642950" lon="-4.401560">
        <ele>1374.994</ele>
        <time>2020-02-28T01:15:16Z</time>
      </trkpt>
      <trkpt lat="40.642880" lon="-4.401600">
        <ele>1376.266</ele>
        <time>2020-02-28T01:15:36Z</time>
      </trkpt>
      <trkpt lat="40.642820" lon="-4.401660">
        <ele>1377.294</ele>
        <time>2020-02-28T01:15:56Z</time>
      </trkpt>
      <trkpt lat="40.642800" lon="-4.401690">
        <ele>1377.697</ele>
        <time>2020-02-28T01:16:16Z</time>
      </trkpt>
      <trkpt lat="40.642780" lon="-4.401710">
        <ele>1378.012</ele>
        <time>2020-02-28T01:16:36Z</time>
      </trkpt>
      <trkpt lat="40.642750" lon="-4.401780">
        <ele>1378.938</ele>
        <time>2020-02-28T01:16:56Z</time>
      </trkpt>
      <trkpt lat="40.642700" lon="-4.401950">
        <ele>1380.870</ele>
        <time>2020-02-28T01:17:16Z</time>
      </trkpt>
      <trkpt lat="40.642590" lon="-4.403300">
        <ele>1386.217</ele>
        <time>2020-02-28T01:17:36Z</time>
      </trkpt>
      <trkpt lat="40.642350" lon="-4.404870">
        <ele>1391.308</ele>
        <time>2020-02-28T01:17:56Z</time>
      </trkpt>
      <trkpt lat="40.642290" lon="-4.405110">
        <ele>1391.857</ele>
        <time>2020-02-28T01:18:16Z</time>
      </trkpt>
      <trkpt lat="40.642200" lon="-4.405300">
        <ele>1393.270</ele>
        <time>2020-02-28T01:18:36Z</time>
      </trkpt>
      <trkpt lat="40.642080" lon="-4.405490">
        <ele>1393.695</ele>
        <time>2020-02-28T01:18:56Z</time>
      </trkpt>
      <trkpt lat="40.641930" lon="-4.405690">
        <ele>1393.966</ele>
        <time>2020-02-28T01:19:16Z</time>
      </trkpt>
      <trkpt lat="40.641850" lon="-4.405760">
        <ele>1395.468</ele>
        <time>2020-02-28T01:19:36Z</time>
      </trkpt>
      <trkpt lat="40.641770" lon="-4.405810">
        <ele>1397.276</ele>
        <time>2020-02-28T01:19:56Z</time>
      </trkpt>
      <trkpt lat="40.641760" lon="-4.405820">
        <ele>1397.429</ele>
        <time>2020-02-28T01:20:16Z</time>
      </trkpt>
      <trkpt lat="40.641680" lon="-4.405850">
        <ele>1399.064</ele>
        <time>2020-02-28T01:20:36Z</time>
      </trkpt>
      <trkpt lat="40.641600" lon="-4.405870">
        <ele>1399.317</ele>
        <time>2020-02-28T01:20:56Z</time>
      </trkpt>
      <trkpt lat="40.641520" lon="-4.405880">
        <ele>1399.687</ele>
        <time>2020-02-28T01:21:16Z</time>
      </trkpt>
      <trkpt lat="40.641340" lon="-4.405880">
        <ele>1401.615</ele>
        <time>2020-02-28T01:21:36Z</time>
      </trkpt>
      <trkpt lat="40.641280" lon="-4.405890">
        <ele>1402.308</ele>
        <time>2020-02-28T01:21:56Z</time>
      </trkpt>
      <trkpt lat="40.641240" lon="-4.405890">
        <ele>1402.985</ele>
        <time>2020-02-28T01:22:16Z</time>
      </trkpt>
      <trkpt lat="40.641230" lon="-4.405900">
        <ele>1402.958</ele>
        <time>2020-02-28T01:22:36Z</time>
      </trkpt>
      <trkpt lat="40.641180" lon="-4.405910">
        <ele>1403.543</ele>
        <time>2020-02-28T01:22:56Z</time>
      </trkpt>
      <trkpt lat="40.641130" lon="-4.405960">
        <ele>1403.494</ele>
        <time>2020-02-28T01:23:16Z</time>
      </trkpt>
      <trkpt lat="40.641050" lon="-4.406060">
        <ele>1403.126</ele>
        <time>2020-02-28T01:23:36Z</time>
      </trkpt>
      <trkpt lat="40.640940" lon="-4.406240">
        <ele>1404.174</ele>
        <time>2020-02-28T01:23:56Z</time>
      </trkpt>
      <trkpt lat="40.640920" lon="-4.406340">
        <ele>1404.017</ele>
        <time>2020-02-28T01:24:16Z</time>
      </trkpt>
      <trkpt lat="40.640920" lon="-4.406490">
        <ele>1404.332</ele>
        <time>2020-02-28T01:24:36Z</time>
      </trkpt>
      <trkpt lat="40.640950" lon="-4.406620">
        <ele>1404.087</ele>
        <time>2020-02-28T01:24:56Z</time>
      </trkpt>
      <trkpt lat="40.640950" lon="-4.406640">
        <ele>1404.142</ele>
        <time>2020-02-28T01:25:16Z</time>
      </trkpt>
      <trkpt lat="40.641010" lon="-4.406870">
        <ele>1404.026</ele>
        <time>2020-02-28T01:25:36Z</time>
      </trkpt>
      <trkpt lat="40.641010" lon="-4.406890">
        <ele>1404.208</ele>
        <time>2020-02-28T01:25:56Z</time>
      </trkpt>
      <trkpt lat="40.641090" lon="-4.407200">
        <ele>1406.292</ele>
        <time>2020-02-28T01:26:16Z</time>
      </trkpt>
      <trkpt lat="40.641150" lon="-4.407550">
        <ele>1408.555</ele>
        <time>2020-02-28T01:26:36Z</time>
      </trkpt>
      <trkpt lat="40.641160" lon="-4.407760">
        <ele>1409.090</ele>
        <time>2020-02-28T01:26:56Z</time>
      </trkpt>
      <trkpt lat="40.641150" lon="-4.407790">
        <ele>1409.531</ele>
        <time>2020-02-28T01:27:16Z</time>
      </trkpt>
      <trkpt lat="40.641150" lon="-4.407850">
        <ele>1409.543</ele>
        <time>2020-02-28T01:27:36Z</time>
      </trkpt>
      <trkpt lat="40.640870" lon="-4.409220">
        <ele>1419.741</ele>
        <time>2020-02-28T01:27:56Z</time>
      </trkpt>
      <trkpt lat="40.640820" lon="-4.409820">
        <ele>1421.194</ele>
        <time>2020-02-28T01:28:16Z</time>
      </trkpt>
      <trkpt lat="40.640820" lon="-4.410240">
        <ele>1419.739</ele>
        <time>2020-02-28T01:28:36Z</time>
      </trkpt>
      <trkpt lat="40.640810" lon="-4.410340">
        <ele>1419.952</ele>
        <time>2020-02-28T01:28:56Z</time>
      </trkpt>
      <trkpt lat="40.640810" lon="-4.410580">
        <ele>1419.453</ele>
        <time>2020-02-28T01:29:16Z</time>
      </trkpt>
      <trkpt lat="40.640780" lon="-4.410690">
        <ele>1418.808</ele>
        <time>2020-02-28T01:29:36Z</time>
      </trkpt>
      <trkpt lat="40.640750" lon="-4.410720">
        <ele>1419.108</ele>
        <time>2020-02-28T01:29:56Z</time>
      </trkpt>
      <trkpt lat="40.640730" lon="-4.410750">
        <ele>1419.189</ele>
        <time>2020-02-28T01:30:16Z</time>
      </trkpt>
      <trkpt lat="40.640690" lon="-4.410770">
        <ele>1419.612</ele>
        <time>2020-02-28T01:30:36Z</time>
      </trkpt>
      <trkpt lat="40.640550" lon="-4.410790">
        <ele>1422.087</ele>
        <time>2020-02-28T01:30:56Z</time>
      </trkpt>
      <trkpt lat="40.640530" lon="-4.410780">
        <ele>1422.288</ele>
        <time>2020-02-28T01:31:16Z</time>
      </trkpt>
      <trkpt lat="40.640450" lon="-4.410770">
        <ele>1422.790</ele>
        <time>2020-02-28T01:31:36Z</time>
      </trkpt>
      <trkpt lat="40.640390" lon="-4.410770">
        <ele>1422.858</ele>
        <time>2020-02-28T01:31:56Z</time>
      </trkpt>
      <trkpt lat="40.640360" lon="-4.410780">
        <ele>1422.751</ele>
        <time>2020-02-28T01:32:16Z</time>
      </trkpt>
      <trkpt lat="40.640350" lon="-4.410780">
        <ele>1422.856</ele>
        <time>2020-02-28T01:32:36Z</time>
      </trkpt>
      <trkpt lat="40.640260" lon="-4.410840">
        <ele>1422.166</ele>
        <time>2020-02-28T01:32:56Z</time>
      </trkpt>
      <trkpt lat="40.640210" lon="-4.410910">
        <ele>1422.029</ele>
        <time>2020-02-28T01:33:16Z</time>
      </trkpt>
      <trkpt lat="40.638670" lon="-4.413540">
        <ele>1435.521</ele>
        <time>2020-02-28T01:33:36Z</time>
      </trkpt>
      <trkpt lat="40.638520" lon="-4.413750">
        <ele>1435.808</ele>
        <time>2020-02-28T01:33:56Z</time>
      </trkpt>
      <trkpt lat="40.638480" lon="-4.413770">
        <ele>1436.180</ele>
        <time>2020-02-28T01:34:16Z</time>
      </trkpt>
      <trkpt lat="40.638440" lon="-4.413800">
        <ele>1436.253</ele>
        <time>2020-02-28T01:34:36Z</time>
      </trkpt>
      <trkpt lat="40.638330" lon="-4.413820">
        <ele>1437.218</ele>
        <time>2020-02-28T01:34:56Z</time>
      </trkpt>
      <trkpt lat="40.638300" lon="-4.413820">
        <ele>1437.379</ele>
        <time>2020-02-28T01:35:16Z</time>
      </trkpt>
      <trkpt lat="40.638260" lon="-4.413810">
        <ele>1437.531</ele>
        <time>2020-02-28T01:35:36Z</time>
      </trkpt>
      <trkpt lat="40.638220" lon="-4.413790">
        <ele>1437.929</ele>
        <time>2020-02-28T01:35:56Z</time>
      </trkpt>
      <trkpt lat="40.637920" lon="-4.413550">
        <ele>1441.922</ele>
        <time>2020-02-28T01:36:16Z</time>
      </trkpt>
      <trkpt lat="40.637760" lon="-4.413390">
        <ele>1443.077</ele>
        <time>2020-02-28T01:36:36Z</time>
      </trkpt>
      <trkpt lat="40.637720" lon="-4.413360">
        <ele>1443.026</ele>
        <time>2020-02-28T01:36:56Z</time>
      </trkpt>
      <trkpt lat="40.637680" lon="-4.413320">
        <ele>1443.147</ele>
        <time>2020-02-28T01:37:16Z</time>
      </trkpt>
      <trkpt lat="40.637600" lon="-4.413260">
        <ele>1442.911</ele>
        <time>2020-02-28T01:37:36Z</time>
      </trkpt>
      <trkpt lat="40.637500" lon="-4.413220">
        <ele>1442.208</ele>
        <time>2020-02-28T01:37:56Z</time>
      </trkpt>
      <trkpt lat="40.637450" lon="-4.413230">
        <ele>1442.866</ele>
        <time>2020-02-28T01:38:16Z</time>
      </trkpt>
      <trkpt lat="40.637340" lon="-4.413270">
        <ele>1444.039</ele>
        <time>2020-02-28T01:38:36Z</time>
      </trkpt>
      <trkpt lat="40.637180" lon="-4.413390">
        <ele>1445.344</ele>
        <time>2020-02-28T01:38:56Z</time>
      </trkpt>
      <trkpt lat="40.637140" lon="-4.413430">
        <ele>1446.065</ele>
        <time>2020-02-28T01:39:16Z</time>
      </trkpt>
      <trkpt lat="40.637100" lon="-4.413490">
        <ele>1446.667</ele>
        <time>2020-02-28T01:39:36Z</time>
      </trkpt>
      <trkpt lat="40.637040" lon="-4.413620">
        <ele>1447.525</ele>
        <time>2020-02-28T01:39:56Z</time>
      </trkpt>
      <trkpt lat="40.637020" lon="-4.413650">
        <ele>1448.018</ele>
        <time>2020-02-28T01:40:16Z</time>
      </trkpt>
      <trkpt lat="40.636920" lon="-4.413900">
        <ele>1449.273</ele>
        <time>2020-02-28T01:40:36Z</time>
      </trkpt>
      <trkpt lat="40.636810" lon="-4.414270">
        <ele>1447.458</ele>
        <time>2020-02-28T01:40:56Z</time>
      </trkpt>
      <trkpt lat="40.636810" lon="-4.414300">
        <ele>1447.252</ele>
        <time>2020-02-28T01:41:16Z</time>
      </trkpt>
      <trkpt lat="40.636800" lon="-4.414340">
        <ele>1447.117</ele>
        <time>2020-02-28T01:41:36Z</time>
      </trkpt>
      <trkpt lat="40.636720" lon="-4.414510">
        <ele>1448.508</ele>
        <time>2020-02-28T01:41:56Z</time>
      </trkpt>
      <trkpt lat="40.636670" lon="-4.414590">
        <ele>1449.869</ele>
        <time>2020-02-28T01:42:16Z</time>
      </trkpt>
      <trkpt lat="40.636620" lon="-4.414630">
        <ele>1450.062</ele>
        <time>2020-02-28T01:42:36Z</time>
      </trkpt>
      <trkpt lat="40.636510" lon="-4.414650">
        <ele>1450.577</ele>
        <time>2020-02-28T01:42:56Z</time>
      </trkpt>
      <trkpt lat="40.636440" lon="-4.414640">
        <ele>1451.178</ele>
        <time>2020-02-28T01:43:16Z</time>
      </trkpt>
      <trkpt lat="40.636260" lon="-4.414550">
        <ele>1451.520</ele>
        <time>2020-02-28T01:43:36Z</time>
      </trkpt>
      <trkpt lat="40.636230" lon="-4.414540">
        <ele>1451.428</ele>
        <time>2020-02-28T01:43:56Z</time>
      </trkpt>
      <trkpt lat="40.636140" lon="-4.414490">
        <ele>1451.351</ele>
        <time>2020-02-28T01:44:16Z</time>
      </trkpt>
      <trkpt lat="40.635860" lon="-4.414400">
        <ele>1452.226</ele>
        <time>2020-02-28T01:44:36Z</time>
      </trkpt>
      <trkpt lat="40.635670" lon="-4.414360">
        <ele>1453.145</ele>
        <time>2020-02-28T01:44:56Z</time>
      </trkpt>
      <trkpt lat="40.634910" lon="-4.414280">
        <ele>1455.347</ele>
        <time>2020-02-28T01:45:16Z</time>
      </trkpt>
      <trkpt lat="40.634840" lon="-4.414280">
        <ele>1455.811</ele>
        <time>2020-02-28T01:45:36Z</time>
      </trkpt>
      <trkpt lat="40.634810" lon="-4.414290">
        <ele>1455.908</ele>
        <time>2020-02-28T01:45:56Z</time>
      </trkpt>
      <trkpt lat="40.634770" lon="-4.414290">
        <ele>1456.388</ele>
        <time>2020-02-28T01:46:16Z</time>
      </trkpt>
      <trkpt lat="40.634710" lon="-4.414310">
        <ele>1456.761</ele>
        <time>2020-02-28T01:46:36Z</time>
      </trkpt>
      <trkpt lat="40.634580" lon="-4.414380">
        <ele>1458.326</ele>
        <time>2020-02-28T01:46:56Z</time>
      </trkpt>
      <trkpt lat="40.634460" lon="-4.414470">
        <ele>1459.537</ele>
        <time>2020-02-28T01:47:16Z</time>
      </trkpt>
      <trkpt lat="40.634350" lon="-4.414620">
        <ele>1461.119</ele>
        <time>2020-02-28T01:47:36Z</time>
      </trkpt>
      <trkpt lat="40.634350" lon="-4.414630">
        <ele>1461.037</ele>
        <time>2020-02-28T01:47:56Z</time>
      </trkpt>
      <trkpt lat="40.634300" lon="-4.414720">
        <ele>1461.760</ele>
        <time>2020-02-28T01:48:16Z</time>
      </trkpt>
      <trkpt lat="40.634260" lon="-4.414830">
        <ele>1461.985</ele>
        <time>2020-02-28T01:48:36Z</time>
      </trkpt>
      <trkpt lat="40.634210" lon="-4.415050">
        <ele>1461.638</ele>
        <time>2020-02-28T01:48:56Z</time>
      </trkpt>
      <trkpt lat="40.634170" lon="-4.415180">
        <ele>1461.670</ele>
        <time>2020-02-28T01:49:16Z</time>
      </trkpt>
      <trkpt lat="40.634070" lon="-4.415620">
        <ele>1463.017</ele>
        <time>2020-02-28T01:49:36Z</time>
      </trkpt>
      <trkpt lat="40.634020" lon="-4.415770">
        <ele>1465.008</ele>
        <time>2020-02-28T01:49:56Z</time>
      </trkpt>
      <trkpt lat="40.633970" lon="-4.415990">
        <ele>1467.917</ele>
        <time>2020-02-28T01:50:16Z</time>
      </trkpt>
      <trkpt lat="40.633960" lon="-4.416100">
        <ele>1468.990</ele>
        <time>2020-02-28T01:50:36Z</time>
      </trkpt>
      <trkpt lat="40.633960" lon="-4.416280">
        <ele>1469.825</ele>
        <time>2020-02-28T01:50:56Z</time>
      </trkpt>
      <trkpt lat="40.634010" lon="-4.416890">
        <ele>1472.126</ele>
        <time>2020-02-28T01:51:16Z</time>
      </trkpt>
      <trkpt lat="40.634050" lon="-4.417130">
        <ele>1472.838</ele>
        <time>2020-02-28T01:51:36Z</time>
      </trkpt>
      <trkpt lat="40.634050" lon="-4.417170">
        <ele>1473.186</ele>
        <time>2020-02-28T01:51:56Z</time>
      </trkpt>
      <trkpt lat="40.634110" lon="-4.417380">
        <ele>1474.499</ele>
        <time>2020-02-28T01:52:16Z</time>
      </trkpt>
      <trkpt lat="40.634520" lon="-4.418300">
        <ele>1477.174</ele>
        <time>2020-02-28T01:52:36Z</time>
      </trkpt>
      <trkpt lat="40.634560" lon="-4.418370">
        <ele>1476.471</ele>
        <time>2020-02-28T01:52:56Z</time>
      </trkpt>
      <trkpt lat="40.634640" lon="-4.418570">
        <ele>1475.141</ele>
        <time>2020-02-28T01:53:16Z</time>
      </trkpt>
      <trkpt lat="40.634650" lon="-4.418580">
        <ele>1474.915</ele>
        <time>2020-02-28T01:53:36Z</time>
      </trkpt>
      <trkpt lat="40.634700" lon="-4.418700">
        <ele>1474.208</ele>
        <time>2020-02-28T01:53:56Z</time>
      </trkpt>
      <trkpt lat="40.634740" lon="-4.418860">
        <ele>1474.511</ele>
        <time>2020-02-28T01:54:16Z</time>
      </trkpt>
      <trkpt lat="40.634740" lon="-4.419070">
        <ele>1476.644</ele>
        <time>2020-02-28T01:54:36Z</time>
      </trkpt>
      <trkpt lat="40.634720" lon="-4.419180">
        <ele>1478.099</ele>
        <time>2020-02-28T01:54:56Z</time>
      </trkpt>
      <trkpt lat="40.634690" lon="-4.419250">
        <ele>1478.090</ele>
        <time>2020-02-28T01:55:16Z</time>
      </trkpt>
      <trkpt lat="40.634670" lon="-4.419320">
        <ele>1478.052</ele>
        <time>2020-02-28T01:55:36Z</time>
      </trkpt>
      <trkpt lat="40.634580" lon="-4.419470">
        <ele>1478.440</ele>
        <time>2020-02-28T01:55:56Z</time>
      </trkpt>
      <trkpt lat="40.634530" lon="-4.419530">
        <ele>1478.793</ele>
        <time>2020-02-28T01:56:16Z</time>
      </trkpt>
      <trkpt lat="40.634420" lon="-4.419610">
        <ele>1479.738</ele>
        <time>2020-02-28T01:56:36Z</time>
      </trkpt>
      <trkpt lat="40.634260" lon="-4.419650">
        <ele>1481.489</ele>
        <time>2020-02-28T01:56:56Z</time>
      </trkpt>
      <trkpt lat="40.633190" lon="-4.419800">
        <ele>1489.106</ele>
        <time>2020-02-28T01:57:16Z</time>
      </trkpt>
      <trkpt lat="40.633070" lon="-4.419790">
        <ele>1489.026</ele>
        <time>2020-02-28T01:57:36Z</time>
      </trkpt>
      <trkpt lat="40.632990" lon="-4.419750">
        <ele>1488.308</ele>
        <time>2020-02-28T01:57:56Z</time>
      </trkpt>
      <trkpt lat="40.632920" lon="-4.419700">
        <ele>1487.682</ele>
        <time>2020-02-28T01:58:16Z</time>
      </trkpt>
      <trkpt lat="40.631980" lon="-4.418650">
        <ele>1479.485</ele>
        <time>2020-02-28T01:58:36Z</time>
      </trkpt>
      <trkpt lat="40.631880" lon="-4.418520">
        <ele>1478.260</ele>
        <time>2020-02-28T01:58:56Z</time>
      </trkpt>
      <trkpt lat="40.631810" lon="-4.418400">
        <ele>1477.381</ele>
        <time>2020-02-28T01:59:16Z</time>
      </trkpt>
      <trkpt lat="40.631800" lon="-4.418390">
        <ele>1477.233</ele>
        <time>2020-02-28T01:59:36Z</time>
      </trkpt>
      <trkpt lat="40.631710" lon="-4.418240">
        <ele>1476.211</ele>
        <time>2020-02-28T01:59:56Z</time>
      </trkpt>
      <trkpt lat="40.631240" lon="-4.417280">
        <ele>1471.774</ele>
        <time>2020-02-28T02:00:16Z</time>
      </trkpt>
      <trkpt lat="40.631070" lon="-4.417010">
        <ele>1469.149</ele>
        <time>2020-02-28T02:00:36Z</time>
      </trkpt>
      <trkpt lat="40.630900" lon="-4.416830">
        <ele>1468.937</ele>
        <time>2020-02-28T02:00:56Z</time>
      </trkpt>
      <trkpt lat="40.630870" lon="-4.416810">
        <ele>1468.649</ele>
        <time>2020-02-28T02:01:16Z</time>
      </trkpt>
      <trkpt lat="40.629870" lon="-4.415850">
        <ele>1464.513</ele>
        <time>2020-02-28T02:01:36Z</time>
      </trkpt>
      <trkpt lat="40.629400" lon="-4.415520">
        <ele>1461.808</ele>
        <time>2020-02-28T02:01:56Z</time>
      </trkpt>
      <trkpt lat="40.629340" lon="-4.415470">
        <ele>1461.517</ele>
        <time>2020-02-28T02:02:16Z</time>
      </trkpt>
      <trkpt lat="40.629030" lon="-4.415320">
        <ele>1459.730</ele>
        <time>2020-02-28T02:02:36Z</time>
      </trkpt>
      <trkpt lat="40.628860" lon="-4.415260">
        <ele>1458.865</ele>
        <time>2020-02-28T02:02:56Z</time>
      </trkpt>
      <trkpt lat="40.628800" lon="-4.415250">
        <ele>1458.226</ele>
        <time>2020-02-28T02:03:16Z</time>
      </trkpt>
      <trkpt lat="40.628760" lon="-4.415260">
        <ele>1457.748</ele>
        <time>2020-02-28T02:03:36Z</time>
      </trkpt>
      <trkpt lat="40.628660" lon="-4.415310">
        <ele>1456.476</ele>
        <time>2020-02-28T02:03:56Z</time>
      </trkpt>
      <trkpt lat="40.628580" lon="-4.415390">
        <ele>1455.649</ele>
        <time>2020-02-28T02:04:16Z</time>
      </trkpt>
      <trkpt lat="40.628510" lon="-4.415480">
        <ele>1455.064</ele>
        <time>2020-02-28T02:04:36Z</time>
      </trkpt>
      <trkpt lat="40.628440" lon="-4.415590">
        <ele>1454.257</ele>
        <time>2020-02-28T02:04:56Z</time>
      </trkpt>
      <trkpt lat="40.628390" lon="-4.415730">
        <ele>1453.400</ele>
        <time>2020-02-28T02:05:16Z</time>
      </trkpt>
      <trkpt lat="40.628240" lon="-4.416330">
        <ele>1450.820</ele>
        <time>2020-02-28T02:05:36Z</time>
      </trkpt>
      <trkpt lat="40.628190" lon="-4.416450">
        <ele>1450.208</ele>
        <time>2020-02-28T02:05:56Z</time>
      </trkpt>
      <trkpt lat="40.628110" lon="-4.416540">
        <ele>1450.229</ele>
        <time>2020-02-28T02:06:16Z</time>
      </trkpt>
      <trkpt lat="40.628030" lon="-4.416560">
        <ele>1450.222</ele>
        <time>2020-02-28T02:06:36Z</time>
      </trkpt>
      <trkpt lat="40.627980" lon="-4.416560">
        <ele>1449.867</ele>
        <time>2020-02-28T02:06:56Z</time>
      </trkpt>
      <trkpt lat="40.627840" lon="-4.416470">
        <ele>1449.558</ele>
        <time>2020-02-28T02:07:16Z</time>
      </trkpt>
      <trkpt lat="40.627760" lon="-4.416380">
        <ele>1449.360</ele>
        <time>2020-02-28T02:07:36Z</time>
      </trkpt>
      <trkpt lat="40.627730" lon="-4.416330">
        <ele>1448.188</ele>
        <time>2020-02-28T02:07:56Z</time>
      </trkpt>
      <trkpt lat="40.627730" lon="-4.416320">
        <ele>1448.131</ele>
        <time>2020-02-28T02:08:16Z</time>
      </trkpt>
      <trkpt lat="40.627530" lon="-4.415930">
        <ele>1443.656</ele>
        <time>2020-02-28T02:08:36Z</time>
      </trkpt>
      <trkpt lat="40.627530" lon="-4.415920">
        <ele>1443.751</ele>
        <time>2020-02-28T02:08:56Z</time>
      </trkpt>
      <trkpt lat="40.627360" lon="-4.415610">
        <ele>1443.501</ele>
        <time>2020-02-28T02:09:16Z</time>
      </trkpt>
      <trkpt lat="40.627310" lon="-4.415550">
        <ele>1443.311</ele>
        <time>2020-02-28T02:09:36Z</time>
      </trkpt>
      <trkpt lat="40.627110" lon="-4.415430">
        <ele>1442.408</ele>
        <time>2020-02-28T02:09:56Z</time>
      </trkpt>
      <trkpt lat="40.626800" lon="-4.415310">
        <ele>1440.769</ele>
        <time>2020-02-28T02:10:16Z</time>
      </trkpt>
      <trkpt lat="40.626590" lon="-4.415260">
        <ele>1439.642</ele>
        <time>2020-02-28T02:10:36Z</time>
      </trkpt>
      <trkpt lat="40.626510" lon="-4.415260">
        <ele>1439.077</ele>
        <time>2020-02-28T02:10:56Z</time>
      </trkpt>
      <trkpt lat="40.626430" lon="-4.415280">
        <ele>1438.398</ele>
        <time>2020-02-28T02:11:16Z</time>
      </trkpt>
      <trkpt lat="40.626300" lon="-4.415340">
        <ele>1436.980</ele>
        <time>2020-02-28T02:11:36Z</time>
      </trkpt>
      <trkpt lat="40.625900" lon="-4.415630">
        <ele>1432.778</ele>
        <time>2020-02-28T02:11:56Z</time>
      </trkpt>
      <trkpt lat="40.625680" lon="-4.415730">
        <ele>1431.711</ele>
        <time>2020-02-28T02:12:16Z</time>
      </trkpt>
      <trkpt lat="40.625140" lon="-4.415880">
        <ele>1430.046</ele>
        <time>2020-02-28T02:12:36Z</time>
      </trkpt>
      <trkpt lat="40.624970" lon="-4.415900">
        <ele>1428.797</ele>
        <time>2020-02-28T02:12:56Z</time>
      </trkpt>
      <trkpt lat="40.624860" lon="-4.415880">
        <ele>1427.923</ele>
        <time>2020-02-28T02:13:16Z</time>
      </trkpt>
      <trkpt lat="40.624770" lon="-4.415850">
        <ele>1427.325</ele>
        <time>2020-02-28T02:13:36Z</time>
      </trkpt>
      <trkpt lat="40.624660" lon="-4.415800">
        <ele>1426.408</ele>
        <time>2020-02-28T02:13:56Z</time>
      </trkpt>
      <trkpt lat="40.624440" lon="-4.415640">
        <ele>1424.783</ele>
        <time>2020-02-28T02:14:16Z</time>
      </trkpt>
      <trkpt lat="40.624150" lon="-4.415370">
        <ele>1422.546</ele>
        <time>2020-02-28T02:14:36Z</time>
      </trkpt>
      <trkpt lat="40.623040" lon="-4.413940">
        <ele>1412.611</ele>
        <time>2020-02-28T02:14:56Z</time>
      </trkpt>
      <trkpt lat="40.622380" lon="-4.413000">
        <ele>1408.382</ele>
        <time>2020-02-28T02:15:16Z</time>
      </trkpt>
      <trkpt lat="40.622260" lon="-4.412790">
        <ele>1406.514</ele>
        <time>2020-02-28T02:15:36Z</time>
      </trkpt>
      <trkpt lat="40.622190" lon="-4.412630">
        <ele>1406.032</ele>
        <time>2020-02-28T02:15:56Z</time>
      </trkpt>
      <trkpt lat="40.622140" lon="-4.412430">
        <ele>1405.555</ele>
        <time>2020-02-28T02:16:16Z</time>
      </trkpt>
      <trkpt lat="40.622110" lon="-4.412240">
        <ele>1405.060</ele>
        <time>2020-02-28T02:16:36Z</time>
      </trkpt>
      <trkpt lat="40.622130" lon="-4.411820">
        <ele>1403.362</ele>
        <time>2020-02-28T02:16:56Z</time>
      </trkpt>
      <trkpt lat="40.622180" lon="-4.411560">
        <ele>1402.683</ele>
        <time>2020-02-28T02:17:16Z</time>
      </trkpt>
      <trkpt lat="40.622180" lon="-4.411400">
        <ele>1401.611</ele>
        <time>2020-02-28T02:17:36Z</time>
      </trkpt>
      <trkpt lat="40.622170" lon="-4.411280">
        <ele>1401.408</ele>
        <time>2020-02-28T02:17:56Z</time>
      </trkpt>
      <trkpt lat="40.622140" lon="-4.411160">
        <ele>1401.180</ele>
        <time>2020-02-28T02:18:16Z</time>
      </trkpt>
      <trkpt lat="40.622020" lon="-4.410920">
        <ele>1400.333</ele>
        <time>2020-02-28T02:18:36Z</time>
      </trkpt>
      <trkpt lat="40.622000" lon="-4.410900">
        <ele>1400.228</ele>
        <time>2020-02-28T02:18:56Z</time>
      </trkpt>
      <trkpt lat="40.621910" lon="-4.410770">
        <ele>1400.249</ele>
        <time>2020-02-28T02:19:16Z</time>
      </trkpt>
      <trkpt lat="40.621830" lon="-4.410680">
        <ele>1400.151</ele>
        <time>2020-02-28T02:19:36Z</time>
      </trkpt>
      <trkpt lat="40.621740" lon="-4.410620">
        <ele>1399.559</ele>
        <time>2020-02-28T02:19:56Z</time>
      </trkpt>
      <trkpt lat="40.621640" lon="-4.410590">
        <ele>1398.572</ele>
        <time>2020-02-28T02:20:16Z</time>
      </trkpt>
      <trkpt lat="40.621540" lon="-4.410590">
        <ele>1397.157</ele>
        <time>2020-02-28T02:20:36Z</time>
      </trkpt>
      <trkpt lat="40.621450" lon="-4.410600">
        <ele>1395.799</ele>
        <time>2020-02-28T02:20:56Z</time>
      </trkpt>
      <trkpt lat="40.621210" lon="-4.410690">
        <ele>1393.907</ele>
        <time>2020-02-28T02:21:16Z</time>
      </trkpt>
      <trkpt lat="40.621040" lon="-4.410740">
        <ele>1393.727</ele>
        <time>2020-02-28T02:21:36Z</time>
      </trkpt>
      <trkpt lat="40.620710" lon="-4.410920">
        <ele>1395.208</ele>
        <time>2020-02-28T02:21:56Z</time>
      </trkpt>
      <trkpt lat="40.620400" lon="-4.411120">
        <ele>1395.453</ele>
        <time>2020-02-28T02:22:16Z</time>
      </trkpt>
      <trkpt lat="40.620370" lon="-4.411150">
        <ele>1395.286</ele>
        <time>2020-02-28T02:22:36Z</time>
      </trkpt>
      <trkpt lat="40.619970" lon="-4.411430">
        <ele>1393.441</ele>
        <time>2020-02-28T02:22:56Z</time>
      </trkpt>
      <trkpt lat="40.618800" lon="-4.412360">
        <ele>1383.272</ele>
        <time>2020-02-28T02:23:16Z</time>
      </trkpt>
      <trkpt lat="40.618740" lon="-4.412390">
        <ele>1382.714</ele>
        <time>2020-02-28T02:23:36Z</time>
      </trkpt>
      <trkpt lat="40.618590" lon="-4.412390">
        <ele>1382.092</ele>
        <time>2020-02-28T02:23:56Z</time>
      </trkpt>
      <trkpt lat="40.618490" lon="-4.412360">
        <ele>1381.445</ele>
        <time>2020-02-28T02:24:16Z</time>
      </trkpt>
      <trkpt lat="40.618230" lon="-4.412210">
        <ele>1380.390</ele>
        <time>2020-02-28T02:24:36Z</time>
      </trkpt>
      <trkpt lat="40.618130" lon="-4.412170">
        <ele>1379.975</ele>
        <time>2020-02-28T02:24:56Z</time>
      </trkpt>
      <trkpt lat="40.618060" lon="-4.412150">
        <ele>1379.628</ele>
        <time>2020-02-28T02:25:16Z</time>
      </trkpt>
      <trkpt lat="40.618000" lon="-4.412150">
        <ele>1380.120</ele>
        <time>2020-02-28T02:25:36Z</time>
      </trkpt>
      <trkpt lat="40.617950" lon="-4.412160">
        <ele>1380.508</ele>
        <time>2020-02-28T02:25:56Z</time>
      </trkpt>
      <trkpt lat="40.617940" lon="-4.412170">
        <ele>1380.581</ele>
        <time>2020-02-28T02:26:16Z</time>
      </trkpt>
      <trkpt lat="40.617910" lon="-4.412180">
        <ele>1380.824</ele>
        <time>2020-02-28T02:26:36Z</time>
      </trkpt>
      <trkpt lat="40.617880" lon="-4.412200">
        <ele>1381.059</ele>
        <time>2020-02-28T02:26:56Z</time>
      </trkpt>
      <trkpt lat="40.617830" lon="-4.412260">
        <ele>1381.310</ele>
        <time>2020-02-28T02:27:16Z</time>
      </trkpt>
      <trkpt lat="40.617730" lon="-4.412630">
        <ele>1379.882</ele>
        <time>2020-02-28T02:27:36Z</time>
      </trkpt>
      <trkpt lat="40.617660" lon="-4.413000">
        <ele>1376.780</ele>
        <time>2020-02-28T02:27:56Z</time>
      </trkpt>
      <trkpt lat="40.617660" lon="-4.413030">
        <ele>1376.473</ele>
        <time>2020-02-28T02:28:16Z</time>
      </trkpt>
      <trkpt lat="40.617570" lon="-4.413310">
        <ele>1374.188</ele>
        <time>2020-02-28T02:28:36Z</time>
      </trkpt>
      <trkpt lat="40.617400" lon="-4.413570">
        <ele>1371.416</ele>
        <time>2020-02-28T02:28:56Z</time>
      </trkpt>
      <trkpt lat="40.616780" lon="-4.414300">
        <ele>1364.476</ele>
        <time>2020-02-28T02:29:16Z</time>
      </trkpt>
      <trkpt lat="40.616690" lon="-4.414370">
        <ele>1364.113</ele>
        <time>2020-02-28T02:29:36Z</time>
      </trkpt>
      <trkpt lat="40.616560" lon="-4.414420">
        <ele>1364.708</ele>
        <time>2020-02-28T02:29:56Z</time>
      </trkpt>
      <trkpt lat="40.615800" lon="-4.414600">
        <ele>1361.965</ele>
        <time>2020-02-28T02:30:16Z</time>
      </trkpt>
      <trkpt lat="40.615720" lon="-4.414600">
        <ele>1361.248</ele>
        <time>2020-02-28T02:30:36Z</time>
      </trkpt>
      <trkpt lat="40.615640" lon="-4.414590">
        <ele>1360.743</ele>
        <time>2020-02-28T02:30:56Z</time>
      </trkpt>
      <trkpt lat="40.615540" lon="-4.414560">
        <ele>1360.084</ele>
        <time>2020-02-28T02:31:16Z</time>
      </trkpt>
      <trkpt lat="40.615100" lon="-4.414290">
        <ele>1355.686</ele>
        <time>2020-02-28T02:31:36Z</time>
      </trkpt>
      <trkpt lat="40.614970" lon="-4.414250">
        <ele>1354.924</ele>
        <time>2020-02-28T02:31:56Z</time>
      </trkpt>
      <trkpt lat="40.614950" lon="-4.414240">
        <ele>1355.227</ele>
        <time>2020-02-28T02:32:16Z</time>
      </trkpt>
      <trkpt lat="40.614900" lon="-4.414230">
        <ele>1356.152</ele>
        <time>2020-02-28T02:32:36Z</time>
      </trkpt>
      <trkpt lat="40.614850" lon="-4.414230">
        <ele>1356.826</ele>
        <time>2020-02-28T02:32:56Z</time>
      </trkpt>
      <trkpt lat="40.614740" lon="-4.414270">
        <ele>1358.347</ele>
        <time>2020-02-28T02:33:16Z</time>
      </trkpt>
      <trkpt lat="40.614650" lon="-4.414350">
        <ele>1360.911</ele>
        <time>2020-02-28T02:33:36Z</time>
      </trkpt>
      <trkpt lat="40.614600" lon="-4.414440">
        <ele>1362.408</ele>
        <time>2020-02-28T02:33:56Z</time>
      </trkpt>
      <trkpt lat="40.614580" lon="-4.414510">
        <ele>1362.956</ele>
        <time>2020-02-28T02:34:16Z</time>
      </trkpt>
      <trkpt lat="40.614560" lon="-4.414630">
        <ele>1363.219</ele>
        <time>2020-02-28T02:34:36Z</time>
      </trkpt>
      <trkpt lat="40.614560" lon="-4.414700">
        <ele>1362.924</ele>
        <time>2020-02-28T02:34:56Z</time>
      </trkpt>
      <trkpt lat="40.614590" lon="-4.414860">
        <ele>1361.045</ele>
        <time>2020-02-28T02:35:16Z</time>
      </trkpt>
      <trkpt lat="40.614690" lon="-4.415220">
        <ele>1356.337</ele>
        <time>2020-02-28T02:35:36Z</time>
      </trkpt>
      <trkpt lat="40.614710" lon="-4.415730">
        <ele>1355.955</ele>
        <time>2020-02-28T02:35:56Z</time>
      </trkpt>
      <trkpt lat="40.614680" lon="-4.416940">
        <ele>1348.358</ele>
        <time>2020-02-28T02:36:16Z</time>
      </trkpt>
      <trkpt lat="40.614670" lon="-4.417030">
        <ele>1347.393</ele>
        <time>2020-02-28T02:36:36Z</time>
      </trkpt>
      <trkpt lat="40.614610" lon="-4.417180">
        <ele>1345.698</ele>
        <time>2020-02-28T02:36:56Z</time>
      </trkpt>
      <trkpt lat="40.614580" lon="-4.417210">
        <ele>1345.215</ele>
        <time>2020-02-28T02:37:16Z</time>
      </trkpt>
      <trkpt lat="40.614480" lon="-4.417240">
        <ele>1344.826</ele>
        <time>2020-02-28T02:37:36Z</time>
      </trkpt>
      <trkpt lat="40.614430" lon="-4.417240">
        <ele>1344.608</ele>
        <time>2020-02-28T02:37:56Z</time>
      </trkpt>
      <trkpt lat="40.614360" lon="-4.417220">
        <ele>1344.483</ele>
        <time>2020-02-28T02:38:16Z</time>
      </trkpt>
      <trkpt lat="40.614260" lon="-4.417180">
        <ele>1344.346</ele>
        <time>2020-02-28T02:38:36Z</time>
      </trkpt>
      <trkpt lat="40.614060" lon="-4.417050">
        <ele>1344.931</ele>
        <time>2020-02-28T02:38:56Z</time>
      </trkpt>
      <trkpt lat="40.613950" lon="-4.417020">
        <ele>1344.642</ele>
        <time>2020-02-28T02:39:16Z</time>
      </trkpt>
      <trkpt lat="40.613850" lon="-4.417020">
        <ele>1344.244</ele>
        <time>2020-02-28T02:39:36Z</time>
      </trkpt>
      <trkpt lat="40.613760" lon="-4.417060">
        <ele>1343.932</ele>
        <time>2020-02-28T02:39:56Z</time>
      </trkpt>
      <trkpt lat="40.613660" lon="-4.417120">
        <ele>1343.625</ele>
        <time>2020-02-28T02:40:16Z</time>
      </trkpt>
      <trkpt lat="40.613550" lon="-4.417260">
        <ele>1344.080</ele>
        <time>2020-02-28T02:40:36Z</time>
      </trkpt>
      <trkpt lat="40.613500" lon="-4.417390">
        <ele>1343.548</ele>
        <time>2020-02-28T02:40:56Z</time>
      </trkpt>
      <trkpt lat="40.613470" lon="-4.417430">
        <ele>1343.461</ele>
        <time>2020-02-28T02:41:16Z</time>
      </trkpt>
      <trkpt lat="40.613440" lon="-4.417460">
        <ele>1343.417</ele>
        <time>2020-02-28T02:41:36Z</time>
      </trkpt>
      <trkpt lat="40.613360" lon="-4.417500">
        <ele>1343.708</ele>
        <time>2020-02-28T02:41:56Z</time>
      </trkpt>
      <trkpt lat="40.613300" lon="-4.417510">
        <ele>1343.768</ele>
        <time>2020-02-28T02:42:16Z</time>
      </trkpt>
      <trkpt lat="40.613250" lon="-4.417510">
        <ele>1343.541</ele>
        <time>2020-02-28T02:42:36Z</time>
      </trkpt>
      <trkpt lat="40.613070" lon="-4.417470">
        <ele>1343.636</ele>
        <time>2020-02-28T02:42:56Z</time>
      </trkpt>
      <trkpt lat="40.612750" lon="-4.417340">
        <ele>1343.197</ele>
        <time>2020-02-28T02:43:16Z</time>
      </trkpt>
      <trkpt lat="40.612560" lon="-4.417300">
        <ele>1342.399</ele>
        <time>2020-02-28T02:43:36Z</time>
      </trkpt>
      <trkpt lat="40.612470" lon="-4.417290">
        <ele>1342.117</ele>
        <time>2020-02-28T02:43:56Z</time>
      </trkpt>
      <trkpt lat="40.612260" lon="-4.417330">
        <ele>1342.080</ele>
        <time>2020-02-28T02:44:16Z</time>
      </trkpt>
      <trkpt lat="40.612060" lon="-4.417430">
        <ele>1340.825</ele>
        <time>2020-02-28T02:44:36Z</time>
      </trkpt>
      <trkpt lat="40.611840" lon="-4.417580">
        <ele>1338.874</ele>
        <time>2020-02-28T02:44:56Z</time>
      </trkpt>
      <trkpt lat="40.611630" lon="-4.417680">
        <ele>1337.256</ele>
        <time>2020-02-28T02:45:16Z</time>
      </trkpt>
      <trkpt lat="40.611470" lon="-4.417710">
        <ele>1335.721</ele>
        <time>2020-02-28T02:45:36Z</time>
      </trkpt>
      <trkpt lat="40.611400" lon="-4.417710">
        <ele>1335.308</ele>
        <time>2020-02-28T02:45:56Z</time>
      </trkpt>
      <trkpt lat="40.611130" lon="-4.417680">
        <ele>1334.571</ele>
        <time>2020-02-28T02:46:16Z</time>
      </trkpt>
      <trkpt lat="40.611100" lon="-4.417670">
        <ele>1334.464</ele>
        <time>2020-02-28T02:46:36Z</time>
      </trkpt>
      <trkpt lat="40.610990" lon="-4.417660">
        <ele>1333.619</ele>
        <time>2020-02-28T02:46:56Z</time>
      </trkpt>
      <trkpt lat="40.610890" lon="-4.417640">
        <ele>1333.090</ele>
        <time>2020-02-28T02:47:16Z</time>
      </trkpt>
      <trkpt lat="40.610760" lon="-4.417590">
        <ele>1332.212</ele>
        <time>2020-02-28T02:47:36Z</time>
      </trkpt>
      <trkpt lat="40.610480" lon="-4.417400">
        <ele>1330.480</ele>
        <time>2020-02-28T02:47:56Z</time>
      </trkpt>
      <trkpt lat="40.610030" lon="-4.416930">
        <ele>1331.363</ele>
        <time>2020-02-28T02:48:16Z</time>
      </trkpt>
      <trkpt lat="40.609840" lon="-4.416780">
        <ele>1332.288</ele>
        <time>2020-02-28T02:48:36Z</time>
      </trkpt>
      <trkpt lat="40.609780" lon="-4.416760">
        <ele>1332.267</ele>
        <time>2020-02-28T02:48:56Z</time>
      </trkpt>
      <trkpt lat="40.609670" lon="-4.416740">
        <ele>1332.381</ele>
        <time>2020-02-28T02:49:16Z</time>
      </trkpt>
      <trkpt lat="40.609610" lon="-4.416750">
        <ele>1332.219</ele>
        <time>2020-02-28T02:49:36Z</time>
      </trkpt>
      <trkpt lat="40.609530" lon="-4.416780">
        <ele>1332.108</ele>
        <time>2020-02-28T02:49:56Z</time>
      </trkpt>
      <trkpt lat="40.609440" lon="-4.416880">
        <ele>1331.520</ele>
        <time>2020-02-28T02:50:16Z</time>
      </trkpt>
      <trkpt lat="40.609340" lon="-4.417050">
        <ele>1332.133</ele>
        <time>2020-02-28T02:50:36Z</time>
      </trkpt>
      <trkpt lat="40.608900" lon="-4.418050">
        <ele>1331.828</ele>
        <time>2020-02-28T02:50:56Z</time>
      </trkpt>
      <trkpt lat="40.608740" lon="-4.418290">
        <ele>1330.819</ele>
        <time>2020-02-28T02:51:16Z</time>
      </trkpt>
      <trkpt lat="40.608670" lon="-4.418370">
        <ele>1330.111</ele>
        <time>2020-02-28T02:51:36Z</time>
      </trkpt>
      <trkpt lat="40.608560" lon="-4.418430">
        <ele>1329.029</ele>
        <time>2020-02-28T02:51:56Z</time>
      </trkpt>
      <trkpt lat="40.608510" lon="-4.418450">
        <ele>1328.452</ele>
        <time>2020-02-28T02:52:16Z</time>
      </trkpt>
      <trkpt lat="40.608360" lon="-4.418450">
        <ele>1327.637</ele>
        <time>2020-02-28T02:52:36Z</time>
      </trkpt>
      <trkpt lat="40.607540" lon="-4.418240">
        <ele>1325.373</ele>
        <time>2020-02-28T02:52:56Z</time>
      </trkpt>
      <trkpt lat="40.607420" lon="-4.418220">
        <ele>1325.285</ele>
        <time>2020-02-28T02:53:16Z</time>
      </trkpt>
      <trkpt lat="40.607260" lon="-4.418240">
        <ele>1324.213</ele>
        <time>2020-02-28T02:53:36Z</time>
      </trkpt>
      <trkpt lat="40.607190" lon="-4.418260">
        <ele>1324.008</ele>
        <time>2020-02-28T02:53:56Z</time>
      </trkpt>
      <trkpt lat="40.607120" lon="-4.418300">
        <ele>1324.171</ele>
        <time>2020-02-28T02:54:16Z</time>
      </trkpt>
      <trkpt lat="40.607010" lon="-4.418400">
        <ele>1323.874</ele>
        <time>2020-02-28T02:54:36Z</time>
      </trkpt>
      <trkpt lat="40.606920" lon="-4.418530">
        <ele>1323.039</ele>
        <time>2020-02-28T02:54:56Z</time>
      </trkpt>
      <trkpt lat="40.606770" lon="-4.418940">
        <ele>1320.880</ele>
        <time>2020-02-28T02:55:16Z</time>
      </trkpt>
      <trkpt lat="40.606660" lon="-4.419130">
        <ele>1320.322</ele>
        <time>2020-02-28T02:55:36Z</time>
      </trkpt>
      <trkpt lat="40.606550" lon="-4.419250">
        <ele>1319.410</ele>
        <time>2020-02-28T02:55:56Z</time>
      </trkpt>
      <trkpt lat="40.606390" lon="-4.419370">
        <ele>1318.533</ele>
        <time>2020-02-28T02:56:16Z</time>
      </trkpt>
      <trkpt lat="40.606290" lon="-4.419460">
        <ele>1318.628</ele>
        <time>2020-02-28T02:56:36Z</time>
      </trkpt>
      <trkpt lat="40.606150" lon="-4.419560">
        <ele>1318.537</ele>
        <time>2020-02-28T02:56:56Z</time>
      </trkpt>
      <trkpt lat="40.605930" lon="-4.419680">
        <ele>1317.549</ele>
        <time>2020-02-28T02:57:16Z</time>
      </trkpt>
      <trkpt lat="40.605720" lon="-4.419740">
        <ele>1315.613</ele>
        <time>2020-02-28T02:57:36Z</time>
      </trkpt>
      <trkpt lat="40.605550" lon="-4.419750">
        <ele>1313.808</ele>
        <time>2020-02-28T02:57:56Z</time>
      </trkpt>
      <trkpt lat="40.601260" lon="-4.419040">
        <ele>1303.557</ele>
        <time>2020-02-28T02:58:16Z</time>
      </trkpt>
      <trkpt lat="40.601150" lon="-4.419040">
        <ele>1302.720</ele>
        <time>2020-02-28T02:58:36Z</time>
      </trkpt>
      <trkpt lat="40.601070" lon="-4.419050">
        <ele>1302.055</ele>
        <time>2020-02-28T02:58:56Z</time>
      </trkpt>
      <trkpt lat="40.601000" lon="-4.419050">
        <ele>1301.276</ele>
        <time>2020-02-28T02:59:16Z</time>
      </trkpt>
      <trkpt lat="40.600850" lon="-4.419090">
        <ele>1299.518</ele>
        <time>2020-02-28T02:59:36Z</time>
      </trkpt>
      <trkpt lat="40.600720" lon="-4.419140">
        <ele>1296.796</ele>
        <time>2020-02-28T02:59:56Z</time>
      </trkpt>
      <trkpt lat="40.600570" lon="-4.419240">
        <ele>1293.619</ele>
        <time>2020-02-28T03:00:16Z</time>
      </trkpt>
      <trkpt lat="40.600370" lon="-4.419400">
        <ele>1292.454</ele>
        <time>2020-02-28T03:00:36Z</time>
      </trkpt>
      <trkpt lat="40.600250" lon="-4.419480">
        <ele>1292.639</ele>
        <time>2020-02-28T03:00:56Z</time>
      </trkpt>
      <trkpt lat="40.600230" lon="-4.419500">
        <ele>1292.901</ele>
        <time>2020-02-28T03:01:16Z</time>
      </trkpt>
      <trkpt lat="40.599870" lon="-4.419770">
        <ele>1293.421</ele>
        <time>2020-02-28T03:01:36Z</time>
      </trkpt>
      <trkpt lat="40.599720" lon="-4.419860">
        <ele>1291.508</ele>
        <time>2020-02-28T03:01:56Z</time>
      </trkpt>
      <trkpt lat="40.599630" lon="-4.419890">
        <ele>1290.787</ele>
        <time>2020-02-28T03:02:16Z</time>
      </trkpt>
      <trkpt lat="40.599530" lon="-4.419900">
        <ele>1290.010</ele>
        <time>2020-02-28T03:02:36Z</time>
      </trkpt>
      <trkpt lat="40.599380" lon="-4.419870">
        <ele>1289.225</ele>
        <time>2020-02-28T03:02:56Z</time>
      </trkpt>
      <trkpt lat="40.599280" lon="-4.419810">
        <ele>1289.136</ele>
        <time>2020-02-28T03:03:16Z</time>
      </trkpt>
      <trkpt lat="40.599170" lon="-4.419680">
        <ele>1289.078</ele>
        <time>2020-02-28T03:03:36Z</time>
      </trkpt>
      <trkpt lat="40.598690" lon="-4.418730">
        <ele>1284.426</ele>
        <time>2020-02-28T03:03:56Z</time>
      </trkpt>
      <trkpt lat="40.598500" lon="-4.418390">
        <ele>1282.789</ele>
        <time>2020-02-28T03:04:16Z</time>
      </trkpt>
      <trkpt lat="40.598030" lon="-4.417460">
        <ele>1280.814</ele>
        <time>2020-02-28T03:04:36Z</time>
      </trkpt>
      <trkpt lat="40.597590" lon="-4.416710">
        <ele>1276.821</ele>
        <time>2020-02-28T03:04:56Z</time>
      </trkpt>
      <trkpt lat="40.597560" lon="-4.416670">
        <ele>1276.441</ele>
        <time>2020-02-28T03:05:16Z</time>
      </trkpt>
      <trkpt lat="40.597220" lon="-4.416310">
        <ele>1274.005</ele>
        <time>2020-02-28T03:05:36Z</time>
      </trkpt>
      <trkpt lat="40.596980" lon="-4.416130">
        <ele>1272.308</ele>
        <time>2020-02-28T03:05:56Z</time>
      </trkpt>
      <trkpt lat="40.595040" lon="-4.414810">
        <ele>1261.686</ele>
        <time>2020-02-28T03:06:16Z</time>
      </trkpt>
      <trkpt lat="40.595000" lon="-4.414790">
        <ele>1261.289</ele>
        <time>2020-02-28T03:06:36Z</time>
      </trkpt>
      <trkpt lat="40.591420" lon="-4.412330">
        <ele>1265.044</ele>
        <time>2020-02-28T03:06:56Z</time>
      </trkpt>
      <trkpt lat="40.591400" lon="-4.412310">
        <ele>1265.085</ele>
        <time>2020-02-28T03:07:16Z</time>
      </trkpt>
      <trkpt lat="40.591110" lon="-4.412120">
        <ele>1266.427</ele>
        <time>2020-02-28T03:07:36Z</time>
      </trkpt>
      <trkpt lat="40.590980" lon="-4.412060">
        <ele>1266.835</ele>
        <time>2020-02-28T03:07:56Z</time>
      </trkpt>
      <trkpt lat="40.590840" lon="-4.412040">
        <ele>1267.018</ele>
        <time>2020-02-28T03:08:16Z</time>
      </trkpt>
      <trkpt lat="40.590460" lon="-4.412050">
        <ele>1268.063</ele>
        <time>2020-02-28T03:08:36Z</time>
      </trkpt>
      <trkpt lat="40.589900" lon="-4.412270">
        <ele>1265.369</ele>
        <time>2020-02-28T03:08:56Z</time>
      </trkpt>
      <trkpt lat="40.588650" lon="-4.412840">
        <ele>1253.104</ele>
        <time>2020-02-28T03:09:16Z</time>
      </trkpt>
      <trkpt lat="40.588490" lon="-4.412880">
        <ele>1252.824</ele>
        <time>2020-02-28T03:09:36Z</time>
      </trkpt>
      <trkpt lat="40.588460" lon="-4.412880">
        <ele>1252.808</ele>
        <time>2020-02-28T03:09:56Z</time>
      </trkpt>
      <trkpt lat="40.588320" lon="-4.412900">
        <ele>1253.040</ele>
        <time>2020-02-28T03:10:16Z</time>
      </trkpt>
      <trkpt lat="40.588130" lon="-4.412910">
        <ele>1252.713</ele>
        <time>2020-02-28T03:10:36Z</time>
      </trkpt>
      <trkpt lat="40.587950" lon="-4.412880">
        <ele>1252.598</ele>
        <time>2020-02-28T03:10:56Z</time>
      </trkpt>
      <trkpt lat="40.587930" lon="-4.412880">
        <ele>1252.549</ele>
        <time>2020-02-28T03:11:16Z</time>
      </trkpt>
      <trkpt lat="40.587600" lon="-4.412800">
        <ele>1252.831</ele>
        <time>2020-02-28T03:11:36Z</time>
      </trkpt>
      <trkpt lat="40.587210" lon="-4.412800">
        <ele>1253.939</ele>
        <time>2020-02-28T03:11:56Z</time>
      </trkpt>
      <trkpt lat="40.586950" lon="-4.412840">
        <ele>1254.592</ele>
        <time>2020-02-28T03:12:16Z</time>
      </trkpt>
      <trkpt lat="40.586930" lon="-4.412850">
        <ele>1254.567</ele>
        <time>2020-02-28T03:12:36Z</time>
      </trkpt>
      <trkpt lat="40.586860" lon="-4.412860">
        <ele>1254.753</ele>
        <time>2020-02-28T03:12:56Z</time>
      </trkpt>
      <trkpt lat="40.586480" lon="-4.412980">
        <ele>1253.904</ele>
        <time>2020-02-28T03:13:16Z</time>
      </trkpt>
      <trkpt lat="40.586280" lon="-4.413130">
        <ele>1252.114</ele>
        <time>2020-02-28T03:13:36Z</time>
      </trkpt>
      <trkpt lat="40.586280" lon="-4.413140">
        <ele>1252.008</ele>
        <time>2020-02-28T03:13:56Z</time>
      </trkpt>
      <trkpt lat="40.586270" lon="-4.413150">
        <ele>1251.969</ele>
        <time>2020-02-28T03:14:16Z</time>
      </trkpt>
      <trkpt lat="40.586270" lon="-4.413160">
        <ele>1251.842</ele>
        <time>2020-02-28T03:14:36Z</time>
      </trkpt>
      <trkpt lat="40.586260" lon="-4.413170">
        <ele>1251.777</ele>
        <time>2020-02-28T03:14:56Z</time>
      </trkpt>
      <trkpt lat="40.586260" lon="-4.413180">
        <ele>1251.628</ele>
        <time>2020-02-28T03:15:16Z</time>
      </trkpt>
      <trkpt lat="40.586250" lon="-4.413180">
        <ele>1251.630</ele>
        <time>2020-02-28T03:15:36Z</time>
      </trkpt>
      <trkpt lat="40.586250" lon="-4.413190">
        <ele>1251.568</ele>
        <time>2020-02-28T03:15:56Z</time>
      </trkpt>
      <trkpt lat="40.586240" lon="-4.413200">
        <ele>1251.491</ele>
        <time>2020-02-28T03:16:16Z</time>
      </trkpt>
      <trkpt lat="40.586230" lon="-4.413200">
        <ele>1251.486</ele>
        <time>2020-02-28T03:16:36Z</time>
      </trkpt>
      <trkpt lat="40.586230" lon="-4.413210">
        <ele>1251.392</ele>
        <time>2020-02-28T03:16:56Z</time>
      </trkpt>
      <trkpt lat="40.586220" lon="-4.413210">
        <ele>1251.373</ele>
        <time>2020-02-28T03:17:16Z</time>
      </trkpt>
      <trkpt lat="40.586210" lon="-4.413220">
        <ele>1251.220</ele>
        <time>2020-02-28T03:17:36Z</time>
      </trkpt>
      <trkpt lat="40.586200" lon="-4.413220">
        <ele>1251.108</ele>
        <time>2020-02-28T03:17:56Z</time>
      </trkpt>
      <trkpt lat="40.586190" lon="-4.413230">
        <ele>1251.033</ele>
        <time>2020-02-28T03:18:16Z</time>
      </trkpt>
      <trkpt lat="40.586180" lon="-4.413230">
        <ele>1251.076</ele>
        <time>2020-02-28T03:18:36Z</time>
      </trkpt>
      <trkpt lat="40.586360" lon="-4.413790">
        <ele>1249.381</ele>
        <time>2020-02-28T03:18:56Z</time>
      </trkpt>
      <trkpt lat="40.591220" lon="-4.433560">
        <ele>1257.852</ele>
        <time>2020-02-28T03:19:16Z</time>
      </trkpt>
      <trkpt lat="40.592290" lon="-4.438130">
        <ele>1264.224</ele>
        <time>2020-02-28T03:19:36Z</time>
      </trkpt>
      <trkpt lat="40.592440" lon="-4.438620">
        <ele>1262.282</ele>
        <time>2020-02-28T03:19:56Z</time>
      </trkpt>
      <trkpt lat="40.592610" lon="-4.439090">
        <ele>1261.135</ele>
        <time>2020-02-28T03:20:16Z</time>
      </trkpt>
      <trkpt lat="40.592860" lon="-4.439620">
        <ele>1261.060</ele>
        <time>2020-02-28T03:20:36Z</time>
      </trkpt>
      <trkpt lat="40.593030" lon="-4.439940">
        <ele>1261.113</ele>
        <time>2020-02-28T03:20:56Z</time>
      </trkpt>
      <trkpt lat="40.593380" lon="-4.440470">
        <ele>1260.643</ele>
        <time>2020-02-28T03:21:16Z</time>
      </trkpt>
      <trkpt lat="40.593720" lon="-4.440880">
        <ele>1261.207</ele>
        <time>2020-02-28T03:21:36Z</time>
      </trkpt>
      <trkpt lat="40.594030" lon="-4.441200">
        <ele>1261.208</ele>
        <time>2020-02-28T03:21:56Z</time>
      </trkpt>
      <trkpt lat="40.594560" lon="-4.441640">
        <ele>1260.155</ele>
        <time>2020-02-28T03:22:16Z</time>
      </trkpt>
      <trkpt lat="40.595800" lon="-4.442590">
        <ele>1245.938</ele>
        <time>2020-02-28T03:22:36Z</time>
      </trkpt>
      <trkpt lat="40.596000" lon="-4.442770">
        <ele>1244.143</ele>
        <time>2020-02-28T03:22:56Z</time>
      </trkpt>
      <trkpt lat="40.596170" lon="-4.442980">
        <ele>1243.284</ele>
        <time>2020-02-28T03:23:16Z</time>
      </trkpt>
      <trkpt lat="40.596380" lon="-4.443340">
        <ele>1242.866</ele>
        <time>2020-02-28T03:23:36Z</time>
      </trkpt>
      <trkpt lat="40.596540" lon="-4.443680">
        <ele>1241.624</ele>
        <time>2020-02-28T03:23:56Z</time>
      </trkpt>
      <trkpt lat="40.596610" lon="-4.443900">
        <ele>1240.687</ele>
        <time>2020-02-28T03:24:16Z</time>
      </trkpt>
      <trkpt lat="40.596660" lon="-4.444120">
        <ele>1241.812</ele>
        <time>2020-02-28T03:24:36Z</time>
      </trkpt>
      <trkpt lat="40.596710" lon="-4.444680">
        <ele>1243.253</ele>
        <time>2020-02-28T03:24:56Z</time>
      </trkpt>
      <trkpt lat="40.596690" lon="-4.445190">
        <ele>1245.404</ele>
        <time>2020-02-28T03:25:16Z</time>
      </trkpt>
      <trkpt lat="40.596640" lon="-4.445480">
        <ele>1246.214</ele>
        <time>2020-02-28T03:25:36Z</time>
      </trkpt>
      <trkpt lat="40.596640" lon="-4.445510">
        <ele>1246.308</ele>
        <time>2020-02-28T03:25:56Z</time>
      </trkpt>
      <trkpt lat="40.596560" lon="-4.445840">
        <ele>1246.539</ele>
        <time>2020-02-28T03:26:16Z</time>
      </trkpt>
      <trkpt lat="40.596390" lon="-4.446310">
        <ele>1248.462</ele>
        <time>2020-02-28T03:26:36Z</time>
      </trkpt>
      <trkpt lat="40.595740" lon="-4.447790">
        <ele>1254.767</ele>
        <time>2020-02-28T03:26:56Z</time>
      </trkpt>
      <trkpt lat="40.595730" lon="-4.447830">
        <ele>1254.778</ele>
        <time>2020-02-28T03:27:16Z</time>
      </trkpt>
      <trkpt lat="40.595570" lon="-4.448240">
        <ele>1253.950</ele>
        <time>2020-02-28T03:27:36Z</time>
      </trkpt>
      <trkpt lat="40.595490" lon="-4.448520">
        <ele>1254.078</ele>
        <time>2020-02-28T03:27:56Z</time>
      </trkpt>
      <trkpt lat="40.595430" lon="-4.448840">
        <ele>1254.161</ele>
        <time>2020-02-28T03:28:16Z</time>
      </trkpt>
      <trkpt lat="40.594830" lon="-4.453180">
        <ele>1271.746</ele>
        <time>2020-02-28T03:28:36Z</time>
      </trkpt>
      <trkpt lat="40.594800" lon="-4.453690">
        <ele>1273.386</ele>
        <time>2020-02-28T03:28:56Z</time>
      </trkpt>
      <trkpt lat="40.594800" lon="-4.454320">
        <ele>1274.160</ele>
        <time>2020-02-28T03:29:16Z</time>
      </trkpt>
      <trkpt lat="40.594860" lon="-4.455070">
        <ele>1279.126</ele>
        <time>2020-02-28T03:29:36Z</time>
      </trkpt>
      <trkpt lat="40.594850" lon="-4.455490">
        <ele>1282.308</ele>
        <time>2020-02-28T03:29:56Z</time>
      </trkpt>
      <trkpt lat="40.594800" lon="-4.455740">
        <ele>1283.032</ele>
        <time>2020-02-28T03:30:16Z</time>
      </trkpt>
      <trkpt lat="40.594770" lon="-4.456010">
        <ele>1284.285</ele>
        <time>2020-02-28T03:30:36Z</time>
      </trkpt>
      <trkpt lat="40.594660" lon="-4.456400">
        <ele>1287.710</ele>
        <time>2020-02-28T03:30:56Z</time>
      </trkpt>
      <trkpt lat="40.594450" lon="-4.456900">
        <ele>1288.951</ele>
        <time>2020-02-28T03:31:16Z</time>
      </trkpt>
      <trkpt lat="40.592880" lon="-4.460030">
        <ele>1291.833</ele>
        <time>2020-02-28T03:31:36Z</time>
      </trkpt>
      <trkpt lat="40.592340" lon="-4.461430">
        <ele>1292.461</ele>
        <time>2020-02-28T03:31:56Z</time>
      </trkpt>
      <trkpt lat="40.592020" lon="-4.462710">
        <ele>1293.374</ele>
        <time>2020-02-28T03:32:16Z</time>
      </trkpt>
      <trkpt lat="40.590660" lon="-4.469460">
        <ele>1280.039</ele>
        <time>2020-02-28T03:32:36Z</time>
      </trkpt>
      <trkpt lat="40.590470" lon="-4.470160">
        <ele>1280.499</ele>
        <time>2020-02-28T03:32:56Z</time>
      </trkpt>
      <trkpt lat="40.590330" lon="-4.470550">
        <ele>1282.907</ele>
        <time>2020-02-28T03:33:16Z</time>
      </trkpt>
      <trkpt lat="40.590100" lon="-4.471070">
        <ele>1287.127</ele>
        <time>2020-02-28T03:33:36Z</time>
      </trkpt>
      <trkpt lat="40.588830" lon="-4.473620">
        <ele>1301.408</ele>
        <time>2020-02-28T03:33:56Z</time>
      </trkpt>
      <trkpt lat="40.588650" lon="-4.474070">
        <ele>1302.433</ele>
        <time>2020-02-28T03:34:16Z</time>
      </trkpt>
      <trkpt lat="40.588550" lon="-4.474380">
        <ele>1304.336</ele>
        <time>2020-02-28T03:34:36Z</time>
      </trkpt>
      <trkpt lat="40.588450" lon="-4.474800">
        <ele>1305.891</ele>
        <time>2020-02-28T03:34:56Z</time>
      </trkpt>
      <trkpt lat="40.588420" lon="-4.475070">
        <ele>1307.322</ele>
        <time>2020-02-28T03:35:16Z</time>
      </trkpt>
      <trkpt lat="40.588420" lon="-4.475440">
        <ele>1309.514</ele>
        <time>2020-02-28T03:35:36Z</time>
      </trkpt>
      <trkpt lat="40.588470" lon="-4.475910">
        <ele>1313.512</ele>
        <time>2020-02-28T03:35:56Z</time>
      </trkpt>
      <trkpt lat="40.588610" lon="-4.476620">
        <ele>1319.895</ele>
        <time>2020-02-28T03:36:16Z</time>
      </trkpt>
      <trkpt lat="40.588740" lon="-4.476970">
        <ele>1320.150</ele>
        <time>2020-02-28T03:36:36Z</time>
      </trkpt>
      <trkpt lat="40.588750" lon="-4.476980">
        <ele>1320.193</ele>
        <time>2020-02-28T03:36:56Z</time>
      </trkpt>
      <trkpt lat="40.588840" lon="-4.477140">
        <ele>1320.765</ele>
        <time>2020-02-28T03:37:16Z</time>
      </trkpt>
      <trkpt lat="40.591780" lon="-4.481720">
        <ele>1330.021</ele>
        <time>2020-02-28T03:37:36Z</time>
      </trkpt>
      <trkpt lat="40.591790" lon="-4.481730">
        <ele>1330.008</ele>
        <time>2020-02-28T03:37:56Z</time>
      </trkpt>
      <trkpt lat="40.592130" lon="-4.482280">
        <ele>1329.613</ele>
        <time>2020-02-28T03:38:16Z</time>
      </trkpt>
      <trkpt lat="40.592320" lon="-4.482670">
        <ele>1329.646</ele>
        <time>2020-02-28T03:38:36Z</time>
      </trkpt>
      <trkpt lat="40.592380" lon="-4.482840">
        <ele>1329.521</ele>
        <time>2020-02-28T03:38:56Z</time>
      </trkpt>
      <trkpt lat="40.592400" lon="-4.482880">
        <ele>1329.642</ele>
        <time>2020-02-28T03:39:16Z</time>
      </trkpt>
      <trkpt lat="40.592470" lon="-4.483100">
        <ele>1330.464</ele>
        <time>2020-02-28T03:39:36Z</time>
      </trkpt>
      <trkpt lat="40.592480" lon="-4.483120">
        <ele>1330.532</ele>
        <time>2020-02-28T03:39:56Z</time>
      </trkpt>
      <trkpt lat="40.592600" lon="-4.483700">
        <ele>1329.685</ele>
        <time>2020-02-28T03:40:16Z</time>
      </trkpt>
      <trkpt lat="40.592630" lon="-4.484020">
        <ele>1330.310</ele>
        <time>2020-02-28T03:40:36Z</time>
      </trkpt>
      <trkpt lat="40.592640" lon="-4.484060">
        <ele>1330.674</ele>
        <time>2020-02-28T03:40:56Z</time>
      </trkpt>
      <trkpt lat="40.592650" lon="-4.484600">
        <ele>1332.056</ele>
        <time>2020-02-28T03:41:16Z</time>
      </trkpt>
      <trkpt lat="40.592600" lon="-4.485130">
        <ele>1332.621</ele>
        <time>2020-02-28T03:41:36Z</time>
      </trkpt>
      <trkpt lat="40.592410" lon="-4.486190">
        <ele>1338.508</ele>
        <time>2020-02-28T03:41:56Z</time>
      </trkpt>
      <trkpt lat="40.592330" lon="-4.486550">
        <ele>1340.231</ele>
        <time>2020-02-28T03:42:16Z</time>
      </trkpt>
      <trkpt lat="40.592040" lon="-4.488160">
        <ele>1346.144</ele>
        <time>2020-02-28T03:42:36Z</time>
      </trkpt>
      <trkpt lat="40.591970" lon="-4.488680">
        <ele>1347.459</ele>
        <time>2020-02-28T03:42:56Z</time>
      </trkpt>
      <trkpt lat="40.591960" lon="-4.488850">
        <ele>1348.030</ele>
        <time>2020-02-28T03:43:16Z</time>
      </trkpt>
      <trkpt lat="40.591960" lon="-4.489430">
        <ele>1350.062</ele>
        <time>2020-02-28T03:43:36Z</time>
      </trkpt>
      <trkpt lat="40.592010" lon="-4.490030">
        <ele>1350.060</ele>
        <time>2020-02-28T03:43:56Z</time>
      </trkpt>
      <trkpt lat="40.592020" lon="-4.490060">
        <ele>1349.933</ele>
        <time>2020-02-28T03:44:16Z</time>
      </trkpt>
      <trkpt lat="40.592050" lon="-4.490270">
        <ele>1349.668</ele>
        <time>2020-02-28T03:44:36Z</time>
      </trkpt>
      <trkpt lat="40.592120" lon="-4.490610">
        <ele>1347.552</ele>
        <time>2020-02-28T03:44:56Z</time>
      </trkpt>
      <trkpt lat="40.592150" lon="-4.490710">
        <ele>1346.853</ele>
        <time>2020-02-28T03:45:16Z</time>
      </trkpt>
      <trkpt lat="40.592160" lon="-4.490780">
        <ele>1346.508</ele>
        <time>2020-02-28T03:45:36Z</time>
      </trkpt>
      <trkpt lat="40.592210" lon="-4.490920">
        <ele>1345.408</ele>
        <time>2020-02-28T03:45:56Z</time>
      </trkpt>
      <trkpt lat="40.592210" lon="-4.490940">
        <ele>1345.349</ele>
        <time>2020-02-28T03:46:16Z</time>
      </trkpt>
      <trkpt lat="40.592370" lon="-4.491410">
        <ele>1343.492</ele>
        <time>2020-02-28T03:46:36Z</time>
      </trkpt>
      <trkpt lat="40.592710" lon="-4.492160">
        <ele>1340.017</ele>
        <time>2020-02-28T03:46:56Z</time>
      </trkpt>
      <trkpt lat="40.592730" lon="-4.492180">
        <ele>1340.058</ele>
        <time>2020-02-28T03:47:16Z</time>
      </trkpt>
      <trkpt lat="40.594110" lon="-4.495180">
        <ele>1345.680</ele>
        <time>2020-02-28T03:47:36Z</time>
      </trkpt>
      <trkpt lat="40.594150" lon="-4.495200">
        <ele>1345.748</ele>
        <time>2020-02-28T03:47:56Z</time>
      </trkpt>
      <trkpt lat="40.594200" lon="-4.495240">
        <ele>1346.111</ele>
        <time>2020-02-28T03:48:16Z</time>
      </trkpt>
      <trkpt lat="40.594250" lon="-4.495330">
        <ele>1346.956</ele>
        <time>2020-02-28T03:48:36Z</time>
      </trkpt>
      <trkpt lat="40.594320" lon="-4.495430">
        <ele>1347.947</ele>
        <time>2020-02-28T03:48:56Z</time>
      </trkpt>
      <trkpt lat="40.594420" lon="-4.495520">
        <ele>1348.829</ele>
        <time>2020-02-28T03:49:16Z</time>
      </trkpt>
      <trkpt lat="40.594430" lon="-4.495520">
        <ele>1348.821</ele>
        <time>2020-02-28T03:49:36Z</time>
      </trkpt>
      <trkpt lat="40.594440" lon="-4.495530">
        <ele>1348.908</ele>
        <time>2020-02-28T03:49:56Z</time>
      </trkpt>
      <trkpt lat="40.594460" lon="-4.495530">
        <ele>1349.038</ele>
        <time>2020-02-28T03:50:16Z</time>
      </trkpt>
      <trkpt lat="40.594480" lon="-4.495540">
        <ele>1349.181</ele>
        <time>2020-02-28T03:50:36Z</time>
      </trkpt>
      <trkpt lat="40.594530" lon="-4.495590">
        <ele>1349.516</ele>
        <time>2020-02-28T03:50:56Z</time>
      </trkpt>
      <trkpt lat="40.594540" lon="-4.495610">
        <ele>1349.777</ele>
        <time>2020-02-28T03:51:16Z</time>
      </trkpt>
      <trkpt lat="40.594550" lon="-4.495620">
        <ele>1349.879</ele>
        <time>2020-02-28T03:51:36Z</time>
      </trkpt>
      <trkpt lat="40.594580" lon="-4.495680">
        <ele>1350.257</ele>
        <time>2020-02-28T03:51:56Z</time>
      </trkpt>
      <trkpt lat="40.594580" lon="-4.495700">
        <ele>1350.340</ele>
        <time>2020-02-28T03:52:16Z</time>
      </trkpt>
      <trkpt lat="40.594590" lon="-4.495720">
        <ele>1350.445</ele>
        <time>2020-02-28T03:52:36Z</time>
      </trkpt>
      <trkpt lat="40.594590" lon="-4.495840">
        <ele>1351.011</ele>
        <time>2020-02-28T03:52:56Z</time>
      </trkpt>
      <trkpt lat="40.594570" lon="-4.495880">
        <ele>1351.221</ele>
        <time>2020-02-28T03:53:16Z</time>
      </trkpt>
      <trkpt lat="40.594570" lon="-4.495910">
        <ele>1351.303</ele>
        <time>2020-02-28T03:53:36Z</time>
      </trkpt>
      <trkpt lat="40.594550" lon="-4.495930">
        <ele>1351.308</ele>
        <time>2020-02-28T03:53:56Z</time>
      </trkpt>
      <trkpt lat="40.594540" lon="-4.495950">
        <ele>1351.445</ele>
        <time>2020-02-28T03:54:16Z</time>
      </trkpt>
      <trkpt lat="40.594530" lon="-4.495960">
        <ele>1351.558</ele>
        <time>2020-02-28T03:54:36Z</time>
      </trkpt>
      <trkpt lat="40.594520" lon="-4.495980">
        <ele>1351.593</ele>
        <time>2020-02-28T03:54:56Z</time>
      </trkpt>
      <trkpt lat="40.594500" lon="-4.495990">
        <ele>1351.694</ele>
        <time>2020-02-28T03:55:16Z</time>
      </trkpt>
      <trkpt lat="40.594490" lon="-4.496000">
        <ele>1351.656</ele>
        <time>2020-02-28T03:55:36Z</time>
      </trkpt>
      <trkpt lat="40.594470" lon="-4.496000">
        <ele>1351.654</ele>
        <time>2020-02-28T03:55:56Z</time>
      </trkpt>
      <trkpt lat="40.594460" lon="-4.496010">
        <ele>1351.627</ele>
        <time>2020-02-28T03:56:16Z</time>
      </trkpt>
      <trkpt lat="40.594440" lon="-4.496010">
        <ele>1351.672</ele>
        <time>2020-02-28T03:56:36Z</time>
      </trkpt>
      <trkpt lat="40.594420" lon="-4.496020">
        <ele>1351.658</ele>
        <time>2020-02-28T03:56:56Z</time>
      </trkpt>
      <trkpt lat="40.594390" lon="-4.496020">
        <ele>1351.452</ele>
        <time>2020-02-28T03:57:16Z</time>
      </trkpt>
      <trkpt lat="40.594370" lon="-4.496010">
        <ele>1351.317</ele>
        <time>2020-02-28T03:57:36Z</time>
      </trkpt>
      <trkpt lat="40.594360" lon="-4.496010">
        <ele>1351.208</ele>
        <time>2020-02-28T03:57:56Z</time>
      </trkpt>
      <trkpt lat="40.594340" lon="-4.496000">
        <ele>1351.179</ele>
        <time>2020-02-28T03:58:16Z</time>
      </trkpt>
      <trkpt lat="40.594330" lon="-4.496000">
        <ele>1351.042</ele>
        <time>2020-02-28T03:58:36Z</time>
      </trkpt>
      <trkpt lat="40.594310" lon="-4.495990">
        <ele>1350.997</ele>
        <time>2020-02-28T03:58:56Z</time>
      </trkpt>
      <trkpt lat="40.594270" lon="-4.495950">
        <ele>1350.438</ele>
        <time>2020-02-28T03:59:16Z</time>
      </trkpt>
      <trkpt lat="40.594260" lon="-4.495930">
        <ele>1350.390</ele>
        <time>2020-02-28T03:59:36Z</time>
      </trkpt>
      <trkpt lat="40.594250" lon="-4.495920">
        <ele>1350.138</ele>
        <time>2020-02-28T03:59:56Z</time>
      </trkpt>
      <trkpt lat="40.594210" lon="-4.495920">
        <ele>1349.961</ele>
        <time>2020-02-28T04:00:16Z</time>
      </trkpt>
      <trkpt lat="40.594180" lon="-4.495910">
        <ele>1349.666</ele>
        <time>2020-02-28T04:00:36Z</time>
      </trkpt>
      <trkpt lat="40.594080" lon="-4.495860">
        <ele>1349.276</ele>
        <time>2020-02-28T04:00:56Z</time>
      </trkpt>
      <trkpt lat="40.593890" lon="-4.495860">
        <ele>1349.290</ele>
        <time>2020-02-28T04:01:16Z</time>
      </trkpt>
      <trkpt lat="40.593510" lon="-4.495950">
        <ele>1350.419</ele>
        <time>2020-02-28T04:01:36Z</time>
      </trkpt>
      <trkpt lat="40.588120" lon="-4.496780">
        <ele>1340.408</ele>
        <time>2020-02-28T04:01:56Z</time>
      </trkpt>
      <trkpt lat="40.588040" lon="-4.496800">
        <ele>1340.581</ele>
        <time>2020-02-28T04:02:16Z</time>
      </trkpt>
      <trkpt lat="40.586610" lon="-4.497000">
        <ele>1337.274</ele>
        <time>2020-02-28T04:02:36Z</time>
      </trkpt>
      <trkpt lat="40.586550" lon="-4.497000">
        <ele>1336.159</ele>
        <time>2020-02-28T04:02:56Z</time>
      </trkpt>
      <trkpt lat="40.586510" lon="-4.497010">
        <ele>1335.480</ele>
        <time>2020-02-28T04:03:16Z</time>
      </trkpt>
      <trkpt lat="40.586420" lon="-4.497010">
        <ele>1333.812</ele>
        <time>2020-02-28T04:03:36Z</time>
      </trkpt>
      <trkpt lat="40.586340" lon="-4.497020">
        <ele>1332.710</ele>
        <time>2020-02-28T04:03:56Z</time>
      </trkpt>
      <trkpt lat="40.586310" lon="-4.497010">
        <ele>1332.453</ele>
        <time>2020-02-28T04:04:16Z</time>
      </trkpt>
      <trkpt lat="40.586190" lon="-4.497010">
        <ele>1331.198</ele>
        <time>2020-02-28T04:04:36Z</time>
      </trkpt>
      <trkpt lat="40.585970" lon="-4.496980">
        <ele>1331.121</ele>
        <time>2020-02-28T04:04:56Z</time>
      </trkpt>
      <trkpt lat="40.585810" lon="-4.496920">
        <ele>1332.641</ele>
        <time>2020-02-28T04:05:16Z</time>
      </trkpt>
      <trkpt lat="40.585480" lon="-4.496760">
        <ele>1339.705</ele>
        <time>2020-02-28T04:05:36Z</time>
      </trkpt>
      <trkpt lat="40.585440" lon="-4.496730">
        <ele>1340.008</ele>
        <time>2020-02-28T04:05:56Z</time>
      </trkpt>
      <trkpt lat="40.585220" lon="-4.496600">
        <ele>1342.336</ele>
        <time>2020-02-28T04:06:16Z</time>
      </trkpt>
      <trkpt lat="40.585120" lon="-4.496560">
        <ele>1343.149</ele>
        <time>2020-02-28T04:06:36Z</time>
      </trkpt>
      <trkpt lat="40.584950" lon="-4.496510">
        <ele>1344.284</ele>
        <time>2020-02-28T04:06:56Z</time>
      </trkpt>
      <trkpt lat="40.584770" lon="-4.496480">
        <ele>1345.375</ele>
        <time>2020-02-28T04:07:16Z</time>
      </trkpt>
      <trkpt lat="40.584580" lon="-4.496480">
        <ele>1346.057</ele>
        <time>2020-02-28T04:07:36Z</time>
      </trkpt>
      <trkpt lat="40.584050" lon="-4.496560">
        <ele>1346.695</ele>
        <time>2020-02-28T04:07:56Z</time>
      </trkpt>
      <trkpt lat="40.583970" lon="-4.496580">
        <ele>1346.788</ele>
        <time>2020-02-28T04:08:16Z</time>
      </trkpt>
      <trkpt lat="40.582610" lon="-4.496810">
        <ele>1337.523</ele>
        <time>2020-02-28T04:08:36Z</time>
      </trkpt>
      <trkpt lat="40.582490" lon="-4.496820">
        <ele>1336.542</ele>
        <time>2020-02-28T04:08:56Z</time>
      </trkpt>
      <trkpt lat="40.582430" lon="-4.496840">
        <ele>1336.422</ele>
        <time>2020-02-28T04:09:16Z</time>
      </trkpt>
      <trkpt lat="40.581360" lon="-4.497020">
        <ele>1338.314</ele>
        <time>2020-02-28T04:09:36Z</time>
      </trkpt>
      <trkpt lat="40.581280" lon="-4.497040">
        <ele>1338.508</ele>
        <time>2020-02-28T04:09:56Z</time>
      </trkpt>
      <trkpt lat="40.581180" lon="-4.497050">
        <ele>1338.738</ele>
        <time>2020-02-28T04:10:16Z</time>
      </trkpt>
      <trkpt lat="40.580570" lon="-4.497160">
        <ele>1346.061</ele>
        <time>2020-02-28T04:10:36Z</time>
      </trkpt>
      <trkpt lat="40.580470" lon="-4.497170">
        <ele>1346.256</ele>
        <time>2020-02-28T04:10:56Z</time>
      </trkpt>
      <trkpt lat="40.579270" lon="-4.497380">
        <ele>1352.737</ele>
        <time>2020-02-28T04:11:16Z</time>
      </trkpt>
      <trkpt lat="40.579220" lon="-4.497380">
        <ele>1352.769</ele>
        <time>2020-02-28T04:11:36Z</time>
      </trkpt>
      <trkpt lat="40.579090" lon="-4.497400">
        <ele>1353.197</ele>
        <time>2020-02-28T04:11:56Z</time>
      </trkpt>
      <trkpt lat="40.579040" lon="-4.497390">
        <ele>1353.170</ele>
        <time>2020-02-28T04:12:16Z</time>
      </trkpt>
      <trkpt lat="40.578910" lon="-4.497390">
        <ele>1353.435</ele>
        <time>2020-02-28T04:12:36Z</time>
      </trkpt>
      <trkpt lat="40.578860" lon="-4.497380">
        <ele>1353.566</ele>
        <time>2020-02-28T04:12:56Z</time>
      </trkpt>
      <trkpt lat="40.578810" lon="-4.497380">
        <ele>1353.829</ele>
        <time>2020-02-28T04:13:16Z</time>
      </trkpt>
      <trkpt lat="40.578620" lon="-4.497320">
        <ele>1354.621</ele>
        <time>2020-02-28T04:13:36Z</time>
      </trkpt>
      <trkpt lat="40.578520" lon="-4.497270">
        <ele>1355.008</ele>
        <time>2020-02-28T04:13:56Z</time>
      </trkpt>
      <trkpt lat="40.578510" lon="-4.497270">
        <ele>1355.110</ele>
        <time>2020-02-28T04:14:16Z</time>
      </trkpt>
      <trkpt lat="40.578280" lon="-4.497160">
        <ele>1356.073</ele>
        <time>2020-02-28T04:14:36Z</time>
      </trkpt>
      <trkpt lat="40.578010" lon="-4.497000">
        <ele>1357.738</ele>
        <time>2020-02-28T04:14:56Z</time>
      </trkpt>
      <trkpt lat="40.577990" lon="-4.496980">
        <ele>1357.879</ele>
        <time>2020-02-28T04:15:16Z</time>
      </trkpt>
      <trkpt lat="40.577600" lon="-4.496770">
        <ele>1361.991</ele>
        <time>2020-02-28T04:15:36Z</time>
      </trkpt>
      <trkpt lat="40.577340" lon="-4.496680">
        <ele>1364.849</ele>
        <time>2020-02-28T04:15:56Z</time>
      </trkpt>
      <trkpt lat="40.576980" lon="-4.496630">
        <ele>1368.512</ele>
        <time>2020-02-28T04:16:16Z</time>
      </trkpt>
      <trkpt lat="40.576610" lon="-4.496630">
        <ele>1368.557</ele>
        <time>2020-02-28T04:16:36Z</time>
      </trkpt>
      <trkpt lat="40.575590" lon="-4.496680">
        <ele>1362.378</ele>
        <time>2020-02-28T04:16:56Z</time>
      </trkpt>
      <trkpt lat="40.574720" lon="-4.496800">
        <ele>1359.533</ele>
        <time>2020-02-28T04:17:16Z</time>
      </trkpt>
      <trkpt lat="40.574650" lon="-4.496820">
        <ele>1359.626</ele>
        <time>2020-02-28T04:17:36Z</time>
      </trkpt>
      <trkpt lat="40.574560" lon="-4.496860">
        <ele>1359.708</ele>
        <time>2020-02-28T04:17:56Z</time>
      </trkpt>
      <trkpt lat="40.574230" lon="-4.497050">
        <ele>1358.961</ele>
        <time>2020-02-28T04:18:16Z</time>
      </trkpt>
      <trkpt lat="40.574060" lon="-4.497180">
        <ele>1358.584</ele>
        <time>2020-02-28T04:18:36Z</time>
      </trkpt>
      <trkpt lat="40.573860" lon="-4.497310">
        <ele>1359.369</ele>
        <time>2020-02-28T04:18:56Z</time>
      </trkpt>
      <trkpt lat="40.573720" lon="-4.497420">
        <ele>1359.970</ele>
        <time>2020-02-28T04:19:16Z</time>
      </trkpt>
      <trkpt lat="40.573590" lon="-4.497560">
        <ele>1360.862</ele>
        <time>2020-02-28T04:19:36Z</time>
      </trkpt>
      <trkpt lat="40.572740" lon="-4.498620">
        <ele>1370.080</ele>
        <time>2020-02-28T04:19:56Z</time>
      </trkpt>
      <trkpt lat="40.572610" lon="-4.498740">
        <ele>1370.063</ele>
        <time>2020-02-28T04:20:16Z</time>
      </trkpt>
      <trkpt lat="40.572540" lon="-4.498780">
        <ele>1370.068</ele>
        <time>2020-02-28T04:20:36Z</time>
      </trkpt>
      <trkpt lat="40.572520" lon="-4.498800">
        <ele>1370.013</ele>
        <time>2020-02-28T04:20:56Z</time>
      </trkpt>
      <trkpt lat="40.572210" lon="-4.498980">
        <ele>1370.043</ele>
        <time>2020-02-28T04:21:16Z</time>
      </trkpt>
      <trkpt lat="40.569460" lon="-4.500300">
        <ele>1365.007</ele>
        <time>2020-02-28T04:21:36Z</time>
      </trkpt>
      <trkpt lat="40.569340" lon="-4.500370">
        <ele>1363.908</ele>
        <time>2020-02-28T04:21:56Z</time>
      </trkpt>
      <trkpt lat="40.546090" lon="-4.511560">
        <ele>1251.565</ele>
        <time>2020-02-28T04:22:16Z</time>
      </trkpt>
      <trkpt lat="40.546010" lon="-4.511590">
        <ele>1251.418</ele>
        <time>2020-02-28T04:22:36Z</time>
      </trkpt>
      <trkpt lat="40.545260" lon="-4.511970">
        <ele>1251.023</ele>
        <time>2020-02-28T04:22:56Z</time>
      </trkpt>
      <trkpt lat="40.544830" lon="-4.512160">
        <ele>1247.624</ele>
        <time>2020-02-28T04:23:16Z</time>
      </trkpt>
      <trkpt lat="40.544630" lon="-4.512270">
        <ele>1246.216</ele>
        <time>2020-02-28T04:23:36Z</time>
      </trkpt>
      <trkpt lat="40.543480" lon="-4.512810">
        <ele>1239.884</ele>
        <time>2020-02-28T04:23:56Z</time>
      </trkpt>
      <trkpt lat="40.543470" lon="-4.512810">
        <ele>1239.787</ele>
        <time>2020-02-28T04:24:16Z</time>
      </trkpt>
      <trkpt lat="40.542900" lon="-4.513100">
        <ele>1238.432</ele>
        <time>2020-02-28T04:24:36Z</time>
      </trkpt>
      <trkpt lat="40.542710" lon="-4.513240">
        <ele>1238.343</ele>
        <time>2020-02-28T04:24:56Z</time>
      </trkpt>
      <trkpt lat="40.542610" lon="-4.513330">
        <ele>1238.264</ele>
        <time>2020-02-28T04:25:16Z</time>
      </trkpt>
      <trkpt lat="40.539440" lon="-4.516710">
        <ele>1213.310</ele>
        <time>2020-02-28T04:25:36Z</time>
      </trkpt>
      <trkpt lat="40.539200" lon="-4.516920">
        <ele>1213.908</ele>
        <time>2020-02-28T04:25:56Z</time>
      </trkpt>
      <trkpt lat="40.539110" lon="-4.516960">
        <ele>1213.948</ele>
        <time>2020-02-28T04:26:16Z</time>
      </trkpt>
      <trkpt lat="40.537560" lon="-4.517450">
        <ele>1211.981</ele>
        <time>2020-02-28T04:26:36Z</time>
      </trkpt>
      <trkpt lat="40.537520" lon="-4.517470">
        <ele>1211.926</ele>
        <time>2020-02-28T04:26:56Z</time>
      </trkpt>
      <trkpt lat="40.536890" lon="-4.517660">
        <ele>1212.457</ele>
        <time>2020-02-28T04:27:16Z</time>
      </trkpt>
      <trkpt lat="40.536870" lon="-4.517660">
        <ele>1212.589</ele>
        <time>2020-02-28T04:27:36Z</time>
      </trkpt>
      <trkpt lat="40.534950" lon="-4.518270">
        <ele>1204.017</ele>
        <time>2020-02-28T04:27:56Z</time>
      </trkpt>
      <trkpt lat="40.534860" lon="-4.518290">
        <ele>1205.180</ele>
        <time>2020-02-28T04:28:16Z</time>
      </trkpt>
      <trkpt lat="40.533390" lon="-4.518750">
        <ele>1212.895</ele>
        <time>2020-02-28T04:28:36Z</time>
      </trkpt>
      <trkpt lat="40.533380" lon="-4.518760">
        <ele>1212.991</ele>
        <time>2020-02-28T04:28:56Z</time>
      </trkpt>
      <trkpt lat="40.530400" lon="-4.519700">
        <ele>1223.881</ele>
        <time>2020-02-28T04:29:16Z</time>
      </trkpt>
      <trkpt lat="40.530380" lon="-4.519710">
        <ele>1223.919</ele>
        <time>2020-02-28T04:29:36Z</time>
      </trkpt>
      <trkpt lat="40.523070" lon="-4.522010">
        <ele>1229.208</ele>
        <time>2020-02-28T04:29:56Z</time>
      </trkpt>
      <trkpt lat="40.523060" lon="-4.522010">
        <ele>1229.273</ele>
        <time>2020-02-28T04:30:16Z</time>
      </trkpt>
      <trkpt lat="40.522710" lon="-4.522110">
        <ele>1230.786</ele>
        <time>2020-02-28T04:30:36Z</time>
      </trkpt>
      <trkpt lat="40.522360" lon="-4.522230">
        <ele>1233.691</ele>
        <time>2020-02-28T04:30:56Z</time>
      </trkpt>
      <trkpt lat="40.522310" lon="-4.522240">
        <ele>1234.172</ele>
        <time>2020-02-28T04:31:16Z</time>
      </trkpt>
      <trkpt lat="40.522010" lon="-4.522360">
        <ele>1236.354</ele>
        <time>2020-02-28T04:31:36Z</time>
      </trkpt>
      <trkpt lat="40.521660" lon="-4.522460">
        <ele>1236.922</ele>
        <time>2020-02-28T04:31:56Z</time>
      </trkpt>
      <trkpt lat="40.521640" lon="-4.522470">
        <ele>1236.975</ele>
        <time>2020-02-28T04:32:16Z</time>
      </trkpt>
      <trkpt lat="40.521310" lon="-4.522560">
        <ele>1237.210</ele>
        <time>2020-02-28T04:32:36Z</time>
      </trkpt>
      <trkpt lat="40.521310" lon="-4.522570">
        <ele>1237.247</ele>
        <time>2020-02-28T04:32:56Z</time>
      </trkpt>
      <trkpt lat="40.519970" lon="-4.522980">
        <ele>1232.429</ele>
        <time>2020-02-28T04:33:16Z</time>
      </trkpt>
      <trkpt lat="40.519840" lon="-4.523030">
        <ele>1232.821</ele>
        <time>2020-02-28T04:33:36Z</time>
      </trkpt>
      <trkpt lat="40.519450" lon="-4.523140">
        <ele>1231.608</ele>
        <time>2020-02-28T04:33:56Z</time>
      </trkpt>
      <trkpt lat="40.519260" lon="-4.523210">
        <ele>1231.148</ele>
        <time>2020-02-28T04:34:16Z</time>
      </trkpt>
      <trkpt lat="40.518230" lon="-4.523520">
        <ele>1229.581</ele>
        <time>2020-02-28T04:34:36Z</time>
      </trkpt>
      <trkpt lat="40.518160" lon="-4.523550">
        <ele>1229.646</ele>
        <time>2020-02-28T04:34:56Z</time>
      </trkpt>
      <trkpt lat="40.516930" lon="-4.523930">
        <ele>1220.947</ele>
        <time>2020-02-28T04:35:16Z</time>
      </trkpt>
      <trkpt lat="40.516830" lon="-4.523970">
        <ele>1220.689</ele>
        <time>2020-02-28T04:35:36Z</time>
      </trkpt>
      <trkpt lat="40.516070" lon="-4.524210">
        <ele>1220.177</ele>
        <time>2020-02-28T04:35:56Z</time>
      </trkpt>
      <trkpt lat="40.515890" lon="-4.524280">
        <ele>1220.820</ele>
        <time>2020-02-28T04:36:16Z</time>
      </trkpt>
      <trkpt lat="40.515870" lon="-4.524560">
        <ele>1220.935</ele>
        <time>2020-02-28T04:36:36Z</time>
      </trkpt>
      <trkpt lat="40.516640" lon="-4.525170">
        <ele>1217.238</ele>
        <time>2020-02-28T04:36:56Z</time>
      </trkpt>
      <trkpt lat="40.517010" lon="-4.525440">
        <ele>1214.070</ele>
        <time>2020-02-28T04:37:16Z</time>
      </trkpt>
      <trkpt lat="40.517120" lon="-4.525500">
        <ele>1213.617</ele>
        <time>2020-02-28T04:37:36Z</time>
      </trkpt>
      <trkpt lat="40.517320" lon="-4.525590">
        <ele>1212.308</ele>
        <time>2020-02-28T04:37:56Z</time>
      </trkpt>
      <trkpt lat="40.517680" lon="-4.525700">
        <ele>1210.297</ele>
        <time>2020-02-28T04:38:16Z</time>
      </trkpt>
      <trkpt lat="40.518170" lon="-4.525810">
        <ele>1208.910</ele>
        <time>2020-02-28T04:38:36Z</time>
      </trkpt>
      <trkpt lat="40.518240" lon="-4.525840">
        <ele>1208.675</ele>
        <time>2020-02-28T04:38:56Z</time>
      </trkpt>
      <trkpt lat="40.518310" lon="-4.525880">
        <ele>1208.466</ele>
        <time>2020-02-28T04:39:16Z</time>
      </trkpt>
      <trkpt lat="40.518350" lon="-4.525920">
        <ele>1208.688</ele>
        <time>2020-02-28T04:39:36Z</time>
      </trkpt>
      <trkpt lat="40.518390" lon="-4.525990">
        <ele>1209.166</ele>
        <time>2020-02-28T04:39:56Z</time>
      </trkpt>
      <trkpt lat="40.518430" lon="-4.526140">
        <ele>1208.829</ele>
        <time>2020-02-28T04:40:16Z</time>
      </trkpt>
      <trkpt lat="40.518440" lon="-4.526250">
        <ele>1207.674</ele>
        <time>2020-02-28T04:40:36Z</time>
      </trkpt>
      <trkpt lat="40.518430" lon="-4.526710">
        <ele>1202.752</ele>
        <time>2020-02-28T04:40:56Z</time>
      </trkpt>
      <trkpt lat="40.518480" lon="-4.526970">
        <ele>1200.353</ele>
        <time>2020-02-28T04:41:16Z</time>
      </trkpt>
      <trkpt lat="40.518550" lon="-4.527120">
        <ele>1200.308</ele>
        <time>2020-02-28T04:41:36Z</time>
      </trkpt>
      <trkpt lat="40.518700" lon="-4.527390">
        <ele>1198.008</ele>
        <time>2020-02-28T04:41:56Z</time>
      </trkpt>
      <trkpt lat="40.518810" lon="-4.527530">
        <ele>1195.429</ele>
        <time>2020-02-28T04:42:16Z</time>
      </trkpt>
      <trkpt lat="40.518880" lon="-4.527590">
        <ele>1195.252</ele>
        <time>2020-02-28T04:42:36Z</time>
      </trkpt>
      <trkpt lat="40.518960" lon="-4.527640">
        <ele>1195.557</ele>
        <time>2020-02-28T04:42:56Z</time>
      </trkpt>
      <trkpt lat="40.519020" lon="-4.527690">
        <ele>1195.058</ele>
        <time>2020-02-28T04:43:16Z</time>
      </trkpt>
      <trkpt lat="40.519090" lon="-4.527730">
        <ele>1194.820</ele>
        <time>2020-02-28T04:43:36Z</time>
      </trkpt>
      <trkpt lat="40.519270" lon="-4.527810">
        <ele>1195.228</ele>
        <time>2020-02-28T04:43:56Z</time>
      </trkpt>
      <trkpt lat="40.519310" lon="-4.527850">
        <ele>1195.051</ele>
        <time>2020-02-28T04:44:16Z</time>
      </trkpt>
      <trkpt lat="40.519350" lon="-4.527880">
        <ele>1195.386</ele>
        <time>2020-02-28T04:44:36Z</time>
      </trkpt>
      <trkpt lat="40.519530" lon="-4.528230">
        <ele>1192.155</ele>
        <time>2020-02-28T04:44:56Z</time>
      </trkpt>
      <trkpt lat="40.519630" lon="-4.528520">
        <ele>1189.207</ele>
        <time>2020-02-28T04:45:16Z</time>
      </trkpt>
      <trkpt lat="40.519710" lon="-4.528690">
        <ele>1189.417</ele>
        <time>2020-02-28T04:45:36Z</time>
      </trkpt>
      <trkpt lat="40.519900" lon="-4.529010">
        <ele>1186.108</ele>
        <time>2020-02-28T04:45:56Z</time>
      </trkpt>
      <trkpt lat="40.520050" lon="-4.529170">
        <ele>1183.669</ele>
        <time>2020-02-28T04:46:16Z</time>
      </trkpt>
      <trkpt lat="40.520110" lon="-4.529210">
        <ele>1183.062</ele>
        <time>2020-02-28T04:46:36Z</time>
      </trkpt>
      <trkpt lat="40.521070" lon="-4.529570">
        <ele>1177.367</ele>
        <time>2020-02-28T04:46:56Z</time>
      </trkpt>
      <trkpt lat="40.521350" lon="-4.529630">
        <ele>1175.938</ele>
        <time>2020-02-28T04:47:16Z</time>
      </trkpt>
      <trkpt lat="40.521470" lon="-4.529630">
        <ele>1175.230</ele>
        <time>2020-02-28T04:47:36Z</time>
      </trkpt>
      <trkpt lat="40.521580" lon="-4.529620">
        <ele>1174.418</ele>
        <time>2020-02-28T04:47:56Z</time>
      </trkpt>
      <trkpt lat="40.521650" lon="-4.529600">
        <ele>1174.351</ele>
        <time>2020-02-28T04:48:16Z</time>
      </trkpt>
      <trkpt lat="40.521940" lon="-4.529480">
        <ele>1172.946</ele>
        <time>2020-02-28T04:48:36Z</time>
      </trkpt>
      <trkpt lat="40.522040" lon="-4.529450">
        <ele>1172.491</ele>
        <time>2020-02-28T04:48:56Z</time>
      </trkpt>
      <trkpt lat="40.522160" lon="-4.529470">
        <ele>1169.981</ele>
        <time>2020-02-28T04:49:16Z</time>
      </trkpt>
      <trkpt lat="40.522200" lon="-4.529490">
        <ele>1168.519</ele>
        <time>2020-02-28T04:49:36Z</time>
      </trkpt>
      <trkpt lat="40.522270" lon="-4.529540">
        <ele>1167.608</ele>
        <time>2020-02-28T04:49:56Z</time>
      </trkpt>
      <trkpt lat="40.522620" lon="-4.529930">
        <ele>1165.133</ele>
        <time>2020-02-28T04:50:16Z</time>
      </trkpt>
      <trkpt lat="40.522810" lon="-4.530100">
        <ele>1162.976</ele>
        <time>2020-02-28T04:50:36Z</time>
      </trkpt>
      <trkpt lat="40.522910" lon="-4.530160">
        <ele>1162.441</ele>
        <time>2020-02-28T04:50:56Z</time>
      </trkpt>
      <trkpt lat="40.523120" lon="-4.530260">
        <ele>1161.512</ele>
        <time>2020-02-28T04:51:16Z</time>
      </trkpt>
      <trkpt lat="40.523240" lon="-4.530280">
        <ele>1160.994</ele>
        <time>2020-02-28T04:51:36Z</time>
      </trkpt>
      <trkpt lat="40.523340" lon="-4.530250">
        <ele>1161.692</ele>
        <time>2020-02-28T04:51:56Z</time>
      </trkpt>
      <trkpt lat="40.523420" lon="-4.530210">
        <ele>1161.055</ele>
        <time>2020-02-28T04:52:16Z</time>
      </trkpt>
      <trkpt lat="40.523500" lon="-4.530150">
        <ele>1160.750</ele>
        <time>2020-02-28T04:52:36Z</time>
      </trkpt>
      <trkpt lat="40.523950" lon="-4.529590">
        <ele>1158.921</ele>
        <time>2020-02-28T04:52:56Z</time>
      </trkpt>
      <trkpt lat="40.524090" lon="-4.529440">
        <ele>1155.441</ele>
        <time>2020-02-28T04:53:16Z</time>
      </trkpt>
      <trkpt lat="40.524120" lon="-4.529420">
        <ele>1154.705</ele>
        <time>2020-02-28T04:53:36Z</time>
      </trkpt>
      <trkpt lat="40.524190" lon="-4.529400">
        <ele>1153.608</ele>
        <time>2020-02-28T04:53:56Z</time>
      </trkpt>
      <trkpt lat="40.524260" lon="-4.529400">
        <ele>1154.626</ele>
        <time>2020-02-28T04:54:16Z</time>
      </trkpt>
      <trkpt lat="40.524320" lon="-4.529430">
        <ele>1154.649</ele>
        <time>2020-02-28T04:54:36Z</time>
      </trkpt>
      <trkpt lat="40.524550" lon="-4.529670">
        <ele>1151.974</ele>
        <time>2020-02-28T04:54:56Z</time>
      </trkpt>
      <trkpt lat="40.524630" lon="-4.529720">
        <ele>1151.755</ele>
        <time>2020-02-28T04:55:16Z</time>
      </trkpt>
      <trkpt lat="40.524730" lon="-4.529770">
        <ele>1151.397</ele>
        <time>2020-02-28T04:55:36Z</time>
      </trkpt>
      <trkpt lat="40.525130" lon="-4.529900">
        <ele>1146.885</ele>
        <time>2020-02-28T04:55:56Z</time>
      </trkpt>
      <trkpt lat="40.525220" lon="-4.529920">
        <ele>1145.598</ele>
        <time>2020-02-28T04:56:16Z</time>
      </trkpt>
      <trkpt lat="40.525380" lon="-4.529940">
        <ele>1143.893</ele>
        <time>2020-02-28T04:56:36Z</time>
      </trkpt>
      <trkpt lat="40.525430" lon="-4.529930">
        <ele>1144.046</ele>
        <time>2020-02-28T04:56:56Z</time>
      </trkpt>
      <trkpt lat="40.525530" lon="-4.529930">
        <ele>1143.488</ele>
        <time>2020-02-28T04:57:16Z</time>
      </trkpt>
      <trkpt lat="40.525920" lon="-4.529850">
        <ele>1140.916</ele>
        <time>2020-02-28T04:57:36Z</time>
      </trkpt>
      <trkpt lat="40.526170" lon="-4.529780">
        <ele>1140.708</ele>
        <time>2020-02-28T04:57:56Z</time>
      </trkpt>
      <trkpt lat="40.526320" lon="-4.529780">
        <ele>1138.828</ele>
        <time>2020-02-28T04:58:16Z</time>
      </trkpt>
      <trkpt lat="40.526410" lon="-4.529800">
        <ele>1137.261</ele>
        <time>2020-02-28T04:58:36Z</time>
      </trkpt>
      <trkpt lat="40.526540" lon="-4.529850">
        <ele>1135.786</ele>
        <time>2020-02-28T04:58:56Z</time>
      </trkpt>
      <trkpt lat="40.526660" lon="-4.529920">
        <ele>1133.647</ele>
        <time>2020-02-28T04:59:16Z</time>
      </trkpt>
      <trkpt lat="40.526750" lon="-4.529960">
        <ele>1134.299</ele>
        <time>2020-02-28T04:59:36Z</time>
      </trkpt>
      <trkpt lat="40.526930" lon="-4.530070">
        <ele>1136.117</ele>
        <time>2020-02-28T04:59:56Z</time>
      </trkpt>
      <trkpt lat="40.526970" lon="-4.530110">
        <ele>1137.120</ele>
        <time>2020-02-28T05:00:16Z</time>
      </trkpt>
      <trkpt lat="40.527000" lon="-4.530180">
        <ele>1137.645</ele>
        <time>2020-02-28T05:00:36Z</time>
      </trkpt>
      <trkpt lat="40.527010" lon="-4.530220">
        <ele>1137.655</ele>
        <time>2020-02-28T05:00:56Z</time>
      </trkpt>
      <trkpt lat="40.527010" lon="-4.530340">
        <ele>1136.507</ele>
        <time>2020-02-28T05:01:16Z</time>
      </trkpt>
      <trkpt lat="40.526990" lon="-4.530460">
        <ele>1134.517</ele>
        <time>2020-02-28T05:01:36Z</time>
      </trkpt>
      <trkpt lat="40.526990" lon="-4.530690">
        <ele>1131.908</ele>
        <time>2020-02-28T05:01:56Z</time>
      </trkpt>
      <trkpt lat="40.527060" lon="-4.530910">
        <ele>1130.169</ele>
        <time>2020-02-28T05:02:16Z</time>
      </trkpt>
      <trkpt lat="40.527320" lon="-4.531430">
        <ele>1125.492</ele>
        <time>2020-02-28T05:02:36Z</time>
      </trkpt>
      <trkpt lat="40.527420" lon="-4.531600">
        <ele>1124.527</ele>
        <time>2020-02-28T05:02:56Z</time>
      </trkpt>
      <trkpt lat="40.527510" lon="-4.531730">
        <ele>1123.748</ele>
        <time>2020-02-28T05:03:16Z</time>
      </trkpt>
      <trkpt lat="40.527570" lon="-4.531790">
        <ele>1123.280</ele>
        <time>2020-02-28T05:03:36Z</time>
      </trkpt>
      <trkpt lat="40.527610" lon="-4.531810">
        <ele>1123.338</ele>
        <time>2020-02-28T05:03:56Z</time>
      </trkpt>
      <trkpt lat="40.527740" lon="-4.531850">
        <ele>1124.281</ele>
        <time>2020-02-28T05:04:16Z</time>
      </trkpt>
      <trkpt lat="40.527850" lon="-4.531870">
        <ele>1124.336</ele>
        <time>2020-02-28T05:04:36Z</time>
      </trkpt>
      <trkpt lat="40.527950" lon="-4.531920">
        <ele>1123.482</ele>
        <time>2020-02-28T05:04:56Z</time>
      </trkpt>
      <trkpt lat="40.527990" lon="-4.531950">
        <ele>1122.943</ele>
        <time>2020-02-28T05:05:16Z</time>
      </trkpt>
      <trkpt lat="40.528080" lon="-4.532070">
        <ele>1120.517</ele>
        <time>2020-02-28T05:05:36Z</time>
      </trkpt>
      <trkpt lat="40.528140" lon="-4.532130">
        <ele>1120.008</ele>
        <time>2020-02-28T05:05:56Z</time>
      </trkpt>
      <trkpt lat="40.528260" lon="-4.532210">
        <ele>1120.112</ele>
        <time>2020-02-28T05:06:16Z</time>
      </trkpt>
      <trkpt lat="40.528300" lon="-4.532220">
        <ele>1120.645</ele>
        <time>2020-02-28T05:06:36Z</time>
      </trkpt>
      <trkpt lat="40.528340" lon="-4.532220">
        <ele>1120.910</ele>
        <time>2020-02-28T05:06:56Z</time>
      </trkpt>
      <trkpt lat="40.528900" lon="-4.532120">
        <ele>1116.191</ele>
        <time>2020-02-28T05:07:16Z</time>
      </trkpt>
      <trkpt lat="40.529030" lon="-4.532140">
        <ele>1115.513</ele>
        <time>2020-02-28T05:07:36Z</time>
      </trkpt>
      <trkpt lat="40.529120" lon="-4.532200">
        <ele>1114.581</ele>
        <time>2020-02-28T05:07:56Z</time>
      </trkpt>
      <trkpt lat="40.529450" lon="-4.532600">
        <ele>1110.984</ele>
        <time>2020-02-28T05:08:16Z</time>
      </trkpt>
      <trkpt lat="40.529630" lon="-4.532760">
        <ele>1109.439</ele>
        <time>2020-02-28T05:08:36Z</time>
      </trkpt>
      <trkpt lat="40.529880" lon="-4.533040">
        <ele>1108.224</ele>
        <time>2020-02-28T05:08:56Z</time>
      </trkpt>
      <trkpt lat="40.530060" lon="-4.533340">
        <ele>1107.004</ele>
        <time>2020-02-28T05:09:16Z</time>
      </trkpt>
      <trkpt lat="40.530270" lon="-4.533780">
        <ele>1105.014</ele>
        <time>2020-02-28T05:09:36Z</time>
      </trkpt>
      <trkpt lat="40.530300" lon="-4.533880">
        <ele>1104.908</ele>
        <time>2020-02-28T05:09:56Z</time>
      </trkpt>
      <trkpt lat="40.530330" lon="-4.534130">
        <ele>1104.146</ele>
        <time>2020-02-28T05:10:16Z</time>
      </trkpt>
      <trkpt lat="40.530280" lon="-4.535140">
        <ele>1097.519</ele>
        <time>2020-02-28T05:10:36Z</time>
      </trkpt>
      <trkpt lat="40.530300" lon="-4.535420">
        <ele>1095.054</ele>
        <time>2020-02-28T05:10:56Z</time>
      </trkpt>
      <trkpt lat="40.530370" lon="-4.535860">
        <ele>1092.385</ele>
        <time>2020-02-28T05:11:16Z</time>
      </trkpt>
      <trkpt lat="40.530470" lon="-4.536110">
        <ele>1090.177</ele>
        <time>2020-02-28T05:11:36Z</time>
      </trkpt>
      <trkpt lat="40.530620" lon="-4.536380">
        <ele>1090.755</ele>
        <time>2020-02-28T05:11:56Z</time>
      </trkpt>
      <trkpt lat="40.530640" lon="-4.536440">
        <ele>1090.958</ele>
        <time>2020-02-28T05:12:16Z</time>
      </trkpt>
      <trkpt lat="40.530660" lon="-4.536480">
        <ele>1091.323</ele>
        <time>2020-02-28T05:12:36Z</time>
      </trkpt>
      <trkpt lat="40.530670" lon="-4.536530">
        <ele>1091.434</ele>
        <time>2020-02-28T05:12:56Z</time>
      </trkpt>
      <trkpt lat="40.530670" lon="-4.536650">
        <ele>1091.055</ele>
        <time>2020-02-28T05:13:16Z</time>
      </trkpt>
      <trkpt lat="40.530660" lon="-4.536760">
        <ele>1090.310</ele>
        <time>2020-02-28T05:13:36Z</time>
      </trkpt>
      <trkpt lat="40.530600" lon="-4.537020">
        <ele>1085.808</ele>
        <time>2020-02-28T05:13:56Z</time>
      </trkpt>
      <trkpt lat="40.530590" lon="-4.537260">
        <ele>1083.127</ele>
        <time>2020-02-28T05:14:16Z</time>
      </trkpt>
      <trkpt lat="40.530630" lon="-4.537460">
        <ele>1082.630</ele>
        <time>2020-02-28T05:14:36Z</time>
      </trkpt>
      <trkpt lat="40.530720" lon="-4.537690">
        <ele>1080.135</ele>
        <time>2020-02-28T05:14:56Z</time>
      </trkpt>
      <trkpt lat="40.530780" lon="-4.537810">
        <ele>1078.256</ele>
        <time>2020-02-28T05:15:16Z</time>
      </trkpt>
      <trkpt lat="40.530820" lon="-4.537870">
        <ele>1077.278</ele>
        <time>2020-02-28T05:15:36Z</time>
      </trkpt>
      <trkpt lat="40.530860" lon="-4.537910">
        <ele>1076.696</ele>
        <time>2020-02-28T05:15:56Z</time>
      </trkpt>
      <trkpt lat="40.530900" lon="-4.537940">
        <ele>1076.269</ele>
        <time>2020-02-28T05:16:16Z</time>
      </trkpt>
      <trkpt lat="40.531200" lon="-4.538070">
        <ele>1076.574</ele>
        <time>2020-02-28T05:16:36Z</time>
      </trkpt>
      <trkpt lat="40.531240" lon="-4.538080">
        <ele>1077.238</ele>
        <time>2020-02-28T05:16:56Z</time>
      </trkpt>
      <trkpt lat="40.531350" lon="-4.538150">
        <ele>1078.070</ele>
        <time>2020-02-28T05:17:16Z</time>
      </trkpt>
      <trkpt lat="40.531440" lon="-4.538250">
        <ele>1078.217</ele>
        <time>2020-02-28T05:17:36Z</time>
      </trkpt>
      <trkpt lat="40.531640" lon="-4.538580">
        <ele>1076.008</ele>
        <time>2020-02-28T05:17:56Z</time>
      </trkpt>
      <trkpt lat="40.531900" lon="-4.538950">
        <ele>1073.367</ele>
        <time>2020-02-28T05:18:16Z</time>
      </trkpt>
      <trkpt lat="40.531920" lon="-4.538990">
        <ele>1073.140</ele>
        <time>2020-02-28T05:18:36Z</time>
      </trkpt>
      <trkpt lat="40.531960" lon="-4.539140">
        <ele>1071.765</ele>
        <time>2020-02-28T05:18:56Z</time>
      </trkpt>
      <trkpt lat="40.531970" lon="-4.539240">
        <ele>1070.176</ele>
        <time>2020-02-28T05:19:16Z</time>
      </trkpt>
      <trkpt lat="40.532010" lon="-4.539400">
        <ele>1068.038</ele>
        <time>2020-02-28T05:19:36Z</time>
      </trkpt>
      <trkpt lat="40.532070" lon="-4.539510">
        <ele>1066.886</ele>
        <time>2020-02-28T05:19:56Z</time>
      </trkpt>
      <trkpt lat="40.532920" lon="-4.540410">
        <ele>1053.239</ele>
        <time>2020-02-28T05:20:16Z</time>
      </trkpt>
      <trkpt lat="40.533100" lon="-4.540570">
        <ele>1051.634</ele>
        <time>2020-02-28T05:20:36Z</time>
      </trkpt>
      <trkpt lat="40.533160" lon="-4.540610">
        <ele>1051.649</ele>
        <time>2020-02-28T05:20:56Z</time>
      </trkpt>
      <trkpt lat="40.533190" lon="-4.540610">
        <ele>1052.302</ele>
        <time>2020-02-28T05:21:16Z</time>
      </trkpt>
      <trkpt lat="40.533220" lon="-4.540620">
        <ele>1052.722</ele>
        <time>2020-02-28T05:21:36Z</time>
      </trkpt>
      <trkpt lat="40.533280" lon="-4.540620">
        <ele>1054.108</ele>
        <time>2020-02-28T05:21:56Z</time>
      </trkpt>
      <trkpt lat="40.533320" lon="-4.540600">
        <ele>1055.918</ele>
        <time>2020-02-28T05:22:16Z</time>
      </trkpt>
      <trkpt lat="40.533360" lon="-4.540570">
        <ele>1056.591</ele>
        <time>2020-02-28T05:22:36Z</time>
      </trkpt>
      <trkpt lat="40.533500" lon="-4.540360">
        <ele>1056.526</ele>
        <time>2020-02-28T05:22:56Z</time>
      </trkpt>
      <trkpt lat="40.533540" lon="-4.540270">
        <ele>1056.297</ele>
        <time>2020-02-28T05:23:16Z</time>
      </trkpt>
      <trkpt lat="40.533670" lon="-4.539880">
        <ele>1054.789</ele>
        <time>2020-02-28T05:23:36Z</time>
      </trkpt>
      <trkpt lat="40.533670" lon="-4.539870">
        <ele>1054.877</ele>
        <time>2020-02-28T05:23:56Z</time>
      </trkpt>
      <trkpt lat="40.533740" lon="-4.539720">
        <ele>1054.870</ele>
        <time>2020-02-28T05:24:16Z</time>
      </trkpt>
      <trkpt lat="40.533780" lon="-4.539670">
        <ele>1054.235</ele>
        <time>2020-02-28T05:24:36Z</time>
      </trkpt>
      <trkpt lat="40.533820" lon="-4.539650">
        <ele>1053.432</ele>
        <time>2020-02-28T05:24:56Z</time>
      </trkpt>
      <trkpt lat="40.533890" lon="-4.539630">
        <ele>1052.092</ele>
        <time>2020-02-28T05:25:16Z</time>
      </trkpt>
      <trkpt lat="40.533920" lon="-4.539630">
        <ele>1052.511</ele>
        <time>2020-02-28T05:25:36Z</time>
      </trkpt>
      <trkpt lat="40.533950" lon="-4.539640">
        <ele>1052.908</ele>
        <time>2020-02-28T05:25:56Z</time>
      </trkpt>
      <trkpt lat="40.534000" lon="-4.539670">
        <ele>1053.367</ele>
        <time>2020-02-28T05:26:16Z</time>
      </trkpt>
      <trkpt lat="40.534030" lon="-4.539700">
        <ele>1053.490</ele>
        <time>2020-02-28T05:26:36Z</time>
      </trkpt>
      <trkpt lat="40.534110" lon="-4.539840">
        <ele>1052.235</ele>
        <time>2020-02-28T05:26:56Z</time>
      </trkpt>
      <trkpt lat="40.534250" lon="-4.540240">
        <ele>1050.166</ele>
        <time>2020-02-28T05:27:16Z</time>
      </trkpt>
      <trkpt lat="40.534320" lon="-4.540400">
        <ele>1050.448</ele>
        <time>2020-02-28T05:27:36Z</time>
      </trkpt>
      <trkpt lat="40.534510" lon="-4.541010">
        <ele>1049.016</ele>
        <time>2020-02-28T05:27:56Z</time>
      </trkpt>
      <trkpt lat="40.534550" lon="-4.541190">
        <ele>1048.359</ele>
        <time>2020-02-28T05:28:16Z</time>
      </trkpt>
      <trkpt lat="40.534620" lon="-4.541670">
        <ele>1047.214</ele>
        <time>2020-02-28T05:28:36Z</time>
      </trkpt>
      <trkpt lat="40.534830" lon="-4.542500">
        <ele>1049.987</ele>
        <time>2020-02-28T05:28:56Z</time>
      </trkpt>
      <trkpt lat="40.534840" lon="-4.542630">
        <ele>1049.542</ele>
        <time>2020-02-28T05:29:16Z</time>
      </trkpt>
      <trkpt lat="40.534830" lon="-4.542980">
        <ele>1047.326</ele>
        <time>2020-02-28T05:29:36Z</time>
      </trkpt>
      <trkpt lat="40.534850" lon="-4.543200">
        <ele>1046.808</ele>
        <time>2020-02-28T05:29:56Z</time>
      </trkpt>
      <trkpt lat="40.534860" lon="-4.543210">
        <ele>1047.132</ele>
        <time>2020-02-28T05:30:16Z</time>
      </trkpt>
      <trkpt lat="40.534890" lon="-4.543340">
        <ele>1047.365</ele>
        <time>2020-02-28T05:30:36Z</time>
      </trkpt>
      <trkpt lat="40.534930" lon="-4.543420">
        <ele>1047.420</ele>
        <time>2020-02-28T05:30:56Z</time>
      </trkpt>
      <trkpt lat="40.534940" lon="-4.543430">
        <ele>1047.591</ele>
        <time>2020-02-28T05:31:16Z</time>
      </trkpt>
      <trkpt lat="40.535310" lon="-4.544070">
        <ele>1043.673</ele>
        <time>2020-02-28T05:31:36Z</time>
      </trkpt>
      <trkpt lat="40.535670" lon="-4.544640">
        <ele>1040.011</ele>
        <time>2020-02-28T05:31:56Z</time>
      </trkpt>
      <trkpt lat="40.536150" lon="-4.545220">
        <ele>1036.654</ele>
        <time>2020-02-28T05:32:16Z</time>
      </trkpt>
      <trkpt lat="40.536210" lon="-4.545280">
        <ele>1036.059</ele>
        <time>2020-02-28T05:32:36Z</time>
      </trkpt>
      <trkpt lat="40.536240" lon="-4.545300">
        <ele>1035.894</ele>
        <time>2020-02-28T05:32:56Z</time>
      </trkpt>
      <trkpt lat="40.536290" lon="-4.545300">
        <ele>1036.457</ele>
        <time>2020-02-28T05:33:16Z</time>
      </trkpt>
      <trkpt lat="40.536320" lon="-4.545290">
        <ele>1037.022</ele>
        <time>2020-02-28T05:33:36Z</time>
      </trkpt>
      <trkpt lat="40.536390" lon="-4.545240">
        <ele>1038.408</ele>
        <time>2020-02-28T05:33:56Z</time>
      </trkpt>
      <trkpt lat="40.537000" lon="-4.544210">
        <ele>1034.133</ele>
        <time>2020-02-28T05:34:16Z</time>
      </trkpt>
      <trkpt lat="40.537000" lon="-4.544190">
        <ele>1034.236</ele>
        <time>2020-02-28T05:34:36Z</time>
      </trkpt>
      <trkpt lat="40.537060" lon="-4.544070">
        <ele>1034.111</ele>
        <time>2020-02-28T05:34:56Z</time>
      </trkpt>
      <trkpt lat="40.537100" lon="-4.543960">
        <ele>1034.132</ele>
        <time>2020-02-28T05:35:16Z</time>
      </trkpt>
      <trkpt lat="40.537120" lon="-4.543840">
        <ele>1034.154</ele>
        <time>2020-02-28T05:35:36Z</time>
      </trkpt>
      <trkpt lat="40.537120" lon="-4.543740">
        <ele>1034.022</ele>
        <time>2020-02-28T05:35:56Z</time>
      </trkpt>
      <trkpt lat="40.537090" lon="-4.543510">
        <ele>1034.055</ele>
        <time>2020-02-28T05:36:16Z</time>
      </trkpt>
      <trkpt lat="40.536940" lon="-4.542840">
        <ele>1033.540</ele>
        <time>2020-02-28T05:36:36Z</time>
      </trkpt>
      <trkpt lat="40.536930" lon="-4.542750">
        <ele>1033.128</ele>
        <time>2020-02-28T05:36:56Z</time>
      </trkpt>
      <trkpt lat="40.536930" lon="-4.542600">
        <ele>1032.089</ele>
        <time>2020-02-28T05:37:16Z</time>
      </trkpt>
      <trkpt lat="40.536950" lon="-4.542480">
        <ele>1030.817</ele>
        <time>2020-02-28T05:37:36Z</time>
      </trkpt>
      <trkpt lat="40.536990" lon="-4.542390">
        <ele>1029.908</ele>
        <time>2020-02-28T05:37:56Z</time>
      </trkpt>
      <trkpt lat="40.537080" lon="-4.542240">
        <ele>1028.516</ele>
        <time>2020-02-28T05:38:16Z</time>
      </trkpt>
      <trkpt lat="40.537140" lon="-4.542180">
        <ele>1027.719</ele>
        <time>2020-02-28T05:38:36Z</time>
      </trkpt>
      <trkpt lat="40.537480" lon="-4.541900">
        <ele>1024.824</ele>
        <time>2020-02-28T05:38:56Z</time>
      </trkpt>
      <trkpt lat="40.537520" lon="-4.541850">
        <ele>1024.845</ele>
        <time>2020-02-28T05:39:16Z</time>
      </trkpt>
      <trkpt lat="40.537550" lon="-4.541800">
        <ele>1024.997</ele>
        <time>2020-02-28T05:39:36Z</time>
      </trkpt>
      <trkpt lat="40.537560" lon="-4.541800">
        <ele>1024.825</ele>
        <time>2020-02-28T05:39:56Z</time>
      </trkpt>
      <trkpt lat="40.537600" lon="-4.541720">
        <ele>1025.138</ele>
        <time>2020-02-28T05:40:16Z</time>
      </trkpt>
      <trkpt lat="40.537630" lon="-4.541640">
        <ele>1025.373</ele>
        <time>2020-02-28T05:40:36Z</time>
      </trkpt>
      <trkpt lat="40.537640" lon="-4.541590">
        <ele>1025.524</ele>
        <time>2020-02-28T05:40:56Z</time>
      </trkpt>
      <trkpt lat="40.537670" lon="-4.541510">
        <ele>1025.704</ele>
        <time>2020-02-28T05:41:16Z</time>
      </trkpt>
      <trkpt lat="40.537810" lon="-4.540870">
        <ele>1024.314</ele>
        <time>2020-02-28T05:41:36Z</time>
      </trkpt>
      <trkpt lat="40.537950" lon="-4.540490">
        <ele>1021.708</ele>
        <time>2020-02-28T05:41:56Z</time>
      </trkpt>
      <trkpt lat="40.538030" lon="-4.540350">
        <ele>1021.056</ele>
        <time>2020-02-28T05:42:16Z</time>
      </trkpt>
      <trkpt lat="40.538050" lon="-4.540300">
        <ele>1021.079</ele>
        <time>2020-02-28T05:42:36Z</time>
      </trkpt>
      <trkpt lat="40.538570" lon="-4.539410">
        <ele>1015.734</ele>
        <time>2020-02-28T05:42:56Z</time>
      </trkpt>
      <trkpt lat="40.538570" lon="-4.539400">
        <ele>1015.815</ele>
        <time>2020-02-28T05:43:16Z</time>
      </trkpt>
      <trkpt lat="40.538660" lon="-4.539280">
        <ele>1015.197</ele>
        <time>2020-02-28T05:43:36Z</time>
      </trkpt>
      <trkpt lat="40.538710" lon="-4.539230">
        <ele>1014.975</ele>
        <time>2020-02-28T05:43:56Z</time>
      </trkpt>
      <trkpt lat="40.538760" lon="-4.539200">
        <ele>1014.738</ele>
        <time>2020-02-28T05:44:16Z</time>
      </trkpt>
      <trkpt lat="40.538860" lon="-4.539170">
        <ele>1014.273</ele>
        <time>2020-02-28T05:44:36Z</time>
      </trkpt>
      <trkpt lat="40.538920" lon="-4.539160">
        <ele>1014.486</ele>
        <time>2020-02-28T05:44:56Z</time>
      </trkpt>
      <trkpt lat="40.538960" lon="-4.539160">
        <ele>1014.860</ele>
        <time>2020-02-28T05:45:16Z</time>
      </trkpt>
      <trkpt lat="40.539070" lon="-4.539190">
        <ele>1015.826</ele>
        <time>2020-02-28T05:45:36Z</time>
      </trkpt>
      <trkpt lat="40.539170" lon="-4.539280">
        <ele>1016.208</ele>
        <time>2020-02-28T05:45:56Z</time>
      </trkpt>
      <trkpt lat="40.539300" lon="-4.539430">
        <ele>1016.162</ele>
        <time>2020-02-28T05:46:16Z</time>
      </trkpt>
      <trkpt lat="40.539410" lon="-4.539610">
        <ele>1015.655</ele>
        <time>2020-02-28T05:46:36Z</time>
      </trkpt>
      <trkpt lat="40.539570" lon="-4.540100">
        <ele>1015.650</ele>
        <time>2020-02-28T05:46:56Z</time>
      </trkpt>
      <trkpt lat="40.539610" lon="-4.540180">
        <ele>1016.121</ele>
        <time>2020-02-28T05:47:16Z</time>
      </trkpt>
      <trkpt lat="40.539610" lon="-4.540190">
        <ele>1016.113</ele>
        <time>2020-02-28T05:47:36Z</time>
      </trkpt>
      <trkpt lat="40.539720" lon="-4.540350">
        <ele>1017.221</ele>
        <time>2020-02-28T05:47:56Z</time>
      </trkpt>
      <trkpt lat="40.540350" lon="-4.541070">
        <ele>1015.564</ele>
        <time>2020-02-28T05:48:16Z</time>
      </trkpt>
      <trkpt lat="40.540500" lon="-4.541200">
        <ele>1016.059</ele>
        <time>2020-02-28T05:48:36Z</time>
      </trkpt>
      <trkpt lat="40.540550" lon="-4.541220">
        <ele>1016.425</ele>
        <time>2020-02-28T05:48:56Z</time>
      </trkpt>
      <trkpt lat="40.540580" lon="-4.541220">
        <ele>1016.526</ele>
        <time>2020-02-28T05:49:16Z</time>
      </trkpt>
      <trkpt lat="40.540620" lon="-4.541230">
        <ele>1016.408</ele>
        <time>2020-02-28T05:49:36Z</time>
      </trkpt>
      <trkpt lat="40.540660" lon="-4.541230">
        <ele>1016.408</ele>
        <time>2020-02-28T05:49:56Z</time>
      </trkpt>
      <trkpt lat="40.541180" lon="-4.541110">
        <ele>1017.546</ele>
        <time>2020-02-28T05:50:16Z</time>
      </trkpt>
      <trkpt lat="40.541330" lon="-4.541090">
        <ele>1019.049</ele>
        <time>2020-02-28T05:50:36Z</time>
      </trkpt>
      <trkpt lat="40.541540" lon="-4.541120">
        <ele>1020.084</ele>
        <time>2020-02-28T05:50:56Z</time>
      </trkpt>
      <trkpt lat="40.543130" lon="-4.541650">
        <ele>1025.125</ele>
        <time>2020-02-28T05:51:16Z</time>
      </trkpt>
      <trkpt lat="40.543020" lon="-4.542060">
        <ele>1022.537</ele>
        <time>2020-02-28T05:51:36Z</time>
      </trkpt>
      <trkpt lat="40.543010" lon="-4.542070">
        <ele>1022.575</ele>
        <time>2020-02-28T05:51:56Z</time>
      </trkpt>
      <trkpt lat="40.542930" lon="-4.542260">
        <ele>1021.328</ele>
        <time>2020-02-28T05:52:16Z</time>
      </trkpt>
      <trkpt lat="40.542800" lon="-4.542510">
        <ele>1019.043</ele>
        <time>2020-02-28T05:52:36Z</time>
      </trkpt>
      <trkpt lat="40.542710" lon="-4.542640">
        <ele>1018.112</ele>
        <time>2020-02-28T05:52:56Z</time>
      </trkpt>
      <trkpt lat="40.542580" lon="-4.542800">
        <ele>1016.532</ele>
        <time>2020-02-28T05:53:16Z</time>
      </trkpt>
      <trkpt lat="40.542510" lon="-4.542870">
        <ele>1015.705</ele>
        <time>2020-02-28T05:53:36Z</time>
      </trkpt>
      <trkpt lat="40.542350" lon="-4.542990">
        <ele>1014.308</ele>
        <time>2020-02-28T05:53:56Z</time>
      </trkpt>
      <trkpt lat="40.541970" lon="-4.543230">
        <ele>1011.575</ele>
        <time>2020-02-28T05:54:16Z</time>
      </trkpt>
      <trkpt lat="40.541940" lon="-4.543260">
        <ele>1011.218</ele>
        <time>2020-02-28T05:54:36Z</time>
      </trkpt>
      <trkpt lat="40.541940" lon="-4.543270">
        <ele>1011.163</ele>
        <time>2020-02-28T05:54:56Z</time>
      </trkpt>
      <trkpt lat="40.541780" lon="-4.543450">
        <ele>1006.244</ele>
        <time>2020-02-28T05:55:16Z</time>
      </trkpt>
      <trkpt lat="40.541750" lon="-4.543470">
        <ele>1005.356</ele>
        <time>2020-02-28T05:55:36Z</time>
      </trkpt>
      <trkpt lat="40.541710" lon="-4.543470">
        <ele>1004.234</ele>
        <time>2020-02-28T05:55:56Z</time>
      </trkpt>
      <trkpt lat="40.541660" lon="-4.543480">
        <ele>1002.997</ele>
        <time>2020-02-28T05:56:16Z</time>
      </trkpt>
      <trkpt lat="40.541430" lon="-4.543480">
        <ele>1002.142</ele>
        <time>2020-02-28T05:56:36Z</time>
      </trkpt>
      <trkpt lat="40.541350" lon="-4.543530">
        <ele>1001.548</ele>
        <time>2020-02-28T05:56:56Z</time>
      </trkpt>
      <trkpt lat="40.541250" lon="-4.543670">
        <ele>1000.761</ele>
        <time>2020-02-28T05:57:16Z</time>
      </trkpt>
      <trkpt lat="40.541220" lon="-4.543750">
        <ele>1000.217</ele>
        <time>2020-02-28T05:57:36Z</time>
      </trkpt>
      <trkpt lat="40.541030" lon="-4.544150">
        <ele>995.308</ele>
        <time>2020-02-28T05:57:56Z</time>
      </trkpt>
      <trkpt lat="40.541010" lon="-4.544230">
        <ele>994.498</ele>
        <time>2020-02-28T05:58:16Z</time>
      </trkpt>
      <trkpt lat="40.540920" lon="-4.545010">
        <ele>988.971</ele>
        <time>2020-02-28T05:58:36Z</time>
      </trkpt>
      <trkpt lat="40.540830" lon="-4.545340">
        <ele>986.536</ele>
        <time>2020-02-28T05:58:56Z</time>
      </trkpt>
      <trkpt lat="40.540740" lon="-4.545570">
        <ele>982.947</ele>
        <time>2020-02-28T05:59:16Z</time>
      </trkpt>
      <trkpt lat="40.540560" lon="-4.546130">
        <ele>976.129</ele>
        <time>2020-02-28T05:59:36Z</time>
      </trkpt>
      <trkpt lat="40.540520" lon="-4.546200">
        <ele>975.557</ele>
        <time>2020-02-28T05:59:56Z</time>
      </trkpt>
      <trkpt lat="40.540510" lon="-4.546230">
        <ele>975.330</ele>
        <time>2020-02-28T06:00:16Z</time>
      </trkpt>
      <trkpt lat="40.540490" lon="-4.546250">
        <ele>975.155</ele>
        <time>2020-02-28T06:00:36Z</time>
      </trkpt>
      <trkpt lat="40.540420" lon="-4.546290">
        <ele>974.015</ele>
        <time>2020-02-28T06:00:56Z</time>
      </trkpt>
      <trkpt lat="40.540320" lon="-4.546290">
        <ele>972.665</ele>
        <time>2020-02-28T06:01:16Z</time>
      </trkpt>
      <trkpt lat="40.540000" lon="-4.546190">
        <ele>966.711</ele>
        <time>2020-02-28T06:01:36Z</time>
      </trkpt>
      <trkpt lat="40.539990" lon="-4.546180">
        <ele>966.608</ele>
        <time>2020-02-28T06:01:56Z</time>
      </trkpt>
      <trkpt lat="40.539830" lon="-4.546150">
        <ele>965.355</ele>
        <time>2020-02-28T06:02:16Z</time>
      </trkpt>
      <trkpt lat="40.539690" lon="-4.546170">
        <ele>964.328</ele>
        <time>2020-02-28T06:02:36Z</time>
      </trkpt>
      <trkpt lat="40.539200" lon="-4.546310">
        <ele>964.343</ele>
        <time>2020-02-28T06:02:56Z</time>
      </trkpt>
      <trkpt lat="40.539150" lon="-4.546330">
        <ele>964.294</ele>
        <time>2020-02-28T06:03:16Z</time>
      </trkpt>
      <trkpt lat="40.539070" lon="-4.546380">
        <ele>964.946</ele>
        <time>2020-02-28T06:03:36Z</time>
      </trkpt>
      <trkpt lat="40.539010" lon="-4.546460">
        <ele>964.964</ele>
        <time>2020-02-28T06:03:56Z</time>
      </trkpt>
      <trkpt lat="40.538960" lon="-4.546570">
        <ele>964.387</ele>
        <time>2020-02-28T06:04:16Z</time>
      </trkpt>
      <trkpt lat="40.538910" lon="-4.546730">
        <ele>963.042</ele>
        <time>2020-02-28T06:04:36Z</time>
      </trkpt>
      <trkpt lat="40.538800" lon="-4.546980">
        <ele>962.342</ele>
        <time>2020-02-28T06:04:56Z</time>
      </trkpt>
      <trkpt lat="40.538680" lon="-4.547110">
        <ele>962.222</ele>
        <time>2020-02-28T06:05:16Z</time>
      </trkpt>
      <trkpt lat="40.538500" lon="-4.547250">
        <ele>961.914</ele>
        <time>2020-02-28T06:05:36Z</time>
      </trkpt>
      <trkpt lat="40.538270" lon="-4.547390">
        <ele>962.908</ele>
        <time>2020-02-28T06:05:56Z</time>
      </trkpt>
      <trkpt lat="40.538190" lon="-4.547480">
        <ele>962.928</ele>
        <time>2020-02-28T06:06:16Z</time>
      </trkpt>
      <trkpt lat="40.538100" lon="-4.547650">
        <ele>962.021</ele>
        <time>2020-02-28T06:06:36Z</time>
      </trkpt>
      <trkpt lat="40.537970" lon="-4.548370">
        <ele>959.266</ele>
        <time>2020-02-28T06:06:56Z</time>
      </trkpt>
      <trkpt lat="40.537970" lon="-4.548410">
        <ele>958.987</ele>
        <time>2020-02-28T06:07:16Z</time>
      </trkpt>
      <trkpt lat="40.537890" lon="-4.548870">
        <ele>957.979</ele>
        <time>2020-02-28T06:07:36Z</time>
      </trkpt>
      <trkpt lat="40.537850" lon="-4.549250">
        <ele>956.777</ele>
        <time>2020-02-28T06:07:56Z</time>
      </trkpt>
      <trkpt lat="40.537830" lon="-4.549340">
        <ele>956.510</ele>
        <time>2020-02-28T06:08:16Z</time>
      </trkpt>
      <trkpt lat="40.537830" lon="-4.549360">
        <ele>956.325</ele>
        <time>2020-02-28T06:08:36Z</time>
      </trkpt>
      <trkpt lat="40.537550" lon="-4.550800">
        <ele>946.151</ele>
        <time>2020-02-28T06:08:56Z</time>
      </trkpt>
      <trkpt lat="40.537500" lon="-4.550940">
        <ele>945.101</ele>
        <time>2020-02-28T06:09:16Z</time>
      </trkpt>
      <trkpt lat="40.536970" lon="-4.552160">
        <ele>937.111</ele>
        <time>2020-02-28T06:09:36Z</time>
      </trkpt>
      <trkpt lat="40.536920" lon="-4.552190">
        <ele>936.808</ele>
        <time>2020-02-28T06:09:56Z</time>
      </trkpt>
      <trkpt lat="40.536910" lon="-4.552200">
        <ele>936.529</ele>
        <time>2020-02-28T06:10:16Z</time>
      </trkpt>
      <trkpt lat="40.536850" lon="-4.552200">
        <ele>935.462</ele>
        <time>2020-02-28T06:10:36Z</time>
      </trkpt>
      <trkpt lat="40.536800" lon="-4.552190">
        <ele>934.627</ele>
        <time>2020-02-28T06:10:56Z</time>
      </trkpt>
      <trkpt lat="40.536730" lon="-4.552160">
        <ele>933.438</ele>
        <time>2020-02-28T06:11:16Z</time>
      </trkpt>
      <trkpt lat="40.536580" lon="-4.552040">
        <ele>930.660</ele>
        <time>2020-02-28T06:11:36Z</time>
      </trkpt>
      <trkpt lat="40.536540" lon="-4.552000">
        <ele>929.568</ele>
        <time>2020-02-28T06:11:56Z</time>
      </trkpt>
      <trkpt lat="40.536450" lon="-4.551880">
        <ele>926.951</ele>
        <time>2020-02-28T06:12:16Z</time>
      </trkpt>
      <trkpt lat="40.536220" lon="-4.551500">
        <ele>922.036</ele>
        <time>2020-02-28T06:12:36Z</time>
      </trkpt>
      <trkpt lat="40.536120" lon="-4.551310">
        <ele>919.934</ele>
        <time>2020-02-28T06:12:56Z</time>
      </trkpt>
      <trkpt lat="40.536020" lon="-4.551170">
        <ele>917.655</ele>
        <time>2020-02-28T06:13:16Z</time>
      </trkpt>
      <trkpt lat="40.535970" lon="-4.551120">
        <ele>916.310</ele>
        <time>2020-02-28T06:13:36Z</time>
      </trkpt>
      <trkpt lat="40.535730" lon="-4.551020">
        <ele>913.008</ele>
        <time>2020-02-28T06:13:56Z</time>
      </trkpt>
      <trkpt lat="40.535580" lon="-4.550980">
        <ele>912.137</ele>
        <time>2020-02-28T06:14:16Z</time>
      </trkpt>
      <trkpt lat="40.535460" lon="-4.550980">
        <ele>912.780</ele>
        <time>2020-02-28T06:14:36Z</time>
      </trkpt>
      <trkpt lat="40.535380" lon="-4.551000">
        <ele>913.195</ele>
        <time>2020-02-28T06:14:56Z</time>
      </trkpt>
      <trkpt lat="40.534410" lon="-4.551490">
        <ele>902.086</ele>
        <time>2020-02-28T06:15:16Z</time>
      </trkpt>
      <trkpt lat="40.534370" lon="-4.551520">
        <ele>902.828</ele>
        <time>2020-02-28T06:15:36Z</time>
      </trkpt>
      <trkpt lat="40.534300" lon="-4.551590">
        <ele>904.336</ele>
        <time>2020-02-28T06:15:56Z</time>
      </trkpt>
      <trkpt lat="40.534260" lon="-4.551640">
        <ele>905.379</ele>
        <time>2020-02-28T06:16:16Z</time>
      </trkpt>
      <trkpt lat="40.534230" lon="-4.551690">
        <ele>906.224</ele>
        <time>2020-02-28T06:16:36Z</time>
      </trkpt>
      <trkpt lat="40.534180" lon="-4.551840">
        <ele>907.616</ele>
        <time>2020-02-28T06:16:56Z</time>
      </trkpt>
      <trkpt lat="40.534160" lon="-4.551970">
        <ele>908.176</ele>
        <time>2020-02-28T06:17:16Z</time>
      </trkpt>
      <trkpt lat="40.534140" lon="-4.552400">
        <ele>908.413</ele>
        <time>2020-02-28T06:17:36Z</time>
      </trkpt>
      <trkpt lat="40.534090" lon="-4.552570">
        <ele>909.108</ele>
        <time>2020-02-28T06:17:56Z</time>
      </trkpt>
      <trkpt lat="40.534040" lon="-4.552660">
        <ele>909.875</ele>
        <time>2020-02-28T06:18:16Z</time>
      </trkpt>
      <trkpt lat="40.533930" lon="-4.552820">
        <ele>911.598</ele>
        <time>2020-02-28T06:18:36Z</time>
      </trkpt>
      <trkpt lat="40.533490" lon="-4.553590">
        <ele>919.443</ele>
        <time>2020-02-28T06:18:56Z</time>
      </trkpt>
      <trkpt lat="40.533440" lon="-4.553660">
        <ele>919.754</ele>
        <time>2020-02-28T06:19:16Z</time>
      </trkpt>
      <trkpt lat="40.533420" lon="-4.553700">
        <ele>919.876</ele>
        <time>2020-02-28T06:19:36Z</time>
      </trkpt>
      <trkpt lat="40.533370" lon="-4.553770">
        <ele>919.994</ele>
        <time>2020-02-28T06:19:56Z</time>
      </trkpt>
      <trkpt lat="40.533300" lon="-4.553850">
        <ele>919.957</ele>
        <time>2020-02-28T06:20:16Z</time>
      </trkpt>
      <trkpt lat="40.533170" lon="-4.553960">
        <ele>919.072</ele>
        <time>2020-02-28T06:20:36Z</time>
      </trkpt>
      <trkpt lat="40.533070" lon="-4.554030">
        <ele>917.638</ele>
        <time>2020-02-28T06:20:56Z</time>
      </trkpt>
      <trkpt lat="40.533010" lon="-4.554050">
        <ele>916.970</ele>
        <time>2020-02-28T06:21:16Z</time>
      </trkpt>
      <trkpt lat="40.533000" lon="-4.554060">
        <ele>916.717</ele>
        <time>2020-02-28T06:21:36Z</time>
      </trkpt>
      <trkpt lat="40.532470" lon="-4.554130">
        <ele>908.308</ele>
        <time>2020-02-28T06:21:56Z</time>
      </trkpt>
      <trkpt lat="40.532350" lon="-4.554160">
        <ele>908.647</ele>
        <time>2020-02-28T06:22:16Z</time>
      </trkpt>
      <trkpt lat="40.532330" lon="-4.554170">
        <ele>908.650</ele>
        <time>2020-02-28T06:22:36Z</time>
      </trkpt>
      <trkpt lat="40.532260" lon="-4.554240">
        <ele>908.545</ele>
        <time>2020-02-28T06:22:56Z</time>
      </trkpt>
      <trkpt lat="40.532210" lon="-4.554350">
        <ele>908.586</ele>
        <time>2020-02-28T06:23:16Z</time>
      </trkpt>
      <trkpt lat="40.532210" lon="-4.554560">
        <ele>908.268</ele>
        <time>2020-02-28T06:23:36Z</time>
      </trkpt>
      <trkpt lat="40.532240" lon="-4.554690">
        <ele>907.636</ele>
        <time>2020-02-28T06:23:56Z</time>
      </trkpt>
      <trkpt lat="40.532300" lon="-4.554880">
        <ele>905.329</ele>
        <time>2020-02-28T06:24:16Z</time>
      </trkpt>
      <trkpt lat="40.532300" lon="-4.554910">
        <ele>905.294</ele>
        <time>2020-02-28T06:24:36Z</time>
      </trkpt>
      <trkpt lat="40.532410" lon="-4.555300">
        <ele>899.426</ele>
        <time>2020-02-28T06:24:56Z</time>
      </trkpt>
      <trkpt lat="40.532440" lon="-4.555530">
        <ele>896.347</ele>
        <time>2020-02-28T06:25:16Z</time>
      </trkpt>
      <trkpt lat="40.532440" lon="-4.555620">
        <ele>895.511</ele>
        <time>2020-02-28T06:25:36Z</time>
      </trkpt>
      <trkpt lat="40.532400" lon="-4.555820">
        <ele>894.208</ele>
        <time>2020-02-28T06:25:56Z</time>
      </trkpt>
      <trkpt lat="40.532360" lon="-4.555950">
        <ele>893.236</ele>
        <time>2020-02-28T06:26:16Z</time>
      </trkpt>
      <trkpt lat="40.532240" lon="-4.556240">
        <ele>890.179</ele>
        <time>2020-02-28T06:26:36Z</time>
      </trkpt>
      <trkpt lat="40.532220" lon="-4.556270">
        <ele>889.754</ele>
        <time>2020-02-28T06:26:56Z</time>
      </trkpt>
      <trkpt lat="40.532180" lon="-4.556360">
        <ele>888.925</ele>
        <time>2020-02-28T06:27:16Z</time>
      </trkpt>
      <trkpt lat="40.531750" lon="-4.556940">
        <ele>884.697</ele>
        <time>2020-02-28T06:27:36Z</time>
      </trkpt>
      <trkpt lat="40.531670" lon="-4.557090">
        <ele>883.865</ele>
        <time>2020-02-28T06:27:56Z</time>
      </trkpt>
      <trkpt lat="40.531650" lon="-4.557140">
        <ele>883.558</ele>
        <time>2020-02-28T06:28:16Z</time>
      </trkpt>
      <trkpt lat="40.531650" lon="-4.557150">
        <ele>883.473</ele>
        <time>2020-02-28T06:28:36Z</time>
      </trkpt>
      <trkpt lat="40.531620" lon="-4.557270">
        <ele>882.683</ele>
        <time>2020-02-28T06:28:56Z</time>
      </trkpt>
      <trkpt lat="40.531590" lon="-4.557550">
        <ele>880.825</ele>
        <time>2020-02-28T06:29:16Z</time>
      </trkpt>
      <trkpt lat="40.531570" lon="-4.557650">
        <ele>880.317</ele>
        <time>2020-02-28T06:29:36Z</time>
      </trkpt>
      <trkpt lat="40.531510" lon="-4.557810">
        <ele>878.908</ele>
        <time>2020-02-28T06:29:56Z</time>
      </trkpt>
      <trkpt lat="40.531500" lon="-4.557810">
        <ele>879.012</ele>
        <time>2020-02-28T06:30:16Z</time>
      </trkpt>
      <trkpt lat="40.531450" lon="-4.557920">
        <ele>877.195</ele>
        <time>2020-02-28T06:30:36Z</time>
      </trkpt>
      <trkpt lat="40.531390" lon="-4.558000">
        <ele>876.080</ele>
        <time>2020-02-28T06:30:56Z</time>
      </trkpt>
      <trkpt lat="40.531350" lon="-4.558080">
        <ele>874.681</ele>
        <time>2020-02-28T06:31:16Z</time>
      </trkpt>
      <trkpt lat="40.531220" lon="-4.558270">
        <ele>871.463</ele>
        <time>2020-02-28T06:31:36Z</time>
      </trkpt>
      <trkpt lat="40.531150" lon="-4.558350">
        <ele>870.561</ele>
        <time>2020-02-28T06:31:56Z</time>
      </trkpt>
      <trkpt lat="40.531100" lon="-4.558420">
        <ele>869.894</ele>
        <time>2020-02-28T06:32:16Z</time>
      </trkpt>
      <trkpt lat="40.530910" lon="-4.558580">
        <ele>866.949</ele>
        <time>2020-02-28T06:32:36Z</time>
      </trkpt>
      <trkpt lat="40.530620" lon="-4.558690">
        <ele>862.878</ele>
        <time>2020-02-28T06:32:56Z</time>
      </trkpt>
      <trkpt lat="40.530280" lon="-4.558860">
        <ele>858.633</ele>
        <time>2020-02-28T06:33:16Z</time>
      </trkpt>
      <trkpt lat="40.530210" lon="-4.558880">
        <ele>858.226</ele>
        <time>2020-02-28T06:33:36Z</time>
      </trkpt>
      <trkpt lat="40.530120" lon="-4.558950">
        <ele>857.108</ele>
        <time>2020-02-28T06:33:56Z</time>
      </trkpt>
      <trkpt lat="40.529980" lon="-4.559090">
        <ele>855.241</ele>
        <time>2020-02-28T06:34:16Z</time>
      </trkpt>
      <trkpt lat="40.529920" lon="-4.559170">
        <ele>854.234</ele>
        <time>2020-02-28T06:34:36Z</time>
      </trkpt>
      <trkpt lat="40.529730" lon="-4.559350">
        <ele>851.759</ele>
        <time>2020-02-28T06:34:56Z</time>
      </trkpt>
      <trkpt lat="40.529710" lon="-4.559360">
        <ele>851.510</ele>
        <time>2020-02-28T06:35:16Z</time>
      </trkpt>
      <trkpt lat="40.529610" lon="-4.559440">
        <ele>850.182</ele>
        <time>2020-02-28T06:35:36Z</time>
      </trkpt>
      <trkpt lat="40.529570" lon="-4.559460">
        <ele>850.090</ele>
        <time>2020-02-28T06:35:56Z</time>
      </trkpt>
      <trkpt lat="40.529560" lon="-4.559470">
        <ele>850.083</ele>
        <time>2020-02-28T06:36:16Z</time>
      </trkpt>
      <trkpt lat="40.529460" lon="-4.559520">
        <ele>850.028</ele>
        <time>2020-02-28T06:36:36Z</time>
      </trkpt>
      <trkpt lat="40.529230" lon="-4.559590">
        <ele>850.042</ele>
        <time>2020-02-28T06:36:56Z</time>
      </trkpt>
      <trkpt lat="40.529040" lon="-4.559620">
        <ele>849.622</ele>
        <time>2020-02-28T06:37:16Z</time>
      </trkpt>
      <trkpt lat="40.529010" lon="-4.559620">
        <ele>849.514</ele>
        <time>2020-02-28T06:37:36Z</time>
      </trkpt>
      <trkpt lat="40.528240" lon="-4.559810">
        <ele>846.108</ele>
        <time>2020-02-28T06:37:56Z</time>
      </trkpt>
      <trkpt lat="40.527850" lon="-4.559950">
        <ele>846.228</ele>
        <time>2020-02-28T06:38:16Z</time>
      </trkpt>
      <trkpt lat="40.527420" lon="-4.560130">
        <ele>845.011</ele>
        <time>2020-02-28T06:38:36Z</time>
      </trkpt>
      <trkpt lat="40.526920" lon="-4.560370">
        <ele>846.216</ele>
        <time>2020-02-28T06:38:56Z</time>
      </trkpt>
      <trkpt lat="40.526860" lon="-4.560390">
        <ele>845.727</ele>
        <time>2020-02-28T06:39:16Z</time>
      </trkpt>
      <trkpt lat="40.526800" lon="-4.560400">
        <ele>845.379</ele>
        <time>2020-02-28T06:39:36Z</time>
      </trkpt>
      <trkpt lat="40.526790" lon="-4.560410">
        <ele>845.217</ele>
        <time>2020-02-28T06:39:56Z</time>
      </trkpt>
      <trkpt lat="40.526740" lon="-4.560420">
        <ele>844.940</ele>
        <time>2020-02-28T06:40:16Z</time>
      </trkpt>
      <trkpt lat="40.526190" lon="-4.560440">
        <ele>846.635</ele>
        <time>2020-02-28T06:40:36Z</time>
      </trkpt>
      <trkpt lat="40.525880" lon="-4.560470">
        <ele>847.934</ele>
        <time>2020-02-28T06:40:56Z</time>
      </trkpt>
      <trkpt lat="40.525710" lon="-4.560460">
        <ele>847.955</ele>
        <time>2020-02-28T06:41:16Z</time>
      </trkpt>
      <trkpt lat="40.525530" lon="-4.560470">
        <ele>847.510</ele>
        <time>2020-02-28T06:41:36Z</time>
      </trkpt>
      <trkpt lat="40.525360" lon="-4.560510">
        <ele>846.808</ele>
        <time>2020-02-28T06:41:56Z</time>
      </trkpt>
      <trkpt lat="40.525340" lon="-4.560510">
        <ele>846.837</ele>
        <time>2020-02-28T06:42:16Z</time>
      </trkpt>
      <trkpt lat="40.524920" lon="-4.560660">
        <ele>844.580</ele>
        <time>2020-02-28T06:42:36Z</time>
      </trkpt>
      <trkpt lat="40.524650" lon="-4.560720">
        <ele>843.245</ele>
        <time>2020-02-28T06:42:56Z</time>
      </trkpt>
      <trkpt lat="40.524300" lon="-4.560830">
        <ele>840.156</ele>
        <time>2020-02-28T06:43:16Z</time>
      </trkpt>
      <trkpt lat="40.524240" lon="-4.560840">
        <ele>840.058</ele>
        <time>2020-02-28T06:43:36Z</time>
      </trkpt>
      <trkpt lat="40.523480" lon="-4.561040">
        <ele>840.576</ele>
        <time>2020-02-28T06:43:56Z</time>
      </trkpt>
      <trkpt lat="40.523210" lon="-4.561070">
        <ele>840.239</ele>
        <time>2020-02-28T06:44:16Z</time>
      </trkpt>
      <trkpt lat="40.523120" lon="-4.561070">
        <ele>840.224</ele>
        <time>2020-02-28T06:44:36Z</time>
      </trkpt>
      <trkpt lat="40.522990" lon="-4.561050">
        <ele>840.229</ele>
        <time>2020-02-28T06:44:56Z</time>
      </trkpt>
      <trkpt lat="40.522520" lon="-4.561060">
        <ele>840.200</ele>
        <time>2020-02-28T06:45:16Z</time>
      </trkpt>
      <trkpt lat="40.522220" lon="-4.561050">
        <ele>840.420</ele>
        <time>2020-02-28T06:45:36Z</time>
      </trkpt>
      <trkpt lat="40.522100" lon="-4.561070">
        <ele>840.408</ele>
        <time>2020-02-28T06:45:56Z</time>
      </trkpt>
      <trkpt lat="40.521960" lon="-4.561110">
        <ele>840.016</ele>
        <time>2020-02-28T06:46:16Z</time>
      </trkpt>
      <trkpt lat="40.521630" lon="-4.561250">
        <ele>840.119</ele>
        <time>2020-02-28T06:46:36Z</time>
      </trkpt>
      <trkpt lat="40.520890" lon="-4.561450">
        <ele>840.024</ele>
        <time>2020-02-28T06:46:56Z</time>
      </trkpt>
      <trkpt lat="40.520460" lon="-4.561620">
        <ele>839.735</ele>
        <time>2020-02-28T06:47:16Z</time>
      </trkpt>
      <trkpt lat="40.520410" lon="-4.561630">
        <ele>839.527</ele>
        <time>2020-02-28T06:47:36Z</time>
      </trkpt>
      <trkpt lat="40.520230" lon="-4.561690">
        <ele>838.635</ele>
        <time>2020-02-28T06:47:56Z</time>
      </trkpt>
      <trkpt lat="40.520070" lon="-4.561730">
        <ele>837.138</ele>
        <time>2020-02-28T06:48:16Z</time>
      </trkpt>
      <trkpt lat="40.519800" lon="-4.561750">
        <ele>835.543</ele>
        <time>2020-02-28T06:48:36Z</time>
      </trkpt>
      <trkpt lat="40.519160" lon="-4.561690">
        <ele>834.844</ele>
        <time>2020-02-28T06:48:56Z</time>
      </trkpt>
      <trkpt lat="40.518710" lon="-4.561680">
        <ele>834.905</ele>
        <time>2020-02-28T06:49:16Z</time>
      </trkpt>
      <trkpt lat="40.518350" lon="-4.561820">
        <ele>834.315</ele>
        <time>2020-02-28T06:49:36Z</time>
      </trkpt>
      <trkpt lat="40.518290" lon="-4.561830">
        <ele>833.808</ele>
        <time>2020-02-28T06:49:56Z</time>
      </trkpt>
      <trkpt lat="40.518090" lon="-4.561830">
        <ele>832.028</ele>
        <time>2020-02-28T06:50:16Z</time>
      </trkpt>
      <trkpt lat="40.517990" lon="-4.561810">
        <ele>831.791</ele>
        <time>2020-02-28T06:50:36Z</time>
      </trkpt>
      <trkpt lat="40.517300" lon="-4.561740">
        <ele>830.966</ele>
        <time>2020-02-28T06:50:56Z</time>
      </trkpt>
      <trkpt lat="40.517010" lon="-4.561690">
        <ele>830.277</ele>
        <time>2020-02-28T06:51:16Z</time>
      </trkpt>
      <trkpt lat="40.516940" lon="-4.561670">
        <ele>830.089</ele>
        <time>2020-02-28T06:51:36Z</time>
      </trkpt>
      <trkpt lat="40.516840" lon="-4.561630">
        <ele>830.367</ele>
        <time>2020-02-28T06:51:56Z</time>
      </trkpt>
      <trkpt lat="40.516780" lon="-4.561570">
        <ele>830.730</ele>
        <time>2020-02-28T06:52:16Z</time>
      </trkpt>
      <trkpt lat="40.516600" lon="-4.561450">
        <ele>831.225</ele>
        <time>2020-02-28T06:52:36Z</time>
      </trkpt>
      <trkpt lat="40.516560" lon="-4.561430">
        <ele>831.045</ele>
        <time>2020-02-28T06:52:56Z</time>
      </trkpt>
      <trkpt lat="40.516550" lon="-4.561430">
        <ele>831.047</ele>
        <time>2020-02-28T06:53:16Z</time>
      </trkpt>
      <trkpt lat="40.516510" lon="-4.561410">
        <ele>830.811</ele>
        <time>2020-02-28T06:53:36Z</time>
      </trkpt>
      <trkpt lat="40.516400" lon="-4.561390">
        <ele>830.108</ele>
        <time>2020-02-28T06:53:56Z</time>
      </trkpt>
      <trkpt lat="40.516360" lon="-4.561390">
        <ele>830.018</ele>
        <time>2020-02-28T06:54:16Z</time>
      </trkpt>
      <trkpt lat="40.516300" lon="-4.561380">
        <ele>830.191</ele>
        <time>2020-02-28T06:54:36Z</time>
      </trkpt>
      <trkpt lat="40.516010" lon="-4.561380">
        <ele>830.166</ele>
        <time>2020-02-28T06:54:56Z</time>
      </trkpt>
      <trkpt lat="40.515940" lon="-4.561370">
        <ele>830.257</ele>
        <time>2020-02-28T06:55:16Z</time>
      </trkpt>
      <trkpt lat="40.515810" lon="-4.561320">
        <ele>830.719</ele>
        <time>2020-02-28T06:55:36Z</time>
      </trkpt>
      <trkpt lat="40.515760" lon="-4.561290">
        <ele>830.827</ele>
        <time>2020-02-28T06:55:56Z</time>
      </trkpt>
      <trkpt lat="40.515520" lon="-4.561110">
        <ele>830.490</ele>
        <time>2020-02-28T06:56:16Z</time>
      </trkpt>
      <trkpt lat="40.515490" lon="-4.561100">
        <ele>830.845</ele>
        <time>2020-02-28T06:56:36Z</time>
      </trkpt>
      <trkpt lat="40.515460" lon="-4.561080">
        <ele>831.237</ele>
        <time>2020-02-28T06:56:56Z</time>
      </trkpt>
      <trkpt lat="40.515420" lon="-4.561080">
        <ele>831.649</ele>
        <time>2020-02-28T06:57:16Z</time>
      </trkpt>
      <trkpt lat="40.515390" lon="-4.561070">
        <ele>832.013</ele>
        <time>2020-02-28T06:57:36Z</time>
      </trkpt>
      <trkpt lat="40.515340" lon="-4.561080">
        <ele>832.508</ele>
        <time>2020-02-28T06:57:56Z</time>
      </trkpt>
      <trkpt lat="40.515260" lon="-4.561110">
        <ele>833.137</ele>
        <time>2020-02-28T06:58:16Z</time>
      </trkpt>
      <trkpt lat="40.515080" lon="-4.561230">
        <ele>833.730</ele>
        <time>2020-02-28T06:58:36Z</time>
      </trkpt>
      <trkpt lat="40.515010" lon="-4.561260">
        <ele>833.915</ele>
        <time>2020-02-28T06:58:56Z</time>
      </trkpt>
      <trkpt lat="40.514740" lon="-4.561340">
        <ele>833.446</ele>
        <time>2020-02-28T06:59:16Z</time>
      </trkpt>
      <trkpt lat="40.513240" lon="-4.561650">
        <ele>830.018</ele>
        <time>2020-02-28T06:59:36Z</time>
      </trkpt>
      <trkpt lat="40.513180" lon="-4.561650">
        <ele>830.076</ele>
        <time>2020-02-28T06:59:56Z</time>
      </trkpt>
      <trkpt lat="40.512700" lon="-4.561710">
        <ele>830.049</ele>
        <time>2020-02-28T07:00:16Z</time>
      </trkpt>
      <trkpt lat="40.512440" lon="-4.561770">
        <ele>829.824</ele>
        <time>2020-02-28T07:00:36Z</time>
      </trkpt>
      <trkpt lat="40.512400" lon="-4.561790">
        <ele>829.662</ele>
        <time>2020-02-28T07:00:56Z</time>
      </trkpt>
      <trkpt lat="40.512070" lon="-4.562030">
        <ele>828.583</ele>
        <time>2020-02-28T07:01:16Z</time>
      </trkpt>
      <trkpt lat="40.511520" lon="-4.562360">
        <ele>825.411</ele>
        <time>2020-02-28T07:01:36Z</time>
      </trkpt>
      <trkpt lat="40.511490" lon="-4.562370">
        <ele>825.208</ele>
        <time>2020-02-28T07:01:56Z</time>
      </trkpt>
      <trkpt lat="40.511330" lon="-4.562450">
        <ele>823.850</ele>
        <time>2020-02-28T07:02:16Z</time>
      </trkpt>
      <trkpt lat="40.511120" lon="-4.562530">
        <ele>822.013</ele>
        <time>2020-02-28T07:02:36Z</time>
      </trkpt>
      <trkpt lat="40.510860" lon="-4.562590">
        <ele>822.658</ele>
        <time>2020-02-28T07:02:56Z</time>
      </trkpt>
      <trkpt lat="40.510260" lon="-4.562660">
        <ele>821.859</ele>
        <time>2020-02-28T07:03:16Z</time>
      </trkpt>
      <trkpt lat="40.509960" lon="-4.562710">
        <ele>820.531</ele>
        <time>2020-02-28T07:03:36Z</time>
      </trkpt>
      <trkpt lat="40.509610" lon="-4.562730">
        <ele>820.219</ele>
        <time>2020-02-28T07:03:56Z</time>
      </trkpt>
      <trkpt lat="40.509240" lon="-4.562730">
        <ele>820.232</ele>
        <time>2020-02-28T07:04:16Z</time>
      </trkpt>
      <trkpt lat="40.509070" lon="-4.562700">
        <ele>820.397</ele>
        <time>2020-02-28T07:04:36Z</time>
      </trkpt>
      <trkpt lat="40.509050" lon="-4.562700">
        <ele>820.321</ele>
        <time>2020-02-28T07:04:56Z</time>
      </trkpt>
      <trkpt lat="40.508810" lon="-4.562660">
        <ele>820.441</ele>
        <time>2020-02-28T07:05:16Z</time>
      </trkpt>
      <trkpt lat="40.508610" lon="-4.562540">
        <ele>820.905</ele>
        <time>2020-02-28T07:05:36Z</time>
      </trkpt>
      <trkpt lat="40.508480" lon="-4.562440">
        <ele>820.708</ele>
        <time>2020-02-28T07:05:56Z</time>
      </trkpt>
      <trkpt lat="40.508410" lon="-4.562370">
        <ele>820.746</ele>
        <time>2020-02-28T07:06:16Z</time>
      </trkpt>
      <trkpt lat="40.508320" lon="-4.562260">
        <ele>820.859</ele>
        <time>2020-02-28T07:06:36Z</time>
      </trkpt>
      <trkpt lat="40.508280" lon="-4.562200">
        <ele>820.984</ele>
        <time>2020-02-28T07:06:56Z</time>
      </trkpt>
      <trkpt lat="40.507970" lon="-4.561860">
        <ele>820.285</ele>
        <time>2020-02-28T07:07:16Z</time>
      </trkpt>
      <trkpt lat="40.507850" lon="-4.561760">
        <ele>820.297</ele>
        <time>2020-02-28T07:07:36Z</time>
      </trkpt>
      <trkpt lat="40.507630" lon="-4.561630">
        <ele>820.255</ele>
        <time>2020-02-28T07:07:56Z</time>
      </trkpt>
      <trkpt lat="40.507400" lon="-4.561550">
        <ele>820.868</ele>
        <time>2020-02-28T07:08:16Z</time>
      </trkpt>
      <trkpt lat="40.507180" lon="-4.561520">
        <ele>821.063</ele>
        <time>2020-02-28T07:08:36Z</time>
      </trkpt>
      <trkpt lat="40.506990" lon="-4.561530">
        <ele>820.691</ele>
        <time>2020-02-28T07:08:56Z</time>
      </trkpt>
      <trkpt lat="40.506990" lon="-4.561540">
        <ele>820.581</ele>
        <time>2020-02-28T07:09:16Z</time>
      </trkpt>
      <trkpt lat="40.506920" lon="-4.561550">
        <ele>820.519</ele>
        <time>2020-02-28T07:09:36Z</time>
      </trkpt>
      <trkpt lat="40.506770" lon="-4.561590">
        <ele>820.408</ele>
        <time>2020-02-28T07:09:56Z</time>
      </trkpt>
      <trkpt lat="40.506700" lon="-4.561620">
        <ele>820.383</ele>
        <time>2020-02-28T07:10:16Z</time>
      </trkpt>
      <trkpt lat="40.506640" lon="-4.561660">
        <ele>820.186</ele>
        <time>2020-02-28T07:10:36Z</time>
      </trkpt>
      <trkpt lat="40.506640" lon="-4.561670">
        <ele>820.131</ele>
        <time>2020-02-28T07:10:56Z</time>
      </trkpt>
      <trkpt lat="40.506600" lon="-4.561700">
        <ele>820.272</ele>
        <time>2020-02-28T07:11:16Z</time>
      </trkpt>
      <trkpt lat="40.506500" lon="-4.561800">
        <ele>820.324</ele>
        <time>2020-02-28T07:11:36Z</time>
      </trkpt>
      <trkpt lat="40.506470" lon="-4.561840">
        <ele>820.372</ele>
        <time>2020-02-28T07:11:56Z</time>
      </trkpt>
      <trkpt lat="40.506170" lon="-4.562360">
        <ele>820.075</ele>
        <time>2020-02-28T07:12:16Z</time>
      </trkpt>
      <trkpt lat="40.505580" lon="-4.563070">
        <ele>820.050</ele>
        <time>2020-02-28T07:12:36Z</time>
      </trkpt>
      <trkpt lat="40.505570" lon="-4.563070">
        <ele>820.081</ele>
        <time>2020-02-28T07:12:56Z</time>
      </trkpt>
      <trkpt lat="40.505490" lon="-4.563160">
        <ele>820.061</ele>
        <time>2020-02-28T07:13:16Z</time>
      </trkpt>
      <trkpt lat="40.505400" lon="-4.563300">
        <ele>820.017</ele>
        <time>2020-02-28T07:13:36Z</time>
      </trkpt>
      <trkpt lat="40.505320" lon="-4.563400">
        <ele>820.008</ele>
        <time>2020-02-28T07:13:56Z</time>
      </trkpt>
      <trkpt lat="40.505320" lon="-4.563410">
        <ele>820.092</ele>
        <time>2020-02-28T07:14:16Z</time>
      </trkpt>
      <trkpt lat="40.505100" lon="-4.563660">
        <ele>820.065</ele>
        <time>2020-02-28T07:14:36Z</time>
      </trkpt>
      <trkpt lat="40.504610" lon="-4.564060">
        <ele>818.880</ele>
        <time>2020-02-28T07:14:56Z</time>
      </trkpt>
      <trkpt lat="40.504340" lon="-4.564260">
        <ele>817.051</ele>
        <time>2020-02-28T07:15:16Z</time>
      </trkpt>
      <trkpt lat="40.504100" lon="-4.564390">
        <ele>815.473</ele>
        <time>2020-02-28T07:15:36Z</time>
      </trkpt>
      <trkpt lat="40.504040" lon="-4.564410">
        <ele>815.211</ele>
        <time>2020-02-28T07:15:56Z</time>
      </trkpt>
      <trkpt lat="40.503930" lon="-4.564430">
        <ele>815.124</ele>
        <time>2020-02-28T07:16:16Z</time>
      </trkpt>
      <trkpt lat="40.503510" lon="-4.564550">
        <ele>815.269</ele>
        <time>2020-02-28T07:16:36Z</time>
      </trkpt>
      <trkpt lat="40.503220" lon="-4.564610">
        <ele>814.682</ele>
        <time>2020-02-28T07:16:56Z</time>
      </trkpt>
      <trkpt lat="40.502840" lon="-4.564710">
        <ele>814.043</ele>
        <time>2020-02-28T07:17:16Z</time>
      </trkpt>
      <trkpt lat="40.502430" lon="-4.564860">
        <ele>812.517</ele>
        <time>2020-02-28T07:17:36Z</time>
      </trkpt>
      <trkpt lat="40.502270" lon="-4.564880">
        <ele>812.408</ele>
        <time>2020-02-28T07:17:56Z</time>
      </trkpt>
      <trkpt lat="40.501630" lon="-4.564910">
        <ele>810.952</ele>
        <time>2020-02-28T07:18:16Z</time>
      </trkpt>
      <trkpt lat="40.501000" lon="-4.564980">
        <ele>810.135</ele>
        <time>2020-02-28T07:18:36Z</time>
      </trkpt>
      <trkpt lat="40.500780" lon="-4.564990">
        <ele>810.180</ele>
        <time>2020-02-28T07:18:56Z</time>
      </trkpt>
      <trkpt lat="40.500590" lon="-4.565030">
        <ele>810.091</ele>
        <time>2020-02-28T07:19:16Z</time>
      </trkpt>
      <trkpt lat="40.500460" lon="-4.565070">
        <ele>810.053</ele>
        <time>2020-02-28T07:19:36Z</time>
      </trkpt>
      <trkpt lat="40.500180" lon="-4.565180">
        <ele>810.221</ele>
        <time>2020-02-28T07:19:56Z</time>
      </trkpt>
      <trkpt lat="40.500010" lon="-4.565260">
        <ele>810.154</ele>
        <time>2020-02-28T07:20:16Z</time>
      </trkpt>
      <trkpt lat="40.499870" lon="-4.565310">
        <ele>810.089</ele>
        <time>2020-02-28T07:20:36Z</time>
      </trkpt>
      <trkpt lat="40.499740" lon="-4.565330">
        <ele>810.061</ele>
        <time>2020-02-28T07:20:56Z</time>
      </trkpt>
      <trkpt lat="40.499490" lon="-4.565320">
        <ele>810.021</ele>
        <time>2020-02-28T07:21:16Z</time>
      </trkpt>
      <trkpt lat="40.499390" lon="-4.565300">
        <ele>810.013</ele>
        <time>2020-02-28T07:21:36Z</time>
      </trkpt>
      <trkpt lat="40.499190" lon="-4.565230">
        <ele>810.508</ele>
        <time>2020-02-28T07:21:56Z</time>
      </trkpt>
      <trkpt lat="40.499070" lon="-4.565170">
        <ele>810.830</ele>
        <time>2020-02-28T07:22:16Z</time>
      </trkpt>
      <trkpt lat="40.498890" lon="-4.565050">
        <ele>810.063</ele>
        <time>2020-02-28T07:22:36Z</time>
      </trkpt>
      <trkpt lat="40.498740" lon="-4.564930">
        <ele>810.798</ele>
        <time>2020-02-28T07:22:56Z</time>
      </trkpt>
      <trkpt lat="40.498280" lon="-4.564390">
        <ele>810.039</ele>
        <time>2020-02-28T07:23:16Z</time>
      </trkpt>
      <trkpt lat="40.498140" lon="-4.564270">
        <ele>810.011</ele>
        <time>2020-02-28T07:23:36Z</time>
      </trkpt>
      <trkpt lat="40.498000" lon="-4.564210">
        <ele>810.089</ele>
        <time>2020-02-28T07:23:56Z</time>
      </trkpt>
      <trkpt lat="40.497940" lon="-4.564200">
        <ele>810.012</ele>
        <time>2020-02-28T07:24:16Z</time>
      </trkpt>
      <trkpt lat="40.497840" lon="-4.564200">
        <ele>810.037</ele>
        <time>2020-02-28T07:24:36Z</time>
      </trkpt>
      <trkpt lat="40.497770" lon="-4.564210">
        <ele>810.056</ele>
        <time>2020-02-28T07:24:56Z</time>
      </trkpt>
      <trkpt lat="40.497690" lon="-4.564240">
        <ele>810.059</ele>
        <time>2020-02-28T07:25:16Z</time>
      </trkpt>
      <trkpt lat="40.497690" lon="-4.564250">
        <ele>810.014</ele>
        <time>2020-02-28T07:25:36Z</time>
      </trkpt>
      <trkpt lat="40.497560" lon="-4.564310">
        <ele>810.008</ele>
        <time>2020-02-28T07:25:56Z</time>
      </trkpt>
      <trkpt lat="40.497320" lon="-4.564500">
        <ele>809.539</ele>
        <time>2020-02-28T07:26:16Z</time>
      </trkpt>
      <trkpt lat="40.497170" lon="-4.564640">
        <ele>809.412</ele>
        <time>2020-02-28T07:26:36Z</time>
      </trkpt>
      <trkpt lat="40.496870" lon="-4.565130">
        <ele>809.527</ele>
        <time>2020-02-28T07:26:56Z</time>
      </trkpt>
      <trkpt lat="40.496830" lon="-4.565180">
        <ele>809.618</ele>
        <time>2020-02-28T07:27:16Z</time>
      </trkpt>
      <trkpt lat="40.496760" lon="-4.565240">
        <ele>809.950</ele>
        <time>2020-02-28T07:27:36Z</time>
      </trkpt>
      <trkpt lat="40.496720" lon="-4.565260">
        <ele>809.998</ele>
        <time>2020-02-28T07:27:56Z</time>
      </trkpt>
      <trkpt lat="40.496710" lon="-4.565260">
        <ele>809.971</ele>
        <time>2020-02-28T07:28:16Z</time>
      </trkpt>
      <trkpt lat="40.496480" lon="-4.565320">
        <ele>811.136</ele>
        <time>2020-02-28T07:28:36Z</time>
      </trkpt>
      <trkpt lat="40.495090" lon="-4.565420">
        <ele>822.429</ele>
        <time>2020-02-28T07:28:56Z</time>
      </trkpt>
      <trkpt lat="40.494540" lon="-4.565500">
        <ele>827.600</ele>
        <time>2020-02-28T07:29:16Z</time>
      </trkpt>
      <trkpt lat="40.493960" lon="-4.565690">
        <ele>828.620</ele>
        <time>2020-02-28T07:29:36Z</time>
      </trkpt>
      <trkpt lat="40.493740" lon="-4.565830">
        <ele>829.008</ele>
        <time>2020-02-28T07:29:56Z</time>
      </trkpt>
      <trkpt lat="40.493410" lon="-4.566090">
        <ele>829.976</ele>
        <time>2020-02-28T07:30:16Z</time>
      </trkpt>
      <trkpt lat="40.493390" lon="-4.566100">
        <ele>829.989</ele>
        <time>2020-02-28T07:30:36Z</time>
      </trkpt>
      <trkpt lat="40.492780" lon="-4.566580">
        <ele>832.814</ele>
        <time>2020-02-28T07:30:56Z</time>
      </trkpt>
      <trkpt lat="40.492570" lon="-4.566720">
        <ele>834.065</ele>
        <time>2020-02-28T07:31:16Z</time>
      </trkpt>
      <trkpt lat="40.492220" lon="-4.567010">
        <ele>838.547</ele>
        <time>2020-02-28T07:31:36Z</time>
      </trkpt>
      <trkpt lat="40.491950" lon="-4.567180">
        <ele>840.045</ele>
        <time>2020-02-28T07:31:56Z</time>
      </trkpt>
      <trkpt lat="40.491820" lon="-4.567240">
        <ele>840.248</ele>
        <time>2020-02-28T07:32:16Z</time>
      </trkpt>
      <trkpt lat="40.491670" lon="-4.567270">
        <ele>840.793</ele>
        <time>2020-02-28T07:32:36Z</time>
      </trkpt>
      <trkpt lat="40.491540" lon="-4.567270">
        <ele>841.619</ele>
        <time>2020-02-28T07:32:56Z</time>
      </trkpt>
      <trkpt lat="40.491340" lon="-4.567310">
        <ele>843.709</ele>
        <time>2020-02-28T07:33:16Z</time>
      </trkpt>
      <trkpt lat="40.491300" lon="-4.567310">
        <ele>844.019</ele>
        <time>2020-02-28T07:33:36Z</time>
      </trkpt>
      <trkpt lat="40.491120" lon="-4.567350">
        <ele>845.908</ele>
        <time>2020-02-28T07:33:56Z</time>
      </trkpt>
      <trkpt lat="40.491120" lon="-4.567360">
        <ele>845.975</ele>
        <time>2020-02-28T07:34:16Z</time>
      </trkpt>
      <trkpt lat="40.491000" lon="-4.567420">
        <ele>846.928</ele>
        <time>2020-02-28T07:34:36Z</time>
      </trkpt>
      <trkpt lat="40.490880" lon="-4.567520">
        <ele>847.913</ele>
        <time>2020-02-28T07:34:56Z</time>
      </trkpt>
      <trkpt lat="40.490770" lon="-4.567630">
        <ele>848.814</ele>
        <time>2020-02-28T07:35:16Z</time>
      </trkpt>
      <trkpt lat="40.490580" lon="-4.567870">
        <ele>850.616</ele>
        <time>2020-02-28T07:35:36Z</time>
      </trkpt>
      <trkpt lat="40.490360" lon="-4.568290">
        <ele>852.494</ele>
        <time>2020-02-28T07:35:56Z</time>
      </trkpt>
      <trkpt lat="40.490360" lon="-4.568310">
        <ele>852.547</ele>
        <time>2020-02-28T07:36:16Z</time>
      </trkpt>
      <trkpt lat="40.490270" lon="-4.568520">
        <ele>852.672</ele>
        <time>2020-02-28T07:36:36Z</time>
      </trkpt>
      <trkpt lat="40.490150" lon="-4.568860">
        <ele>852.173</ele>
        <time>2020-02-28T07:36:56Z</time>
      </trkpt>
      <trkpt lat="40.489410" lon="-4.570630">
        <ele>848.985</ele>
        <time>2020-02-28T07:37:16Z</time>
      </trkpt>
      <trkpt lat="40.488980" lon="-4.571570">
        <ele>846.913</ele>
        <time>2020-02-28T07:37:36Z</time>
      </trkpt>
      <trkpt lat="40.488640" lon="-4.572460">
        <ele>846.308</ele>
        <time>2020-02-28T07:37:56Z</time>
      </trkpt>
      <trkpt lat="40.488620" lon="-4.572560">
        <ele>846.351</ele>
        <time>2020-02-28T07:38:16Z</time>
      </trkpt>
      <trkpt lat="40.488520" lon="-4.572900">
        <ele>845.724</ele>
        <time>2020-02-28T07:38:36Z</time>
      </trkpt>
      <trkpt lat="40.488410" lon="-4.573440">
        <ele>843.949</ele>
        <time>2020-02-28T07:38:56Z</time>
      </trkpt>
      <trkpt lat="40.488400" lon="-4.573460">
        <ele>843.830</ele>
        <time>2020-02-28T07:39:16Z</time>
      </trkpt>
      <trkpt lat="40.488030" lon="-4.575030">
        <ele>843.732</ele>
        <time>2020-02-28T07:39:36Z</time>
      </trkpt>
      <trkpt lat="40.488020" lon="-4.575040">
        <ele>843.620</ele>
        <time>2020-02-28T07:39:56Z</time>
      </trkpt>
      <trkpt lat="40.487950" lon="-4.575390">
        <ele>843.823</ele>
        <time>2020-02-28T07:40:16Z</time>
      </trkpt>
      <trkpt lat="40.487810" lon="-4.575930">
        <ele>842.938</ele>
        <time>2020-02-28T07:40:36Z</time>
      </trkpt>
      <trkpt lat="40.487780" lon="-4.576180">
        <ele>841.513</ele>
        <time>2020-02-28T07:40:56Z</time>
      </trkpt>
      <trkpt lat="40.487750" lon="-4.576330">
        <ele>840.243</ele>
        <time>2020-02-28T07:41:16Z</time>
      </trkpt>
      <trkpt lat="40.487710" lon="-4.576640">
        <ele>839.307</ele>
        <time>2020-02-28T07:41:36Z</time>
      </trkpt>
      <trkpt lat="40.487710" lon="-4.576700">
        <ele>839.108</ele>
        <time>2020-02-28T07:41:56Z</time>
      </trkpt>
      <trkpt lat="40.487590" lon="-4.577470">
        <ele>837.055</ele>
        <time>2020-02-28T07:42:16Z</time>
      </trkpt>
      <trkpt lat="40.487430" lon="-4.578250">
        <ele>836.898</ele>
        <time>2020-02-28T07:42:36Z</time>
      </trkpt>
      <trkpt lat="40.487180" lon="-4.579880">
        <ele>833.983</ele>
        <time>2020-02-28T07:42:56Z</time>
      </trkpt>
      <trkpt lat="40.487060" lon="-4.580390">
        <ele>833.164</ele>
        <time>2020-02-28T07:43:16Z</time>
      </trkpt>
      <trkpt lat="40.486720" lon="-4.581410">
        <ele>834.666</ele>
        <time>2020-02-28T07:43:36Z</time>
      </trkpt>
      <trkpt lat="40.486720" lon="-4.581420">
        <ele>834.684</ele>
        <time>2020-02-28T07:43:56Z</time>
      </trkpt>
      <trkpt lat="40.486490" lon="-4.582110">
        <ele>832.937</ele>
        <time>2020-02-28T07:44:16Z</time>
      </trkpt>
      <trkpt lat="40.486490" lon="-4.582130">
        <ele>833.052</ele>
        <time>2020-02-28T07:44:36Z</time>
      </trkpt>
      <trkpt lat="40.486400" lon="-4.582400">
        <ele>832.841</ele>
        <time>2020-02-28T07:44:56Z</time>
      </trkpt>
      <trkpt lat="40.486230" lon="-4.583100">
        <ele>836.981</ele>
        <time>2020-02-28T07:45:16Z</time>
      </trkpt>
      <trkpt lat="40.486150" lon="-4.583600">
        <ele>838.609</ele>
        <time>2020-02-28T07:45:36Z</time>
      </trkpt>
      <trkpt lat="40.486120" lon="-4.583730">
        <ele>839.308</ele>
        <time>2020-02-28T07:45:56Z</time>
      </trkpt>
      <trkpt lat="40.486100" lon="-4.583940">
        <ele>840.118</ele>
        <time>2020-02-28T07:46:16Z</time>
      </trkpt>
      <trkpt lat="40.486100" lon="-4.584880">
        <ele>840.291</ele>
        <time>2020-02-28T07:46:36Z</time>
      </trkpt>
      <trkpt lat="40.486060" lon="-4.585480">
        <ele>840.856</ele>
        <time>2020-02-28T07:46:56Z</time>
      </trkpt>
      <trkpt lat="40.486040" lon="-4.585580">
        <ele>841.087</ele>
        <time>2020-02-28T07:47:16Z</time>
      </trkpt>
      <trkpt lat="40.485970" lon="-4.585820">
        <ele>841.539</ele>
        <time>2020-02-28T07:47:36Z</time>
      </trkpt>
      <trkpt lat="40.485700" lon="-4.586410">
        <ele>842.847</ele>
        <time>2020-02-28T07:47:56Z</time>
      </trkpt>
      <trkpt lat="40.485500" lon="-4.586980">
        <ele>845.910</ele>
        <time>2020-02-28T07:48:16Z</time>
      </trkpt>
      <trkpt lat="40.485350" lon="-4.587580">
        <ele>849.085</ele>
        <time>2020-02-28T07:48:36Z</time>
      </trkpt>
      <trkpt lat="40.485220" lon="-4.588280">
        <ele>851.212</ele>
        <time>2020-02-28T07:48:56Z</time>
      </trkpt>
      <trkpt lat="40.485200" lon="-4.588520">
        <ele>852.432</ele>
        <time>2020-02-28T07:49:16Z</time>
      </trkpt>
      <trkpt lat="40.485220" lon="-4.589030">
        <ele>853.205</ele>
        <time>2020-02-28T07:49:36Z</time>
      </trkpt>
      <trkpt lat="40.485340" lon="-4.590440">
        <ele>853.708</ele>
        <time>2020-02-28T07:49:56Z</time>
      </trkpt>
      <trkpt lat="40.485350" lon="-4.590740">
        <ele>855.135</ele>
        <time>2020-02-28T07:50:16Z</time>
      </trkpt>
      <trkpt lat="40.485330" lon="-4.591070">
        <ele>856.958</ele>
        <time>2020-02-28T07:50:36Z</time>
      </trkpt>
      <trkpt lat="40.485330" lon="-4.591400">
        <ele>858.133</ele>
        <time>2020-02-28T07:50:56Z</time>
      </trkpt>
      <trkpt lat="40.485430" lon="-4.592290">
        <ele>860.754</ele>
        <time>2020-02-28T07:51:16Z</time>
      </trkpt>
      <trkpt lat="40.485460" lon="-4.592760">
        <ele>861.386</ele>
        <time>2020-02-28T07:51:36Z</time>
      </trkpt>
      <trkpt lat="40.485450" lon="-4.593350">
        <ele>862.684</ele>
        <time>2020-02-28T07:51:56Z</time>
      </trkpt>
      <trkpt lat="40.485400" lon="-4.593790">
        <ele>864.367</ele>
        <time>2020-02-28T07:52:16Z</time>
      </trkpt>
      <trkpt lat="40.485350" lon="-4.594090">
        <ele>865.442</ele>
        <time>2020-02-28T07:52:36Z</time>
      </trkpt>
      <trkpt lat="40.485020" lon="-4.595480">
        <ele>871.595</ele>
        <time>2020-02-28T07:52:56Z</time>
      </trkpt>
      <trkpt lat="40.485010" lon="-4.595550">
        <ele>871.849</ele>
        <time>2020-02-28T07:53:16Z</time>
      </trkpt>
      <trkpt lat="40.485000" lon="-4.595570">
        <ele>872.023</ele>
        <time>2020-02-28T07:53:36Z</time>
      </trkpt>
      <trkpt lat="40.484880" lon="-4.595940">
        <ele>873.108</ele>
        <time>2020-02-28T07:53:56Z</time>
      </trkpt>
      <trkpt lat="40.484430" lon="-4.597020">
        <ele>878.273</ele>
        <time>2020-02-28T07:54:16Z</time>
      </trkpt>
      <trkpt lat="40.484220" lon="-4.597410">
        <ele>879.626</ele>
        <time>2020-02-28T07:54:36Z</time>
      </trkpt>
      <trkpt lat="40.483840" lon="-4.598040">
        <ele>881.841</ele>
        <time>2020-02-28T07:54:56Z</time>
      </trkpt>
      <trkpt lat="40.483680" lon="-4.598350">
        <ele>883.032</ele>
        <time>2020-02-28T07:55:16Z</time>
      </trkpt>
      <trkpt lat="40.483520" lon="-4.598610">
        <ele>885.664</ele>
        <time>2020-02-28T07:55:36Z</time>
      </trkpt>
      <trkpt lat="40.483230" lon="-4.599210">
        <ele>891.032</ele>
        <time>2020-02-28T07:55:56Z</time>
      </trkpt>
      <trkpt lat="40.483170" lon="-4.599370">
        <ele>891.575</ele>
        <time>2020-02-28T07:56:16Z</time>
      </trkpt>
      <trkpt lat="40.483120" lon="-4.599540">
        <ele>892.150</ele>
        <time>2020-02-28T07:56:36Z</time>
      </trkpt>
      <trkpt lat="40.483050" lon="-4.600020">
        <ele>891.058</ele>
        <time>2020-02-28T07:56:56Z</time>
      </trkpt>
      <trkpt lat="40.483000" lon="-4.600240">
        <ele>891.352</ele>
        <time>2020-02-28T07:57:16Z</time>
      </trkpt>
      <trkpt lat="40.482990" lon="-4.600240">
        <ele>891.517</ele>
        <time>2020-02-28T07:57:36Z</time>
      </trkpt>
      <trkpt lat="40.482810" lon="-4.600970">
        <ele>893.508</ele>
        <time>2020-02-28T07:57:56Z</time>
      </trkpt>
      <trkpt lat="40.482800" lon="-4.602570">
        <ele>898.339</ele>
        <time>2020-02-28T07:58:16Z</time>
      </trkpt>
      <trkpt lat="40.482820" lon="-4.602730">
        <ele>899.032</ele>
        <time>2020-02-28T07:58:36Z</time>
      </trkpt>
      <trkpt lat="40.482820" lon="-4.602810">
        <ele>899.217</ele>
        <time>2020-02-28T07:58:56Z</time>
      </trkpt>
      <trkpt lat="40.482830" lon="-4.602870">
        <ele>899.358</ele>
        <time>2020-02-28T07:59:16Z</time>
      </trkpt>
      <trkpt lat="40.482850" lon="-4.603200">
        <ele>900.850</ele>
        <time>2020-02-28T07:59:36Z</time>
      </trkpt>
      <trkpt lat="40.482850" lon="-4.603650">
        <ele>904.398</ele>
        <time>2020-02-28T07:59:56Z</time>
      </trkpt>
      <trkpt lat="40.482830" lon="-4.603860">
        <ele>905.511</ele>
        <time>2020-02-28T08:00:16Z</time>
      </trkpt>
      <trkpt lat="40.482800" lon="-4.603980">
        <ele>906.356</ele>
        <time>2020-02-28T08:00:36Z</time>
      </trkpt>
      <trkpt lat="40.482640" lon="-4.604360">
        <ele>907.474</ele>
        <time>2020-02-28T08:00:56Z</time>
      </trkpt>
      <trkpt lat="40.482570" lon="-4.604620">
        <ele>907.656</ele>
        <time>2020-02-28T08:01:16Z</time>
      </trkpt>
      <trkpt lat="40.482560" lon="-4.604640">
        <ele>907.621</ele>
        <time>2020-02-28T08:01:36Z</time>
      </trkpt>
      <trkpt lat="40.482540" lon="-4.604850">
        <ele>908.408</ele>
        <time>2020-02-28T08:01:56Z</time>
      </trkpt>
      <trkpt lat="40.482530" lon="-4.604870">
        <ele>908.421</ele>
        <time>2020-02-28T08:02:16Z</time>
      </trkpt>
      <trkpt lat="40.482500" lon="-4.605750">
        <ele>912.064</ele>
        <time>2020-02-28T08:02:36Z</time>
      </trkpt>
      <trkpt lat="40.482590" lon="-4.606490">
        <ele>913.749</ele>
        <time>2020-02-28T08:02:56Z</time>
      </trkpt>
      <trkpt lat="40.482610" lon="-4.606870">
        <ele>915.330</ele>
        <time>2020-02-28T08:03:16Z</time>
      </trkpt>
      <trkpt lat="40.482590" lon="-4.607100">
        <ele>915.962</ele>
        <time>2020-02-28T08:03:36Z</time>
      </trkpt>
      <trkpt lat="40.482530" lon="-4.607420">
        <ele>916.190</ele>
        <time>2020-02-28T08:03:56Z</time>
      </trkpt>
      <trkpt lat="40.482520" lon="-4.607430">
        <ele>916.043</ele>
        <time>2020-02-28T08:04:16Z</time>
      </trkpt>
      <trkpt lat="40.482370" lon="-4.607840">
        <ele>919.288</ele>
        <time>2020-02-28T08:04:36Z</time>
      </trkpt>
      <trkpt lat="40.482360" lon="-4.607850">
        <ele>919.486</ele>
        <time>2020-02-28T08:04:56Z</time>
      </trkpt>
      <trkpt lat="40.482300" lon="-4.608120">
        <ele>922.060</ele>
        <time>2020-02-28T08:05:16Z</time>
      </trkpt>
      <trkpt lat="40.482290" lon="-4.609060">
        <ele>928.726</ele>
        <time>2020-02-28T08:05:36Z</time>
      </trkpt>
      <trkpt lat="40.482200" lon="-4.609960">
        <ele>932.308</ele>
        <time>2020-02-28T08:05:56Z</time>
      </trkpt>
      <trkpt lat="40.482200" lon="-4.610010">
        <ele>932.332</ele>
        <time>2020-02-28T08:06:16Z</time>
      </trkpt>
      <trkpt lat="40.481850" lon="-4.611130">
        <ele>939.715</ele>
        <time>2020-02-28T08:06:36Z</time>
      </trkpt>
      <trkpt lat="40.481830" lon="-4.611220">
        <ele>939.880</ele>
        <time>2020-02-28T08:06:56Z</time>
      </trkpt>
      <trkpt lat="40.481830" lon="-4.611250">
        <ele>939.851</ele>
        <time>2020-02-28T08:07:16Z</time>
      </trkpt>
      <trkpt lat="40.481820" lon="-4.611280">
        <ele>939.963</ele>
        <time>2020-02-28T08:07:36Z</time>
      </trkpt>
      <trkpt lat="40.481800" lon="-4.611480">
        <ele>940.421</ele>
        <time>2020-02-28T08:07:56Z</time>
      </trkpt>
      <trkpt lat="40.481840" lon="-4.611990">
        <ele>942.614</ele>
        <time>2020-02-28T08:08:16Z</time>
      </trkpt>
      <trkpt lat="40.481880" lon="-4.612240">
        <ele>944.679</ele>
        <time>2020-02-28T08:08:36Z</time>
      </trkpt>
      <trkpt lat="40.481990" lon="-4.612660">
        <ele>946.669</ele>
        <time>2020-02-28T08:08:56Z</time>
      </trkpt>
      <trkpt lat="40.481990" lon="-4.612670">
        <ele>946.604</ele>
        <time>2020-02-28T08:09:16Z</time>
      </trkpt>
      <trkpt lat="40.482080" lon="-4.612920">
        <ele>946.824</ele>
        <time>2020-02-28T08:09:36Z</time>
      </trkpt>
      <trkpt lat="40.482140" lon="-4.613180">
        <ele>946.908</ele>
        <time>2020-02-28T08:09:56Z</time>
      </trkpt>
      <trkpt lat="40.482140" lon="-4.613250">
        <ele>947.240</ele>
        <time>2020-02-28T08:10:16Z</time>
      </trkpt>
      <trkpt lat="40.482150" lon="-4.613300">
        <ele>947.223</ele>
        <time>2020-02-28T08:10:36Z</time>
      </trkpt>
      <trkpt lat="40.482150" lon="-4.613440">
        <ele>948.028</ele>
        <time>2020-02-28T08:10:56Z</time>
      </trkpt>
      <trkpt lat="40.482130" lon="-4.613590">
        <ele>949.259</ele>
        <time>2020-02-28T08:11:16Z</time>
      </trkpt>
      <trkpt lat="40.481830" lon="-4.614690">
        <ele>955.911</ele>
        <time>2020-02-28T08:11:36Z</time>
      </trkpt>
      <trkpt lat="40.481740" lon="-4.614970">
        <ele>956.999</ele>
        <time>2020-02-28T08:11:56Z</time>
      </trkpt>
      <trkpt lat="40.481470" lon="-4.616030">
        <ele>963.512</ele>
        <time>2020-02-28T08:12:16Z</time>
      </trkpt>
      <trkpt lat="40.481460" lon="-4.616050">
        <ele>963.877</ele>
        <time>2020-02-28T08:12:36Z</time>
      </trkpt>
      <trkpt lat="40.481440" lon="-4.616240">
        <ele>965.439</ele>
        <time>2020-02-28T08:12:56Z</time>
      </trkpt>
      <trkpt lat="40.481450" lon="-4.616490">
        <ele>967.401</ele>
        <time>2020-02-28T08:13:16Z</time>
      </trkpt>
      <trkpt lat="40.481460" lon="-4.616500">
        <ele>967.321</ele>
        <time>2020-02-28T08:13:36Z</time>
      </trkpt>
      <trkpt lat="40.481620" lon="-4.617450">
        <ele>971.208</ele>
        <time>2020-02-28T08:13:56Z</time>
      </trkpt>
      <trkpt lat="40.481690" lon="-4.618120">
        <ele>974.557</ele>
        <time>2020-02-28T08:14:16Z</time>
      </trkpt>
      <trkpt lat="40.481680" lon="-4.618600">
        <ele>977.070</ele>
        <time>2020-02-28T08:14:36Z</time>
      </trkpt>
      <trkpt lat="40.481580" lon="-4.619130">
        <ele>979.995</ele>
        <time>2020-02-28T08:14:56Z</time>
      </trkpt>
      <trkpt lat="40.481460" lon="-4.620170">
        <ele>985.846</ele>
        <time>2020-02-28T08:15:16Z</time>
      </trkpt>
      <trkpt lat="40.481460" lon="-4.620210">
        <ele>986.088</ele>
        <time>2020-02-28T08:15:36Z</time>
      </trkpt>
      <trkpt lat="40.481360" lon="-4.620870">
        <ele>989.266</ele>
        <time>2020-02-28T08:15:56Z</time>
      </trkpt>
      <trkpt lat="40.481300" lon="-4.621140">
        <ele>990.949</ele>
        <time>2020-02-28T08:16:16Z</time>
      </trkpt>
      <trkpt lat="40.481140" lon="-4.621510">
        <ele>993.034</ele>
        <time>2020-02-28T08:16:36Z</time>
      </trkpt>
      <trkpt lat="40.480860" lon="-4.621950">
        <ele>996.031</ele>
        <time>2020-02-28T08:16:56Z</time>
      </trkpt>
      <trkpt lat="40.480710" lon="-4.622270">
        <ele>997.961</ele>
        <time>2020-02-28T08:17:16Z</time>
      </trkpt>
      <trkpt lat="40.480580" lon="-4.622610">
        <ele>999.607</ele>
        <time>2020-02-28T08:17:36Z</time>
      </trkpt>
      <trkpt lat="40.480330" lon="-4.623380">
        <ele>1003.608</ele>
        <time>2020-02-28T08:17:56Z</time>
      </trkpt>
      <trkpt lat="40.480280" lon="-4.623610">
        <ele>1003.067</ele>
        <time>2020-02-28T08:18:16Z</time>
      </trkpt>
      <trkpt lat="40.480210" lon="-4.624480">
        <ele>1000.830</ele>
        <time>2020-02-28T08:18:36Z</time>
      </trkpt>
      <trkpt lat="40.480200" lon="-4.624990">
        <ele>1000.085</ele>
        <time>2020-02-28T08:18:56Z</time>
      </trkpt>
      <trkpt lat="40.480190" lon="-4.625090">
        <ele>999.876</ele>
        <time>2020-02-28T08:19:16Z</time>
      </trkpt>
      <trkpt lat="40.480190" lon="-4.625700">
        <ele>998.818</ele>
        <time>2020-02-28T08:19:36Z</time>
      </trkpt>
      <trkpt lat="40.480290" lon="-4.627010">
        <ele>996.996</ele>
        <time>2020-02-28T08:19:56Z</time>
      </trkpt>
      <trkpt lat="40.480270" lon="-4.627630">
        <ele>995.969</ele>
        <time>2020-02-28T08:20:16Z</time>
      </trkpt>
      <trkpt lat="40.480210" lon="-4.628060">
        <ele>996.344</ele>
        <time>2020-02-28T08:20:36Z</time>
      </trkpt>
      <trkpt lat="40.479940" lon="-4.628930">
        <ele>994.575</ele>
        <time>2020-02-28T08:20:56Z</time>
      </trkpt>
      <trkpt lat="40.479930" lon="-4.628980">
        <ele>994.628</ele>
        <time>2020-02-28T08:21:16Z</time>
      </trkpt>
      <trkpt lat="40.479600" lon="-4.629940">
        <ele>994.920</ele>
        <time>2020-02-28T08:21:36Z</time>
      </trkpt>
      <trkpt lat="40.478940" lon="-4.631620">
        <ele>993.508</ele>
        <time>2020-02-28T08:21:56Z</time>
      </trkpt>
      <trkpt lat="40.478590" lon="-4.632750">
        <ele>992.811</ele>
        <time>2020-02-28T08:22:16Z</time>
      </trkpt>
      <trkpt lat="40.478500" lon="-4.632920">
        <ele>992.764</ele>
        <time>2020-02-28T08:22:36Z</time>
      </trkpt>
      <trkpt lat="40.478350" lon="-4.633260">
        <ele>992.129</ele>
        <time>2020-02-28T08:22:56Z</time>
      </trkpt>
      <trkpt lat="40.478260" lon="-4.633530">
        <ele>992.330</ele>
        <time>2020-02-28T08:23:16Z</time>
      </trkpt>
      <trkpt lat="40.478240" lon="-4.633570">
        <ele>992.262</ele>
        <time>2020-02-28T08:23:36Z</time>
      </trkpt>
      <trkpt lat="40.478090" lon="-4.634420">
        <ele>990.460</ele>
        <time>2020-02-28T08:23:56Z</time>
      </trkpt>
      <trkpt lat="40.477990" lon="-4.634790">
        <ele>990.573</ele>
        <time>2020-02-28T08:24:16Z</time>
      </trkpt>
      <trkpt lat="40.477910" lon="-4.634990">
        <ele>990.048</ele>
        <time>2020-02-28T08:24:36Z</time>
      </trkpt>
      <trkpt lat="40.477860" lon="-4.635150">
        <ele>989.682</ele>
        <time>2020-02-28T08:24:56Z</time>
      </trkpt>
      <trkpt lat="40.477800" lon="-4.635440">
        <ele>989.243</ele>
        <time>2020-02-28T08:25:16Z</time>
      </trkpt>
      <trkpt lat="40.477780" lon="-4.635770">
        <ele>989.817</ele>
        <time>2020-02-28T08:25:36Z</time>
      </trkpt>
      <trkpt lat="40.477780" lon="-4.636100">
        <ele>990.008</ele>
        <time>2020-02-28T08:25:56Z</time>
      </trkpt>
      <trkpt lat="40.477770" lon="-4.636220">
        <ele>990.862</ele>
        <time>2020-02-28T08:26:16Z</time>
      </trkpt>
      <trkpt lat="40.477730" lon="-4.636410">
        <ele>992.175</ele>
        <time>2020-02-28T08:26:36Z</time>
      </trkpt>
      <trkpt lat="40.477720" lon="-4.636420">
        <ele>992.180</ele>
        <time>2020-02-28T08:26:56Z</time>
      </trkpt>
      <trkpt lat="40.477720" lon="-4.636440">
        <ele>992.231</ele>
        <time>2020-02-28T08:27:16Z</time>
      </trkpt>
      <trkpt lat="40.477710" lon="-4.636450">
        <ele>992.233</ele>
        <time>2020-02-28T08:27:36Z</time>
      </trkpt>
      <trkpt lat="40.477710" lon="-4.636460">
        <ele>992.371</ele>
        <time>2020-02-28T08:27:56Z</time>
      </trkpt>
      <trkpt lat="40.477600" lon="-4.636750">
        <ele>993.534</ele>
        <time>2020-02-28T08:28:16Z</time>
      </trkpt>
      <trkpt lat="40.477330" lon="-4.637240">
        <ele>996.119</ele>
        <time>2020-02-28T08:28:36Z</time>
      </trkpt>
      <trkpt lat="40.477150" lon="-4.637520">
        <ele>997.834</ele>
        <time>2020-02-28T08:28:56Z</time>
      </trkpt>
      <trkpt lat="40.477090" lon="-4.637640">
        <ele>998.355</ele>
        <time>2020-02-28T08:29:16Z</time>
      </trkpt>
      <trkpt lat="40.477030" lon="-4.637670">
        <ele>998.310</ele>
        <time>2020-02-28T08:29:36Z</time>
      </trkpt>
      <trkpt lat="40.476900" lon="-4.637710">
        <ele>998.508</ele>
        <time>2020-02-28T08:29:56Z</time>
      </trkpt>
      <trkpt lat="40.476490" lon="-4.637710">
        <ele>998.027</ele>
        <time>2020-02-28T08:30:16Z</time>
      </trkpt>
      <trkpt lat="40.476220" lon="-4.637640">
        <ele>997.880</ele>
        <time>2020-02-28T08:30:36Z</time>
      </trkpt>
      <trkpt lat="40.475830" lon="-4.637600">
        <ele>997.745</ele>
        <time>2020-02-28T08:30:56Z</time>
      </trkpt>
      <trkpt lat="40.475670" lon="-4.637670">
        <ele>997.936</ele>
        <time>2020-02-28T08:31:16Z</time>
      </trkpt>
      <trkpt lat="40.475620" lon="-4.637710">
        <ele>997.948</ele>
        <time>2020-02-28T08:31:36Z</time>
      </trkpt>
      <trkpt lat="40.475400" lon="-4.637960">
        <ele>998.826</ele>
        <time>2020-02-28T08:31:56Z</time>
      </trkpt>
      <trkpt lat="40.475120" lon="-4.638190">
        <ele>999.269</ele>
        <time>2020-02-28T08:32:16Z</time>
      </trkpt>
      <trkpt lat="40.474910" lon="-4.638330">
        <ele>999.734</ele>
        <time>2020-02-28T08:32:36Z</time>
      </trkpt>
      <trkpt lat="40.474900" lon="-4.638330">
        <ele>999.645</ele>
        <time>2020-02-28T08:32:56Z</time>
      </trkpt>
      <trkpt lat="40.474830" lon="-4.638380">
        <ele>999.547</ele>
        <time>2020-02-28T08:33:16Z</time>
      </trkpt>
      <trkpt lat="40.475420" lon="-4.639380">
        <ele>1003.311</ele>
        <time>2020-02-28T08:33:36Z</time>
      </trkpt>
      <trkpt lat="40.475430" lon="-4.639410">
        <ele>1003.408</ele>
        <time>2020-02-28T08:33:56Z</time>
      </trkpt>
      <trkpt lat="40.475980" lon="-4.640270">
        <ele>1008.018</ele>
        <time>2020-02-28T08:34:16Z</time>
      </trkpt>
      <trkpt lat="40.476080" lon="-4.640460">
        <ele>1008.611</ele>
        <time>2020-02-28T08:34:36Z</time>
      </trkpt>
      <trkpt lat="40.476150" lon="-4.640560">
        <ele>1009.426</ele>
        <time>2020-02-28T08:34:56Z</time>
      </trkpt>
      <trkpt lat="40.476710" lon="-4.641850">
        <ele>1016.367</ele>
        <time>2020-02-28T08:35:16Z</time>
      </trkpt>
      <trkpt lat="40.476800" lon="-4.642130">
        <ele>1016.659</ele>
        <time>2020-02-28T08:35:36Z</time>
      </trkpt>
      <trkpt lat="40.476890" lon="-4.642530">
        <ele>1016.687</ele>
        <time>2020-02-28T08:35:56Z</time>
      </trkpt>
      <trkpt lat="40.477030" lon="-4.643350">
        <ele>1016.750</ele>
        <time>2020-02-28T08:36:16Z</time>
      </trkpt>
      <trkpt lat="40.477200" lon="-4.643670">
        <ele>1018.935</ele>
        <time>2020-02-28T08:36:36Z</time>
      </trkpt>
      <trkpt lat="40.477220" lon="-4.643730">
        <ele>1019.039</ele>
        <time>2020-02-28T08:36:56Z</time>
      </trkpt>
      <trkpt lat="40.477310" lon="-4.643890">
        <ele>1019.301</ele>
        <time>2020-02-28T08:37:16Z</time>
      </trkpt>
      <trkpt lat="40.477420" lon="-4.644120">
        <ele>1020.521</ele>
        <time>2020-02-28T08:37:36Z</time>
      </trkpt>
      <trkpt lat="40.478060" lon="-4.645270">
        <ele>1028.008</ele>
        <time>2020-02-28T08:37:56Z</time>
      </trkpt>
      <trkpt lat="40.478200" lon="-4.645590">
        <ele>1028.627</ele>
        <time>2020-02-28T08:38:16Z</time>
      </trkpt>
      <trkpt lat="40.478240" lon="-4.645730">
        <ele>1029.340</ele>
        <time>2020-02-28T08:38:36Z</time>
      </trkpt>
      <trkpt lat="40.478380" lon="-4.647070">
        <ele>1032.615</ele>
        <time>2020-02-28T08:38:56Z</time>
      </trkpt>
      <trkpt lat="40.478400" lon="-4.647170">
        <ele>1033.186</ele>
        <time>2020-02-28T08:39:16Z</time>
      </trkpt>
      <trkpt lat="40.478580" lon="-4.648880">
        <ele>1033.998</ele>
        <time>2020-02-28T08:39:36Z</time>
      </trkpt>
      <trkpt lat="40.478620" lon="-4.649140">
        <ele>1034.126</ele>
        <time>2020-02-28T08:39:56Z</time>
      </trkpt>
      <trkpt lat="40.478630" lon="-4.649270">
        <ele>1033.849</ele>
        <time>2020-02-28T08:40:16Z</time>
      </trkpt>
      <trkpt lat="40.478870" lon="-4.650840">
        <ele>1034.974</ele>
        <time>2020-02-28T08:40:36Z</time>
      </trkpt>
      <trkpt lat="40.478870" lon="-4.650860">
        <ele>1035.019</ele>
        <time>2020-02-28T08:40:56Z</time>
      </trkpt>
      <trkpt lat="40.478880" lon="-4.650860">
        <ele>1035.009</ele>
        <time>2020-02-28T08:41:16Z</time>
      </trkpt>
      <trkpt lat="40.478910" lon="-4.650990">
        <ele>1035.719</ele>
        <time>2020-02-28T08:41:36Z</time>
      </trkpt>
      <trkpt lat="40.479110" lon="-4.652240">
        <ele>1040.408</ele>
        <time>2020-02-28T08:41:56Z</time>
      </trkpt>
      <trkpt lat="40.479160" lon="-4.652360">
        <ele>1040.935</ele>
        <time>2020-02-28T08:42:16Z</time>
      </trkpt>
      <trkpt lat="40.479230" lon="-4.652490">
        <ele>1041.548</ele>
        <time>2020-02-28T08:42:36Z</time>
      </trkpt>
      <trkpt lat="40.479200" lon="-4.652620">
        <ele>1040.873</ele>
        <time>2020-02-28T08:42:56Z</time>
      </trkpt>
      <trkpt lat="40.479190" lon="-4.652630">
        <ele>1040.784</ele>
        <time>2020-02-28T08:43:16Z</time>
      </trkpt>
      <trkpt lat="40.479180" lon="-4.652660">
        <ele>1040.566</ele>
        <time>2020-02-28T08:43:36Z</time>
      </trkpt>
      <trkpt lat="40.479180" lon="-4.652760">
        <ele>1040.234</ele>
        <time>2020-02-28T08:43:56Z</time>
      </trkpt>
      <trkpt lat="40.479400" lon="-4.654070">
        <ele>1040.637</ele>
        <time>2020-02-28T08:44:16Z</time>
      </trkpt>
      <trkpt lat="40.479450" lon="-4.654270">
        <ele>1040.772</ele>
        <time>2020-02-28T08:44:36Z</time>
      </trkpt>
      <trkpt lat="40.480560" lon="-4.660750">
        <ele>1051.864</ele>
        <time>2020-02-28T08:44:56Z</time>
      </trkpt>
      <trkpt lat="40.480590" lon="-4.661430">
        <ele>1054.906</ele>
        <time>2020-02-28T08:45:16Z</time>
      </trkpt>
      <trkpt lat="40.480590" lon="-4.662220">
        <ele>1054.716</ele>
        <time>2020-02-28T08:45:36Z</time>
      </trkpt>
      <trkpt lat="40.480660" lon="-4.662780">
        <ele>1054.908</ele>
        <time>2020-02-28T08:45:56Z</time>
      </trkpt>
      <trkpt lat="40.480740" lon="-4.663140">
        <ele>1055.160</ele>
        <time>2020-02-28T08:46:16Z</time>
      </trkpt>
      <trkpt lat="40.480860" lon="-4.663560">
        <ele>1055.463</ele>
        <time>2020-02-28T08:46:36Z</time>
      </trkpt>
      <trkpt lat="40.480870" lon="-4.663580">
        <ele>1055.488</ele>
        <time>2020-02-28T08:46:56Z</time>
      </trkpt>
      <trkpt lat="40.480920" lon="-4.663810">
        <ele>1054.919</ele>
        <time>2020-02-28T08:47:16Z</time>
      </trkpt>
      <trkpt lat="40.481150" lon="-4.664600">
        <ele>1054.261</ele>
        <time>2020-02-28T08:47:36Z</time>
      </trkpt>
      <trkpt lat="40.481260" lon="-4.664900">
        <ele>1054.429</ele>
        <time>2020-02-28T08:47:56Z</time>
      </trkpt>
      <trkpt lat="40.481260" lon="-4.664910">
        <ele>1054.392</ele>
        <time>2020-02-28T08:48:16Z</time>
      </trkpt>
      <trkpt lat="40.481510" lon="-4.665440">
        <ele>1054.937</ele>
        <time>2020-02-28T08:48:36Z</time>
      </trkpt>
      <trkpt lat="40.482510" lon="-4.667130">
        <ele>1061.458</ele>
        <time>2020-02-28T08:48:56Z</time>
      </trkpt>
      <trkpt lat="40.482790" lon="-4.667500">
        <ele>1061.052</ele>
        <time>2020-02-28T08:49:16Z</time>
      </trkpt>
      <trkpt lat="40.483300" lon="-4.667940">
        <ele>1059.717</ele>
        <time>2020-02-28T08:49:36Z</time>
      </trkpt>
      <trkpt lat="40.483360" lon="-4.667980">
        <ele>1059.708</ele>
        <time>2020-02-28T08:49:56Z</time>
      </trkpt>
      <trkpt lat="40.483530" lon="-4.668150">
        <ele>1058.069</ele>
        <time>2020-02-28T08:50:16Z</time>
      </trkpt>
      <trkpt lat="40.483700" lon="-4.668410">
        <ele>1055.192</ele>
        <time>2020-02-28T08:50:36Z</time>
      </trkpt>
      <trkpt lat="40.483720" lon="-4.668430">
        <ele>1055.187</ele>
        <time>2020-02-28T08:50:56Z</time>
      </trkpt>
      <trkpt lat="40.483800" lon="-4.668610">
        <ele>1052.738</ele>
        <time>2020-02-28T08:51:16Z</time>
      </trkpt>
      <trkpt lat="40.483940" lon="-4.669090">
        <ele>1052.510</ele>
        <time>2020-02-28T08:51:36Z</time>
      </trkpt>
      <trkpt lat="40.483960" lon="-4.669280">
        <ele>1056.078</ele>
        <time>2020-02-28T08:51:56Z</time>
      </trkpt>
      <trkpt lat="40.483970" lon="-4.669300">
        <ele>1056.571</ele>
        <time>2020-02-28T08:52:16Z</time>
      </trkpt>
      <trkpt lat="40.483970" lon="-4.669680">
        <ele>1061.856</ele>
        <time>2020-02-28T08:52:36Z</time>
      </trkpt>
      <trkpt lat="40.483930" lon="-4.669970">
        <ele>1063.558</ele>
        <time>2020-02-28T08:52:56Z</time>
      </trkpt>
      <trkpt lat="40.483900" lon="-4.670100">
        <ele>1063.652</ele>
        <time>2020-02-28T08:53:16Z</time>
      </trkpt>
      <trkpt lat="40.483790" lon="-4.670420">
        <ele>1064.317</ele>
        <time>2020-02-28T08:53:36Z</time>
      </trkpt>
      <trkpt lat="40.483760" lon="-4.670480">
        <ele>1064.508</ele>
        <time>2020-02-28T08:53:56Z</time>
      </trkpt>
      <trkpt lat="40.483510" lon="-4.670880">
        <ele>1064.879</ele>
        <time>2020-02-28T08:54:16Z</time>
      </trkpt>
      <trkpt lat="40.483110" lon="-4.671580">
        <ele>1063.712</ele>
        <time>2020-02-28T08:54:36Z</time>
      </trkpt>
      <trkpt lat="40.482900" lon="-4.671870">
        <ele>1066.447</ele>
        <time>2020-02-28T08:54:56Z</time>
      </trkpt>
      <trkpt lat="40.482510" lon="-4.672300">
        <ele>1074.188</ele>
        <time>2020-02-28T08:55:16Z</time>
      </trkpt>
      <trkpt lat="40.482000" lon="-4.672800">
        <ele>1074.310</ele>
        <time>2020-02-28T08:55:36Z</time>
      </trkpt>
      <trkpt lat="40.481940" lon="-4.672850">
        <ele>1074.428</ele>
        <time>2020-02-28T08:55:56Z</time>
      </trkpt>
      <trkpt lat="40.481710" lon="-4.673080">
        <ele>1080.671</ele>
        <time>2020-02-28T08:56:16Z</time>
      </trkpt>
      <trkpt lat="40.481700" lon="-4.673080">
        <ele>1080.586</ele>
        <time>2020-02-28T08:56:36Z</time>
      </trkpt>
      <trkpt lat="40.481630" lon="-4.673180">
        <ele>1081.336</ele>
        <time>2020-02-28T08:56:56Z</time>
      </trkpt>
      <trkpt lat="40.481440" lon="-4.673410">
        <ele>1079.417</ele>
        <time>2020-02-28T08:57:16Z</time>
      </trkpt>
      <trkpt lat="40.481350" lon="-4.673550">
        <ele>1078.418</ele>
        <time>2020-02-28T08:57:36Z</time>
      </trkpt>
      <trkpt lat="40.481200" lon="-4.673750">
        <ele>1079.308</ele>
        <time>2020-02-28T08:57:56Z</time>
      </trkpt>
      <trkpt lat="40.481180" lon="-4.673770">
        <ele>1079.367</ele>
        <time>2020-02-28T08:58:16Z</time>
      </trkpt>
      <trkpt lat="40.481080" lon="-4.673920">
        <ele>1080.750</ele>
        <time>2020-02-28T08:58:36Z</time>
      </trkpt>
      <trkpt lat="40.481000" lon="-4.674020">
        <ele>1080.245</ele>
        <time>2020-02-28T08:58:56Z</time>
      </trkpt>
      <trkpt lat="40.480610" lon="-4.674580">
        <ele>1084.546</ele>
        <time>2020-02-28T08:59:16Z</time>
      </trkpt>
      <trkpt lat="40.480580" lon="-4.674610">
        <ele>1084.738</ele>
        <time>2020-02-28T08:59:36Z</time>
      </trkpt>
      <trkpt lat="40.480270" lon="-4.675040">
        <ele>1088.896</ele>
        <time>2020-02-28T08:59:56Z</time>
      </trkpt>
      <trkpt lat="40.480080" lon="-4.675380">
        <ele>1092.149</ele>
        <time>2020-02-28T09:00:16Z</time>
      </trkpt>
      <trkpt lat="40.479290" lon="-4.677100">
        <ele>1096.514</ele>
        <time>2020-02-28T09:00:36Z</time>
      </trkpt>
      <trkpt lat="40.479170" lon="-4.677330">
        <ele>1095.751</ele>
        <time>2020-02-28T09:00:56Z</time>
      </trkpt>
      <trkpt lat="40.479080" lon="-4.677540">
        <ele>1096.101</ele>
        <time>2020-02-28T09:01:16Z</time>
      </trkpt>
      <trkpt lat="40.479060" lon="-4.677630">
        <ele>1096.111</ele>
        <time>2020-02-28T09:01:36Z</time>
      </trkpt>
      <trkpt lat="40.479030" lon="-4.677710">
        <ele>1095.708</ele>
        <time>2020-02-28T09:01:56Z</time>
      </trkpt>
      <trkpt lat="40.478990" lon="-4.677980">
        <ele>1096.299</ele>
        <time>2020-02-28T09:02:16Z</time>
      </trkpt>
      <trkpt lat="40.479000" lon="-4.678630">
        <ele>1099.832</ele>
        <time>2020-02-28T09:02:36Z</time>
      </trkpt>
      <trkpt lat="40.478980" lon="-4.678890">
        <ele>1102.057</ele>
        <time>2020-02-28T09:02:56Z</time>
      </trkpt>
      <trkpt lat="40.478970" lon="-4.678910">
        <ele>1101.988</ele>
        <time>2020-02-28T09:03:16Z</time>
      </trkpt>
      <trkpt lat="40.478970" lon="-4.678940">
        <ele>1102.270</ele>
        <time>2020-02-28T09:03:36Z</time>
      </trkpt>
      <trkpt lat="40.478930" lon="-4.679020">
        <ele>1101.828</ele>
        <time>2020-02-28T09:03:56Z</time>
      </trkpt>
      <trkpt lat="40.478900" lon="-4.679040">
        <ele>1101.041</ele>
        <time>2020-02-28T09:04:16Z</time>
      </trkpt>
      <trkpt lat="40.478870" lon="-4.679070">
        <ele>1100.826</ele>
        <time>2020-02-28T09:04:36Z</time>
      </trkpt>
      <trkpt lat="40.478710" lon="-4.679180">
        <ele>1100.274</ele>
        <time>2020-02-28T09:04:56Z</time>
      </trkpt>
      <trkpt lat="40.478600" lon="-4.679270">
        <ele>1099.556</ele>
        <time>2020-02-28T09:05:16Z</time>
      </trkpt>
      <trkpt lat="40.478550" lon="-4.679340">
        <ele>1099.121</ele>
        <time>2020-02-28T09:05:36Z</time>
      </trkpt>
      <trkpt lat="40.478490" lon="-4.679470">
        <ele>1099.008</ele>
        <time>2020-02-28T09:05:56Z</time>
      </trkpt>
      <trkpt lat="40.478430" lon="-4.679640">
        <ele>1099.181</ele>
        <time>2020-02-28T09:06:16Z</time>
      </trkpt>
      <trkpt lat="40.478080" lon="-4.681160">
        <ele>1100.674</ele>
        <time>2020-02-28T09:06:36Z</time>
      </trkpt>
      <trkpt lat="40.477670" lon="-4.683250">
        <ele>1103.219</ele>
        <time>2020-02-28T09:06:56Z</time>
      </trkpt>
      <trkpt lat="40.477560" lon="-4.683700">
        <ele>1105.560</ele>
        <time>2020-02-28T09:07:16Z</time>
      </trkpt>
      <trkpt lat="40.477380" lon="-4.684660">
        <ele>1112.832</ele>
        <time>2020-02-28T09:07:36Z</time>
      </trkpt>
      <trkpt lat="40.477240" lon="-4.685260">
        <ele>1118.020</ele>
        <time>2020-02-28T09:07:56Z</time>
      </trkpt>
      <trkpt lat="40.477160" lon="-4.685460">
        <ele>1118.623</ele>
        <time>2020-02-28T09:08:16Z</time>
      </trkpt>
      <trkpt lat="40.477150" lon="-4.685470">
        <ele>1118.648</ele>
        <time>2020-02-28T09:08:36Z</time>
      </trkpt>
      <trkpt lat="40.476790" lon="-4.686350">
        <ele>1122.183</ele>
        <time>2020-02-28T09:08:56Z</time>
      </trkpt>
      <trkpt lat="40.476770" lon="-4.686380">
        <ele>1122.125</ele>
        <time>2020-02-28T09:09:16Z</time>
      </trkpt>
      <trkpt lat="40.476610" lon="-4.686760">
        <ele>1122.417</ele>
        <time>2020-02-28T09:09:36Z</time>
      </trkpt>
      <trkpt lat="40.476090" lon="-4.687760">
        <ele>1123.808</ele>
        <time>2020-02-28T09:09:56Z</time>
      </trkpt>
      <trkpt lat="40.475660" lon="-4.689000">
        <ele>1125.572</ele>
        <time>2020-02-28T09:10:16Z</time>
      </trkpt>
      <trkpt lat="40.475660" lon="-4.689020">
        <ele>1125.635</ele>
        <time>2020-02-28T09:10:36Z</time>
      </trkpt>
      <trkpt lat="40.475610" lon="-4.689160">
        <ele>1125.650</ele>
        <time>2020-02-28T09:10:56Z</time>
      </trkpt>
      <trkpt lat="40.475400" lon="-4.689570">
        <ele>1126.621</ele>
        <time>2020-02-28T09:11:16Z</time>
      </trkpt>
      <trkpt lat="40.473800" lon="-4.692180">
        <ele>1130.013</ele>
        <time>2020-02-28T09:11:36Z</time>
      </trkpt>
      <trkpt lat="40.473460" lon="-4.692660">
        <ele>1132.631</ele>
        <time>2020-02-28T09:11:56Z</time>
      </trkpt>
      <trkpt lat="40.472590" lon="-4.693690">
        <ele>1134.324</ele>
        <time>2020-02-28T09:12:16Z</time>
      </trkpt>
      <trkpt lat="40.472360" lon="-4.693930">
        <ele>1134.439</ele>
        <time>2020-02-28T09:12:36Z</time>
      </trkpt>
      <trkpt lat="40.472010" lon="-4.694340">
        <ele>1136.568</ele>
        <time>2020-02-28T09:12:56Z</time>
      </trkpt>
      <trkpt lat="40.471720" lon="-4.694750">
        <ele>1139.142</ele>
        <time>2020-02-28T09:13:16Z</time>
      </trkpt>
      <trkpt lat="40.471420" lon="-4.695300">
        <ele>1142.326</ele>
        <time>2020-02-28T09:13:36Z</time>
      </trkpt>
      <trkpt lat="40.471220" lon="-4.695790">
        <ele>1145.808</ele>
        <time>2020-02-28T09:13:56Z</time>
      </trkpt>
      <trkpt lat="40.471010" lon="-4.696450">
        <ele>1148.580</ele>
        <time>2020-02-28T09:14:16Z</time>
      </trkpt>
      <trkpt lat="40.470930" lon="-4.696660">
        <ele>1148.733</ele>
        <time>2020-02-28T09:14:36Z</time>
      </trkpt>
      <trkpt lat="40.470800" lon="-4.697100">
        <ele>1148.748</ele>
        <time>2020-02-28T09:14:56Z</time>
      </trkpt>
      <trkpt lat="40.470800" lon="-4.697120">
        <ele>1148.889</ele>
        <time>2020-02-28T09:15:16Z</time>
      </trkpt>
      <trkpt lat="40.470470" lon="-4.698080">
        <ele>1147.771</ele>
        <time>2020-02-28T09:15:36Z</time>
      </trkpt>
      <trkpt lat="40.470300" lon="-4.698520">
        <ele>1143.529</ele>
        <time>2020-02-28T09:15:56Z</time>
      </trkpt>
      <trkpt lat="40.470110" lon="-4.698930">
        <ele>1142.812</ele>
        <time>2020-02-28T09:16:16Z</time>
      </trkpt>
      <trkpt lat="40.469460" lon="-4.700150">
        <ele>1138.567</ele>
        <time>2020-02-28T09:16:36Z</time>
      </trkpt>
      <trkpt lat="40.469190" lon="-4.700970">
        <ele>1137.193</ele>
        <time>2020-02-28T09:16:56Z</time>
      </trkpt>
      <trkpt lat="40.468640" lon="-4.703020">
        <ele>1126.465</ele>
        <time>2020-02-28T09:17:16Z</time>
      </trkpt>
      <trkpt lat="40.468640" lon="-4.703050">
        <ele>1126.421</ele>
        <time>2020-02-28T09:17:36Z</time>
      </trkpt>
      <trkpt lat="40.468410" lon="-4.703880">
        <ele>1126.308</ele>
        <time>2020-02-28T09:17:56Z</time>
      </trkpt>
      <trkpt lat="40.468390" lon="-4.703930">
        <ele>1126.233</ele>
        <time>2020-02-28T09:18:16Z</time>
      </trkpt>
      <trkpt lat="40.468390" lon="-4.703950">
        <ele>1126.236</ele>
        <time>2020-02-28T09:18:36Z</time>
      </trkpt>
      <trkpt lat="40.468230" lon="-4.704550">
        <ele>1127.081</ele>
        <time>2020-02-28T09:18:56Z</time>
      </trkpt>
      <trkpt lat="40.468180" lon="-4.704790">
        <ele>1126.962</ele>
        <time>2020-02-28T09:19:16Z</time>
      </trkpt>
      <trkpt lat="40.467220" lon="-4.708360">
        <ele>1116.164</ele>
        <time>2020-02-28T09:19:36Z</time>
      </trkpt>
      <trkpt lat="40.467210" lon="-4.708380">
        <ele>1116.062</ele>
        <time>2020-02-28T09:19:56Z</time>
      </trkpt>
      <trkpt lat="40.466630" lon="-4.710590">
        <ele>1121.925</ele>
        <time>2020-02-28T09:20:16Z</time>
      </trkpt>
      <trkpt lat="40.466630" lon="-4.710620">
        <ele>1122.030</ele>
        <time>2020-02-28T09:20:36Z</time>
      </trkpt>
      <trkpt lat="40.465990" lon="-4.713100">
        <ele>1111.019</ele>
        <time>2020-02-28T09:20:56Z</time>
      </trkpt>
      <trkpt lat="40.465870" lon="-4.713800">
        <ele>1108.509</ele>
        <time>2020-02-28T09:21:16Z</time>
      </trkpt>
      <trkpt lat="40.463930" lon="-4.728720">
        <ele>1097.119</ele>
        <time>2020-02-28T09:21:36Z</time>
      </trkpt>
      <trkpt lat="40.463910" lon="-4.728820">
        <ele>1097.108</ele>
        <time>2020-02-28T09:21:56Z</time>
      </trkpt>
      <trkpt lat="40.463800" lon="-4.729760">
        <ele>1098.775</ele>
        <time>2020-02-28T09:22:16Z</time>
      </trkpt>
      <trkpt lat="40.463740" lon="-4.730500">
        <ele>1099.428</ele>
        <time>2020-02-28T09:22:36Z</time>
      </trkpt>
      <trkpt lat="40.463750" lon="-4.730910">
        <ele>1099.843</ele>
        <time>2020-02-28T09:22:56Z</time>
      </trkpt>
      <trkpt lat="40.463800" lon="-4.731580">
        <ele>1101.674</ele>
        <time>2020-02-28T09:23:16Z</time>
      </trkpt>
      <trkpt lat="40.463900" lon="-4.732160">
        <ele>1102.186</ele>
        <time>2020-02-28T09:23:36Z</time>
      </trkpt>
      <trkpt lat="40.464490" lon="-4.734630">
        <ele>1099.414</ele>
        <time>2020-02-28T09:23:56Z</time>
      </trkpt>
      <trkpt lat="40.464490" lon="-4.734650">
        <ele>1099.327</ele>
        <time>2020-02-28T09:24:16Z</time>
      </trkpt>
      <trkpt lat="40.465390" lon="-4.738120">
        <ele>1095.072</ele>
        <time>2020-02-28T09:24:36Z</time>
      </trkpt>
      <trkpt lat="40.465540" lon="-4.738550">
        <ele>1095.186</ele>
        <time>2020-02-28T09:24:56Z</time>
      </trkpt>
      <trkpt lat="40.466210" lon="-4.740220">
        <ele>1085.760</ele>
        <time>2020-02-28T09:25:16Z</time>
      </trkpt>
      <trkpt lat="40.466210" lon="-4.740240">
        <ele>1085.526</ele>
        <time>2020-02-28T09:25:36Z</time>
      </trkpt>
      <trkpt lat="40.466320" lon="-4.740550">
        <ele>1082.608</ele>
        <time>2020-02-28T09:25:56Z</time>
      </trkpt>
      <trkpt lat="40.466360" lon="-4.740730">
        <ele>1081.042</ele>
        <time>2020-02-28T09:26:16Z</time>
      </trkpt>
      <trkpt lat="40.466380" lon="-4.740910">
        <ele>1080.045</ele>
        <time>2020-02-28T09:26:36Z</time>
      </trkpt>
      <trkpt lat="40.466380" lon="-4.741220">
        <ele>1080.370</ele>
        <time>2020-02-28T09:26:56Z</time>
      </trkpt>
      <trkpt lat="40.466350" lon="-4.741510">
        <ele>1081.561</ele>
        <time>2020-02-28T09:27:16Z</time>
      </trkpt>
      <trkpt lat="40.466240" lon="-4.741850">
        <ele>1082.813</ele>
        <time>2020-02-28T09:27:36Z</time>
      </trkpt>
      <trkpt lat="40.466050" lon="-4.742210">
        <ele>1083.891</ele>
        <time>2020-02-28T09:27:56Z</time>
      </trkpt>
      <trkpt lat="40.465890" lon="-4.742470">
        <ele>1083.254</ele>
        <time>2020-02-28T09:28:16Z</time>
      </trkpt>
      <trkpt lat="40.465380" lon="-4.743180">
        <ele>1082.159</ele>
        <time>2020-02-28T09:28:36Z</time>
      </trkpt>
      <trkpt lat="40.465190" lon="-4.743420">
        <ele>1083.659</ele>
        <time>2020-02-28T09:28:56Z</time>
      </trkpt>
      <trkpt lat="40.464820" lon="-4.743690">
        <ele>1084.503</ele>
        <time>2020-02-28T09:29:16Z</time>
      </trkpt>
      <trkpt lat="40.464340" lon="-4.743950">
        <ele>1083.223</ele>
        <time>2020-02-28T09:29:36Z</time>
      </trkpt>
      <trkpt lat="40.464260" lon="-4.744010">
        <ele>1082.908</ele>
        <time>2020-02-28T09:29:56Z</time>
      </trkpt>
      <trkpt lat="40.464030" lon="-4.744250">
        <ele>1084.759</ele>
        <time>2020-02-28T09:30:16Z</time>
      </trkpt>
      <trkpt lat="40.463950" lon="-4.744360">
        <ele>1085.672</ele>
        <time>2020-02-28T09:30:36Z</time>
      </trkpt>
      <trkpt lat="40.463840" lon="-4.744550">
        <ele>1086.937</ele>
        <time>2020-02-28T09:30:56Z</time>
      </trkpt>
      <trkpt lat="40.463770" lon="-4.744710">
        <ele>1087.768</ele>
        <time>2020-02-28T09:31:16Z</time>
      </trkpt>
      <trkpt lat="40.463730" lon="-4.744830">
        <ele>1087.130</ele>
        <time>2020-02-28T09:31:36Z</time>
      </trkpt>
      <trkpt lat="40.463730" lon="-4.744840">
        <ele>1087.188</ele>
        <time>2020-02-28T09:31:56Z</time>
      </trkpt>
      <trkpt lat="40.463700" lon="-4.744940">
        <ele>1086.671</ele>
        <time>2020-02-28T09:32:16Z</time>
      </trkpt>
      <trkpt lat="40.463620" lon="-4.745380">
        <ele>1084.816</ele>
        <time>2020-02-28T09:32:36Z</time>
      </trkpt>
      <trkpt lat="40.463450" lon="-4.747850">
        <ele>1074.434</ele>
        <time>2020-02-28T09:32:56Z</time>
      </trkpt>
      <trkpt lat="40.463450" lon="-4.747950">
        <ele>1074.155</ele>
        <time>2020-02-28T09:33:16Z</time>
      </trkpt>
      <trkpt lat="40.463440" lon="-4.748020">
        <ele>1073.710</ele>
        <time>2020-02-28T09:33:36Z</time>
      </trkpt>
      <trkpt lat="40.463430" lon="-4.748360">
        <ele>1072.308</ele>
        <time>2020-02-28T09:33:56Z</time>
      </trkpt>
      <trkpt lat="40.463420" lon="-4.748420">
        <ele>1072.077</ele>
        <time>2020-02-28T09:34:16Z</time>
      </trkpt>
      <trkpt lat="40.463070" lon="-4.754270">
        <ele>1062.460</ele>
        <time>2020-02-28T09:34:36Z</time>
      </trkpt>
      <trkpt lat="40.463080" lon="-4.755000">
        <ele>1059.135</ele>
        <time>2020-02-28T09:34:56Z</time>
      </trkpt>
      <trkpt lat="40.463110" lon="-4.755350">
        <ele>1058.026</ele>
        <time>2020-02-28T09:35:16Z</time>
      </trkpt>
      <trkpt lat="40.463390" lon="-4.757380">
        <ele>1060.268</ele>
        <time>2020-02-28T09:35:36Z</time>
      </trkpt>
      <trkpt lat="40.463530" lon="-4.758220">
        <ele>1059.826</ele>
        <time>2020-02-28T09:35:56Z</time>
      </trkpt>
      <trkpt lat="40.463570" lon="-4.758700">
        <ele>1057.269</ele>
        <time>2020-02-28T09:36:16Z</time>
      </trkpt>
      <trkpt lat="40.463570" lon="-4.758940">
        <ele>1055.564</ele>
        <time>2020-02-28T09:36:36Z</time>
      </trkpt>
      <trkpt lat="40.463550" lon="-4.759150">
        <ele>1053.787</ele>
        <time>2020-02-28T09:36:56Z</time>
      </trkpt>
      <trkpt lat="40.463500" lon="-4.759360">
        <ele>1051.842</ele>
        <time>2020-02-28T09:37:16Z</time>
      </trkpt>
      <trkpt lat="40.463490" lon="-4.759380">
        <ele>1051.626</ele>
        <time>2020-02-28T09:37:36Z</time>
      </trkpt>
      <trkpt lat="40.463460" lon="-4.759480">
        <ele>1051.108</ele>
        <time>2020-02-28T09:37:56Z</time>
      </trkpt>
      <trkpt lat="40.463340" lon="-4.759760">
        <ele>1050.952</ele>
        <time>2020-02-28T09:38:16Z</time>
      </trkpt>
      <trkpt lat="40.462790" lon="-4.760630">
        <ele>1054.625</ele>
        <time>2020-02-28T09:38:36Z</time>
      </trkpt>
      <trkpt lat="40.462150" lon="-4.761540">
        <ele>1054.350</ele>
        <time>2020-02-28T09:38:56Z</time>
      </trkpt>
      <trkpt lat="40.461960" lon="-4.761840">
        <ele>1055.311</ele>
        <time>2020-02-28T09:39:16Z</time>
      </trkpt>
      <trkpt lat="40.461890" lon="-4.761970">
        <ele>1055.143</ele>
        <time>2020-02-28T09:39:36Z</time>
      </trkpt>
      <trkpt lat="40.461790" lon="-4.762230">
        <ele>1054.851</ele>
        <time>2020-02-28T09:39:56Z</time>
      </trkpt>
      <trkpt lat="40.461520" lon="-4.763270">
        <ele>1057.024</ele>
        <time>2020-02-28T09:40:16Z</time>
      </trkpt>
      <trkpt lat="40.461490" lon="-4.763490">
        <ele>1057.479</ele>
        <time>2020-02-28T09:40:36Z</time>
      </trkpt>
      <trkpt lat="40.461490" lon="-4.763790">
        <ele>1058.626</ele>
        <time>2020-02-28T09:40:56Z</time>
      </trkpt>
      <trkpt lat="40.461540" lon="-4.764550">
        <ele>1058.647</ele>
        <time>2020-02-28T09:41:16Z</time>
      </trkpt>
      <trkpt lat="40.461540" lon="-4.764770">
        <ele>1058.611</ele>
        <time>2020-02-28T09:41:36Z</time>
      </trkpt>
      <trkpt lat="40.461270" lon="-4.766970">
        <ele>1057.708</ele>
        <time>2020-02-28T09:41:56Z</time>
      </trkpt>
      <trkpt lat="40.461240" lon="-4.767080">
        <ele>1058.066</ele>
        <time>2020-02-28T09:42:16Z</time>
      </trkpt>
      <trkpt lat="40.461220" lon="-4.767220">
        <ele>1058.429</ele>
        <time>2020-02-28T09:42:36Z</time>
      </trkpt>
      <trkpt lat="40.461150" lon="-4.767440">
        <ele>1059.874</ele>
        <time>2020-02-28T09:42:56Z</time>
      </trkpt>
      <trkpt lat="40.460940" lon="-4.767980">
        <ele>1062.245</ele>
        <time>2020-02-28T09:43:16Z</time>
      </trkpt>
      <trkpt lat="40.460910" lon="-4.768040">
        <ele>1062.487</ele>
        <time>2020-02-28T09:43:36Z</time>
      </trkpt>
      <trkpt lat="40.460580" lon="-4.768920">
        <ele>1064.695</ele>
        <time>2020-02-28T09:43:56Z</time>
      </trkpt>
      <trkpt lat="40.460420" lon="-4.768970">
        <ele>1063.178</ele>
        <time>2020-02-28T09:44:16Z</time>
      </trkpt>
      <trkpt lat="40.459750" lon="-4.769290">
        <ele>1057.753</ele>
        <time>2020-02-28T09:44:36Z</time>
      </trkpt>
      <trkpt lat="40.459610" lon="-4.769340">
        <ele>1056.468</ele>
        <time>2020-02-28T09:44:56Z</time>
      </trkpt>
      <trkpt lat="40.459290" lon="-4.769380">
        <ele>1054.142</ele>
        <time>2020-02-28T09:45:16Z</time>
      </trkpt>
      <trkpt lat="40.458820" lon="-4.769380">
        <ele>1050.726</ele>
        <time>2020-02-28T09:45:36Z</time>
      </trkpt>
      <trkpt lat="40.458430" lon="-4.769400">
        <ele>1047.308</ele>
        <time>2020-02-28T09:45:56Z</time>
      </trkpt>
      <trkpt lat="40.458070" lon="-4.769450">
        <ele>1044.250</ele>
        <time>2020-02-28T09:46:16Z</time>
      </trkpt>
      <trkpt lat="40.458010" lon="-4.769450">
        <ele>1043.943</ele>
        <time>2020-02-28T09:46:36Z</time>
      </trkpt>
      <trkpt lat="40.457980" lon="-4.769460">
        <ele>1043.878</ele>
        <time>2020-02-28T09:46:56Z</time>
      </trkpt>
      <trkpt lat="40.457950" lon="-4.769460">
        <ele>1043.779</ele>
        <time>2020-02-28T09:47:16Z</time>
      </trkpt>
      <trkpt lat="40.457880" lon="-4.769440">
        <ele>1043.491</ele>
        <time>2020-02-28T09:47:36Z</time>
      </trkpt>
      <trkpt lat="40.457860" lon="-4.769430">
        <ele>1043.289</ele>
        <time>2020-02-28T09:47:56Z</time>
      </trkpt>
      <trkpt lat="40.457840" lon="-4.769410">
        <ele>1043.182</ele>
        <time>2020-02-28T09:48:16Z</time>
      </trkpt>
      <trkpt lat="40.457820" lon="-4.769360">
        <ele>1042.847</ele>
        <time>2020-02-28T09:48:36Z</time>
      </trkpt>
      <trkpt lat="40.457800" lon="-4.769230">
        <ele>1042.375</ele>
        <time>2020-02-28T09:48:56Z</time>
      </trkpt>
      <trkpt lat="40.457720" lon="-4.767920">
        <ele>1038.428</ele>
        <time>2020-02-28T09:49:16Z</time>
      </trkpt>
      <trkpt lat="40.457690" lon="-4.767680">
        <ele>1037.920</ele>
        <time>2020-02-28T09:49:36Z</time>
      </trkpt>
      <trkpt lat="40.457630" lon="-4.766830">
        <ele>1036.008</ele>
        <time>2020-02-28T09:49:56Z</time>
      </trkpt>
      <trkpt lat="40.457610" lon="-4.766740">
        <ele>1036.071</ele>
        <time>2020-02-28T09:50:16Z</time>
      </trkpt>
      <trkpt lat="40.457600" lon="-4.766720">
        <ele>1036.094</ele>
        <time>2020-02-28T09:50:36Z</time>
      </trkpt>
      <trkpt lat="40.457580" lon="-4.766700">
        <ele>1036.069</ele>
        <time>2020-02-28T09:50:56Z</time>
      </trkpt>
      <trkpt lat="40.457560" lon="-4.766670">
        <ele>1036.030</ele>
        <time>2020-02-28T09:51:16Z</time>
      </trkpt>
      <trkpt lat="40.457540" lon="-4.766650">
        <ele>1035.962</ele>
        <time>2020-02-28T09:51:36Z</time>
      </trkpt>
      <trkpt lat="40.457470" lon="-4.766610">
        <ele>1035.760</ele>
        <time>2020-02-28T09:51:56Z</time>
      </trkpt>
      <trkpt lat="40.457410" lon="-4.766610">
        <ele>1035.563</ele>
        <time>2020-02-28T09:52:16Z</time>
      </trkpt>
      <trkpt lat="40.457290" lon="-4.766650">
        <ele>1035.278</ele>
        <time>2020-02-28T09:52:36Z</time>
      </trkpt>
      <trkpt lat="40.456070" lon="-4.766950">
        <ele>1030.965</ele>
        <time>2020-02-28T09:52:56Z</time>
      </trkpt>
      <trkpt lat="40.456060" lon="-4.766950">
        <ele>1030.868</ele>
        <time>2020-02-28T09:53:16Z</time>
      </trkpt>
      <trkpt lat="40.455710" lon="-4.767040">
        <ele>1029.214</ele>
        <time>2020-02-28T09:53:36Z</time>
      </trkpt>
      <trkpt lat="40.454970" lon="-4.767310">
        <ele>1025.408</ele>
        <time>2020-02-28T09:53:56Z</time>
      </trkpt>
      <trkpt lat="40.454770" lon="-4.767340">
        <ele>1024.230</ele>
        <time>2020-02-28T09:54:16Z</time>
      </trkpt>
      <trkpt lat="40.454510" lon="-4.767360">
        <ele>1022.193</ele>
        <time>2020-02-28T09:54:36Z</time>
      </trkpt>
      <trkpt lat="40.454480" lon="-4.767370">
        <ele>1021.998</ele>
        <time>2020-02-28T09:54:56Z</time>
      </trkpt>
      <trkpt lat="40.454320" lon="-4.767380">
        <ele>1021.079</ele>
        <time>2020-02-28T09:55:16Z</time>
      </trkpt>
      <trkpt lat="40.454040" lon="-4.767450">
        <ele>1020.161</ele>
        <time>2020-02-28T09:55:36Z</time>
      </trkpt>
      <trkpt lat="40.453590" lon="-4.767500">
        <ele>1019.989</ele>
        <time>2020-02-28T09:55:56Z</time>
      </trkpt>
      <trkpt lat="40.451420" lon="-4.767450">
        <ele>1010.732</ele>
        <time>2020-02-28T09:56:16Z</time>
      </trkpt>
      <trkpt lat="40.451300" lon="-4.767460">
        <ele>1009.517</ele>
        <time>2020-02-28T09:56:36Z</time>
      </trkpt>
      <trkpt lat="40.451120" lon="-4.767460">
        <ele>1007.083</ele>
        <time>2020-02-28T09:56:56Z</time>
      </trkpt>
      <trkpt lat="40.450870" lon="-4.767500">
        <ele>1007.025</ele>
        <time>2020-02-28T09:57:16Z</time>
      </trkpt>
      <trkpt lat="40.450640" lon="-4.767510">
        <ele>1006.417</ele>
        <time>2020-02-28T09:57:36Z</time>
      </trkpt>
      <trkpt lat="40.450580" lon="-4.767530">
        <ele>1006.308</ele>
        <time>2020-02-28T09:57:56Z</time>
      </trkpt>
      <trkpt lat="40.447950" lon="-4.768070">
        <ele>992.732</ele>
        <time>2020-02-28T09:58:16Z</time>
      </trkpt>
      <trkpt lat="40.447490" lon="-4.768120">
        <ele>988.695</ele>
        <time>2020-02-28T09:58:36Z</time>
      </trkpt>
      <trkpt lat="40.447190" lon="-4.768120">
        <ele>985.160</ele>
        <time>2020-02-28T09:58:56Z</time>
      </trkpt>
      <trkpt lat="40.446950" lon="-4.768100">
        <ele>982.491</ele>
        <time>2020-02-28T09:59:16Z</time>
      </trkpt>
      <trkpt lat="40.446810" lon="-4.768070">
        <ele>981.183</ele>
        <time>2020-02-28T09:59:36Z</time>
      </trkpt>
      <trkpt lat="40.446680" lon="-4.768030">
        <ele>979.971</ele>
        <time>2020-02-28T09:59:56Z</time>
      </trkpt>
      <trkpt lat="40.446620" lon="-4.768020">
        <ele>979.614</ele>
        <time>2020-02-28T10:00:16Z</time>
      </trkpt>
      <trkpt lat="40.445790" lon="-4.767520">
        <ele>972.939</ele>
        <time>2020-02-28T10:00:36Z</time>
      </trkpt>
      <trkpt lat="40.445740" lon="-4.767500">
        <ele>972.755</ele>
        <time>2020-02-28T10:00:56Z</time>
      </trkpt>
      <trkpt lat="40.445480" lon="-4.767350">
        <ele>971.307</ele>
        <time>2020-02-28T10:01:16Z</time>
      </trkpt>
      <trkpt lat="40.445280" lon="-4.767260">
        <ele>971.017</ele>
        <time>2020-02-28T10:01:36Z</time>
      </trkpt>
      <trkpt lat="40.445110" lon="-4.767210">
        <ele>970.408</ele>
        <time>2020-02-28T10:01:56Z</time>
      </trkpt>
      <trkpt lat="40.445040" lon="-4.767200">
        <ele>970.139</ele>
        <time>2020-02-28T10:02:16Z</time>
      </trkpt>
      <trkpt lat="40.444850" lon="-4.767150">
        <ele>969.192</ele>
        <time>2020-02-28T10:02:36Z</time>
      </trkpt>
      <trkpt lat="40.443690" lon="-4.766950">
        <ele>962.047</ele>
        <time>2020-02-28T10:02:56Z</time>
      </trkpt>
      <trkpt lat="40.443260" lon="-4.766850">
        <ele>961.498</ele>
        <time>2020-02-28T10:03:16Z</time>
      </trkpt>
      <trkpt lat="40.442620" lon="-4.766750">
        <ele>957.370</ele>
        <time>2020-02-28T10:03:36Z</time>
      </trkpt>
      <trkpt lat="40.441990" lon="-4.766690">
        <ele>954.268</ele>
        <time>2020-02-28T10:03:56Z</time>
      </trkpt>
      <trkpt lat="40.440280" lon="-4.766700">
        <ele>954.141</ele>
        <time>2020-02-28T10:04:16Z</time>
      </trkpt>
      <trkpt lat="40.440040" lon="-4.766730">
        <ele>955.116</ele>
        <time>2020-02-28T10:04:36Z</time>
      </trkpt>
      <trkpt lat="40.439570" lon="-4.766860">
        <ele>955.672</ele>
        <time>2020-02-28T10:04:56Z</time>
      </trkpt>
      <trkpt lat="40.439250" lon="-4.767030">
        <ele>951.813</ele>
        <time>2020-02-28T10:05:16Z</time>
      </trkpt>
      <trkpt lat="40.438540" lon="-4.767490">
        <ele>948.714</ele>
        <time>2020-02-28T10:05:36Z</time>
      </trkpt>
      <trkpt lat="40.438070" lon="-4.767760">
        <ele>948.008</ele>
        <time>2020-02-28T10:05:56Z</time>
      </trkpt>
      <trkpt lat="40.437930" lon="-4.767810">
        <ele>948.151</ele>
        <time>2020-02-28T10:06:16Z</time>
      </trkpt>
      <trkpt lat="40.437400" lon="-4.767900">
        <ele>948.584</ele>
        <time>2020-02-28T10:06:36Z</time>
      </trkpt>
      <trkpt lat="40.437010" lon="-4.767990">
        <ele>947.069</ele>
        <time>2020-02-28T10:06:56Z</time>
      </trkpt>
      <trkpt lat="40.436520" lon="-4.768150">
        <ele>946.570</ele>
        <time>2020-02-28T10:07:16Z</time>
      </trkpt>
      <trkpt lat="40.436430" lon="-4.768190">
        <ele>946.922</ele>
        <time>2020-02-28T10:07:36Z</time>
      </trkpt>
      <trkpt lat="40.435880" lon="-4.768340">
        <ele>947.210</ele>
        <time>2020-02-28T10:07:56Z</time>
      </trkpt>
      <trkpt lat="40.434770" lon="-4.768710">
        <ele>944.473</ele>
        <time>2020-02-28T10:08:16Z</time>
      </trkpt>
      <trkpt lat="40.433840" lon="-4.768990">
        <ele>948.578</ele>
        <time>2020-02-28T10:08:36Z</time>
      </trkpt>
      <trkpt lat="40.433550" lon="-4.769140">
        <ele>949.576</ele>
        <time>2020-02-28T10:08:56Z</time>
      </trkpt>
      <trkpt lat="40.433130" lon="-4.769400">
        <ele>947.290</ele>
        <time>2020-02-28T10:09:16Z</time>
      </trkpt>
      <trkpt lat="40.432860" lon="-4.769620">
        <ele>945.619</ele>
        <time>2020-02-28T10:09:36Z</time>
      </trkpt>
      <trkpt lat="40.432570" lon="-4.769900">
        <ele>943.508</ele>
        <time>2020-02-28T10:09:56Z</time>
      </trkpt>
      <trkpt lat="40.432360" lon="-4.770160">
        <ele>941.511</ele>
        <time>2020-02-28T10:10:16Z</time>
      </trkpt>
      <trkpt lat="40.432100" lon="-4.770540">
        <ele>939.614</ele>
        <time>2020-02-28T10:10:36Z</time>
      </trkpt>
      <trkpt lat="40.430540" lon="-4.773220">
        <ele>929.979</ele>
        <time>2020-02-28T10:10:56Z</time>
      </trkpt>
      <trkpt lat="40.430320" lon="-4.773640">
        <ele>928.320</ele>
        <time>2020-02-28T10:11:16Z</time>
      </trkpt>
      <trkpt lat="40.429860" lon="-4.774280">
        <ele>925.552</ele>
        <time>2020-02-28T10:11:36Z</time>
      </trkpt>
      <trkpt lat="40.429660" lon="-4.774530">
        <ele>924.380</ele>
        <time>2020-02-28T10:11:56Z</time>
      </trkpt>
      <trkpt lat="40.429510" lon="-4.774680">
        <ele>922.763</ele>
        <time>2020-02-28T10:12:16Z</time>
      </trkpt>
      <trkpt lat="40.429140" lon="-4.774920">
        <ele>919.798</ele>
        <time>2020-02-28T10:12:36Z</time>
      </trkpt>
      <trkpt lat="40.428910" lon="-4.775030">
        <ele>916.534</ele>
        <time>2020-02-28T10:12:56Z</time>
      </trkpt>
      <trkpt lat="40.428740" lon="-4.775070">
        <ele>914.855</ele>
        <time>2020-02-28T10:13:16Z</time>
      </trkpt>
      <trkpt lat="40.428620" lon="-4.775070">
        <ele>913.410</ele>
        <time>2020-02-28T10:13:36Z</time>
      </trkpt>
      <trkpt lat="40.428490" lon="-4.775090">
        <ele>911.908</ele>
        <time>2020-02-28T10:13:56Z</time>
      </trkpt>
      <trkpt lat="40.428230" lon="-4.775090">
        <ele>909.647</ele>
        <time>2020-02-28T10:14:16Z</time>
      </trkpt>
      <trkpt lat="40.427680" lon="-4.775010">
        <ele>907.360</ele>
        <time>2020-02-28T10:14:36Z</time>
      </trkpt>
      <trkpt lat="40.426020" lon="-4.774630">
        <ele>901.065</ele>
        <time>2020-02-28T10:14:56Z</time>
      </trkpt>
      <trkpt lat="40.426020" lon="-4.774620">
        <ele>901.026</ele>
        <time>2020-02-28T10:15:16Z</time>
      </trkpt>
      <trkpt lat="40.425100" lon="-4.774450">
        <ele>901.028</ele>
        <time>2020-02-28T10:15:36Z</time>
      </trkpt>
      <trkpt lat="40.423790" lon="-4.774270">
        <ele>910.836</ele>
        <time>2020-02-28T10:15:56Z</time>
      </trkpt>
      <trkpt lat="40.423200" lon="-4.774310">
        <ele>909.019</ele>
        <time>2020-02-28T10:16:16Z</time>
      </trkpt>
      <trkpt lat="40.422970" lon="-4.774340">
        <ele>909.474</ele>
        <time>2020-02-28T10:16:36Z</time>
      </trkpt>
      <trkpt lat="40.422530" lon="-4.774440">
        <ele>914.699</ele>
        <time>2020-02-28T10:16:56Z</time>
      </trkpt>
      <trkpt lat="40.422480" lon="-4.774460">
        <ele>915.107</ele>
        <time>2020-02-28T10:17:16Z</time>
      </trkpt>
      <trkpt lat="40.421960" lon="-4.774590">
        <ele>915.127</ele>
        <time>2020-02-28T10:17:36Z</time>
      </trkpt>
      <trkpt lat="40.420820" lon="-4.775050">
        <ele>916.108</ele>
        <time>2020-02-28T10:17:56Z</time>
      </trkpt>
      <trkpt lat="40.420770" lon="-4.775080">
        <ele>916.033</ele>
        <time>2020-02-28T10:18:16Z</time>
      </trkpt>
      <trkpt lat="40.419930" lon="-4.775400">
        <ele>912.256</ele>
        <time>2020-02-28T10:18:36Z</time>
      </trkpt>
      <trkpt lat="40.419090" lon="-4.775800">
        <ele>907.331</ele>
        <time>2020-02-28T10:18:56Z</time>
      </trkpt>
      <trkpt lat="40.418920" lon="-4.775930">
        <ele>905.092</ele>
        <time>2020-02-28T10:19:16Z</time>
      </trkpt>
      <trkpt lat="40.418580" lon="-4.776270">
        <ele>901.714</ele>
        <time>2020-02-28T10:19:36Z</time>
      </trkpt>
      <trkpt lat="40.416750" lon="-4.779040">
        <ele>886.972</ele>
        <time>2020-02-28T10:19:56Z</time>
      </trkpt>
      <trkpt lat="40.416460" lon="-4.779420">
        <ele>883.675</ele>
        <time>2020-02-28T10:20:16Z</time>
      </trkpt>
      <trkpt lat="40.416420" lon="-4.779490">
        <ele>883.120</ele>
        <time>2020-02-28T10:20:36Z</time>
      </trkpt>
      <trkpt lat="40.416260" lon="-4.779700">
        <ele>881.692</ele>
        <time>2020-02-28T10:20:56Z</time>
      </trkpt>
      <trkpt lat="40.416240" lon="-4.779710">
        <ele>881.573</ele>
        <time>2020-02-28T10:21:16Z</time>
      </trkpt>
      <trkpt lat="40.416170" lon="-4.779800">
        <ele>880.920</ele>
        <time>2020-02-28T10:21:36Z</time>
      </trkpt>
      <trkpt lat="40.415990" lon="-4.779950">
        <ele>880.108</ele>
        <time>2020-02-28T10:21:56Z</time>
      </trkpt>
      <trkpt lat="40.415400" lon="-4.780280">
        <ele>876.693</ele>
        <time>2020-02-28T10:22:16Z</time>
      </trkpt>
      <trkpt lat="40.415150" lon="-4.780490">
        <ele>873.236</ele>
        <time>2020-02-28T10:22:36Z</time>
      </trkpt>
      <trkpt lat="40.415070" lon="-4.780610">
        <ele>872.811</ele>
        <time>2020-02-28T10:22:56Z</time>
      </trkpt>
      <trkpt lat="40.415000" lon="-4.780760">
        <ele>872.322</ele>
        <time>2020-02-28T10:23:16Z</time>
      </trkpt>
      <trkpt lat="40.414980" lon="-4.780880">
        <ele>872.354</ele>
        <time>2020-02-28T10:23:36Z</time>
      </trkpt>
      <trkpt lat="40.414980" lon="-4.780920">
        <ele>872.182</ele>
        <time>2020-02-28T10:23:56Z</time>
      </trkpt>
      <trkpt lat="40.414970" lon="-4.780950">
        <ele>872.275</ele>
        <time>2020-02-28T10:24:16Z</time>
      </trkpt>
      <trkpt lat="40.414950" lon="-4.781070">
        <ele>872.110</ele>
        <time>2020-02-28T10:24:36Z</time>
      </trkpt>
      <trkpt lat="40.414950" lon="-4.781230">
        <ele>871.598</ele>
        <time>2020-02-28T10:24:56Z</time>
      </trkpt>
      <trkpt lat="40.414970" lon="-4.781330">
        <ele>870.815</ele>
        <time>2020-02-28T10:25:16Z</time>
      </trkpt>
      <trkpt lat="40.415000" lon="-4.781380">
        <ele>870.026</ele>
        <time>2020-02-28T10:25:36Z</time>
      </trkpt>
      <trkpt lat="40.415060" lon="-4.781440">
        <ele>869.808</ele>
        <time>2020-02-28T10:25:56Z</time>
      </trkpt>
      <trkpt lat="40.415130" lon="-4.781480">
        <ele>869.423</ele>
        <time>2020-02-28T10:26:16Z</time>
      </trkpt>
      <trkpt lat="40.415240" lon="-4.781510">
        <ele>868.546</ele>
        <time>2020-02-28T10:26:36Z</time>
      </trkpt>
      <trkpt lat="40.415320" lon="-4.781500">
        <ele>867.971</ele>
        <time>2020-02-28T10:26:56Z</time>
      </trkpt>
      <trkpt lat="40.415420" lon="-4.781500">
        <ele>866.952</ele>
        <time>2020-02-28T10:27:16Z</time>
      </trkpt>
      <trkpt lat="40.415580" lon="-4.781480">
        <ele>865.434</ele>
        <time>2020-02-28T10:27:36Z</time>
      </trkpt>
      <trkpt lat="40.415640" lon="-4.781450">
        <ele>865.252</ele>
        <time>2020-02-28T10:27:56Z</time>
      </trkpt>
      <trkpt lat="40.415710" lon="-4.781430">
        <ele>864.715</ele>
        <time>2020-02-28T10:28:16Z</time>
      </trkpt>
      <trkpt lat="40.415810" lon="-4.781390">
        <ele>864.280</ele>
        <time>2020-02-28T10:28:36Z</time>
      </trkpt>
      <trkpt lat="40.415930" lon="-4.781370">
        <ele>864.939</ele>
        <time>2020-02-28T10:28:56Z</time>
      </trkpt>
      <trkpt lat="40.415990" lon="-4.781370">
        <ele>865.301</ele>
        <time>2020-02-28T10:29:16Z</time>
      </trkpt>
      <trkpt lat="40.416070" lon="-4.781400">
        <ele>865.721</ele>
        <time>2020-02-28T10:29:36Z</time>
      </trkpt>
      <trkpt lat="40.416090" lon="-4.781430">
        <ele>865.908</ele>
        <time>2020-02-28T10:29:56Z</time>
      </trkpt>
      <trkpt lat="40.416110" lon="-4.781450">
        <ele>866.217</ele>
        <time>2020-02-28T10:30:16Z</time>
      </trkpt>
      <trkpt lat="40.416120" lon="-4.781480">
        <ele>866.530</ele>
        <time>2020-02-28T10:30:36Z</time>
      </trkpt>
      <trkpt lat="40.416120" lon="-4.781550">
        <ele>866.715</ele>
        <time>2020-02-28T10:30:56Z</time>
      </trkpt>
      <trkpt lat="40.416110" lon="-4.781610">
        <ele>866.866</ele>
        <time>2020-02-28T10:31:16Z</time>
      </trkpt>
      <trkpt lat="40.416060" lon="-4.781770">
        <ele>866.018</ele>
        <time>2020-02-28T10:31:36Z</time>
      </trkpt>
      <trkpt lat="40.416030" lon="-4.781910">
        <ele>865.686</ele>
        <time>2020-02-28T10:31:56Z</time>
      </trkpt>
      <trkpt lat="40.416000" lon="-4.782140">
        <ele>863.579</ele>
        <time>2020-02-28T10:32:16Z</time>
      </trkpt>
      <trkpt lat="40.416000" lon="-4.782340">
        <ele>861.424</ele>
        <time>2020-02-28T10:32:36Z</time>
      </trkpt>
      <trkpt lat="40.416030" lon="-4.782710">
        <ele>857.991</ele>
        <time>2020-02-28T10:32:56Z</time>
      </trkpt>
      <trkpt lat="40.416030" lon="-4.782930">
        <ele>856.581</ele>
        <time>2020-02-28T10:33:16Z</time>
      </trkpt>
      <trkpt lat="40.416020" lon="-4.783050">
        <ele>855.719</ele>
        <time>2020-02-28T10:33:36Z</time>
      </trkpt>
      <trkpt lat="40.416020" lon="-4.783390">
        <ele>853.508</ele>
        <time>2020-02-28T10:33:56Z</time>
      </trkpt>
      <trkpt lat="40.416040" lon="-4.783630">
        <ele>852.643</ele>
        <time>2020-02-28T10:34:16Z</time>
      </trkpt>
      <trkpt lat="40.416070" lon="-4.783700">
        <ele>852.266</ele>
        <time>2020-02-28T10:34:36Z</time>
      </trkpt>
      <trkpt lat="40.416380" lon="-4.784170">
        <ele>849.011</ele>
        <time>2020-02-28T10:34:56Z</time>
      </trkpt>
      <trkpt lat="40.416500" lon="-4.784410">
        <ele>849.572</ele>
        <time>2020-02-28T10:35:16Z</time>
      </trkpt>
      <trkpt lat="40.416540" lon="-4.784560">
        <ele>849.524</ele>
        <time>2020-02-28T10:35:36Z</time>
      </trkpt>
      <trkpt lat="40.416550" lon="-4.784640">
        <ele>849.662</ele>
        <time>2020-02-28T10:35:56Z</time>
      </trkpt>
      <trkpt lat="40.416550" lon="-4.784750">
        <ele>849.795</ele>
        <time>2020-02-28T10:36:16Z</time>
      </trkpt>
      <trkpt lat="40.416530" lon="-4.784840">
        <ele>850.180</ele>
        <time>2020-02-28T10:36:36Z</time>
      </trkpt>
      <trkpt lat="40.416470" lon="-4.785020">
        <ele>850.615</ele>
        <time>2020-02-28T10:36:56Z</time>
      </trkpt>
      <trkpt lat="40.416420" lon="-4.785090">
        <ele>850.065</ele>
        <time>2020-02-28T10:37:16Z</time>
      </trkpt>
      <trkpt lat="40.416290" lon="-4.785220">
        <ele>848.811</ele>
        <time>2020-02-28T10:37:36Z</time>
      </trkpt>
      <trkpt lat="40.416180" lon="-4.785270">
        <ele>848.308</ele>
        <time>2020-02-28T10:37:56Z</time>
      </trkpt>
      <trkpt lat="40.415950" lon="-4.785320">
        <ele>847.075</ele>
        <time>2020-02-28T10:38:16Z</time>
      </trkpt>
      <trkpt lat="40.415900" lon="-4.785320">
        <ele>846.818</ele>
        <time>2020-02-28T10:38:36Z</time>
      </trkpt>
      <trkpt lat="40.415820" lon="-4.785330">
        <ele>846.383</ele>
        <time>2020-02-28T10:38:56Z</time>
      </trkpt>
      <trkpt lat="40.415750" lon="-4.785350">
        <ele>845.764</ele>
        <time>2020-02-28T10:39:16Z</time>
      </trkpt>
      <trkpt lat="40.415590" lon="-4.785430">
        <ele>844.126</ele>
        <time>2020-02-28T10:39:36Z</time>
      </trkpt>
      <trkpt lat="40.415510" lon="-4.785480">
        <ele>843.484</ele>
        <time>2020-02-28T10:39:56Z</time>
      </trkpt>
      <trkpt lat="40.414930" lon="-4.785910">
        <ele>840.597</ele>
        <time>2020-02-28T10:40:16Z</time>
      </trkpt>
      <trkpt lat="40.414850" lon="-4.785980">
        <ele>840.272</ele>
        <time>2020-02-28T10:40:36Z</time>
      </trkpt>
      <trkpt lat="40.414720" lon="-4.786150">
        <ele>840.058</ele>
        <time>2020-02-28T10:40:56Z</time>
      </trkpt>
      <trkpt lat="40.414080" lon="-4.787310">
        <ele>834.252</ele>
        <time>2020-02-28T10:41:16Z</time>
      </trkpt>
      <trkpt lat="40.414040" lon="-4.787360">
        <ele>833.517</ele>
        <time>2020-02-28T10:41:36Z</time>
      </trkpt>
      <trkpt lat="40.413990" lon="-4.787440">
        <ele>832.508</ele>
        <time>2020-02-28T10:41:56Z</time>
      </trkpt>
      <trkpt lat="40.413920" lon="-4.787510">
        <ele>831.459</ele>
        <time>2020-02-28T10:42:16Z</time>
      </trkpt>
      <trkpt lat="40.413850" lon="-4.787530">
        <ele>830.812</ele>
        <time>2020-02-28T10:42:36Z</time>
      </trkpt>
      <trkpt lat="40.413760" lon="-4.787570">
        <ele>830.437</ele>
        <time>2020-02-28T10:42:56Z</time>
      </trkpt>
      <trkpt lat="40.413700" lon="-4.787580">
        <ele>830.218</ele>
        <time>2020-02-28T10:43:16Z</time>
      </trkpt>
      <trkpt lat="40.413660" lon="-4.787580">
        <ele>830.160</ele>
        <time>2020-02-28T10:43:36Z</time>
      </trkpt>
      <trkpt lat="40.413010" lon="-4.787670">
        <ele>830.228</ele>
        <time>2020-02-28T10:43:56Z</time>
      </trkpt>
      <trkpt lat="40.412450" lon="-4.787810">
        <ele>838.531</ele>
        <time>2020-02-28T10:44:16Z</time>
      </trkpt>
      <trkpt lat="40.412370" lon="-4.787800">
        <ele>840.166</ele>
        <time>2020-02-28T10:44:36Z</time>
      </trkpt>
      <trkpt lat="40.412310" lon="-4.787760">
        <ele>840.937</ele>
        <time>2020-02-28T10:44:56Z</time>
      </trkpt>
      <trkpt lat="40.412280" lon="-4.787730">
        <ele>841.149</ele>
        <time>2020-02-28T10:45:16Z</time>
      </trkpt>
      <trkpt lat="40.412180" lon="-4.787590">
        <ele>840.913</ele>
        <time>2020-02-28T10:45:36Z</time>
      </trkpt>
      <trkpt lat="40.412110" lon="-4.787530">
        <ele>841.008</ele>
        <time>2020-02-28T10:45:56Z</time>
      </trkpt>
      <trkpt lat="40.412050" lon="-4.787460">
        <ele>841.067</ele>
        <time>2020-02-28T10:46:16Z</time>
      </trkpt>
      <trkpt lat="40.412000" lon="-4.787420">
        <ele>841.380</ele>
        <time>2020-02-28T10:46:36Z</time>
      </trkpt>
      <trkpt lat="40.411870" lon="-4.787380">
        <ele>842.335</ele>
        <time>2020-02-28T10:46:56Z</time>
      </trkpt>
      <trkpt lat="40.411530" lon="-4.787390">
        <ele>845.276</ele>
        <time>2020-02-28T10:47:16Z</time>
      </trkpt>
      <trkpt lat="40.411480" lon="-4.787380">
        <ele>845.538</ele>
        <time>2020-02-28T10:47:36Z</time>
      </trkpt>
      <trkpt lat="40.411420" lon="-4.787390">
        <ele>846.126</ele>
        <time>2020-02-28T10:47:56Z</time>
      </trkpt>
      <trkpt lat="40.411390" lon="-4.787390">
        <ele>846.449</ele>
        <time>2020-02-28T10:48:16Z</time>
      </trkpt>
      <trkpt lat="40.411350" lon="-4.787380">
        <ele>846.744</ele>
        <time>2020-02-28T10:48:36Z</time>
      </trkpt>
      <trkpt lat="40.411320" lon="-4.787380">
        <ele>847.063</ele>
        <time>2020-02-28T10:48:56Z</time>
      </trkpt>
      <trkpt lat="40.411190" lon="-4.787290">
        <ele>847.544</ele>
        <time>2020-02-28T10:49:16Z</time>
      </trkpt>
      <trkpt lat="40.411060" lon="-4.787160">
        <ele>848.618</ele>
        <time>2020-02-28T10:49:36Z</time>
      </trkpt>
      <trkpt lat="40.410980" lon="-4.786920">
        <ele>847.908</ele>
        <time>2020-02-28T10:49:56Z</time>
      </trkpt>
      <trkpt lat="40.410990" lon="-4.786710">
        <ele>848.150</ele>
        <time>2020-02-28T10:50:16Z</time>
      </trkpt>
      <trkpt lat="40.411030" lon="-4.786550">
        <ele>848.673</ele>
        <time>2020-02-28T10:50:36Z</time>
      </trkpt>
      <trkpt lat="40.411050" lon="-4.786500">
        <ele>848.858</ele>
        <time>2020-02-28T10:50:56Z</time>
      </trkpt>
      <trkpt lat="40.411060" lon="-4.786490">
        <ele>848.719</ele>
        <time>2020-02-28T10:51:16Z</time>
      </trkpt>
      <trkpt lat="40.411110" lon="-4.786320">
        <ele>849.551</ele>
        <time>2020-02-28T10:51:36Z</time>
      </trkpt>
      <trkpt lat="40.411110" lon="-4.786260">
        <ele>849.959</ele>
        <time>2020-02-28T10:51:56Z</time>
      </trkpt>
      <trkpt lat="40.411100" lon="-4.786200">
        <ele>850.522</ele>
        <time>2020-02-28T10:52:16Z</time>
      </trkpt>
      <trkpt lat="40.411100" lon="-4.786150">
        <ele>850.967</ele>
        <time>2020-02-28T10:52:36Z</time>
      </trkpt>
      <trkpt lat="40.411070" lon="-4.785990">
        <ele>851.525</ele>
        <time>2020-02-28T10:52:56Z</time>
      </trkpt>
      <trkpt lat="40.411010" lon="-4.785780">
        <ele>852.026</ele>
        <time>2020-02-28T10:53:16Z</time>
      </trkpt>
      <trkpt lat="40.410940" lon="-4.785650">
        <ele>852.408</ele>
        <time>2020-02-28T10:53:36Z</time>
      </trkpt>
      <trkpt lat="40.410940" lon="-4.785640">
        <ele>852.408</ele>
        <time>2020-02-28T10:53:56Z</time>
      </trkpt>
      <trkpt lat="40.410860" lon="-4.785540">
        <ele>852.826</ele>
        <time>2020-02-28T10:54:16Z</time>
      </trkpt>
      <trkpt lat="40.410770" lon="-4.785480">
        <ele>852.879</ele>
        <time>2020-02-28T10:54:36Z</time>
      </trkpt>
      <trkpt lat="40.410700" lon="-4.785450">
        <ele>852.784</ele>
        <time>2020-02-28T10:54:56Z</time>
      </trkpt>
      <trkpt lat="40.410420" lon="-4.785400">
        <ele>854.325</ele>
        <time>2020-02-28T10:55:16Z</time>
      </trkpt>
      <trkpt lat="40.410140" lon="-4.785400">
        <ele>857.187</ele>
        <time>2020-02-28T10:55:36Z</time>
      </trkpt>
      <trkpt lat="40.410000" lon="-4.785420">
        <ele>858.015</ele>
        <time>2020-02-28T10:55:56Z</time>
      </trkpt>
      <trkpt lat="40.409880" lon="-4.785460">
        <ele>858.348</ele>
        <time>2020-02-28T10:56:16Z</time>
      </trkpt>
      <trkpt lat="40.409800" lon="-4.785470">
        <ele>858.423</ele>
        <time>2020-02-28T10:56:36Z</time>
      </trkpt>
      <trkpt lat="40.409610" lon="-4.785580">
        <ele>859.257</ele>
        <time>2020-02-28T10:56:56Z</time>
      </trkpt>
      <trkpt lat="40.409360" lon="-4.785700">
        <ele>859.600</ele>
        <time>2020-02-28T10:57:16Z</time>
      </trkpt>
      <trkpt lat="40.409220" lon="-4.785780">
        <ele>859.220</ele>
        <time>2020-02-28T10:57:36Z</time>
      </trkpt>
      <trkpt lat="40.408930" lon="-4.785920">
        <ele>858.808</ele>
        <time>2020-02-28T10:57:56Z</time>
      </trkpt>
      <trkpt lat="40.408470" lon="-4.786230">
        <ele>856.849</ele>
        <time>2020-02-28T10:58:16Z</time>
      </trkpt>
      <trkpt lat="40.406880" lon="-4.787190">
        <ele>866.022</ele>
        <time>2020-02-28T10:58:36Z</time>
      </trkpt>
      <trkpt lat="40.406580" lon="-4.787400">
        <ele>867.867</ele>
        <time>2020-02-28T10:58:56Z</time>
      </trkpt>
      <trkpt lat="40.406510" lon="-4.787430">
        <ele>867.578</ele>
        <time>2020-02-28T10:59:16Z</time>
      </trkpt>
      <trkpt lat="40.406430" lon="-4.787480">
        <ele>867.250</ele>
        <time>2020-02-28T10:59:36Z</time>
      </trkpt>
      <trkpt lat="40.406340" lon="-4.787560">
        <ele>867.018</ele>
        <time>2020-02-28T10:59:56Z</time>
      </trkpt>
      <trkpt lat="40.406300" lon="-4.787610">
        <ele>867.121</ele>
        <time>2020-02-28T11:00:16Z</time>
      </trkpt>
      <trkpt lat="40.406230" lon="-4.787740">
        <ele>867.376</ele>
        <time>2020-02-28T11:00:36Z</time>
      </trkpt>
      <trkpt lat="40.406130" lon="-4.788030">
        <ele>868.019</ele>
        <time>2020-02-28T11:00:56Z</time>
      </trkpt>
      <trkpt lat="40.405970" lon="-4.788640">
        <ele>868.009</ele>
        <time>2020-02-28T11:01:16Z</time>
      </trkpt>
      <trkpt lat="40.405750" lon="-4.789320">
        <ele>864.919</ele>
        <time>2020-02-28T11:01:36Z</time>
      </trkpt>
      <trkpt lat="40.405660" lon="-4.789390">
        <ele>863.608</ele>
        <time>2020-02-28T11:01:56Z</time>
      </trkpt>
      <trkpt lat="40.405570" lon="-4.789760">
        <ele>861.165</ele>
        <time>2020-02-28T11:02:16Z</time>
      </trkpt>
      <trkpt lat="40.405520" lon="-4.790240">
        <ele>859.518</ele>
        <time>2020-02-28T11:02:36Z</time>
      </trkpt>
      <trkpt lat="40.405520" lon="-4.790460">
        <ele>858.053</ele>
        <time>2020-02-28T11:02:56Z</time>
      </trkpt>
      <trkpt lat="40.405730" lon="-4.791870">
        <ele>851.634</ele>
        <time>2020-02-28T11:03:16Z</time>
      </trkpt>
      <trkpt lat="40.405740" lon="-4.791890">
        <ele>851.626</ele>
        <time>2020-02-28T11:03:36Z</time>
      </trkpt>
      <trkpt lat="40.405630" lon="-4.792030">
        <ele>850.514</ele>
        <time>2020-02-28T11:03:56Z</time>
      </trkpt>
      <trkpt lat="40.405580" lon="-4.792110">
        <ele>850.127</ele>
        <time>2020-02-28T11:04:16Z</time>
      </trkpt>
      <trkpt lat="40.405550" lon="-4.792290">
        <ele>849.992</ele>
        <time>2020-02-28T11:04:36Z</time>
      </trkpt>
      <trkpt lat="40.405500" lon="-4.792500">
        <ele>848.634</ele>
        <time>2020-02-28T11:04:56Z</time>
      </trkpt>
      <trkpt lat="40.405490" lon="-4.792590">
        <ele>847.655</ele>
        <time>2020-02-28T11:05:16Z</time>
      </trkpt>
      <trkpt lat="40.405490" lon="-4.792890">
        <ele>845.310</ele>
        <time>2020-02-28T11:05:36Z</time>
      </trkpt>
      <trkpt lat="40.405510" lon="-4.793250">
        <ele>843.708</ele>
        <time>2020-02-28T11:05:56Z</time>
      </trkpt>
      <trkpt lat="40.405510" lon="-4.793750">
        <ele>842.857</ele>
        <time>2020-02-28T11:06:16Z</time>
      </trkpt>
      <trkpt lat="40.405490" lon="-4.794050">
        <ele>842.850</ele>
        <time>2020-02-28T11:06:36Z</time>
      </trkpt>
      <trkpt lat="40.405460" lon="-4.794270">
        <ele>842.365</ele>
        <time>2020-02-28T11:06:56Z</time>
      </trkpt>
      <trkpt lat="40.405390" lon="-4.794550">
        <ele>841.476</ele>
        <time>2020-02-28T11:07:16Z</time>
      </trkpt>
      <trkpt lat="40.405300" lon="-4.794820">
        <ele>841.158</ele>
        <time>2020-02-28T11:07:36Z</time>
      </trkpt>
      <trkpt lat="40.405240" lon="-4.794960">
        <ele>841.246</ele>
        <time>2020-02-28T11:07:56Z</time>
      </trkpt>
      <trkpt lat="40.405180" lon="-4.795050">
        <ele>841.039</ele>
        <time>2020-02-28T11:08:16Z</time>
      </trkpt>
      <trkpt lat="40.405130" lon="-4.795080">
        <ele>840.464</ele>
        <time>2020-02-28T11:08:36Z</time>
      </trkpt>
      <trkpt lat="40.405080" lon="-4.795100">
        <ele>839.941</ele>
        <time>2020-02-28T11:08:56Z</time>
      </trkpt>
      <trkpt lat="40.404880" lon="-4.795130">
        <ele>840.781</ele>
        <time>2020-02-28T11:09:16Z</time>
      </trkpt>
      <trkpt lat="40.404830" lon="-4.795130">
        <ele>841.409</ele>
        <time>2020-02-28T11:09:36Z</time>
      </trkpt>
      <trkpt lat="40.404750" lon="-4.795090">
        <ele>842.208</ele>
        <time>2020-02-28T11:09:56Z</time>
      </trkpt>
      <trkpt lat="40.404630" lon="-4.794930">
        <ele>842.298</ele>
        <time>2020-02-28T11:10:16Z</time>
      </trkpt>
      <trkpt lat="40.404560" lon="-4.794820">
        <ele>841.891</ele>
        <time>2020-02-28T11:10:36Z</time>
      </trkpt>
      <trkpt lat="40.404400" lon="-4.794700">
        <ele>841.496</ele>
        <time>2020-02-28T11:10:56Z</time>
      </trkpt>
      <trkpt lat="40.404300" lon="-4.794650">
        <ele>839.997</ele>
        <time>2020-02-28T11:11:16Z</time>
      </trkpt>
      <trkpt lat="40.404190" lon="-4.794640">
        <ele>839.319</ele>
        <time>2020-02-28T11:11:36Z</time>
      </trkpt>
      <trkpt lat="40.404080" lon="-4.794650">
        <ele>838.497</ele>
        <time>2020-02-28T11:11:56Z</time>
      </trkpt>
      <trkpt lat="40.404010" lon="-4.794670">
        <ele>837.860</ele>
        <time>2020-02-28T11:12:16Z</time>
      </trkpt>
      <trkpt lat="40.403980" lon="-4.794670">
        <ele>837.485</ele>
        <time>2020-02-28T11:12:36Z</time>
      </trkpt>
      <trkpt lat="40.403940" lon="-4.794680">
        <ele>837.131</ele>
        <time>2020-02-28T11:12:56Z</time>
      </trkpt>
      <trkpt lat="40.403910" lon="-4.794670">
        <ele>836.561</ele>
        <time>2020-02-28T11:13:16Z</time>
      </trkpt>
      <trkpt lat="40.403860" lon="-4.794640">
        <ele>836.607</ele>
        <time>2020-02-28T11:13:36Z</time>
      </trkpt>
      <trkpt lat="40.403830" lon="-4.794600">
        <ele>836.808</ele>
        <time>2020-02-28T11:13:56Z</time>
      </trkpt>
      <trkpt lat="40.403780" lon="-4.794550">
        <ele>837.447</ele>
        <time>2020-02-28T11:14:16Z</time>
      </trkpt>
      <trkpt lat="40.403700" lon="-4.794420">
        <ele>837.330</ele>
        <time>2020-02-28T11:14:36Z</time>
      </trkpt>
      <trkpt lat="40.403600" lon="-4.794340">
        <ele>838.135</ele>
        <time>2020-02-28T11:14:56Z</time>
      </trkpt>
      <trkpt lat="40.403530" lon="-4.794310">
        <ele>837.456</ele>
        <time>2020-02-28T11:15:16Z</time>
      </trkpt>
      <trkpt lat="40.403470" lon="-4.794310">
        <ele>837.378</ele>
        <time>2020-02-28T11:15:36Z</time>
      </trkpt>
      <trkpt lat="40.403420" lon="-4.794320">
        <ele>837.596</ele>
        <time>2020-02-28T11:15:56Z</time>
      </trkpt>
      <trkpt lat="40.403180" lon="-4.794410">
        <ele>836.889</ele>
        <time>2020-02-28T11:16:16Z</time>
      </trkpt>
      <trkpt lat="40.403000" lon="-4.794420">
        <ele>835.054</ele>
        <time>2020-02-28T11:16:36Z</time>
      </trkpt>
      <trkpt lat="40.402730" lon="-4.794370">
        <ele>833.469</ele>
        <time>2020-02-28T11:16:56Z</time>
      </trkpt>
      <trkpt lat="40.402390" lon="-4.794270">
        <ele>831.104</ele>
        <time>2020-02-28T11:17:16Z</time>
      </trkpt>
      <trkpt lat="40.402240" lon="-4.794250">
        <ele>829.624</ele>
        <time>2020-02-28T11:17:36Z</time>
      </trkpt>
      <trkpt lat="40.402110" lon="-4.794300">
        <ele>828.808</ele>
        <time>2020-02-28T11:17:56Z</time>
      </trkpt>
      <trkpt lat="40.401840" lon="-4.794430">
        <ele>826.950</ele>
        <time>2020-02-28T11:18:16Z</time>
      </trkpt>
      <trkpt lat="40.401560" lon="-4.794490">
        <ele>826.963</ele>
        <time>2020-02-28T11:18:36Z</time>
      </trkpt>
      <trkpt lat="40.401370" lon="-4.794500">
        <ele>831.298</ele>
        <time>2020-02-28T11:18:56Z</time>
      </trkpt>
      <trkpt lat="40.400890" lon="-4.794450">
        <ele>832.279</ele>
        <time>2020-02-28T11:19:16Z</time>
      </trkpt>
      <trkpt lat="40.400710" lon="-4.794480">
        <ele>832.271</ele>
        <time>2020-02-28T11:19:36Z</time>
      </trkpt>
      <trkpt lat="40.400680" lon="-4.794480">
        <ele>832.049</ele>
        <time>2020-02-28T11:19:56Z</time>
      </trkpt>
      <trkpt lat="40.400240" lon="-4.794700">
        <ele>832.562</ele>
        <time>2020-02-28T11:20:16Z</time>
      </trkpt>
      <trkpt lat="40.399830" lon="-4.794990">
        <ele>833.057</ele>
        <time>2020-02-28T11:20:36Z</time>
      </trkpt>
      <trkpt lat="40.399570" lon="-4.795260">
        <ele>833.023</ele>
        <time>2020-02-28T11:20:56Z</time>
      </trkpt>
      <trkpt lat="40.399270" lon="-4.795670">
        <ele>832.683</ele>
        <time>2020-02-28T11:21:16Z</time>
      </trkpt>
      <trkpt lat="40.399190" lon="-4.795870">
        <ele>831.611</ele>
        <time>2020-02-28T11:21:36Z</time>
      </trkpt>
      <trkpt lat="40.399180" lon="-4.795970">
        <ele>831.008</ele>
        <time>2020-02-28T11:21:56Z</time>
      </trkpt>
      <trkpt lat="40.399180" lon="-4.796080">
        <ele>830.636</ele>
        <time>2020-02-28T11:22:16Z</time>
      </trkpt>
      <trkpt lat="40.399240" lon="-4.796370">
        <ele>826.739</ele>
        <time>2020-02-28T11:22:36Z</time>
      </trkpt>
      <trkpt lat="40.399260" lon="-4.796520">
        <ele>825.854</ele>
        <time>2020-02-28T11:22:56Z</time>
      </trkpt>
      <trkpt lat="40.399260" lon="-4.796560">
        <ele>825.375</ele>
        <time>2020-02-28T11:23:16Z</time>
      </trkpt>
      <trkpt lat="40.399250" lon="-4.796590">
        <ele>824.477</ele>
        <time>2020-02-28T11:23:36Z</time>
      </trkpt>
      <trkpt lat="40.399230" lon="-4.796620">
        <ele>823.065</ele>
        <time>2020-02-28T11:23:56Z</time>
      </trkpt>
      <trkpt lat="40.399180" lon="-4.796650">
        <ele>819.918</ele>
        <time>2020-02-28T11:24:16Z</time>
      </trkpt>
      <trkpt lat="40.398700" lon="-4.796860">
        <ele>826.513</ele>
        <time>2020-02-28T11:24:36Z</time>
      </trkpt>
      <trkpt lat="40.398670" lon="-4.796880">
        <ele>827.935</ele>
        <time>2020-02-28T11:24:56Z</time>
      </trkpt>
      <trkpt lat="40.398620" lon="-4.796890">
        <ele>830.186</ele>
        <time>2020-02-28T11:25:16Z</time>
      </trkpt>
      <trkpt lat="40.398590" lon="-4.796880">
        <ele>830.614</ele>
        <time>2020-02-28T11:25:36Z</time>
      </trkpt>
      <trkpt lat="40.398520" lon="-4.796880">
        <ele>831.608</ele>
        <time>2020-02-28T11:25:56Z</time>
      </trkpt>
      <trkpt lat="40.398480" lon="-4.796870">
        <ele>832.187</ele>
        <time>2020-02-28T11:26:16Z</time>
      </trkpt>
      <trkpt lat="40.398220" lon="-4.796720">
        <ele>834.280</ele>
        <time>2020-02-28T11:26:36Z</time>
      </trkpt>
      <trkpt lat="40.398090" lon="-4.796550">
        <ele>834.295</ele>
        <time>2020-02-28T11:26:56Z</time>
      </trkpt>
      <trkpt lat="40.397940" lon="-4.796390">
        <ele>835.926</ele>
        <time>2020-02-28T11:27:16Z</time>
      </trkpt>
      <trkpt lat="40.397860" lon="-4.796270">
        <ele>837.578</ele>
        <time>2020-02-28T11:27:36Z</time>
      </trkpt>
      <trkpt lat="40.397820" lon="-4.796190">
        <ele>838.636</ele>
        <time>2020-02-28T11:27:56Z</time>
      </trkpt>
      <trkpt lat="40.397750" lon="-4.795960">
        <ele>840.029</ele>
        <time>2020-02-28T11:28:16Z</time>
      </trkpt>
      <trkpt lat="40.397670" lon="-4.795750">
        <ele>839.334</ele>
        <time>2020-02-28T11:28:36Z</time>
      </trkpt>
      <trkpt lat="40.397610" lon="-4.795640">
        <ele>838.938</ele>
        <time>2020-02-28T11:28:56Z</time>
      </trkpt>
      <trkpt lat="40.397550" lon="-4.795580">
        <ele>839.370</ele>
        <time>2020-02-28T11:29:16Z</time>
      </trkpt>
      <trkpt lat="40.397480" lon="-4.795530">
        <ele>839.617</ele>
        <time>2020-02-28T11:29:36Z</time>
      </trkpt>
      <trkpt lat="40.397410" lon="-4.795520">
        <ele>839.608</ele>
        <time>2020-02-28T11:29:56Z</time>
      </trkpt>
      <trkpt lat="40.397360" lon="-4.795520">
        <ele>839.657</ele>
        <time>2020-02-28T11:30:16Z</time>
      </trkpt>
      <trkpt lat="40.397270" lon="-4.795550">
        <ele>840.080</ele>
        <time>2020-02-28T11:30:36Z</time>
      </trkpt>
      <trkpt lat="40.397200" lon="-4.795640">
        <ele>840.275</ele>
        <time>2020-02-28T11:30:56Z</time>
      </trkpt>
      <trkpt lat="40.397140" lon="-4.795800">
        <ele>840.846</ele>
        <time>2020-02-28T11:31:16Z</time>
      </trkpt>
      <trkpt lat="40.397090" lon="-4.795990">
        <ele>841.398</ele>
        <time>2020-02-28T11:31:36Z</time>
      </trkpt>
      <trkpt lat="40.396850" lon="-4.796690">
        <ele>847.586</ele>
        <time>2020-02-28T11:31:56Z</time>
      </trkpt>
      <trkpt lat="40.396820" lon="-4.796840">
        <ele>848.739</ele>
        <time>2020-02-28T11:32:16Z</time>
      </trkpt>
      <trkpt lat="40.396810" lon="-4.796860">
        <ele>849.034</ele>
        <time>2020-02-28T11:32:36Z</time>
      </trkpt>
      <trkpt lat="40.396790" lon="-4.796930">
        <ele>849.796</ele>
        <time>2020-02-28T11:32:56Z</time>
      </trkpt>
      <trkpt lat="40.396750" lon="-4.797390">
        <ele>854.431</ele>
        <time>2020-02-28T11:33:16Z</time>
      </trkpt>
      <trkpt lat="40.396770" lon="-4.797500">
        <ele>854.824</ele>
        <time>2020-02-28T11:33:36Z</time>
      </trkpt>
      <trkpt lat="40.396840" lon="-4.797690">
        <ele>855.108</ele>
        <time>2020-02-28T11:33:56Z</time>
      </trkpt>
      <trkpt lat="40.396890" lon="-4.797790">
        <ele>855.123</ele>
        <time>2020-02-28T11:34:16Z</time>
      </trkpt>
      <trkpt lat="40.396940" lon="-4.797980">
        <ele>856.346</ele>
        <time>2020-02-28T11:34:36Z</time>
      </trkpt>
      <trkpt lat="40.396950" lon="-4.798060">
        <ele>856.871</ele>
        <time>2020-02-28T11:34:56Z</time>
      </trkpt>
      <trkpt lat="40.396940" lon="-4.798630">
        <ele>865.392</ele>
        <time>2020-02-28T11:35:16Z</time>
      </trkpt>
      <trkpt lat="40.396970" lon="-4.798740">
        <ele>866.264</ele>
        <time>2020-02-28T11:35:36Z</time>
      </trkpt>
      <trkpt lat="40.397030" lon="-4.798820">
        <ele>865.852</ele>
        <time>2020-02-28T11:35:56Z</time>
      </trkpt>
      <trkpt lat="40.397070" lon="-4.798860">
        <ele>865.485</ele>
        <time>2020-02-28T11:36:16Z</time>
      </trkpt>
      <trkpt lat="40.397110" lon="-4.798920">
        <ele>865.390</ele>
        <time>2020-02-28T11:36:36Z</time>
      </trkpt>
      <trkpt lat="40.397150" lon="-4.798950">
        <ele>864.799</ele>
        <time>2020-02-28T11:36:56Z</time>
      </trkpt>
      <trkpt lat="40.397190" lon="-4.799040">
        <ele>865.007</ele>
        <time>2020-02-28T11:37:16Z</time>
      </trkpt>
      <trkpt lat="40.397210" lon="-4.799110">
        <ele>865.527</ele>
        <time>2020-02-28T11:37:36Z</time>
      </trkpt>
      <trkpt lat="40.397220" lon="-4.799410">
        <ele>868.708</ele>
        <time>2020-02-28T11:37:56Z</time>
      </trkpt>
      <trkpt lat="40.397200" lon="-4.799610">
        <ele>872.043</ele>
        <time>2020-02-28T11:38:16Z</time>
      </trkpt>
      <trkpt lat="40.397220" lon="-4.799790">
        <ele>873.896</ele>
        <time>2020-02-28T11:38:36Z</time>
      </trkpt>
      <trkpt lat="40.397240" lon="-4.799840">
        <ele>873.511</ele>
        <time>2020-02-28T11:38:56Z</time>
      </trkpt>
      <trkpt lat="40.397340" lon="-4.799990">
        <ele>871.282</ele>
        <time>2020-02-28T11:39:16Z</time>
      </trkpt>
      <trkpt lat="40.397390" lon="-4.800100">
        <ele>869.924</ele>
        <time>2020-02-28T11:39:36Z</time>
      </trkpt>
      <trkpt lat="40.397390" lon="-4.800130">
        <ele>870.162</ele>
        <time>2020-02-28T11:39:56Z</time>
      </trkpt>
      <trkpt lat="40.397410" lon="-4.800250">
        <ele>869.785</ele>
        <time>2020-02-28T11:40:16Z</time>
      </trkpt>
      <trkpt lat="40.397410" lon="-4.800430">
        <ele>872.830</ele>
        <time>2020-02-28T11:40:36Z</time>
      </trkpt>
      <trkpt lat="40.397430" lon="-4.800660">
        <ele>875.979</ele>
        <time>2020-02-28T11:40:56Z</time>
      </trkpt>
      <trkpt lat="40.397510" lon="-4.800880">
        <ele>876.505</ele>
        <time>2020-02-28T11:41:16Z</time>
      </trkpt>
      <trkpt lat="40.397580" lon="-4.801030">
        <ele>877.825</ele>
        <time>2020-02-28T11:41:36Z</time>
      </trkpt>
      <trkpt lat="40.397650" lon="-4.801150">
        <ele>880.208</ele>
        <time>2020-02-28T11:41:56Z</time>
      </trkpt>
      <trkpt lat="40.397730" lon="-4.801250">
        <ele>882.361</ele>
        <time>2020-02-28T11:42:16Z</time>
      </trkpt>
      <trkpt lat="40.397750" lon="-4.801300">
        <ele>883.624</ele>
        <time>2020-02-28T11:42:36Z</time>
      </trkpt>
      <trkpt lat="40.397780" lon="-4.801340">
        <ele>884.429</ele>
        <time>2020-02-28T11:42:56Z</time>
      </trkpt>
      <trkpt lat="40.397810" lon="-4.801360">
        <ele>884.390</ele>
        <time>2020-02-28T11:43:16Z</time>
      </trkpt>
      <trkpt lat="40.397900" lon="-4.801380">
        <ele>882.622</ele>
        <time>2020-02-28T11:43:36Z</time>
      </trkpt>
      <trkpt lat="40.397990" lon="-4.801380">
        <ele>880.490</ele>
        <time>2020-02-28T11:43:56Z</time>
      </trkpt>
      <trkpt lat="40.398010" lon="-4.801390">
        <ele>880.263</ele>
        <time>2020-02-28T11:44:16Z</time>
      </trkpt>
      <trkpt lat="40.398090" lon="-4.801460">
        <ele>878.958</ele>
        <time>2020-02-28T11:44:36Z</time>
      </trkpt>
      <trkpt lat="40.398130" lon="-4.801510">
        <ele>878.429</ele>
        <time>2020-02-28T11:44:56Z</time>
      </trkpt>
      <trkpt lat="40.398160" lon="-4.801570">
        <ele>878.300</ele>
        <time>2020-02-28T11:45:16Z</time>
      </trkpt>
      <trkpt lat="40.398230" lon="-4.801820">
        <ele>879.420</ele>
        <time>2020-02-28T11:45:36Z</time>
      </trkpt>
      <trkpt lat="40.398240" lon="-4.801900">
        <ele>880.108</ele>
        <time>2020-02-28T11:45:56Z</time>
      </trkpt>
      <trkpt lat="40.398240" lon="-4.802090">
        <ele>880.056</ele>
        <time>2020-02-28T11:46:16Z</time>
      </trkpt>
      <trkpt lat="40.398220" lon="-4.802220">
        <ele>879.619</ele>
        <time>2020-02-28T11:46:36Z</time>
      </trkpt>
      <trkpt lat="40.398090" lon="-4.802460">
        <ele>879.794</ele>
        <time>2020-02-28T11:46:56Z</time>
      </trkpt>
      <trkpt lat="40.397970" lon="-4.802630">
        <ele>882.345</ele>
        <time>2020-02-28T11:47:16Z</time>
      </trkpt>
      <trkpt lat="40.397930" lon="-4.802740">
        <ele>883.167</ele>
        <time>2020-02-28T11:47:36Z</time>
      </trkpt>
      <trkpt lat="40.397900" lon="-4.802790">
        <ele>884.375</ele>
        <time>2020-02-28T11:47:56Z</time>
      </trkpt>
      <trkpt lat="40.397900" lon="-4.802810">
        <ele>884.278</ele>
        <time>2020-02-28T11:48:16Z</time>
      </trkpt>
      <trkpt lat="40.397810" lon="-4.803330">
        <ele>887.623</ele>
        <time>2020-02-28T11:48:36Z</time>
      </trkpt>
      <trkpt lat="40.397650" lon="-4.804070">
        <ele>885.869</ele>
        <time>2020-02-28T11:48:56Z</time>
      </trkpt>
      <trkpt lat="40.397590" lon="-4.804210">
        <ele>886.604</ele>
        <time>2020-02-28T11:49:16Z</time>
      </trkpt>
      <trkpt lat="40.397550" lon="-4.804270">
        <ele>887.424</ele>
        <time>2020-02-28T11:49:36Z</time>
      </trkpt>
      <trkpt lat="40.397480" lon="-4.804350">
        <ele>888.808</ele>
        <time>2020-02-28T11:49:56Z</time>
      </trkpt>
      <trkpt lat="40.397390" lon="-4.804420">
        <ele>890.810</ele>
        <time>2020-02-28T11:50:16Z</time>
      </trkpt>
      <trkpt lat="40.397320" lon="-4.804500">
        <ele>891.973</ele>
        <time>2020-02-28T11:50:36Z</time>
      </trkpt>
      <trkpt lat="40.397290" lon="-4.804560">
        <ele>891.828</ele>
        <time>2020-02-28T11:50:56Z</time>
      </trkpt>
      <trkpt lat="40.397220" lon="-4.804750">
        <ele>890.399</ele>
        <time>2020-02-28T11:51:16Z</time>
      </trkpt>
      <trkpt lat="40.397140" lon="-4.804880">
        <ele>890.981</ele>
        <time>2020-02-28T11:51:36Z</time>
      </trkpt>
      <trkpt lat="40.397070" lon="-4.804970">
        <ele>892.529</ele>
        <time>2020-02-28T11:51:56Z</time>
      </trkpt>
      <trkpt lat="40.397020" lon="-4.805010">
        <ele>894.332</ele>
        <time>2020-02-28T11:52:16Z</time>
      </trkpt>
      <trkpt lat="40.397010" lon="-4.805030">
        <ele>894.217</ele>
        <time>2020-02-28T11:52:36Z</time>
      </trkpt>
      <trkpt lat="40.396960" lon="-4.805060">
        <ele>896.057</ele>
        <time>2020-02-28T11:52:56Z</time>
      </trkpt>
      <trkpt lat="40.396890" lon="-4.805090">
        <ele>897.100</ele>
        <time>2020-02-28T11:53:16Z</time>
      </trkpt>
      <trkpt lat="40.396720" lon="-4.805190">
        <ele>899.020</ele>
        <time>2020-02-28T11:53:36Z</time>
      </trkpt>
      <trkpt lat="40.396700" lon="-4.805220">
        <ele>899.008</ele>
        <time>2020-02-28T11:53:56Z</time>
      </trkpt>
      <trkpt lat="40.396620" lon="-4.805310">
        <ele>898.919</ele>
        <time>2020-02-28T11:54:16Z</time>
      </trkpt>
      <trkpt lat="40.396510" lon="-4.805480">
        <ele>896.912</ele>
        <time>2020-02-28T11:54:36Z</time>
      </trkpt>
      <trkpt lat="40.396370" lon="-4.805630">
        <ele>898.547</ele>
        <time>2020-02-28T11:54:56Z</time>
      </trkpt>
      <trkpt lat="40.396310" lon="-4.805710">
        <ele>898.798</ele>
        <time>2020-02-28T11:55:16Z</time>
      </trkpt>
      <trkpt lat="40.396200" lon="-4.805830">
        <ele>898.540</ele>
        <time>2020-02-28T11:55:36Z</time>
      </trkpt>
      <trkpt lat="40.396020" lon="-4.806000">
        <ele>901.088</ele>
        <time>2020-02-28T11:55:56Z</time>
      </trkpt>
      <trkpt lat="40.395970" lon="-4.806060">
        <ele>901.241</ele>
        <time>2020-02-28T11:56:16Z</time>
      </trkpt>
      <trkpt lat="40.395910" lon="-4.806110">
        <ele>901.266</ele>
        <time>2020-02-28T11:56:36Z</time>
      </trkpt>
      <trkpt lat="40.395880" lon="-4.806120">
        <ele>901.493</ele>
        <time>2020-02-28T11:56:56Z</time>
      </trkpt>
      <trkpt lat="40.395870" lon="-4.806130">
        <ele>901.565</ele>
        <time>2020-02-28T11:57:16Z</time>
      </trkpt>
      <trkpt lat="40.395820" lon="-4.806130">
        <ele>902.121</ele>
        <time>2020-02-28T11:57:36Z</time>
      </trkpt>
      <trkpt lat="40.395710" lon="-4.806100">
        <ele>904.408</ele>
        <time>2020-02-28T11:57:56Z</time>
      </trkpt>
      <trkpt lat="40.395700" lon="-4.806100">
        <ele>904.623</ele>
        <time>2020-02-28T11:58:16Z</time>
      </trkpt>
      <trkpt lat="40.395530" lon="-4.806040">
        <ele>907.976</ele>
        <time>2020-02-28T11:58:36Z</time>
      </trkpt>
      <trkpt lat="40.395460" lon="-4.806050">
        <ele>908.811</ele>
        <time>2020-02-28T11:58:56Z</time>
      </trkpt>
      <trkpt lat="40.395380" lon="-4.806090">
        <ele>909.752</ele>
        <time>2020-02-28T11:59:16Z</time>
      </trkpt>
      <trkpt lat="40.395330" lon="-4.806150">
        <ele>910.154</ele>
        <time>2020-02-28T11:59:36Z</time>
      </trkpt>
      <trkpt lat="40.395310" lon="-4.806220">
        <ele>910.142</ele>
        <time>2020-02-28T11:59:56Z</time>
      </trkpt>
      <trkpt lat="40.395260" lon="-4.806560">
        <ele>910.245</ele>
        <time>2020-02-28T12:00:16Z</time>
      </trkpt>
      <trkpt lat="40.395260" lon="-4.806620">
        <ele>910.210</ele>
        <time>2020-02-28T12:00:36Z</time>
      </trkpt>
      <trkpt lat="40.395220" lon="-4.806830">
        <ele>909.976</ele>
        <time>2020-02-28T12:00:56Z</time>
      </trkpt>
      <trkpt lat="40.395190" lon="-4.806880">
        <ele>909.990</ele>
        <time>2020-02-28T12:01:16Z</time>
      </trkpt>
      <trkpt lat="40.395120" lon="-4.806970">
        <ele>910.119</ele>
        <time>2020-02-28T12:01:36Z</time>
      </trkpt>
      <trkpt lat="40.394720" lon="-4.807350">
        <ele>913.608</ele>
        <time>2020-02-28T12:01:56Z</time>
      </trkpt>
      <trkpt lat="40.394660" lon="-4.807390">
        <ele>914.641</ele>
        <time>2020-02-28T12:02:16Z</time>
      </trkpt>
      <trkpt lat="40.394570" lon="-4.807420">
        <ele>916.284</ele>
        <time>2020-02-28T12:02:36Z</time>
      </trkpt>
      <trkpt lat="40.394240" lon="-4.807470">
        <ele>920.029</ele>
        <time>2020-02-28T12:02:56Z</time>
      </trkpt>
      <trkpt lat="40.394160" lon="-4.807470">
        <ele>920.890</ele>
        <time>2020-02-28T12:03:16Z</time>
      </trkpt>
      <trkpt lat="40.394070" lon="-4.807500">
        <ele>921.752</ele>
        <time>2020-02-28T12:03:36Z</time>
      </trkpt>
      <trkpt lat="40.394010" lon="-4.807530">
        <ele>922.520</ele>
        <time>2020-02-28T12:03:56Z</time>
      </trkpt>
      <trkpt lat="40.393960" lon="-4.807570">
        <ele>922.893</ele>
        <time>2020-02-28T12:04:16Z</time>
      </trkpt>
      <trkpt lat="40.393800" lon="-4.807740">
        <ele>924.178</ele>
        <time>2020-02-28T12:04:36Z</time>
      </trkpt>
      <trkpt lat="40.393700" lon="-4.807900">
        <ele>926.376</ele>
        <time>2020-02-28T12:04:56Z</time>
      </trkpt>
      <trkpt lat="40.393620" lon="-4.808080">
        <ele>926.490</ele>
        <time>2020-02-28T12:05:16Z</time>
      </trkpt>
      <trkpt lat="40.393500" lon="-4.808270">
        <ele>925.619</ele>
        <time>2020-02-28T12:05:36Z</time>
      </trkpt>
      <trkpt lat="40.393440" lon="-4.808310">
        <ele>925.908</ele>
        <time>2020-02-28T12:05:56Z</time>
      </trkpt>
      <trkpt lat="40.393340" lon="-4.808340">
        <ele>926.851</ele>
        <time>2020-02-28T12:06:16Z</time>
      </trkpt>
      <trkpt lat="40.393210" lon="-4.808290">
        <ele>928.284</ele>
        <time>2020-02-28T12:06:36Z</time>
      </trkpt>
      <trkpt lat="40.393010" lon="-4.808190">
        <ele>930.259</ele>
        <time>2020-02-28T12:06:56Z</time>
      </trkpt>
      <trkpt lat="40.392790" lon="-4.807960">
        <ele>930.620</ele>
        <time>2020-02-28T12:07:16Z</time>
      </trkpt>
      <trkpt lat="40.392540" lon="-4.807640">
        <ele>931.682</ele>
        <time>2020-02-28T12:07:36Z</time>
      </trkpt>
      <trkpt lat="40.392410" lon="-4.807590">
        <ele>932.190</ele>
        <time>2020-02-28T12:07:56Z</time>
      </trkpt>
      <trkpt lat="40.392240" lon="-4.807630">
        <ele>933.413</ele>
        <time>2020-02-28T12:08:16Z</time>
      </trkpt>
      <trkpt lat="40.391910" lon="-4.807730">
        <ele>936.348</ele>
        <time>2020-02-28T12:08:36Z</time>
      </trkpt>
      <trkpt lat="40.391800" lon="-4.807810">
        <ele>936.347</ele>
        <time>2020-02-28T12:08:56Z</time>
      </trkpt>
      <trkpt lat="40.391680" lon="-4.807940">
        <ele>936.329</ele>
        <time>2020-02-28T12:09:16Z</time>
      </trkpt>
      <trkpt lat="40.391190" lon="-4.808570">
        <ele>941.121</ele>
        <time>2020-02-28T12:09:36Z</time>
      </trkpt>
      <trkpt lat="40.391040" lon="-4.808710">
        <ele>943.008</ele>
        <time>2020-02-28T12:09:56Z</time>
      </trkpt>
      <trkpt lat="40.390790" lon="-4.808980">
        <ele>946.498</ele>
        <time>2020-02-28T12:10:16Z</time>
      </trkpt>
      <trkpt lat="40.390760" lon="-4.809060">
        <ele>945.841</ele>
        <time>2020-02-28T12:10:36Z</time>
      </trkpt>
      <trkpt lat="40.390760" lon="-4.809190">
        <ele>944.426</ele>
        <time>2020-02-28T12:10:56Z</time>
      </trkpt>
      <trkpt lat="40.390770" lon="-4.809190">
        <ele>944.287</ele>
        <time>2020-02-28T12:11:16Z</time>
      </trkpt>
      <trkpt lat="40.390770" lon="-4.809230">
        <ele>944.349</ele>
        <time>2020-02-28T12:11:36Z</time>
      </trkpt>
      <trkpt lat="40.390780" lon="-4.809270">
        <ele>944.387</ele>
        <time>2020-02-28T12:11:56Z</time>
      </trkpt>
      <trkpt lat="40.390780" lon="-4.809310">
        <ele>944.450</ele>
        <time>2020-02-28T12:12:16Z</time>
      </trkpt>
      <trkpt lat="40.390770" lon="-4.809370">
        <ele>944.785</ele>
        <time>2020-02-28T12:12:36Z</time>
      </trkpt>
      <trkpt lat="40.390760" lon="-4.809400">
        <ele>944.953</ele>
        <time>2020-02-28T12:12:56Z</time>
      </trkpt>
      <trkpt lat="40.390640" lon="-4.809620">
        <ele>945.504</ele>
        <time>2020-02-28T12:13:16Z</time>
      </trkpt>
      <trkpt lat="40.390530" lon="-4.809770">
        <ele>946.014</ele>
        <time>2020-02-28T12:13:36Z</time>
      </trkpt>
      <trkpt lat="40.390490" lon="-4.809790">
        <ele>946.508</ele>
        <time>2020-02-28T12:13:56Z</time>
      </trkpt>
      <trkpt lat="40.390400" lon="-4.809810">
        <ele>947.699</ele>
        <time>2020-02-28T12:14:16Z</time>
      </trkpt>
      <trkpt lat="40.390240" lon="-4.809870">
        <ele>949.492</ele>
        <time>2020-02-28T12:14:36Z</time>
      </trkpt>
      <trkpt lat="40.390210" lon="-4.809890">
        <ele>949.667</ele>
        <time>2020-02-28T12:14:56Z</time>
      </trkpt>
      <trkpt lat="40.390150" lon="-4.809990">
        <ele>949.558</ele>
        <time>2020-02-28T12:15:16Z</time>
      </trkpt>
      <trkpt lat="40.390120" lon="-4.810060">
        <ele>949.480</ele>
        <time>2020-02-28T12:15:36Z</time>
      </trkpt>
      <trkpt lat="40.389980" lon="-4.810270">
        <ele>949.388</ele>
        <time>2020-02-28T12:15:56Z</time>
      </trkpt>
      <trkpt lat="40.389920" lon="-4.810320">
        <ele>950.071</ele>
        <time>2020-02-28T12:16:16Z</time>
      </trkpt>
      <trkpt lat="40.389810" lon="-4.810440">
        <ele>951.296</ele>
        <time>2020-02-28T12:16:36Z</time>
      </trkpt>
      <trkpt lat="40.389730" lon="-4.810590">
        <ele>951.944</ele>
        <time>2020-02-28T12:16:56Z</time>
      </trkpt>
      <trkpt lat="40.389660" lon="-4.810790">
        <ele>953.805</ele>
        <time>2020-02-28T12:17:16Z</time>
      </trkpt>
      <trkpt lat="40.389640" lon="-4.810900">
        <ele>954.715</ele>
        <time>2020-02-28T12:17:36Z</time>
      </trkpt>
      <trkpt lat="40.389640" lon="-4.810980">
        <ele>955.108</ele>
        <time>2020-02-28T12:17:56Z</time>
      </trkpt>
      <trkpt lat="40.389730" lon="-4.811780">
        <ele>960.058</ele>
        <time>2020-02-28T12:18:16Z</time>
      </trkpt>
      <trkpt lat="40.389760" lon="-4.812410">
        <ele>965.311</ele>
        <time>2020-02-28T12:18:36Z</time>
      </trkpt>
      <trkpt lat="40.389800" lon="-4.812600">
        <ele>965.756</ele>
        <time>2020-02-28T12:18:56Z</time>
      </trkpt>
      <trkpt lat="40.389800" lon="-4.812620">
        <ele>965.977</ele>
        <time>2020-02-28T12:19:16Z</time>
      </trkpt>
      <trkpt lat="40.389910" lon="-4.813050">
        <ele>966.539</ele>
        <time>2020-02-28T12:19:36Z</time>
      </trkpt>
      <trkpt lat="40.389950" lon="-4.813380">
        <ele>968.177</ele>
        <time>2020-02-28T12:19:56Z</time>
      </trkpt>
      <trkpt lat="40.389920" lon="-4.813950">
        <ele>973.530</ele>
        <time>2020-02-28T12:20:16Z</time>
      </trkpt>
      <trkpt lat="40.389930" lon="-4.814230">
        <ele>974.235</ele>
        <time>2020-02-28T12:20:36Z</time>
      </trkpt>
      <trkpt lat="40.389980" lon="-4.814770">
        <ele>973.518</ele>
        <time>2020-02-28T12:20:56Z</time>
      </trkpt>
      <trkpt lat="40.389980" lon="-4.814990">
        <ele>973.498</ele>
        <time>2020-02-28T12:21:16Z</time>
      </trkpt>
      <trkpt lat="40.389920" lon="-4.815220">
        <ele>973.717</ele>
        <time>2020-02-28T12:21:36Z</time>
      </trkpt>
      <trkpt lat="40.389850" lon="-4.815360">
        <ele>974.108</ele>
        <time>2020-02-28T12:21:56Z</time>
      </trkpt>
      <trkpt lat="40.389570" lon="-4.815750">
        <ele>976.515</ele>
        <time>2020-02-28T12:22:16Z</time>
      </trkpt>
      <trkpt lat="40.389470" lon="-4.815870">
        <ele>977.958</ele>
        <time>2020-02-28T12:22:36Z</time>
      </trkpt>
      <trkpt lat="40.389440" lon="-4.815930">
        <ele>978.813</ele>
        <time>2020-02-28T12:22:56Z</time>
      </trkpt>
      <trkpt lat="40.389380" lon="-4.816020">
        <ele>980.494</ele>
        <time>2020-02-28T12:23:16Z</time>
      </trkpt>
      <trkpt lat="40.389350" lon="-4.816090">
        <ele>981.326</ele>
        <time>2020-02-28T12:23:36Z</time>
      </trkpt>
      <trkpt lat="40.389330" lon="-4.816180">
        <ele>981.854</ele>
        <time>2020-02-28T12:23:56Z</time>
      </trkpt>
      <trkpt lat="40.389330" lon="-4.816260">
        <ele>982.067</ele>
        <time>2020-02-28T12:24:16Z</time>
      </trkpt>
      <trkpt lat="40.389340" lon="-4.816340">
        <ele>982.042</ele>
        <time>2020-02-28T12:24:36Z</time>
      </trkpt>
      <trkpt lat="40.389430" lon="-4.816690">
        <ele>981.369</ele>
        <time>2020-02-28T12:24:56Z</time>
      </trkpt>
      <trkpt lat="40.389460" lon="-4.816930">
        <ele>981.604</ele>
        <time>2020-02-28T12:25:16Z</time>
      </trkpt>
      <trkpt lat="40.389450" lon="-4.816970">
        <ele>981.724</ele>
        <time>2020-02-28T12:25:36Z</time>
      </trkpt>
      <trkpt lat="40.389450" lon="-4.817000">
        <ele>981.508</ele>
        <time>2020-02-28T12:25:56Z</time>
      </trkpt>
      <trkpt lat="40.389380" lon="-4.817180">
        <ele>981.260</ele>
        <time>2020-02-28T12:26:16Z</time>
      </trkpt>
      <trkpt lat="40.389300" lon="-4.817330">
        <ele>980.513</ele>
        <time>2020-02-28T12:26:36Z</time>
      </trkpt>
      <trkpt lat="40.389030" lon="-4.817730">
        <ele>980.948</ele>
        <time>2020-02-28T12:26:56Z</time>
      </trkpt>
      <trkpt lat="40.389020" lon="-4.817740">
        <ele>981.069</ele>
        <time>2020-02-28T12:27:16Z</time>
      </trkpt>
      <trkpt lat="40.389010" lon="-4.817760">
        <ele>981.081</ele>
        <time>2020-02-28T12:27:36Z</time>
      </trkpt>
      <trkpt lat="40.388570" lon="-4.818230">
        <ele>988.059</ele>
        <time>2020-02-28T12:27:56Z</time>
      </trkpt>
      <trkpt lat="40.388490" lon="-4.818360">
        <ele>989.192</ele>
        <time>2020-02-28T12:28:16Z</time>
      </trkpt>
      <trkpt lat="40.388420" lon="-4.818500">
        <ele>990.537</ele>
        <time>2020-02-28T12:28:36Z</time>
      </trkpt>
      <trkpt lat="40.388170" lon="-4.819230">
        <ele>995.272</ele>
        <time>2020-02-28T12:28:56Z</time>
      </trkpt>
      <trkpt lat="40.388060" lon="-4.819480">
        <ele>995.413</ele>
        <time>2020-02-28T12:29:16Z</time>
      </trkpt>
      <trkpt lat="40.387870" lon="-4.819820">
        <ele>995.614</ele>
        <time>2020-02-28T12:29:36Z</time>
      </trkpt>
      <trkpt lat="40.387700" lon="-4.820070">
        <ele>995.208</ele>
        <time>2020-02-28T12:29:56Z</time>
      </trkpt>
      <trkpt lat="40.387540" lon="-4.820210">
        <ele>996.161</ele>
        <time>2020-02-28T12:30:16Z</time>
      </trkpt>
      <trkpt lat="40.387200" lon="-4.820460">
        <ele>998.424</ele>
        <time>2020-02-28T12:30:36Z</time>
      </trkpt>
      <trkpt lat="40.387180" lon="-4.820470">
        <ele>998.779</ele>
        <time>2020-02-28T12:30:56Z</time>
      </trkpt>
      <trkpt lat="40.386940" lon="-4.820670">
        <ele>1001.340</ele>
        <time>2020-02-28T12:31:16Z</time>
      </trkpt>
      <trkpt lat="40.386550" lon="-4.821100">
        <ele>1003.792</ele>
        <time>2020-02-28T12:31:36Z</time>
      </trkpt>
      <trkpt lat="40.386230" lon="-4.821360">
        <ele>1004.240</ele>
        <time>2020-02-28T12:31:56Z</time>
      </trkpt>
      <trkpt lat="40.386160" lon="-4.821400">
        <ele>1004.343</ele>
        <time>2020-02-28T12:32:16Z</time>
      </trkpt>
      <trkpt lat="40.385980" lon="-4.821480">
        <ele>1004.688</ele>
        <time>2020-02-28T12:32:36Z</time>
      </trkpt>
      <trkpt lat="40.385720" lon="-4.821640">
        <ele>1005.131</ele>
        <time>2020-02-28T12:32:56Z</time>
      </trkpt>
      <trkpt lat="40.385540" lon="-4.821790">
        <ele>1005.261</ele>
        <time>2020-02-28T12:33:16Z</time>
      </trkpt>
      <trkpt lat="40.385120" lon="-4.821970">
        <ele>1009.807</ele>
        <time>2020-02-28T12:33:36Z</time>
      </trkpt>
      <trkpt lat="40.384960" lon="-4.821980">
        <ele>1012.408</ele>
        <time>2020-02-28T12:33:56Z</time>
      </trkpt>
      <trkpt lat="40.384790" lon="-4.821960">
        <ele>1014.287</ele>
        <time>2020-02-28T12:34:16Z</time>
      </trkpt>
      <trkpt lat="40.384260" lon="-4.821770">
        <ele>1007.640</ele>
        <time>2020-02-28T12:34:36Z</time>
      </trkpt>
      <trkpt lat="40.384100" lon="-4.821760">
        <ele>1008.225</ele>
        <time>2020-02-28T12:34:56Z</time>
      </trkpt>
      <trkpt lat="40.383930" lon="-4.821820">
        <ele>1015.176</ele>
        <time>2020-02-28T12:35:16Z</time>
      </trkpt>
      <trkpt lat="40.383840" lon="-4.821880">
        <ele>1017.898</ele>
        <time>2020-02-28T12:35:36Z</time>
      </trkpt>
      <trkpt lat="40.383720" lon="-4.822030">
        <ele>1019.596</ele>
        <time>2020-02-28T12:35:56Z</time>
      </trkpt>
      <trkpt lat="40.383660" lon="-4.822120">
        <ele>1020.099</ele>
        <time>2020-02-28T12:36:16Z</time>
      </trkpt>
      <trkpt lat="40.383650" lon="-4.822130">
        <ele>1020.134</ele>
        <time>2020-02-28T12:36:36Z</time>
      </trkpt>
      <trkpt lat="40.383450" lon="-4.822560">
        <ele>1022.226</ele>
        <time>2020-02-28T12:36:56Z</time>
      </trkpt>
      <trkpt lat="40.383380" lon="-4.822670">
        <ele>1023.547</ele>
        <time>2020-02-28T12:37:16Z</time>
      </trkpt>
      <trkpt lat="40.383290" lon="-4.822750">
        <ele>1024.911</ele>
        <time>2020-02-28T12:37:36Z</time>
      </trkpt>
      <trkpt lat="40.383200" lon="-4.822810">
        <ele>1025.408</ele>
        <time>2020-02-28T12:37:56Z</time>
      </trkpt>
      <trkpt lat="40.383090" lon="-4.822850">
        <ele>1026.246</ele>
        <time>2020-02-28T12:38:16Z</time>
      </trkpt>
      <trkpt lat="40.383070" lon="-4.822850">
        <ele>1026.589</ele>
        <time>2020-02-28T12:38:36Z</time>
      </trkpt>
      <trkpt lat="40.382350" lon="-4.823050">
        <ele>1032.624</ele>
        <time>2020-02-28T12:38:56Z</time>
      </trkpt>
      <trkpt lat="40.382270" lon="-4.823060">
        <ele>1032.875</ele>
        <time>2020-02-28T12:39:16Z</time>
      </trkpt>
      <trkpt lat="40.382190" lon="-4.823060">
        <ele>1032.697</ele>
        <time>2020-02-28T12:39:36Z</time>
      </trkpt>
      <trkpt lat="40.382130" lon="-4.823040">
        <ele>1032.275</ele>
        <time>2020-02-28T12:39:56Z</time>
      </trkpt>
      <trkpt lat="40.382040" lon="-4.822970">
        <ele>1031.878</ele>
        <time>2020-02-28T12:40:16Z</time>
      </trkpt>
      <trkpt lat="40.381970" lon="-4.822880">
        <ele>1031.663</ele>
        <time>2020-02-28T12:40:36Z</time>
      </trkpt>
      <trkpt lat="40.381940" lon="-4.822820">
        <ele>1031.693</ele>
        <time>2020-02-28T12:40:56Z</time>
      </trkpt>
      <trkpt lat="40.381910" lon="-4.822680">
        <ele>1031.465</ele>
        <time>2020-02-28T12:41:16Z</time>
      </trkpt>
      <trkpt lat="40.381910" lon="-4.822540">
        <ele>1031.921</ele>
        <time>2020-02-28T12:41:36Z</time>
      </trkpt>
      <trkpt lat="40.382090" lon="-4.821480">
        <ele>1037.808</ele>
        <time>2020-02-28T12:41:56Z</time>
      </trkpt>
      <trkpt lat="40.382230" lon="-4.820100">
        <ele>1044.053</ele>
        <time>2020-02-28T12:42:16Z</time>
      </trkpt>
      <trkpt lat="40.382240" lon="-4.819710">
        <ele>1045.066</ele>
        <time>2020-02-28T12:42:36Z</time>
      </trkpt>
      <trkpt lat="40.382200" lon="-4.819230">
        <ele>1045.461</ele>
        <time>2020-02-28T12:42:56Z</time>
      </trkpt>
      <trkpt lat="40.382140" lon="-4.818970">
        <ele>1045.922</ele>
        <time>2020-02-28T12:43:16Z</time>
      </trkpt>
      <trkpt lat="40.382130" lon="-4.818960">
        <ele>1045.984</ele>
        <time>2020-02-28T12:43:36Z</time>
      </trkpt>
      <trkpt lat="40.382120" lon="-4.818920">
        <ele>1046.122</ele>
        <time>2020-02-28T12:43:56Z</time>
      </trkpt>
      <trkpt lat="40.382100" lon="-4.818890">
        <ele>1046.165</ele>
        <time>2020-02-28T12:44:16Z</time>
      </trkpt>
      <trkpt lat="40.382070" lon="-4.818860">
        <ele>1046.190</ele>
        <time>2020-02-28T12:44:36Z</time>
      </trkpt>
      <trkpt lat="40.382030" lon="-4.818840">
        <ele>1045.936</ele>
        <time>2020-02-28T12:44:56Z</time>
      </trkpt>
      <trkpt lat="40.381980" lon="-4.818830">
        <ele>1045.717</ele>
        <time>2020-02-28T12:45:16Z</time>
      </trkpt>
      <trkpt lat="40.381900" lon="-4.818850">
        <ele>1045.818</ele>
        <time>2020-02-28T12:45:36Z</time>
      </trkpt>
      <trkpt lat="40.381870" lon="-4.818870">
        <ele>1045.908</ele>
        <time>2020-02-28T12:45:56Z</time>
      </trkpt>
      <trkpt lat="40.381840" lon="-4.818900">
        <ele>1046.057</ele>
        <time>2020-02-28T12:46:16Z</time>
      </trkpt>
      <trkpt lat="40.381590" lon="-4.819520">
        <ele>1047.130</ele>
        <time>2020-02-28T12:46:36Z</time>
      </trkpt>
      <trkpt lat="40.381540" lon="-4.819620">
        <ele>1048.095</ele>
        <time>2020-02-28T12:46:56Z</time>
      </trkpt>
      <trkpt lat="40.381460" lon="-4.819730">
        <ele>1049.646</ele>
        <time>2020-02-28T12:47:16Z</time>
      </trkpt>
      <trkpt lat="40.381340" lon="-4.819820">
        <ele>1052.318</ele>
        <time>2020-02-28T12:47:36Z</time>
      </trkpt>
      <trkpt lat="40.381320" lon="-4.819830">
        <ele>1052.616</ele>
        <time>2020-02-28T12:47:56Z</time>
      </trkpt>
      <trkpt lat="40.381210" lon="-4.819860">
        <ele>1054.679</ele>
        <time>2020-02-28T12:48:16Z</time>
      </trkpt>
      <trkpt lat="40.381090" lon="-4.819870">
        <ele>1056.434</ele>
        <time>2020-02-28T12:48:36Z</time>
      </trkpt>
      <trkpt lat="40.380920" lon="-4.819860">
        <ele>1056.982</ele>
        <time>2020-02-28T12:48:56Z</time>
      </trkpt>
      <trkpt lat="40.380820" lon="-4.819870">
        <ele>1057.343</ele>
        <time>2020-02-28T12:49:16Z</time>
      </trkpt>
      <trkpt lat="40.380780" lon="-4.819880">
        <ele>1058.417</ele>
        <time>2020-02-28T12:49:36Z</time>
      </trkpt>
      <trkpt lat="40.380690" lon="-4.819920">
        <ele>1060.708</ele>
        <time>2020-02-28T12:49:56Z</time>
      </trkpt>
      <trkpt lat="40.380610" lon="-4.820020">
        <ele>1062.342</ele>
        <time>2020-02-28T12:50:16Z</time>
      </trkpt>
      <trkpt lat="40.380430" lon="-4.820330">
        <ele>1062.665</ele>
        <time>2020-02-28T12:50:36Z</time>
      </trkpt>
      <trkpt lat="40.380270" lon="-4.820550">
        <ele>1063.190</ele>
        <time>2020-02-28T12:50:56Z</time>
      </trkpt>
      <trkpt lat="40.380270" lon="-4.820560">
        <ele>1063.011</ele>
        <time>2020-02-28T12:51:16Z</time>
      </trkpt>
      <trkpt lat="40.380070" lon="-4.820790">
        <ele>1063.443</ele>
        <time>2020-02-28T12:51:36Z</time>
      </trkpt>
      <trkpt lat="40.379950" lon="-4.820870">
        <ele>1064.441</ele>
        <time>2020-02-28T12:51:56Z</time>
      </trkpt>
      <trkpt lat="40.379880" lon="-4.820900">
        <ele>1065.084</ele>
        <time>2020-02-28T12:52:16Z</time>
      </trkpt>
      <trkpt lat="40.379780" lon="-4.820910">
        <ele>1065.919</ele>
        <time>2020-02-28T12:52:36Z</time>
      </trkpt>
      <trkpt lat="40.379710" lon="-4.820890">
        <ele>1066.839</ele>
        <time>2020-02-28T12:52:56Z</time>
      </trkpt>
      <trkpt lat="40.379630" lon="-4.820850">
        <ele>1068.201</ele>
        <time>2020-02-28T12:53:16Z</time>
      </trkpt>
      <trkpt lat="40.379390" lon="-4.820600">
        <ele>1071.421</ele>
        <time>2020-02-28T12:53:36Z</time>
      </trkpt>
      <trkpt lat="40.379380" lon="-4.820560">
        <ele>1071.508</ele>
        <time>2020-02-28T12:53:56Z</time>
      </trkpt>
      <trkpt lat="40.379140" lon="-4.820120">
        <ele>1071.827</ele>
        <time>2020-02-28T12:54:16Z</time>
      </trkpt>
      <trkpt lat="40.378660" lon="-4.819140">
        <ele>1073.780</ele>
        <time>2020-02-28T12:54:36Z</time>
      </trkpt>
      <trkpt lat="40.378630" lon="-4.819030">
        <ele>1074.225</ele>
        <time>2020-02-28T12:54:56Z</time>
      </trkpt>
      <trkpt lat="40.378610" lon="-4.818910">
        <ele>1074.896</ele>
        <time>2020-02-28T12:55:16Z</time>
      </trkpt>
      <trkpt lat="40.378560" lon="-4.817870">
        <ele>1079.248</ele>
        <time>2020-02-28T12:55:36Z</time>
      </trkpt>
      <trkpt lat="40.378470" lon="-4.817380">
        <ele>1078.436</ele>
        <time>2020-02-28T12:55:56Z</time>
      </trkpt>
      <trkpt lat="40.378430" lon="-4.817250">
        <ele>1078.649</ele>
        <time>2020-02-28T12:56:16Z</time>
      </trkpt>
      <trkpt lat="40.378380" lon="-4.817140">
        <ele>1078.964</ele>
        <time>2020-02-28T12:56:36Z</time>
      </trkpt>
      <trkpt lat="40.378320" lon="-4.817040">
        <ele>1079.215</ele>
        <time>2020-02-28T12:56:56Z</time>
      </trkpt>
      <trkpt lat="40.378190" lon="-4.816910">
        <ele>1079.765</ele>
        <time>2020-02-28T12:57:16Z</time>
      </trkpt>
      <trkpt lat="40.378100" lon="-4.816840">
        <ele>1079.911</ele>
        <time>2020-02-28T12:57:36Z</time>
      </trkpt>
      <trkpt lat="40.377760" lon="-4.816520">
        <ele>1080.008</ele>
        <time>2020-02-28T12:57:56Z</time>
      </trkpt>
      <trkpt lat="40.377660" lon="-4.816460">
        <ele>1080.115</ele>
        <time>2020-02-28T12:58:16Z</time>
      </trkpt>
      <trkpt lat="40.377650" lon="-4.816450">
        <ele>1080.168</ele>
        <time>2020-02-28T12:58:36Z</time>
      </trkpt>
      <trkpt lat="40.377610" lon="-4.816440">
        <ele>1080.063</ele>
        <time>2020-02-28T12:58:56Z</time>
      </trkpt>
      <trkpt lat="40.377570" lon="-4.816440">
        <ele>1079.934</ele>
        <time>2020-02-28T12:59:16Z</time>
      </trkpt>
      <trkpt lat="40.377550" lon="-4.816430">
        <ele>1079.976</ele>
        <time>2020-02-28T12:59:36Z</time>
      </trkpt>
      <trkpt lat="40.377530" lon="-4.816430">
        <ele>1079.834</ele>
        <time>2020-02-28T12:59:56Z</time>
      </trkpt>
      <trkpt lat="40.377490" lon="-4.816420">
        <ele>1079.817</ele>
        <time>2020-02-28T13:00:16Z</time>
      </trkpt>
      <trkpt lat="40.377430" lon="-4.816430">
        <ele>1080.242</ele>
        <time>2020-02-28T13:00:36Z</time>
      </trkpt>
      <trkpt lat="40.377370" lon="-4.816460">
        <ele>1080.465</ele>
        <time>2020-02-28T13:00:56Z</time>
      </trkpt>
      <trkpt lat="40.377180" lon="-4.816600">
        <ele>1080.868</ele>
        <time>2020-02-28T13:01:16Z</time>
      </trkpt>
      <trkpt lat="40.377040" lon="-4.816640">
        <ele>1081.614</ele>
        <time>2020-02-28T13:01:36Z</time>
      </trkpt>
      <trkpt lat="40.376910" lon="-4.816640">
        <ele>1082.408</ele>
        <time>2020-02-28T13:01:56Z</time>
      </trkpt>
      <trkpt lat="40.376900" lon="-4.816630">
        <ele>1082.670</ele>
        <time>2020-02-28T13:02:16Z</time>
      </trkpt>
      <trkpt lat="40.376630" lon="-4.816630">
        <ele>1084.063</ele>
        <time>2020-02-28T13:02:36Z</time>
      </trkpt>
      <trkpt lat="40.376540" lon="-4.816660">
        <ele>1084.938</ele>
        <time>2020-02-28T13:02:56Z</time>
      </trkpt>
      <trkpt lat="40.376450" lon="-4.816710">
        <ele>1085.789</ele>
        <time>2020-02-28T13:03:16Z</time>
      </trkpt>
      <trkpt lat="40.376050" lon="-4.817020">
        <ele>1087.911</ele>
        <time>2020-02-28T13:03:36Z</time>
      </trkpt>
      <trkpt lat="40.375920" lon="-4.817090">
        <ele>1088.329</ele>
        <time>2020-02-28T13:03:56Z</time>
      </trkpt>
      <trkpt lat="40.375240" lon="-4.817330">
        <ele>1090.222</ele>
        <time>2020-02-28T13:04:16Z</time>
      </trkpt>
      <trkpt lat="40.375170" lon="-4.817330">
        <ele>1090.257</ele>
        <time>2020-02-28T13:04:36Z</time>
      </trkpt>
      <trkpt lat="40.375120" lon="-4.817320">
        <ele>1090.362</ele>
        <time>2020-02-28T13:04:56Z</time>
      </trkpt>
      <trkpt lat="40.374990" lon="-4.817260">
        <ele>1090.883</ele>
        <time>2020-02-28T13:05:16Z</time>
      </trkpt>
      <trkpt lat="40.374800" lon="-4.817150">
        <ele>1092.311</ele>
        <time>2020-02-28T13:05:36Z</time>
      </trkpt>
      <trkpt lat="40.374650" lon="-4.817080">
        <ele>1093.308</ele>
        <time>2020-02-28T13:05:56Z</time>
      </trkpt>
      <trkpt lat="40.374420" lon="-4.817060">
        <ele>1094.390</ele>
        <time>2020-02-28T13:06:16Z</time>
      </trkpt>
      <trkpt lat="40.372330" lon="-4.817530">
        <ele>1097.483</ele>
        <time>2020-02-28T13:06:36Z</time>
      </trkpt>
      <trkpt lat="40.372180" lon="-4.817590">
        <ele>1097.548</ele>
        <time>2020-02-28T13:06:56Z</time>
      </trkpt>
      <trkpt lat="40.372060" lon="-4.817670">
        <ele>1097.439</ele>
        <time>2020-02-28T13:07:16Z</time>
      </trkpt>
      <trkpt lat="40.371940" lon="-4.817780">
        <ele>1097.041</ele>
        <time>2020-02-28T13:07:36Z</time>
      </trkpt>
      <trkpt lat="40.371810" lon="-4.818000">
        <ele>1096.969</ele>
        <time>2020-02-28T13:07:56Z</time>
      </trkpt>
      <trkpt lat="40.371330" lon="-4.819110">
        <ele>1096.622</ele>
        <time>2020-02-28T13:08:16Z</time>
      </trkpt>
      <trkpt lat="40.371130" lon="-4.819500">
        <ele>1096.167</ele>
        <time>2020-02-28T13:08:36Z</time>
      </trkpt>
      <trkpt lat="40.370970" lon="-4.819730">
        <ele>1096.077</ele>
        <time>2020-02-28T13:08:56Z</time>
      </trkpt>
      <trkpt lat="40.370670" lon="-4.820030">
        <ele>1097.761</ele>
        <time>2020-02-28T13:09:16Z</time>
      </trkpt>
      <trkpt lat="40.370610" lon="-4.820080">
        <ele>1098.127</ele>
        <time>2020-02-28T13:09:36Z</time>
      </trkpt>
      <trkpt lat="40.370540" lon="-4.820120">
        <ele>1098.708</ele>
        <time>2020-02-28T13:09:56Z</time>
      </trkpt>
      <trkpt lat="40.370420" lon="-4.820160">
        <ele>1099.691</ele>
        <time>2020-02-28T13:10:16Z</time>
      </trkpt>
      <trkpt lat="40.370360" lon="-4.820170">
        <ele>1100.154</ele>
        <time>2020-02-28T13:10:36Z</time>
      </trkpt>
      <trkpt lat="40.370300" lon="-4.820170">
        <ele>1100.659</ele>
        <time>2020-02-28T13:10:56Z</time>
      </trkpt>
      <trkpt lat="40.370170" lon="-4.820140">
        <ele>1100.810</ele>
        <time>2020-02-28T13:11:16Z</time>
      </trkpt>
      <trkpt lat="40.370160" lon="-4.820140">
        <ele>1100.882</ele>
        <time>2020-02-28T13:11:36Z</time>
      </trkpt>
      <trkpt lat="40.370100" lon="-4.820110">
        <ele>1100.830</ele>
        <time>2020-02-28T13:11:56Z</time>
      </trkpt>
      <trkpt lat="40.368530" lon="-4.818950">
        <ele>1103.183</ele>
        <time>2020-02-28T13:12:16Z</time>
      </trkpt>
      <trkpt lat="40.368320" lon="-4.818850">
        <ele>1104.128</ele>
        <time>2020-02-28T13:12:36Z</time>
      </trkpt>
      <trkpt lat="40.368240" lon="-4.818840">
        <ele>1104.947</ele>
        <time>2020-02-28T13:12:56Z</time>
      </trkpt>
      <trkpt lat="40.368100" lon="-4.818850">
        <ele>1106.429</ele>
        <time>2020-02-28T13:13:16Z</time>
      </trkpt>
      <trkpt lat="40.367920" lon="-4.818880">
        <ele>1107.521</ele>
        <time>2020-02-28T13:13:36Z</time>
      </trkpt>
      <trkpt lat="40.367670" lon="-4.818980">
        <ele>1109.408</ele>
        <time>2020-02-28T13:13:56Z</time>
      </trkpt>
      <trkpt lat="40.367400" lon="-4.819070">
        <ele>1113.278</ele>
        <time>2020-02-28T13:14:16Z</time>
      </trkpt>
      <trkpt lat="40.367130" lon="-4.819180">
        <ele>1116.521</ele>
        <time>2020-02-28T13:14:36Z</time>
      </trkpt>
      <trkpt lat="40.366890" lon="-4.819330">
        <ele>1117.776</ele>
        <time>2020-02-28T13:14:56Z</time>
      </trkpt>
      <trkpt lat="40.366660" lon="-4.819550">
        <ele>1118.757</ele>
        <time>2020-02-28T13:15:16Z</time>
      </trkpt>
      <trkpt lat="40.366440" lon="-4.819810">
        <ele>1120.639</ele>
        <time>2020-02-28T13:15:36Z</time>
      </trkpt>
      <trkpt lat="40.366390" lon="-4.819880">
        <ele>1121.167</ele>
        <time>2020-02-28T13:15:56Z</time>
      </trkpt>
      <trkpt lat="40.366360" lon="-4.819960">
        <ele>1121.840</ele>
        <time>2020-02-28T13:16:16Z</time>
      </trkpt>
      <trkpt lat="40.366240" lon="-4.820170">
        <ele>1124.425</ele>
        <time>2020-02-28T13:16:36Z</time>
      </trkpt>
      <trkpt lat="40.366190" lon="-4.820220">
        <ele>1125.194</ele>
        <time>2020-02-28T13:16:56Z</time>
      </trkpt>
      <trkpt lat="40.366160" lon="-4.820240">
        <ele>1125.457</ele>
        <time>2020-02-28T13:17:16Z</time>
      </trkpt>
      <trkpt lat="40.366090" lon="-4.820260">
        <ele>1126.022</ele>
        <time>2020-02-28T13:17:36Z</time>
      </trkpt>
      <trkpt lat="40.366050" lon="-4.820260">
        <ele>1126.508</ele>
        <time>2020-02-28T13:17:56Z</time>
      </trkpt>
      <trkpt lat="40.366010" lon="-4.820250">
        <ele>1126.983</ele>
        <time>2020-02-28T13:18:16Z</time>
      </trkpt>
      <trkpt lat="40.365980" lon="-4.820230">
        <ele>1127.196</ele>
        <time>2020-02-28T13:18:36Z</time>
      </trkpt>
      <trkpt lat="40.365950" lon="-4.820200">
        <ele>1127.261</ele>
        <time>2020-02-28T13:18:56Z</time>
      </trkpt>
      <trkpt lat="40.365920" lon="-4.820180">
        <ele>1127.542</ele>
        <time>2020-02-28T13:19:16Z</time>
      </trkpt>
      <trkpt lat="40.365900" lon="-4.820160">
        <ele>1127.764</ele>
        <time>2020-02-28T13:19:36Z</time>
      </trkpt>
      <trkpt lat="40.365860" lon="-4.820080">
        <ele>1127.922</ele>
        <time>2020-02-28T13:19:56Z</time>
      </trkpt>
      <trkpt lat="40.365840" lon="-4.819970">
        <ele>1127.765</ele>
        <time>2020-02-28T13:20:16Z</time>
      </trkpt>
      <trkpt lat="40.365820" lon="-4.819460">
        <ele>1126.440</ele>
        <time>2020-02-28T13:20:36Z</time>
      </trkpt>
      <trkpt lat="40.365800" lon="-4.819420">
        <ele>1126.917</ele>
        <time>2020-02-28T13:20:56Z</time>
      </trkpt>
      <trkpt lat="40.365790" lon="-4.819350">
        <ele>1127.287</ele>
        <time>2020-02-28T13:21:16Z</time>
      </trkpt>
      <trkpt lat="40.365770" lon="-4.819280">
        <ele>1127.715</ele>
        <time>2020-02-28T13:21:36Z</time>
      </trkpt>
      <trkpt lat="40.365740" lon="-4.819230">
        <ele>1128.408</ele>
        <time>2020-02-28T13:21:56Z</time>
      </trkpt>
      <trkpt lat="40.365540" lon="-4.818960">
        <ele>1131.835</ele>
        <time>2020-02-28T13:22:16Z</time>
      </trkpt>
      <trkpt lat="40.365500" lon="-4.818920">
        <ele>1132.288</ele>
        <time>2020-02-28T13:22:36Z</time>
      </trkpt>
      <trkpt lat="40.365030" lon="-4.818350">
        <ele>1138.343</ele>
        <time>2020-02-28T13:22:56Z</time>
      </trkpt>
      <trkpt lat="40.364920" lon="-4.818280">
        <ele>1138.614</ele>
        <time>2020-02-28T13:23:16Z</time>
      </trkpt>
      <trkpt lat="40.364860" lon="-4.818280">
        <ele>1138.626</ele>
        <time>2020-02-28T13:23:36Z</time>
      </trkpt>
      <trkpt lat="40.364780" lon="-4.818300">
        <ele>1138.884</ele>
        <time>2020-02-28T13:23:56Z</time>
      </trkpt>
      <trkpt lat="40.364770" lon="-4.818300">
        <ele>1138.827</ele>
        <time>2020-02-28T13:24:16Z</time>
      </trkpt>
      <trkpt lat="40.364720" lon="-4.818330">
        <ele>1139.072</ele>
        <time>2020-02-28T13:24:36Z</time>
      </trkpt>
      <trkpt lat="40.364610" lon="-4.818430">
        <ele>1139.496</ele>
        <time>2020-02-28T13:24:56Z</time>
      </trkpt>
      <trkpt lat="40.364490" lon="-4.818590">
        <ele>1140.831</ele>
        <time>2020-02-28T13:25:16Z</time>
      </trkpt>
      <trkpt lat="40.364240" lon="-4.818970">
        <ele>1143.624</ele>
        <time>2020-02-28T13:25:36Z</time>
      </trkpt>
      <trkpt lat="40.364160" lon="-4.819070">
        <ele>1144.608</ele>
        <time>2020-02-28T13:25:56Z</time>
      </trkpt>
      <trkpt lat="40.364130" lon="-4.819120">
        <ele>1145.593</ele>
        <time>2020-02-28T13:26:16Z</time>
      </trkpt>
      <trkpt lat="40.364050" lon="-4.819200">
        <ele>1146.826</ele>
        <time>2020-02-28T13:26:36Z</time>
      </trkpt>
      <trkpt lat="40.364010" lon="-4.819230">
        <ele>1147.251</ele>
        <time>2020-02-28T13:26:56Z</time>
      </trkpt>
      <trkpt lat="40.363940" lon="-4.819250">
        <ele>1147.722</ele>
        <time>2020-02-28T13:27:16Z</time>
      </trkpt>
      <trkpt lat="40.363860" lon="-4.819250">
        <ele>1148.324</ele>
        <time>2020-02-28T13:27:36Z</time>
      </trkpt>
      <trkpt lat="40.363820" lon="-4.819230">
        <ele>1148.762</ele>
        <time>2020-02-28T13:27:56Z</time>
      </trkpt>
      <trkpt lat="40.363740" lon="-4.819170">
        <ele>1149.235</ele>
        <time>2020-02-28T13:28:16Z</time>
      </trkpt>
      <trkpt lat="40.363690" lon="-4.819120">
        <ele>1149.270</ele>
        <time>2020-02-28T13:28:36Z</time>
      </trkpt>
      <trkpt lat="40.363500" lon="-4.818870">
        <ele>1150.069</ele>
        <time>2020-02-28T13:28:56Z</time>
      </trkpt>
      <trkpt lat="40.363410" lon="-4.818730">
        <ele>1151.204</ele>
        <time>2020-02-28T13:29:16Z</time>
      </trkpt>
      <trkpt lat="40.363160" lon="-4.818410">
        <ele>1153.224</ele>
        <time>2020-02-28T13:29:36Z</time>
      </trkpt>
      <trkpt lat="40.363100" lon="-4.818370">
        <ele>1153.708</ele>
        <time>2020-02-28T13:29:56Z</time>
      </trkpt>
      <trkpt lat="40.363050" lon="-4.818320">
        <ele>1154.120</ele>
        <time>2020-02-28T13:30:16Z</time>
      </trkpt>
      <trkpt lat="40.362930" lon="-4.818250">
        <ele>1156.943</ele>
        <time>2020-02-28T13:30:36Z</time>
      </trkpt>
      <trkpt lat="40.362690" lon="-4.818140">
        <ele>1159.348</ele>
        <time>2020-02-28T13:30:56Z</time>
      </trkpt>
      <trkpt lat="40.362630" lon="-4.818120">
        <ele>1159.179</ele>
        <time>2020-02-28T13:31:16Z</time>
      </trkpt>
      <trkpt lat="40.362450" lon="-4.818110">
        <ele>1159.641</ele>
        <time>2020-02-28T13:31:36Z</time>
      </trkpt>
      <trkpt lat="40.362210" lon="-4.818180">
        <ele>1161.759</ele>
        <time>2020-02-28T13:31:56Z</time>
      </trkpt>
      <trkpt lat="40.362100" lon="-4.818230">
        <ele>1161.352</ele>
        <time>2020-02-28T13:32:16Z</time>
      </trkpt>
      <trkpt lat="40.362050" lon="-4.818260">
        <ele>1161.217</ele>
        <time>2020-02-28T13:32:36Z</time>
      </trkpt>
      <trkpt lat="40.361940" lon="-4.818370">
        <ele>1162.135</ele>
        <time>2020-02-28T13:32:56Z</time>
      </trkpt>
      <trkpt lat="40.361870" lon="-4.818470">
        <ele>1164.486</ele>
        <time>2020-02-28T13:33:16Z</time>
      </trkpt>
      <trkpt lat="40.361750" lon="-4.818590">
        <ele>1165.914</ele>
        <time>2020-02-28T13:33:36Z</time>
      </trkpt>
      <trkpt lat="40.361670" lon="-4.818630">
        <ele>1165.508</ele>
        <time>2020-02-28T13:33:56Z</time>
      </trkpt>
      <trkpt lat="40.361570" lon="-4.818630">
        <ele>1166.577</ele>
        <time>2020-02-28T13:34:16Z</time>
      </trkpt>
      <trkpt lat="40.361450" lon="-4.818600">
        <ele>1167.080</ele>
        <time>2020-02-28T13:34:36Z</time>
      </trkpt>
      <trkpt lat="40.361290" lon="-4.818520">
        <ele>1168.265</ele>
        <time>2020-02-28T13:34:56Z</time>
      </trkpt>
      <trkpt lat="40.361140" lon="-4.818420">
        <ele>1168.786</ele>
        <time>2020-02-28T13:35:16Z</time>
      </trkpt>
      <trkpt lat="40.361030" lon="-4.818310">
        <ele>1168.468</ele>
        <time>2020-02-28T13:35:36Z</time>
      </trkpt>
      <trkpt lat="40.360940" lon="-4.818150">
        <ele>1168.266</ele>
        <time>2020-02-28T13:35:56Z</time>
      </trkpt>
      <trkpt lat="40.360870" lon="-4.817880">
        <ele>1166.989</ele>
        <time>2020-02-28T13:36:16Z</time>
      </trkpt>
      <trkpt lat="40.360780" lon="-4.817640">
        <ele>1168.594</ele>
        <time>2020-02-28T13:36:36Z</time>
      </trkpt>
      <trkpt lat="40.360690" lon="-4.817490">
        <ele>1170.038</ele>
        <time>2020-02-28T13:36:56Z</time>
      </trkpt>
      <trkpt lat="40.360500" lon="-4.817330">
        <ele>1170.970</ele>
        <time>2020-02-28T13:37:16Z</time>
      </trkpt>
      <trkpt lat="40.360410" lon="-4.817290">
        <ele>1171.217</ele>
        <time>2020-02-28T13:37:36Z</time>
      </trkpt>
      <trkpt lat="40.360320" lon="-4.817290">
        <ele>1172.608</ele>
        <time>2020-02-28T13:37:56Z</time>
      </trkpt>
      <trkpt lat="40.360280" lon="-4.817310">
        <ele>1173.557</ele>
        <time>2020-02-28T13:38:16Z</time>
      </trkpt>
      <trkpt lat="40.360210" lon="-4.817360">
        <ele>1172.980</ele>
        <time>2020-02-28T13:38:36Z</time>
      </trkpt>
      <trkpt lat="40.360180" lon="-4.817400">
        <ele>1173.145</ele>
        <time>2020-02-28T13:38:56Z</time>
      </trkpt>
      <trkpt lat="40.360140" lon="-4.817440">
        <ele>1173.176</ele>
        <time>2020-02-28T13:39:16Z</time>
      </trkpt>
      <trkpt lat="40.360060" lon="-4.817630">
        <ele>1175.558</ele>
        <time>2020-02-28T13:39:36Z</time>
      </trkpt>
      <trkpt lat="40.359850" lon="-4.818340">
        <ele>1182.096</ele>
        <time>2020-02-28T13:39:56Z</time>
      </trkpt>
      <trkpt lat="40.359580" lon="-4.819540">
        <ele>1189.119</ele>
        <time>2020-02-28T13:40:16Z</time>
      </trkpt>
      <trkpt lat="40.359450" lon="-4.819900">
        <ele>1191.564</ele>
        <time>2020-02-28T13:40:36Z</time>
      </trkpt>
      <trkpt lat="40.359200" lon="-4.820330">
        <ele>1193.854</ele>
        <time>2020-02-28T13:40:56Z</time>
      </trkpt>
      <trkpt lat="40.359030" lon="-4.820560">
        <ele>1196.256</ele>
        <time>2020-02-28T13:41:16Z</time>
      </trkpt>
      <trkpt lat="40.358930" lon="-4.820650">
        <ele>1196.711</ele>
        <time>2020-02-28T13:41:36Z</time>
      </trkpt>
      <trkpt lat="40.358860" lon="-4.820690">
        <ele>1196.908</ele>
        <time>2020-02-28T13:41:56Z</time>
      </trkpt>
      <trkpt lat="40.358820" lon="-4.820700">
        <ele>1197.389</ele>
        <time>2020-02-28T13:42:16Z</time>
      </trkpt>
      <trkpt lat="40.358760" lon="-4.820700">
        <ele>1197.442</ele>
        <time>2020-02-28T13:42:36Z</time>
      </trkpt>
      <trkpt lat="40.358760" lon="-4.820690">
        <ele>1197.157</ele>
        <time>2020-02-28T13:42:56Z</time>
      </trkpt>
      <trkpt lat="40.358730" lon="-4.820680">
        <ele>1197.088</ele>
        <time>2020-02-28T13:43:16Z</time>
      </trkpt>
      <trkpt lat="40.358700" lon="-4.820660">
        <ele>1196.770</ele>
        <time>2020-02-28T13:43:36Z</time>
      </trkpt>
      <trkpt lat="40.358620" lon="-4.820480">
        <ele>1195.368</ele>
        <time>2020-02-28T13:43:56Z</time>
      </trkpt>
      <trkpt lat="40.358580" lon="-4.820330">
        <ele>1194.951</ele>
        <time>2020-02-28T13:44:16Z</time>
      </trkpt>
      <trkpt lat="40.358500" lon="-4.819670">
        <ele>1196.416</ele>
        <time>2020-02-28T13:44:36Z</time>
      </trkpt>
      <trkpt lat="40.358410" lon="-4.819280">
        <ele>1198.349</ele>
        <time>2020-02-28T13:44:56Z</time>
      </trkpt>
      <trkpt lat="40.357590" lon="-4.817530">
        <ele>1208.402</ele>
        <time>2020-02-28T13:45:16Z</time>
      </trkpt>
      <trkpt lat="40.357540" lon="-4.817450">
        <ele>1209.122</ele>
        <time>2020-02-28T13:45:36Z</time>
      </trkpt>
      <trkpt lat="40.357510" lon="-4.817420">
        <ele>1209.508</ele>
        <time>2020-02-28T13:45:56Z</time>
      </trkpt>
      <trkpt lat="40.357470" lon="-4.817390">
        <ele>1210.018</ele>
        <time>2020-02-28T13:46:16Z</time>
      </trkpt>
      <trkpt lat="40.357400" lon="-4.817370">
        <ele>1210.631</ele>
        <time>2020-02-28T13:46:36Z</time>
      </trkpt>
      <trkpt lat="40.357360" lon="-4.817380">
        <ele>1211.126</ele>
        <time>2020-02-28T13:46:56Z</time>
      </trkpt>
      <trkpt lat="40.357280" lon="-4.817420">
        <ele>1212.467</ele>
        <time>2020-02-28T13:47:16Z</time>
      </trkpt>
      <trkpt lat="40.357220" lon="-4.817510">
        <ele>1214.159</ele>
        <time>2020-02-28T13:47:36Z</time>
      </trkpt>
      <trkpt lat="40.357200" lon="-4.817610">
        <ele>1214.767</ele>
        <time>2020-02-28T13:47:56Z</time>
      </trkpt>
      <trkpt lat="40.357220" lon="-4.818180">
        <ele>1214.540</ele>
        <time>2020-02-28T13:48:16Z</time>
      </trkpt>
      <trkpt lat="40.357260" lon="-4.818530">
        <ele>1215.795</ele>
        <time>2020-02-28T13:48:36Z</time>
      </trkpt>
      <trkpt lat="40.357450" lon="-4.819190">
        <ele>1219.192</ele>
        <time>2020-02-28T13:48:56Z</time>
      </trkpt>
      <trkpt lat="40.357450" lon="-4.819240">
        <ele>1219.673</ele>
        <time>2020-02-28T13:49:16Z</time>
      </trkpt>
      <trkpt lat="40.357460" lon="-4.819300">
        <ele>1219.920</ele>
        <time>2020-02-28T13:49:36Z</time>
      </trkpt>
      <trkpt lat="40.357460" lon="-4.819350">
        <ele>1220.308</ele>
        <time>2020-02-28T13:49:56Z</time>
      </trkpt>
      <trkpt lat="40.357430" lon="-4.819430">
        <ele>1221.963</ele>
        <time>2020-02-28T13:50:16Z</time>
      </trkpt>
      <trkpt lat="40.357410" lon="-4.819460">
        <ele>1222.736</ele>
        <time>2020-02-28T13:50:36Z</time>
      </trkpt>
      <trkpt lat="40.357380" lon="-4.819490">
        <ele>1223.811</ele>
        <time>2020-02-28T13:50:56Z</time>
      </trkpt>
      <trkpt lat="40.357360" lon="-4.819500">
        <ele>1224.442</ele>
        <time>2020-02-28T13:51:16Z</time>
      </trkpt>
      <trkpt lat="40.357350" lon="-4.819510">
        <ele>1224.834</ele>
        <time>2020-02-28T13:51:36Z</time>
      </trkpt>
      <trkpt lat="40.357320" lon="-4.819510">
        <ele>1225.732</ele>
        <time>2020-02-28T13:51:56Z</time>
      </trkpt>
      <trkpt lat="40.357250" lon="-4.819490">
        <ele>1227.785</ele>
        <time>2020-02-28T13:52:16Z</time>
      </trkpt>
      <trkpt lat="40.357140" lon="-4.819380">
        <ele>1228.480</ele>
        <time>2020-02-28T13:52:36Z</time>
      </trkpt>
      <trkpt lat="40.356670" lon="-4.818780">
        <ele>1227.883</ele>
        <time>2020-02-28T13:52:56Z</time>
      </trkpt>
      <trkpt lat="40.356600" lon="-4.818670">
        <ele>1227.825</ele>
        <time>2020-02-28T13:53:16Z</time>
      </trkpt>
      <trkpt lat="40.356550" lon="-4.818630">
        <ele>1228.317</ele>
        <time>2020-02-28T13:53:36Z</time>
      </trkpt>
      <trkpt lat="40.356430" lon="-4.818500">
        <ele>1228.808</ele>
        <time>2020-02-28T13:53:56Z</time>
      </trkpt>
      <trkpt lat="40.356380" lon="-4.818480">
        <ele>1229.342</ele>
        <time>2020-02-28T13:54:16Z</time>
      </trkpt>
      <trkpt lat="40.356340" lon="-4.818450">
        <ele>1229.545</ele>
        <time>2020-02-28T13:54:36Z</time>
      </trkpt>
      <trkpt lat="40.356250" lon="-4.818430">
        <ele>1230.610</ele>
        <time>2020-02-28T13:54:56Z</time>
      </trkpt>
      <trkpt lat="40.356180" lon="-4.818440">
        <ele>1231.891</ele>
        <time>2020-02-28T13:55:16Z</time>
      </trkpt>
      <trkpt lat="40.356020" lon="-4.818500">
        <ele>1233.333</ele>
        <time>2020-02-28T13:55:36Z</time>
      </trkpt>
      <trkpt lat="40.355590" lon="-4.818790">
        <ele>1237.121</ele>
        <time>2020-02-28T13:55:56Z</time>
      </trkpt>
      <trkpt lat="40.355390" lon="-4.818990">
        <ele>1238.274</ele>
        <time>2020-02-28T13:56:16Z</time>
      </trkpt>
      <trkpt lat="40.354970" lon="-4.819480">
        <ele>1245.569</ele>
        <time>2020-02-28T13:56:36Z</time>
      </trkpt>
      <trkpt lat="40.354870" lon="-4.819550">
        <ele>1246.476</ele>
        <time>2020-02-28T13:56:56Z</time>
      </trkpt>
      <trkpt lat="40.354820" lon="-4.819570">
        <ele>1246.690</ele>
        <time>2020-02-28T13:57:16Z</time>
      </trkpt>
      <trkpt lat="40.354710" lon="-4.819590">
        <ele>1246.819</ele>
        <time>2020-02-28T13:57:36Z</time>
      </trkpt>
      <trkpt lat="40.354580" lon="-4.819580">
        <ele>1247.108</ele>
        <time>2020-02-28T13:57:56Z</time>
      </trkpt>
      <trkpt lat="40.354190" lon="-4.819500">
        <ele>1250.481</ele>
        <time>2020-02-28T13:58:16Z</time>
      </trkpt>
      <trkpt lat="40.354120" lon="-4.819460">
        <ele>1250.384</ele>
        <time>2020-02-28T13:58:36Z</time>
      </trkpt>
      <trkpt lat="40.354090" lon="-4.819430">
        <ele>1249.639</ele>
        <time>2020-02-28T13:58:56Z</time>
      </trkpt>
      <trkpt lat="40.354070" lon="-4.819390">
        <ele>1248.810</ele>
        <time>2020-02-28T13:59:16Z</time>
      </trkpt>
      <trkpt lat="40.354050" lon="-4.819310">
        <ele>1247.392</ele>
        <time>2020-02-28T13:59:36Z</time>
      </trkpt>
      <trkpt lat="40.354050" lon="-4.819220">
        <ele>1245.450</ele>
        <time>2020-02-28T13:59:56Z</time>
      </trkpt>
      <trkpt lat="40.354070" lon="-4.819120">
        <ele>1244.983</ele>
        <time>2020-02-28T14:00:16Z</time>
      </trkpt>
      <trkpt lat="40.354090" lon="-4.819070">
        <ele>1245.318</ele>
        <time>2020-02-28T14:00:36Z</time>
      </trkpt>
      <trkpt lat="40.354120" lon="-4.819030">
        <ele>1245.154</ele>
        <time>2020-02-28T14:00:56Z</time>
      </trkpt>
      <trkpt lat="40.354220" lon="-4.818820">
        <ele>1245.256</ele>
        <time>2020-02-28T14:01:16Z</time>
      </trkpt>
      <trkpt lat="40.354230" lon="-4.818810">
        <ele>1245.011</ele>
        <time>2020-02-28T14:01:36Z</time>
      </trkpt>
      <trkpt lat="40.354410" lon="-4.818250">
        <ele>1248.108</ele>
        <time>2020-02-28T14:01:56Z</time>
      </trkpt>
      <trkpt lat="40.354530" lon="-4.817970">
        <ele>1247.659</ele>
        <time>2020-02-28T14:02:16Z</time>
      </trkpt>
      <trkpt lat="40.354530" lon="-4.817960">
        <ele>1247.982</ele>
        <time>2020-02-28T14:02:36Z</time>
      </trkpt>
      <trkpt lat="40.354760" lon="-4.817660">
        <ele>1247.877</ele>
        <time>2020-02-28T14:02:56Z</time>
      </trkpt>
      <trkpt lat="40.354930" lon="-4.817380">
        <ele>1249.278</ele>
        <time>2020-02-28T14:03:16Z</time>
      </trkpt>
      <trkpt lat="40.354960" lon="-4.817300">
        <ele>1250.350</ele>
        <time>2020-02-28T14:03:36Z</time>
      </trkpt>
      <trkpt lat="40.355000" lon="-4.817220">
        <ele>1251.128</ele>
        <time>2020-02-28T14:03:56Z</time>
      </trkpt>
      <trkpt lat="40.355030" lon="-4.817140">
        <ele>1251.751</ele>
        <time>2020-02-28T14:04:16Z</time>
      </trkpt>
      <trkpt lat="40.355110" lon="-4.816980">
        <ele>1252.946</ele>
        <time>2020-02-28T14:04:36Z</time>
      </trkpt>
      <trkpt lat="40.355180" lon="-4.816760">
        <ele>1254.848</ele>
        <time>2020-02-28T14:04:56Z</time>
      </trkpt>
      <trkpt lat="40.355200" lon="-4.816630">
        <ele>1255.961</ele>
        <time>2020-02-28T14:05:16Z</time>
      </trkpt>
      <trkpt lat="40.355200" lon="-4.816560">
        <ele>1256.017</ele>
        <time>2020-02-28T14:05:36Z</time>
      </trkpt>
      <trkpt lat="40.355180" lon="-4.816420">
        <ele>1257.108</ele>
        <time>2020-02-28T14:05:56Z</time>
      </trkpt>
      <trkpt lat="40.355140" lon="-4.816290">
        <ele>1258.268</ele>
        <time>2020-02-28T14:06:16Z</time>
      </trkpt>
      <trkpt lat="40.355050" lon="-4.816110">
        <ele>1261.521</ele>
        <time>2020-02-28T14:06:36Z</time>
      </trkpt>
      <trkpt lat="40.354990" lon="-4.815930">
        <ele>1261.296</ele>
        <time>2020-02-28T14:06:56Z</time>
      </trkpt>
      <trkpt lat="40.354970" lon="-4.815800">
        <ele>1260.997</ele>
        <time>2020-02-28T14:07:16Z</time>
      </trkpt>
      <trkpt lat="40.354980" lon="-4.815770">
        <ele>1260.969</ele>
        <time>2020-02-28T14:07:36Z</time>
      </trkpt>
      <trkpt lat="40.354980" lon="-4.815730">
        <ele>1261.577</ele>
        <time>2020-02-28T14:07:56Z</time>
      </trkpt>
      <trkpt lat="40.355010" lon="-4.815600">
        <ele>1261.980</ele>
        <time>2020-02-28T14:08:16Z</time>
      </trkpt>
      <trkpt lat="40.355040" lon="-4.815540">
        <ele>1261.635</ele>
        <time>2020-02-28T14:08:36Z</time>
      </trkpt>
      <trkpt lat="40.355100" lon="-4.815350">
        <ele>1263.157</ele>
        <time>2020-02-28T14:08:56Z</time>
      </trkpt>
      <trkpt lat="40.355130" lon="-4.815220">
        <ele>1263.600</ele>
        <time>2020-02-28T14:09:16Z</time>
      </trkpt>
      <trkpt lat="40.355130" lon="-4.815020">
        <ele>1265.820</ele>
        <time>2020-02-28T14:09:36Z</time>
      </trkpt>
      <trkpt lat="40.355120" lon="-4.814950">
        <ele>1266.008</ele>
        <time>2020-02-28T14:09:56Z</time>
      </trkpt>
      <trkpt lat="40.355090" lon="-4.814830">
        <ele>1266.379</ele>
        <time>2020-02-28T14:10:16Z</time>
      </trkpt>
      <trkpt lat="40.355060" lon="-4.814770">
        <ele>1267.062</ele>
        <time>2020-02-28T14:10:36Z</time>
      </trkpt>
      <trkpt lat="40.355050" lon="-4.814710">
        <ele>1266.887</ele>
        <time>2020-02-28T14:10:56Z</time>
      </trkpt>
      <trkpt lat="40.355040" lon="-4.814690">
        <ele>1267.258</ele>
        <time>2020-02-28T14:11:16Z</time>
      </trkpt>
      <trkpt lat="40.355040" lon="-4.814540">
        <ele>1266.790</ele>
        <time>2020-02-28T14:11:36Z</time>
      </trkpt>
      <trkpt lat="40.355070" lon="-4.814450">
        <ele>1265.258</ele>
        <time>2020-02-28T14:11:56Z</time>
      </trkpt>
      <trkpt lat="40.355100" lon="-4.814420">
        <ele>1264.891</ele>
        <time>2020-02-28T14:12:16Z</time>
      </trkpt>
      <trkpt lat="40.355180" lon="-4.814280">
        <ele>1265.336</ele>
        <time>2020-02-28T14:12:36Z</time>
      </trkpt>
      <trkpt lat="40.355260" lon="-4.814180">
        <ele>1263.711</ele>
        <time>2020-02-28T14:12:56Z</time>
      </trkpt>
      <trkpt lat="40.355310" lon="-4.814100">
        <ele>1263.721</ele>
        <time>2020-02-28T14:13:16Z</time>
      </trkpt>
      <trkpt lat="40.355400" lon="-4.813910">
        <ele>1265.103</ele>
        <time>2020-02-28T14:13:36Z</time>
      </trkpt>
      <trkpt lat="40.355490" lon="-4.813450">
        <ele>1269.108</ele>
        <time>2020-02-28T14:13:56Z</time>
      </trkpt>
      <trkpt lat="40.355550" lon="-4.812890">
        <ele>1270.535</ele>
        <time>2020-02-28T14:14:16Z</time>
      </trkpt>
      <trkpt lat="40.355550" lon="-4.812780">
        <ele>1271.388</ele>
        <time>2020-02-28T14:14:36Z</time>
      </trkpt>
      <trkpt lat="40.355530" lon="-4.812670">
        <ele>1272.463</ele>
        <time>2020-02-28T14:14:56Z</time>
      </trkpt>
      <trkpt lat="40.355510" lon="-4.812610">
        <ele>1273.354</ele>
        <time>2020-02-28T14:15:16Z</time>
      </trkpt>
      <trkpt lat="40.355370" lon="-4.812330">
        <ele>1275.996</ele>
        <time>2020-02-28T14:15:36Z</time>
      </trkpt>
      <trkpt lat="40.355350" lon="-4.812210">
        <ele>1275.254</ele>
        <time>2020-02-28T14:15:56Z</time>
      </trkpt>
      <trkpt lat="40.355350" lon="-4.812150">
        <ele>1275.767</ele>
        <time>2020-02-28T14:16:16Z</time>
      </trkpt>
      <trkpt lat="40.355360" lon="-4.812090">
        <ele>1275.662</ele>
        <time>2020-02-28T14:16:36Z</time>
      </trkpt>
      <trkpt lat="40.355470" lon="-4.811780">
        <ele>1273.975</ele>
        <time>2020-02-28T14:16:56Z</time>
      </trkpt>
      <trkpt lat="40.355570" lon="-4.811420">
        <ele>1274.928</ele>
        <time>2020-02-28T14:17:16Z</time>
      </trkpt>
      <trkpt lat="40.355620" lon="-4.811010">
        <ele>1279.920</ele>
        <time>2020-02-28T14:17:36Z</time>
      </trkpt>
      <trkpt lat="40.355620" lon="-4.810940">
        <ele>1280.908</ele>
        <time>2020-02-28T14:17:56Z</time>
      </trkpt>
      <trkpt lat="40.355660" lon="-4.810600">
        <ele>1285.151</ele>
        <time>2020-02-28T14:18:16Z</time>
      </trkpt>
      <trkpt lat="40.355630" lon="-4.810460">
        <ele>1285.964</ele>
        <time>2020-02-28T14:18:36Z</time>
      </trkpt>
      <trkpt lat="40.355520" lon="-4.810300">
        <ele>1288.659</ele>
        <time>2020-02-28T14:18:56Z</time>
      </trkpt>
      <trkpt lat="40.355490" lon="-4.810240">
        <ele>1289.180</ele>
        <time>2020-02-28T14:19:16Z</time>
      </trkpt>
      <trkpt lat="40.355450" lon="-4.810190">
        <ele>1290.082</ele>
        <time>2020-02-28T14:19:36Z</time>
      </trkpt>
      <trkpt lat="40.355430" lon="-4.810140">
        <ele>1290.270</ele>
        <time>2020-02-28T14:19:56Z</time>
      </trkpt>
      <trkpt lat="40.355400" lon="-4.810010">
        <ele>1289.863</ele>
        <time>2020-02-28T14:20:16Z</time>
      </trkpt>
      <trkpt lat="40.355360" lon="-4.809740">
        <ele>1288.618</ele>
        <time>2020-02-28T14:20:36Z</time>
      </trkpt>
      <trkpt lat="40.355330" lon="-4.809650">
        <ele>1288.999</ele>
        <time>2020-02-28T14:20:56Z</time>
      </trkpt>
      <trkpt lat="40.355270" lon="-4.809560">
        <ele>1289.907</ele>
        <time>2020-02-28T14:21:16Z</time>
      </trkpt>
      <trkpt lat="40.355220" lon="-4.809460">
        <ele>1290.527</ele>
        <time>2020-02-28T14:21:36Z</time>
      </trkpt>
      <trkpt lat="40.355180" lon="-4.809460">
        <ele>1292.108</ele>
        <time>2020-02-28T14:21:56Z</time>
      </trkpt>
      <trkpt lat="40.355160" lon="-4.809470">
        <ele>1293.023</ele>
        <time>2020-02-28T14:22:16Z</time>
      </trkpt>
      <trkpt lat="40.355040" lon="-4.809280">
        <ele>1294.056</ele>
        <time>2020-02-28T14:22:36Z</time>
      </trkpt>
      <trkpt lat="40.354770" lon="-4.808590">
        <ele>1297.391</ele>
        <time>2020-02-28T14:22:56Z</time>
      </trkpt>
      <trkpt lat="40.354670" lon="-4.808410">
        <ele>1299.052</ele>
        <time>2020-02-28T14:23:16Z</time>
      </trkpt>
      <trkpt lat="40.354320" lon="-4.807860">
        <ele>1302.754</ele>
        <time>2020-02-28T14:23:36Z</time>
      </trkpt>
      <trkpt lat="40.354260" lon="-4.807730">
        <ele>1302.642</ele>
        <time>2020-02-28T14:23:56Z</time>
      </trkpt>
      <trkpt lat="40.354210" lon="-4.807580">
        <ele>1302.245</ele>
        <time>2020-02-28T14:24:16Z</time>
      </trkpt>
      <trkpt lat="40.354200" lon="-4.807410">
        <ele>1301.230</ele>
        <time>2020-02-28T14:24:36Z</time>
      </trkpt>
      <trkpt lat="40.354210" lon="-4.806670">
        <ele>1302.059</ele>
        <time>2020-02-28T14:24:56Z</time>
      </trkpt>
      <trkpt lat="40.354200" lon="-4.806490">
        <ele>1302.903</ele>
        <time>2020-02-28T14:25:16Z</time>
      </trkpt>
      <trkpt lat="40.354160" lon="-4.806330">
        <ele>1305.123</ele>
        <time>2020-02-28T14:25:36Z</time>
      </trkpt>
      <trkpt lat="40.354110" lon="-4.806210">
        <ele>1306.708</ele>
        <time>2020-02-28T14:25:56Z</time>
      </trkpt>
      <trkpt lat="40.354040" lon="-4.806100">
        <ele>1308.319</ele>
        <time>2020-02-28T14:26:16Z</time>
      </trkpt>
      <trkpt lat="40.353880" lon="-4.805970">
        <ele>1310.352</ele>
        <time>2020-02-28T14:26:36Z</time>
      </trkpt>
      <trkpt lat="40.353790" lon="-4.805870">
        <ele>1311.017</ele>
        <time>2020-02-28T14:26:56Z</time>
      </trkpt>
      <trkpt lat="40.353700" lon="-4.805740">
        <ele>1311.628</ele>
        <time>2020-02-28T14:27:16Z</time>
      </trkpt>
      <trkpt lat="40.353520" lon="-4.805350">
        <ele>1313.050</ele>
        <time>2020-02-28T14:27:36Z</time>
      </trkpt>
      <trkpt lat="40.353380" lon="-4.805120">
        <ele>1314.738</ele>
        <time>2020-02-28T14:27:56Z</time>
      </trkpt>
      <trkpt lat="40.353200" lon="-4.804860">
        <ele>1317.291</ele>
        <time>2020-02-28T14:28:16Z</time>
      </trkpt>
      <trkpt lat="40.353120" lon="-4.804710">
        <ele>1316.216</ele>
        <time>2020-02-28T14:28:36Z</time>
      </trkpt>
      <trkpt lat="40.352870" lon="-4.804410">
        <ele>1317.142</ele>
        <time>2020-02-28T14:28:56Z</time>
      </trkpt>
      <trkpt lat="40.352810" lon="-4.804370">
        <ele>1317.922</ele>
        <time>2020-02-28T14:29:16Z</time>
      </trkpt>
      <trkpt lat="40.352550" lon="-4.804290">
        <ele>1321.714</ele>
        <time>2020-02-28T14:29:36Z</time>
      </trkpt>
      <trkpt lat="40.352420" lon="-4.804200">
        <ele>1321.708</ele>
        <time>2020-02-28T14:29:56Z</time>
      </trkpt>
      <trkpt lat="40.352330" lon="-4.804050">
        <ele>1320.828</ele>
        <time>2020-02-28T14:30:16Z</time>
      </trkpt>
      <trkpt lat="40.352280" lon="-4.803910">
        <ele>1319.411</ele>
        <time>2020-02-28T14:30:36Z</time>
      </trkpt>
      <trkpt lat="40.352170" lon="-4.803730">
        <ele>1320.036</ele>
        <time>2020-02-28T14:30:56Z</time>
      </trkpt>
      <trkpt lat="40.352020" lon="-4.803560">
        <ele>1322.037</ele>
        <time>2020-02-28T14:31:16Z</time>
      </trkpt>
      <trkpt lat="40.351720" lon="-4.803350">
        <ele>1325.029</ele>
        <time>2020-02-28T14:31:36Z</time>
      </trkpt>
      <trkpt lat="40.351610" lon="-4.803290">
        <ele>1325.917</ele>
        <time>2020-02-28T14:31:56Z</time>
      </trkpt>
      <trkpt lat="40.351230" lon="-4.803170">
        <ele>1328.390</ele>
        <time>2020-02-28T14:32:16Z</time>
      </trkpt>
      <trkpt lat="40.351000" lon="-4.803160">
        <ele>1328.255</ele>
        <time>2020-02-28T14:32:36Z</time>
      </trkpt>
      <trkpt lat="40.350650" lon="-4.803290">
        <ele>1328.178</ele>
        <time>2020-02-28T14:32:56Z</time>
      </trkpt>
      <trkpt lat="40.350090" lon="-4.803760">
        <ele>1335.433</ele>
        <time>2020-02-28T14:33:16Z</time>
      </trkpt>
      <trkpt lat="40.350090" lon="-4.803770">
        <ele>1335.926</ele>
        <time>2020-02-28T14:33:36Z</time>
      </trkpt>
      <trkpt lat="40.349850" lon="-4.803960">
        <ele>1339.008</ele>
        <time>2020-02-28T14:33:56Z</time>
      </trkpt>
      <trkpt lat="40.349470" lon="-4.804160">
        <ele>1346.751</ele>
        <time>2020-02-28T14:34:16Z</time>
      </trkpt>
      <trkpt lat="40.349380" lon="-4.804180">
        <ele>1346.864</ele>
        <time>2020-02-28T14:34:36Z</time>
      </trkpt>
      <trkpt lat="40.349270" lon="-4.804180">
        <ele>1345.699</ele>
        <time>2020-02-28T14:34:56Z</time>
      </trkpt>
      <trkpt lat="40.349210" lon="-4.804170">
        <ele>1344.620</ele>
        <time>2020-02-28T14:35:16Z</time>
      </trkpt>
      <trkpt lat="40.349130" lon="-4.804110">
        <ele>1342.972</ele>
        <time>2020-02-28T14:35:36Z</time>
      </trkpt>
      <trkpt lat="40.349070" lon="-4.804030">
        <ele>1342.350</ele>
        <time>2020-02-28T14:35:56Z</time>
      </trkpt>
      <trkpt lat="40.349020" lon="-4.803940">
        <ele>1341.523</ele>
        <time>2020-02-28T14:36:16Z</time>
      </trkpt>
      <trkpt lat="40.348980" lon="-4.803900">
        <ele>1342.468</ele>
        <time>2020-02-28T14:36:36Z</time>
      </trkpt>
      <trkpt lat="40.348870" lon="-4.803840">
        <ele>1345.176</ele>
        <time>2020-02-28T14:36:56Z</time>
      </trkpt>
      <trkpt lat="40.348620" lon="-4.803750">
        <ele>1346.890</ele>
        <time>2020-02-28T14:37:16Z</time>
      </trkpt>
      <trkpt lat="40.348490" lon="-4.803670">
        <ele>1347.119</ele>
        <time>2020-02-28T14:37:36Z</time>
      </trkpt>
      <trkpt lat="40.348190" lon="-4.803410">
        <ele>1348.208</ele>
        <time>2020-02-28T14:37:56Z</time>
      </trkpt>
      <trkpt lat="40.348030" lon="-4.803290">
        <ele>1349.681</ele>
        <time>2020-02-28T14:38:16Z</time>
      </trkpt>
      <trkpt lat="40.347960" lon="-4.803250">
        <ele>1348.844</ele>
        <time>2020-02-28T14:38:36Z</time>
      </trkpt>
      <trkpt lat="40.347830" lon="-4.803210">
        <ele>1348.939</ele>
        <time>2020-02-28T14:38:56Z</time>
      </trkpt>
      <trkpt lat="40.347710" lon="-4.803200">
        <ele>1348.810</ele>
        <time>2020-02-28T14:39:16Z</time>
      </trkpt>
      <trkpt lat="40.347640" lon="-4.803210">
        <ele>1348.862</ele>
        <time>2020-02-28T14:39:36Z</time>
      </trkpt>
      <trkpt lat="40.347560" lon="-4.803210">
        <ele>1348.340</ele>
        <time>2020-02-28T14:39:56Z</time>
      </trkpt>
      <trkpt lat="40.347440" lon="-4.803260">
        <ele>1348.353</ele>
        <time>2020-02-28T14:40:16Z</time>
      </trkpt>
      <trkpt lat="40.347170" lon="-4.803570">
        <ele>1352.458</ele>
        <time>2020-02-28T14:40:36Z</time>
      </trkpt>
      <trkpt lat="40.347040" lon="-4.803700">
        <ele>1356.585</ele>
        <time>2020-02-28T14:40:56Z</time>
      </trkpt>
      <trkpt lat="40.346780" lon="-4.803780">
        <ele>1358.189</ele>
        <time>2020-02-28T14:41:16Z</time>
      </trkpt>
      <trkpt lat="40.346610" lon="-4.803820">
        <ele>1358.017</ele>
        <time>2020-02-28T14:41:36Z</time>
      </trkpt>
      <trkpt lat="40.346430" lon="-4.803910">
        <ele>1359.408</ele>
        <time>2020-02-28T14:41:56Z</time>
      </trkpt>
      <trkpt lat="40.345680" lon="-4.804340">
        <ele>1367.042</ele>
        <time>2020-02-28T14:42:16Z</time>
      </trkpt>
      <trkpt lat="40.345090" lon="-4.804760">
        <ele>1368.815</ele>
        <time>2020-02-28T14:42:36Z</time>
      </trkpt>
      <trkpt lat="40.344940" lon="-4.804850">
        <ele>1370.010</ele>
        <time>2020-02-28T14:42:56Z</time>
      </trkpt>
      <trkpt lat="40.344740" lon="-4.804940">
        <ele>1371.881</ele>
        <time>2020-02-28T14:43:16Z</time>
      </trkpt>
      <trkpt lat="40.344330" lon="-4.805080">
        <ele>1372.113</ele>
        <time>2020-02-28T14:43:36Z</time>
      </trkpt>
      <trkpt lat="40.344140" lon="-4.805220">
        <ele>1373.681</ele>
        <time>2020-02-28T14:43:56Z</time>
      </trkpt>
      <trkpt lat="40.343950" lon="-4.805390">
        <ele>1373.734</ele>
        <time>2020-02-28T14:44:16Z</time>
      </trkpt>
      <trkpt lat="40.343850" lon="-4.805500">
        <ele>1374.369</ele>
        <time>2020-02-28T14:44:36Z</time>
      </trkpt>
      <trkpt lat="40.343650" lon="-4.805830">
        <ele>1379.353</ele>
        <time>2020-02-28T14:44:56Z</time>
      </trkpt>
      <trkpt lat="40.343560" lon="-4.805930">
        <ele>1380.504</ele>
        <time>2020-02-28T14:45:16Z</time>
      </trkpt>
      <trkpt lat="40.343450" lon="-4.806010">
        <ele>1381.114</ele>
        <time>2020-02-28T14:45:36Z</time>
      </trkpt>
      <trkpt lat="40.343430" lon="-4.806020">
        <ele>1381.108</ele>
        <time>2020-02-28T14:45:56Z</time>
      </trkpt>
      <trkpt lat="40.343340" lon="-4.806040">
        <ele>1379.859</ele>
        <time>2020-02-28T14:46:16Z</time>
      </trkpt>
      <trkpt lat="40.343200" lon="-4.806050">
        <ele>1379.362</ele>
        <time>2020-02-28T14:46:36Z</time>
      </trkpt>
      <trkpt lat="40.343080" lon="-4.806080">
        <ele>1379.957</ele>
        <time>2020-02-28T14:46:56Z</time>
      </trkpt>
      <trkpt lat="40.342880" lon="-4.806220">
        <ele>1382.248</ele>
        <time>2020-02-28T14:47:16Z</time>
      </trkpt>
      <trkpt lat="40.342740" lon="-4.806390">
        <ele>1383.620</ele>
        <time>2020-02-28T14:47:36Z</time>
      </trkpt>
      <trkpt lat="40.342510" lon="-4.806790">
        <ele>1386.598</ele>
        <time>2020-02-28T14:47:56Z</time>
      </trkpt>
      <trkpt lat="40.342410" lon="-4.806900">
        <ele>1389.231</ele>
        <time>2020-02-28T14:48:16Z</time>
      </trkpt>
      <trkpt lat="40.342280" lon="-4.806940">
        <ele>1390.846</ele>
        <time>2020-02-28T14:48:36Z</time>
      </trkpt>
      <trkpt lat="40.342150" lon="-4.806910">
        <ele>1391.765</ele>
        <time>2020-02-28T14:48:56Z</time>
      </trkpt>
      <trkpt lat="40.341810" lon="-4.806780">
        <ele>1392.668</ele>
        <time>2020-02-28T14:49:16Z</time>
      </trkpt>
      <trkpt lat="40.341760" lon="-4.806770">
        <ele>1392.614</ele>
        <time>2020-02-28T14:49:36Z</time>
      </trkpt>
      <trkpt lat="40.341710" lon="-4.806780">
        <ele>1393.808</ele>
        <time>2020-02-28T14:49:56Z</time>
      </trkpt>
      <trkpt lat="40.341310" lon="-4.807070">
        <ele>1399.010</ele>
        <time>2020-02-28T14:50:16Z</time>
      </trkpt>
      <trkpt lat="40.341100" lon="-4.807280">
        <ele>1400.173</ele>
        <time>2020-02-28T14:50:36Z</time>
      </trkpt>
      <trkpt lat="40.340780" lon="-4.807660">
        <ele>1400.738</ele>
        <time>2020-02-28T14:50:56Z</time>
      </trkpt>
      <trkpt lat="40.340620" lon="-4.807800">
        <ele>1400.359</ele>
        <time>2020-02-28T14:51:16Z</time>
      </trkpt>
      <trkpt lat="40.340190" lon="-4.808130">
        <ele>1403.151</ele>
        <time>2020-02-28T14:51:36Z</time>
      </trkpt>
      <trkpt lat="40.339500" lon="-4.808710">
        <ele>1409.039</ele>
        <time>2020-02-28T14:51:56Z</time>
      </trkpt>
      <trkpt lat="40.339370" lon="-4.808780">
        <ele>1409.732</ele>
        <time>2020-02-28T14:52:16Z</time>
      </trkpt>
      <trkpt lat="40.339100" lon="-4.808850">
        <ele>1408.767</ele>
        <time>2020-02-28T14:52:36Z</time>
      </trkpt>
      <trkpt lat="40.339030" lon="-4.808890">
        <ele>1408.648</ele>
        <time>2020-02-28T14:52:56Z</time>
      </trkpt>
      <trkpt lat="40.338870" lon="-4.809020">
        <ele>1409.261</ele>
        <time>2020-02-28T14:53:16Z</time>
      </trkpt>
      <trkpt lat="40.338760" lon="-4.809130">
        <ele>1409.217</ele>
        <time>2020-02-28T14:53:36Z</time>
      </trkpt>
      <trkpt lat="40.338630" lon="-4.809290">
        <ele>1409.708</ele>
        <time>2020-02-28T14:53:56Z</time>
      </trkpt>
      <trkpt lat="40.338510" lon="-4.809480">
        <ele>1411.488</ele>
        <time>2020-02-28T14:54:16Z</time>
      </trkpt>
      <trkpt lat="40.338330" lon="-4.809990">
        <ele>1416.771</ele>
        <time>2020-02-28T14:54:36Z</time>
      </trkpt>
      <trkpt lat="40.338220" lon="-4.810200">
        <ele>1419.866</ele>
        <time>2020-02-28T14:54:56Z</time>
      </trkpt>
      <trkpt lat="40.338020" lon="-4.810380">
        <ele>1420.027</ele>
        <time>2020-02-28T14:55:16Z</time>
      </trkpt>
      <trkpt lat="40.337950" lon="-4.810460">
        <ele>1421.439</ele>
        <time>2020-02-28T14:55:36Z</time>
      </trkpt>
      <trkpt lat="40.337450" lon="-4.810870">
        <ele>1422.937</ele>
        <time>2020-02-28T14:55:56Z</time>
      </trkpt>
      <trkpt lat="40.337380" lon="-4.810940">
        <ele>1424.320</ele>
        <time>2020-02-28T14:56:16Z</time>
      </trkpt>
      <trkpt lat="40.337260" lon="-4.811000">
        <ele>1423.215</ele>
        <time>2020-02-28T14:56:36Z</time>
      </trkpt>
      <trkpt lat="40.337220" lon="-4.811010">
        <ele>1422.562</ele>
        <time>2020-02-28T14:56:56Z</time>
      </trkpt>
      <trkpt lat="40.337140" lon="-4.811010">
        <ele>1423.783</ele>
        <time>2020-02-28T14:57:16Z</time>
      </trkpt>
      <trkpt lat="40.337060" lon="-4.810990">
        <ele>1424.511</ele>
        <time>2020-02-28T14:57:36Z</time>
      </trkpt>
      <trkpt lat="40.336900" lon="-4.810910">
        <ele>1425.408</ele>
        <time>2020-02-28T14:57:56Z</time>
      </trkpt>
      <trkpt lat="40.336790" lon="-4.810870">
        <ele>1425.960</ele>
        <time>2020-02-28T14:58:16Z</time>
      </trkpt>
      <trkpt lat="40.336740" lon="-4.810870">
        <ele>1426.613</ele>
        <time>2020-02-28T14:58:36Z</time>
      </trkpt>
      <trkpt lat="40.336650" lon="-4.810890">
        <ele>1428.468</ele>
        <time>2020-02-28T14:58:56Z</time>
      </trkpt>
      <trkpt lat="40.336610" lon="-4.810910">
        <ele>1429.069</ele>
        <time>2020-02-28T14:59:16Z</time>
      </trkpt>
      <trkpt lat="40.335790" lon="-4.811190">
        <ele>1435.181</ele>
        <time>2020-02-28T14:59:36Z</time>
      </trkpt>
      <trkpt lat="40.335760" lon="-4.811190">
        <ele>1434.989</ele>
        <time>2020-02-28T14:59:56Z</time>
      </trkpt>
      <trkpt lat="40.335690" lon="-4.811150">
        <ele>1431.692</ele>
        <time>2020-02-28T15:00:16Z</time>
      </trkpt>
      <trkpt lat="40.335680" lon="-4.811120">
        <ele>1429.667</ele>
        <time>2020-02-28T15:00:36Z</time>
      </trkpt>
      <trkpt lat="40.335660" lon="-4.811090">
        <ele>1429.174</ele>
        <time>2020-02-28T15:00:56Z</time>
      </trkpt>
      <trkpt lat="40.335640" lon="-4.811000">
        <ele>1429.956</ele>
        <time>2020-02-28T15:01:16Z</time>
      </trkpt>
      <trkpt lat="40.335660" lon="-4.810900">
        <ele>1430.121</ele>
        <time>2020-02-28T15:01:36Z</time>
      </trkpt>
      <trkpt lat="40.335720" lon="-4.810740">
        <ele>1430.308</ele>
        <time>2020-02-28T15:01:56Z</time>
      </trkpt>
      <trkpt lat="40.335970" lon="-4.810180">
        <ele>1431.421</ele>
        <time>2020-02-28T15:02:16Z</time>
      </trkpt>
      <trkpt lat="40.336090" lon="-4.809840">
        <ele>1434.084</ele>
        <time>2020-02-28T15:02:36Z</time>
      </trkpt>
      <trkpt lat="40.336110" lon="-4.809760">
        <ele>1434.459</ele>
        <time>2020-02-28T15:02:56Z</time>
      </trkpt>
      <trkpt lat="40.336110" lon="-4.809660">
        <ele>1435.190</ele>
        <time>2020-02-28T15:03:16Z</time>
      </trkpt>
      <trkpt lat="40.336040" lon="-4.809200">
        <ele>1438.922</ele>
        <time>2020-02-28T15:03:36Z</time>
      </trkpt>
      <trkpt lat="40.336020" lon="-4.809130">
        <ele>1440.590</ele>
        <time>2020-02-28T15:03:56Z</time>
      </trkpt>
      <trkpt lat="40.336030" lon="-4.809050">
        <ele>1441.493</ele>
        <time>2020-02-28T15:04:16Z</time>
      </trkpt>
      <trkpt lat="40.336050" lon="-4.808990">
        <ele>1441.398</ele>
        <time>2020-02-28T15:04:36Z</time>
      </trkpt>
      <trkpt lat="40.336070" lon="-4.808980">
        <ele>1440.563</ele>
        <time>2020-02-28T15:04:56Z</time>
      </trkpt>
      <trkpt lat="40.336140" lon="-4.808920">
        <ele>1438.944</ele>
        <time>2020-02-28T15:05:16Z</time>
      </trkpt>
      <trkpt lat="40.336340" lon="-4.808810">
        <ele>1438.518</ele>
        <time>2020-02-28T15:05:36Z</time>
      </trkpt>
      <trkpt lat="40.336450" lon="-4.808720">
        <ele>1439.408</ele>
        <time>2020-02-28T15:05:56Z</time>
      </trkpt>
      <trkpt lat="40.336510" lon="-4.808660">
        <ele>1440.220</ele>
        <time>2020-02-28T15:06:16Z</time>
      </trkpt>
      <trkpt lat="40.336600" lon="-4.808540">
        <ele>1441.713</ele>
        <time>2020-02-28T15:06:36Z</time>
      </trkpt>
      <trkpt lat="40.336730" lon="-4.808310">
        <ele>1442.628</ele>
        <time>2020-02-28T15:06:56Z</time>
      </trkpt>
      <trkpt lat="40.336810" lon="-4.808110">
        <ele>1444.399</ele>
        <time>2020-02-28T15:07:16Z</time>
      </trkpt>
      <trkpt lat="40.336900" lon="-4.807830">
        <ele>1446.261</ele>
        <time>2020-02-28T15:07:36Z</time>
      </trkpt>
      <trkpt lat="40.336910" lon="-4.807820">
        <ele>1445.919</ele>
        <time>2020-02-28T15:07:56Z</time>
      </trkpt>
      <trkpt lat="40.336950" lon="-4.807610">
        <ele>1447.112</ele>
        <time>2020-02-28T15:08:16Z</time>
      </trkpt>
      <trkpt lat="40.336950" lon="-4.807460">
        <ele>1448.587</ele>
        <time>2020-02-28T15:08:36Z</time>
      </trkpt>
      <trkpt lat="40.336680" lon="-4.805950">
        <ele>1458.624</ele>
        <time>2020-02-28T15:08:56Z</time>
      </trkpt>
      <trkpt lat="40.336690" lon="-4.805880">
        <ele>1457.804</ele>
        <time>2020-02-28T15:09:16Z</time>
      </trkpt>
      <trkpt lat="40.336710" lon="-4.805810">
        <ele>1457.414</ele>
        <time>2020-02-28T15:09:36Z</time>
      </trkpt>
      <trkpt lat="40.336740" lon="-4.805780">
        <ele>1456.908</ele>
        <time>2020-02-28T15:09:56Z</time>
      </trkpt>
      <trkpt lat="40.336740" lon="-4.805770">
        <ele>1457.226</ele>
        <time>2020-02-28T15:10:16Z</time>
      </trkpt>
      <trkpt lat="40.336840" lon="-4.805710">
        <ele>1455.579</ele>
        <time>2020-02-28T15:10:36Z</time>
      </trkpt>
      <trkpt lat="40.336930" lon="-4.805670">
        <ele>1454.544</ele>
        <time>2020-02-28T15:10:56Z</time>
      </trkpt>
      <trkpt lat="40.337050" lon="-4.805640">
        <ele>1455.375</ele>
        <time>2020-02-28T15:11:16Z</time>
      </trkpt>
      <trkpt lat="40.337080" lon="-4.805640">
        <ele>1455.257</ele>
        <time>2020-02-28T15:11:36Z</time>
      </trkpt>
      <trkpt lat="40.337160" lon="-4.805620">
        <ele>1456.175</ele>
        <time>2020-02-28T15:11:56Z</time>
      </trkpt>
      <trkpt lat="40.337370" lon="-4.805510">
        <ele>1459.368</ele>
        <time>2020-02-28T15:12:16Z</time>
      </trkpt>
      <trkpt lat="40.337570" lon="-4.805370">
        <ele>1460.493</ele>
        <time>2020-02-28T15:12:36Z</time>
      </trkpt>
      <trkpt lat="40.337580" lon="-4.805370">
        <ele>1460.272</ele>
        <time>2020-02-28T15:12:56Z</time>
      </trkpt>
      <trkpt lat="40.337760" lon="-4.805210">
        <ele>1462.113</ele>
        <time>2020-02-28T15:13:16Z</time>
      </trkpt>
      <trkpt lat="40.337920" lon="-4.805020">
        <ele>1462.714</ele>
        <time>2020-02-28T15:13:36Z</time>
      </trkpt>
      <trkpt lat="40.338080" lon="-4.804720">
        <ele>1464.708</ele>
        <time>2020-02-28T15:13:56Z</time>
      </trkpt>
      <trkpt lat="40.338150" lon="-4.804500">
        <ele>1466.511</ele>
        <time>2020-02-28T15:14:16Z</time>
      </trkpt>
      <trkpt lat="40.338190" lon="-4.804320">
        <ele>1468.214</ele>
        <time>2020-02-28T15:14:36Z</time>
      </trkpt>
      <trkpt lat="40.338220" lon="-4.804110">
        <ele>1469.249</ele>
        <time>2020-02-28T15:14:56Z</time>
      </trkpt>
      <trkpt lat="40.338200" lon="-4.803590">
        <ele>1471.750</ele>
        <time>2020-02-28T15:15:16Z</time>
      </trkpt>
      <trkpt lat="40.338190" lon="-4.803570">
        <ele>1472.422</ele>
        <time>2020-02-28T15:15:36Z</time>
      </trkpt>
      <trkpt lat="40.338170" lon="-4.803140">
        <ele>1474.730</ele>
        <time>2020-02-28T15:15:56Z</time>
      </trkpt>
      <trkpt lat="40.338230" lon="-4.802960">
        <ele>1474.773</ele>
        <time>2020-02-28T15:16:16Z</time>
      </trkpt>
      <trkpt lat="40.338280" lon="-4.802900">
        <ele>1473.878</ele>
        <time>2020-02-28T15:16:36Z</time>
      </trkpt>
      <trkpt lat="40.338870" lon="-4.802060">
        <ele>1478.565</ele>
        <time>2020-02-28T15:16:56Z</time>
      </trkpt>
      <trkpt lat="40.339300" lon="-4.801600">
        <ele>1478.568</ele>
        <time>2020-02-28T15:17:16Z</time>
      </trkpt>
      <trkpt lat="40.339490" lon="-4.801350">
        <ele>1480.814</ele>
        <time>2020-02-28T15:17:36Z</time>
      </trkpt>
      <trkpt lat="40.339530" lon="-4.801280">
        <ele>1480.508</ele>
        <time>2020-02-28T15:17:56Z</time>
      </trkpt>
      <trkpt lat="40.339550" lon="-4.801210">
        <ele>1481.140</ele>
        <time>2020-02-28T15:18:16Z</time>
      </trkpt>
      <trkpt lat="40.339560" lon="-4.801140">
        <ele>1482.253</ele>
        <time>2020-02-28T15:18:36Z</time>
      </trkpt>
      <trkpt lat="40.339540" lon="-4.801050">
        <ele>1483.958</ele>
        <time>2020-02-28T15:18:56Z</time>
      </trkpt>
      <trkpt lat="40.339520" lon="-4.801020">
        <ele>1485.019</ele>
        <time>2020-02-28T15:19:16Z</time>
      </trkpt>
      <trkpt lat="40.339460" lon="-4.800970">
        <ele>1488.331</ele>
        <time>2020-02-28T15:19:36Z</time>
      </trkpt>
      <trkpt lat="40.339410" lon="-4.800970">
        <ele>1490.899</ele>
        <time>2020-02-28T15:19:56Z</time>
      </trkpt>
      <trkpt lat="40.339370" lon="-4.800990">
        <ele>1492.552</ele>
        <time>2020-02-28T15:20:16Z</time>
      </trkpt>
      <trkpt lat="40.339360" lon="-4.801010">
        <ele>1492.767</ele>
        <time>2020-02-28T15:20:36Z</time>
      </trkpt>
      <trkpt lat="40.339330" lon="-4.801050">
        <ele>1493.625</ele>
        <time>2020-02-28T15:20:56Z</time>
      </trkpt>
      <trkpt lat="40.339190" lon="-4.801370">
        <ele>1489.226</ele>
        <time>2020-02-28T15:21:16Z</time>
      </trkpt>
      <trkpt lat="40.339100" lon="-4.801490">
        <ele>1489.508</ele>
        <time>2020-02-28T15:21:36Z</time>
      </trkpt>
      <trkpt lat="40.337860" lon="-4.802660">
        <ele>1498.908</ele>
        <time>2020-02-28T15:21:56Z</time>
      </trkpt>
      <trkpt lat="40.337760" lon="-4.802790">
        <ele>1501.236</ele>
        <time>2020-02-28T15:22:16Z</time>
      </trkpt>
      <trkpt lat="40.337740" lon="-4.802830">
        <ele>1502.579</ele>
        <time>2020-02-28T15:22:36Z</time>
      </trkpt>
      <trkpt lat="40.337720" lon="-4.802900">
        <ele>1503.624</ele>
        <time>2020-02-28T15:22:56Z</time>
      </trkpt>
      <trkpt lat="40.337710" lon="-4.803060">
        <ele>1503.655</ele>
        <time>2020-02-28T15:23:16Z</time>
      </trkpt>
      <trkpt lat="40.337700" lon="-4.803100">
        <ele>1504.357</ele>
        <time>2020-02-28T15:23:36Z</time>
      </trkpt>
      <trkpt lat="40.337700" lon="-4.803640">
        <ele>1505.285</ele>
        <time>2020-02-28T15:23:56Z</time>
      </trkpt>
      <trkpt lat="40.337670" lon="-4.803840">
        <ele>1504.318</ele>
        <time>2020-02-28T15:24:16Z</time>
      </trkpt>
      <trkpt lat="40.337610" lon="-4.804050">
        <ele>1503.383</ele>
        <time>2020-02-28T15:24:36Z</time>
      </trkpt>
      <trkpt lat="40.337460" lon="-4.804310">
        <ele>1504.761</ele>
        <time>2020-02-28T15:24:56Z</time>
      </trkpt>
      <trkpt lat="40.337350" lon="-4.804440">
        <ele>1505.521</ele>
        <time>2020-02-28T15:25:16Z</time>
      </trkpt>
      <trkpt lat="40.337180" lon="-4.804570">
        <ele>1506.613</ele>
        <time>2020-02-28T15:25:36Z</time>
      </trkpt>
      <trkpt lat="40.336970" lon="-4.804710">
        <ele>1506.008</ele>
        <time>2020-02-28T15:25:56Z</time>
      </trkpt>
      <trkpt lat="40.336950" lon="-4.804710">
        <ele>1506.470</ele>
        <time>2020-02-28T15:26:16Z</time>
      </trkpt>
      <trkpt lat="40.336030" lon="-4.804960">
        <ele>1515.083</ele>
        <time>2020-02-28T15:26:36Z</time>
      </trkpt>
      <trkpt lat="40.335950" lon="-4.805010">
        <ele>1518.238</ele>
        <time>2020-02-28T15:26:56Z</time>
      </trkpt>
      <trkpt lat="40.335920" lon="-4.805040">
        <ele>1519.469</ele>
        <time>2020-02-28T15:27:16Z</time>
      </trkpt>
      <trkpt lat="40.335910" lon="-4.805060">
        <ele>1519.641</ele>
        <time>2020-02-28T15:27:36Z</time>
      </trkpt>
      <trkpt lat="40.335910" lon="-4.805070">
        <ele>1519.469</ele>
        <time>2020-02-28T15:27:56Z</time>
      </trkpt>
      <trkpt lat="40.335890" lon="-4.805100">
        <ele>1520.042</ele>
        <time>2020-02-28T15:28:16Z</time>
      </trkpt>
      <trkpt lat="40.335530" lon="-4.806510">
        <ele>1523.947</ele>
        <time>2020-02-28T15:28:36Z</time>
      </trkpt>
      <trkpt lat="40.335300" lon="-4.806940">
        <ele>1528.132</ele>
        <time>2020-02-28T15:28:56Z</time>
      </trkpt>
      <trkpt lat="40.335210" lon="-4.807070">
        <ele>1527.792</ele>
        <time>2020-02-28T15:29:16Z</time>
      </trkpt>
      <trkpt lat="40.335080" lon="-4.807180">
        <ele>1529.811</ele>
        <time>2020-02-28T15:29:36Z</time>
      </trkpt>
      <trkpt lat="40.334700" lon="-4.807420">
        <ele>1533.008</ele>
        <time>2020-02-28T15:29:56Z</time>
      </trkpt>
      <trkpt lat="40.334510" lon="-4.807600">
        <ele>1535.757</ele>
        <time>2020-02-28T15:30:16Z</time>
      </trkpt>
      <trkpt lat="40.334470" lon="-4.807630">
        <ele>1537.020</ele>
        <time>2020-02-28T15:30:36Z</time>
      </trkpt>
      <trkpt lat="40.334420" lon="-4.807740">
        <ele>1539.795</ele>
        <time>2020-02-28T15:30:56Z</time>
      </trkpt>
      <trkpt lat="40.334380" lon="-4.807890">
        <ele>1542.556</ele>
        <time>2020-02-28T15:31:16Z</time>
      </trkpt>
      <trkpt lat="40.334350" lon="-4.808190">
        <ele>1544.478</ele>
        <time>2020-02-28T15:31:36Z</time>
      </trkpt>
      <trkpt lat="40.334340" lon="-4.808800">
        <ele>1541.346</ele>
        <time>2020-02-28T15:31:56Z</time>
      </trkpt>
      <trkpt lat="40.334320" lon="-4.808920">
        <ele>1540.739</ele>
        <time>2020-02-28T15:32:16Z</time>
      </trkpt>
      <trkpt lat="40.334290" lon="-4.809020">
        <ele>1540.184</ele>
        <time>2020-02-28T15:32:36Z</time>
      </trkpt>
      <trkpt lat="40.334250" lon="-4.809110">
        <ele>1539.952</ele>
        <time>2020-02-28T15:32:56Z</time>
      </trkpt>
      <trkpt lat="40.334210" lon="-4.809160">
        <ele>1540.453</ele>
        <time>2020-02-28T15:33:16Z</time>
      </trkpt>
      <trkpt lat="40.334140" lon="-4.809210">
        <ele>1541.208</ele>
        <time>2020-02-28T15:33:36Z</time>
      </trkpt>
      <trkpt lat="40.334020" lon="-4.809270">
        <ele>1541.908</ele>
        <time>2020-02-28T15:33:56Z</time>
      </trkpt>
      <trkpt lat="40.333810" lon="-4.809330">
        <ele>1544.249</ele>
        <time>2020-02-28T15:34:16Z</time>
      </trkpt>
      <trkpt lat="40.333120" lon="-4.809360">
        <ele>1555.722</ele>
        <time>2020-02-28T15:34:36Z</time>
      </trkpt>
      <trkpt lat="40.332950" lon="-4.809460">
        <ele>1560.517</ele>
        <time>2020-02-28T15:34:56Z</time>
      </trkpt>
      <trkpt lat="40.332890" lon="-4.809600">
        <ele>1561.858</ele>
        <time>2020-02-28T15:35:16Z</time>
      </trkpt>
      <trkpt lat="40.332880" lon="-4.809860">
        <ele>1558.210</ele>
        <time>2020-02-28T15:35:36Z</time>
      </trkpt>
      <trkpt lat="40.332780" lon="-4.810130">
        <ele>1556.698</ele>
        <time>2020-02-28T15:35:56Z</time>
      </trkpt>
      <trkpt lat="40.332450" lon="-4.810490">
        <ele>1557.481</ele>
        <time>2020-02-28T15:36:16Z</time>
      </trkpt>
      <trkpt lat="40.332020" lon="-4.810890">
        <ele>1561.486</ele>
        <time>2020-02-28T15:36:36Z</time>
      </trkpt>
      <trkpt lat="40.331860" lon="-4.811070">
        <ele>1563.645</ele>
        <time>2020-02-28T15:36:56Z</time>
      </trkpt>
      <trkpt lat="40.331750" lon="-4.811250">
        <ele>1565.547</ele>
        <time>2020-02-28T15:37:16Z</time>
      </trkpt>
      <trkpt lat="40.331420" lon="-4.812020">
        <ele>1567.411</ele>
        <time>2020-02-28T15:37:36Z</time>
      </trkpt>
      <trkpt lat="40.331340" lon="-4.812270">
        <ele>1569.508</ele>
        <time>2020-02-28T15:37:56Z</time>
      </trkpt>
      <trkpt lat="40.331310" lon="-4.812400">
        <ele>1570.578</ele>
        <time>2020-02-28T15:38:16Z</time>
      </trkpt>
      <trkpt lat="40.331310" lon="-4.812570">
        <ele>1570.861</ele>
        <time>2020-02-28T15:38:36Z</time>
      </trkpt>
      <trkpt lat="40.331340" lon="-4.812750">
        <ele>1570.616</ele>
        <time>2020-02-28T15:38:56Z</time>
      </trkpt>
      <trkpt lat="40.331480" lon="-4.813130">
        <ele>1569.027</ele>
        <time>2020-02-28T15:39:16Z</time>
      </trkpt>
      <trkpt lat="40.331500" lon="-4.813260">
        <ele>1569.479</ele>
        <time>2020-02-28T15:39:36Z</time>
      </trkpt>
      <trkpt lat="40.331490" lon="-4.813470">
        <ele>1570.387</ele>
        <time>2020-02-28T15:39:56Z</time>
      </trkpt>
      <trkpt lat="40.331210" lon="-4.814980">
        <ele>1569.290</ele>
        <time>2020-02-28T15:40:16Z</time>
      </trkpt>
      <trkpt lat="40.331130" lon="-4.815290">
        <ele>1568.065</ele>
        <time>2020-02-28T15:40:36Z</time>
      </trkpt>
      <trkpt lat="40.330990" lon="-4.815660">
        <ele>1565.245</ele>
        <time>2020-02-28T15:40:56Z</time>
      </trkpt>
      <trkpt lat="40.330780" lon="-4.816360">
        <ele>1564.747</ele>
        <time>2020-02-28T15:41:16Z</time>
      </trkpt>
      <trkpt lat="40.330740" lon="-4.816420">
        <ele>1564.111</ele>
        <time>2020-02-28T15:41:36Z</time>
      </trkpt>
      <trkpt lat="40.330710" lon="-4.816500">
        <ele>1564.508</ele>
        <time>2020-02-28T15:41:56Z</time>
      </trkpt>
      <trkpt lat="40.330620" lon="-4.816630">
        <ele>1564.678</ele>
        <time>2020-02-28T15:42:16Z</time>
      </trkpt>
      <trkpt lat="40.330570" lon="-4.816680">
        <ele>1564.721</ele>
        <time>2020-02-28T15:42:36Z</time>
      </trkpt>
      <trkpt lat="40.330400" lon="-4.816800">
        <ele>1561.946</ele>
        <time>2020-02-28T15:42:56Z</time>
      </trkpt>
      <trkpt lat="40.330260" lon="-4.816930">
        <ele>1560.497</ele>
        <time>2020-02-28T15:43:16Z</time>
      </trkpt>
      <trkpt lat="40.330170" lon="-4.817030">
        <ele>1557.659</ele>
        <time>2020-02-28T15:43:36Z</time>
      </trkpt>
      <trkpt lat="40.330140" lon="-4.817100">
        <ele>1557.557</ele>
        <time>2020-02-28T15:43:56Z</time>
      </trkpt>
      <trkpt lat="40.329400" lon="-4.818370">
        <ele>1546.410</ele>
        <time>2020-02-28T15:44:16Z</time>
      </trkpt>
      <trkpt lat="40.329080" lon="-4.819130">
        <ele>1543.245</ele>
        <time>2020-02-28T15:44:36Z</time>
      </trkpt>
      <trkpt lat="40.329040" lon="-4.819260">
        <ele>1542.831</ele>
        <time>2020-02-28T15:44:56Z</time>
      </trkpt>
      <trkpt lat="40.328980" lon="-4.819410">
        <ele>1541.561</ele>
        <time>2020-02-28T15:45:16Z</time>
      </trkpt>
      <trkpt lat="40.328670" lon="-4.820850">
        <ele>1537.607</ele>
        <time>2020-02-28T15:45:36Z</time>
      </trkpt>
      <trkpt lat="40.328590" lon="-4.821130">
        <ele>1537.508</ele>
        <time>2020-02-28T15:45:56Z</time>
      </trkpt>
      <trkpt lat="40.328540" lon="-4.821240">
        <ele>1538.167</ele>
        <time>2020-02-28T15:46:16Z</time>
      </trkpt>
      <trkpt lat="40.328510" lon="-4.821290">
        <ele>1538.730</ele>
        <time>2020-02-28T15:46:36Z</time>
      </trkpt>
      <trkpt lat="40.328450" lon="-4.821330">
        <ele>1538.945</ele>
        <time>2020-02-28T15:46:56Z</time>
      </trkpt>
      <trkpt lat="40.328370" lon="-4.821350">
        <ele>1538.666</ele>
        <time>2020-02-28T15:47:16Z</time>
      </trkpt>
      <trkpt lat="40.328150" lon="-4.821310">
        <ele>1536.368</ele>
        <time>2020-02-28T15:47:36Z</time>
      </trkpt>
      <trkpt lat="40.327900" lon="-4.821310">
        <ele>1532.946</ele>
        <time>2020-02-28T15:47:56Z</time>
      </trkpt>
      <trkpt lat="40.327850" lon="-4.821320">
        <ele>1532.169</ele>
        <time>2020-02-28T15:48:16Z</time>
      </trkpt>
      <trkpt lat="40.327770" lon="-4.821350">
        <ele>1530.964</ele>
        <time>2020-02-28T15:48:36Z</time>
      </trkpt>
      <trkpt lat="40.327700" lon="-4.821390">
        <ele>1529.526</ele>
        <time>2020-02-28T15:48:56Z</time>
      </trkpt>
      <trkpt lat="40.327650" lon="-4.821460">
        <ele>1528.947</ele>
        <time>2020-02-28T15:49:16Z</time>
      </trkpt>
      <trkpt lat="40.327600" lon="-4.821550">
        <ele>1528.411</ele>
        <time>2020-02-28T15:49:36Z</time>
      </trkpt>
      <trkpt lat="40.327520" lon="-4.821800">
        <ele>1526.808</ele>
        <time>2020-02-28T15:49:56Z</time>
      </trkpt>
      <trkpt lat="40.327490" lon="-4.821940">
        <ele>1525.726</ele>
        <time>2020-02-28T15:50:16Z</time>
      </trkpt>
      <trkpt lat="40.327480" lon="-4.822110">
        <ele>1525.489</ele>
        <time>2020-02-28T15:50:36Z</time>
      </trkpt>
      <trkpt lat="40.327370" lon="-4.822980">
        <ele>1522.644</ele>
        <time>2020-02-28T15:50:56Z</time>
      </trkpt>
      <trkpt lat="40.327330" lon="-4.823150">
        <ele>1522.225</ele>
        <time>2020-02-28T15:51:16Z</time>
      </trkpt>
      <trkpt lat="40.327240" lon="-4.823400">
        <ele>1521.757</ele>
        <time>2020-02-28T15:51:36Z</time>
      </trkpt>
      <trkpt lat="40.327210" lon="-4.823450">
        <ele>1521.785</ele>
        <time>2020-02-28T15:51:56Z</time>
      </trkpt>
      <trkpt lat="40.327180" lon="-4.823520">
        <ele>1521.838</ele>
        <time>2020-02-28T15:52:16Z</time>
      </trkpt>
      <trkpt lat="40.326730" lon="-4.824260">
        <ele>1514.633</ele>
        <time>2020-02-28T15:52:36Z</time>
      </trkpt>
      <trkpt lat="40.326670" lon="-4.824400">
        <ele>1512.867</ele>
        <time>2020-02-28T15:52:56Z</time>
      </trkpt>
      <trkpt lat="40.326650" lon="-4.824480">
        <ele>1512.281</ele>
        <time>2020-02-28T15:53:16Z</time>
      </trkpt>
      <trkpt lat="40.326630" lon="-4.824620">
        <ele>1511.819</ele>
        <time>2020-02-28T15:53:36Z</time>
      </trkpt>
      <trkpt lat="40.326630" lon="-4.824660">
        <ele>1512.108</ele>
        <time>2020-02-28T15:53:56Z</time>
      </trkpt>
      <trkpt lat="40.326620" lon="-4.824690">
        <ele>1511.640</ele>
        <time>2020-02-28T15:54:16Z</time>
      </trkpt>
      <trkpt lat="40.326610" lon="-4.824820">
        <ele>1511.553</ele>
        <time>2020-02-28T15:54:36Z</time>
      </trkpt>
      <trkpt lat="40.326590" lon="-4.824890">
        <ele>1510.518</ele>
        <time>2020-02-28T15:54:56Z</time>
      </trkpt>
      <trkpt lat="40.326570" lon="-4.825010">
        <ele>1509.879</ele>
        <time>2020-02-28T15:55:16Z</time>
      </trkpt>
      <trkpt lat="40.326550" lon="-4.825250">
        <ele>1509.941</ele>
        <time>2020-02-28T15:55:36Z</time>
      </trkpt>
      <trkpt lat="40.326460" lon="-4.825800">
        <ele>1509.959</ele>
        <time>2020-02-28T15:55:56Z</time>
      </trkpt>
      <trkpt lat="40.326460" lon="-4.825820">
        <ele>1510.282</ele>
        <time>2020-02-28T15:56:16Z</time>
      </trkpt>
      <trkpt lat="40.326450" lon="-4.825860">
        <ele>1510.197</ele>
        <time>2020-02-28T15:56:36Z</time>
      </trkpt>
      <trkpt lat="40.326210" lon="-4.826480">
        <ele>1506.873</ele>
        <time>2020-02-28T15:56:56Z</time>
      </trkpt>
      <trkpt lat="40.326130" lon="-4.826650">
        <ele>1504.885</ele>
        <time>2020-02-28T15:57:16Z</time>
      </trkpt>
      <trkpt lat="40.326130" lon="-4.826660">
        <ele>1505.013</ele>
        <time>2020-02-28T15:57:36Z</time>
      </trkpt>
      <trkpt lat="40.325990" lon="-4.826960">
        <ele>1503.908</ele>
        <time>2020-02-28T15:57:56Z</time>
      </trkpt>
      <trkpt lat="40.325770" lon="-4.827340">
        <ele>1504.791</ele>
        <time>2020-02-28T15:58:16Z</time>
      </trkpt>
      <trkpt lat="40.325710" lon="-4.827420">
        <ele>1505.644</ele>
        <time>2020-02-28T15:58:36Z</time>
      </trkpt>
      <trkpt lat="40.325610" lon="-4.827480">
        <ele>1505.459</ele>
        <time>2020-02-28T15:58:56Z</time>
      </trkpt>
      <trkpt lat="40.325590" lon="-4.827480">
        <ele>1505.140</ele>
        <time>2020-02-28T15:59:16Z</time>
      </trkpt>
      <trkpt lat="40.325540" lon="-4.827460">
        <ele>1504.372</ele>
        <time>2020-02-28T15:59:36Z</time>
      </trkpt>
      <trkpt lat="40.325490" lon="-4.827420">
        <ele>1504.610</ele>
        <time>2020-02-28T15:59:56Z</time>
      </trkpt>
      <trkpt lat="40.325460" lon="-4.827370">
        <ele>1504.053</ele>
        <time>2020-02-28T16:00:16Z</time>
      </trkpt>
      <trkpt lat="40.325460" lon="-4.827330">
        <ele>1502.938</ele>
        <time>2020-02-28T16:00:36Z</time>
      </trkpt>
      <trkpt lat="40.325450" lon="-4.827290">
        <ele>1502.025</ele>
        <time>2020-02-28T16:00:56Z</time>
      </trkpt>
      <trkpt lat="40.325450" lon="-4.827270">
        <ele>1501.426</ele>
        <time>2020-02-28T16:01:16Z</time>
      </trkpt>
      <trkpt lat="40.325460" lon="-4.827270">
        <ele>1501.108</ele>
        <time>2020-02-28T16:01:36Z</time>
      </trkpt>
      <trkpt lat="40.325460" lon="-4.827240">
        <ele>1500.308</ele>
        <time>2020-02-28T16:01:56Z</time>
      </trkpt>
      <trkpt lat="40.325470" lon="-4.827210">
        <ele>1499.096</ele>
        <time>2020-02-28T16:02:16Z</time>
      </trkpt>
      <trkpt lat="40.325490" lon="-4.827180">
        <ele>1497.359</ele>
        <time>2020-02-28T16:02:36Z</time>
      </trkpt>
      <trkpt lat="40.325520" lon="-4.827150">
        <ele>1495.214</ele>
        <time>2020-02-28T16:02:56Z</time>
      </trkpt>
      <trkpt lat="40.325550" lon="-4.827130">
        <ele>1493.535</ele>
        <time>2020-02-28T16:03:16Z</time>
      </trkpt>
      <trkpt lat="40.325570" lon="-4.827110">
        <ele>1492.997</ele>
        <time>2020-02-28T16:03:36Z</time>
      </trkpt>
      <trkpt lat="40.325580" lon="-4.827110">
        <ele>1493.285</ele>
        <time>2020-02-28T16:03:56Z</time>
      </trkpt>
      <trkpt lat="40.325810" lon="-4.826950">
        <ele>1494.488</ele>
        <time>2020-02-28T16:04:16Z</time>
      </trkpt>
      <trkpt lat="40.325870" lon="-4.826890">
        <ele>1495.543</ele>
        <time>2020-02-28T16:04:36Z</time>
      </trkpt>
      <trkpt lat="40.325880" lon="-4.826870">
        <ele>1495.563</ele>
        <time>2020-02-28T16:04:56Z</time>
      </trkpt>
      <trkpt lat="40.325900" lon="-4.826850">
        <ele>1496.044</ele>
        <time>2020-02-28T16:05:16Z</time>
      </trkpt>
      <trkpt lat="40.325940" lon="-4.826750">
        <ele>1495.718</ele>
        <time>2020-02-28T16:05:36Z</time>
      </trkpt>
      <trkpt lat="40.325960" lon="-4.826720">
        <ele>1496.108</ele>
        <time>2020-02-28T16:05:56Z</time>
      </trkpt>
      <trkpt lat="40.326000" lon="-4.826570">
        <ele>1495.410</ele>
        <time>2020-02-28T16:06:16Z</time>
      </trkpt>
      <trkpt lat="40.326040" lon="-4.826300">
        <ele>1492.723</ele>
        <time>2020-02-28T16:06:36Z</time>
      </trkpt>
      <trkpt lat="40.326150" lon="-4.825790">
        <ele>1490.038</ele>
        <time>2020-02-28T16:06:56Z</time>
      </trkpt>
      <trkpt lat="40.326180" lon="-4.825360">
        <ele>1487.689</ele>
        <time>2020-02-28T16:07:16Z</time>
      </trkpt>
      <trkpt lat="40.326160" lon="-4.825220">
        <ele>1485.831</ele>
        <time>2020-02-28T16:07:36Z</time>
      </trkpt>
      <trkpt lat="40.326110" lon="-4.824990">
        <ele>1482.949</ele>
        <time>2020-02-28T16:07:56Z</time>
      </trkpt>
      <trkpt lat="40.326100" lon="-4.824910">
        <ele>1482.512</ele>
        <time>2020-02-28T16:08:16Z</time>
      </trkpt>
      <trkpt lat="40.325950" lon="-4.824200">
        <ele>1475.557</ele>
        <time>2020-02-28T16:08:36Z</time>
      </trkpt>
      <trkpt lat="40.325950" lon="-4.824010">
        <ele>1475.551</ele>
        <time>2020-02-28T16:08:56Z</time>
      </trkpt>
      <trkpt lat="40.326250" lon="-4.822950">
        <ele>1479.001</ele>
        <time>2020-02-28T16:09:16Z</time>
      </trkpt>
      <trkpt lat="40.326270" lon="-4.822810">
        <ele>1479.011</ele>
        <time>2020-02-28T16:09:36Z</time>
      </trkpt>
      <trkpt lat="40.326270" lon="-4.822570">
        <ele>1478.008</ele>
        <time>2020-02-28T16:09:56Z</time>
      </trkpt>
      <trkpt lat="40.326260" lon="-4.822540">
        <ele>1477.359</ele>
        <time>2020-02-28T16:10:16Z</time>
      </trkpt>
      <trkpt lat="40.326260" lon="-4.822480">
        <ele>1477.112</ele>
        <time>2020-02-28T16:10:36Z</time>
      </trkpt>
      <trkpt lat="40.326250" lon="-4.822430">
        <ele>1476.597</ele>
        <time>2020-02-28T16:10:56Z</time>
      </trkpt>
      <trkpt lat="40.326230" lon="-4.822380">
        <ele>1475.428</ele>
        <time>2020-02-28T16:11:16Z</time>
      </trkpt>
      <trkpt lat="40.326180" lon="-4.822310">
        <ele>1472.930</ele>
        <time>2020-02-28T16:11:36Z</time>
      </trkpt>
      <trkpt lat="40.326140" lon="-4.822270">
        <ele>1471.138</ele>
        <time>2020-02-28T16:11:56Z</time>
      </trkpt>
      <trkpt lat="40.325920" lon="-4.822140">
        <ele>1466.431</ele>
        <time>2020-02-28T16:12:16Z</time>
      </trkpt>
      <trkpt lat="40.325760" lon="-4.822010">
        <ele>1463.216</ele>
        <time>2020-02-28T16:12:36Z</time>
      </trkpt>
      <trkpt lat="40.325700" lon="-4.821920">
        <ele>1462.218</ele>
        <time>2020-02-28T16:12:56Z</time>
      </trkpt>
      <trkpt lat="40.325650" lon="-4.821810">
        <ele>1461.898</ele>
        <time>2020-02-28T16:13:16Z</time>
      </trkpt>
      <trkpt lat="40.325650" lon="-4.821800">
        <ele>1462.017</ele>
        <time>2020-02-28T16:13:36Z</time>
      </trkpt>
      <trkpt lat="40.325630" lon="-4.821750">
        <ele>1462.008</ele>
        <time>2020-02-28T16:13:56Z</time>
      </trkpt>
      <trkpt lat="40.325630" lon="-4.821640">
        <ele>1463.345</ele>
        <time>2020-02-28T16:14:16Z</time>
      </trkpt>
      <trkpt lat="40.325660" lon="-4.821450">
        <ele>1463.618</ele>
        <time>2020-02-28T16:14:36Z</time>
      </trkpt>
      <trkpt lat="40.325720" lon="-4.821240">
        <ele>1463.933</ele>
        <time>2020-02-28T16:14:56Z</time>
      </trkpt>
      <trkpt lat="40.325910" lon="-4.820730">
        <ele>1463.554</ele>
        <time>2020-02-28T16:15:16Z</time>
      </trkpt>
      <trkpt lat="40.326110" lon="-4.820300">
        <ele>1459.926</ele>
        <time>2020-02-28T16:15:36Z</time>
      </trkpt>
      <trkpt lat="40.326150" lon="-4.820230">
        <ele>1459.794</ele>
        <time>2020-02-28T16:15:56Z</time>
      </trkpt>
      <trkpt lat="40.326200" lon="-4.820180">
        <ele>1460.717</ele>
        <time>2020-02-28T16:16:16Z</time>
      </trkpt>
      <trkpt lat="40.326230" lon="-4.820130">
        <ele>1460.742</ele>
        <time>2020-02-28T16:16:36Z</time>
      </trkpt>
      <trkpt lat="40.326320" lon="-4.820060">
        <ele>1462.382</ele>
        <time>2020-02-28T16:16:56Z</time>
      </trkpt>
      <trkpt lat="40.326390" lon="-4.820020">
        <ele>1463.743</ele>
        <time>2020-02-28T16:17:16Z</time>
      </trkpt>
      <trkpt lat="40.326520" lon="-4.819990">
        <ele>1463.617</ele>
        <time>2020-02-28T16:17:36Z</time>
      </trkpt>
      <trkpt lat="40.326830" lon="-4.819960">
        <ele>1464.708</ele>
        <time>2020-02-28T16:17:56Z</time>
      </trkpt>
      <trkpt lat="40.327080" lon="-4.819890">
        <ele>1464.482</ele>
        <time>2020-02-28T16:18:16Z</time>
      </trkpt>
      <trkpt lat="40.327100" lon="-4.819890">
        <ele>1464.795</ele>
        <time>2020-02-28T16:18:36Z</time>
      </trkpt>
      <trkpt lat="40.327230" lon="-4.819850">
        <ele>1464.660</ele>
        <time>2020-02-28T16:18:56Z</time>
      </trkpt>
      <trkpt lat="40.327310" lon="-4.819810">
        <ele>1463.671</ele>
        <time>2020-02-28T16:19:16Z</time>
      </trkpt>
      <trkpt lat="40.327340" lon="-4.819780">
        <ele>1462.743</ele>
        <time>2020-02-28T16:19:36Z</time>
      </trkpt>
      <trkpt lat="40.327360" lon="-4.819750">
        <ele>1461.671</ele>
        <time>2020-02-28T16:19:56Z</time>
      </trkpt>
      <trkpt lat="40.327390" lon="-4.819720">
        <ele>1460.794</ele>
        <time>2020-02-28T16:20:16Z</time>
      </trkpt>
      <trkpt lat="40.327420" lon="-4.819580">
        <ele>1457.239</ele>
        <time>2020-02-28T16:20:36Z</time>
      </trkpt>
      <trkpt lat="40.327420" lon="-4.818640">
        <ele>1441.422</ele>
        <time>2020-02-28T16:20:56Z</time>
      </trkpt>
      <trkpt lat="40.327450" lon="-4.818320">
        <ele>1439.662</ele>
        <time>2020-02-28T16:21:16Z</time>
      </trkpt>
      <trkpt lat="40.327550" lon="-4.818010">
        <ele>1440.608</ele>
        <time>2020-02-28T16:21:36Z</time>
      </trkpt>
      <trkpt lat="40.327900" lon="-4.817160">
        <ele>1441.008</ele>
        <time>2020-02-28T16:21:56Z</time>
      </trkpt>
      <trkpt lat="40.327910" lon="-4.817110">
        <ele>1440.876</ele>
        <time>2020-02-28T16:22:16Z</time>
      </trkpt>
      <trkpt lat="40.327910" lon="-4.817050">
        <ele>1439.889</ele>
        <time>2020-02-28T16:22:36Z</time>
      </trkpt>
      <trkpt lat="40.327890" lon="-4.817000">
        <ele>1437.914</ele>
        <time>2020-02-28T16:22:56Z</time>
      </trkpt>
      <trkpt lat="40.327860" lon="-4.816970">
        <ele>1435.875</ele>
        <time>2020-02-28T16:23:16Z</time>
      </trkpt>
      <trkpt lat="40.327850" lon="-4.816950">
        <ele>1435.097</ele>
        <time>2020-02-28T16:23:36Z</time>
      </trkpt>
      <trkpt lat="40.327820" lon="-4.816940">
        <ele>1433.485</ele>
        <time>2020-02-28T16:23:56Z</time>
      </trkpt>
      <trkpt lat="40.327800" lon="-4.816920">
        <ele>1433.188</ele>
        <time>2020-02-28T16:24:16Z</time>
      </trkpt>
      <trkpt lat="40.327740" lon="-4.816920">
        <ele>1431.373</ele>
        <time>2020-02-28T16:24:36Z</time>
      </trkpt>
      <trkpt lat="40.327690" lon="-4.816950">
        <ele>1429.475</ele>
        <time>2020-02-28T16:24:56Z</time>
      </trkpt>
      <trkpt lat="40.327640" lon="-4.817060">
        <ele>1428.128</ele>
        <time>2020-02-28T16:25:16Z</time>
      </trkpt>
      <trkpt lat="40.327630" lon="-4.817110">
        <ele>1427.620</ele>
        <time>2020-02-28T16:25:36Z</time>
      </trkpt>
      <trkpt lat="40.327630" lon="-4.817290">
        <ele>1428.708</ele>
        <time>2020-02-28T16:25:56Z</time>
      </trkpt>
      <trkpt lat="40.327620" lon="-4.817410">
        <ele>1431.241</ele>
        <time>2020-02-28T16:26:16Z</time>
      </trkpt>
      <trkpt lat="40.327590" lon="-4.817500">
        <ele>1431.944</ele>
        <time>2020-02-28T16:26:36Z</time>
      </trkpt>
      <trkpt lat="40.327460" lon="-4.817760">
        <ele>1429.799</ele>
        <time>2020-02-28T16:26:56Z</time>
      </trkpt>
      <trkpt lat="40.327450" lon="-4.817770">
        <ele>1429.340</ele>
        <time>2020-02-28T16:27:16Z</time>
      </trkpt>
      <trkpt lat="40.327390" lon="-4.817880">
        <ele>1428.872</ele>
        <time>2020-02-28T16:27:36Z</time>
      </trkpt>
      <trkpt lat="40.327320" lon="-4.817980">
        <ele>1427.820</ele>
        <time>2020-02-28T16:27:56Z</time>
      </trkpt>
      <trkpt lat="40.327180" lon="-4.818250">
        <ele>1426.193</ele>
        <time>2020-02-28T16:28:16Z</time>
      </trkpt>
      <trkpt lat="40.327150" lon="-4.818360">
        <ele>1425.628</ele>
        <time>2020-02-28T16:28:36Z</time>
      </trkpt>
      <trkpt lat="40.327140" lon="-4.818470">
        <ele>1425.176</ele>
        <time>2020-02-28T16:28:56Z</time>
      </trkpt>
      <trkpt lat="40.327160" lon="-4.818720">
        <ele>1426.790</ele>
        <time>2020-02-28T16:29:16Z</time>
      </trkpt>
      <trkpt lat="40.327140" lon="-4.818910">
        <ele>1427.219</ele>
        <time>2020-02-28T16:29:36Z</time>
      </trkpt>
      <trkpt lat="40.327110" lon="-4.819020">
        <ele>1428.908</ele>
        <time>2020-02-28T16:29:56Z</time>
      </trkpt>
      <trkpt lat="40.327090" lon="-4.819070">
        <ele>1429.631</ele>
        <time>2020-02-28T16:30:16Z</time>
      </trkpt>
      <trkpt lat="40.327050" lon="-4.819140">
        <ele>1430.554</ele>
        <time>2020-02-28T16:30:36Z</time>
      </trkpt>
      <trkpt lat="40.326990" lon="-4.819190">
        <ele>1431.029</ele>
        <time>2020-02-28T16:30:56Z</time>
      </trkpt>
      <trkpt lat="40.326940" lon="-4.819200">
        <ele>1430.460</ele>
        <time>2020-02-28T16:31:16Z</time>
      </trkpt>
      <trkpt lat="40.326640" lon="-4.819150">
        <ele>1427.972</ele>
        <time>2020-02-28T16:31:36Z</time>
      </trkpt>
      <trkpt lat="40.326470" lon="-4.819140">
        <ele>1426.110</ele>
        <time>2020-02-28T16:31:56Z</time>
      </trkpt>
      <trkpt lat="40.326270" lon="-4.819160">
        <ele>1423.753</ele>
        <time>2020-02-28T16:32:16Z</time>
      </trkpt>
      <trkpt lat="40.325990" lon="-4.819330">
        <ele>1422.538</ele>
        <time>2020-02-28T16:32:36Z</time>
      </trkpt>
      <trkpt lat="40.325820" lon="-4.819500">
        <ele>1421.361</ele>
        <time>2020-02-28T16:32:56Z</time>
      </trkpt>
      <trkpt lat="40.325710" lon="-4.819630">
        <ele>1419.421</ele>
        <time>2020-02-28T16:33:16Z</time>
      </trkpt>
      <trkpt lat="40.325470" lon="-4.820000">
        <ele>1416.013</ele>
        <time>2020-02-28T16:33:36Z</time>
      </trkpt>
      <trkpt lat="40.325340" lon="-4.820240">
        <ele>1416.708</ele>
        <time>2020-02-28T16:33:56Z</time>
      </trkpt>
      <trkpt lat="40.325340" lon="-4.820250">
        <ele>1417.070</ele>
        <time>2020-02-28T16:34:16Z</time>
      </trkpt>
      <trkpt lat="40.324880" lon="-4.821280">
        <ele>1412.633</ele>
        <time>2020-02-28T16:34:36Z</time>
      </trkpt>
      <trkpt lat="40.324730" lon="-4.821690">
        <ele>1408.428</ele>
        <time>2020-02-28T16:34:56Z</time>
      </trkpt>
      <trkpt lat="40.324700" lon="-4.821830">
        <ele>1405.749</ele>
        <time>2020-02-28T16:35:16Z</time>
      </trkpt>
      <trkpt lat="40.324680" lon="-4.821980">
        <ele>1403.681</ele>
        <time>2020-02-28T16:35:36Z</time>
      </trkpt>
      <trkpt lat="40.324680" lon="-4.822140">
        <ele>1402.539</ele>
        <time>2020-02-28T16:35:56Z</time>
      </trkpt>
      <trkpt lat="40.324710" lon="-4.822400">
        <ele>1400.972</ele>
        <time>2020-02-28T16:36:16Z</time>
      </trkpt>
      <trkpt lat="40.324900" lon="-4.823010">
        <ele>1399.597</ele>
        <time>2020-02-28T16:36:36Z</time>
      </trkpt>
      <trkpt lat="40.324900" lon="-4.823170">
        <ele>1400.711</ele>
        <time>2020-02-28T16:36:56Z</time>
      </trkpt>
      <trkpt lat="40.324870" lon="-4.823320">
        <ele>1400.521</ele>
        <time>2020-02-28T16:37:16Z</time>
      </trkpt>
      <trkpt lat="40.324680" lon="-4.823770">
        <ele>1390.703</ele>
        <time>2020-02-28T16:37:36Z</time>
      </trkpt>
      <trkpt lat="40.324620" lon="-4.824010">
        <ele>1388.808</ele>
        <time>2020-02-28T16:37:56Z</time>
      </trkpt>
      <trkpt lat="40.324620" lon="-4.824230">
        <ele>1390.545</ele>
        <time>2020-02-28T16:38:16Z</time>
      </trkpt>
      <trkpt lat="40.324610" lon="-4.824340">
        <ele>1391.118</ele>
        <time>2020-02-28T16:38:36Z</time>
      </trkpt>
      <trkpt lat="40.324590" lon="-4.824440">
        <ele>1391.363</ele>
        <time>2020-02-28T16:38:56Z</time>
      </trkpt>
      <trkpt lat="40.324550" lon="-4.824570">
        <ele>1391.994</ele>
        <time>2020-02-28T16:39:16Z</time>
      </trkpt>
      <trkpt lat="40.324530" lon="-4.824590">
        <ele>1391.526</ele>
        <time>2020-02-28T16:39:36Z</time>
      </trkpt>
      <trkpt lat="40.324510" lon="-4.824630">
        <ele>1391.764</ele>
        <time>2020-02-28T16:39:56Z</time>
      </trkpt>
      <trkpt lat="40.324450" lon="-4.824720">
        <ele>1392.127</ele>
        <time>2020-02-28T16:40:16Z</time>
      </trkpt>
      <trkpt lat="40.324310" lon="-4.824800">
        <ele>1394.432</ele>
        <time>2020-02-28T16:40:36Z</time>
      </trkpt>
      <trkpt lat="40.324260" lon="-4.824790">
        <ele>1393.753</ele>
        <time>2020-02-28T16:40:56Z</time>
      </trkpt>
      <trkpt lat="40.323930" lon="-4.824770">
        <ele>1395.604</ele>
        <time>2020-02-28T16:41:16Z</time>
      </trkpt>
      <trkpt lat="40.323880" lon="-4.824750">
        <ele>1395.514</ele>
        <time>2020-02-28T16:41:36Z</time>
      </trkpt>
      <trkpt lat="40.323870" lon="-4.824750">
        <ele>1395.608</ele>
        <time>2020-02-28T16:41:56Z</time>
      </trkpt>
      <trkpt lat="40.323770" lon="-4.824710">
        <ele>1395.549</ele>
        <time>2020-02-28T16:42:16Z</time>
      </trkpt>
      <trkpt lat="40.323720" lon="-4.824670">
        <ele>1394.412</ele>
        <time>2020-02-28T16:42:36Z</time>
      </trkpt>
      <trkpt lat="40.323570" lon="-4.824510">
        <ele>1390.167</ele>
        <time>2020-02-28T16:42:56Z</time>
      </trkpt>
      <trkpt lat="40.323450" lon="-4.824340">
        <ele>1385.228</ele>
        <time>2020-02-28T16:43:16Z</time>
      </trkpt>
      <trkpt lat="40.323390" lon="-4.824270">
        <ele>1384.420</ele>
        <time>2020-02-28T16:43:36Z</time>
      </trkpt>
      <trkpt lat="40.323250" lon="-4.824070">
        <ele>1382.688</ele>
        <time>2020-02-28T16:43:56Z</time>
      </trkpt>
      <trkpt lat="40.323090" lon="-4.823870">
        <ele>1380.721</ele>
        <time>2020-02-28T16:44:16Z</time>
      </trkpt>
      <trkpt lat="40.322930" lon="-4.823730">
        <ele>1378.336</ele>
        <time>2020-02-28T16:44:36Z</time>
      </trkpt>
      <trkpt lat="40.322770" lon="-4.823670">
        <ele>1377.944</ele>
        <time>2020-02-28T16:44:56Z</time>
      </trkpt>
      <trkpt lat="40.322720" lon="-4.823670">
        <ele>1377.305</ele>
        <time>2020-02-28T16:45:16Z</time>
      </trkpt>
      <trkpt lat="40.322670" lon="-4.823680">
        <ele>1377.215</ele>
        <time>2020-02-28T16:45:36Z</time>
      </trkpt>
      <trkpt lat="40.322620" lon="-4.823680">
        <ele>1376.608</ele>
        <time>2020-02-28T16:45:56Z</time>
      </trkpt>
      <trkpt lat="40.322470" lon="-4.823750">
        <ele>1377.528</ele>
        <time>2020-02-28T16:46:16Z</time>
      </trkpt>
      <trkpt lat="40.321860" lon="-4.824220">
        <ele>1370.991</ele>
        <time>2020-02-28T16:46:36Z</time>
      </trkpt>
      <trkpt lat="40.321780" lon="-4.824310">
        <ele>1368.616</ele>
        <time>2020-02-28T16:46:56Z</time>
      </trkpt>
      <trkpt lat="40.321730" lon="-4.824400">
        <ele>1367.837</ele>
        <time>2020-02-28T16:47:16Z</time>
      </trkpt>
      <trkpt lat="40.321710" lon="-4.824510">
        <ele>1369.269</ele>
        <time>2020-02-28T16:47:36Z</time>
      </trkpt>
      <trkpt lat="40.321710" lon="-4.824760">
        <ele>1375.017</ele>
        <time>2020-02-28T16:47:56Z</time>
      </trkpt>
      <trkpt lat="40.321690" lon="-4.824810">
        <ele>1374.910</ele>
        <time>2020-02-28T16:48:16Z</time>
      </trkpt>
      <trkpt lat="40.321680" lon="-4.824870">
        <ele>1375.455</ele>
        <time>2020-02-28T16:48:36Z</time>
      </trkpt>
      <trkpt lat="40.321630" lon="-4.824960">
        <ele>1375.643</ele>
        <time>2020-02-28T16:48:56Z</time>
      </trkpt>
      <trkpt lat="40.321620" lon="-4.824970">
        <ele>1375.664</ele>
        <time>2020-02-28T16:49:16Z</time>
      </trkpt>
      <trkpt lat="40.321560" lon="-4.825010">
        <ele>1375.910</ele>
        <time>2020-02-28T16:49:36Z</time>
      </trkpt>
      <trkpt lat="40.321510" lon="-4.825030">
        <ele>1376.108</ele>
        <time>2020-02-28T16:49:56Z</time>
      </trkpt>
      <trkpt lat="40.321100" lon="-4.825060">
        <ele>1362.218</ele>
        <time>2020-02-28T16:50:16Z</time>
      </trkpt>
      <trkpt lat="40.321020" lon="-4.825100">
        <ele>1359.691</ele>
        <time>2020-02-28T16:50:36Z</time>
      </trkpt>
      <trkpt lat="40.320950" lon="-4.825180">
        <ele>1359.336</ele>
        <time>2020-02-28T16:50:56Z</time>
      </trkpt>
      <trkpt lat="40.320820" lon="-4.825480">
        <ele>1361.237</ele>
        <time>2020-02-28T16:51:16Z</time>
      </trkpt>
      <trkpt lat="40.320670" lon="-4.825880">
        <ele>1363.729</ele>
        <time>2020-02-28T16:51:36Z</time>
      </trkpt>
      <trkpt lat="40.320610" lon="-4.825980">
        <ele>1365.557</ele>
        <time>2020-02-28T16:51:56Z</time>
      </trkpt>
      <trkpt lat="40.320580" lon="-4.826010">
        <ele>1365.850</ele>
        <time>2020-02-28T16:52:16Z</time>
      </trkpt>
      <trkpt lat="40.320500" lon="-4.826070">
        <ele>1366.755</ele>
        <time>2020-02-28T16:52:36Z</time>
      </trkpt>
      <trkpt lat="40.320460" lon="-4.826080">
        <ele>1366.426</ele>
        <time>2020-02-28T16:52:56Z</time>
      </trkpt>
      <trkpt lat="40.320420" lon="-4.826080">
        <ele>1365.547</ele>
        <time>2020-02-28T16:53:16Z</time>
      </trkpt>
      <trkpt lat="40.320330" lon="-4.826060">
        <ele>1362.611</ele>
        <time>2020-02-28T16:53:36Z</time>
      </trkpt>
      <trkpt lat="40.320190" lon="-4.826010">
        <ele>1358.808</ele>
        <time>2020-02-28T16:53:56Z</time>
      </trkpt>
      <trkpt lat="40.320080" lon="-4.825990">
        <ele>1357.616</ele>
        <time>2020-02-28T16:54:16Z</time>
      </trkpt>
      <trkpt lat="40.319900" lon="-4.826000">
        <ele>1354.569</ele>
        <time>2020-02-28T16:54:36Z</time>
      </trkpt>
      <trkpt lat="40.319800" lon="-4.826060">
        <ele>1352.924</ele>
        <time>2020-02-28T16:54:56Z</time>
      </trkpt>
      <trkpt lat="40.319750" lon="-4.826120">
        <ele>1352.865</ele>
        <time>2020-02-28T16:55:16Z</time>
      </trkpt>
      <trkpt lat="40.319270" lon="-4.826830">
        <ele>1352.157</ele>
        <time>2020-02-28T16:55:36Z</time>
      </trkpt>
      <trkpt lat="40.319260" lon="-4.826840">
        <ele>1351.795</ele>
        <time>2020-02-28T16:55:56Z</time>
      </trkpt>
      <trkpt lat="40.319130" lon="-4.827060">
        <ele>1351.578</ele>
        <time>2020-02-28T16:56:16Z</time>
      </trkpt>
      <trkpt lat="40.319010" lon="-4.827210">
        <ele>1349.773</ele>
        <time>2020-02-28T16:56:36Z</time>
      </trkpt>
      <trkpt lat="40.318680" lon="-4.827570">
        <ele>1343.252</ele>
        <time>2020-02-28T16:56:56Z</time>
      </trkpt>
      <trkpt lat="40.318390" lon="-4.827960">
        <ele>1344.053</ele>
        <time>2020-02-28T16:57:16Z</time>
      </trkpt>
      <trkpt lat="40.317790" lon="-4.828630">
        <ele>1339.108</ele>
        <time>2020-02-28T16:57:36Z</time>
      </trkpt>
      <trkpt lat="40.317470" lon="-4.829030">
        <ele>1336.008</ele>
        <time>2020-02-28T16:57:56Z</time>
      </trkpt>
      <trkpt lat="40.317290" lon="-4.829190">
        <ele>1333.439</ele>
        <time>2020-02-28T16:58:16Z</time>
      </trkpt>
      <trkpt lat="40.317080" lon="-4.829350">
        <ele>1327.022</ele>
        <time>2020-02-28T16:58:36Z</time>
      </trkpt>
      <trkpt lat="40.317010" lon="-4.829430">
        <ele>1325.267</ele>
        <time>2020-02-28T16:58:56Z</time>
      </trkpt>
      <trkpt lat="40.316960" lon="-4.829520">
        <ele>1324.498</ele>
        <time>2020-02-28T16:59:16Z</time>
      </trkpt>
      <trkpt lat="40.316930" lon="-4.829600">
        <ele>1324.380</ele>
        <time>2020-02-28T16:59:36Z</time>
      </trkpt>
      <trkpt lat="40.316680" lon="-4.830620">
        <ele>1320.748</ele>
        <time>2020-02-28T16:59:56Z</time>
      </trkpt>
      <trkpt lat="40.316490" lon="-4.831730">
        <ele>1315.061</ele>
        <time>2020-02-28T17:00:16Z</time>
      </trkpt>
      <trkpt lat="40.316480" lon="-4.831910">
        <ele>1314.176</ele>
        <time>2020-02-28T17:00:36Z</time>
      </trkpt>
      <trkpt lat="40.316510" lon="-4.832140">
        <ele>1314.296</ele>
        <time>2020-02-28T17:00:56Z</time>
      </trkpt>
      <trkpt lat="40.316550" lon="-4.832230">
        <ele>1315.231</ele>
        <time>2020-02-28T17:01:16Z</time>
      </trkpt>
      <trkpt lat="40.316600" lon="-4.832380">
        <ele>1315.424</ele>
        <time>2020-02-28T17:01:36Z</time>
      </trkpt>
      <trkpt lat="40.316700" lon="-4.832610">
        <ele>1316.108</ele>
        <time>2020-02-28T17:01:56Z</time>
      </trkpt>
      <trkpt lat="40.316720" lon="-4.832640">
        <ele>1316.373</ele>
        <time>2020-02-28T17:02:16Z</time>
      </trkpt>
      <trkpt lat="40.316790" lon="-4.832800">
        <ele>1316.496</ele>
        <time>2020-02-28T17:02:36Z</time>
      </trkpt>
      <trkpt lat="40.316790" lon="-4.832810">
        <ele>1316.391</ele>
        <time>2020-02-28T17:02:56Z</time>
      </trkpt>
      <trkpt lat="40.316840" lon="-4.832930">
        <ele>1315.852</ele>
        <time>2020-02-28T17:03:16Z</time>
      </trkpt>
      <trkpt lat="40.316850" lon="-4.832990">
        <ele>1315.224</ele>
        <time>2020-02-28T17:03:36Z</time>
      </trkpt>
      <trkpt lat="40.316850" lon="-4.833110">
        <ele>1313.722</ele>
        <time>2020-02-28T17:03:56Z</time>
      </trkpt>
      <trkpt lat="40.316830" lon="-4.833140">
        <ele>1313.025</ele>
        <time>2020-02-28T17:04:16Z</time>
      </trkpt>
      <trkpt lat="40.316820" lon="-4.833170">
        <ele>1312.560</ele>
        <time>2020-02-28T17:04:36Z</time>
      </trkpt>
      <trkpt lat="40.316800" lon="-4.833180">
        <ele>1312.161</ele>
        <time>2020-02-28T17:04:56Z</time>
      </trkpt>
      <trkpt lat="40.316780" lon="-4.833200">
        <ele>1311.521</ele>
        <time>2020-02-28T17:05:16Z</time>
      </trkpt>
      <trkpt lat="40.316760" lon="-4.833200">
        <ele>1311.113</ele>
        <time>2020-02-28T17:05:36Z</time>
      </trkpt>
      <trkpt lat="40.316730" lon="-4.833210">
        <ele>1310.508</ele>
        <time>2020-02-28T17:05:56Z</time>
      </trkpt>
      <trkpt lat="40.316700" lon="-4.833210">
        <ele>1309.970</ele>
        <time>2020-02-28T17:06:16Z</time>
      </trkpt>
      <trkpt lat="40.316600" lon="-4.833180">
        <ele>1308.353</ele>
        <time>2020-02-28T17:06:36Z</time>
      </trkpt>
      <trkpt lat="40.316480" lon="-4.833090">
        <ele>1306.778</ele>
        <time>2020-02-28T17:06:56Z</time>
      </trkpt>
      <trkpt lat="40.316420" lon="-4.833000">
        <ele>1306.189</ele>
        <time>2020-02-28T17:07:16Z</time>
      </trkpt>
      <trkpt lat="40.316360" lon="-4.832820">
        <ele>1306.411</ele>
        <time>2020-02-28T17:07:36Z</time>
      </trkpt>
      <trkpt lat="40.316210" lon="-4.832050">
        <ele>1306.659</ele>
        <time>2020-02-28T17:07:56Z</time>
      </trkpt>
      <trkpt lat="40.315970" lon="-4.831140">
        <ele>1301.862</ele>
        <time>2020-02-28T17:08:16Z</time>
      </trkpt>
      <trkpt lat="40.315820" lon="-4.830760">
        <ele>1299.547</ele>
        <time>2020-02-28T17:08:36Z</time>
      </trkpt>
      <trkpt lat="40.315770" lon="-4.830660">
        <ele>1297.897</ele>
        <time>2020-02-28T17:08:56Z</time>
      </trkpt>
      <trkpt lat="40.315740" lon="-4.830620">
        <ele>1296.823</ele>
        <time>2020-02-28T17:09:16Z</time>
      </trkpt>
      <trkpt lat="40.315060" lon="-4.829410">
        <ele>1287.125</ele>
        <time>2020-02-28T17:09:36Z</time>
      </trkpt>
      <trkpt lat="40.314950" lon="-4.829240">
        <ele>1284.308</ele>
        <time>2020-02-28T17:09:56Z</time>
      </trkpt>
      <trkpt lat="40.314900" lon="-4.829100">
        <ele>1283.023</ele>
        <time>2020-02-28T17:10:16Z</time>
      </trkpt>
      <trkpt lat="40.314890" lon="-4.829090">
        <ele>1282.986</ele>
        <time>2020-02-28T17:10:36Z</time>
      </trkpt>
      <trkpt lat="40.314870" lon="-4.828980">
        <ele>1282.321</ele>
        <time>2020-02-28T17:10:56Z</time>
      </trkpt>
      <trkpt lat="40.314870" lon="-4.828930">
        <ele>1282.232</ele>
        <time>2020-02-28T17:11:16Z</time>
      </trkpt>
      <trkpt lat="40.314890" lon="-4.828830">
        <ele>1281.974</ele>
        <time>2020-02-28T17:11:36Z</time>
      </trkpt>
      <trkpt lat="40.314930" lon="-4.828760">
        <ele>1281.982</ele>
        <time>2020-02-28T17:11:56Z</time>
      </trkpt>
      <trkpt lat="40.314990" lon="-4.828700">
        <ele>1282.555</ele>
        <time>2020-02-28T17:12:16Z</time>
      </trkpt>
      <trkpt lat="40.315120" lon="-4.828640">
        <ele>1283.260</ele>
        <time>2020-02-28T17:12:36Z</time>
      </trkpt>
      <trkpt lat="40.315340" lon="-4.828580">
        <ele>1284.779</ele>
        <time>2020-02-28T17:12:56Z</time>
      </trkpt>
      <trkpt lat="40.316050" lon="-4.828530">
        <ele>1287.205</ele>
        <time>2020-02-28T17:13:16Z</time>
      </trkpt>
      <trkpt lat="40.316300" lon="-4.828490">
        <ele>1287.125</ele>
        <time>2020-02-28T17:13:36Z</time>
      </trkpt>
      <trkpt lat="40.316350" lon="-4.828470">
        <ele>1286.708</ele>
        <time>2020-02-28T17:13:56Z</time>
      </trkpt>
      <trkpt lat="40.316430" lon="-4.828400">
        <ele>1286.131</ele>
        <time>2020-02-28T17:14:16Z</time>
      </trkpt>
      <trkpt lat="40.317130" lon="-4.827450">
        <ele>1282.574</ele>
        <time>2020-02-28T17:14:36Z</time>
      </trkpt>
      <trkpt lat="40.317140" lon="-4.827410">
        <ele>1281.819</ele>
        <time>2020-02-28T17:14:56Z</time>
      </trkpt>
      <trkpt lat="40.317150" lon="-4.827400">
        <ele>1281.940</ele>
        <time>2020-02-28T17:15:16Z</time>
      </trkpt>
      <trkpt lat="40.317150" lon="-4.827380">
        <ele>1281.412</ele>
        <time>2020-02-28T17:15:36Z</time>
      </trkpt>
      <trkpt lat="40.317160" lon="-4.827340">
        <ele>1280.770</ele>
        <time>2020-02-28T17:15:56Z</time>
      </trkpt>
      <trkpt lat="40.317160" lon="-4.827300">
        <ele>1279.643</ele>
        <time>2020-02-28T17:16:16Z</time>
      </trkpt>
      <trkpt lat="40.317140" lon="-4.827240">
        <ele>1277.778</ele>
        <time>2020-02-28T17:16:36Z</time>
      </trkpt>
      <trkpt lat="40.317100" lon="-4.827200">
        <ele>1276.241</ele>
        <time>2020-02-28T17:16:56Z</time>
      </trkpt>
      <trkpt lat="40.317040" lon="-4.827180">
        <ele>1274.781</ele>
        <time>2020-02-28T17:17:16Z</time>
      </trkpt>
      <trkpt lat="40.317010" lon="-4.827190">
        <ele>1274.109</ele>
        <time>2020-02-28T17:17:36Z</time>
      </trkpt>
      <trkpt lat="40.316980" lon="-4.827210">
        <ele>1273.608</ele>
        <time>2020-02-28T17:17:56Z</time>
      </trkpt>
      <trkpt lat="40.316950" lon="-4.827240">
        <ele>1273.448</ele>
        <time>2020-02-28T17:18:16Z</time>
      </trkpt>
      <trkpt lat="40.316930" lon="-4.827250">
        <ele>1273.091</ele>
        <time>2020-02-28T17:18:36Z</time>
      </trkpt>
      <trkpt lat="40.316920" lon="-4.827280">
        <ele>1273.176</ele>
        <time>2020-02-28T17:18:56Z</time>
      </trkpt>
      <trkpt lat="40.316520" lon="-4.827900">
        <ele>1274.967</ele>
        <time>2020-02-28T17:19:16Z</time>
      </trkpt>
      <trkpt lat="40.316430" lon="-4.828020">
        <ele>1275.319</ele>
        <time>2020-02-28T17:19:36Z</time>
      </trkpt>
      <trkpt lat="40.316380" lon="-4.828050">
        <ele>1274.747</ele>
        <time>2020-02-28T17:19:56Z</time>
      </trkpt>
      <trkpt lat="40.316360" lon="-4.828080">
        <ele>1275.240</ele>
        <time>2020-02-28T17:20:16Z</time>
      </trkpt>
      <trkpt lat="40.316270" lon="-4.828110">
        <ele>1274.765</ele>
        <time>2020-02-28T17:20:36Z</time>
      </trkpt>
      <trkpt lat="40.316190" lon="-4.828110">
        <ele>1273.419</ele>
        <time>2020-02-28T17:20:56Z</time>
      </trkpt>
      <trkpt lat="40.315860" lon="-4.828050">
        <ele>1269.809</ele>
        <time>2020-02-28T17:21:16Z</time>
      </trkpt>
      <trkpt lat="40.315650" lon="-4.827990">
        <ele>1268.119</ele>
        <time>2020-02-28T17:21:36Z</time>
      </trkpt>
      <trkpt lat="40.315310" lon="-4.827920">
        <ele>1265.208</ele>
        <time>2020-02-28T17:21:56Z</time>
      </trkpt>
      <trkpt lat="40.315190" lon="-4.827920">
        <ele>1264.215</ele>
        <time>2020-02-28T17:22:16Z</time>
      </trkpt>
      <trkpt lat="40.314880" lon="-4.828020">
        <ele>1263.418</ele>
        <time>2020-02-28T17:22:36Z</time>
      </trkpt>
      <trkpt lat="40.314810" lon="-4.828050">
        <ele>1263.093</ele>
        <time>2020-02-28T17:22:56Z</time>
      </trkpt>
      <trkpt lat="40.314640" lon="-4.828100">
        <ele>1258.994</ele>
        <time>2020-02-28T17:23:16Z</time>
      </trkpt>
      <trkpt lat="40.314520" lon="-4.828170">
        <ele>1256.086</ele>
        <time>2020-02-28T17:23:36Z</time>
      </trkpt>
      <trkpt lat="40.314470" lon="-4.828210">
        <ele>1255.174</ele>
        <time>2020-02-28T17:23:56Z</time>
      </trkpt>
      <trkpt lat="40.314380" lon="-4.828300">
        <ele>1254.217</ele>
        <time>2020-02-28T17:24:16Z</time>
      </trkpt>
      <trkpt lat="40.313890" lon="-4.828920">
        <ele>1248.572</ele>
        <time>2020-02-28T17:24:36Z</time>
      </trkpt>
      <trkpt lat="40.313820" lon="-4.829030">
        <ele>1246.357</ele>
        <time>2020-02-28T17:24:56Z</time>
      </trkpt>
      <trkpt lat="40.313790" lon="-4.829090">
        <ele>1245.600</ele>
        <time>2020-02-28T17:25:16Z</time>
      </trkpt>
      <trkpt lat="40.313750" lon="-4.829220">
        <ele>1244.520</ele>
        <time>2020-02-28T17:25:36Z</time>
      </trkpt>
      <trkpt lat="40.313750" lon="-4.829350">
        <ele>1244.508</ele>
        <time>2020-02-28T17:25:56Z</time>
      </trkpt>
      <trkpt lat="40.313740" lon="-4.829360">
        <ele>1244.059</ele>
        <time>2020-02-28T17:26:16Z</time>
      </trkpt>
      <trkpt lat="40.313750" lon="-4.829430">
        <ele>1244.552</ele>
        <time>2020-02-28T17:26:36Z</time>
      </trkpt>
      <trkpt lat="40.313750" lon="-4.829900">
        <ele>1244.067</ele>
        <time>2020-02-28T17:26:56Z</time>
      </trkpt>
      <trkpt lat="40.313740" lon="-4.830060">
        <ele>1243.778</ele>
        <time>2020-02-28T17:27:16Z</time>
      </trkpt>
      <trkpt lat="40.313720" lon="-4.830190">
        <ele>1243.390</ele>
        <time>2020-02-28T17:27:36Z</time>
      </trkpt>
      <trkpt lat="40.313680" lon="-4.830320">
        <ele>1242.248</ele>
        <time>2020-02-28T17:27:56Z</time>
      </trkpt>
      <trkpt lat="40.313480" lon="-4.830610">
        <ele>1237.321</ele>
        <time>2020-02-28T17:28:16Z</time>
      </trkpt>
      <trkpt lat="40.313390" lon="-4.830820">
        <ele>1237.316</ele>
        <time>2020-02-28T17:28:36Z</time>
      </trkpt>
      <trkpt lat="40.313330" lon="-4.831050">
        <ele>1234.345</ele>
        <time>2020-02-28T17:28:56Z</time>
      </trkpt>
      <trkpt lat="40.313320" lon="-4.831130">
        <ele>1233.447</ele>
        <time>2020-02-28T17:29:16Z</time>
      </trkpt>
      <trkpt lat="40.313320" lon="-4.831370">
        <ele>1231.711</ele>
        <time>2020-02-28T17:29:36Z</time>
      </trkpt>
      <trkpt lat="40.313330" lon="-4.831450">
        <ele>1231.408</ele>
        <time>2020-02-28T17:29:56Z</time>
      </trkpt>
      <trkpt lat="40.313480" lon="-4.832040">
        <ele>1231.578</ele>
        <time>2020-02-28T17:30:16Z</time>
      </trkpt>
      <trkpt lat="40.313500" lon="-4.832220">
        <ele>1230.861</ele>
        <time>2020-02-28T17:30:36Z</time>
      </trkpt>
      <trkpt lat="40.313490" lon="-4.832790">
        <ele>1227.646</ele>
        <time>2020-02-28T17:30:56Z</time>
      </trkpt>
      <trkpt lat="40.313500" lon="-4.832890">
        <ele>1226.957</ele>
        <time>2020-02-28T17:31:16Z</time>
      </trkpt>
      <trkpt lat="40.313500" lon="-4.832990">
        <ele>1225.879</ele>
        <time>2020-02-28T17:31:36Z</time>
      </trkpt>
      <trkpt lat="40.313570" lon="-4.833480">
        <ele>1224.127</ele>
        <time>2020-02-28T17:31:56Z</time>
      </trkpt>
      <trkpt lat="40.313610" lon="-4.833620">
        <ele>1222.780</ele>
        <time>2020-02-28T17:32:16Z</time>
      </trkpt>
      <trkpt lat="40.313680" lon="-4.833770">
        <ele>1220.425</ele>
        <time>2020-02-28T17:32:36Z</time>
      </trkpt>
      <trkpt lat="40.313770" lon="-4.833890">
        <ele>1220.217</ele>
        <time>2020-02-28T17:32:56Z</time>
      </trkpt>
      <trkpt lat="40.313830" lon="-4.833950">
        <ele>1220.487</ele>
        <time>2020-02-28T17:33:16Z</time>
      </trkpt>
      <trkpt lat="40.313840" lon="-4.833970">
        <ele>1220.015</ele>
        <time>2020-02-28T17:33:36Z</time>
      </trkpt>
      <trkpt lat="40.313890" lon="-4.834000">
        <ele>1221.008</ele>
        <time>2020-02-28T17:33:56Z</time>
      </trkpt>
      <trkpt lat="40.313990" lon="-4.834110">
        <ele>1219.955</ele>
        <time>2020-02-28T17:34:16Z</time>
      </trkpt>
      <trkpt lat="40.313990" lon="-4.834120">
        <ele>1219.518</ele>
        <time>2020-02-28T17:34:36Z</time>
      </trkpt>
      <trkpt lat="40.314230" lon="-4.834370">
        <ele>1219.943</ele>
        <time>2020-02-28T17:34:56Z</time>
      </trkpt>
      <trkpt lat="40.314410" lon="-4.834650">
        <ele>1219.194</ele>
        <time>2020-02-28T17:35:16Z</time>
      </trkpt>
      <trkpt lat="40.314560" lon="-4.835070">
        <ele>1214.916</ele>
        <time>2020-02-28T17:35:36Z</time>
      </trkpt>
      <trkpt lat="40.314580" lon="-4.835160">
        <ele>1214.274</ele>
        <time>2020-02-28T17:35:56Z</time>
      </trkpt>
      <trkpt lat="40.314640" lon="-4.835350">
        <ele>1213.587</ele>
        <time>2020-02-28T17:36:16Z</time>
      </trkpt>
      <trkpt lat="40.314660" lon="-4.835440">
        <ele>1212.822</ele>
        <time>2020-02-28T17:36:36Z</time>
      </trkpt>
      <trkpt lat="40.314670" lon="-4.835460">
        <ele>1213.026</ele>
        <time>2020-02-28T17:36:56Z</time>
      </trkpt>
      <trkpt lat="40.314740" lon="-4.835710">
        <ele>1212.647</ele>
        <time>2020-02-28T17:37:16Z</time>
      </trkpt>
      <trkpt lat="40.314860" lon="-4.835990">
        <ele>1212.111</ele>
        <time>2020-02-28T17:37:36Z</time>
      </trkpt>
      <trkpt lat="40.314930" lon="-4.836100">
        <ele>1212.208</ele>
        <time>2020-02-28T17:37:56Z</time>
      </trkpt>
      <trkpt lat="40.314970" lon="-4.836150">
        <ele>1212.316</ele>
        <time>2020-02-28T17:38:16Z</time>
      </trkpt>
      <trkpt lat="40.315110" lon="-4.836260">
        <ele>1213.359</ele>
        <time>2020-02-28T17:38:36Z</time>
      </trkpt>
      <trkpt lat="40.315220" lon="-4.836320">
        <ele>1214.024</ele>
        <time>2020-02-28T17:38:56Z</time>
      </trkpt>
      <trkpt lat="40.315220" lon="-4.836330">
        <ele>1213.745</ele>
        <time>2020-02-28T17:39:16Z</time>
      </trkpt>
      <trkpt lat="40.315260" lon="-4.836370">
        <ele>1213.337</ele>
        <time>2020-02-28T17:39:36Z</time>
      </trkpt>
      <trkpt lat="40.315260" lon="-4.836380">
        <ele>1213.035</ele>
        <time>2020-02-28T17:39:56Z</time>
      </trkpt>
      <trkpt lat="40.315280" lon="-4.836430">
        <ele>1212.638</ele>
        <time>2020-02-28T17:40:16Z</time>
      </trkpt>
      <trkpt lat="40.315280" lon="-4.836480">
        <ele>1212.193</ele>
        <time>2020-02-28T17:40:36Z</time>
      </trkpt>
      <trkpt lat="40.315290" lon="-4.836520">
        <ele>1211.856</ele>
        <time>2020-02-28T17:40:56Z</time>
      </trkpt>
      <trkpt lat="40.315270" lon="-4.836990">
        <ele>1212.159</ele>
        <time>2020-02-28T17:41:16Z</time>
      </trkpt>
      <trkpt lat="40.315260" lon="-4.837050">
        <ele>1212.314</ele>
        <time>2020-02-28T17:41:36Z</time>
      </trkpt>
      <trkpt lat="40.315260" lon="-4.837220">
        <ele>1213.508</ele>
        <time>2020-02-28T17:41:56Z</time>
      </trkpt>
      <trkpt lat="40.315230" lon="-4.837470">
        <ele>1214.799</ele>
        <time>2020-02-28T17:42:16Z</time>
      </trkpt>
      <trkpt lat="40.315150" lon="-4.837640">
        <ele>1214.722</ele>
        <time>2020-02-28T17:42:36Z</time>
      </trkpt>
      <trkpt lat="40.315100" lon="-4.837690">
        <ele>1214.427</ele>
        <time>2020-02-28T17:42:56Z</time>
      </trkpt>
      <trkpt lat="40.315070" lon="-4.837710">
        <ele>1214.238</ele>
        <time>2020-02-28T17:43:16Z</time>
      </trkpt>
      <trkpt lat="40.315050" lon="-4.837730">
        <ele>1214.110</ele>
        <time>2020-02-28T17:43:36Z</time>
      </trkpt>
      <trkpt lat="40.314970" lon="-4.837770">
        <ele>1215.168</ele>
        <time>2020-02-28T17:43:56Z</time>
      </trkpt>
      <trkpt lat="40.314900" lon="-4.837770">
        <ele>1217.851</ele>
        <time>2020-02-28T17:44:16Z</time>
      </trkpt>
      <trkpt lat="40.314880" lon="-4.837760">
        <ele>1218.386</ele>
        <time>2020-02-28T17:44:36Z</time>
      </trkpt>
      <trkpt lat="40.314810" lon="-4.837680">
        <ele>1218.765</ele>
        <time>2020-02-28T17:44:56Z</time>
      </trkpt>
      <trkpt lat="40.314800" lon="-4.837650">
        <ele>1218.168</ele>
        <time>2020-02-28T17:45:16Z</time>
      </trkpt>
      <trkpt lat="40.314540" lon="-4.837220">
        <ele>1210.914</ele>
        <time>2020-02-28T17:45:36Z</time>
      </trkpt>
      <trkpt lat="40.314520" lon="-4.837170">
        <ele>1210.308</ele>
        <time>2020-02-28T17:45:56Z</time>
      </trkpt>
      <trkpt lat="40.314420" lon="-4.837040">
        <ele>1210.310</ele>
        <time>2020-02-28T17:46:16Z</time>
      </trkpt>
      <trkpt lat="40.313830" lon="-4.836510">
        <ele>1208.773</ele>
        <time>2020-02-28T17:46:36Z</time>
      </trkpt>
      <trkpt lat="40.313670" lon="-4.836410">
        <ele>1208.318</ele>
        <time>2020-02-28T17:46:56Z</time>
      </trkpt>
      <trkpt lat="40.313650" lon="-4.836390">
        <ele>1207.999</ele>
        <time>2020-02-28T17:47:16Z</time>
      </trkpt>
      <trkpt lat="40.313510" lon="-4.836320">
        <ele>1206.061</ele>
        <time>2020-02-28T17:47:36Z</time>
      </trkpt>
      <trkpt lat="40.313440" lon="-4.836270">
        <ele>1203.749</ele>
        <time>2020-02-28T17:47:56Z</time>
      </trkpt>
      <trkpt lat="40.313250" lon="-4.836190">
        <ele>1199.632</ele>
        <time>2020-02-28T17:48:16Z</time>
      </trkpt>
      <trkpt lat="40.313200" lon="-4.836180">
        <ele>1198.957</ele>
        <time>2020-02-28T17:48:36Z</time>
      </trkpt>
      <trkpt lat="40.313160" lon="-4.836180">
        <ele>1198.788</ele>
        <time>2020-02-28T17:48:56Z</time>
      </trkpt>
      <trkpt lat="40.313040" lon="-4.836230">
        <ele>1201.424</ele>
        <time>2020-02-28T17:49:16Z</time>
      </trkpt>
      <trkpt lat="40.312920" lon="-4.836310">
        <ele>1204.426</ele>
        <time>2020-02-28T17:49:36Z</time>
      </trkpt>
      <trkpt lat="40.312870" lon="-4.836330">
        <ele>1204.908</ele>
        <time>2020-02-28T17:49:56Z</time>
      </trkpt>
      <trkpt lat="40.312820" lon="-4.836340">
        <ele>1204.882</ele>
        <time>2020-02-28T17:50:16Z</time>
      </trkpt>
      <trkpt lat="40.312770" lon="-4.836360">
        <ele>1205.785</ele>
        <time>2020-02-28T17:50:36Z</time>
      </trkpt>
      <trkpt lat="40.312710" lon="-4.836370">
        <ele>1206.260</ele>
        <time>2020-02-28T17:50:56Z</time>
      </trkpt>
      <trkpt lat="40.312040" lon="-4.836350">
        <ele>1203.181</ele>
        <time>2020-02-28T17:51:16Z</time>
      </trkpt>
      <trkpt lat="40.311770" lon="-4.836300">
        <ele>1202.093</ele>
        <time>2020-02-28T17:51:36Z</time>
      </trkpt>
      <trkpt lat="40.311640" lon="-4.836260">
        <ele>1201.421</ele>
        <time>2020-02-28T17:51:56Z</time>
      </trkpt>
      <trkpt lat="40.311520" lon="-4.836210">
        <ele>1200.834</ele>
        <time>2020-02-28T17:52:16Z</time>
      </trkpt>
      <trkpt lat="40.311310" lon="-4.836090">
        <ele>1198.769</ele>
        <time>2020-02-28T17:52:36Z</time>
      </trkpt>
      <trkpt lat="40.311060" lon="-4.835860">
        <ele>1195.016</ele>
        <time>2020-02-28T17:52:56Z</time>
      </trkpt>
      <trkpt lat="40.310740" lon="-4.835530">
        <ele>1191.076</ele>
        <time>2020-02-28T17:53:16Z</time>
      </trkpt>
      <trkpt lat="40.310580" lon="-4.835330">
        <ele>1188.313</ele>
        <time>2020-02-28T17:53:36Z</time>
      </trkpt>
      <trkpt lat="40.310340" lon="-4.835110">
        <ele>1185.908</ele>
        <time>2020-02-28T17:53:56Z</time>
      </trkpt>
      <trkpt lat="40.310220" lon="-4.835020">
        <ele>1184.835</ele>
        <time>2020-02-28T17:54:16Z</time>
      </trkpt>
      <trkpt lat="40.309960" lon="-4.834890">
        <ele>1183.888</ele>
        <time>2020-02-28T17:54:36Z</time>
      </trkpt>
      <trkpt lat="40.309820" lon="-4.834840">
        <ele>1182.493</ele>
        <time>2020-02-28T17:54:56Z</time>
      </trkpt>
      <trkpt lat="40.309640" lon="-4.834810">
        <ele>1180.614</ele>
        <time>2020-02-28T17:55:16Z</time>
      </trkpt>
      <trkpt lat="40.309530" lon="-4.834820">
        <ele>1179.246</ele>
        <time>2020-02-28T17:55:36Z</time>
      </trkpt>
      <trkpt lat="40.309340" lon="-4.834900">
        <ele>1176.794</ele>
        <time>2020-02-28T17:55:56Z</time>
      </trkpt>
      <trkpt lat="40.309290" lon="-4.834930">
        <ele>1175.627</ele>
        <time>2020-02-28T17:56:16Z</time>
      </trkpt>
      <trkpt lat="40.309270" lon="-4.834960">
        <ele>1175.452</ele>
        <time>2020-02-28T17:56:36Z</time>
      </trkpt>
      <trkpt lat="40.309220" lon="-4.835000">
        <ele>1174.123</ele>
        <time>2020-02-28T17:56:56Z</time>
      </trkpt>
      <trkpt lat="40.309190" lon="-4.835040">
        <ele>1173.583</ele>
        <time>2020-02-28T17:57:16Z</time>
      </trkpt>
      <trkpt lat="40.309120" lon="-4.835160">
        <ele>1171.511</ele>
        <time>2020-02-28T17:57:36Z</time>
      </trkpt>
      <trkpt lat="40.309070" lon="-4.835290">
        <ele>1169.408</ele>
        <time>2020-02-28T17:57:56Z</time>
      </trkpt>
      <trkpt lat="40.309000" lon="-4.835670">
        <ele>1163.786</ele>
        <time>2020-02-28T17:58:16Z</time>
      </trkpt>
      <trkpt lat="40.308960" lon="-4.836300">
        <ele>1158.799</ele>
        <time>2020-02-28T17:58:36Z</time>
      </trkpt>
      <trkpt lat="40.308960" lon="-4.836590">
        <ele>1158.234</ele>
        <time>2020-02-28T17:58:56Z</time>
      </trkpt>
      <trkpt lat="40.309020" lon="-4.837610">
        <ele>1158.065</ele>
        <time>2020-02-28T17:59:16Z</time>
      </trkpt>
      <trkpt lat="40.309010" lon="-4.837820">
        <ele>1156.577</ele>
        <time>2020-02-28T17:59:36Z</time>
      </trkpt>
      <trkpt lat="40.308980" lon="-4.838010">
        <ele>1154.455</ele>
        <time>2020-02-28T17:59:56Z</time>
      </trkpt>
      <trkpt lat="40.308980" lon="-4.838100">
        <ele>1154.218</ele>
        <time>2020-02-28T18:00:16Z</time>
      </trkpt>
      <trkpt lat="40.308970" lon="-4.838190">
        <ele>1153.553</ele>
        <time>2020-02-28T18:00:36Z</time>
      </trkpt>
      <trkpt lat="40.309010" lon="-4.838520">
        <ele>1153.099</ele>
        <time>2020-02-28T18:00:56Z</time>
      </trkpt>
      <trkpt lat="40.309120" lon="-4.838920">
        <ele>1154.607</ele>
        <time>2020-02-28T18:01:16Z</time>
      </trkpt>
      <trkpt lat="40.309130" lon="-4.838980">
        <ele>1154.527</ele>
        <time>2020-02-28T18:01:36Z</time>
      </trkpt>
      <trkpt lat="40.309130" lon="-4.839050">
        <ele>1153.708</ele>
        <time>2020-02-28T18:01:56Z</time>
      </trkpt>
      <trkpt lat="40.309160" lon="-4.839340">
        <ele>1153.243</ele>
        <time>2020-02-28T18:02:16Z</time>
      </trkpt>
      <trkpt lat="40.309170" lon="-4.839640">
        <ele>1151.846</ele>
        <time>2020-02-28T18:02:36Z</time>
      </trkpt>
      <trkpt lat="40.309140" lon="-4.839930">
        <ele>1146.471</ele>
        <time>2020-02-28T18:02:56Z</time>
      </trkpt>
      <trkpt lat="40.309140" lon="-4.840020">
        <ele>1145.312</ele>
        <time>2020-02-28T18:03:16Z</time>
      </trkpt>
      <trkpt lat="40.309130" lon="-4.840110">
        <ele>1142.994</ele>
        <time>2020-02-28T18:03:36Z</time>
      </trkpt>
      <trkpt lat="40.309150" lon="-4.840290">
        <ele>1141.512</ele>
        <time>2020-02-28T18:03:56Z</time>
      </trkpt>
      <trkpt lat="40.309200" lon="-4.840540">
        <ele>1141.825</ele>
        <time>2020-02-28T18:04:16Z</time>
      </trkpt>
      <trkpt lat="40.309220" lon="-4.840710">
        <ele>1143.190</ele>
        <time>2020-02-28T18:04:36Z</time>
      </trkpt>
      <trkpt lat="40.309220" lon="-4.840880">
        <ele>1143.255</ele>
        <time>2020-02-28T18:04:56Z</time>
      </trkpt>
      <trkpt lat="40.309210" lon="-4.840990">
        <ele>1142.807</ele>
        <time>2020-02-28T18:05:16Z</time>
      </trkpt>
      <trkpt lat="40.309120" lon="-4.841420">
        <ele>1135.917</ele>
        <time>2020-02-28T18:05:36Z</time>
      </trkpt>
      <trkpt lat="40.309110" lon="-4.841510">
        <ele>1134.908</ele>
        <time>2020-02-28T18:05:56Z</time>
      </trkpt>
      <trkpt lat="40.309120" lon="-4.841850">
        <ele>1136.639</ele>
        <time>2020-02-28T18:06:16Z</time>
      </trkpt>
      <trkpt lat="40.309180" lon="-4.842260">
        <ele>1137.132</ele>
        <time>2020-02-28T18:06:36Z</time>
      </trkpt>
      <trkpt lat="40.309220" lon="-4.842690">
        <ele>1132.267</ele>
        <time>2020-02-28T18:06:56Z</time>
      </trkpt>
      <trkpt lat="40.309310" lon="-4.843190">
        <ele>1137.928</ele>
        <time>2020-02-28T18:07:16Z</time>
      </trkpt>
      <trkpt lat="40.309340" lon="-4.843280">
        <ele>1139.860</ele>
        <time>2020-02-28T18:07:36Z</time>
      </trkpt>
      <trkpt lat="40.309390" lon="-4.843500">
        <ele>1143.998</ele>
        <time>2020-02-28T18:07:56Z</time>
      </trkpt>
      <trkpt lat="40.309390" lon="-4.843530">
        <ele>1144.161</ele>
        <time>2020-02-28T18:08:16Z</time>
      </trkpt>
      <trkpt lat="40.309400" lon="-4.843550">
        <ele>1144.836</ele>
        <time>2020-02-28T18:08:36Z</time>
      </trkpt>
      <trkpt lat="40.309400" lon="-4.843640">
        <ele>1145.128</ele>
        <time>2020-02-28T18:08:56Z</time>
      </trkpt>
      <trkpt lat="40.309380" lon="-4.843700">
        <ele>1143.889</ele>
        <time>2020-02-28T18:09:16Z</time>
      </trkpt>
      <trkpt lat="40.309360" lon="-4.843720">
        <ele>1142.617</ele>
        <time>2020-02-28T18:09:36Z</time>
      </trkpt>
      <trkpt lat="40.309350" lon="-4.843740">
        <ele>1142.008</ele>
        <time>2020-02-28T18:09:56Z</time>
      </trkpt>
      <trkpt lat="40.309340" lon="-4.843740">
        <ele>1141.566</ele>
        <time>2020-02-28T18:10:16Z</time>
      </trkpt>
      <trkpt lat="40.309320" lon="-4.843750">
        <ele>1140.339</ele>
        <time>2020-02-28T18:10:36Z</time>
      </trkpt>
      <trkpt lat="40.309290" lon="-4.843750">
        <ele>1138.614</ele>
        <time>2020-02-28T18:10:56Z</time>
      </trkpt>
      <trkpt lat="40.309240" lon="-4.843720">
        <ele>1135.515</ele>
        <time>2020-02-28T18:11:16Z</time>
      </trkpt>
      <trkpt lat="40.309190" lon="-4.843650">
        <ele>1131.987</ele>
        <time>2020-02-28T18:11:36Z</time>
      </trkpt>
      <trkpt lat="40.309170" lon="-4.843540">
        <ele>1129.545</ele>
        <time>2020-02-28T18:11:56Z</time>
      </trkpt>
      <trkpt lat="40.309170" lon="-4.843470">
        <ele>1128.798</ele>
        <time>2020-02-28T18:12:16Z</time>
      </trkpt>
      <trkpt lat="40.309160" lon="-4.843400">
        <ele>1127.393</ele>
        <time>2020-02-28T18:12:36Z</time>
      </trkpt>
      <trkpt lat="40.309170" lon="-4.843330">
        <ele>1127.217</ele>
        <time>2020-02-28T18:12:56Z</time>
      </trkpt>
      <trkpt lat="40.309170" lon="-4.843040">
        <ele>1126.387</ele>
        <time>2020-02-28T18:13:16Z</time>
      </trkpt>
      <trkpt lat="40.309150" lon="-4.842900">
        <ele>1125.015</ele>
        <time>2020-02-28T18:13:36Z</time>
      </trkpt>
      <trkpt lat="40.309010" lon="-4.842420">
        <ele>1119.808</ele>
        <time>2020-02-28T18:13:56Z</time>
      </trkpt>
      <trkpt lat="40.308980" lon="-4.842240">
        <ele>1119.335</ele>
        <time>2020-02-28T18:14:16Z</time>
      </trkpt>
      <trkpt lat="40.308930" lon="-4.842040">
        <ele>1116.568</ele>
        <time>2020-02-28T18:14:36Z</time>
      </trkpt>
      <trkpt lat="40.308890" lon="-4.841660">
        <ele>1114.253</ele>
        <time>2020-02-28T18:14:56Z</time>
      </trkpt>
      <trkpt lat="40.308870" lon="-4.841560">
        <ele>1113.994</ele>
        <time>2020-02-28T18:15:16Z</time>
      </trkpt>
      <trkpt lat="40.308840" lon="-4.840870">
        <ele>1113.946</ele>
        <time>2020-02-28T18:15:36Z</time>
      </trkpt>
      <trkpt lat="40.308820" lon="-4.840790">
        <ele>1113.784</ele>
        <time>2020-02-28T18:15:56Z</time>
      </trkpt>
      <trkpt lat="40.308810" lon="-4.840710">
        <ele>1114.067</ele>
        <time>2020-02-28T18:16:16Z</time>
      </trkpt>
      <trkpt lat="40.308780" lon="-4.840630">
        <ele>1113.352</ele>
        <time>2020-02-28T18:16:36Z</time>
      </trkpt>
      <trkpt lat="40.308730" lon="-4.840440">
        <ele>1112.448</ele>
        <time>2020-02-28T18:16:56Z</time>
      </trkpt>
      <trkpt lat="40.308720" lon="-4.840430">
        <ele>1112.061</ele>
        <time>2020-02-28T18:17:16Z</time>
      </trkpt>
      <trkpt lat="40.308700" lon="-4.840360">
        <ele>1111.617</ele>
        <time>2020-02-28T18:17:36Z</time>
      </trkpt>
      <trkpt lat="40.308680" lon="-4.840210">
        <ele>1111.508</ele>
        <time>2020-02-28T18:17:56Z</time>
      </trkpt>
      <trkpt lat="40.308680" lon="-4.840050">
        <ele>1112.298</ele>
        <time>2020-02-28T18:18:16Z</time>
      </trkpt>
      <trkpt lat="40.308660" lon="-4.839790">
        <ele>1112.551</ele>
        <time>2020-02-28T18:18:36Z</time>
      </trkpt>
      <trkpt lat="40.308650" lon="-4.839750">
        <ele>1112.126</ele>
        <time>2020-02-28T18:18:56Z</time>
      </trkpt>
      <trkpt lat="40.308640" lon="-4.839550">
        <ele>1113.057</ele>
        <time>2020-02-28T18:19:16Z</time>
      </trkpt>
      <trkpt lat="40.308530" lon="-4.839180">
        <ele>1110.599</ele>
        <time>2020-02-28T18:19:36Z</time>
      </trkpt>
      <trkpt lat="40.308200" lon="-4.838370">
        <ele>1102.037</ele>
        <time>2020-02-28T18:19:56Z</time>
      </trkpt>
      <trkpt lat="40.308120" lon="-4.838120">
        <ele>1102.330</ele>
        <time>2020-02-28T18:20:16Z</time>
      </trkpt>
      <trkpt lat="40.308040" lon="-4.837810">
        <ele>1102.055</ele>
        <time>2020-02-28T18:20:36Z</time>
      </trkpt>
      <trkpt lat="40.308030" lon="-4.837800">
        <ele>1101.637</ele>
        <time>2020-02-28T18:20:56Z</time>
      </trkpt>
      <trkpt lat="40.307990" lon="-4.837730">
        <ele>1100.449</ele>
        <time>2020-02-28T18:21:16Z</time>
      </trkpt>
      <trkpt lat="40.307920" lon="-4.837660">
        <ele>1097.913</ele>
        <time>2020-02-28T18:21:36Z</time>
      </trkpt>
      <trkpt lat="40.307880" lon="-4.837640">
        <ele>1096.308</ele>
        <time>2020-02-28T18:21:56Z</time>
      </trkpt>
      <trkpt lat="40.307810" lon="-4.837570">
        <ele>1093.837</ele>
        <time>2020-02-28T18:22:16Z</time>
      </trkpt>
      <trkpt lat="40.307780" lon="-4.837520">
        <ele>1092.980</ele>
        <time>2020-02-28T18:22:36Z</time>
      </trkpt>
      <trkpt lat="40.307760" lon="-4.837500">
        <ele>1092.065</ele>
        <time>2020-02-28T18:22:56Z</time>
      </trkpt>
      <trkpt lat="40.307720" lon="-4.837420">
        <ele>1090.866</ele>
        <time>2020-02-28T18:23:16Z</time>
      </trkpt>
      <trkpt lat="40.307660" lon="-4.837240">
        <ele>1090.098</ele>
        <time>2020-02-28T18:23:36Z</time>
      </trkpt>
      <trkpt lat="40.307660" lon="-4.837030">
        <ele>1092.636</ele>
        <time>2020-02-28T18:23:56Z</time>
      </trkpt>
      <trkpt lat="40.307670" lon="-4.836950">
        <ele>1094.189</ele>
        <time>2020-02-28T18:24:16Z</time>
      </trkpt>
      <trkpt lat="40.307670" lon="-4.836810">
        <ele>1096.034</ele>
        <time>2020-02-28T18:24:36Z</time>
      </trkpt>
      <trkpt lat="40.307660" lon="-4.836740">
        <ele>1096.542</ele>
        <time>2020-02-28T18:24:56Z</time>
      </trkpt>
      <trkpt lat="40.307620" lon="-4.836620">
        <ele>1096.222</ele>
        <time>2020-02-28T18:25:16Z</time>
      </trkpt>
      <trkpt lat="40.307510" lon="-4.836390">
        <ele>1094.414</ele>
        <time>2020-02-28T18:25:36Z</time>
      </trkpt>
      <trkpt lat="40.307230" lon="-4.835920">
        <ele>1088.108</ele>
        <time>2020-02-28T18:25:56Z</time>
      </trkpt>
      <trkpt lat="40.307130" lon="-4.835630">
        <ele>1088.028</ele>
        <time>2020-02-28T18:26:16Z</time>
      </trkpt>
      <trkpt lat="40.306900" lon="-4.834800">
        <ele>1084.831</ele>
        <time>2020-02-28T18:26:36Z</time>
      </trkpt>
      <trkpt lat="40.306840" lon="-4.834440">
        <ele>1083.116</ele>
        <time>2020-02-28T18:26:56Z</time>
      </trkpt>
      <trkpt lat="40.306790" lon="-4.833840">
        <ele>1079.427</ele>
        <time>2020-02-28T18:27:16Z</time>
      </trkpt>
      <trkpt lat="40.306820" lon="-4.833190">
        <ele>1079.349</ele>
        <time>2020-02-28T18:27:36Z</time>
      </trkpt>
      <trkpt lat="40.306960" lon="-4.832340">
        <ele>1080.967</ele>
        <time>2020-02-28T18:27:56Z</time>
      </trkpt>
      <trkpt lat="40.307010" lon="-4.831600">
        <ele>1074.440</ele>
        <time>2020-02-28T18:28:16Z</time>
      </trkpt>
      <trkpt lat="40.307040" lon="-4.831460">
        <ele>1074.285</ele>
        <time>2020-02-28T18:28:36Z</time>
      </trkpt>
      <trkpt lat="40.307100" lon="-4.831280">
        <ele>1071.922</ele>
        <time>2020-02-28T18:28:56Z</time>
      </trkpt>
      <trkpt lat="40.307150" lon="-4.831180">
        <ele>1070.462</ele>
        <time>2020-02-28T18:29:16Z</time>
      </trkpt>
      <trkpt lat="40.307220" lon="-4.831120">
        <ele>1071.208</ele>
        <time>2020-02-28T18:29:36Z</time>
      </trkpt>
      <trkpt lat="40.307300" lon="-4.831080">
        <ele>1069.908</ele>
        <time>2020-02-28T18:29:56Z</time>
      </trkpt>
      <trkpt lat="40.307380" lon="-4.831070">
        <ele>1069.546</ele>
        <time>2020-02-28T18:30:16Z</time>
      </trkpt>
      <trkpt lat="40.307780" lon="-4.831180">
        <ele>1071.729</ele>
        <time>2020-02-28T18:30:36Z</time>
      </trkpt>
      <trkpt lat="40.307820" lon="-4.831200">
        <ele>1072.314</ele>
        <time>2020-02-28T18:30:56Z</time>
      </trkpt>
      <trkpt lat="40.308590" lon="-4.831290">
        <ele>1069.545</ele>
        <time>2020-02-28T18:31:16Z</time>
      </trkpt>
      <trkpt lat="40.308790" lon="-4.831270">
        <ele>1067.387</ele>
        <time>2020-02-28T18:31:36Z</time>
      </trkpt>
      <trkpt lat="40.309150" lon="-4.831260">
        <ele>1065.965</ele>
        <time>2020-02-28T18:31:56Z</time>
      </trkpt>
      <trkpt lat="40.309210" lon="-4.831280">
        <ele>1064.598</ele>
        <time>2020-02-28T18:32:16Z</time>
      </trkpt>
      <trkpt lat="40.309310" lon="-4.831340">
        <ele>1061.843</ele>
        <time>2020-02-28T18:32:36Z</time>
      </trkpt>
      <trkpt lat="40.309380" lon="-4.831420">
        <ele>1061.213</ele>
        <time>2020-02-28T18:32:56Z</time>
      </trkpt>
      <trkpt lat="40.309530" lon="-4.831640">
        <ele>1061.443</ele>
        <time>2020-02-28T18:33:16Z</time>
      </trkpt>
      <trkpt lat="40.309770" lon="-4.832120">
        <ele>1064.107</ele>
        <time>2020-02-28T18:33:36Z</time>
      </trkpt>
      <trkpt lat="40.309830" lon="-4.832210">
        <ele>1063.808</ele>
        <time>2020-02-28T18:33:56Z</time>
      </trkpt>
      <trkpt lat="40.309850" lon="-4.832250">
        <ele>1064.165</ele>
        <time>2020-02-28T18:34:16Z</time>
      </trkpt>
      <trkpt lat="40.309890" lon="-4.832290">
        <ele>1063.548</ele>
        <time>2020-02-28T18:34:36Z</time>
      </trkpt>
      <trkpt lat="40.309960" lon="-4.832290">
        <ele>1059.933</ele>
        <time>2020-02-28T18:34:56Z</time>
      </trkpt>
      <trkpt lat="40.309990" lon="-4.832270">
        <ele>1057.684</ele>
        <time>2020-02-28T18:35:16Z</time>
      </trkpt>
      <trkpt lat="40.310040" lon="-4.832220">
        <ele>1057.166</ele>
        <time>2020-02-28T18:35:36Z</time>
      </trkpt>
      <trkpt lat="40.310060" lon="-4.832190">
        <ele>1057.854</ele>
        <time>2020-02-28T18:35:56Z</time>
      </trkpt>
      <trkpt lat="40.310080" lon="-4.832110">
        <ele>1058.187</ele>
        <time>2020-02-28T18:36:16Z</time>
      </trkpt>
      <trkpt lat="40.310070" lon="-4.832030">
        <ele>1056.532</ele>
        <time>2020-02-28T18:36:36Z</time>
      </trkpt>
      <trkpt lat="40.310050" lon="-4.831980">
        <ele>1054.425</ele>
        <time>2020-02-28T18:36:56Z</time>
      </trkpt>
      <trkpt lat="40.310000" lon="-4.831740">
        <ele>1051.526</ele>
        <time>2020-02-28T18:37:16Z</time>
      </trkpt>
      <trkpt lat="40.310000" lon="-4.831710">
        <ele>1051.708</ele>
        <time>2020-02-28T18:37:36Z</time>
      </trkpt>
      <trkpt lat="40.309970" lon="-4.831520">
        <ele>1053.008</ele>
        <time>2020-02-28T18:37:56Z</time>
      </trkpt>
      <trkpt lat="40.309720" lon="-4.829140">
        <ele>1044.896</ele>
        <time>2020-02-28T18:38:16Z</time>
      </trkpt>
      <trkpt lat="40.309710" lon="-4.828750">
        <ele>1042.619</ele>
        <time>2020-02-28T18:38:36Z</time>
      </trkpt>
      <trkpt lat="40.309760" lon="-4.828230">
        <ele>1039.914</ele>
        <time>2020-02-28T18:38:56Z</time>
      </trkpt>
      <trkpt lat="40.309760" lon="-4.828100">
        <ele>1038.355</ele>
        <time>2020-02-28T18:39:16Z</time>
      </trkpt>
      <trkpt lat="40.309740" lon="-4.828010">
        <ele>1037.557</ele>
        <time>2020-02-28T18:39:36Z</time>
      </trkpt>
      <trkpt lat="40.309720" lon="-4.827970">
        <ele>1037.385</ele>
        <time>2020-02-28T18:39:56Z</time>
      </trkpt>
      <trkpt lat="40.309670" lon="-4.827900">
        <ele>1036.658</ele>
        <time>2020-02-28T18:40:16Z</time>
      </trkpt>
      <trkpt lat="40.309630" lon="-4.827860">
        <ele>1036.273</ele>
        <time>2020-02-28T18:40:36Z</time>
      </trkpt>
      <trkpt lat="40.309370" lon="-4.827700">
        <ele>1033.249</ele>
        <time>2020-02-28T18:40:56Z</time>
      </trkpt>
      <trkpt lat="40.309290" lon="-4.827600">
        <ele>1032.702</ele>
        <time>2020-02-28T18:41:16Z</time>
      </trkpt>
      <trkpt lat="40.309290" lon="-4.827590">
        <ele>1032.822</ele>
        <time>2020-02-28T18:41:36Z</time>
      </trkpt>
      <trkpt lat="40.309220" lon="-4.827480">
        <ele>1032.408</ele>
        <time>2020-02-28T18:41:56Z</time>
      </trkpt>
      <trkpt lat="40.309100" lon="-4.827170">
        <ele>1028.698</ele>
        <time>2020-02-28T18:42:16Z</time>
      </trkpt>
      <trkpt lat="40.309100" lon="-4.827110">
        <ele>1028.561</ele>
        <time>2020-02-28T18:42:36Z</time>
      </trkpt>
      <trkpt lat="40.309090" lon="-4.827060">
        <ele>1028.056</ele>
        <time>2020-02-28T18:42:56Z</time>
      </trkpt>
      <trkpt lat="40.309100" lon="-4.827010">
        <ele>1028.487</ele>
        <time>2020-02-28T18:43:16Z</time>
      </trkpt>
      <trkpt lat="40.309100" lon="-4.826950">
        <ele>1028.429</ele>
        <time>2020-02-28T18:43:36Z</time>
      </trkpt>
      <trkpt lat="40.309170" lon="-4.826740">
        <ele>1030.487</ele>
        <time>2020-02-28T18:43:56Z</time>
      </trkpt>
      <trkpt lat="40.309240" lon="-4.826450">
        <ele>1031.170</ele>
        <time>2020-02-28T18:44:16Z</time>
      </trkpt>
      <trkpt lat="40.309240" lon="-4.826350">
        <ele>1029.925</ele>
        <time>2020-02-28T18:44:36Z</time>
      </trkpt>
      <trkpt lat="40.309230" lon="-4.826300">
        <ele>1028.744</ele>
        <time>2020-02-28T18:44:56Z</time>
      </trkpt>
      <trkpt lat="40.309230" lon="-4.826270">
        <ele>1028.105</ele>
        <time>2020-02-28T18:45:16Z</time>
      </trkpt>
      <trkpt lat="40.309220" lon="-4.826260">
        <ele>1027.615</ele>
        <time>2020-02-28T18:45:36Z</time>
      </trkpt>
      <trkpt lat="40.309210" lon="-4.826230">
        <ele>1026.708</ele>
        <time>2020-02-28T18:45:56Z</time>
      </trkpt>
      <trkpt lat="40.309050" lon="-4.825920">
        <ele>1024.768</ele>
        <time>2020-02-28T18:46:16Z</time>
      </trkpt>
      <trkpt lat="40.309020" lon="-4.825890">
        <ele>1025.171</ele>
        <time>2020-02-28T18:46:36Z</time>
      </trkpt>
      <trkpt lat="40.308990" lon="-4.825870">
        <ele>1025.466</ele>
        <time>2020-02-28T18:46:56Z</time>
      </trkpt>
      <trkpt lat="40.308920" lon="-4.825850">
        <ele>1025.777</ele>
        <time>2020-02-28T18:47:16Z</time>
      </trkpt>
      <trkpt lat="40.308890" lon="-4.825860">
        <ele>1025.449</ele>
        <time>2020-02-28T18:47:36Z</time>
      </trkpt>
      <trkpt lat="40.308780" lon="-4.825920">
        <ele>1026.377</ele>
        <time>2020-02-28T18:47:56Z</time>
      </trkpt>
      <trkpt lat="40.308660" lon="-4.826040">
        <ele>1024.240</ele>
        <time>2020-02-28T18:48:16Z</time>
      </trkpt>
      <trkpt lat="40.308490" lon="-4.826240">
        <ele>1024.735</ele>
        <time>2020-02-28T18:48:36Z</time>
      </trkpt>
      <trkpt lat="40.308340" lon="-4.826620">
        <ele>1024.495</ele>
        <time>2020-02-28T18:48:56Z</time>
      </trkpt>
      <trkpt lat="40.308250" lon="-4.827080">
        <ele>1020.749</ele>
        <time>2020-02-28T18:49:16Z</time>
      </trkpt>
      <trkpt lat="40.308200" lon="-4.827220">
        <ele>1020.323</ele>
        <time>2020-02-28T18:49:36Z</time>
      </trkpt>
      <trkpt lat="40.308020" lon="-4.827540">
        <ele>1015.508</ele>
        <time>2020-02-28T18:49:56Z</time>
      </trkpt>
      <trkpt lat="40.307930" lon="-4.827650">
        <ele>1013.863</ele>
        <time>2020-02-28T18:50:16Z</time>
      </trkpt>
      <trkpt lat="40.307810" lon="-4.827750">
        <ele>1013.266</ele>
        <time>2020-02-28T18:50:36Z</time>
      </trkpt>
      <trkpt lat="40.307760" lon="-4.827760">
        <ele>1013.511</ele>
        <time>2020-02-28T18:50:56Z</time>
      </trkpt>
      <trkpt lat="40.307720" lon="-4.827760">
        <ele>1013.212</ele>
        <time>2020-02-28T18:51:16Z</time>
      </trkpt>
      <trkpt lat="40.307620" lon="-4.827740">
        <ele>1013.034</ele>
        <time>2020-02-28T18:51:36Z</time>
      </trkpt>
      <trkpt lat="40.307570" lon="-4.827710">
        <ele>1013.492</ele>
        <time>2020-02-28T18:51:56Z</time>
      </trkpt>
      <trkpt lat="40.307230" lon="-4.827390">
        <ele>1014.585</ele>
        <time>2020-02-28T18:52:16Z</time>
      </trkpt>
      <trkpt lat="40.306990" lon="-4.827240">
        <ele>1013.450</ele>
        <time>2020-02-28T18:52:36Z</time>
      </trkpt>
      <trkpt lat="40.306880" lon="-4.827190">
        <ele>1013.025</ele>
        <time>2020-02-28T18:52:56Z</time>
      </trkpt>
      <trkpt lat="40.306480" lon="-4.827070">
        <ele>1011.326</ele>
        <time>2020-02-28T18:53:16Z</time>
      </trkpt>
      <trkpt lat="40.306170" lon="-4.827020">
        <ele>1009.808</ele>
        <time>2020-02-28T18:53:36Z</time>
      </trkpt>
      <trkpt lat="40.306090" lon="-4.827000">
        <ele>1009.608</ele>
        <time>2020-02-28T18:53:56Z</time>
      </trkpt>
      <trkpt lat="40.305220" lon="-4.826940">
        <ele>1003.516</ele>
        <time>2020-02-28T18:54:16Z</time>
      </trkpt>
      <trkpt lat="40.305000" lon="-4.826880">
        <ele>1002.279</ele>
        <time>2020-02-28T18:54:36Z</time>
      </trkpt>
      <trkpt lat="40.304920" lon="-4.826840">
        <ele>1001.744</ele>
        <time>2020-02-28T18:54:56Z</time>
      </trkpt>
      <trkpt lat="40.304810" lon="-4.826760">
        <ele>1001.845</ele>
        <time>2020-02-28T18:55:16Z</time>
      </trkpt>
      <trkpt lat="40.304770" lon="-4.826720">
        <ele>1002.297</ele>
        <time>2020-02-28T18:55:36Z</time>
      </trkpt>
      <trkpt lat="40.304710" lon="-4.826680">
        <ele>1002.815</ele>
        <time>2020-02-28T18:55:56Z</time>
      </trkpt>
      <trkpt lat="40.304640" lon="-4.826610">
        <ele>1005.318</ele>
        <time>2020-02-28T18:56:16Z</time>
      </trkpt>
      <trkpt lat="40.304610" lon="-4.826610">
        <ele>1005.773</ele>
        <time>2020-02-28T18:56:36Z</time>
      </trkpt>
      <trkpt lat="40.304600" lon="-4.826600">
        <ele>1006.136</ele>
        <time>2020-02-28T18:56:56Z</time>
      </trkpt>
      <trkpt lat="40.304570" lon="-4.826600">
        <ele>1006.517</ele>
        <time>2020-02-28T18:57:16Z</time>
      </trkpt>
      <trkpt lat="40.304500" lon="-4.826630">
        <ele>1007.018</ele>
        <time>2020-02-28T18:57:36Z</time>
      </trkpt>
      <trkpt lat="40.304440" lon="-4.826690">
        <ele>1006.608</ele>
        <time>2020-02-28T18:57:56Z</time>
      </trkpt>
      <trkpt lat="40.304350" lon="-4.826880">
        <ele>1005.187</ele>
        <time>2020-02-28T18:58:16Z</time>
      </trkpt>
      <trkpt lat="40.304340" lon="-4.826880">
        <ele>1005.450</ele>
        <time>2020-02-28T18:58:36Z</time>
      </trkpt>
      <trkpt lat="40.304250" lon="-4.827060">
        <ele>1003.785</ele>
        <time>2020-02-28T18:58:56Z</time>
      </trkpt>
      <trkpt lat="40.304240" lon="-4.827070">
        <ele>1003.836</ele>
        <time>2020-02-28T18:59:16Z</time>
      </trkpt>
      <trkpt lat="40.304140" lon="-4.827240">
        <ele>1002.818</ele>
        <time>2020-02-28T18:59:36Z</time>
      </trkpt>
      <trkpt lat="40.304050" lon="-4.827340">
        <ele>1001.156</ele>
        <time>2020-02-28T18:59:56Z</time>
      </trkpt>
      <trkpt lat="40.303940" lon="-4.827390">
        <ele>1000.339</ele>
        <time>2020-02-28T19:00:16Z</time>
      </trkpt>
      <trkpt lat="40.303810" lon="-4.827410">
        <ele>999.594</ele>
        <time>2020-02-28T19:00:36Z</time>
      </trkpt>
      <trkpt lat="40.303320" lon="-4.827390">
        <ele>995.974</ele>
        <time>2020-02-28T19:00:56Z</time>
      </trkpt>
      <trkpt lat="40.303200" lon="-4.827400">
        <ele>994.556</ele>
        <time>2020-02-28T19:01:16Z</time>
      </trkpt>
      <trkpt lat="40.303100" lon="-4.827440">
        <ele>992.721</ele>
        <time>2020-02-28T19:01:36Z</time>
      </trkpt>
      <trkpt lat="40.303020" lon="-4.827490">
        <ele>991.308</ele>
        <time>2020-02-28T19:01:56Z</time>
      </trkpt>
      <trkpt lat="40.302830" lon="-4.827690">
        <ele>988.511</ele>
        <time>2020-02-28T19:02:16Z</time>
      </trkpt>
      <trkpt lat="40.302750" lon="-4.827730">
        <ele>987.424</ele>
        <time>2020-02-28T19:02:36Z</time>
      </trkpt>
      <trkpt lat="40.302690" lon="-4.827740">
        <ele>986.179</ele>
        <time>2020-02-28T19:02:56Z</time>
      </trkpt>
      <trkpt lat="40.302640" lon="-4.827720">
        <ele>985.670</ele>
        <time>2020-02-28T19:03:16Z</time>
      </trkpt>
      <trkpt lat="40.302610" lon="-4.827690">
        <ele>985.662</ele>
        <time>2020-02-28T19:03:36Z</time>
      </trkpt>
      <trkpt lat="40.302470" lon="-4.827590">
        <ele>985.390</ele>
        <time>2020-02-28T19:03:56Z</time>
      </trkpt>
      <trkpt lat="40.302410" lon="-4.827560">
        <ele>985.863</ele>
        <time>2020-02-28T19:04:16Z</time>
      </trkpt>
      <trkpt lat="40.302340" lon="-4.827560">
        <ele>985.748</ele>
        <time>2020-02-28T19:04:36Z</time>
      </trkpt>
      <trkpt lat="40.302290" lon="-4.827570">
        <ele>985.477</ele>
        <time>2020-02-28T19:04:56Z</time>
      </trkpt>
      <trkpt lat="40.302290" lon="-4.827580">
        <ele>985.161</ele>
        <time>2020-02-28T19:05:16Z</time>
      </trkpt>
      <trkpt lat="40.302250" lon="-4.827600">
        <ele>984.627</ele>
        <time>2020-02-28T19:05:36Z</time>
      </trkpt>
      <trkpt lat="40.302160" lon="-4.827690">
        <ele>983.608</ele>
        <time>2020-02-28T19:05:56Z</time>
      </trkpt>
      <trkpt lat="40.302120" lon="-4.827750">
        <ele>983.231</ele>
        <time>2020-02-28T19:06:16Z</time>
      </trkpt>
      <trkpt lat="40.302040" lon="-4.827940">
        <ele>982.324</ele>
        <time>2020-02-28T19:06:36Z</time>
      </trkpt>
      <trkpt lat="40.301880" lon="-4.828680">
        <ele>980.069</ele>
        <time>2020-02-28T19:06:56Z</time>
      </trkpt>
      <trkpt lat="40.301860" lon="-4.828900">
        <ele>979.760</ele>
        <time>2020-02-28T19:07:16Z</time>
      </trkpt>
      <trkpt lat="40.301860" lon="-4.829050">
        <ele>979.632</ele>
        <time>2020-02-28T19:07:36Z</time>
      </trkpt>
      <trkpt lat="40.301950" lon="-4.829670">
        <ele>975.210</ele>
        <time>2020-02-28T19:07:56Z</time>
      </trkpt>
      <trkpt lat="40.301950" lon="-4.829750">
        <ele>974.593</ele>
        <time>2020-02-28T19:08:16Z</time>
      </trkpt>
      <trkpt lat="40.301960" lon="-4.829830">
        <ele>973.418</ele>
        <time>2020-02-28T19:08:36Z</time>
      </trkpt>
      <trkpt lat="40.301950" lon="-4.829930">
        <ele>972.621</ele>
        <time>2020-02-28T19:08:56Z</time>
      </trkpt>
      <trkpt lat="40.301910" lon="-4.830080">
        <ele>972.241</ele>
        <time>2020-02-28T19:09:16Z</time>
      </trkpt>
      <trkpt lat="40.301820" lon="-4.830280">
        <ele>971.805</ele>
        <time>2020-02-28T19:09:36Z</time>
      </trkpt>
      <trkpt lat="40.301740" lon="-4.830370">
        <ele>971.108</ele>
        <time>2020-02-28T19:09:56Z</time>
      </trkpt>
      <trkpt lat="40.301720" lon="-4.830410">
        <ele>970.666</ele>
        <time>2020-02-28T19:10:16Z</time>
      </trkpt>
      <trkpt lat="40.301640" lon="-4.830460">
        <ele>969.739</ele>
        <time>2020-02-28T19:10:36Z</time>
      </trkpt>
      <trkpt lat="40.301600" lon="-4.830470">
        <ele>968.984</ele>
        <time>2020-02-28T19:10:56Z</time>
      </trkpt>
      <trkpt lat="40.301510" lon="-4.830470">
        <ele>967.625</ele>
        <time>2020-02-28T19:11:16Z</time>
      </trkpt>
      <trkpt lat="40.301460" lon="-4.830450">
        <ele>967.367</ele>
        <time>2020-02-28T19:11:36Z</time>
      </trkpt>
      <trkpt lat="40.301420" lon="-4.830420">
        <ele>967.435</ele>
        <time>2020-02-28T19:11:56Z</time>
      </trkpt>
      <trkpt lat="40.301370" lon="-4.830400">
        <ele>967.058</ele>
        <time>2020-02-28T19:12:16Z</time>
      </trkpt>
      <trkpt lat="40.301330" lon="-4.830370">
        <ele>967.063</ele>
        <time>2020-02-28T19:12:36Z</time>
      </trkpt>
      <trkpt lat="40.301150" lon="-4.830280">
        <ele>965.773</ele>
        <time>2020-02-28T19:12:56Z</time>
      </trkpt>
      <trkpt lat="40.301110" lon="-4.830270">
        <ele>965.285</ele>
        <time>2020-02-28T19:13:16Z</time>
      </trkpt>
      <trkpt lat="40.301010" lon="-4.830270">
        <ele>965.513</ele>
        <time>2020-02-28T19:13:36Z</time>
      </trkpt>
      <trkpt lat="40.300960" lon="-4.830300">
        <ele>965.108</ele>
        <time>2020-02-28T19:13:56Z</time>
      </trkpt>
      <trkpt lat="40.300930" lon="-4.830330">
        <ele>964.771</ele>
        <time>2020-02-28T19:14:16Z</time>
      </trkpt>
      <trkpt lat="40.300890" lon="-4.830360">
        <ele>964.364</ele>
        <time>2020-02-28T19:14:36Z</time>
      </trkpt>
      <trkpt lat="40.300810" lon="-4.830470">
        <ele>962.949</ele>
        <time>2020-02-28T19:14:56Z</time>
      </trkpt>
      <trkpt lat="40.300360" lon="-4.831270">
        <ele>957.780</ele>
        <time>2020-02-28T19:15:16Z</time>
      </trkpt>
      <trkpt lat="40.300230" lon="-4.831470">
        <ele>956.232</ele>
        <time>2020-02-28T19:15:36Z</time>
      </trkpt>
      <trkpt lat="40.299870" lon="-4.831890">
        <ele>953.940</ele>
        <time>2020-02-28T19:15:56Z</time>
      </trkpt>
      <trkpt lat="40.298800" lon="-4.832980">
        <ele>946.433</ele>
        <time>2020-02-28T19:16:16Z</time>
      </trkpt>
      <trkpt lat="40.298100" lon="-4.833510">
        <ele>936.818</ele>
        <time>2020-02-28T19:16:36Z</time>
      </trkpt>
      <trkpt lat="40.298010" lon="-4.833540">
        <ele>935.726</ele>
        <time>2020-02-28T19:16:56Z</time>
      </trkpt>
      <trkpt lat="40.297980" lon="-4.833530">
        <ele>935.547</ele>
        <time>2020-02-28T19:17:16Z</time>
      </trkpt>
      <trkpt lat="40.297950" lon="-4.833530">
        <ele>935.111</ele>
        <time>2020-02-28T19:17:36Z</time>
      </trkpt>
      <trkpt lat="40.297950" lon="-4.833520">
        <ele>935.308</ele>
        <time>2020-02-28T19:17:56Z</time>
      </trkpt>
      <trkpt lat="40.297910" lon="-4.833510">
        <ele>934.916</ele>
        <time>2020-02-28T19:18:16Z</time>
      </trkpt>
      <trkpt lat="40.297860" lon="-4.833440">
        <ele>935.199</ele>
        <time>2020-02-28T19:18:36Z</time>
      </trkpt>
      <trkpt lat="40.297840" lon="-4.833400">
        <ele>935.354</ele>
        <time>2020-02-28T19:18:56Z</time>
      </trkpt>
      <trkpt lat="40.297750" lon="-4.833090">
        <ele>937.375</ele>
        <time>2020-02-28T19:19:16Z</time>
      </trkpt>
      <trkpt lat="40.297720" lon="-4.833030">
        <ele>937.917</ele>
        <time>2020-02-28T19:19:36Z</time>
      </trkpt>
      <trkpt lat="40.297690" lon="-4.833000">
        <ele>938.155</ele>
        <time>2020-02-28T19:19:56Z</time>
      </trkpt>
      <trkpt lat="40.297650" lon="-4.832940">
        <ele>938.538</ele>
        <time>2020-02-28T19:20:16Z</time>
      </trkpt>
      <trkpt lat="40.297560" lon="-4.832890">
        <ele>937.833</ele>
        <time>2020-02-28T19:20:36Z</time>
      </trkpt>
      <trkpt lat="40.297510" lon="-4.832880">
        <ele>937.191</ele>
        <time>2020-02-28T19:20:56Z</time>
      </trkpt>
      <trkpt lat="40.297490" lon="-4.832870">
        <ele>936.881</ele>
        <time>2020-02-28T19:21:16Z</time>
      </trkpt>
      <trkpt lat="40.297250" lon="-4.832880">
        <ele>932.919</ele>
        <time>2020-02-28T19:21:36Z</time>
      </trkpt>
      <trkpt lat="40.297160" lon="-4.832910">
        <ele>931.608</ele>
        <time>2020-02-28T19:21:56Z</time>
      </trkpt>
      <trkpt lat="40.296480" lon="-4.833220">
        <ele>926.013</ele>
        <time>2020-02-28T19:22:16Z</time>
      </trkpt>
      <trkpt lat="40.296360" lon="-4.833260">
        <ele>924.546</ele>
        <time>2020-02-28T19:22:36Z</time>
      </trkpt>
      <trkpt lat="40.296310" lon="-4.833270">
        <ele>923.741</ele>
        <time>2020-02-28T19:22:56Z</time>
      </trkpt>
      <trkpt lat="40.296270" lon="-4.833270">
        <ele>923.312</ele>
        <time>2020-02-28T19:23:16Z</time>
      </trkpt>
      <trkpt lat="40.296160" lon="-4.833250">
        <ele>922.694</ele>
        <time>2020-02-28T19:23:36Z</time>
      </trkpt>
      <trkpt lat="40.296050" lon="-4.833210">
        <ele>922.482</ele>
        <time>2020-02-28T19:23:56Z</time>
      </trkpt>
      <trkpt lat="40.296000" lon="-4.833180">
        <ele>922.475</ele>
        <time>2020-02-28T19:24:16Z</time>
      </trkpt>
      <trkpt lat="40.295760" lon="-4.833070">
        <ele>921.680</ele>
        <time>2020-02-28T19:24:36Z</time>
      </trkpt>
      <trkpt lat="40.294960" lon="-4.832640">
        <ele>918.742</ele>
        <time>2020-02-28T19:24:56Z</time>
      </trkpt>
      <trkpt lat="40.294620" lon="-4.832400">
        <ele>914.222</ele>
        <time>2020-02-28T19:25:16Z</time>
      </trkpt>
      <trkpt lat="40.294550" lon="-4.832360">
        <ele>912.414</ele>
        <time>2020-02-28T19:25:36Z</time>
      </trkpt>
      <trkpt lat="40.294520" lon="-4.832350">
        <ele>911.508</ele>
        <time>2020-02-28T19:25:56Z</time>
      </trkpt>
      <trkpt lat="40.294490" lon="-4.832360">
        <ele>910.568</ele>
        <time>2020-02-28T19:26:16Z</time>
      </trkpt>
      <trkpt lat="40.294470" lon="-4.832360">
        <ele>909.821</ele>
        <time>2020-02-28T19:26:36Z</time>
      </trkpt>
      <trkpt lat="40.294440" lon="-4.832380">
        <ele>908.736</ele>
        <time>2020-02-28T19:26:56Z</time>
      </trkpt>
      <trkpt lat="40.294410" lon="-4.832390">
        <ele>907.837</ele>
        <time>2020-02-28T19:27:16Z</time>
      </trkpt>
      <trkpt lat="40.294390" lon="-4.832410">
        <ele>907.049</ele>
        <time>2020-02-28T19:27:36Z</time>
      </trkpt>
      <trkpt lat="40.294370" lon="-4.832420">
        <ele>906.467</ele>
        <time>2020-02-28T19:27:56Z</time>
      </trkpt>
      <trkpt lat="40.294350" lon="-4.832450">
        <ele>905.680</ele>
        <time>2020-02-28T19:28:16Z</time>
      </trkpt>
      <trkpt lat="40.294320" lon="-4.832570">
        <ele>904.075</ele>
        <time>2020-02-28T19:28:36Z</time>
      </trkpt>
      <trkpt lat="40.294330" lon="-4.832600">
        <ele>904.185</ele>
        <time>2020-02-28T19:28:56Z</time>
      </trkpt>
      <trkpt lat="40.294330" lon="-4.832630">
        <ele>904.089</ele>
        <time>2020-02-28T19:29:16Z</time>
      </trkpt>
      <trkpt lat="40.294350" lon="-4.832680">
        <ele>904.217</ele>
        <time>2020-02-28T19:29:36Z</time>
      </trkpt>
      <trkpt lat="40.294380" lon="-4.832720">
        <ele>904.708</ele>
        <time>2020-02-28T19:29:56Z</time>
      </trkpt>
      <trkpt lat="40.294390" lon="-4.832740">
        <ele>904.922</ele>
        <time>2020-02-28T19:30:16Z</time>
      </trkpt>
      <trkpt lat="40.294440" lon="-4.832770">
        <ele>905.985</ele>
        <time>2020-02-28T19:30:36Z</time>
      </trkpt>
      <trkpt lat="40.294450" lon="-4.832770">
        <ele>906.230</ele>
        <time>2020-02-28T19:30:56Z</time>
      </trkpt>
      <trkpt lat="40.294540" lon="-4.832810">
        <ele>907.771</ele>
        <time>2020-02-28T19:31:16Z</time>
      </trkpt>
      <trkpt lat="40.294560" lon="-4.832840">
        <ele>907.893</ele>
        <time>2020-02-28T19:31:36Z</time>
      </trkpt>
      <trkpt lat="40.294590" lon="-4.832860">
        <ele>908.371</ele>
        <time>2020-02-28T19:31:56Z</time>
      </trkpt>
      <trkpt lat="40.294650" lon="-4.832940">
        <ele>908.784</ele>
        <time>2020-02-28T19:32:16Z</time>
      </trkpt>
      <trkpt lat="40.294750" lon="-4.833120">
        <ele>908.489</ele>
        <time>2020-02-28T19:32:36Z</time>
      </trkpt>
      <trkpt lat="40.294800" lon="-4.833180">
        <ele>908.048</ele>
        <time>2020-02-28T19:32:56Z</time>
      </trkpt>
      <trkpt lat="40.294890" lon="-4.833230">
        <ele>908.361</ele>
        <time>2020-02-28T19:33:16Z</time>
      </trkpt>
      <trkpt lat="40.295020" lon="-4.833250">
        <ele>909.417</ele>
        <time>2020-02-28T19:33:36Z</time>
      </trkpt>
      <trkpt lat="40.295190" lon="-4.833340">
        <ele>909.908</ele>
        <time>2020-02-28T19:33:56Z</time>
      </trkpt>
      <trkpt lat="40.295250" lon="-4.833380">
        <ele>909.938</ele>
        <time>2020-02-28T19:34:16Z</time>
      </trkpt>
      <trkpt lat="40.295550" lon="-4.833700">
        <ele>907.351</ele>
        <time>2020-02-28T19:34:36Z</time>
      </trkpt>
      <trkpt lat="40.295610" lon="-4.833750">
        <ele>906.936</ele>
        <time>2020-02-28T19:34:56Z</time>
      </trkpt>
      <trkpt lat="40.295710" lon="-4.833860">
        <ele>905.637</ele>
        <time>2020-02-28T19:35:16Z</time>
      </trkpt>
      <trkpt lat="40.296220" lon="-4.834270">
        <ele>902.559</ele>
        <time>2020-02-28T19:35:36Z</time>
      </trkpt>
      <trkpt lat="40.296360" lon="-4.834350">
        <ele>901.687</ele>
        <time>2020-02-28T19:35:56Z</time>
      </trkpt>
      <trkpt lat="40.296670" lon="-4.834490">
        <ele>900.780</ele>
        <time>2020-02-28T19:36:16Z</time>
      </trkpt>
      <trkpt lat="40.297140" lon="-4.834900">
        <ele>893.795</ele>
        <time>2020-02-28T19:36:36Z</time>
      </trkpt>
      <trkpt lat="40.297350" lon="-4.834990">
        <ele>894.129</ele>
        <time>2020-02-28T19:36:56Z</time>
      </trkpt>
      <trkpt lat="40.297360" lon="-4.834990">
        <ele>894.300</ele>
        <time>2020-02-28T19:37:16Z</time>
      </trkpt>
      <trkpt lat="40.297630" lon="-4.835140">
        <ele>892.820</ele>
        <time>2020-02-28T19:37:36Z</time>
      </trkpt>
      <trkpt lat="40.297920" lon="-4.835370">
        <ele>890.308</ele>
        <time>2020-02-28T19:37:56Z</time>
      </trkpt>
      <trkpt lat="40.298160" lon="-4.835500">
        <ele>889.616</ele>
        <time>2020-02-28T19:38:16Z</time>
      </trkpt>
      <trkpt lat="40.298230" lon="-4.835530">
        <ele>889.069</ele>
        <time>2020-02-28T19:38:36Z</time>
      </trkpt>
      <trkpt lat="40.298510" lon="-4.835620">
        <ele>889.224</ele>
        <time>2020-02-28T19:38:56Z</time>
      </trkpt>
      <trkpt lat="40.298770" lon="-4.835730">
        <ele>888.565</ele>
        <time>2020-02-28T19:39:16Z</time>
      </trkpt>
      <trkpt lat="40.298830" lon="-4.835790">
        <ele>887.377</ele>
        <time>2020-02-28T19:39:36Z</time>
      </trkpt>
      <trkpt lat="40.298830" lon="-4.835800">
        <ele>887.115</ele>
        <time>2020-02-28T19:39:56Z</time>
      </trkpt>
      <trkpt lat="40.298850" lon="-4.835810">
        <ele>886.818</ele>
        <time>2020-02-28T19:40:16Z</time>
      </trkpt>
      <trkpt lat="40.298880" lon="-4.835880">
        <ele>885.653</ele>
        <time>2020-02-28T19:40:36Z</time>
      </trkpt>
      <trkpt lat="40.298900" lon="-4.835960">
        <ele>884.687</ele>
        <time>2020-02-28T19:40:56Z</time>
      </trkpt>
      <trkpt lat="40.298900" lon="-4.836020">
        <ele>883.942</ele>
        <time>2020-02-28T19:41:16Z</time>
      </trkpt>
      <trkpt lat="40.298880" lon="-4.836120">
        <ele>883.026</ele>
        <time>2020-02-28T19:41:36Z</time>
      </trkpt>
      <trkpt lat="40.298840" lon="-4.836240">
        <ele>881.508</ele>
        <time>2020-02-28T19:41:56Z</time>
      </trkpt>
      <trkpt lat="40.298790" lon="-4.836320">
        <ele>881.652</ele>
        <time>2020-02-28T19:42:16Z</time>
      </trkpt>
      <trkpt lat="40.298710" lon="-4.836400">
        <ele>883.375</ele>
        <time>2020-02-28T19:42:36Z</time>
      </trkpt>
      <trkpt lat="40.298590" lon="-4.836450">
        <ele>886.320</ele>
        <time>2020-02-28T19:42:56Z</time>
      </trkpt>
      <trkpt lat="40.298520" lon="-4.836490">
        <ele>884.281</ele>
        <time>2020-02-28T19:43:16Z</time>
      </trkpt>
      <trkpt lat="40.298420" lon="-4.836570">
        <ele>881.333</ele>
        <time>2020-02-28T19:43:36Z</time>
      </trkpt>
      <trkpt lat="40.298360" lon="-4.836630">
        <ele>879.651</ele>
        <time>2020-02-28T19:43:56Z</time>
      </trkpt>
      <trkpt lat="40.298300" lon="-4.836720">
        <ele>878.974</ele>
        <time>2020-02-28T19:44:16Z</time>
      </trkpt>
      <trkpt lat="40.298300" lon="-4.836740">
        <ele>879.129</ele>
        <time>2020-02-28T19:44:36Z</time>
      </trkpt>
      <trkpt lat="40.298180" lon="-4.836990">
        <ele>878.398</ele>
        <time>2020-02-28T19:44:56Z</time>
      </trkpt>
      <trkpt lat="40.298160" lon="-4.837010">
        <ele>877.915</ele>
        <time>2020-02-28T19:45:16Z</time>
      </trkpt>
      <trkpt lat="40.298140" lon="-4.837020">
        <ele>877.326</ele>
        <time>2020-02-28T19:45:36Z</time>
      </trkpt>
      <trkpt lat="40.298130" lon="-4.837030">
        <ele>877.008</ele>
        <time>2020-02-28T19:45:56Z</time>
      </trkpt>
      <trkpt lat="40.298110" lon="-4.837030">
        <ele>876.393</ele>
        <time>2020-02-28T19:46:16Z</time>
      </trkpt>
      <trkpt lat="40.298080" lon="-4.837040">
        <ele>875.386</ele>
        <time>2020-02-28T19:46:36Z</time>
      </trkpt>
      <trkpt lat="40.298050" lon="-4.837040">
        <ele>874.281</ele>
        <time>2020-02-28T19:46:56Z</time>
      </trkpt>
      <trkpt lat="40.297990" lon="-4.836980">
        <ele>872.462</ele>
        <time>2020-02-28T19:47:16Z</time>
      </trkpt>
      <trkpt lat="40.297920" lon="-4.836830">
        <ele>871.064</ele>
        <time>2020-02-28T19:47:36Z</time>
      </trkpt>
      <trkpt lat="40.297870" lon="-4.836400">
        <ele>870.022</ele>
        <time>2020-02-28T19:47:56Z</time>
      </trkpt>
      <trkpt lat="40.297860" lon="-4.836360">
        <ele>869.915</ele>
        <time>2020-02-28T19:48:16Z</time>
      </trkpt>
      <trkpt lat="40.297860" lon="-4.836330">
        <ele>870.120</ele>
        <time>2020-02-28T19:48:36Z</time>
      </trkpt>
      <trkpt lat="40.297850" lon="-4.836290">
        <ele>870.186</ele>
        <time>2020-02-28T19:48:56Z</time>
      </trkpt>
      <trkpt lat="40.297830" lon="-4.836260">
        <ele>869.860</ele>
        <time>2020-02-28T19:49:16Z</time>
      </trkpt>
      <trkpt lat="40.297820" lon="-4.836230">
        <ele>869.726</ele>
        <time>2020-02-28T19:49:36Z</time>
      </trkpt>
      <trkpt lat="40.297800" lon="-4.836200">
        <ele>869.308</ele>
        <time>2020-02-28T19:49:56Z</time>
      </trkpt>
      <trkpt lat="40.297780" lon="-4.836180">
        <ele>868.862</ele>
        <time>2020-02-28T19:50:16Z</time>
      </trkpt>
      <trkpt lat="40.297760" lon="-4.836150">
        <ele>868.695</ele>
        <time>2020-02-28T19:50:36Z</time>
      </trkpt>
      <trkpt lat="40.297620" lon="-4.836040">
        <ele>867.960</ele>
        <time>2020-02-28T19:50:56Z</time>
      </trkpt>
      <trkpt lat="40.297610" lon="-4.836040">
        <ele>867.791</ele>
        <time>2020-02-28T19:51:16Z</time>
      </trkpt>
      <trkpt lat="40.297440" lon="-4.835930">
        <ele>866.993</ele>
        <time>2020-02-28T19:51:36Z</time>
      </trkpt>
      <trkpt lat="40.297380" lon="-4.835900">
        <ele>866.691</ele>
        <time>2020-02-28T19:51:56Z</time>
      </trkpt>
      <trkpt lat="40.297330" lon="-4.835890">
        <ele>866.254</ele>
        <time>2020-02-28T19:52:16Z</time>
      </trkpt>
      <trkpt lat="40.297290" lon="-4.835890">
        <ele>865.839</ele>
        <time>2020-02-28T19:52:36Z</time>
      </trkpt>
      <trkpt lat="40.297250" lon="-4.835900">
        <ele>865.135</ele>
        <time>2020-02-28T19:52:56Z</time>
      </trkpt>
      <trkpt lat="40.296870" lon="-4.836200">
        <ele>859.386</ele>
        <time>2020-02-28T19:53:16Z</time>
      </trkpt>
      <trkpt lat="40.296480" lon="-4.836480">
        <ele>855.214</ele>
        <time>2020-02-28T19:53:36Z</time>
      </trkpt>
      <trkpt lat="40.296310" lon="-4.836570">
        <ele>853.808</ele>
        <time>2020-02-28T19:53:56Z</time>
      </trkpt>
      <trkpt lat="40.296100" lon="-4.836640">
        <ele>852.767</ele>
        <time>2020-02-28T19:54:16Z</time>
      </trkpt>
      <trkpt lat="40.295930" lon="-4.836670">
        <ele>851.290</ele>
        <time>2020-02-28T19:54:36Z</time>
      </trkpt>
      <trkpt lat="40.295450" lon="-4.836570">
        <ele>848.635</ele>
        <time>2020-02-28T19:54:56Z</time>
      </trkpt>
      <trkpt lat="40.294890" lon="-4.836370">
        <ele>842.886</ele>
        <time>2020-02-28T19:55:16Z</time>
      </trkpt>
      <trkpt lat="40.294660" lon="-4.836310">
        <ele>840.928</ele>
        <time>2020-02-28T19:55:36Z</time>
      </trkpt>
      <trkpt lat="40.294610" lon="-4.836320">
        <ele>840.186</ele>
        <time>2020-02-28T19:55:56Z</time>
      </trkpt>
      <trkpt lat="40.294570" lon="-4.836320">
        <ele>839.769</ele>
        <time>2020-02-28T19:56:16Z</time>
      </trkpt>
      <trkpt lat="40.294540" lon="-4.836340">
        <ele>838.744</ele>
        <time>2020-02-28T19:56:36Z</time>
      </trkpt>
      <trkpt lat="40.294520" lon="-4.836340">
        <ele>838.565</ele>
        <time>2020-02-28T19:56:56Z</time>
      </trkpt>
      <trkpt lat="40.294500" lon="-4.836350">
        <ele>838.068</ele>
        <time>2020-02-28T19:57:16Z</time>
      </trkpt>
      <trkpt lat="40.294280" lon="-4.836330">
        <ele>836.614</ele>
        <time>2020-02-28T19:57:36Z</time>
      </trkpt>
      <trkpt lat="40.294160" lon="-4.836260">
        <ele>837.208</ele>
        <time>2020-02-28T19:57:56Z</time>
      </trkpt>
      <trkpt lat="40.294080" lon="-4.836170">
        <ele>838.130</ele>
        <time>2020-02-28T19:58:16Z</time>
      </trkpt>
      <trkpt lat="40.293940" lon="-4.836040">
        <ele>839.173</ele>
        <time>2020-02-28T19:58:36Z</time>
      </trkpt>
      <trkpt lat="40.293880" lon="-4.836010">
        <ele>838.868</ele>
        <time>2020-02-28T19:58:56Z</time>
      </trkpt>
      <trkpt lat="40.293850" lon="-4.836010">
        <ele>838.279</ele>
        <time>2020-02-28T19:59:16Z</time>
      </trkpt>
      <trkpt lat="40.293860" lon="-4.836080">
        <ele>836.521</ele>
        <time>2020-02-28T19:59:36Z</time>
      </trkpt>
      <trkpt lat="40.293880" lon="-4.836130">
        <ele>835.539</ele>
        <time>2020-02-28T19:59:56Z</time>
      </trkpt>
      <trkpt lat="40.294220" lon="-4.836540">
        <ele>831.212</ele>
        <time>2020-02-28T20:00:16Z</time>
      </trkpt>
      <trkpt lat="40.294170" lon="-4.836520">
        <ele>831.227</ele>
        <time>2020-02-28T20:00:36Z</time>
      </trkpt>
      <trkpt lat="40.294100" lon="-4.836510">
        <ele>830.511</ele>
        <time>2020-02-28T20:00:56Z</time>
      </trkpt>
      <trkpt lat="40.294040" lon="-4.836470">
        <ele>830.621</ele>
        <time>2020-02-28T20:01:16Z</time>
      </trkpt>
      <trkpt lat="40.294030" lon="-4.836470">
        <ele>830.503</ele>
        <time>2020-02-28T20:01:36Z</time>
      </trkpt>
      <trkpt lat="40.293970" lon="-4.836430">
        <ele>830.808</ele>
        <time>2020-02-28T20:01:56Z</time>
      </trkpt>
      <trkpt lat="40.293910" lon="-4.836410">
        <ele>830.665</ele>
        <time>2020-02-28T20:02:16Z</time>
      </trkpt>
      <trkpt lat="40.293540" lon="-4.836240">
        <ele>827.738</ele>
        <time>2020-02-28T20:02:36Z</time>
      </trkpt>
      <trkpt lat="40.293490" lon="-4.836230">
        <ele>826.883</ele>
        <time>2020-02-28T20:02:56Z</time>
      </trkpt>
      <trkpt lat="40.293400" lon="-4.836230">
        <ele>824.924</ele>
        <time>2020-02-28T20:03:16Z</time>
      </trkpt>
      <trkpt lat="40.293360" lon="-4.836240">
        <ele>823.886</ele>
        <time>2020-02-28T20:03:36Z</time>
      </trkpt>
      <trkpt lat="40.293340" lon="-4.836250">
        <ele>823.154</ele>
        <time>2020-02-28T20:03:56Z</time>
      </trkpt>
      <trkpt lat="40.293310" lon="-4.836250">
        <ele>822.647</ele>
        <time>2020-02-28T20:04:16Z</time>
      </trkpt>
      <trkpt lat="40.293290" lon="-4.836240">
        <ele>822.572</ele>
        <time>2020-02-28T20:04:36Z</time>
      </trkpt>
      <trkpt lat="40.293260" lon="-4.836240">
        <ele>822.061</ele>
        <time>2020-02-28T20:04:56Z</time>
      </trkpt>
      <trkpt lat="40.293190" lon="-4.836190">
        <ele>821.921</ele>
        <time>2020-02-28T20:05:16Z</time>
      </trkpt>
      <trkpt lat="40.293090" lon="-4.836140">
        <ele>821.113</ele>
        <time>2020-02-28T20:05:36Z</time>
      </trkpt>
      <trkpt lat="40.292980" lon="-4.836070">
        <ele>819.908</ele>
        <time>2020-02-28T20:05:56Z</time>
      </trkpt>
      <trkpt lat="40.292840" lon="-4.835960">
        <ele>818.450</ele>
        <time>2020-02-28T20:06:16Z</time>
      </trkpt>
      <trkpt lat="40.292820" lon="-4.835910">
        <ele>818.833</ele>
        <time>2020-02-28T20:06:36Z</time>
      </trkpt>
      <trkpt lat="40.292790" lon="-4.835860">
        <ele>818.938</ele>
        <time>2020-02-28T20:06:56Z</time>
      </trkpt>
      <trkpt lat="40.292790" lon="-4.835840">
        <ele>819.299</ele>
        <time>2020-02-28T20:07:16Z</time>
      </trkpt>
      <trkpt lat="40.292680" lon="-4.835390">
        <ele>819.021</ele>
        <time>2020-02-28T20:07:36Z</time>
      </trkpt>
      <trkpt lat="40.292590" lon="-4.834830">
        <ele>819.159</ele>
        <time>2020-02-28T20:07:56Z</time>
      </trkpt>
      <trkpt lat="40.292580" lon="-4.834400">
        <ele>822.052</ele>
        <time>2020-02-28T20:08:16Z</time>
      </trkpt>
      <trkpt lat="40.292570" lon="-4.834360">
        <ele>822.097</ele>
        <time>2020-02-28T20:08:36Z</time>
      </trkpt>
      <trkpt lat="40.292570" lon="-4.834340">
        <ele>822.258</ele>
        <time>2020-02-28T20:08:56Z</time>
      </trkpt>
      <trkpt lat="40.292560" lon="-4.834320">
        <ele>822.152</ele>
        <time>2020-02-28T20:09:16Z</time>
      </trkpt>
      <trkpt lat="40.292540" lon="-4.834300">
        <ele>821.717</ele>
        <time>2020-02-28T20:09:36Z</time>
      </trkpt>
      <trkpt lat="40.292480" lon="-4.834270">
        <ele>820.908</ele>
        <time>2020-02-28T20:09:56Z</time>
      </trkpt>
      <trkpt lat="40.292420" lon="-4.834280">
        <ele>821.089</ele>
        <time>2020-02-28T20:10:16Z</time>
      </trkpt>
      <trkpt lat="40.292320" lon="-4.834310">
        <ele>820.762</ele>
        <time>2020-02-28T20:10:36Z</time>
      </trkpt>
      <trkpt lat="40.292230" lon="-4.834370">
        <ele>819.677</ele>
        <time>2020-02-28T20:10:56Z</time>
      </trkpt>
      <trkpt lat="40.292050" lon="-4.834590">
        <ele>817.348</ele>
        <time>2020-02-28T20:11:16Z</time>
      </trkpt>
      <trkpt lat="40.292040" lon="-4.834590">
        <ele>817.530</ele>
        <time>2020-02-28T20:11:36Z</time>
      </trkpt>
      <trkpt lat="40.291530" lon="-4.835220">
        <ele>812.798</ele>
        <time>2020-02-28T20:11:56Z</time>
      </trkpt>
      <trkpt lat="40.291410" lon="-4.835350">
        <ele>812.651</ele>
        <time>2020-02-28T20:12:16Z</time>
      </trkpt>
      <trkpt lat="40.291290" lon="-4.835510">
        <ele>811.836</ele>
        <time>2020-02-28T20:12:36Z</time>
      </trkpt>
      <trkpt lat="40.291130" lon="-4.835880">
        <ele>809.859</ele>
        <time>2020-02-28T20:12:56Z</time>
      </trkpt>
      <trkpt lat="40.290900" lon="-4.836500">
        <ele>802.603</ele>
        <time>2020-02-28T20:13:16Z</time>
      </trkpt>
      <trkpt lat="40.290850" lon="-4.836580">
        <ele>801.623</ele>
        <time>2020-02-28T20:13:36Z</time>
      </trkpt>
      <trkpt lat="40.290810" lon="-4.836620">
        <ele>801.008</ele>
        <time>2020-02-28T20:13:56Z</time>
      </trkpt>
      <trkpt lat="40.290760" lon="-4.836640">
        <ele>800.639</ele>
        <time>2020-02-28T20:14:16Z</time>
      </trkpt>
      <trkpt lat="40.290570" lon="-4.836580">
        <ele>802.212</ele>
        <time>2020-02-28T20:14:36Z</time>
      </trkpt>
      <trkpt lat="40.290390" lon="-4.836550">
        <ele>802.527</ele>
        <time>2020-02-28T20:14:56Z</time>
      </trkpt>
      <trkpt lat="40.290290" lon="-4.836510">
        <ele>803.728</ele>
        <time>2020-02-28T20:15:16Z</time>
      </trkpt>
      <trkpt lat="40.290150" lon="-4.836420">
        <ele>803.750</ele>
        <time>2020-02-28T20:15:36Z</time>
      </trkpt>
      <trkpt lat="40.289950" lon="-4.836220">
        <ele>803.888</ele>
        <time>2020-02-28T20:15:56Z</time>
      </trkpt>
      <trkpt lat="40.289810" lon="-4.836040">
        <ele>806.731</ele>
        <time>2020-02-28T20:16:16Z</time>
      </trkpt>
      <trkpt lat="40.289730" lon="-4.836010">
        <ele>806.636</ele>
        <time>2020-02-28T20:16:36Z</time>
      </trkpt>
      <trkpt lat="40.289670" lon="-4.835970">
        <ele>807.357</ele>
        <time>2020-02-28T20:16:56Z</time>
      </trkpt>
      <trkpt lat="40.289590" lon="-4.835970">
        <ele>806.800</ele>
        <time>2020-02-28T20:17:16Z</time>
      </trkpt>
      <trkpt lat="40.289180" lon="-4.836040">
        <ele>800.020</ele>
        <time>2020-02-28T20:17:36Z</time>
      </trkpt>
      <trkpt lat="40.289090" lon="-4.836040">
        <ele>797.608</ele>
        <time>2020-02-28T20:17:56Z</time>
      </trkpt>
      <trkpt lat="40.288990" lon="-4.836030">
        <ele>795.089</ele>
        <time>2020-02-28T20:18:16Z</time>
      </trkpt>
      <trkpt lat="40.288620" lon="-4.835680">
        <ele>794.942</ele>
        <time>2020-02-28T20:18:36Z</time>
      </trkpt>
      <trkpt lat="40.288560" lon="-4.835610">
        <ele>797.197</ele>
        <time>2020-02-28T20:18:56Z</time>
      </trkpt>
      <trkpt lat="40.288490" lon="-4.835570">
        <ele>798.138</ele>
        <time>2020-02-28T20:19:16Z</time>
      </trkpt>
      <trkpt lat="40.288470" lon="-4.835570">
        <ele>797.930</ele>
        <time>2020-02-28T20:19:36Z</time>
      </trkpt>
      <trkpt lat="40.288450" lon="-4.835560">
        <ele>798.188</ele>
        <time>2020-02-28T20:19:56Z</time>
      </trkpt>
      <trkpt lat="40.288350" lon="-4.835580">
        <ele>796.281</ele>
        <time>2020-02-28T20:20:16Z</time>
      </trkpt>
      <trkpt lat="40.288300" lon="-4.835610">
        <ele>795.736</ele>
        <time>2020-02-28T20:20:36Z</time>
      </trkpt>
      <trkpt lat="40.288210" lon="-4.835740">
        <ele>793.485</ele>
        <time>2020-02-28T20:20:56Z</time>
      </trkpt>
      <trkpt lat="40.288000" lon="-4.836000">
        <ele>791.989</ele>
        <time>2020-02-28T20:21:16Z</time>
      </trkpt>
      <trkpt lat="40.287720" lon="-4.836400">
        <ele>788.117</ele>
        <time>2020-02-28T20:21:36Z</time>
      </trkpt>
      <trkpt lat="40.287660" lon="-4.836460">
        <ele>786.908</ele>
        <time>2020-02-28T20:21:56Z</time>
      </trkpt>
      <trkpt lat="40.287570" lon="-4.836530">
        <ele>785.622</ele>
        <time>2020-02-28T20:22:16Z</time>
      </trkpt>
      <trkpt lat="40.287370" lon="-4.836600">
        <ele>783.345</ele>
        <time>2020-02-28T20:22:36Z</time>
      </trkpt>
      <trkpt lat="40.286430" lon="-4.836670">
        <ele>774.990</ele>
        <time>2020-02-28T20:22:56Z</time>
      </trkpt>
      <trkpt lat="40.286100" lon="-4.836710">
        <ele>772.671</ele>
        <time>2020-02-28T20:23:16Z</time>
      </trkpt>
      <trkpt lat="40.284890" lon="-4.836780">
        <ele>768.333</ele>
        <time>2020-02-28T20:23:36Z</time>
      </trkpt>
      <trkpt lat="40.284630" lon="-4.836780">
        <ele>766.591</ele>
        <time>2020-02-28T20:23:56Z</time>
      </trkpt>
      <trkpt lat="40.284550" lon="-4.836790">
        <ele>765.484</ele>
        <time>2020-02-28T20:24:16Z</time>
      </trkpt>
      <trkpt lat="40.284420" lon="-4.836760">
        <ele>765.099</ele>
        <time>2020-02-28T20:24:36Z</time>
      </trkpt>
      <trkpt lat="40.284390" lon="-4.836740">
        <ele>765.178</ele>
        <time>2020-02-28T20:24:56Z</time>
      </trkpt>
      <trkpt lat="40.283810" lon="-4.836450">
        <ele>764.933</ele>
        <time>2020-02-28T20:25:16Z</time>
      </trkpt>
      <trkpt lat="40.283720" lon="-4.836420">
        <ele>765.026</ele>
        <time>2020-02-28T20:25:36Z</time>
      </trkpt>
      <trkpt lat="40.283710" lon="-4.836410">
        <ele>765.208</ele>
        <time>2020-02-28T20:25:56Z</time>
      </trkpt>
      <trkpt lat="40.283330" lon="-4.836360">
        <ele>762.751</ele>
        <time>2020-02-28T20:26:16Z</time>
      </trkpt>
      <trkpt lat="40.283000" lon="-4.836370">
        <ele>760.234</ele>
        <time>2020-02-28T20:26:36Z</time>
      </trkpt>
      <trkpt lat="40.282840" lon="-4.836400">
        <ele>759.079</ele>
        <time>2020-02-28T20:26:56Z</time>
      </trkpt>
      <trkpt lat="40.282660" lon="-4.836520">
        <ele>757.120</ele>
        <time>2020-02-28T20:27:16Z</time>
      </trkpt>
      <trkpt lat="40.282630" lon="-4.836550">
        <ele>756.642</ele>
        <time>2020-02-28T20:27:36Z</time>
      </trkpt>
      <trkpt lat="40.282530" lon="-4.836600">
        <ele>756.170</ele>
        <time>2020-02-28T20:27:56Z</time>
      </trkpt>
      <trkpt lat="40.282500" lon="-4.836600">
        <ele>756.283</ele>
        <time>2020-02-28T20:28:16Z</time>
      </trkpt>
      <trkpt lat="40.282470" lon="-4.836610">
        <ele>756.038</ele>
        <time>2020-02-28T20:28:36Z</time>
      </trkpt>
      <trkpt lat="40.282150" lon="-4.836630">
        <ele>756.675</ele>
        <time>2020-02-28T20:28:56Z</time>
      </trkpt>
      <trkpt lat="40.281960" lon="-4.836660">
        <ele>758.028</ele>
        <time>2020-02-28T20:29:16Z</time>
      </trkpt>
      <trkpt lat="40.281870" lon="-4.836690">
        <ele>758.120</ele>
        <time>2020-02-28T20:29:36Z</time>
      </trkpt>
      <trkpt lat="40.281710" lon="-4.836780">
        <ele>757.308</ele>
        <time>2020-02-28T20:29:56Z</time>
      </trkpt>
      <trkpt lat="40.281480" lon="-4.836930">
        <ele>756.151</ele>
        <time>2020-02-28T20:30:16Z</time>
      </trkpt>
      <trkpt lat="40.281260" lon="-4.837100">
        <ele>754.074</ele>
        <time>2020-02-28T20:30:36Z</time>
      </trkpt>
      <trkpt lat="40.281180" lon="-4.837140">
        <ele>753.659</ele>
        <time>2020-02-28T20:30:56Z</time>
      </trkpt>
      <trkpt lat="40.281040" lon="-4.837190">
        <ele>752.640</ele>
        <time>2020-02-28T20:31:16Z</time>
      </trkpt>
      <trkpt lat="40.280840" lon="-4.837190">
        <ele>751.962</ele>
        <time>2020-02-28T20:31:36Z</time>
      </trkpt>
      <trkpt lat="40.280790" lon="-4.837180">
        <ele>752.130</ele>
        <time>2020-02-28T20:31:56Z</time>
      </trkpt>
      <trkpt lat="40.280740" lon="-4.837180">
        <ele>751.993</ele>
        <time>2020-02-28T20:32:16Z</time>
      </trkpt>
      <trkpt lat="40.280480" lon="-4.837100">
        <ele>753.688</ele>
        <time>2020-02-28T20:32:36Z</time>
      </trkpt>
      <trkpt lat="40.280400" lon="-4.837090">
        <ele>753.892</ele>
        <time>2020-02-28T20:32:56Z</time>
      </trkpt>
      <trkpt lat="40.280350" lon="-4.837090">
        <ele>753.873</ele>
        <time>2020-02-28T20:33:16Z</time>
      </trkpt>
      <trkpt lat="40.280300" lon="-4.837100">
        <ele>753.620</ele>
        <time>2020-02-28T20:33:36Z</time>
      </trkpt>
      <trkpt lat="40.280260" lon="-4.837120">
        <ele>753.308</ele>
        <time>2020-02-28T20:33:56Z</time>
      </trkpt>
      <trkpt lat="40.280170" lon="-4.837190">
        <ele>752.553</ele>
        <time>2020-02-28T20:34:16Z</time>
      </trkpt>
      <trkpt lat="40.280090" lon="-4.837270">
        <ele>751.276</ele>
        <time>2020-02-28T20:34:36Z</time>
      </trkpt>
      <trkpt lat="40.279870" lon="-4.837540">
        <ele>748.071</ele>
        <time>2020-02-28T20:34:56Z</time>
      </trkpt>
      <trkpt lat="40.279810" lon="-4.837640">
        <ele>747.162</ele>
        <time>2020-02-28T20:35:16Z</time>
      </trkpt>
      <trkpt lat="40.279750" lon="-4.837830">
        <ele>745.644</ele>
        <time>2020-02-28T20:35:36Z</time>
      </trkpt>
      <trkpt lat="40.279740" lon="-4.837890">
        <ele>745.372</ele>
        <time>2020-02-28T20:35:56Z</time>
      </trkpt>
      <trkpt lat="40.279740" lon="-4.838420">
        <ele>738.625</ele>
        <time>2020-02-28T20:36:16Z</time>
      </trkpt>
      <trkpt lat="40.279720" lon="-4.838640">
        <ele>736.710</ele>
        <time>2020-02-28T20:36:36Z</time>
      </trkpt>
      <trkpt lat="40.279660" lon="-4.838860">
        <ele>735.757</ele>
        <time>2020-02-28T20:36:56Z</time>
      </trkpt>
      <trkpt lat="40.279520" lon="-4.839260">
        <ele>733.800</ele>
        <time>2020-02-28T20:37:16Z</time>
      </trkpt>
      <trkpt lat="40.279390" lon="-4.839570">
        <ele>730.820</ele>
        <time>2020-02-28T20:37:36Z</time>
      </trkpt>
      <trkpt lat="40.279360" lon="-4.839620">
        <ele>730.008</ele>
        <time>2020-02-28T20:37:56Z</time>
      </trkpt>
      <trkpt lat="40.279330" lon="-4.839650">
        <ele>729.629</ele>
        <time>2020-02-28T20:38:16Z</time>
      </trkpt>
      <trkpt lat="40.279200" lon="-4.839680">
        <ele>729.522</ele>
        <time>2020-02-28T20:38:36Z</time>
      </trkpt>
      <trkpt lat="40.279130" lon="-4.839660">
        <ele>729.217</ele>
        <time>2020-02-28T20:38:56Z</time>
      </trkpt>
      <trkpt lat="40.279100" lon="-4.839640">
        <ele>729.048</ele>
        <time>2020-02-28T20:39:16Z</time>
      </trkpt>
      <trkpt lat="40.279000" lon="-4.839600">
        <ele>728.220</ele>
        <time>2020-02-28T20:39:36Z</time>
      </trkpt>
      <trkpt lat="40.278910" lon="-4.839580">
        <ele>727.428</ele>
        <time>2020-02-28T20:39:56Z</time>
      </trkpt>
      <trkpt lat="40.278850" lon="-4.839580">
        <ele>726.941</ele>
        <time>2020-02-28T20:40:16Z</time>
      </trkpt>
      <trkpt lat="40.278790" lon="-4.839590">
        <ele>726.376</ele>
        <time>2020-02-28T20:40:36Z</time>
      </trkpt>
      <trkpt lat="40.278730" lon="-4.839610">
        <ele>725.339</ele>
        <time>2020-02-28T20:40:56Z</time>
      </trkpt>
      <trkpt lat="40.278640" lon="-4.839660">
        <ele>723.201</ele>
        <time>2020-02-28T20:41:16Z</time>
      </trkpt>
      <trkpt lat="40.277990" lon="-4.840150">
        <ele>715.721</ele>
        <time>2020-02-28T20:41:36Z</time>
      </trkpt>
      <trkpt lat="40.277840" lon="-4.840280">
        <ele>713.508</ele>
        <time>2020-02-28T20:41:56Z</time>
      </trkpt>
      <trkpt lat="40.277720" lon="-4.840410">
        <ele>711.337</ele>
        <time>2020-02-28T20:42:16Z</time>
      </trkpt>
      <trkpt lat="40.277420" lon="-4.840850">
        <ele>703.130</ele>
        <time>2020-02-28T20:42:36Z</time>
      </trkpt>
      <trkpt lat="40.277310" lon="-4.840900">
        <ele>702.485</ele>
        <time>2020-02-28T20:42:56Z</time>
      </trkpt>
      <trkpt lat="40.277060" lon="-4.840940">
        <ele>703.586</ele>
        <time>2020-02-28T20:43:16Z</time>
      </trkpt>
      <trkpt lat="40.277000" lon="-4.840970">
        <ele>703.518</ele>
        <time>2020-02-28T20:43:36Z</time>
      </trkpt>
      <trkpt lat="40.276960" lon="-4.841010">
        <ele>703.026</ele>
        <time>2020-02-28T20:43:56Z</time>
      </trkpt>
      <trkpt lat="40.276940" lon="-4.841020">
        <ele>703.029</ele>
        <time>2020-02-28T20:44:16Z</time>
      </trkpt>
      <trkpt lat="40.276880" lon="-4.841120">
        <ele>702.034</ele>
        <time>2020-02-28T20:44:36Z</time>
      </trkpt>
      <trkpt lat="40.276740" lon="-4.841420">
        <ele>698.529</ele>
        <time>2020-02-28T20:44:56Z</time>
      </trkpt>
      <trkpt lat="40.276700" lon="-4.841560">
        <ele>696.900</ele>
        <time>2020-02-28T20:45:16Z</time>
      </trkpt>
      <trkpt lat="40.276620" lon="-4.841710">
        <ele>695.820</ele>
        <time>2020-02-28T20:45:36Z</time>
      </trkpt>
      <trkpt lat="40.276570" lon="-4.841760">
        <ele>695.508</ele>
        <time>2020-02-28T20:45:56Z</time>
      </trkpt>
      <trkpt lat="40.276560" lon="-4.841780">
        <ele>695.276</ele>
        <time>2020-02-28T20:46:16Z</time>
      </trkpt>
      <trkpt lat="40.276370" lon="-4.842050">
        <ele>693.419</ele>
        <time>2020-02-28T20:46:36Z</time>
      </trkpt>
      <trkpt lat="40.276180" lon="-4.842360">
        <ele>691.054</ele>
        <time>2020-02-28T20:46:56Z</time>
      </trkpt>
      <trkpt lat="40.276110" lon="-4.842500">
        <ele>690.075</ele>
        <time>2020-02-28T20:47:16Z</time>
      </trkpt>
      <trkpt lat="40.275970" lon="-4.842690">
        <ele>687.927</ele>
        <time>2020-02-28T20:47:36Z</time>
      </trkpt>
      <trkpt lat="40.275910" lon="-4.842720">
        <ele>688.195</ele>
        <time>2020-02-28T20:47:56Z</time>
      </trkpt>
      <trkpt lat="40.275850" lon="-4.842760">
        <ele>688.138</ele>
        <time>2020-02-28T20:48:16Z</time>
      </trkpt>
      <trkpt lat="40.275490" lon="-4.842870">
        <ele>687.583</ele>
        <time>2020-02-28T20:48:36Z</time>
      </trkpt>
      <trkpt lat="40.275320" lon="-4.842900">
        <ele>686.485</ele>
        <time>2020-02-28T20:48:56Z</time>
      </trkpt>
      <trkpt lat="40.275110" lon="-4.842900">
        <ele>685.889</ele>
        <time>2020-02-28T20:49:16Z</time>
      </trkpt>
      <trkpt lat="40.274950" lon="-4.842870">
        <ele>685.917</ele>
        <time>2020-02-28T20:49:36Z</time>
      </trkpt>
      <trkpt lat="40.274810" lon="-4.842870">
        <ele>685.608</ele>
        <time>2020-02-28T20:49:56Z</time>
      </trkpt>
      <trkpt lat="40.274730" lon="-4.842880">
        <ele>685.282</ele>
        <time>2020-02-28T20:50:16Z</time>
      </trkpt>
      <trkpt lat="40.274580" lon="-4.842930">
        <ele>683.385</ele>
        <time>2020-02-28T20:50:36Z</time>
      </trkpt>
      <trkpt lat="40.274570" lon="-4.842930">
        <ele>683.270</ele>
        <time>2020-02-28T20:50:56Z</time>
      </trkpt>
      <trkpt lat="40.273590" lon="-4.843270">
        <ele>670.051</ele>
        <time>2020-02-28T20:51:16Z</time>
      </trkpt>
      <trkpt lat="40.273370" lon="-4.843360">
        <ele>669.853</ele>
        <time>2020-02-28T20:51:36Z</time>
      </trkpt>
      <trkpt lat="40.273250" lon="-4.843450">
        <ele>668.851</ele>
        <time>2020-02-28T20:51:56Z</time>
      </trkpt>
      <trkpt lat="40.273240" lon="-4.843470">
        <ele>668.754</ele>
        <time>2020-02-28T20:52:16Z</time>
      </trkpt>
      <trkpt lat="40.273110" lon="-4.843630">
        <ele>667.929</ele>
        <time>2020-02-28T20:52:36Z</time>
      </trkpt>
      <trkpt lat="40.273110" lon="-4.843640">
        <ele>667.945</ele>
        <time>2020-02-28T20:52:56Z</time>
      </trkpt>
      <trkpt lat="40.272250" lon="-4.844830">
        <ele>665.247</ele>
        <time>2020-02-28T20:53:16Z</time>
      </trkpt>
      <trkpt lat="40.272240" lon="-4.844850">
        <ele>665.011</ele>
        <time>2020-02-28T20:53:36Z</time>
      </trkpt>
      <trkpt lat="40.271870" lon="-4.845340">
        <ele>660.308</ele>
        <time>2020-02-28T20:53:56Z</time>
      </trkpt>
      <trkpt lat="40.271860" lon="-4.845360">
        <ele>660.128</ele>
        <time>2020-02-28T20:54:16Z</time>
      </trkpt>
      <trkpt lat="40.271780" lon="-4.845400">
        <ele>659.711</ele>
        <time>2020-02-28T20:54:36Z</time>
      </trkpt>
      <trkpt lat="40.271710" lon="-4.845420">
        <ele>659.516</ele>
        <time>2020-02-28T20:54:56Z</time>
      </trkpt>
      <trkpt lat="40.271630" lon="-4.845430">
        <ele>659.257</ele>
        <time>2020-02-28T20:55:16Z</time>
      </trkpt>
      <trkpt lat="40.271580" lon="-4.845430">
        <ele>658.949</ele>
        <time>2020-02-28T20:55:36Z</time>
      </trkpt>
      <trkpt lat="40.271430" lon="-4.845400">
        <ele>658.537</ele>
        <time>2020-02-28T20:55:56Z</time>
      </trkpt>
      <trkpt lat="40.271160" lon="-4.845280">
        <ele>656.770</ele>
        <time>2020-02-28T20:56:16Z</time>
      </trkpt>
      <trkpt lat="40.270870" lon="-4.845180">
        <ele>656.655</ele>
        <time>2020-02-28T20:56:36Z</time>
      </trkpt>
      <trkpt lat="40.270790" lon="-4.845180">
        <ele>656.651</ele>
        <time>2020-02-28T20:56:56Z</time>
      </trkpt>
      <trkpt lat="40.270720" lon="-4.845190">
        <ele>656.601</ele>
        <time>2020-02-28T20:57:16Z</time>
      </trkpt>
      <trkpt lat="40.270660" lon="-4.845220">
        <ele>656.111</ele>
        <time>2020-02-28T20:57:36Z</time>
      </trkpt>
      <trkpt lat="40.270550" lon="-4.845300">
        <ele>654.508</ele>
        <time>2020-02-28T20:57:56Z</time>
      </trkpt>
      <trkpt lat="40.270450" lon="-4.845440">
        <ele>652.499</ele>
        <time>2020-02-28T20:58:16Z</time>
      </trkpt>
      <trkpt lat="40.269910" lon="-4.846490">
        <ele>641.432</ele>
        <time>2020-02-28T20:58:36Z</time>
      </trkpt>
      <trkpt lat="40.269890" lon="-4.846510">
        <ele>641.837</ele>
        <time>2020-02-28T20:58:56Z</time>
      </trkpt>
      <trkpt lat="40.269700" lon="-4.846910">
        <ele>640.618</ele>
        <time>2020-02-28T20:59:16Z</time>
      </trkpt>
      <trkpt lat="40.269310" lon="-4.847600">
        <ele>636.340</ele>
        <time>2020-02-28T20:59:36Z</time>
      </trkpt>
      <trkpt lat="40.269220" lon="-4.847730">
        <ele>635.118</ele>
        <time>2020-02-28T20:59:56Z</time>
      </trkpt>
      <trkpt lat="40.269130" lon="-4.847810">
        <ele>634.581</ele>
        <time>2020-02-28T21:00:16Z</time>
      </trkpt>
      <trkpt lat="40.269060" lon="-4.847850">
        <ele>634.296</ele>
        <time>2020-02-28T21:00:36Z</time>
      </trkpt>
      <trkpt lat="40.268960" lon="-4.847880">
        <ele>634.686</ele>
        <time>2020-02-28T21:00:56Z</time>
      </trkpt>
      <trkpt lat="40.268820" lon="-4.847900">
        <ele>634.960</ele>
        <time>2020-02-28T21:01:16Z</time>
      </trkpt>
      <trkpt lat="40.268530" lon="-4.847900">
        <ele>633.926</ele>
        <time>2020-02-28T21:01:36Z</time>
      </trkpt>
      <trkpt lat="40.268370" lon="-4.847870">
        <ele>632.508</ele>
        <time>2020-02-28T21:01:56Z</time>
      </trkpt>
      <trkpt lat="40.268170" lon="-4.847810">
        <ele>632.112</ele>
        <time>2020-02-28T21:02:16Z</time>
      </trkpt>
      <trkpt lat="40.268100" lon="-4.847800">
        <ele>631.815</ele>
        <time>2020-02-28T21:02:36Z</time>
      </trkpt>
      <trkpt lat="40.268020" lon="-4.847800">
        <ele>631.570</ele>
        <time>2020-02-28T21:02:56Z</time>
      </trkpt>
      <trkpt lat="40.267970" lon="-4.847820">
        <ele>631.041</ele>
        <time>2020-02-28T21:03:16Z</time>
      </trkpt>
      <trkpt lat="40.267900" lon="-4.847860">
        <ele>630.133</ele>
        <time>2020-02-28T21:03:36Z</time>
      </trkpt>
      <trkpt lat="40.267890" lon="-4.847860">
        <ele>630.081</ele>
        <time>2020-02-28T21:03:56Z</time>
      </trkpt>
      <trkpt lat="40.267430" lon="-4.848210">
        <ele>624.084</ele>
        <time>2020-02-28T21:04:16Z</time>
      </trkpt>
      <trkpt lat="40.267290" lon="-4.848360">
        <ele>622.939</ele>
        <time>2020-02-28T21:04:36Z</time>
      </trkpt>
      <trkpt lat="40.267280" lon="-4.848360">
        <ele>623.057</ele>
        <time>2020-02-28T21:04:56Z</time>
      </trkpt>
      <trkpt lat="40.267150" lon="-4.848510">
        <ele>622.900</ele>
        <time>2020-02-28T21:05:16Z</time>
      </trkpt>
      <trkpt lat="40.266920" lon="-4.848880">
        <ele>620.720</ele>
        <time>2020-02-28T21:05:36Z</time>
      </trkpt>
      <trkpt lat="40.266780" lon="-4.849160">
        <ele>618.108</ele>
        <time>2020-02-28T21:05:56Z</time>
      </trkpt>
      <trkpt lat="40.266630" lon="-4.849360">
        <ele>616.449</ele>
        <time>2020-02-28T21:06:16Z</time>
      </trkpt>
      <trkpt lat="40.266500" lon="-4.849500">
        <ele>615.212</ele>
        <time>2020-02-28T21:06:36Z</time>
      </trkpt>
      <trkpt lat="40.266360" lon="-4.849610">
        <ele>614.727</ele>
        <time>2020-02-28T21:06:56Z</time>
      </trkpt>
      <trkpt lat="40.266270" lon="-4.849660">
        <ele>614.548</ele>
        <time>2020-02-28T21:07:16Z</time>
      </trkpt>
      <trkpt lat="40.266260" lon="-4.849670">
        <ele>614.450</ele>
        <time>2020-02-28T21:07:36Z</time>
      </trkpt>
      <trkpt lat="40.265970" lon="-4.849770">
        <ele>614.578</ele>
        <time>2020-02-28T21:07:56Z</time>
      </trkpt>
      <trkpt lat="40.264860" lon="-4.850010">
        <ele>610.331</ele>
        <time>2020-02-28T21:08:16Z</time>
      </trkpt>
      <trkpt lat="40.264780" lon="-4.850040">
        <ele>609.516</ele>
        <time>2020-02-28T21:08:36Z</time>
      </trkpt>
      <trkpt lat="40.264680" lon="-4.850050">
        <ele>608.772</ele>
        <time>2020-02-28T21:08:56Z</time>
      </trkpt>
      <trkpt lat="40.264650" lon="-4.850060">
        <ele>608.313</ele>
        <time>2020-02-28T21:09:16Z</time>
      </trkpt>
      <trkpt lat="40.264560" lon="-4.850060">
        <ele>607.414</ele>
        <time>2020-02-28T21:09:36Z</time>
      </trkpt>
      <trkpt lat="40.264500" lon="-4.850050">
        <ele>607.008</ele>
        <time>2020-02-28T21:09:56Z</time>
      </trkpt>
      <trkpt lat="40.264460" lon="-4.850030">
        <ele>606.851</ele>
        <time>2020-02-28T21:10:16Z</time>
      </trkpt>
      <trkpt lat="40.264420" lon="-4.849990">
        <ele>607.084</ele>
        <time>2020-02-28T21:10:36Z</time>
      </trkpt>
      <trkpt lat="40.264350" lon="-4.849870">
        <ele>607.759</ele>
        <time>2020-02-28T21:10:56Z</time>
      </trkpt>
      <trkpt lat="40.264130" lon="-4.849560">
        <ele>607.680</ele>
        <time>2020-02-28T21:11:16Z</time>
      </trkpt>
      <trkpt lat="40.263840" lon="-4.849070">
        <ele>605.372</ele>
        <time>2020-02-28T21:11:36Z</time>
      </trkpt>
      <trkpt lat="40.263790" lon="-4.849000">
        <ele>605.590</ele>
        <time>2020-02-28T21:11:56Z</time>
      </trkpt>
      <trkpt lat="40.263570" lon="-4.848630">
        <ele>605.093</ele>
        <time>2020-02-28T21:12:16Z</time>
      </trkpt>
      <trkpt lat="40.263080" lon="-4.847940">
        <ele>602.188</ele>
        <time>2020-02-28T21:12:36Z</time>
      </trkpt>
      <trkpt lat="40.263080" lon="-4.847930">
        <ele>602.253</ele>
        <time>2020-02-28T21:12:56Z</time>
      </trkpt>
      <trkpt lat="40.263010" lon="-4.847800">
        <ele>602.204</ele>
        <time>2020-02-28T21:13:16Z</time>
      </trkpt>
      <trkpt lat="40.262970" lon="-4.847750">
        <ele>601.914</ele>
        <time>2020-02-28T21:13:36Z</time>
      </trkpt>
      <trkpt lat="40.262690" lon="-4.847150">
        <ele>597.908</ele>
        <time>2020-02-28T21:13:56Z</time>
      </trkpt>
      <trkpt lat="40.262620" lon="-4.846940">
        <ele>597.239</ele>
        <time>2020-02-28T21:14:16Z</time>
      </trkpt>
      <trkpt lat="40.262620" lon="-4.846930">
        <ele>597.292</ele>
        <time>2020-02-28T21:14:36Z</time>
      </trkpt>
      <trkpt lat="40.262560" lon="-4.846750">
        <ele>596.277</ele>
        <time>2020-02-28T21:14:56Z</time>
      </trkpt>
      <trkpt lat="40.262450" lon="-4.846150">
        <ele>592.128</ele>
        <time>2020-02-28T21:15:16Z</time>
      </trkpt>
      <trkpt lat="40.262420" lon="-4.845730">
        <ele>588.450</ele>
        <time>2020-02-28T21:15:36Z</time>
      </trkpt>
      <trkpt lat="40.262380" lon="-4.845440">
        <ele>586.268</ele>
        <time>2020-02-28T21:15:56Z</time>
      </trkpt>
      <trkpt lat="40.262340" lon="-4.845280">
        <ele>584.711</ele>
        <time>2020-02-28T21:16:16Z</time>
      </trkpt>
      <trkpt lat="40.262280" lon="-4.845120">
        <ele>584.456</ele>
        <time>2020-02-28T21:16:36Z</time>
      </trkpt>
      <trkpt lat="40.262280" lon="-4.845110">
        <ele>584.462</ele>
        <time>2020-02-28T21:16:56Z</time>
      </trkpt>
      <trkpt lat="40.261960" lon="-4.844540">
        <ele>579.583</ele>
        <time>2020-02-28T21:17:16Z</time>
      </trkpt>
      <trkpt lat="40.261950" lon="-4.844540">
        <ele>579.211</ele>
        <time>2020-02-28T21:17:36Z</time>
      </trkpt>
      <trkpt lat="40.261850" lon="-4.844380">
        <ele>577.908</ele>
        <time>2020-02-28T21:17:56Z</time>
      </trkpt>
      <trkpt lat="40.261810" lon="-4.844300">
        <ele>577.320</ele>
        <time>2020-02-28T21:18:16Z</time>
      </trkpt>
      <trkpt lat="40.261730" lon="-4.844020">
        <ele>576.093</ele>
        <time>2020-02-28T21:18:36Z</time>
      </trkpt>
      <trkpt lat="40.261620" lon="-4.843530">
        <ele>572.658</ele>
        <time>2020-02-28T21:18:56Z</time>
      </trkpt>
      <trkpt lat="40.261230" lon="-4.841460">
        <ele>558.139</ele>
        <time>2020-02-28T21:19:16Z</time>
      </trkpt>
      <trkpt lat="40.261220" lon="-4.841450">
        <ele>558.021</ele>
        <time>2020-02-28T21:19:36Z</time>
      </trkpt>
      <trkpt lat="40.261030" lon="-4.840450">
        <ele>553.589</ele>
        <time>2020-02-28T21:19:56Z</time>
      </trkpt>
      <trkpt lat="40.260970" lon="-4.840230">
        <ele>553.682</ele>
        <time>2020-02-28T21:20:16Z</time>
      </trkpt>
      <trkpt lat="40.260900" lon="-4.840080">
        <ele>553.417</ele>
        <time>2020-02-28T21:20:36Z</time>
      </trkpt>
      <trkpt lat="40.260310" lon="-4.839540">
        <ele>550.956</ele>
        <time>2020-02-28T21:20:56Z</time>
      </trkpt>
      <trkpt lat="40.260300" lon="-4.839540">
        <ele>550.859</ele>
        <time>2020-02-28T21:21:16Z</time>
      </trkpt>
      <trkpt lat="40.259540" lon="-4.838870">
        <ele>544.914</ele>
        <time>2020-02-28T21:21:36Z</time>
      </trkpt>
      <trkpt lat="40.259490" lon="-4.838810">
        <ele>544.408</ele>
        <time>2020-02-28T21:21:56Z</time>
      </trkpt>
      <trkpt lat="40.259400" lon="-4.838620">
        <ele>544.129</ele>
        <time>2020-02-28T21:22:16Z</time>
      </trkpt>
      <trkpt lat="40.259360" lon="-4.838420">
        <ele>544.022</ele>
        <time>2020-02-28T21:22:36Z</time>
      </trkpt>
      <trkpt lat="40.259380" lon="-4.836580">
        <ele>536.227</ele>
        <time>2020-02-28T21:22:56Z</time>
      </trkpt>
      <trkpt lat="40.259360" lon="-4.836110">
        <ele>532.828</ele>
        <time>2020-02-28T21:23:16Z</time>
      </trkpt>
      <trkpt lat="40.259310" lon="-4.835660">
        <ele>529.640</ele>
        <time>2020-02-28T21:23:36Z</time>
      </trkpt>
      <trkpt lat="40.259190" lon="-4.835020">
        <ele>525.358</ele>
        <time>2020-02-28T21:23:56Z</time>
      </trkpt>
      <trkpt lat="40.259180" lon="-4.834990">
        <ele>525.161</ele>
        <time>2020-02-28T21:24:16Z</time>
      </trkpt>
      <trkpt lat="40.259000" lon="-4.833830">
        <ele>518.296</ele>
        <time>2020-02-28T21:24:36Z</time>
      </trkpt>
      <trkpt lat="40.258980" lon="-4.833750">
        <ele>517.352</ele>
        <time>2020-02-28T21:24:56Z</time>
      </trkpt>
      <trkpt lat="40.258960" lon="-4.833610">
        <ele>515.853</ele>
        <time>2020-02-28T21:25:16Z</time>
      </trkpt>
      <trkpt lat="40.258900" lon="-4.833420">
        <ele>513.708</ele>
        <time>2020-02-28T21:25:36Z</time>
      </trkpt>
      <trkpt lat="40.258860" lon="-4.833380">
        <ele>513.108</ele>
        <time>2020-02-28T21:25:56Z</time>
      </trkpt>
      <trkpt lat="40.258820" lon="-4.833350">
        <ele>512.629</ele>
        <time>2020-02-28T21:26:16Z</time>
      </trkpt>
      <trkpt lat="40.258710" lon="-4.833300">
        <ele>511.482</ele>
        <time>2020-02-28T21:26:36Z</time>
      </trkpt>
      <trkpt lat="40.258610" lon="-4.833290">
        <ele>510.517</ele>
        <time>2020-02-28T21:26:56Z</time>
      </trkpt>
      <trkpt lat="40.258530" lon="-4.833310">
        <ele>510.118</ele>
        <time>2020-02-28T21:27:16Z</time>
      </trkpt>
      <trkpt lat="40.258520" lon="-4.833310">
        <ele>510.120</ele>
        <time>2020-02-28T21:27:36Z</time>
      </trkpt>
      <trkpt lat="40.258020" lon="-4.833420">
        <ele>504.398</ele>
        <time>2020-02-28T21:27:56Z</time>
      </trkpt>
      <trkpt lat="40.257800" lon="-4.833530">
        <ele>500.931</ele>
        <time>2020-02-28T21:28:16Z</time>
      </trkpt>
      <trkpt lat="40.257200" lon="-4.834200">
        <ele>490.796</ele>
        <time>2020-02-28T21:28:36Z</time>
      </trkpt>
      <trkpt lat="40.257140" lon="-4.834240">
        <ele>489.896</ele>
        <time>2020-02-28T21:28:56Z</time>
      </trkpt>
      <trkpt lat="40.257050" lon="-4.834260">
        <ele>488.231</ele>
        <time>2020-02-28T21:29:16Z</time>
      </trkpt>
      <trkpt lat="40.257020" lon="-4.834260">
        <ele>487.724</ele>
        <time>2020-02-28T21:29:36Z</time>
      </trkpt>
      <trkpt lat="40.256970" lon="-4.834240">
        <ele>486.708</ele>
        <time>2020-02-28T21:29:56Z</time>
      </trkpt>
      <trkpt lat="40.256950" lon="-4.834220">
        <ele>486.393</ele>
        <time>2020-02-28T21:30:16Z</time>
      </trkpt>
      <trkpt lat="40.256920" lon="-4.834170">
        <ele>485.726</ele>
        <time>2020-02-28T21:30:36Z</time>
      </trkpt>
      <trkpt lat="40.256910" lon="-4.834110">
        <ele>485.411</ele>
        <time>2020-02-28T21:30:56Z</time>
      </trkpt>
      <trkpt lat="40.256880" lon="-4.834020">
        <ele>484.742</ele>
        <time>2020-02-28T21:31:16Z</time>
      </trkpt>
      <trkpt lat="40.256760" lon="-4.833160">
        <ele>479.134</ele>
        <time>2020-02-28T21:31:36Z</time>
      </trkpt>
      <trkpt lat="40.256720" lon="-4.833010">
        <ele>477.632</ele>
        <time>2020-02-28T21:31:56Z</time>
      </trkpt>
      <trkpt lat="40.256590" lon="-4.832670">
        <ele>474.525</ele>
        <time>2020-02-28T21:32:16Z</time>
      </trkpt>
      <trkpt lat="40.256420" lon="-4.832440">
        <ele>472.060</ele>
        <time>2020-02-28T21:32:36Z</time>
      </trkpt>
      <trkpt lat="40.256320" lon="-4.832350">
        <ele>470.591</ele>
        <time>2020-02-28T21:32:56Z</time>
      </trkpt>
      <trkpt lat="40.256240" lon="-4.832260">
        <ele>469.081</ele>
        <time>2020-02-28T21:33:16Z</time>
      </trkpt>
      <trkpt lat="40.256180" lon="-4.832220">
        <ele>468.019</ele>
        <time>2020-02-28T21:33:36Z</time>
      </trkpt>
      <trkpt lat="40.255340" lon="-4.831540">
        <ele>461.208</ele>
        <time>2020-02-28T21:33:56Z</time>
      </trkpt>
      <trkpt lat="40.254430" lon="-4.830850">
        <ele>459.823</ele>
        <time>2020-02-28T21:34:16Z</time>
      </trkpt>
      <trkpt lat="40.253740" lon="-4.830370">
        <ele>455.056</ele>
        <time>2020-02-28T21:34:36Z</time>
      </trkpt>
      <trkpt lat="40.253700" lon="-4.830390">
        <ele>455.031</ele>
        <time>2020-02-28T21:34:56Z</time>
      </trkpt>
      <trkpt lat="40.253510" lon="-4.830560">
        <ele>455.022</ele>
        <time>2020-02-28T21:35:16Z</time>
      </trkpt>
      <trkpt lat="40.252790" lon="-4.832080">
        <ele>452.524</ele>
        <time>2020-02-28T21:35:36Z</time>
      </trkpt>
      <trkpt lat="40.252750" lon="-4.832120">
        <ele>452.572</ele>
        <time>2020-02-28T21:35:56Z</time>
      </trkpt>
      <trkpt lat="40.249760" lon="-4.838560">
        <ele>460.085</ele>
        <time>2020-02-28T21:36:16Z</time>
      </trkpt>
      <trkpt lat="40.249690" lon="-4.838690">
        <ele>460.080</ele>
        <time>2020-02-28T21:36:36Z</time>
      </trkpt>
      <trkpt lat="40.248760" lon="-4.840700">
        <ele>463.888</ele>
        <time>2020-02-28T21:36:56Z</time>
      </trkpt>
      <trkpt lat="40.248750" lon="-4.840740">
        <ele>463.824</ele>
        <time>2020-02-28T21:37:16Z</time>
      </trkpt>
      <trkpt lat="40.248560" lon="-4.841140">
        <ele>464.126</ele>
        <time>2020-02-28T21:37:36Z</time>
      </trkpt>
      <trkpt lat="40.248390" lon="-4.841560">
        <ele>464.208</ele>
        <time>2020-02-28T21:37:56Z</time>
      </trkpt>
      <trkpt lat="40.248260" lon="-4.842040">
        <ele>463.752</ele>
        <time>2020-02-28T21:38:16Z</time>
      </trkpt>
      <trkpt lat="40.247900" lon="-4.845030">
        <ele>455.025</ele>
        <time>2020-02-28T21:38:36Z</time>
      </trkpt>
      <trkpt lat="40.247650" lon="-4.847510">
        <ele>464.040</ele>
        <time>2020-02-28T21:38:56Z</time>
      </trkpt>
      <trkpt lat="40.247630" lon="-4.847600">
        <ele>464.471</ele>
        <time>2020-02-28T21:39:16Z</time>
      </trkpt>
      <trkpt lat="40.247540" lon="-4.848480">
        <ele>467.533</ele>
        <time>2020-02-28T21:39:36Z</time>
      </trkpt>
      <trkpt lat="40.247540" lon="-4.848530">
        <ele>467.751</ele>
        <time>2020-02-28T21:39:56Z</time>
      </trkpt>
      <trkpt lat="40.247500" lon="-4.848850">
        <ele>468.074</ele>
        <time>2020-02-28T21:40:16Z</time>
      </trkpt>
      <trkpt lat="40.247490" lon="-4.849400">
        <ele>468.049</ele>
        <time>2020-02-28T21:40:36Z</time>
      </trkpt>
      <trkpt lat="40.247580" lon="-4.852410">
        <ele>470.298</ele>
        <time>2020-02-28T21:40:56Z</time>
      </trkpt>
      <trkpt lat="40.247630" lon="-4.853070">
        <ele>469.915</ele>
        <time>2020-02-28T21:41:16Z</time>
      </trkpt>
      <trkpt lat="40.247690" lon="-4.853510">
        <ele>470.326</ele>
        <time>2020-02-28T21:41:36Z</time>
      </trkpt>
      <trkpt lat="40.248040" lon="-4.855180">
        <ele>475.208</ele>
        <time>2020-02-28T21:41:56Z</time>
      </trkpt>
      <trkpt lat="40.248180" lon="-4.856080">
        <ele>475.923</ele>
        <time>2020-02-28T21:42:16Z</time>
      </trkpt>
      <trkpt lat="40.248210" lon="-4.856800">
        <ele>475.936</ele>
        <time>2020-02-28T21:42:36Z</time>
      </trkpt>
      <trkpt lat="40.248190" lon="-4.857300">
        <ele>474.861</ele>
        <time>2020-02-28T21:42:56Z</time>
      </trkpt>
      <trkpt lat="40.248090" lon="-4.858050">
        <ele>474.222</ele>
        <time>2020-02-28T21:43:16Z</time>
      </trkpt>
      <trkpt lat="40.247930" lon="-4.858690">
        <ele>475.814</ele>
        <time>2020-02-28T21:43:36Z</time>
      </trkpt>
      <trkpt lat="40.247810" lon="-4.859020">
        <ele>476.662</ele>
        <time>2020-02-28T21:43:56Z</time>
      </trkpt>
      <trkpt lat="40.247790" lon="-4.859100">
        <ele>476.845</ele>
        <time>2020-02-28T21:44:16Z</time>
      </trkpt>
      <trkpt lat="40.247570" lon="-4.859610">
        <ele>476.490</ele>
        <time>2020-02-28T21:44:36Z</time>
      </trkpt>
      <trkpt lat="40.247280" lon="-4.860130">
        <ele>480.757</ele>
        <time>2020-02-28T21:44:56Z</time>
      </trkpt>
      <trkpt lat="40.246950" lon="-4.860600">
        <ele>485.100</ele>
        <time>2020-02-28T21:45:16Z</time>
      </trkpt>
      <trkpt lat="40.246720" lon="-4.860870">
        <ele>489.320</ele>
        <time>2020-02-28T21:45:36Z</time>
      </trkpt>
      <trkpt lat="40.246510" lon="-4.861080">
        <ele>491.108</ele>
        <time>2020-02-28T21:45:56Z</time>
      </trkpt>
      <trkpt lat="40.245580" lon="-4.861900">
        <ele>504.489</ele>
        <time>2020-02-28T21:46:16Z</time>
      </trkpt>
      <trkpt lat="40.245520" lon="-4.861970">
        <ele>505.232</ele>
        <time>2020-02-28T21:46:36Z</time>
      </trkpt>
      <trkpt lat="40.245080" lon="-4.862380">
        <ele>505.327</ele>
        <time>2020-02-28T21:46:56Z</time>
      </trkpt>
      <trkpt lat="40.244330" lon="-4.863230">
        <ele>500.438</ele>
        <time>2020-02-28T21:47:16Z</time>
      </trkpt>
      <trkpt lat="40.243950" lon="-4.863720">
        <ele>498.980</ele>
        <time>2020-02-28T21:47:36Z</time>
      </trkpt>
      <trkpt lat="40.243040" lon="-4.865000">
        <ele>484.948</ele>
        <time>2020-02-28T21:47:56Z</time>
      </trkpt>
      <trkpt lat="40.242490" lon="-4.865670">
        <ele>484.991</ele>
        <time>2020-02-28T21:48:16Z</time>
      </trkpt>
      <trkpt lat="40.241880" lon="-4.866300">
        <ele>483.626</ele>
        <time>2020-02-28T21:48:36Z</time>
      </trkpt>
      <trkpt lat="40.241540" lon="-4.866590">
        <ele>480.525</ele>
        <time>2020-02-28T21:48:56Z</time>
      </trkpt>
      <trkpt lat="40.240960" lon="-4.867020">
        <ele>475.026</ele>
        <time>2020-02-28T21:49:16Z</time>
      </trkpt>
      <trkpt lat="40.236170" lon="-4.870010">
        <ele>445.508</ele>
        <time>2020-02-28T21:49:36Z</time>
      </trkpt>
      <trkpt lat="40.235770" lon="-4.870340">
        <ele>445.208</ele>
        <time>2020-02-28T21:49:56Z</time>
      </trkpt>
      <trkpt lat="40.235440" lon="-4.870670">
        <ele>445.776</ele>
        <time>2020-02-28T21:50:16Z</time>
      </trkpt>
      <trkpt lat="40.235070" lon="-4.871140">
        <ele>446.029</ele>
        <time>2020-02-28T21:50:36Z</time>
      </trkpt>
      <trkpt lat="40.234610" lon="-4.871930">
        <ele>442.354</ele>
        <time>2020-02-28T21:50:56Z</time>
      </trkpt>
      <trkpt lat="40.227320" lon="-4.885500">
        <ele>430.025</ele>
        <time>2020-02-28T21:51:16Z</time>
      </trkpt>
      <trkpt lat="40.226770" lon="-4.886470">
        <ele>431.077</ele>
        <time>2020-02-28T21:51:36Z</time>
      </trkpt>
      <trkpt lat="40.226650" lon="-4.886640">
        <ele>431.845</ele>
        <time>2020-02-28T21:51:56Z</time>
      </trkpt>
      <trkpt lat="40.226580" lon="-4.886780">
        <ele>432.448</ele>
        <time>2020-02-28T21:52:16Z</time>
      </trkpt>
      <trkpt lat="40.226310" lon="-4.887150">
        <ele>432.913</ele>
        <time>2020-02-28T21:52:36Z</time>
      </trkpt>
      <trkpt lat="40.225820" lon="-4.887650">
        <ele>431.557</ele>
        <time>2020-02-28T21:52:56Z</time>
      </trkpt>
      <trkpt lat="40.225770" lon="-4.887680">
        <ele>431.400</ele>
        <time>2020-02-28T21:53:16Z</time>
      </trkpt>
      <trkpt lat="40.224770" lon="-4.888520">
        <ele>434.520</ele>
        <time>2020-02-28T21:53:36Z</time>
      </trkpt>
      <trkpt lat="40.224780" lon="-4.888530">
        <ele>434.508</ele>
        <time>2020-02-28T21:53:56Z</time>
      </trkpt>
      <trkpt lat="40.224780" lon="-4.888570">
        <ele>434.659</ele>
        <time>2020-02-28T21:54:16Z</time>
      </trkpt>
      <trkpt lat="40.224790" lon="-4.888580">
        <ele>434.642</ele>
        <time>2020-02-28T21:54:36Z</time>
      </trkpt>
      <trkpt lat="40.224790" lon="-4.888610">
        <ele>434.877</ele>
        <time>2020-02-28T21:54:56Z</time>
      </trkpt>
      <trkpt lat="40.224780" lon="-4.888620">
        <ele>434.968</ele>
        <time>2020-02-28T21:55:16Z</time>
      </trkpt>
      <trkpt lat="40.224780" lon="-4.888660">
        <ele>435.180</ele>
        <time>2020-02-28T21:55:36Z</time>
      </trkpt>
      <trkpt lat="40.224770" lon="-4.888670">
        <ele>435.398</ele>
        <time>2020-02-28T21:55:56Z</time>
      </trkpt>
      <trkpt lat="40.224770" lon="-4.888680">
        <ele>435.391</ele>
        <time>2020-02-28T21:56:16Z</time>
      </trkpt>
      <trkpt lat="40.224760" lon="-4.888690">
        <ele>435.466</ele>
        <time>2020-02-28T21:56:36Z</time>
      </trkpt>
      <trkpt lat="40.224760" lon="-4.888700">
        <ele>435.542</ele>
        <time>2020-02-28T21:56:56Z</time>
      </trkpt>
      <trkpt lat="40.224750" lon="-4.888710">
        <ele>435.622</ele>
        <time>2020-02-28T21:57:16Z</time>
      </trkpt>
      <trkpt lat="40.224750" lon="-4.888720">
        <ele>435.714</ele>
        <time>2020-02-28T21:57:36Z</time>
      </trkpt>
      <trkpt lat="40.224740" lon="-4.888730">
        <ele>435.808</ele>
        <time>2020-02-28T21:57:56Z</time>
      </trkpt>
      <trkpt lat="40.224730" lon="-4.888730">
        <ele>435.898</ele>
        <time>2020-02-28T21:58:16Z</time>
      </trkpt>
      <trkpt lat="40.224730" lon="-4.888740">
        <ele>435.911</ele>
        <time>2020-02-28T21:58:36Z</time>
      </trkpt>
      <trkpt lat="40.224720" lon="-4.888750">
        <ele>436.046</ele>
        <time>2020-02-28T21:58:56Z</time>
      </trkpt>
      <trkpt lat="40.224710" lon="-4.888750">
        <ele>436.187</ele>
        <time>2020-02-28T21:59:16Z</time>
      </trkpt>
      <trkpt lat="40.224830" lon="-4.888970">
        <ele>436.919</ele>
        <time>2020-02-28T21:59:36Z</time>
      </trkpt>
      <trkpt lat="40.224850" lon="-4.889020">
        <ele>437.027</ele>
        <time>2020-02-28T21:59:56Z</time>
      </trkpt>
      <trkpt lat="40.224890" lon="-4.889090">
        <ele>437.140</ele>
        <time>2020-02-28T22:00:16Z</time>
      </trkpt>
      <trkpt lat="40.224950" lon="-4.889170">
        <ele>437.295</ele>
        <time>2020-02-28T22:00:36Z</time>
      </trkpt>
      <trkpt lat="40.224980" lon="-4.889200">
        <ele>437.345</ele>
        <time>2020-02-28T22:00:56Z</time>
      </trkpt>
      <trkpt lat="40.225070" lon="-4.889270">
        <ele>437.947</ele>
        <time>2020-02-28T22:01:16Z</time>
      </trkpt>
      <trkpt lat="40.225170" lon="-4.889320">
        <ele>438.411</ele>
        <time>2020-02-28T22:01:36Z</time>
      </trkpt>
      <trkpt lat="40.225260" lon="-4.889340">
        <ele>438.608</ele>
        <time>2020-02-28T22:01:56Z</time>
      </trkpt>
      <trkpt lat="40.225400" lon="-4.889340">
        <ele>438.648</ele>
        <time>2020-02-28T22:02:16Z</time>
      </trkpt>
      <trkpt lat="40.225500" lon="-4.889310">
        <ele>438.521</ele>
        <time>2020-02-28T22:02:36Z</time>
      </trkpt>
      <trkpt lat="40.226650" lon="-4.888630">
        <ele>447.866</ele>
        <time>2020-02-28T22:02:56Z</time>
      </trkpt>
      <trkpt lat="40.226820" lon="-4.888580">
        <ele>448.757</ele>
        <time>2020-02-28T22:03:16Z</time>
      </trkpt>
      <trkpt lat="40.227070" lon="-4.888580">
        <ele>450.139</ele>
        <time>2020-02-28T22:03:36Z</time>
      </trkpt>
      <trkpt lat="40.228640" lon="-4.888810">
        <ele>458.447</ele>
        <time>2020-02-28T22:03:56Z</time>
      </trkpt>
      <trkpt lat="40.228900" lon="-4.888810">
        <ele>460.970</ele>
        <time>2020-02-28T22:04:16Z</time>
      </trkpt>
      <trkpt lat="40.229020" lon="-4.888770">
        <ele>462.155</ele>
        <time>2020-02-28T22:04:36Z</time>
      </trkpt>
      <trkpt lat="40.229230" lon="-4.888680">
        <ele>463.488</ele>
        <time>2020-02-28T22:04:56Z</time>
      </trkpt>
      <trkpt lat="40.229690" lon="-4.888440">
        <ele>465.724</ele>
        <time>2020-02-28T22:05:16Z</time>
      </trkpt>
      <trkpt lat="40.229900" lon="-4.888350">
        <ele>467.426</ele>
        <time>2020-02-28T22:05:36Z</time>
      </trkpt>
      <trkpt lat="40.230030" lon="-4.888310">
        <ele>468.708</ele>
        <time>2020-02-28T22:05:56Z</time>
      </trkpt>
      <trkpt lat="40.230120" lon="-4.888310">
        <ele>469.712</ele>
        <time>2020-02-28T22:06:16Z</time>
      </trkpt>
      <trkpt lat="40.230160" lon="-4.888320">
        <ele>470.475</ele>
        <time>2020-02-28T22:06:36Z</time>
      </trkpt>
      <trkpt lat="40.230200" lon="-4.888320">
        <ele>470.970</ele>
        <time>2020-02-28T22:06:56Z</time>
      </trkpt>
      <trkpt lat="40.230300" lon="-4.888380">
        <ele>472.671</ele>
        <time>2020-02-28T22:07:16Z</time>
      </trkpt>
      <trkpt lat="40.230330" lon="-4.888410">
        <ele>472.773</ele>
        <time>2020-02-28T22:07:36Z</time>
      </trkpt>
      <trkpt lat="40.230390" lon="-4.888490">
        <ele>472.951</ele>
        <time>2020-02-28T22:07:56Z</time>
      </trkpt>
      <trkpt lat="40.230450" lon="-4.888590">
        <ele>473.074</ele>
        <time>2020-02-28T22:08:16Z</time>
      </trkpt>
      <trkpt lat="40.230560" lon="-4.888920">
        <ele>473.119</ele>
        <time>2020-02-28T22:08:36Z</time>
      </trkpt>
      <trkpt lat="40.230670" lon="-4.889090">
        <ele>472.415</ele>
        <time>2020-02-28T22:08:56Z</time>
      </trkpt>
      <trkpt lat="40.230720" lon="-4.889140">
        <ele>472.165</ele>
        <time>2020-02-28T22:09:16Z</time>
      </trkpt>
      <trkpt lat="40.230820" lon="-4.889190">
        <ele>471.211</ele>
        <time>2020-02-28T22:09:36Z</time>
      </trkpt>
      <trkpt lat="40.230900" lon="-4.889200">
        <ele>471.208</ele>
        <time>2020-02-28T22:09:56Z</time>
      </trkpt>
      <trkpt lat="40.230980" lon="-4.889200">
        <ele>471.385</ele>
        <time>2020-02-28T22:10:16Z</time>
      </trkpt>
      <trkpt lat="40.231060" lon="-4.889190">
        <ele>471.378</ele>
        <time>2020-02-28T22:10:36Z</time>
      </trkpt>
      <trkpt lat="40.231170" lon="-4.889130">
        <ele>472.353</ele>
        <time>2020-02-28T22:10:56Z</time>
      </trkpt>
      <trkpt lat="40.231230" lon="-4.889070">
        <ele>473.534</ele>
        <time>2020-02-28T22:11:16Z</time>
      </trkpt>
      <trkpt lat="40.231290" lon="-4.888990">
        <ele>474.526</ele>
        <time>2020-02-28T22:11:36Z</time>
      </trkpt>
      <trkpt lat="40.231340" lon="-4.888890">
        <ele>475.084</ele>
        <time>2020-02-28T22:11:56Z</time>
      </trkpt>
      <trkpt lat="40.231370" lon="-4.888810">
        <ele>475.917</ele>
        <time>2020-02-28T22:12:16Z</time>
      </trkpt>
      <trkpt lat="40.231390" lon="-4.888710">
        <ele>476.742</ele>
        <time>2020-02-28T22:12:36Z</time>
      </trkpt>
      <trkpt lat="40.231380" lon="-4.888200">
        <ele>479.255</ele>
        <time>2020-02-28T22:12:56Z</time>
      </trkpt>
      <trkpt lat="40.231390" lon="-4.888070">
        <ele>480.007</ele>
        <time>2020-02-28T22:13:16Z</time>
      </trkpt>
      <trkpt lat="40.231450" lon="-4.887870">
        <ele>480.817</ele>
        <time>2020-02-28T22:13:36Z</time>
      </trkpt>
      <trkpt lat="40.231460" lon="-4.887860">
        <ele>480.908</ele>
        <time>2020-02-28T22:13:56Z</time>
      </trkpt>
      <trkpt lat="40.231500" lon="-4.887770">
        <ele>481.639</ele>
        <time>2020-02-28T22:14:16Z</time>
      </trkpt>
      <trkpt lat="40.231600" lon="-4.887660">
        <ele>482.722</ele>
        <time>2020-02-28T22:14:36Z</time>
      </trkpt>
      <trkpt lat="40.231760" lon="-4.887560">
        <ele>484.097</ele>
        <time>2020-02-28T22:14:56Z</time>
      </trkpt>
      <trkpt lat="40.231830" lon="-4.887540">
        <ele>484.428</ele>
        <time>2020-02-28T22:15:16Z</time>
      </trkpt>
      <trkpt lat="40.231980" lon="-4.887540">
        <ele>485.410</ele>
        <time>2020-02-28T22:15:36Z</time>
      </trkpt>
      <trkpt lat="40.232230" lon="-4.887670">
        <ele>487.988</ele>
        <time>2020-02-28T22:15:56Z</time>
      </trkpt>
      <trkpt lat="40.233050" lon="-4.888170">
        <ele>494.761</ele>
        <time>2020-02-28T22:16:16Z</time>
      </trkpt>
      <trkpt lat="40.233150" lon="-4.888200">
        <ele>494.756</ele>
        <time>2020-02-28T22:16:36Z</time>
      </trkpt>
      <trkpt lat="40.233290" lon="-4.888200">
        <ele>494.273</ele>
        <time>2020-02-28T22:16:56Z</time>
      </trkpt>
      <trkpt lat="40.233350" lon="-4.888190">
        <ele>494.285</ele>
        <time>2020-02-28T22:17:16Z</time>
      </trkpt>
      <trkpt lat="40.233420" lon="-4.888160">
        <ele>495.113</ele>
        <time>2020-02-28T22:17:36Z</time>
      </trkpt>
      <trkpt lat="40.233520" lon="-4.888100">
        <ele>496.108</ele>
        <time>2020-02-28T22:17:56Z</time>
      </trkpt>
      <trkpt lat="40.233640" lon="-4.887970">
        <ele>496.281</ele>
        <time>2020-02-28T22:18:16Z</time>
      </trkpt>
      <trkpt lat="40.233680" lon="-4.887900">
        <ele>496.034</ele>
        <time>2020-02-28T22:18:36Z</time>
      </trkpt>
      <trkpt lat="40.233740" lon="-4.887740">
        <ele>495.579</ele>
        <time>2020-02-28T22:18:56Z</time>
      </trkpt>
      <trkpt lat="40.233760" lon="-4.887630">
        <ele>495.220</ele>
        <time>2020-02-28T22:19:16Z</time>
      </trkpt>
      <trkpt lat="40.233740" lon="-4.886900">
        <ele>497.762</ele>
        <time>2020-02-28T22:19:36Z</time>
      </trkpt>
      <trkpt lat="40.233760" lon="-4.886800">
        <ele>497.940</ele>
        <time>2020-02-28T22:19:56Z</time>
      </trkpt>
      <trkpt lat="40.233860" lon="-4.886590">
        <ele>499.223</ele>
        <time>2020-02-28T22:20:16Z</time>
      </trkpt>
      <trkpt lat="40.233910" lon="-4.886530">
        <ele>499.858</ele>
        <time>2020-02-28T22:20:36Z</time>
      </trkpt>
      <trkpt lat="40.234000" lon="-4.886450">
        <ele>500.565</ele>
        <time>2020-02-28T22:20:56Z</time>
      </trkpt>
      <trkpt lat="40.234060" lon="-4.886420">
        <ele>501.068</ele>
        <time>2020-02-28T22:21:16Z</time>
      </trkpt>
      <trkpt lat="40.234180" lon="-4.886400">
        <ele>502.314</ele>
        <time>2020-02-28T22:21:36Z</time>
      </trkpt>
      <trkpt lat="40.234330" lon="-4.886430">
        <ele>505.108</ele>
        <time>2020-02-28T22:21:56Z</time>
      </trkpt>
      <trkpt lat="40.234400" lon="-4.886470">
        <ele>506.540</ele>
        <time>2020-02-28T22:22:16Z</time>
      </trkpt>
      <trkpt lat="40.234460" lon="-4.886520">
        <ele>507.763</ele>
        <time>2020-02-28T22:22:36Z</time>
      </trkpt>
      <trkpt lat="40.234540" lon="-4.886630">
        <ele>509.258</ele>
        <time>2020-02-28T22:22:56Z</time>
      </trkpt>
      <trkpt lat="40.234580" lon="-4.886730">
        <ele>510.449</ele>
        <time>2020-02-28T22:23:16Z</time>
      </trkpt>
      <trkpt lat="40.234600" lon="-4.886840">
        <ele>511.581</ele>
        <time>2020-02-28T22:23:36Z</time>
      </trkpt>
      <trkpt lat="40.234620" lon="-4.887080">
        <ele>513.859</ele>
        <time>2020-02-28T22:23:56Z</time>
      </trkpt>
      <trkpt lat="40.234630" lon="-4.889190">
        <ele>518.412</ele>
        <time>2020-02-28T22:24:16Z</time>
      </trkpt>
      <trkpt lat="40.234660" lon="-4.889970">
        <ele>522.177</ele>
        <time>2020-02-28T22:24:36Z</time>
      </trkpt>
      <trkpt lat="40.234710" lon="-4.890310">
        <ele>523.724</ele>
        <time>2020-02-28T22:24:56Z</time>
      </trkpt>
      <trkpt lat="40.235120" lon="-4.891690">
        <ele>529.604</ele>
        <time>2020-02-28T22:25:16Z</time>
      </trkpt>
      <trkpt lat="40.235190" lon="-4.891840">
        <ele>529.914</ele>
        <time>2020-02-28T22:25:36Z</time>
      </trkpt>
      <trkpt lat="40.235310" lon="-4.892010">
        <ele>531.508</ele>
        <time>2020-02-28T22:25:56Z</time>
      </trkpt>
      <trkpt lat="40.235530" lon="-4.892240">
        <ele>534.516</ele>
        <time>2020-02-28T22:26:16Z</time>
      </trkpt>
      <trkpt lat="40.235580" lon="-4.892310">
        <ele>534.789</ele>
        <time>2020-02-28T22:26:36Z</time>
      </trkpt>
      <trkpt lat="40.235670" lon="-4.892470">
        <ele>535.214</ele>
        <time>2020-02-28T22:26:56Z</time>
      </trkpt>
      <trkpt lat="40.235710" lon="-4.892580">
        <ele>536.215</ele>
        <time>2020-02-28T22:27:16Z</time>
      </trkpt>
      <trkpt lat="40.235740" lon="-4.892720">
        <ele>537.697</ele>
        <time>2020-02-28T22:27:36Z</time>
      </trkpt>
      <trkpt lat="40.235750" lon="-4.892740">
        <ele>538.035</ele>
        <time>2020-02-28T22:27:56Z</time>
      </trkpt>
      <trkpt lat="40.235810" lon="-4.893200">
        <ele>542.738</ele>
        <time>2020-02-28T22:28:16Z</time>
      </trkpt>
      <trkpt lat="40.236040" lon="-4.894360">
        <ele>546.793</ele>
        <time>2020-02-28T22:28:36Z</time>
      </trkpt>
      <trkpt lat="40.236080" lon="-4.894640">
        <ele>548.652</ele>
        <time>2020-02-28T22:28:56Z</time>
      </trkpt>
      <trkpt lat="40.236070" lon="-4.894720">
        <ele>549.153</ele>
        <time>2020-02-28T22:29:16Z</time>
      </trkpt>
      <trkpt lat="40.236070" lon="-4.894790">
        <ele>549.408</ele>
        <time>2020-02-28T22:29:36Z</time>
      </trkpt>
      <trkpt lat="40.236040" lon="-4.894950">
        <ele>549.908</ele>
        <time>2020-02-28T22:29:56Z</time>
      </trkpt>
      <trkpt lat="40.236020" lon="-4.895000">
        <ele>550.019</ele>
        <time>2020-02-28T22:30:16Z</time>
      </trkpt>
      <trkpt lat="40.235970" lon="-4.895190">
        <ele>550.352</ele>
        <time>2020-02-28T22:30:36Z</time>
      </trkpt>
      <trkpt lat="40.235940" lon="-4.895260">
        <ele>549.597</ele>
        <time>2020-02-28T22:30:56Z</time>
      </trkpt>
      <trkpt lat="40.235730" lon="-4.895590">
        <ele>546.818</ele>
        <time>2020-02-28T22:31:16Z</time>
      </trkpt>
      <trkpt lat="40.235620" lon="-4.895840">
        <ele>547.170</ele>
        <time>2020-02-28T22:31:36Z</time>
      </trkpt>
      <trkpt lat="40.235580" lon="-4.895990">
        <ele>546.818</ele>
        <time>2020-02-28T22:31:56Z</time>
      </trkpt>
      <trkpt lat="40.235560" lon="-4.896150">
        <ele>547.351</ele>
        <time>2020-02-28T22:32:16Z</time>
      </trkpt>
      <trkpt lat="40.235620" lon="-4.898420">
        <ele>559.386</ele>
        <time>2020-02-28T22:32:36Z</time>
      </trkpt>
      <trkpt lat="40.235630" lon="-4.898520">
        <ele>560.225</ele>
        <time>2020-02-28T22:32:56Z</time>
      </trkpt>
      <trkpt lat="40.235660" lon="-4.899690">
        <ele>565.026</ele>
        <time>2020-02-28T22:33:16Z</time>
      </trkpt>
      <trkpt lat="40.235720" lon="-4.900540">
        <ele>566.608</ele>
        <time>2020-02-28T22:33:36Z</time>
      </trkpt>
      <trkpt lat="40.235720" lon="-4.900730">
        <ele>568.808</ele>
        <time>2020-02-28T22:33:56Z</time>
      </trkpt>
      <trkpt lat="40.235680" lon="-4.901060">
        <ele>572.536</ele>
        <time>2020-02-28T22:34:16Z</time>
      </trkpt>
      <trkpt lat="40.235670" lon="-4.901100">
        <ele>572.739</ele>
        <time>2020-02-28T22:34:36Z</time>
      </trkpt>
      <trkpt lat="40.235640" lon="-4.901330">
        <ele>574.794</ele>
        <time>2020-02-28T22:34:56Z</time>
      </trkpt>
      <trkpt lat="40.235630" lon="-4.901370">
        <ele>574.815</ele>
        <time>2020-02-28T22:35:16Z</time>
      </trkpt>
      <trkpt lat="40.235360" lon="-4.903320">
        <ele>580.447</ele>
        <time>2020-02-28T22:35:36Z</time>
      </trkpt>
      <trkpt lat="40.235330" lon="-4.903740">
        <ele>580.585</ele>
        <time>2020-02-28T22:35:56Z</time>
      </trkpt>
      <trkpt lat="40.235280" lon="-4.904000">
        <ele>582.098</ele>
        <time>2020-02-28T22:36:16Z</time>
      </trkpt>
      <trkpt lat="40.235250" lon="-4.904060">
        <ele>582.983</ele>
        <time>2020-02-28T22:36:36Z</time>
      </trkpt>
      <trkpt lat="40.235230" lon="-4.904120">
        <ele>583.891</ele>
        <time>2020-02-28T22:36:56Z</time>
      </trkpt>
      <trkpt lat="40.235170" lon="-4.904240">
        <ele>585.881</ele>
        <time>2020-02-28T22:37:16Z</time>
      </trkpt>
      <trkpt lat="40.235120" lon="-4.904320">
        <ele>587.219</ele>
        <time>2020-02-28T22:37:36Z</time>
      </trkpt>
      <trkpt lat="40.235070" lon="-4.904380">
        <ele>588.108</ele>
        <time>2020-02-28T22:37:56Z</time>
      </trkpt>
      <trkpt lat="40.234960" lon="-4.904470">
        <ele>589.623</ele>
        <time>2020-02-28T22:38:16Z</time>
      </trkpt>
      <trkpt lat="40.234000" lon="-4.905030">
        <ele>594.896</ele>
        <time>2020-02-28T22:38:36Z</time>
      </trkpt>
      <trkpt lat="40.233990" lon="-4.905030">
        <ele>594.821</ele>
        <time>2020-02-28T22:38:56Z</time>
      </trkpt>
      <trkpt lat="40.233860" lon="-4.905150">
        <ele>596.062</ele>
        <time>2020-02-28T22:39:16Z</time>
      </trkpt>
      <trkpt lat="40.233810" lon="-4.905210">
        <ele>596.574</ele>
        <time>2020-02-28T22:39:36Z</time>
      </trkpt>
      <trkpt lat="40.233660" lon="-4.905430">
        <ele>598.032</ele>
        <time>2020-02-28T22:39:56Z</time>
      </trkpt>
      <trkpt lat="40.233590" lon="-4.905570">
        <ele>598.785</ele>
        <time>2020-02-28T22:40:16Z</time>
      </trkpt>
      <trkpt lat="40.233550" lon="-4.905740">
        <ele>599.220</ele>
        <time>2020-02-28T22:40:36Z</time>
      </trkpt>
      <trkpt lat="40.233520" lon="-4.905820">
        <ele>599.361</ele>
        <time>2020-02-28T22:40:56Z</time>
      </trkpt>
      <trkpt lat="40.233490" lon="-4.906200">
        <ele>600.421</ele>
        <time>2020-02-28T22:41:16Z</time>
      </trkpt>
      <trkpt lat="40.233530" lon="-4.906450">
        <ele>601.513</ele>
        <time>2020-02-28T22:41:36Z</time>
      </trkpt>
      <trkpt lat="40.234220" lon="-4.908630">
        <ele>609.408</ele>
        <time>2020-02-28T22:41:56Z</time>
      </trkpt>
      <trkpt lat="40.234360" lon="-4.908990">
        <ele>612.550</ele>
        <time>2020-02-28T22:42:16Z</time>
      </trkpt>
      <trkpt lat="40.234430" lon="-4.909100">
        <ele>613.183</ele>
        <time>2020-02-28T22:42:36Z</time>
      </trkpt>
      <trkpt lat="40.234770" lon="-4.909490">
        <ele>616.598</ele>
        <time>2020-02-28T22:42:56Z</time>
      </trkpt>
      <trkpt lat="40.234810" lon="-4.909550">
        <ele>616.819</ele>
        <time>2020-02-28T22:43:16Z</time>
      </trkpt>
      <trkpt lat="40.234870" lon="-4.909680">
        <ele>617.011</ele>
        <time>2020-02-28T22:43:36Z</time>
      </trkpt>
      <trkpt lat="40.234880" lon="-4.909720">
        <ele>616.929</ele>
        <time>2020-02-28T22:43:56Z</time>
      </trkpt>
      <trkpt lat="40.234890" lon="-4.909740">
        <ele>617.282</ele>
        <time>2020-02-28T22:44:16Z</time>
      </trkpt>
      <trkpt lat="40.234910" lon="-4.909820">
        <ele>618.197</ele>
        <time>2020-02-28T22:44:36Z</time>
      </trkpt>
      <trkpt lat="40.235010" lon="-4.910470">
        <ele>623.639</ele>
        <time>2020-02-28T22:44:56Z</time>
      </trkpt>
      <trkpt lat="40.235010" lon="-4.910660">
        <ele>624.901</ele>
        <time>2020-02-28T22:45:16Z</time>
      </trkpt>
      <trkpt lat="40.234960" lon="-4.911160">
        <ele>627.721</ele>
        <time>2020-02-28T22:45:36Z</time>
      </trkpt>
      <trkpt lat="40.234920" lon="-4.911340">
        <ele>628.108</ele>
        <time>2020-02-28T22:45:56Z</time>
      </trkpt>
      <trkpt lat="40.234900" lon="-4.911390">
        <ele>628.367</ele>
        <time>2020-02-28T22:46:16Z</time>
      </trkpt>
      <trkpt lat="40.234840" lon="-4.911500">
        <ele>630.160</ele>
        <time>2020-02-28T22:46:36Z</time>
      </trkpt>
      <trkpt lat="40.234740" lon="-4.911590">
        <ele>631.445</ele>
        <time>2020-02-28T22:46:56Z</time>
      </trkpt>
      <trkpt lat="40.234610" lon="-4.911660">
        <ele>632.516</ele>
        <time>2020-02-28T22:47:16Z</time>
      </trkpt>
      <trkpt lat="40.234280" lon="-4.911790">
        <ele>633.718</ele>
        <time>2020-02-28T22:47:36Z</time>
      </trkpt>
      <trkpt lat="40.234230" lon="-4.911820">
        <ele>633.846</ele>
        <time>2020-02-28T22:47:56Z</time>
      </trkpt>
      <trkpt lat="40.234090" lon="-4.911950">
        <ele>634.439</ele>
        <time>2020-02-28T22:48:16Z</time>
      </trkpt>
      <trkpt lat="40.234080" lon="-4.911950">
        <ele>634.044</ele>
        <time>2020-02-28T22:48:36Z</time>
      </trkpt>
      <trkpt lat="40.234000" lon="-4.912060">
        <ele>634.687</ele>
        <time>2020-02-28T22:48:56Z</time>
      </trkpt>
      <trkpt lat="40.233520" lon="-4.912960">
        <ele>641.242</ele>
        <time>2020-02-28T22:49:16Z</time>
      </trkpt>
      <trkpt lat="40.233440" lon="-4.913070">
        <ele>641.026</ele>
        <time>2020-02-28T22:49:36Z</time>
      </trkpt>
      <trkpt lat="40.233430" lon="-4.913070">
        <ele>640.708</ele>
        <time>2020-02-28T22:49:56Z</time>
      </trkpt>
      <trkpt lat="40.233400" lon="-4.913110">
        <ele>640.712</ele>
        <time>2020-02-28T22:50:16Z</time>
      </trkpt>
      <trkpt lat="40.233290" lon="-4.913150">
        <ele>640.145</ele>
        <time>2020-02-28T22:50:36Z</time>
      </trkpt>
      <trkpt lat="40.233270" lon="-4.913150">
        <ele>640.280</ele>
        <time>2020-02-28T22:50:56Z</time>
      </trkpt>
      <trkpt lat="40.233240" lon="-4.913160">
        <ele>640.731</ele>
        <time>2020-02-28T22:51:16Z</time>
      </trkpt>
      <trkpt lat="40.233150" lon="-4.913140">
        <ele>641.013</ele>
        <time>2020-02-28T22:51:36Z</time>
      </trkpt>
      <trkpt lat="40.233090" lon="-4.913110">
        <ele>640.931</ele>
        <time>2020-02-28T22:51:56Z</time>
      </trkpt>
      <trkpt lat="40.232670" lon="-4.912720">
        <ele>639.534</ele>
        <time>2020-02-28T22:52:16Z</time>
      </trkpt>
      <trkpt lat="40.232520" lon="-4.912610">
        <ele>639.719</ele>
        <time>2020-02-28T22:52:36Z</time>
      </trkpt>
      <trkpt lat="40.232490" lon="-4.912610">
        <ele>640.165</ele>
        <time>2020-02-28T22:52:56Z</time>
      </trkpt>
      <trkpt lat="40.232480" lon="-4.912600">
        <ele>640.168</ele>
        <time>2020-02-28T22:53:16Z</time>
      </trkpt>
      <trkpt lat="40.232430" lon="-4.912600">
        <ele>640.914</ele>
        <time>2020-02-28T22:53:36Z</time>
      </trkpt>
      <trkpt lat="40.232330" lon="-4.912620">
        <ele>642.708</ele>
        <time>2020-02-28T22:53:56Z</time>
      </trkpt>
      <trkpt lat="40.232280" lon="-4.912650">
        <ele>643.820</ele>
        <time>2020-02-28T22:54:16Z</time>
      </trkpt>
      <trkpt lat="40.232200" lon="-4.912740">
        <ele>645.283</ele>
        <time>2020-02-28T22:54:36Z</time>
      </trkpt>
      <trkpt lat="40.232170" lon="-4.912800">
        <ele>645.328</ele>
        <time>2020-02-28T22:54:56Z</time>
      </trkpt>
      <trkpt lat="40.232150" lon="-4.912880">
        <ele>646.089</ele>
        <time>2020-02-28T22:55:16Z</time>
      </trkpt>
      <trkpt lat="40.232140" lon="-4.912960">
        <ele>646.981</ele>
        <time>2020-02-28T22:55:36Z</time>
      </trkpt>
      <trkpt lat="40.232140" lon="-4.913040">
        <ele>647.939</ele>
        <time>2020-02-28T22:55:56Z</time>
      </trkpt>
      <trkpt lat="40.232150" lon="-4.913070">
        <ele>648.582</ele>
        <time>2020-02-28T22:56:16Z</time>
      </trkpt>
      <trkpt lat="40.232150" lon="-4.913110">
        <ele>649.157</ele>
        <time>2020-02-28T22:56:36Z</time>
      </trkpt>
      <trkpt lat="40.232170" lon="-4.913170">
        <ele>650.278</ele>
        <time>2020-02-28T22:56:56Z</time>
      </trkpt>
      <trkpt lat="40.232200" lon="-4.913220">
        <ele>651.233</ele>
        <time>2020-02-28T22:57:16Z</time>
      </trkpt>
      <trkpt lat="40.232200" lon="-4.913230">
        <ele>651.426</ele>
        <time>2020-02-28T22:57:36Z</time>
      </trkpt>
      <trkpt lat="40.232250" lon="-4.913280">
        <ele>652.208</ele>
        <time>2020-02-28T22:57:56Z</time>
      </trkpt>
      <trkpt lat="40.232460" lon="-4.913440">
        <ele>655.071</ele>
        <time>2020-02-28T22:58:16Z</time>
      </trkpt>
      <trkpt lat="40.233120" lon="-4.913890">
        <ele>658.654</ele>
        <time>2020-02-28T22:58:36Z</time>
      </trkpt>
      <trkpt lat="40.233220" lon="-4.913940">
        <ele>659.039</ele>
        <time>2020-02-28T22:58:56Z</time>
      </trkpt>
      <trkpt lat="40.233290" lon="-4.913960">
        <ele>659.180</ele>
        <time>2020-02-28T22:59:16Z</time>
      </trkpt>
      <trkpt lat="40.233310" lon="-4.913960">
        <ele>658.932</ele>
        <time>2020-02-28T22:59:36Z</time>
      </trkpt>
      <trkpt lat="40.233410" lon="-4.913980">
        <ele>659.570</ele>
        <time>2020-02-28T22:59:56Z</time>
      </trkpt>
      <trkpt lat="40.234010" lon="-4.914000">
        <ele>660.683</ele>
        <time>2020-02-28T23:00:16Z</time>
      </trkpt>
      <trkpt lat="40.234090" lon="-4.914010">
        <ele>661.218</ele>
        <time>2020-02-28T23:00:36Z</time>
      </trkpt>
      <trkpt lat="40.234190" lon="-4.914010">
        <ele>661.836</ele>
        <time>2020-02-28T23:00:56Z</time>
      </trkpt>
      <trkpt lat="40.234260" lon="-4.914000">
        <ele>662.117</ele>
        <time>2020-02-28T23:01:16Z</time>
      </trkpt>
      <trkpt lat="40.234310" lon="-4.914000">
        <ele>662.518</ele>
        <time>2020-02-28T23:01:36Z</time>
      </trkpt>
      <trkpt lat="40.234450" lon="-4.913960">
        <ele>663.108</ele>
        <time>2020-02-28T23:01:56Z</time>
      </trkpt>
      <trkpt lat="40.234710" lon="-4.913860">
        <ele>663.647</ele>
        <time>2020-02-28T23:02:16Z</time>
      </trkpt>
      <trkpt lat="40.234720" lon="-4.913860">
        <ele>663.760</ele>
        <time>2020-02-28T23:02:36Z</time>
      </trkpt>
      <trkpt lat="40.234790" lon="-4.913840">
        <ele>663.715</ele>
        <time>2020-02-28T23:02:56Z</time>
      </trkpt>
      <trkpt lat="40.234870" lon="-4.913830">
        <ele>663.936</ele>
        <time>2020-02-28T23:03:16Z</time>
      </trkpt>
      <trkpt lat="40.234980" lon="-4.913830">
        <ele>664.378</ele>
        <time>2020-02-28T23:03:36Z</time>
      </trkpt>
      <trkpt lat="40.235150" lon="-4.913870">
        <ele>666.966</ele>
        <time>2020-02-28T23:03:56Z</time>
      </trkpt>
      <trkpt lat="40.235570" lon="-4.914010">
        <ele>671.659</ele>
        <time>2020-02-28T23:04:16Z</time>
      </trkpt>
      <trkpt lat="40.235660" lon="-4.914070">
        <ele>671.964</ele>
        <time>2020-02-28T23:04:36Z</time>
      </trkpt>
      <trkpt lat="40.235700" lon="-4.914110">
        <ele>672.195</ele>
        <time>2020-02-28T23:04:56Z</time>
      </trkpt>
      <trkpt lat="40.235740" lon="-4.914140">
        <ele>672.349</ele>
        <time>2020-02-28T23:05:16Z</time>
      </trkpt>
      <trkpt lat="40.235740" lon="-4.914150">
        <ele>672.423</ele>
        <time>2020-02-28T23:05:36Z</time>
      </trkpt>
      <trkpt lat="40.235790" lon="-4.914200">
        <ele>672.908</ele>
        <time>2020-02-28T23:05:56Z</time>
      </trkpt>
      <trkpt lat="40.235920" lon="-4.914380">
        <ele>674.783</ele>
        <time>2020-02-28T23:06:16Z</time>
      </trkpt>
      <trkpt lat="40.236020" lon="-4.914470">
        <ele>674.786</ele>
        <time>2020-02-28T23:06:36Z</time>
      </trkpt>
      <trkpt lat="40.236120" lon="-4.914530">
        <ele>674.261</ele>
        <time>2020-02-28T23:06:56Z</time>
      </trkpt>
      <trkpt lat="40.237360" lon="-4.915120">
        <ele>681.342</ele>
        <time>2020-02-28T23:07:16Z</time>
      </trkpt>
      <trkpt lat="40.237370" lon="-4.915130">
        <ele>681.464</ele>
        <time>2020-02-28T23:07:36Z</time>
      </trkpt>
      <trkpt lat="40.237580" lon="-4.915220">
        <ele>683.062</ele>
        <time>2020-02-28T23:07:56Z</time>
      </trkpt>
      <trkpt lat="40.237680" lon="-4.915240">
        <ele>683.915</ele>
        <time>2020-02-28T23:08:16Z</time>
      </trkpt>
      <trkpt lat="40.237830" lon="-4.915240">
        <ele>685.260</ele>
        <time>2020-02-28T23:08:36Z</time>
      </trkpt>
      <trkpt lat="40.237850" lon="-4.915230">
        <ele>685.334</ele>
        <time>2020-02-28T23:08:56Z</time>
      </trkpt>
      <trkpt lat="40.237890" lon="-4.915230">
        <ele>685.755</ele>
        <time>2020-02-28T23:09:16Z</time>
      </trkpt>
      <trkpt lat="40.238010" lon="-4.915180">
        <ele>686.510</ele>
        <time>2020-02-28T23:09:36Z</time>
      </trkpt>
      <trkpt lat="40.238470" lon="-4.914900">
        <ele>688.908</ele>
        <time>2020-02-28T23:09:56Z</time>
      </trkpt>
      <trkpt lat="40.238650" lon="-4.914820">
        <ele>689.377</ele>
        <time>2020-02-28T23:10:16Z</time>
      </trkpt>
      <trkpt lat="40.238690" lon="-4.914810">
        <ele>689.730</ele>
        <time>2020-02-28T23:10:36Z</time>
      </trkpt>
      <trkpt lat="40.238730" lon="-4.914810">
        <ele>690.345</ele>
        <time>2020-02-28T23:10:56Z</time>
      </trkpt>
      <trkpt lat="40.238780" lon="-4.914800">
        <ele>690.836</ele>
        <time>2020-02-28T23:11:16Z</time>
      </trkpt>
      <trkpt lat="40.238900" lon="-4.914800">
        <ele>692.518</ele>
        <time>2020-02-28T23:11:36Z</time>
      </trkpt>
      <trkpt lat="40.238950" lon="-4.914810">
        <ele>693.116</ele>
        <time>2020-02-28T23:11:56Z</time>
      </trkpt>
      <trkpt lat="40.238990" lon="-4.914830">
        <ele>693.819</ele>
        <time>2020-02-28T23:12:16Z</time>
      </trkpt>
      <trkpt lat="40.239050" lon="-4.914840">
        <ele>694.594</ele>
        <time>2020-02-28T23:12:36Z</time>
      </trkpt>
      <trkpt lat="40.239140" lon="-4.914870">
        <ele>695.975</ele>
        <time>2020-02-28T23:12:56Z</time>
      </trkpt>
      <trkpt lat="40.239150" lon="-4.914880">
        <ele>696.328</ele>
        <time>2020-02-28T23:13:16Z</time>
      </trkpt>
      <trkpt lat="40.239290" lon="-4.914880">
        <ele>696.020</ele>
        <time>2020-02-28T23:13:36Z</time>
      </trkpt>
      <trkpt lat="40.239330" lon="-4.914860">
        <ele>695.408</ele>
        <time>2020-02-28T23:13:56Z</time>
      </trkpt>
      <trkpt lat="40.239340" lon="-4.914860">
        <ele>695.411</ele>
        <time>2020-02-28T23:14:16Z</time>
      </trkpt>
      <trkpt lat="40.239400" lon="-4.914840">
        <ele>694.784</ele>
        <time>2020-02-28T23:14:36Z</time>
      </trkpt>
      <trkpt lat="40.239460" lon="-4.914800">
        <ele>694.469</ele>
        <time>2020-02-28T23:14:56Z</time>
      </trkpt>
      <trkpt lat="40.239550" lon="-4.914720">
        <ele>696.540</ele>
        <time>2020-02-28T23:15:16Z</time>
      </trkpt>
      <trkpt lat="40.239590" lon="-4.914670">
        <ele>697.572</ele>
        <time>2020-02-28T23:15:36Z</time>
      </trkpt>
      <trkpt lat="40.239620" lon="-4.914620">
        <ele>698.120</ele>
        <time>2020-02-28T23:15:56Z</time>
      </trkpt>
      <trkpt lat="40.239690" lon="-4.914470">
        <ele>699.053</ele>
        <time>2020-02-28T23:16:16Z</time>
      </trkpt>
      <trkpt lat="40.239690" lon="-4.914460">
        <ele>698.848</ele>
        <time>2020-02-28T23:16:36Z</time>
      </trkpt>
      <trkpt lat="40.239770" lon="-4.914260">
        <ele>698.953</ele>
        <time>2020-02-28T23:16:56Z</time>
      </trkpt>
      <trkpt lat="40.239770" lon="-4.914250">
        <ele>698.704</ele>
        <time>2020-02-28T23:17:16Z</time>
      </trkpt>
      <trkpt lat="40.239920" lon="-4.914020">
        <ele>700.314</ele>
        <time>2020-02-28T23:17:36Z</time>
      </trkpt>
      <trkpt lat="40.239970" lon="-4.913960">
        <ele>701.108</ele>
        <time>2020-02-28T23:17:56Z</time>
      </trkpt>
      <trkpt lat="40.240320" lon="-4.913640">
        <ele>704.469</ele>
        <time>2020-02-28T23:18:16Z</time>
      </trkpt>
      <trkpt lat="40.240350" lon="-4.913620">
        <ele>704.722</ele>
        <time>2020-02-28T23:18:36Z</time>
      </trkpt>
      <trkpt lat="40.240650" lon="-4.913320">
        <ele>705.457</ele>
        <time>2020-02-28T23:18:56Z</time>
      </trkpt>
      <trkpt lat="40.240750" lon="-4.913260">
        <ele>706.848</ele>
        <time>2020-02-28T23:19:16Z</time>
      </trkpt>
      <trkpt lat="40.240920" lon="-4.913190">
        <ele>709.120</ele>
        <time>2020-02-28T23:19:36Z</time>
      </trkpt>
      <trkpt lat="40.241020" lon="-4.913160">
        <ele>710.258</ele>
        <time>2020-02-28T23:19:56Z</time>
      </trkpt>
      <trkpt lat="40.241080" lon="-4.913150">
        <ele>711.111</ele>
        <time>2020-02-28T23:20:16Z</time>
      </trkpt>
      <trkpt lat="40.241140" lon="-4.913150">
        <ele>712.176</ele>
        <time>2020-02-28T23:20:36Z</time>
      </trkpt>
      <trkpt lat="40.241340" lon="-4.913120">
        <ele>714.496</ele>
        <time>2020-02-28T23:20:56Z</time>
      </trkpt>
      <trkpt lat="40.241430" lon="-4.913080">
        <ele>715.631</ele>
        <time>2020-02-28T23:21:16Z</time>
      </trkpt>
      <trkpt lat="40.241490" lon="-4.913030">
        <ele>716.424</ele>
        <time>2020-02-28T23:21:36Z</time>
      </trkpt>
      <trkpt lat="40.241750" lon="-4.912740">
        <ele>718.708</ele>
        <time>2020-02-28T23:21:56Z</time>
      </trkpt>
      <trkpt lat="40.241930" lon="-4.912500">
        <ele>719.543</ele>
        <time>2020-02-28T23:22:16Z</time>
      </trkpt>
      <trkpt lat="40.242030" lon="-4.912300">
        <ele>720.466</ele>
        <time>2020-02-28T23:22:36Z</time>
      </trkpt>
      <trkpt lat="40.242050" lon="-4.912180">
        <ele>720.381</ele>
        <time>2020-02-28T23:22:56Z</time>
      </trkpt>
      <trkpt lat="40.242050" lon="-4.912140">
        <ele>720.392</ele>
        <time>2020-02-28T23:23:16Z</time>
      </trkpt>
      <trkpt lat="40.242030" lon="-4.912040">
        <ele>719.774</ele>
        <time>2020-02-28T23:23:36Z</time>
      </trkpt>
      <trkpt lat="40.242010" lon="-4.911990">
        <ele>719.592</ele>
        <time>2020-02-28T23:23:56Z</time>
      </trkpt>
      <trkpt lat="40.241980" lon="-4.911960">
        <ele>719.245</ele>
        <time>2020-02-28T23:24:16Z</time>
      </trkpt>
      <trkpt lat="40.241940" lon="-4.911940">
        <ele>719.250</ele>
        <time>2020-02-28T23:24:36Z</time>
      </trkpt>
      <trkpt lat="40.241900" lon="-4.911930">
        <ele>720.068</ele>
        <time>2020-02-28T23:24:56Z</time>
      </trkpt>
      <trkpt lat="40.241780" lon="-4.911960">
        <ele>720.342</ele>
        <time>2020-02-28T23:25:16Z</time>
      </trkpt>
      <trkpt lat="40.241400" lon="-4.912110">
        <ele>718.726</ele>
        <time>2020-02-28T23:25:36Z</time>
      </trkpt>
      <trkpt lat="40.241340" lon="-4.912120">
        <ele>718.308</ele>
        <time>2020-02-28T23:25:56Z</time>
      </trkpt>
      <trkpt lat="40.241230" lon="-4.912120">
        <ele>718.190</ele>
        <time>2020-02-28T23:26:16Z</time>
      </trkpt>
      <trkpt lat="40.241120" lon="-4.912100">
        <ele>718.793</ele>
        <time>2020-02-28T23:26:36Z</time>
      </trkpt>
      <trkpt lat="40.241010" lon="-4.912060">
        <ele>720.068</ele>
        <time>2020-02-28T23:26:56Z</time>
      </trkpt>
      <trkpt lat="40.240960" lon="-4.912020">
        <ele>721.219</ele>
        <time>2020-02-28T23:27:16Z</time>
      </trkpt>
      <trkpt lat="40.240850" lon="-4.911880">
        <ele>723.331</ele>
        <time>2020-02-28T23:27:36Z</time>
      </trkpt>
      <trkpt lat="40.240830" lon="-4.911840">
        <ele>723.569</ele>
        <time>2020-02-28T23:27:56Z</time>
      </trkpt>
      <trkpt lat="40.240810" lon="-4.911820">
        <ele>723.532</ele>
        <time>2020-02-28T23:28:16Z</time>
      </trkpt>
      <trkpt lat="40.240780" lon="-4.911750">
        <ele>723.997</ele>
        <time>2020-02-28T23:28:36Z</time>
      </trkpt>
      <trkpt lat="40.240740" lon="-4.911590">
        <ele>724.866</ele>
        <time>2020-02-28T23:28:56Z</time>
      </trkpt>
      <trkpt lat="40.240640" lon="-4.910760">
        <ele>727.929</ele>
        <time>2020-02-28T23:29:16Z</time>
      </trkpt>
      <trkpt lat="40.240650" lon="-4.910700">
        <ele>727.921</ele>
        <time>2020-02-28T23:29:36Z</time>
      </trkpt>
      <trkpt lat="40.240740" lon="-4.910420">
        <ele>730.008</ele>
        <time>2020-02-28T23:29:56Z</time>
      </trkpt>
      <trkpt lat="40.240790" lon="-4.910300">
        <ele>731.340</ele>
        <time>2020-02-28T23:30:16Z</time>
      </trkpt>
      <trkpt lat="40.240990" lon="-4.909630">
        <ele>735.793</ele>
        <time>2020-02-28T23:30:36Z</time>
      </trkpt>
      <trkpt lat="40.241000" lon="-4.909570">
        <ele>736.148</ele>
        <time>2020-02-28T23:30:56Z</time>
      </trkpt>
      <trkpt lat="40.241000" lon="-4.909420">
        <ele>736.429</ele>
        <time>2020-02-28T23:31:16Z</time>
      </trkpt>
      <trkpt lat="40.240980" lon="-4.909320">
        <ele>736.841</ele>
        <time>2020-02-28T23:31:36Z</time>
      </trkpt>
      <trkpt lat="40.240900" lon="-4.909190">
        <ele>736.789</ele>
        <time>2020-02-28T23:31:56Z</time>
      </trkpt>
      <trkpt lat="40.240380" lon="-4.908560">
        <ele>740.912</ele>
        <time>2020-02-28T23:32:16Z</time>
      </trkpt>
      <trkpt lat="40.240320" lon="-4.908440">
        <ele>740.627</ele>
        <time>2020-02-28T23:32:36Z</time>
      </trkpt>
      <trkpt lat="40.240240" lon="-4.908160">
        <ele>739.454</ele>
        <time>2020-02-28T23:32:56Z</time>
      </trkpt>
      <trkpt lat="40.240260" lon="-4.907740">
        <ele>741.956</ele>
        <time>2020-02-28T23:33:16Z</time>
      </trkpt>
      <trkpt lat="40.240180" lon="-4.907100">
        <ele>744.111</ele>
        <time>2020-02-28T23:33:36Z</time>
      </trkpt>
      <trkpt lat="40.240180" lon="-4.906980">
        <ele>744.908</ele>
        <time>2020-02-28T23:33:56Z</time>
      </trkpt>
      <trkpt lat="40.240270" lon="-4.906740">
        <ele>749.289</ele>
        <time>2020-02-28T23:34:16Z</time>
      </trkpt>
      <trkpt lat="40.240500" lon="-4.906660">
        <ele>753.292</ele>
        <time>2020-02-28T23:34:36Z</time>
      </trkpt>
      <trkpt lat="40.240540" lon="-4.906640">
        <ele>753.967</ele>
        <time>2020-02-28T23:34:56Z</time>
      </trkpt>
      <trkpt lat="40.240620" lon="-4.906660">
        <ele>755.298</ele>
        <time>2020-02-28T23:35:16Z</time>
      </trkpt>
      <trkpt lat="40.240680" lon="-4.906690">
        <ele>756.130</ele>
        <time>2020-02-28T23:35:36Z</time>
      </trkpt>
      <trkpt lat="40.240730" lon="-4.906740">
        <ele>756.768</ele>
        <time>2020-02-28T23:35:56Z</time>
      </trkpt>
      <trkpt lat="40.240760" lon="-4.906780">
        <ele>757.031</ele>
        <time>2020-02-28T23:36:16Z</time>
      </trkpt>
      <trkpt lat="40.241400" lon="-4.908460">
        <ele>765.416</ele>
        <time>2020-02-28T23:36:36Z</time>
      </trkpt>
      <trkpt lat="40.241760" lon="-4.910610">
        <ele>768.542</ele>
        <time>2020-02-28T23:36:56Z</time>
      </trkpt>
      <trkpt lat="40.241810" lon="-4.910730">
        <ele>768.022</ele>
        <time>2020-02-28T23:37:16Z</time>
      </trkpt>
      <trkpt lat="40.241820" lon="-4.910730">
        <ele>768.114</ele>
        <time>2020-02-28T23:37:36Z</time>
      </trkpt>
      <trkpt lat="40.241850" lon="-4.910760">
        <ele>768.308</ele>
        <time>2020-02-28T23:37:56Z</time>
      </trkpt>
      <trkpt lat="40.241910" lon="-4.910780">
        <ele>768.958</ele>
        <time>2020-02-28T23:38:16Z</time>
      </trkpt>
      <trkpt lat="40.242480" lon="-4.910880">
        <ele>765.841</ele>
        <time>2020-02-28T23:38:36Z</time>
      </trkpt>
      <trkpt lat="40.242640" lon="-4.910950">
        <ele>764.296</ele>
        <time>2020-02-28T23:38:56Z</time>
      </trkpt>
      <trkpt lat="40.242770" lon="-4.911070">
        <ele>761.477</ele>
        <time>2020-02-28T23:39:16Z</time>
      </trkpt>
      <trkpt lat="40.242920" lon="-4.911260">
        <ele>762.039</ele>
        <time>2020-02-28T23:39:36Z</time>
      </trkpt>
      <trkpt lat="40.242940" lon="-4.911320">
        <ele>762.097</ele>
        <time>2020-02-28T23:39:56Z</time>
      </trkpt>
      <trkpt lat="40.243000" lon="-4.911650">
        <ele>765.340</ele>
        <time>2020-02-28T23:40:16Z</time>
      </trkpt>
      <trkpt lat="40.242930" lon="-4.912170">
        <ele>764.935</ele>
        <time>2020-02-28T23:40:36Z</time>
      </trkpt>
      <trkpt lat="40.242830" lon="-4.912630">
        <ele>764.542</ele>
        <time>2020-02-28T23:40:56Z</time>
      </trkpt>
      <trkpt lat="40.242790" lon="-4.913140">
        <ele>767.422</ele>
        <time>2020-02-28T23:41:16Z</time>
      </trkpt>
      <trkpt lat="40.242780" lon="-4.913170">
        <ele>767.314</ele>
        <time>2020-02-28T23:41:36Z</time>
      </trkpt>
      <trkpt lat="40.242770" lon="-4.913240">
        <ele>767.608</ele>
        <time>2020-02-28T23:41:56Z</time>
      </trkpt>
      <trkpt lat="40.242720" lon="-4.913390">
        <ele>767.138</ele>
        <time>2020-02-28T23:42:16Z</time>
      </trkpt>
      <trkpt lat="40.242560" lon="-4.913700">
        <ele>768.191</ele>
        <time>2020-02-28T23:42:36Z</time>
      </trkpt>
      <trkpt lat="40.242410" lon="-4.914260">
        <ele>772.156</ele>
        <time>2020-02-28T23:42:56Z</time>
      </trkpt>
      <trkpt lat="40.242290" lon="-4.914480">
        <ele>773.847</ele>
        <time>2020-02-28T23:43:16Z</time>
      </trkpt>
      <trkpt lat="40.242150" lon="-4.914680">
        <ele>772.929</ele>
        <time>2020-02-28T23:43:36Z</time>
      </trkpt>
      <trkpt lat="40.242070" lon="-4.914820">
        <ele>773.237</ele>
        <time>2020-02-28T23:43:56Z</time>
      </trkpt>
      <trkpt lat="40.241950" lon="-4.915180">
        <ele>775.080</ele>
        <time>2020-02-28T23:44:16Z</time>
      </trkpt>
      <trkpt lat="40.241900" lon="-4.915290">
        <ele>775.345</ele>
        <time>2020-02-28T23:44:36Z</time>
      </trkpt>
      <trkpt lat="40.241820" lon="-4.915420">
        <ele>775.584</ele>
        <time>2020-02-28T23:44:56Z</time>
      </trkpt>
      <trkpt lat="40.241520" lon="-4.915670">
        <ele>774.707</ele>
        <time>2020-02-28T23:45:16Z</time>
      </trkpt>
      <trkpt lat="40.241410" lon="-4.915790">
        <ele>774.817</ele>
        <time>2020-02-28T23:45:36Z</time>
      </trkpt>
      <trkpt lat="40.241250" lon="-4.916010">
        <ele>775.208</ele>
        <time>2020-02-28T23:45:56Z</time>
      </trkpt>
      <trkpt lat="40.240850" lon="-4.916640">
        <ele>775.142</ele>
        <time>2020-02-28T23:46:16Z</time>
      </trkpt>
      <trkpt lat="40.240780" lon="-4.916770">
        <ele>774.835</ele>
        <time>2020-02-28T23:46:36Z</time>
      </trkpt>
      <trkpt lat="40.240750" lon="-4.916850">
        <ele>775.190</ele>
        <time>2020-02-28T23:46:56Z</time>
      </trkpt>
      <trkpt lat="40.240720" lon="-4.917090">
        <ele>776.971</ele>
        <time>2020-02-28T23:47:16Z</time>
      </trkpt>
      <trkpt lat="40.240730" lon="-4.917980">
        <ele>786.233</ele>
        <time>2020-02-28T23:47:36Z</time>
      </trkpt>
      <trkpt lat="40.240710" lon="-4.918130">
        <ele>787.991</ele>
        <time>2020-02-28T23:47:56Z</time>
      </trkpt>
      <trkpt lat="40.240680" lon="-4.918210">
        <ele>788.574</ele>
        <time>2020-02-28T23:48:16Z</time>
      </trkpt>
      <trkpt lat="40.240600" lon="-4.918350">
        <ele>789.129</ele>
        <time>2020-02-28T23:48:36Z</time>
      </trkpt>
      <trkpt lat="40.240180" lon="-4.918940">
        <ele>791.043</ele>
        <time>2020-02-28T23:48:56Z</time>
      </trkpt>
      <trkpt lat="40.239800" lon="-4.919520">
        <ele>794.164</ele>
        <time>2020-02-28T23:49:16Z</time>
      </trkpt>
      <trkpt lat="40.239750" lon="-4.919640">
        <ele>794.610</ele>
        <time>2020-02-28T23:49:36Z</time>
      </trkpt>
      <trkpt lat="40.239630" lon="-4.920130">
        <ele>799.908</ele>
        <time>2020-02-28T23:49:56Z</time>
      </trkpt>
      <trkpt lat="40.239590" lon="-4.920250">
        <ele>802.388</ele>
        <time>2020-02-28T23:50:16Z</time>
      </trkpt>
      <trkpt lat="40.239530" lon="-4.920380">
        <ele>804.121</ele>
        <time>2020-02-28T23:50:36Z</time>
      </trkpt>
      <trkpt lat="40.239500" lon="-4.920430">
        <ele>804.796</ele>
        <time>2020-02-28T23:50:56Z</time>
      </trkpt>
      <trkpt lat="40.239340" lon="-4.920630">
        <ele>807.287</ele>
        <time>2020-02-28T23:51:16Z</time>
      </trkpt>
      <trkpt lat="40.239270" lon="-4.920690">
        <ele>808.099</ele>
        <time>2020-02-28T23:51:36Z</time>
      </trkpt>
      <trkpt lat="40.239220" lon="-4.920720">
        <ele>808.417</ele>
        <time>2020-02-28T23:51:56Z</time>
      </trkpt>
      <trkpt lat="40.239180" lon="-4.920730">
        <ele>808.580</ele>
        <time>2020-02-28T23:52:16Z</time>
      </trkpt>
      <trkpt lat="40.239130" lon="-4.920730">
        <ele>808.535</ele>
        <time>2020-02-28T23:52:36Z</time>
      </trkpt>
      <trkpt lat="40.238880" lon="-4.920660">
        <ele>807.831</ele>
        <time>2020-02-28T23:52:56Z</time>
      </trkpt>
      <trkpt lat="40.238840" lon="-4.920660">
        <ele>807.461</ele>
        <time>2020-02-28T23:53:16Z</time>
      </trkpt>
      <trkpt lat="40.238780" lon="-4.920680">
        <ele>807.107</ele>
        <time>2020-02-28T23:53:36Z</time>
      </trkpt>
      <trkpt lat="40.238640" lon="-4.920790">
        <ele>807.508</ele>
        <time>2020-02-28T23:53:56Z</time>
      </trkpt>
      <trkpt lat="40.238590" lon="-4.920820">
        <ele>807.497</ele>
        <time>2020-02-28T23:54:16Z</time>
      </trkpt>
      <trkpt lat="40.238560" lon="-4.920850">
        <ele>807.280</ele>
        <time>2020-02-28T23:54:36Z</time>
      </trkpt>
      <trkpt lat="40.238540" lon="-4.920880">
        <ele>807.255</ele>
        <time>2020-02-28T23:54:56Z</time>
      </trkpt>
      <trkpt lat="40.238500" lon="-4.920980">
        <ele>807.976</ele>
        <time>2020-02-28T23:55:16Z</time>
      </trkpt>
      <trkpt lat="40.238500" lon="-4.921080">
        <ele>809.288</ele>
        <time>2020-02-28T23:55:36Z</time>
      </trkpt>
      <trkpt lat="40.238540" lon="-4.921200">
        <ele>809.726</ele>
        <time>2020-02-28T23:55:56Z</time>
      </trkpt>
      <trkpt lat="40.238670" lon="-4.921460">
        <ele>809.499</ele>
        <time>2020-02-28T23:56:16Z</time>
      </trkpt>
      <trkpt lat="40.238790" lon="-4.921600">
        <ele>809.214</ele>
        <time>2020-02-28T23:56:36Z</time>
      </trkpt>
      <trkpt lat="40.239080" lon="-4.921710">
        <ele>809.212</ele>
        <time>2020-02-28T23:56:56Z</time>
      </trkpt>
      <trkpt lat="40.239410" lon="-4.921750">
        <ele>809.132</ele>
        <time>2020-02-28T23:57:16Z</time>
      </trkpt>
      <trkpt lat="40.239470" lon="-4.921740">
        <ele>809.205</ele>
        <time>2020-02-28T23:57:36Z</time>
      </trkpt>
      <trkpt lat="40.239520" lon="-4.921720">
        <ele>809.408</ele>
        <time>2020-02-28T23:57:56Z</time>
      </trkpt>
      <trkpt lat="40.239560" lon="-4.921690">
        <ele>809.755</ele>
        <time>2020-02-28T23:58:16Z</time>
      </trkpt>
      <trkpt lat="40.239600" lon="-4.921650">
        <ele>810.138</ele>
        <time>2020-02-28T23:58:36Z</time>
      </trkpt>
      <trkpt lat="40.239640" lon="-4.921590">
        <ele>810.453</ele>
        <time>2020-02-28T23:58:56Z</time>
      </trkpt>
      <trkpt lat="40.240160" lon="-4.920370">
        <ele>820.784</ele>
        <time>2020-02-28T23:59:16Z</time>
      </trkpt>
      <trkpt lat="40.240250" lon="-4.920230">
        <ele>822.736</ele>
        <time>2020-02-28T23:59:36Z</time>
      </trkpt>
      <trkpt lat="40.240280" lon="-4.920170">
        <ele>822.894</ele>
        <time>2020-02-28T23:59:56Z</time>
      </trkpt>
      <trkpt lat="40.240590" lon="-4.919730">
        <ele>821.927</ele>
        <time>2020-02-29T00:00:16Z</time>
      </trkpt>
      <trkpt lat="40.240690" lon="-4.919620">
        <ele>823.382</ele>
        <time>2020-02-29T00:00:36Z</time>
      </trkpt>
      <trkpt lat="40.240740" lon="-4.919580">
        <ele>824.516</ele>
        <time>2020-02-29T00:00:56Z</time>
      </trkpt>
      <trkpt lat="40.240800" lon="-4.919550">
        <ele>826.576</ele>
        <time>2020-02-29T00:01:16Z</time>
      </trkpt>
      <trkpt lat="40.240950" lon="-4.919510">
        <ele>831.213</ele>
        <time>2020-02-29T00:01:36Z</time>
      </trkpt>
      <trkpt lat="40.241090" lon="-4.919460">
        <ele>834.708</ele>
        <time>2020-02-29T00:01:56Z</time>
      </trkpt>
      <trkpt lat="40.241140" lon="-4.919450">
        <ele>836.595</ele>
        <time>2020-02-29T00:02:16Z</time>
      </trkpt>
      <trkpt lat="40.241190" lon="-4.919430">
        <ele>838.328</ele>
        <time>2020-02-29T00:02:36Z</time>
      </trkpt>
      <trkpt lat="40.241270" lon="-4.919370">
        <ele>840.413</ele>
        <time>2020-02-29T00:02:56Z</time>
      </trkpt>
      <trkpt lat="40.241370" lon="-4.919280">
        <ele>842.494</ele>
        <time>2020-02-29T00:03:16Z</time>
      </trkpt>
      <trkpt lat="40.242080" lon="-4.918360">
        <ele>847.036</ele>
        <time>2020-02-29T00:03:36Z</time>
      </trkpt>
      <trkpt lat="40.242180" lon="-4.918160">
        <ele>846.854</ele>
        <time>2020-02-29T00:03:56Z</time>
      </trkpt>
      <trkpt lat="40.242210" lon="-4.918060">
        <ele>845.687</ele>
        <time>2020-02-29T00:04:16Z</time>
      </trkpt>
      <trkpt lat="40.242270" lon="-4.917930">
        <ele>845.052</ele>
        <time>2020-02-29T00:04:36Z</time>
      </trkpt>
      <trkpt lat="40.242360" lon="-4.917840">
        <ele>846.318</ele>
        <time>2020-02-29T00:04:56Z</time>
      </trkpt>
      <trkpt lat="40.242470" lon="-4.917760">
        <ele>848.298</ele>
        <time>2020-02-29T00:05:16Z</time>
      </trkpt>
      <trkpt lat="40.242530" lon="-4.917740">
        <ele>848.917</ele>
        <time>2020-02-29T00:05:36Z</time>
      </trkpt>
      <trkpt lat="40.242760" lon="-4.917760">
        <ele>852.308</ele>
        <time>2020-02-29T00:05:56Z</time>
      </trkpt>
      <trkpt lat="40.243460" lon="-4.917700">
        <ele>859.785</ele>
        <time>2020-02-29T00:06:16Z</time>
      </trkpt>
      <trkpt lat="40.243540" lon="-4.917700">
        <ele>860.238</ele>
        <time>2020-02-29T00:06:36Z</time>
      </trkpt>
      <trkpt lat="40.243600" lon="-4.917710">
        <ele>861.023</ele>
        <time>2020-02-29T00:06:56Z</time>
      </trkpt>
      <trkpt lat="40.243690" lon="-4.917750">
        <ele>864.454</ele>
        <time>2020-02-29T00:07:16Z</time>
      </trkpt>
      <trkpt lat="40.243740" lon="-4.917860">
        <ele>868.616</ele>
        <time>2020-02-29T00:07:36Z</time>
      </trkpt>
      <trkpt lat="40.243740" lon="-4.917870">
        <ele>868.894</ele>
        <time>2020-02-29T00:07:56Z</time>
      </trkpt>
      <trkpt lat="40.243750" lon="-4.917900">
        <ele>869.837</ele>
        <time>2020-02-29T00:08:16Z</time>
      </trkpt>
      <trkpt lat="40.243750" lon="-4.917970">
        <ele>871.712</ele>
        <time>2020-02-29T00:08:36Z</time>
      </trkpt>
      <trkpt lat="40.243710" lon="-4.918090">
        <ele>874.616</ele>
        <time>2020-02-29T00:08:56Z</time>
      </trkpt>
      <trkpt lat="40.243660" lon="-4.918130">
        <ele>875.376</ele>
        <time>2020-02-29T00:09:16Z</time>
      </trkpt>
      <trkpt lat="40.243620" lon="-4.918150">
        <ele>875.513</ele>
        <time>2020-02-29T00:09:36Z</time>
      </trkpt>
      <trkpt lat="40.243540" lon="-4.918150">
        <ele>874.808</ele>
        <time>2020-02-29T00:09:56Z</time>
      </trkpt>
      <trkpt lat="40.243480" lon="-4.918140">
        <ele>874.035</ele>
        <time>2020-02-29T00:10:16Z</time>
      </trkpt>
      <trkpt lat="40.243330" lon="-4.918090">
        <ele>871.118</ele>
        <time>2020-02-29T00:10:36Z</time>
      </trkpt>
      <trkpt lat="40.243230" lon="-4.918070">
        <ele>868.633</ele>
        <time>2020-02-29T00:10:56Z</time>
      </trkpt>
      <trkpt lat="40.243170" lon="-4.918070">
        <ele>867.654</ele>
        <time>2020-02-29T00:11:16Z</time>
      </trkpt>
      <trkpt lat="40.243110" lon="-4.918060">
        <ele>866.116</ele>
        <time>2020-02-29T00:11:36Z</time>
      </trkpt>
      <trkpt lat="40.242970" lon="-4.918080">
        <ele>864.134</ele>
        <time>2020-02-29T00:11:56Z</time>
      </trkpt>
      <trkpt lat="40.242810" lon="-4.918160">
        <ele>864.177</ele>
        <time>2020-02-29T00:12:16Z</time>
      </trkpt>
      <trkpt lat="40.242620" lon="-4.918310">
        <ele>866.272</ele>
        <time>2020-02-29T00:12:36Z</time>
      </trkpt>
      <trkpt lat="40.242540" lon="-4.918400">
        <ele>866.762</ele>
        <time>2020-02-29T00:12:56Z</time>
      </trkpt>
      <trkpt lat="40.241810" lon="-4.919620">
        <ele>867.983</ele>
        <time>2020-02-29T00:13:16Z</time>
      </trkpt>
      <trkpt lat="40.241770" lon="-4.919700">
        <ele>868.711</ele>
        <time>2020-02-29T00:13:36Z</time>
      </trkpt>
      <trkpt lat="40.241760" lon="-4.919740">
        <ele>869.408</ele>
        <time>2020-02-29T00:13:56Z</time>
      </trkpt>
      <trkpt lat="40.241540" lon="-4.920320">
        <ele>871.020</ele>
        <time>2020-02-29T00:14:16Z</time>
      </trkpt>
      <trkpt lat="40.241510" lon="-4.920500">
        <ele>868.513</ele>
        <time>2020-02-29T00:14:36Z</time>
      </trkpt>
      <trkpt lat="40.241510" lon="-4.920660">
        <ele>867.188</ele>
        <time>2020-02-29T00:14:56Z</time>
      </trkpt>
      <trkpt lat="40.241530" lon="-4.920780">
        <ele>866.539</ele>
        <time>2020-02-29T00:15:16Z</time>
      </trkpt>
      <trkpt lat="40.241530" lon="-4.920940">
        <ele>865.181</ele>
        <time>2020-02-29T00:15:36Z</time>
      </trkpt>
      <trkpt lat="40.241580" lon="-4.921200">
        <ele>863.679</ele>
        <time>2020-02-29T00:15:56Z</time>
      </trkpt>
      <trkpt lat="40.241650" lon="-4.921360">
        <ele>863.132</ele>
        <time>2020-02-29T00:16:16Z</time>
      </trkpt>
      <trkpt lat="40.243490" lon="-4.923550">
        <ele>872.597</ele>
        <time>2020-02-29T00:16:36Z</time>
      </trkpt>
      <trkpt lat="40.243650" lon="-4.923710">
        <ele>873.484</ele>
        <time>2020-02-29T00:16:56Z</time>
      </trkpt>
      <trkpt lat="40.243770" lon="-4.923800">
        <ele>874.107</ele>
        <time>2020-02-29T00:17:16Z</time>
      </trkpt>
      <trkpt lat="40.244720" lon="-4.924140">
        <ele>884.417</ele>
        <time>2020-02-29T00:17:36Z</time>
      </trkpt>
      <trkpt lat="40.246680" lon="-4.925150">
        <ele>899.008</ele>
        <time>2020-02-29T00:17:56Z</time>
      </trkpt>
      <trkpt lat="40.246770" lon="-4.925180">
        <ele>900.042</ele>
        <time>2020-02-29T00:18:16Z</time>
      </trkpt>
      <trkpt lat="40.246960" lon="-4.925220">
        <ele>902.565</ele>
        <time>2020-02-29T00:18:36Z</time>
      </trkpt>
      <trkpt lat="40.247090" lon="-4.925200">
        <ele>901.770</ele>
        <time>2020-02-29T00:18:56Z</time>
      </trkpt>
      <trkpt lat="40.247260" lon="-4.925160">
        <ele>901.531</ele>
        <time>2020-02-29T00:19:16Z</time>
      </trkpt>
      <trkpt lat="40.247430" lon="-4.925090">
        <ele>902.823</ele>
        <time>2020-02-29T00:19:36Z</time>
      </trkpt>
      <trkpt lat="40.247690" lon="-4.925050">
        <ele>903.931</ele>
        <time>2020-02-29T00:19:56Z</time>
      </trkpt>
      <trkpt lat="40.247910" lon="-4.925050">
        <ele>904.624</ele>
        <time>2020-02-29T00:20:16Z</time>
      </trkpt>
      <trkpt lat="40.248110" lon="-4.925070">
        <ele>905.429</ele>
        <time>2020-02-29T00:20:36Z</time>
      </trkpt>
      <trkpt lat="40.248410" lon="-4.925140">
        <ele>908.353</ele>
        <time>2020-02-29T00:20:56Z</time>
      </trkpt>
      <trkpt lat="40.248490" lon="-4.925180">
        <ele>909.704</ele>
        <time>2020-02-29T00:21:16Z</time>
      </trkpt>
      <trkpt lat="40.248550" lon="-4.925220">
        <ele>910.514</ele>
        <time>2020-02-29T00:21:36Z</time>
      </trkpt>
      <trkpt lat="40.248770" lon="-4.925400">
        <ele>911.708</ele>
        <time>2020-02-29T00:21:56Z</time>
      </trkpt>
      <trkpt lat="40.248800" lon="-4.925410">
        <ele>912.149</ele>
        <time>2020-02-29T00:22:16Z</time>
      </trkpt>
      <trkpt lat="40.248840" lon="-4.925440">
        <ele>912.212</ele>
        <time>2020-02-29T00:22:36Z</time>
      </trkpt>
      <trkpt lat="40.248890" lon="-4.925460">
        <ele>912.827</ele>
        <time>2020-02-29T00:22:56Z</time>
      </trkpt>
      <trkpt lat="40.249010" lon="-4.925480">
        <ele>912.218</ele>
        <time>2020-02-29T00:23:16Z</time>
      </trkpt>
      <trkpt lat="40.249100" lon="-4.925460">
        <ele>912.840</ele>
        <time>2020-02-29T00:23:36Z</time>
      </trkpt>
      <trkpt lat="40.249400" lon="-4.925360">
        <ele>912.978</ele>
        <time>2020-02-29T00:23:56Z</time>
      </trkpt>
      <trkpt lat="40.249460" lon="-4.925330">
        <ele>913.411</ele>
        <time>2020-02-29T00:24:16Z</time>
      </trkpt>
      <trkpt lat="40.249580" lon="-4.925240">
        <ele>916.616</ele>
        <time>2020-02-29T00:24:36Z</time>
      </trkpt>
      <trkpt lat="40.249670" lon="-4.925190">
        <ele>918.482</ele>
        <time>2020-02-29T00:24:56Z</time>
      </trkpt>
      <trkpt lat="40.249700" lon="-4.925180">
        <ele>918.843</ele>
        <time>2020-02-29T00:25:16Z</time>
      </trkpt>
      <trkpt lat="40.249750" lon="-4.925200">
        <ele>919.317</ele>
        <time>2020-02-29T00:25:36Z</time>
      </trkpt>
      <trkpt lat="40.249780" lon="-4.925230">
        <ele>919.808</ele>
        <time>2020-02-29T00:25:56Z</time>
      </trkpt>
      <trkpt lat="40.249840" lon="-4.925330">
        <ele>920.882</ele>
        <time>2020-02-29T00:26:16Z</time>
      </trkpt>
      <trkpt lat="40.249980" lon="-4.925780">
        <ele>922.845</ele>
        <time>2020-02-29T00:26:36Z</time>
      </trkpt>
      <trkpt lat="40.250150" lon="-4.926030">
        <ele>925.310</ele>
        <time>2020-02-29T00:26:56Z</time>
      </trkpt>
      <trkpt lat="40.250380" lon="-4.926280">
        <ele>926.681</ele>
        <time>2020-02-29T00:27:16Z</time>
      </trkpt>
      <trkpt lat="40.250480" lon="-4.926340">
        <ele>927.443</ele>
        <time>2020-02-29T00:27:36Z</time>
      </trkpt>
      <trkpt lat="40.250700" lon="-4.926410">
        <ele>929.511</ele>
        <time>2020-02-29T00:27:56Z</time>
      </trkpt>
      <trkpt lat="40.250790" lon="-4.926470">
        <ele>929.184</ele>
        <time>2020-02-29T00:28:16Z</time>
      </trkpt>
      <trkpt lat="40.251110" lon="-4.926750">
        <ele>924.919</ele>
        <time>2020-02-29T00:28:36Z</time>
      </trkpt>
      <trkpt lat="40.251270" lon="-4.926860">
        <ele>922.797</ele>
        <time>2020-02-29T00:28:56Z</time>
      </trkpt>
      <trkpt lat="40.251390" lon="-4.926890">
        <ele>922.423</ele>
        <time>2020-02-29T00:29:16Z</time>
      </trkpt>
      <trkpt lat="40.251540" lon="-4.926880">
        <ele>922.325</ele>
        <time>2020-02-29T00:29:36Z</time>
      </trkpt>
      <trkpt lat="40.251560" lon="-4.926870">
        <ele>922.608</ele>
        <time>2020-02-29T00:29:56Z</time>
      </trkpt>
      <trkpt lat="40.251760" lon="-4.926830">
        <ele>922.573</ele>
        <time>2020-02-29T00:30:16Z</time>
      </trkpt>
      <trkpt lat="40.251860" lon="-4.926770">
        <ele>923.346</ele>
        <time>2020-02-29T00:30:36Z</time>
      </trkpt>
      <trkpt lat="40.251890" lon="-4.926760">
        <ele>923.361</ele>
        <time>2020-02-29T00:30:56Z</time>
      </trkpt>
      <trkpt lat="40.251930" lon="-4.926720">
        <ele>924.252</ele>
        <time>2020-02-29T00:31:16Z</time>
      </trkpt>
      <trkpt lat="40.252010" lon="-4.926670">
        <ele>924.954</ele>
        <time>2020-02-29T00:31:36Z</time>
      </trkpt>
      <trkpt lat="40.252070" lon="-4.926580">
        <ele>926.512</ele>
        <time>2020-02-29T00:31:56Z</time>
      </trkpt>
      <trkpt lat="40.252140" lon="-4.926450">
        <ele>928.985</ele>
        <time>2020-02-29T00:32:16Z</time>
      </trkpt>
      <trkpt lat="40.252140" lon="-4.926440">
        <ele>929.120</ele>
        <time>2020-02-29T00:32:36Z</time>
      </trkpt>
      <trkpt lat="40.252210" lon="-4.926330">
        <ele>931.714</ele>
        <time>2020-02-29T00:32:56Z</time>
      </trkpt>
      <trkpt lat="40.252290" lon="-4.926260">
        <ele>933.754</ele>
        <time>2020-02-29T00:33:16Z</time>
      </trkpt>
      <trkpt lat="40.252410" lon="-4.926190">
        <ele>934.809</ele>
        <time>2020-02-29T00:33:36Z</time>
      </trkpt>
      <trkpt lat="40.252660" lon="-4.926070">
        <ele>935.708</ele>
        <time>2020-02-29T00:33:56Z</time>
      </trkpt>
      <trkpt lat="40.252930" lon="-4.925910">
        <ele>935.625</ele>
        <time>2020-02-29T00:34:16Z</time>
      </trkpt>
      <trkpt lat="40.253250" lon="-4.925690">
        <ele>937.738</ele>
        <time>2020-02-29T00:34:36Z</time>
      </trkpt>
      <trkpt lat="40.253400" lon="-4.925620">
        <ele>936.873</ele>
        <time>2020-02-29T00:34:56Z</time>
      </trkpt>
      <trkpt lat="40.253420" lon="-4.925620">
        <ele>936.794</ele>
        <time>2020-02-29T00:35:16Z</time>
      </trkpt>
      <trkpt lat="40.254050" lon="-4.925460">
        <ele>941.636</ele>
        <time>2020-02-29T00:35:36Z</time>
      </trkpt>
      <trkpt lat="40.254230" lon="-4.925390">
        <ele>943.764</ele>
        <time>2020-02-29T00:35:56Z</time>
      </trkpt>
      <trkpt lat="40.254420" lon="-4.925290">
        <ele>945.977</ele>
        <time>2020-02-29T00:36:16Z</time>
      </trkpt>
      <trkpt lat="40.254470" lon="-4.925280">
        <ele>945.862</ele>
        <time>2020-02-29T00:36:36Z</time>
      </trkpt>
      <trkpt lat="40.254480" lon="-4.925270">
        <ele>946.341</ele>
        <time>2020-02-29T00:36:56Z</time>
      </trkpt>
      <trkpt lat="40.254740" lon="-4.925240">
        <ele>946.981</ele>
        <time>2020-02-29T00:37:16Z</time>
      </trkpt>
      <trkpt lat="40.254820" lon="-4.925220">
        <ele>947.209</ele>
        <time>2020-02-29T00:37:36Z</time>
      </trkpt>
      <trkpt lat="40.254820" lon="-4.925210">
        <ele>947.708</ele>
        <time>2020-02-29T00:37:56Z</time>
      </trkpt>
      <trkpt lat="40.254900" lon="-4.925180">
        <ele>948.398</ele>
        <time>2020-02-29T00:38:16Z</time>
      </trkpt>
      <trkpt lat="40.255030" lon="-4.925110">
        <ele>948.961</ele>
        <time>2020-02-29T00:38:36Z</time>
      </trkpt>
      <trkpt lat="40.255080" lon="-4.925070">
        <ele>948.476</ele>
        <time>2020-02-29T00:38:56Z</time>
      </trkpt>
      <trkpt lat="40.255260" lon="-4.924760">
        <ele>953.257</ele>
        <time>2020-02-29T00:39:16Z</time>
      </trkpt>
      <trkpt lat="40.255320" lon="-4.924700">
        <ele>954.159</ele>
        <time>2020-02-29T00:39:36Z</time>
      </trkpt>
      <trkpt lat="40.255380" lon="-4.924670">
        <ele>954.237</ele>
        <time>2020-02-29T00:39:56Z</time>
      </trkpt>
      <trkpt lat="40.255880" lon="-4.924620">
        <ele>956.770</ele>
        <time>2020-02-29T00:40:16Z</time>
      </trkpt>
      <trkpt lat="40.255920" lon="-4.924600">
        <ele>957.645</ele>
        <time>2020-02-29T00:40:36Z</time>
      </trkpt>
      <trkpt lat="40.255980" lon="-4.924590">
        <ele>957.956</ele>
        <time>2020-02-29T00:40:56Z</time>
      </trkpt>
      <trkpt lat="40.256080" lon="-4.924530">
        <ele>960.259</ele>
        <time>2020-02-29T00:41:16Z</time>
      </trkpt>
      <trkpt lat="40.257610" lon="-4.923770">
        <ele>967.614</ele>
        <time>2020-02-29T00:41:36Z</time>
      </trkpt>
      <trkpt lat="40.257810" lon="-4.923700">
        <ele>967.708</ele>
        <time>2020-02-29T00:41:56Z</time>
      </trkpt>
      <trkpt lat="40.257930" lon="-4.923690">
        <ele>967.819</ele>
        <time>2020-02-29T00:42:16Z</time>
      </trkpt>
      <trkpt lat="40.257960" lon="-4.923680">
        <ele>968.262</ele>
        <time>2020-02-29T00:42:36Z</time>
      </trkpt>
      <trkpt lat="40.258130" lon="-4.923660">
        <ele>970.077</ele>
        <time>2020-02-29T00:42:56Z</time>
      </trkpt>
      <trkpt lat="40.258260" lon="-4.923660">
        <ele>971.618</ele>
        <time>2020-02-29T00:43:16Z</time>
      </trkpt>
      <trkpt lat="40.258340" lon="-4.923690">
        <ele>971.440</ele>
        <time>2020-02-29T00:43:36Z</time>
      </trkpt>
      <trkpt lat="40.258380" lon="-4.923720">
        <ele>972.118</ele>
        <time>2020-02-29T00:43:56Z</time>
      </trkpt>
      <trkpt lat="40.258660" lon="-4.924140">
        <ele>972.471</ele>
        <time>2020-02-29T00:44:16Z</time>
      </trkpt>
      <trkpt lat="40.258760" lon="-4.924240">
        <ele>972.756</ele>
        <time>2020-02-29T00:44:36Z</time>
      </trkpt>
      <trkpt lat="40.258820" lon="-4.924280">
        <ele>973.563</ele>
        <time>2020-02-29T00:44:56Z</time>
      </trkpt>
      <trkpt lat="40.259660" lon="-4.924740">
        <ele>980.844</ele>
        <time>2020-02-29T00:45:16Z</time>
      </trkpt>
      <trkpt lat="40.259830" lon="-4.924820">
        <ele>980.018</ele>
        <time>2020-02-29T00:45:36Z</time>
      </trkpt>
      <trkpt lat="40.260540" lon="-4.925000">
        <ele>980.708</ele>
        <time>2020-02-29T00:45:56Z</time>
      </trkpt>
      <trkpt lat="40.260610" lon="-4.925010">
        <ele>980.980</ele>
        <time>2020-02-29T00:46:16Z</time>
      </trkpt>
      <trkpt lat="40.260870" lon="-4.925080">
        <ele>980.193</ele>
        <time>2020-02-29T00:46:36Z</time>
      </trkpt>
      <trkpt lat="40.260890" lon="-4.925080">
        <ele>980.258</ele>
        <time>2020-02-29T00:46:56Z</time>
      </trkpt>
      <trkpt lat="40.261040" lon="-4.925110">
        <ele>980.179</ele>
        <time>2020-02-29T00:47:16Z</time>
      </trkpt>
      <trkpt lat="40.261190" lon="-4.925120">
        <ele>981.051</ele>
        <time>2020-02-29T00:47:36Z</time>
      </trkpt>
      <trkpt lat="40.261350" lon="-4.925100">
        <ele>983.339</ele>
        <time>2020-02-29T00:47:56Z</time>
      </trkpt>
      <trkpt lat="40.261700" lon="-4.924990">
        <ele>985.192</ele>
        <time>2020-02-29T00:48:16Z</time>
      </trkpt>
      <trkpt lat="40.261770" lon="-4.924980">
        <ele>987.067</ele>
        <time>2020-02-29T00:48:36Z</time>
      </trkpt>
      <trkpt lat="40.261820" lon="-4.924980">
        <ele>988.146</ele>
        <time>2020-02-29T00:48:56Z</time>
      </trkpt>
      <trkpt lat="40.261940" lon="-4.925020">
        <ele>988.888</ele>
        <time>2020-02-29T00:49:16Z</time>
      </trkpt>
      <trkpt lat="40.261950" lon="-4.925020">
        <ele>988.916</ele>
        <time>2020-02-29T00:49:36Z</time>
      </trkpt>
      <trkpt lat="40.263190" lon="-4.925570">
        <ele>991.408</ele>
        <time>2020-02-29T00:49:56Z</time>
      </trkpt>
      <trkpt lat="40.263490" lon="-4.925680">
        <ele>990.538</ele>
        <time>2020-02-29T00:50:16Z</time>
      </trkpt>
      <trkpt lat="40.263650" lon="-4.925700">
        <ele>990.821</ele>
        <time>2020-02-29T00:50:36Z</time>
      </trkpt>
      <trkpt lat="40.263810" lon="-4.925740">
        <ele>989.536</ele>
        <time>2020-02-29T00:50:56Z</time>
      </trkpt>
      <trkpt lat="40.263850" lon="-4.925740">
        <ele>989.627</ele>
        <time>2020-02-29T00:51:16Z</time>
      </trkpt>
      <trkpt lat="40.263900" lon="-4.925750">
        <ele>989.379</ele>
        <time>2020-02-29T00:51:36Z</time>
      </trkpt>
      <trkpt lat="40.263970" lon="-4.925750">
        <ele>989.337</ele>
        <time>2020-02-29T00:51:56Z</time>
      </trkpt>
      <trkpt lat="40.264040" lon="-4.925730">
        <ele>990.150</ele>
        <time>2020-02-29T00:52:16Z</time>
      </trkpt>
      <trkpt lat="40.264110" lon="-4.925700">
        <ele>991.395</ele>
        <time>2020-02-29T00:52:36Z</time>
      </trkpt>
      <trkpt lat="40.264770" lon="-4.925350">
        <ele>1002.992</ele>
        <time>2020-02-29T00:52:56Z</time>
      </trkpt>
      <trkpt lat="40.264930" lon="-4.925220">
        <ele>1000.473</ele>
        <time>2020-02-29T00:53:16Z</time>
      </trkpt>
      <trkpt lat="40.264980" lon="-4.925160">
        <ele>999.820</ele>
        <time>2020-02-29T00:53:36Z</time>
      </trkpt>
      <trkpt lat="40.265040" lon="-4.925110">
        <ele>1000.608</ele>
        <time>2020-02-29T00:53:56Z</time>
      </trkpt>
      <trkpt lat="40.265090" lon="-4.925080">
        <ele>1001.863</ele>
        <time>2020-02-29T00:54:16Z</time>
      </trkpt>
      <trkpt lat="40.265150" lon="-4.925070">
        <ele>1002.426</ele>
        <time>2020-02-29T00:54:36Z</time>
      </trkpt>
      <trkpt lat="40.265200" lon="-4.925070">
        <ele>1002.641</ele>
        <time>2020-02-29T00:54:56Z</time>
      </trkpt>
      <trkpt lat="40.265250" lon="-4.925090">
        <ele>1002.022</ele>
        <time>2020-02-29T00:55:16Z</time>
      </trkpt>
      <trkpt lat="40.265260" lon="-4.925090">
        <ele>1002.024</ele>
        <time>2020-02-29T00:55:36Z</time>
      </trkpt>
      <trkpt lat="40.265410" lon="-4.925160">
        <ele>1001.352</ele>
        <time>2020-02-29T00:55:56Z</time>
      </trkpt>
      <trkpt lat="40.265420" lon="-4.925170">
        <ele>1001.165</ele>
        <time>2020-02-29T00:56:16Z</time>
      </trkpt>
      <trkpt lat="40.265560" lon="-4.925210">
        <ele>1002.220</ele>
        <time>2020-02-29T00:56:36Z</time>
      </trkpt>
      <trkpt lat="40.265710" lon="-4.925210">
        <ele>1000.734</ele>
        <time>2020-02-29T00:56:56Z</time>
      </trkpt>
      <trkpt lat="40.265930" lon="-4.925130">
        <ele>1000.455</ele>
        <time>2020-02-29T00:57:16Z</time>
      </trkpt>
      <trkpt lat="40.265950" lon="-4.925110">
        <ele>1000.810</ele>
        <time>2020-02-29T00:57:36Z</time>
      </trkpt>
      <trkpt lat="40.266280" lon="-4.924920">
        <ele>1003.708</ele>
        <time>2020-02-29T00:57:56Z</time>
      </trkpt>
      <trkpt lat="40.266290" lon="-4.924910">
        <ele>1004.217</ele>
        <time>2020-02-29T00:58:16Z</time>
      </trkpt>
      <trkpt lat="40.266410" lon="-4.924840">
        <ele>1006.540</ele>
        <time>2020-02-29T00:58:36Z</time>
      </trkpt>
      <trkpt lat="40.267270" lon="-4.924540">
        <ele>1013.545</ele>
        <time>2020-02-29T00:58:56Z</time>
      </trkpt>
      <trkpt lat="40.267400" lon="-4.924480">
        <ele>1014.546</ele>
        <time>2020-02-29T00:59:16Z</time>
      </trkpt>
      <trkpt lat="40.267500" lon="-4.924390">
        <ele>1015.668</ele>
        <time>2020-02-29T00:59:36Z</time>
      </trkpt>
      <trkpt lat="40.267540" lon="-4.924310">
        <ele>1015.566</ele>
        <time>2020-02-29T00:59:56Z</time>
      </trkpt>
      <trkpt lat="40.267570" lon="-4.924230">
        <ele>1015.539</ele>
        <time>2020-02-29T01:00:16Z</time>
      </trkpt>
      <trkpt lat="40.267570" lon="-4.924200">
        <ele>1016.284</ele>
        <time>2020-02-29T01:00:36Z</time>
      </trkpt>
      <trkpt lat="40.267690" lon="-4.923840">
        <ele>1013.684</ele>
        <time>2020-02-29T01:00:56Z</time>
      </trkpt>
      <trkpt lat="40.267700" lon="-4.923790">
        <ele>1013.407</ele>
        <time>2020-02-29T01:01:16Z</time>
      </trkpt>
      <trkpt lat="40.267770" lon="-4.923600">
        <ele>1010.017</ele>
        <time>2020-02-29T01:01:36Z</time>
      </trkpt>
      <trkpt lat="40.267790" lon="-4.923580">
        <ele>1009.808</ele>
        <time>2020-02-29T01:01:56Z</time>
      </trkpt>
      <trkpt lat="40.267810" lon="-4.923540">
        <ele>1010.842</ele>
        <time>2020-02-29T01:02:16Z</time>
      </trkpt>
      <trkpt lat="40.267840" lon="-4.923500">
        <ele>1011.725</ele>
        <time>2020-02-29T01:02:36Z</time>
      </trkpt>
      <trkpt lat="40.267870" lon="-4.923470">
        <ele>1012.280</ele>
        <time>2020-02-29T01:02:56Z</time>
      </trkpt>
      <trkpt lat="40.267920" lon="-4.923440">
        <ele>1012.691</ele>
        <time>2020-02-29T01:03:16Z</time>
      </trkpt>
      <trkpt lat="40.267990" lon="-4.923440">
        <ele>1011.993</ele>
        <time>2020-02-29T01:03:36Z</time>
      </trkpt>
      <trkpt lat="40.268160" lon="-4.923480">
        <ele>1015.551</ele>
        <time>2020-02-29T01:03:56Z</time>
      </trkpt>
      <trkpt lat="40.268190" lon="-4.923500">
        <ele>1016.524</ele>
        <time>2020-02-29T01:04:16Z</time>
      </trkpt>
      <trkpt lat="40.268240" lon="-4.923550">
        <ele>1017.529</ele>
        <time>2020-02-29T01:04:36Z</time>
      </trkpt>
      <trkpt lat="40.268290" lon="-4.923710">
        <ele>1016.136</ele>
        <time>2020-02-29T01:04:56Z</time>
      </trkpt>
      <trkpt lat="40.268300" lon="-4.923810">
        <ele>1014.717</ele>
        <time>2020-02-29T01:05:16Z</time>
      </trkpt>
      <trkpt lat="40.268330" lon="-4.923930">
        <ele>1014.118</ele>
        <time>2020-02-29T01:05:36Z</time>
      </trkpt>
      <trkpt lat="40.268390" lon="-4.924040">
        <ele>1015.408</ele>
        <time>2020-02-29T01:05:56Z</time>
      </trkpt>
      <trkpt lat="40.268420" lon="-4.924080">
        <ele>1015.917</ele>
        <time>2020-02-29T01:06:16Z</time>
      </trkpt>
      <trkpt lat="40.268510" lon="-4.924170">
        <ele>1016.880</ele>
        <time>2020-02-29T01:06:36Z</time>
      </trkpt>
      <trkpt lat="40.268830" lon="-4.924390">
        <ele>1017.855</ele>
        <time>2020-02-29T01:06:56Z</time>
      </trkpt>
      <trkpt lat="40.268880" lon="-4.924410">
        <ele>1018.536</ele>
        <time>2020-02-29T01:07:16Z</time>
      </trkpt>
      <trkpt lat="40.268950" lon="-4.924420">
        <ele>1017.948</ele>
        <time>2020-02-29T01:07:36Z</time>
      </trkpt>
      <trkpt lat="40.269010" lon="-4.924420">
        <ele>1017.516</ele>
        <time>2020-02-29T01:07:56Z</time>
      </trkpt>
      <trkpt lat="40.269060" lon="-4.924400">
        <ele>1018.459</ele>
        <time>2020-02-29T01:08:16Z</time>
      </trkpt>
      <trkpt lat="40.269130" lon="-4.924360">
        <ele>1020.424</ele>
        <time>2020-02-29T01:08:36Z</time>
      </trkpt>
      <trkpt lat="40.269170" lon="-4.924320">
        <ele>1022.559</ele>
        <time>2020-02-29T01:08:56Z</time>
      </trkpt>
      <trkpt lat="40.269310" lon="-4.924210">
        <ele>1024.603</ele>
        <time>2020-02-29T01:09:16Z</time>
      </trkpt>
      <trkpt lat="40.269330" lon="-4.924200">
        <ele>1024.423</ele>
        <time>2020-02-29T01:09:36Z</time>
      </trkpt>
      <trkpt lat="40.269510" lon="-4.924050">
        <ele>1025.508</ele>
        <time>2020-02-29T01:09:56Z</time>
      </trkpt>
      <trkpt lat="40.269600" lon="-4.924000">
        <ele>1025.489</ele>
        <time>2020-02-29T01:10:16Z</time>
      </trkpt>
      <trkpt lat="40.269640" lon="-4.923970">
        <ele>1025.912</ele>
        <time>2020-02-29T01:10:36Z</time>
      </trkpt>
      <trkpt lat="40.269720" lon="-4.923940">
        <ele>1025.317</ele>
        <time>2020-02-29T01:10:56Z</time>
      </trkpt>
      <trkpt lat="40.269780" lon="-4.923930">
        <ele>1025.628</ele>
        <time>2020-02-29T01:11:16Z</time>
      </trkpt>
      <trkpt lat="40.269810" lon="-4.923930">
        <ele>1025.550</ele>
        <time>2020-02-29T01:11:36Z</time>
      </trkpt>
      <trkpt lat="40.270880" lon="-4.924190">
        <ele>1027.778</ele>
        <time>2020-02-29T01:11:56Z</time>
      </trkpt>
      <trkpt lat="40.271050" lon="-4.924220">
        <ele>1028.841</ele>
        <time>2020-02-29T01:12:16Z</time>
      </trkpt>
      <trkpt lat="40.271060" lon="-4.924230">
        <ele>1028.556</ele>
        <time>2020-02-29T01:12:36Z</time>
      </trkpt>
      <trkpt lat="40.271440" lon="-4.924310">
        <ele>1031.295</ele>
        <time>2020-02-29T01:12:56Z</time>
      </trkpt>
      <trkpt lat="40.272280" lon="-4.924610">
        <ele>1036.049</ele>
        <time>2020-02-29T01:13:16Z</time>
      </trkpt>
      <trkpt lat="40.272770" lon="-4.924740">
        <ele>1029.923</ele>
        <time>2020-02-29T01:13:36Z</time>
      </trkpt>
      <trkpt lat="40.272820" lon="-4.924780">
        <ele>1031.008</ele>
        <time>2020-02-29T01:13:56Z</time>
      </trkpt>
      <trkpt lat="40.272870" lon="-4.924810">
        <ele>1032.643</ele>
        <time>2020-02-29T01:14:16Z</time>
      </trkpt>
      <trkpt lat="40.272890" lon="-4.924850">
        <ele>1033.536</ele>
        <time>2020-02-29T01:14:36Z</time>
      </trkpt>
      <trkpt lat="40.272910" lon="-4.924910">
        <ele>1034.691</ele>
        <time>2020-02-29T01:14:56Z</time>
      </trkpt>
      <trkpt lat="40.272910" lon="-4.924970">
        <ele>1035.012</ele>
        <time>2020-02-29T01:15:16Z</time>
      </trkpt>
      <trkpt lat="40.272920" lon="-4.924980">
        <ele>1035.544</ele>
        <time>2020-02-29T01:15:36Z</time>
      </trkpt>
      <trkpt lat="40.272920" lon="-4.925090">
        <ele>1040.882</ele>
        <time>2020-02-29T01:15:56Z</time>
      </trkpt>
      <trkpt lat="40.272900" lon="-4.925160">
        <ele>1044.035</ele>
        <time>2020-02-29T01:16:16Z</time>
      </trkpt>
      <trkpt lat="40.272890" lon="-4.925180">
        <ele>1044.780</ele>
        <time>2020-02-29T01:16:36Z</time>
      </trkpt>
      <trkpt lat="40.272860" lon="-4.925220">
        <ele>1045.874</ele>
        <time>2020-02-29T01:16:56Z</time>
      </trkpt>
      <trkpt lat="40.272810" lon="-4.925260">
        <ele>1046.256</ele>
        <time>2020-02-29T01:17:16Z</time>
      </trkpt>
      <trkpt lat="40.272250" lon="-4.925620">
        <ele>1046.221</ele>
        <time>2020-02-29T01:17:36Z</time>
      </trkpt>
      <trkpt lat="40.272110" lon="-4.925730">
        <ele>1046.508</ele>
        <time>2020-02-29T01:17:56Z</time>
      </trkpt>
      <trkpt lat="40.272090" lon="-4.925740">
        <ele>1046.231</ele>
        <time>2020-02-29T01:18:16Z</time>
      </trkpt>
      <trkpt lat="40.271980" lon="-4.925820">
        <ele>1046.554</ele>
        <time>2020-02-29T01:18:36Z</time>
      </trkpt>
      <trkpt lat="40.271950" lon="-4.925830">
        <ele>1046.019</ele>
        <time>2020-02-29T01:18:56Z</time>
      </trkpt>
      <trkpt lat="40.271840" lon="-4.925890">
        <ele>1046.160</ele>
        <time>2020-02-29T01:19:16Z</time>
      </trkpt>
      <trkpt lat="40.271790" lon="-4.925930">
        <ele>1046.942</ele>
        <time>2020-02-29T01:19:36Z</time>
      </trkpt>
      <trkpt lat="40.271420" lon="-4.926140">
        <ele>1049.470</ele>
        <time>2020-02-29T01:19:56Z</time>
      </trkpt>
      <trkpt lat="40.271290" lon="-4.926190">
        <ele>1050.573</ele>
        <time>2020-02-29T01:20:16Z</time>
      </trkpt>
      <trkpt lat="40.271110" lon="-4.926230">
        <ele>1050.048</ele>
        <time>2020-02-29T01:20:36Z</time>
      </trkpt>
      <trkpt lat="40.270880" lon="-4.926310">
        <ele>1049.994</ele>
        <time>2020-02-29T01:20:56Z</time>
      </trkpt>
      <trkpt lat="40.270770" lon="-4.926390">
        <ele>1050.857</ele>
        <time>2020-02-29T01:21:16Z</time>
      </trkpt>
      <trkpt lat="40.270700" lon="-4.926430">
        <ele>1050.122</ele>
        <time>2020-02-29T01:21:36Z</time>
      </trkpt>
      <trkpt lat="40.270290" lon="-4.926780">
        <ele>1054.108</ele>
        <time>2020-02-29T01:21:56Z</time>
      </trkpt>
      <trkpt lat="40.269940" lon="-4.927120">
        <ele>1058.613</ele>
        <time>2020-02-29T01:22:16Z</time>
      </trkpt>
      <trkpt lat="40.269850" lon="-4.927190">
        <ele>1056.526</ele>
        <time>2020-02-29T01:22:36Z</time>
      </trkpt>
      <trkpt lat="40.269740" lon="-4.927310">
        <ele>1055.461</ele>
        <time>2020-02-29T01:22:56Z</time>
      </trkpt>
      <trkpt lat="40.269740" lon="-4.927320">
        <ele>1055.852</ele>
        <time>2020-02-29T01:23:16Z</time>
      </trkpt>
      <trkpt lat="40.269640" lon="-4.927470">
        <ele>1055.964</ele>
        <time>2020-02-29T01:23:36Z</time>
      </trkpt>
      <trkpt lat="40.269560" lon="-4.927720">
        <ele>1057.782</ele>
        <time>2020-02-29T01:23:56Z</time>
      </trkpt>
      <trkpt lat="40.269550" lon="-4.927730">
        <ele>1057.545</ele>
        <time>2020-02-29T01:24:16Z</time>
      </trkpt>
      <trkpt lat="40.269520" lon="-4.927810">
        <ele>1058.260</ele>
        <time>2020-02-29T01:24:36Z</time>
      </trkpt>
      <trkpt lat="40.269470" lon="-4.927890">
        <ele>1058.376</ele>
        <time>2020-02-29T01:24:56Z</time>
      </trkpt>
      <trkpt lat="40.269390" lon="-4.927980">
        <ele>1057.490</ele>
        <time>2020-02-29T01:25:16Z</time>
      </trkpt>
      <trkpt lat="40.269340" lon="-4.928060">
        <ele>1057.519</ele>
        <time>2020-02-29T01:25:36Z</time>
      </trkpt>
      <trkpt lat="40.269320" lon="-4.928080">
        <ele>1057.008</ele>
        <time>2020-02-29T01:25:56Z</time>
      </trkpt>
      <trkpt lat="40.268980" lon="-4.928760">
        <ele>1061.821</ele>
        <time>2020-02-29T01:26:16Z</time>
      </trkpt>
      <trkpt lat="40.268780" lon="-4.929010">
        <ele>1060.264</ele>
        <time>2020-02-29T01:26:36Z</time>
      </trkpt>
      <trkpt lat="40.268730" lon="-4.929060">
        <ele>1059.529</ele>
        <time>2020-02-29T01:26:56Z</time>
      </trkpt>
      <trkpt lat="40.268700" lon="-4.929100">
        <ele>1059.140</ele>
        <time>2020-02-29T01:27:16Z</time>
      </trkpt>
      <trkpt lat="40.268640" lon="-4.929210">
        <ele>1058.452</ele>
        <time>2020-02-29T01:27:36Z</time>
      </trkpt>
      <trkpt lat="40.268420" lon="-4.930030">
        <ele>1067.220</ele>
        <time>2020-02-29T01:27:56Z</time>
      </trkpt>
      <trkpt lat="40.268340" lon="-4.930160">
        <ele>1065.633</ele>
        <time>2020-02-29T01:28:16Z</time>
      </trkpt>
      <trkpt lat="40.268100" lon="-4.930420">
        <ele>1063.818</ele>
        <time>2020-02-29T01:28:36Z</time>
      </trkpt>
      <trkpt lat="40.267850" lon="-4.930730">
        <ele>1063.385</ele>
        <time>2020-02-29T01:28:56Z</time>
      </trkpt>
      <trkpt lat="40.267820" lon="-4.930780">
        <ele>1063.389</ele>
        <time>2020-02-29T01:29:16Z</time>
      </trkpt>
      <trkpt lat="40.267790" lon="-4.930860">
        <ele>1063.617</ele>
        <time>2020-02-29T01:29:36Z</time>
      </trkpt>
      <trkpt lat="40.267550" lon="-4.931840">
        <ele>1064.508</ele>
        <time>2020-02-29T01:29:56Z</time>
      </trkpt>
      <trkpt lat="40.267410" lon="-4.932160">
        <ele>1063.242</ele>
        <time>2020-02-29T01:30:16Z</time>
      </trkpt>
      <trkpt lat="40.267380" lon="-4.932280">
        <ele>1062.835</ele>
        <time>2020-02-29T01:30:36Z</time>
      </trkpt>
      <trkpt lat="40.267380" lon="-4.932500">
        <ele>1063.820</ele>
        <time>2020-02-29T01:30:56Z</time>
      </trkpt>
      <trkpt lat="40.267430" lon="-4.933070">
        <ele>1065.621</ele>
        <time>2020-02-29T01:31:16Z</time>
      </trkpt>
      <trkpt lat="40.267430" lon="-4.933160">
        <ele>1066.233</ele>
        <time>2020-02-29T01:31:36Z</time>
      </trkpt>
      <trkpt lat="40.267400" lon="-4.933290">
        <ele>1066.121</ele>
        <time>2020-02-29T01:31:56Z</time>
      </trkpt>
      <trkpt lat="40.267400" lon="-4.933300">
        <ele>1066.244</ele>
        <time>2020-02-29T01:32:16Z</time>
      </trkpt>
      <trkpt lat="40.267310" lon="-4.933570">
        <ele>1065.149</ele>
        <time>2020-02-29T01:32:36Z</time>
      </trkpt>
      <trkpt lat="40.267300" lon="-4.933630">
        <ele>1065.138</ele>
        <time>2020-02-29T01:32:56Z</time>
      </trkpt>
      <trkpt lat="40.267280" lon="-4.933670">
        <ele>1064.570</ele>
        <time>2020-02-29T01:33:16Z</time>
      </trkpt>
      <trkpt lat="40.267270" lon="-4.933760">
        <ele>1064.417</ele>
        <time>2020-02-29T01:33:36Z</time>
      </trkpt>
      <trkpt lat="40.267270" lon="-4.933830">
        <ele>1064.708</ele>
        <time>2020-02-29T01:33:56Z</time>
      </trkpt>
      <trkpt lat="40.267290" lon="-4.933990">
        <ele>1065.247</ele>
        <time>2020-02-29T01:34:16Z</time>
      </trkpt>
      <trkpt lat="40.267330" lon="-4.934120">
        <ele>1066.120</ele>
        <time>2020-02-29T01:34:36Z</time>
      </trkpt>
      <trkpt lat="40.267600" lon="-4.934750">
        <ele>1069.035</ele>
        <time>2020-02-29T01:34:56Z</time>
      </trkpt>
      <trkpt lat="40.267730" lon="-4.935210">
        <ele>1073.296</ele>
        <time>2020-02-29T01:35:16Z</time>
      </trkpt>
      <trkpt lat="40.267750" lon="-4.935440">
        <ele>1076.478</ele>
        <time>2020-02-29T01:35:36Z</time>
      </trkpt>
      <trkpt lat="40.267720" lon="-4.935570">
        <ele>1078.026</ele>
        <time>2020-02-29T01:35:56Z</time>
      </trkpt>
      <trkpt lat="40.267680" lon="-4.935620">
        <ele>1079.059</ele>
        <time>2020-02-29T01:36:16Z</time>
      </trkpt>
      <trkpt lat="40.267650" lon="-4.935640">
        <ele>1079.754</ele>
        <time>2020-02-29T01:36:36Z</time>
      </trkpt>
      <trkpt lat="40.267620" lon="-4.935650">
        <ele>1080.241</ele>
        <time>2020-02-29T01:36:56Z</time>
      </trkpt>
      <trkpt lat="40.267600" lon="-4.935650">
        <ele>1080.481</ele>
        <time>2020-02-29T01:37:16Z</time>
      </trkpt>
      <trkpt lat="40.267570" lon="-4.935660">
        <ele>1081.109</ele>
        <time>2020-02-29T01:37:36Z</time>
      </trkpt>
      <trkpt lat="40.267280" lon="-4.935530">
        <ele>1079.908</ele>
        <time>2020-02-29T01:37:56Z</time>
      </trkpt>
      <trkpt lat="40.267240" lon="-4.935530">
        <ele>1080.668</ele>
        <time>2020-02-29T01:38:16Z</time>
      </trkpt>
      <trkpt lat="40.267190" lon="-4.935540">
        <ele>1081.141</ele>
        <time>2020-02-29T01:38:36Z</time>
      </trkpt>
      <trkpt lat="40.267120" lon="-4.935570">
        <ele>1081.786</ele>
        <time>2020-02-29T01:38:56Z</time>
      </trkpt>
      <trkpt lat="40.266780" lon="-4.935830">
        <ele>1081.697</ele>
        <time>2020-02-29T01:39:16Z</time>
      </trkpt>
      <trkpt lat="40.266630" lon="-4.935970">
        <ele>1081.939</ele>
        <time>2020-02-29T01:39:36Z</time>
      </trkpt>
      <trkpt lat="40.266550" lon="-4.936030">
        <ele>1081.677</ele>
        <time>2020-02-29T01:39:56Z</time>
      </trkpt>
      <trkpt lat="40.266440" lon="-4.936160">
        <ele>1081.320</ele>
        <time>2020-02-29T01:40:16Z</time>
      </trkpt>
      <trkpt lat="40.266390" lon="-4.936250">
        <ele>1081.035</ele>
        <time>2020-02-29T01:40:36Z</time>
      </trkpt>
      <trkpt lat="40.266390" lon="-4.936270">
        <ele>1081.242</ele>
        <time>2020-02-29T01:40:56Z</time>
      </trkpt>
      <trkpt lat="40.266370" lon="-4.936310">
        <ele>1080.922</ele>
        <time>2020-02-29T01:41:16Z</time>
      </trkpt>
      <trkpt lat="40.266350" lon="-4.936400">
        <ele>1080.714</ele>
        <time>2020-02-29T01:41:36Z</time>
      </trkpt>
      <trkpt lat="40.266360" lon="-4.936600">
        <ele>1080.808</ele>
        <time>2020-02-29T01:41:56Z</time>
      </trkpt>
      <trkpt lat="40.266390" lon="-4.936720">
        <ele>1081.848</ele>
        <time>2020-02-29T01:42:16Z</time>
      </trkpt>
      <trkpt lat="40.266390" lon="-4.936740">
        <ele>1081.841</ele>
        <time>2020-02-29T01:42:36Z</time>
      </trkpt>
      <trkpt lat="40.266460" lon="-4.937040">
        <ele>1085.536</ele>
        <time>2020-02-29T01:42:56Z</time>
      </trkpt>
      <trkpt lat="40.266470" lon="-4.937120">
        <ele>1087.087</ele>
        <time>2020-02-29T01:43:16Z</time>
      </trkpt>
      <trkpt lat="40.266470" lon="-4.937190">
        <ele>1087.849</ele>
        <time>2020-02-29T01:43:36Z</time>
      </trkpt>
      <trkpt lat="40.266440" lon="-4.937300">
        <ele>1088.577</ele>
        <time>2020-02-29T01:43:56Z</time>
      </trkpt>
      <trkpt lat="40.266360" lon="-4.937390">
        <ele>1088.390</ele>
        <time>2020-02-29T01:44:16Z</time>
      </trkpt>
      <trkpt lat="40.266220" lon="-4.937480">
        <ele>1089.345</ele>
        <time>2020-02-29T01:44:36Z</time>
      </trkpt>
      <trkpt lat="40.266050" lon="-4.937570">
        <ele>1091.015</ele>
        <time>2020-02-29T01:44:56Z</time>
      </trkpt>
      <trkpt lat="40.266000" lon="-4.937620">
        <ele>1091.765</ele>
        <time>2020-02-29T01:45:16Z</time>
      </trkpt>
      <trkpt lat="40.265920" lon="-4.937720">
        <ele>1091.911</ele>
        <time>2020-02-29T01:45:36Z</time>
      </trkpt>
      <trkpt lat="40.265920" lon="-4.937730">
        <ele>1092.008</ele>
        <time>2020-02-29T01:45:56Z</time>
      </trkpt>
      <trkpt lat="40.265900" lon="-4.937770">
        <ele>1091.995</ele>
        <time>2020-02-29T01:46:16Z</time>
      </trkpt>
      <trkpt lat="40.265640" lon="-4.938590">
        <ele>1094.538</ele>
        <time>2020-02-29T01:46:36Z</time>
      </trkpt>
      <trkpt lat="40.265640" lon="-4.938600">
        <ele>1094.663</ele>
        <time>2020-02-29T01:46:56Z</time>
      </trkpt>
      <trkpt lat="40.265550" lon="-4.938860">
        <ele>1096.464</ele>
        <time>2020-02-29T01:47:16Z</time>
      </trkpt>
      <trkpt lat="40.265510" lon="-4.938930">
        <ele>1097.336</ele>
        <time>2020-02-29T01:47:36Z</time>
      </trkpt>
      <trkpt lat="40.265470" lon="-4.938980">
        <ele>1097.844</ele>
        <time>2020-02-29T01:47:56Z</time>
      </trkpt>
      <trkpt lat="40.265420" lon="-4.939020">
        <ele>1098.157</ele>
        <time>2020-02-29T01:48:16Z</time>
      </trkpt>
      <trkpt lat="40.265260" lon="-4.939110">
        <ele>1098.382</ele>
        <time>2020-02-29T01:48:36Z</time>
      </trkpt>
      <trkpt lat="40.265060" lon="-4.939190">
        <ele>1097.846</ele>
        <time>2020-02-29T01:48:56Z</time>
      </trkpt>
      <trkpt lat="40.264940" lon="-4.939270">
        <ele>1098.788</ele>
        <time>2020-02-29T01:49:16Z</time>
      </trkpt>
      <trkpt lat="40.264870" lon="-4.939340">
        <ele>1098.916</ele>
        <time>2020-02-29T01:49:36Z</time>
      </trkpt>
      <trkpt lat="40.264840" lon="-4.939400">
        <ele>1099.508</ele>
        <time>2020-02-29T01:49:56Z</time>
      </trkpt>
      <trkpt lat="40.264840" lon="-4.939420">
        <ele>1100.148</ele>
        <time>2020-02-29T01:50:16Z</time>
      </trkpt>
      <trkpt lat="40.264810" lon="-4.939490">
        <ele>1100.571</ele>
        <time>2020-02-29T01:50:36Z</time>
      </trkpt>
      <trkpt lat="40.264780" lon="-4.939650">
        <ele>1102.326</ele>
        <time>2020-02-29T01:50:56Z</time>
      </trkpt>
      <trkpt lat="40.264720" lon="-4.939870">
        <ele>1102.687</ele>
        <time>2020-02-29T01:51:16Z</time>
      </trkpt>
      <trkpt lat="40.264720" lon="-4.939910">
        <ele>1103.329</ele>
        <time>2020-02-29T01:51:36Z</time>
      </trkpt>
      <trkpt lat="40.264680" lon="-4.940030">
        <ele>1104.357</ele>
        <time>2020-02-29T01:51:56Z</time>
      </trkpt>
      <trkpt lat="40.264650" lon="-4.940090">
        <ele>1104.940</ele>
        <time>2020-02-29T01:52:16Z</time>
      </trkpt>
      <trkpt lat="40.264650" lon="-4.940110">
        <ele>1105.325</ele>
        <time>2020-02-29T01:52:36Z</time>
      </trkpt>
      <trkpt lat="40.264590" lon="-4.940200">
        <ele>1106.157</ele>
        <time>2020-02-29T01:52:56Z</time>
      </trkpt>
      <trkpt lat="40.264370" lon="-4.940370">
        <ele>1106.300</ele>
        <time>2020-02-29T01:53:16Z</time>
      </trkpt>
      <trkpt lat="40.264130" lon="-4.940530">
        <ele>1107.620</ele>
        <time>2020-02-29T01:53:36Z</time>
      </trkpt>
      <trkpt lat="40.264050" lon="-4.940560">
        <ele>1109.008</ele>
        <time>2020-02-29T01:53:56Z</time>
      </trkpt>
      <trkpt lat="40.263990" lon="-4.940560">
        <ele>1109.449</ele>
        <time>2020-02-29T01:54:16Z</time>
      </trkpt>
      <trkpt lat="40.263910" lon="-4.940520">
        <ele>1109.112</ele>
        <time>2020-02-29T01:54:36Z</time>
      </trkpt>
      <trkpt lat="40.263880" lon="-4.940490">
        <ele>1108.987</ele>
        <time>2020-02-29T01:54:56Z</time>
      </trkpt>
      <trkpt lat="40.263790" lon="-4.940420">
        <ele>1109.978</ele>
        <time>2020-02-29T01:55:16Z</time>
      </trkpt>
      <trkpt lat="40.263530" lon="-4.940130">
        <ele>1109.550</ele>
        <time>2020-02-29T01:55:36Z</time>
      </trkpt>
      <trkpt lat="40.263310" lon="-4.939990">
        <ele>1112.188</ele>
        <time>2020-02-29T01:55:56Z</time>
      </trkpt>
      <trkpt lat="40.263120" lon="-4.939940">
        <ele>1114.141</ele>
        <time>2020-02-29T01:56:16Z</time>
      </trkpt>
      <trkpt lat="40.263100" lon="-4.939940">
        <ele>1114.536</ele>
        <time>2020-02-29T01:56:36Z</time>
      </trkpt>
      <trkpt lat="40.262930" lon="-4.939900">
        <ele>1114.028</ele>
        <time>2020-02-29T01:56:56Z</time>
      </trkpt>
      <trkpt lat="40.262720" lon="-4.939890">
        <ele>1113.489</ele>
        <time>2020-02-29T01:57:16Z</time>
      </trkpt>
      <trkpt lat="40.262570" lon="-4.939920">
        <ele>1113.817</ele>
        <time>2020-02-29T01:57:36Z</time>
      </trkpt>
      <trkpt lat="40.262550" lon="-4.939920">
        <ele>1113.608</ele>
        <time>2020-02-29T01:57:56Z</time>
      </trkpt>
      <trkpt lat="40.262040" lon="-4.940060">
        <ele>1116.026</ele>
        <time>2020-02-29T01:58:16Z</time>
      </trkpt>
      <trkpt lat="40.262010" lon="-4.940060">
        <ele>1115.569</ele>
        <time>2020-02-29T01:58:36Z</time>
      </trkpt>
      <trkpt lat="40.261420" lon="-4.940310">
        <ele>1115.544</ele>
        <time>2020-02-29T01:58:56Z</time>
      </trkpt>
      <trkpt lat="40.261260" lon="-4.940350">
        <ele>1115.315</ele>
        <time>2020-02-29T01:59:16Z</time>
      </trkpt>
      <trkpt lat="40.260640" lon="-4.940460">
        <ele>1115.827</ele>
        <time>2020-02-29T01:59:36Z</time>
      </trkpt>
      <trkpt lat="40.260570" lon="-4.940480">
        <ele>1116.595</ele>
        <time>2020-02-29T01:59:56Z</time>
      </trkpt>
      <trkpt lat="40.260460" lon="-4.940490">
        <ele>1117.398</ele>
        <time>2020-02-29T02:00:16Z</time>
      </trkpt>
      <trkpt lat="40.260280" lon="-4.940490">
        <ele>1117.983</ele>
        <time>2020-02-29T02:00:36Z</time>
      </trkpt>
      <trkpt lat="40.260220" lon="-4.940480">
        <ele>1116.762</ele>
        <time>2020-02-29T02:00:56Z</time>
      </trkpt>
      <trkpt lat="40.260020" lon="-4.940480">
        <ele>1114.383</ele>
        <time>2020-02-29T02:01:16Z</time>
      </trkpt>
      <trkpt lat="40.259940" lon="-4.940490">
        <ele>1113.811</ele>
        <time>2020-02-29T02:01:36Z</time>
      </trkpt>
      <trkpt lat="40.259920" lon="-4.940500">
        <ele>1114.008</ele>
        <time>2020-02-29T02:01:56Z</time>
      </trkpt>
      <trkpt lat="40.259870" lon="-4.940510">
        <ele>1113.960</ele>
        <time>2020-02-29T02:02:16Z</time>
      </trkpt>
      <trkpt lat="40.259590" lon="-4.940690">
        <ele>1113.813</ele>
        <time>2020-02-29T02:02:36Z</time>
      </trkpt>
      <trkpt lat="40.259430" lon="-4.940840">
        <ele>1112.828</ele>
        <time>2020-02-29T02:02:56Z</time>
      </trkpt>
      <trkpt lat="40.258830" lon="-4.941850">
        <ele>1116.969</ele>
        <time>2020-02-29T02:03:16Z</time>
      </trkpt>
      <trkpt lat="40.258700" lon="-4.942110">
        <ele>1117.061</ele>
        <time>2020-02-29T02:03:36Z</time>
      </trkpt>
      <trkpt lat="40.258600" lon="-4.942410">
        <ele>1117.839</ele>
        <time>2020-02-29T02:03:56Z</time>
      </trkpt>
      <trkpt lat="40.258530" lon="-4.942790">
        <ele>1118.042</ele>
        <time>2020-02-29T02:04:16Z</time>
      </trkpt>
      <trkpt lat="40.258450" lon="-4.943720">
        <ele>1121.387</ele>
        <time>2020-02-29T02:04:36Z</time>
      </trkpt>
      <trkpt lat="40.258440" lon="-4.944120">
        <ele>1128.128</ele>
        <time>2020-02-29T02:04:56Z</time>
      </trkpt>
      <trkpt lat="40.258420" lon="-4.944350">
        <ele>1132.389</ele>
        <time>2020-02-29T02:05:16Z</time>
      </trkpt>
      <trkpt lat="40.258400" lon="-4.944410">
        <ele>1133.217</ele>
        <time>2020-02-29T02:05:36Z</time>
      </trkpt>
      <trkpt lat="40.258380" lon="-4.944440">
        <ele>1133.608</ele>
        <time>2020-02-29T02:05:56Z</time>
      </trkpt>
      <trkpt lat="40.258300" lon="-4.944510">
        <ele>1134.516</ele>
        <time>2020-02-29T02:06:16Z</time>
      </trkpt>
      <trkpt lat="40.258250" lon="-4.944530">
        <ele>1134.919</ele>
        <time>2020-02-29T02:06:36Z</time>
      </trkpt>
      <trkpt lat="40.258170" lon="-4.944550">
        <ele>1135.544</ele>
        <time>2020-02-29T02:06:56Z</time>
      </trkpt>
      <trkpt lat="40.257780" lon="-4.944590">
        <ele>1135.315</ele>
        <time>2020-02-29T02:07:16Z</time>
      </trkpt>
      <trkpt lat="40.257620" lon="-4.944630">
        <ele>1133.257</ele>
        <time>2020-02-29T02:07:36Z</time>
      </trkpt>
      <trkpt lat="40.257610" lon="-4.944640">
        <ele>1133.445</ele>
        <time>2020-02-29T02:07:56Z</time>
      </trkpt>
      <trkpt lat="40.257560" lon="-4.944660">
        <ele>1133.068</ele>
        <time>2020-02-29T02:08:16Z</time>
      </trkpt>
      <trkpt lat="40.257470" lon="-4.944750">
        <ele>1133.693</ele>
        <time>2020-02-29T02:08:36Z</time>
      </trkpt>
      <trkpt lat="40.257240" lon="-4.945140">
        <ele>1137.377</ele>
        <time>2020-02-29T02:08:56Z</time>
      </trkpt>
      <trkpt lat="40.257130" lon="-4.945300">
        <ele>1138.861</ele>
        <time>2020-02-29T02:09:16Z</time>
      </trkpt>
      <trkpt lat="40.256940" lon="-4.945540">
        <ele>1141.327</ele>
        <time>2020-02-29T02:09:36Z</time>
      </trkpt>
      <trkpt lat="40.256850" lon="-4.945630">
        <ele>1143.608</ele>
        <time>2020-02-29T02:09:56Z</time>
      </trkpt>
      <trkpt lat="40.256750" lon="-4.945670">
        <ele>1144.061</ele>
        <time>2020-02-29T02:10:16Z</time>
      </trkpt>
      <trkpt lat="40.256700" lon="-4.945670">
        <ele>1143.634</ele>
        <time>2020-02-29T02:10:36Z</time>
      </trkpt>
      <trkpt lat="40.256680" lon="-4.945660">
        <ele>1143.129</ele>
        <time>2020-02-29T02:10:56Z</time>
      </trkpt>
      <trkpt lat="40.256630" lon="-4.945650">
        <ele>1142.960</ele>
        <time>2020-02-29T02:11:16Z</time>
      </trkpt>
      <trkpt lat="40.256500" lon="-4.945600">
        <ele>1141.822</ele>
        <time>2020-02-29T02:11:36Z</time>
      </trkpt>
      <trkpt lat="40.256380" lon="-4.945580">
        <ele>1141.130</ele>
        <time>2020-02-29T02:11:56Z</time>
      </trkpt>
      <trkpt lat="40.256330" lon="-4.945580">
        <ele>1140.743</ele>
        <time>2020-02-29T02:12:16Z</time>
      </trkpt>
      <trkpt lat="40.256180" lon="-4.945600">
        <ele>1140.628</ele>
        <time>2020-02-29T02:12:36Z</time>
      </trkpt>
      <trkpt lat="40.256030" lon="-4.945670">
        <ele>1141.742</ele>
        <time>2020-02-29T02:12:56Z</time>
      </trkpt>
      <trkpt lat="40.255820" lon="-4.945800">
        <ele>1142.322</ele>
        <time>2020-02-29T02:13:16Z</time>
      </trkpt>
      <trkpt lat="40.255660" lon="-4.945920">
        <ele>1143.314</ele>
        <time>2020-02-29T02:13:36Z</time>
      </trkpt>
      <trkpt lat="40.255440" lon="-4.946130">
        <ele>1144.308</ele>
        <time>2020-02-29T02:13:56Z</time>
      </trkpt>
      <trkpt lat="40.255190" lon="-4.946530">
        <ele>1152.438</ele>
        <time>2020-02-29T02:14:16Z</time>
      </trkpt>
      <trkpt lat="40.255180" lon="-4.946530">
        <ele>1152.161</ele>
        <time>2020-02-29T02:14:36Z</time>
      </trkpt>
      <trkpt lat="40.255140" lon="-4.946570">
        <ele>1152.776</ele>
        <time>2020-02-29T02:14:56Z</time>
      </trkpt>
      <trkpt lat="40.255090" lon="-4.946600">
        <ele>1152.877</ele>
        <time>2020-02-29T02:15:16Z</time>
      </trkpt>
      <trkpt lat="40.255030" lon="-4.946610">
        <ele>1152.089</ele>
        <time>2020-02-29T02:15:36Z</time>
      </trkpt>
      <trkpt lat="40.254950" lon="-4.946610">
        <ele>1152.167</ele>
        <time>2020-02-29T02:15:56Z</time>
      </trkpt>
      <trkpt lat="40.254850" lon="-4.946570">
        <ele>1151.650</ele>
        <time>2020-02-29T02:16:16Z</time>
      </trkpt>
      <trkpt lat="40.254780" lon="-4.946550">
        <ele>1151.545</ele>
        <time>2020-02-29T02:16:36Z</time>
      </trkpt>
      <trkpt lat="40.254520" lon="-4.946430">
        <ele>1150.133</ele>
        <time>2020-02-29T02:16:56Z</time>
      </trkpt>
      <trkpt lat="40.254510" lon="-4.946430">
        <ele>1150.423</ele>
        <time>2020-02-29T02:17:16Z</time>
      </trkpt>
      <trkpt lat="40.254380" lon="-4.946400">
        <ele>1149.615</ele>
        <time>2020-02-29T02:17:36Z</time>
      </trkpt>
      <trkpt lat="40.254280" lon="-4.946420">
        <ele>1149.008</ele>
        <time>2020-02-29T02:17:56Z</time>
      </trkpt>
      <trkpt lat="40.254230" lon="-4.946440">
        <ele>1149.027</ele>
        <time>2020-02-29T02:18:16Z</time>
      </trkpt>
      <trkpt lat="40.254160" lon="-4.946480">
        <ele>1149.520</ele>
        <time>2020-02-29T02:18:36Z</time>
      </trkpt>
      <trkpt lat="40.253890" lon="-4.946720">
        <ele>1156.395</ele>
        <time>2020-02-29T02:18:56Z</time>
      </trkpt>
      <trkpt lat="40.253700" lon="-4.946840">
        <ele>1159.726</ele>
        <time>2020-02-29T02:19:16Z</time>
      </trkpt>
      <trkpt lat="40.253520" lon="-4.946880">
        <ele>1161.348</ele>
        <time>2020-02-29T02:19:36Z</time>
      </trkpt>
      <trkpt lat="40.253300" lon="-4.946890">
        <ele>1164.246</ele>
        <time>2020-02-29T02:19:56Z</time>
      </trkpt>
      <trkpt lat="40.253220" lon="-4.946880">
        <ele>1165.579</ele>
        <time>2020-02-29T02:20:16Z</time>
      </trkpt>
      <trkpt lat="40.253070" lon="-4.946810">
        <ele>1165.974</ele>
        <time>2020-02-29T02:20:36Z</time>
      </trkpt>
      <trkpt lat="40.252850" lon="-4.946650">
        <ele>1160.151</ele>
        <time>2020-02-29T02:20:56Z</time>
      </trkpt>
      <trkpt lat="40.252780" lon="-4.946620">
        <ele>1159.501</ele>
        <time>2020-02-29T02:21:16Z</time>
      </trkpt>
      <trkpt lat="40.252710" lon="-4.946630">
        <ele>1158.911</ele>
        <time>2020-02-29T02:21:36Z</time>
      </trkpt>
      <trkpt lat="40.252650" lon="-4.946650">
        <ele>1158.708</ele>
        <time>2020-02-29T02:21:56Z</time>
      </trkpt>
      <trkpt lat="40.252550" lon="-4.946700">
        <ele>1158.669</ele>
        <time>2020-02-29T02:22:16Z</time>
      </trkpt>
      <trkpt lat="40.252060" lon="-4.947110">
        <ele>1160.472</ele>
        <time>2020-02-29T02:22:36Z</time>
      </trkpt>
      <trkpt lat="40.251920" lon="-4.947290">
        <ele>1159.327</ele>
        <time>2020-02-29T02:22:56Z</time>
      </trkpt>
      <trkpt lat="40.251790" lon="-4.947550">
        <ele>1159.438</ele>
        <time>2020-02-29T02:23:16Z</time>
      </trkpt>
      <trkpt lat="40.251760" lon="-4.947650">
        <ele>1160.050</ele>
        <time>2020-02-29T02:23:36Z</time>
      </trkpt>
      <trkpt lat="40.251580" lon="-4.948570">
        <ele>1165.748</ele>
        <time>2020-02-29T02:23:56Z</time>
      </trkpt>
      <trkpt lat="40.251000" lon="-4.950500">
        <ele>1172.131</ele>
        <time>2020-02-29T02:24:16Z</time>
      </trkpt>
      <trkpt lat="40.250990" lon="-4.950520">
        <ele>1172.126</ele>
        <time>2020-02-29T02:24:36Z</time>
      </trkpt>
      <trkpt lat="40.250930" lon="-4.950810">
        <ele>1172.459</ele>
        <time>2020-02-29T02:24:56Z</time>
      </trkpt>
      <trkpt lat="40.250460" lon="-4.954200">
        <ele>1182.803</ele>
        <time>2020-02-29T02:25:16Z</time>
      </trkpt>
      <trkpt lat="40.250460" lon="-4.954230">
        <ele>1183.123</ele>
        <time>2020-02-29T02:25:36Z</time>
      </trkpt>
      <trkpt lat="40.250380" lon="-4.954590">
        <ele>1183.208</ele>
        <time>2020-02-29T02:25:56Z</time>
      </trkpt>
      <trkpt lat="40.250340" lon="-4.954720">
        <ele>1183.119</ele>
        <time>2020-02-29T02:26:16Z</time>
      </trkpt>
      <trkpt lat="40.250270" lon="-4.956190">
        <ele>1188.322</ele>
        <time>2020-02-29T02:26:36Z</time>
      </trkpt>
      <trkpt lat="40.250260" lon="-4.956910">
        <ele>1188.847</ele>
        <time>2020-02-29T02:26:56Z</time>
      </trkpt>
      <trkpt lat="40.250280" lon="-4.957100">
        <ele>1188.078</ele>
        <time>2020-02-29T02:27:16Z</time>
      </trkpt>
      <trkpt lat="40.250330" lon="-4.957250">
        <ele>1189.180</ele>
        <time>2020-02-29T02:27:36Z</time>
      </trkpt>
      <trkpt lat="40.250400" lon="-4.957390">
        <ele>1189.818</ele>
        <time>2020-02-29T02:27:56Z</time>
      </trkpt>
      <trkpt lat="40.250800" lon="-4.957820">
        <ele>1196.331</ele>
        <time>2020-02-29T02:28:16Z</time>
      </trkpt>
      <trkpt lat="40.250910" lon="-4.957990">
        <ele>1198.486</ele>
        <time>2020-02-29T02:28:36Z</time>
      </trkpt>
      <trkpt lat="40.251010" lon="-4.958210">
        <ele>1198.953</ele>
        <time>2020-02-29T02:28:56Z</time>
      </trkpt>
      <trkpt lat="40.251110" lon="-4.958350">
        <ele>1200.504</ele>
        <time>2020-02-29T02:29:16Z</time>
      </trkpt>
      <trkpt lat="40.251120" lon="-4.958370">
        <ele>1200.214</ele>
        <time>2020-02-29T02:29:36Z</time>
      </trkpt>
      <trkpt lat="40.251150" lon="-4.958410">
        <ele>1200.008</ele>
        <time>2020-02-29T02:29:56Z</time>
      </trkpt>
      <trkpt lat="40.251260" lon="-4.958510">
        <ele>1200.519</ele>
        <time>2020-02-29T02:30:16Z</time>
      </trkpt>
      <trkpt lat="40.251730" lon="-4.958870">
        <ele>1202.772</ele>
        <time>2020-02-29T02:30:36Z</time>
      </trkpt>
      <trkpt lat="40.251840" lon="-4.958980">
        <ele>1205.737</ele>
        <time>2020-02-29T02:30:56Z</time>
      </trkpt>
      <trkpt lat="40.251860" lon="-4.959030">
        <ele>1206.378</ele>
        <time>2020-02-29T02:31:16Z</time>
      </trkpt>
      <trkpt lat="40.251870" lon="-4.959080">
        <ele>1206.620</ele>
        <time>2020-02-29T02:31:36Z</time>
      </trkpt>
      <trkpt lat="40.251870" lon="-4.959140">
        <ele>1206.468</ele>
        <time>2020-02-29T02:31:56Z</time>
      </trkpt>
      <trkpt lat="40.251820" lon="-4.959460">
        <ele>1207.971</ele>
        <time>2020-02-29T02:32:16Z</time>
      </trkpt>
      <trkpt lat="40.251750" lon="-4.959780">
        <ele>1207.626</ele>
        <time>2020-02-29T02:32:36Z</time>
      </trkpt>
      <trkpt lat="40.251750" lon="-4.959870">
        <ele>1208.121</ele>
        <time>2020-02-29T02:32:56Z</time>
      </trkpt>
      <trkpt lat="40.251790" lon="-4.960170">
        <ele>1209.841</ele>
        <time>2020-02-29T02:33:16Z</time>
      </trkpt>
      <trkpt lat="40.251860" lon="-4.960530">
        <ele>1210.705</ele>
        <time>2020-02-29T02:33:36Z</time>
      </trkpt>
      <trkpt lat="40.251910" lon="-4.960990">
        <ele>1214.008</ele>
        <time>2020-02-29T02:33:56Z</time>
      </trkpt>
      <trkpt lat="40.251860" lon="-4.961950">
        <ele>1213.766</ele>
        <time>2020-02-29T02:34:16Z</time>
      </trkpt>
      <trkpt lat="40.251870" lon="-4.962430">
        <ele>1214.019</ele>
        <time>2020-02-29T02:34:36Z</time>
      </trkpt>
      <trkpt lat="40.251940" lon="-4.963390">
        <ele>1220.134</ele>
        <time>2020-02-29T02:34:56Z</time>
      </trkpt>
      <trkpt lat="40.251940" lon="-4.963570">
        <ele>1221.535</ele>
        <time>2020-02-29T02:35:16Z</time>
      </trkpt>
      <trkpt lat="40.251930" lon="-4.963650">
        <ele>1221.867</ele>
        <time>2020-02-29T02:35:36Z</time>
      </trkpt>
      <trkpt lat="40.251810" lon="-4.964000">
        <ele>1220.595</ele>
        <time>2020-02-29T02:35:56Z</time>
      </trkpt>
      <trkpt lat="40.251800" lon="-4.964010">
        <ele>1220.248</ele>
        <time>2020-02-29T02:36:16Z</time>
      </trkpt>
      <trkpt lat="40.251770" lon="-4.964120">
        <ele>1220.433</ele>
        <time>2020-02-29T02:36:36Z</time>
      </trkpt>
      <trkpt lat="40.251760" lon="-4.964190">
        <ele>1220.837</ele>
        <time>2020-02-29T02:36:56Z</time>
      </trkpt>
      <trkpt lat="40.251760" lon="-4.964690">
        <ele>1224.749</ele>
        <time>2020-02-29T02:37:16Z</time>
      </trkpt>
      <trkpt lat="40.251750" lon="-4.964800">
        <ele>1226.813</ele>
        <time>2020-02-29T02:37:36Z</time>
      </trkpt>
      <trkpt lat="40.251720" lon="-4.964940">
        <ele>1229.408</ele>
        <time>2020-02-29T02:37:56Z</time>
      </trkpt>
      <trkpt lat="40.251670" lon="-4.965060">
        <ele>1230.797</ele>
        <time>2020-02-29T02:38:16Z</time>
      </trkpt>
      <trkpt lat="40.251450" lon="-4.965440">
        <ele>1228.250</ele>
        <time>2020-02-29T02:38:36Z</time>
      </trkpt>
      <trkpt lat="40.251370" lon="-4.965610">
        <ele>1225.745</ele>
        <time>2020-02-29T02:38:56Z</time>
      </trkpt>
      <trkpt lat="40.251350" lon="-4.965740">
        <ele>1226.446</ele>
        <time>2020-02-29T02:39:16Z</time>
      </trkpt>
      <trkpt lat="40.251340" lon="-4.965890">
        <ele>1227.688</ele>
        <time>2020-02-29T02:39:36Z</time>
      </trkpt>
      <trkpt lat="40.251340" lon="-4.966390">
        <ele>1232.886</ele>
        <time>2020-02-29T02:39:56Z</time>
      </trkpt>
      <trkpt lat="40.251300" lon="-4.966540">
        <ele>1234.169</ele>
        <time>2020-02-29T02:40:16Z</time>
      </trkpt>
      <trkpt lat="40.251270" lon="-4.966600">
        <ele>1234.664</ele>
        <time>2020-02-29T02:40:36Z</time>
      </trkpt>
      <trkpt lat="40.251170" lon="-4.966710">
        <ele>1235.598</ele>
        <time>2020-02-29T02:40:56Z</time>
      </trkpt>
      <trkpt lat="40.250950" lon="-4.966890">
        <ele>1237.415</ele>
        <time>2020-02-29T02:41:16Z</time>
      </trkpt>
      <trkpt lat="40.250750" lon="-4.967130">
        <ele>1239.626</ele>
        <time>2020-02-29T02:41:36Z</time>
      </trkpt>
      <trkpt lat="40.250240" lon="-4.967850">
        <ele>1242.608</ele>
        <time>2020-02-29T02:41:56Z</time>
      </trkpt>
      <trkpt lat="40.250170" lon="-4.968020">
        <ele>1242.113</ele>
        <time>2020-02-29T02:42:16Z</time>
      </trkpt>
      <trkpt lat="40.250080" lon="-4.968370">
        <ele>1241.116</ele>
        <time>2020-02-29T02:42:36Z</time>
      </trkpt>
      <trkpt lat="40.250040" lon="-4.968600">
        <ele>1240.821</ele>
        <time>2020-02-29T02:42:56Z</time>
      </trkpt>
      <trkpt lat="40.250050" lon="-4.968680">
        <ele>1241.422</ele>
        <time>2020-02-29T02:43:16Z</time>
      </trkpt>
      <trkpt lat="40.250050" lon="-4.968740">
        <ele>1241.794</ele>
        <time>2020-02-29T02:43:36Z</time>
      </trkpt>
      <trkpt lat="40.250070" lon="-4.968840">
        <ele>1242.372</ele>
        <time>2020-02-29T02:43:56Z</time>
      </trkpt>
      <trkpt lat="40.250070" lon="-4.968870">
        <ele>1242.485</ele>
        <time>2020-02-29T02:44:16Z</time>
      </trkpt>
      <trkpt lat="40.250160" lon="-4.969140">
        <ele>1242.510</ele>
        <time>2020-02-29T02:44:36Z</time>
      </trkpt>
      <trkpt lat="40.250250" lon="-4.969350">
        <ele>1240.829</ele>
        <time>2020-02-29T02:44:56Z</time>
      </trkpt>
      <trkpt lat="40.250370" lon="-4.969550">
        <ele>1237.100</ele>
        <time>2020-02-29T02:45:16Z</time>
      </trkpt>
      <trkpt lat="40.250540" lon="-4.969760">
        <ele>1231.420</ele>
        <time>2020-02-29T02:45:36Z</time>
      </trkpt>
      <trkpt lat="40.250610" lon="-4.969820">
        <ele>1230.008</ele>
        <time>2020-02-29T02:45:56Z</time>
      </trkpt>
      <trkpt lat="40.250720" lon="-4.969860">
        <ele>1230.516</ele>
        <time>2020-02-29T02:46:16Z</time>
      </trkpt>
      <trkpt lat="40.250830" lon="-4.969880">
        <ele>1231.819</ele>
        <time>2020-02-29T02:46:36Z</time>
      </trkpt>
      <trkpt lat="40.250960" lon="-4.969860">
        <ele>1229.314</ele>
        <time>2020-02-29T02:46:56Z</time>
      </trkpt>
      <trkpt lat="40.251110" lon="-4.969800">
        <ele>1227.975</ele>
        <time>2020-02-29T02:47:16Z</time>
      </trkpt>
      <trkpt lat="40.251220" lon="-4.969720">
        <ele>1228.767</ele>
        <time>2020-02-29T02:47:36Z</time>
      </trkpt>
      <trkpt lat="40.251280" lon="-4.969650">
        <ele>1229.465</ele>
        <time>2020-02-29T02:47:56Z</time>
      </trkpt>
      <trkpt lat="40.251590" lon="-4.969170">
        <ele>1228.078</ele>
        <time>2020-02-29T02:48:16Z</time>
      </trkpt>
      <trkpt lat="40.251690" lon="-4.969050">
        <ele>1226.373</ele>
        <time>2020-02-29T02:48:36Z</time>
      </trkpt>
      <trkpt lat="40.251760" lon="-4.968920">
        <ele>1226.123</ele>
        <time>2020-02-29T02:48:56Z</time>
      </trkpt>
      <trkpt lat="40.251800" lon="-4.968790">
        <ele>1225.783</ele>
        <time>2020-02-29T02:49:16Z</time>
      </trkpt>
      <trkpt lat="40.251810" lon="-4.968710">
        <ele>1225.811</ele>
        <time>2020-02-29T02:49:36Z</time>
      </trkpt>
      <trkpt lat="40.251820" lon="-4.968700">
        <ele>1225.508</ele>
        <time>2020-02-29T02:49:56Z</time>
      </trkpt>
      <trkpt lat="40.251860" lon="-4.968480">
        <ele>1225.626</ele>
        <time>2020-02-29T02:50:16Z</time>
      </trkpt>
      <trkpt lat="40.251880" lon="-4.968260">
        <ele>1226.859</ele>
        <time>2020-02-29T02:50:36Z</time>
      </trkpt>
      <trkpt lat="40.251940" lon="-4.967960">
        <ele>1226.814</ele>
        <time>2020-02-29T02:50:56Z</time>
      </trkpt>
      <trkpt lat="40.252010" lon="-4.967810">
        <ele>1223.335</ele>
        <time>2020-02-29T02:51:16Z</time>
      </trkpt>
      <trkpt lat="40.252080" lon="-4.967690">
        <ele>1220.787</ele>
        <time>2020-02-29T02:51:36Z</time>
      </trkpt>
      <trkpt lat="40.252250" lon="-4.967470">
        <ele>1218.765</ele>
        <time>2020-02-29T02:51:56Z</time>
      </trkpt>
      <trkpt lat="40.252300" lon="-4.967420">
        <ele>1216.488</ele>
        <time>2020-02-29T02:52:16Z</time>
      </trkpt>
      <trkpt lat="40.252380" lon="-4.967280">
        <ele>1215.073</ele>
        <time>2020-02-29T02:52:36Z</time>
      </trkpt>
      <trkpt lat="40.252550" lon="-4.966910">
        <ele>1214.834</ele>
        <time>2020-02-29T02:52:56Z</time>
      </trkpt>
      <trkpt lat="40.252640" lon="-4.966680">
        <ele>1214.655</ele>
        <time>2020-02-29T02:53:16Z</time>
      </trkpt>
      <trkpt lat="40.252650" lon="-4.966670">
        <ele>1214.210</ele>
        <time>2020-02-29T02:53:36Z</time>
      </trkpt>
      <trkpt lat="40.252740" lon="-4.966490">
        <ele>1215.608</ele>
        <time>2020-02-29T02:53:56Z</time>
      </trkpt>
      <trkpt lat="40.253220" lon="-4.965900">
        <ele>1206.127</ele>
        <time>2020-02-29T02:54:16Z</time>
      </trkpt>
      <trkpt lat="40.253880" lon="-4.964860">
        <ele>1204.590</ele>
        <time>2020-02-29T02:54:36Z</time>
      </trkpt>
      <trkpt lat="40.253960" lon="-4.964760">
        <ele>1204.575</ele>
        <time>2020-02-29T02:54:56Z</time>
      </trkpt>
      <trkpt lat="40.254020" lon="-4.964700">
        <ele>1203.726</ele>
        <time>2020-02-29T02:55:16Z</time>
      </trkpt>
      <trkpt lat="40.254100" lon="-4.964600">
        <ele>1203.788</ele>
        <time>2020-02-29T02:55:36Z</time>
      </trkpt>
      <trkpt lat="40.254170" lon="-4.964550">
        <ele>1203.076</ele>
        <time>2020-02-29T02:55:56Z</time>
      </trkpt>
      <trkpt lat="40.254220" lon="-4.964530">
        <ele>1202.939</ele>
        <time>2020-02-29T02:56:16Z</time>
      </trkpt>
      <trkpt lat="40.254270" lon="-4.964520">
        <ele>1202.364</ele>
        <time>2020-02-29T02:56:36Z</time>
      </trkpt>
      <trkpt lat="40.254320" lon="-4.964520">
        <ele>1201.361</ele>
        <time>2020-02-29T02:56:56Z</time>
      </trkpt>
      <trkpt lat="40.254400" lon="-4.964540">
        <ele>1198.821</ele>
        <time>2020-02-29T02:57:16Z</time>
      </trkpt>
      <trkpt lat="40.254740" lon="-4.964670">
        <ele>1189.713</ele>
        <time>2020-02-29T02:57:36Z</time>
      </trkpt>
      <trkpt lat="40.254880" lon="-4.964690">
        <ele>1187.908</ele>
        <time>2020-02-29T02:57:56Z</time>
      </trkpt>
      <trkpt lat="40.255150" lon="-4.964690">
        <ele>1187.020</ele>
        <time>2020-02-29T02:58:16Z</time>
      </trkpt>
      <trkpt lat="40.255290" lon="-4.964680">
        <ele>1187.213</ele>
        <time>2020-02-29T02:58:36Z</time>
      </trkpt>
      <trkpt lat="40.255390" lon="-4.964660">
        <ele>1186.848</ele>
        <time>2020-02-29T02:58:56Z</time>
      </trkpt>
      <trkpt lat="40.255580" lon="-4.964600">
        <ele>1186.379</ele>
        <time>2020-02-29T02:59:16Z</time>
      </trkpt>
      <trkpt lat="40.256230" lon="-4.964280">
        <ele>1182.851</ele>
        <time>2020-02-29T02:59:36Z</time>
      </trkpt>
      <trkpt lat="40.256380" lon="-4.964170">
        <ele>1182.269</ele>
        <time>2020-02-29T02:59:56Z</time>
      </trkpt>
      <trkpt lat="40.256430" lon="-4.964120">
        <ele>1182.982</ele>
        <time>2020-02-29T03:00:16Z</time>
      </trkpt>
      <trkpt lat="40.256470" lon="-4.964050">
        <ele>1184.517</ele>
        <time>2020-02-29T03:00:36Z</time>
      </trkpt>
      <trkpt lat="40.256730" lon="-4.963700">
        <ele>1184.075</ele>
        <time>2020-02-29T03:00:56Z</time>
      </trkpt>
      <trkpt lat="40.256900" lon="-4.963510">
        <ele>1182.328</ele>
        <time>2020-02-29T03:01:16Z</time>
      </trkpt>
      <trkpt lat="40.257470" lon="-4.963050">
        <ele>1179.620</ele>
        <time>2020-02-29T03:01:36Z</time>
      </trkpt>
      <trkpt lat="40.257490" lon="-4.963040">
        <ele>1179.208</ele>
        <time>2020-02-29T03:01:56Z</time>
      </trkpt>
      <trkpt lat="40.257620" lon="-4.962920">
        <ele>1181.651</ele>
        <time>2020-02-29T03:02:16Z</time>
      </trkpt>
      <trkpt lat="40.257700" lon="-4.962870">
        <ele>1182.124</ele>
        <time>2020-02-29T03:02:36Z</time>
      </trkpt>
      <trkpt lat="40.258160" lon="-4.962690">
        <ele>1176.889</ele>
        <time>2020-02-29T03:02:56Z</time>
      </trkpt>
      <trkpt lat="40.258240" lon="-4.962650">
        <ele>1176.470</ele>
        <time>2020-02-29T03:03:16Z</time>
      </trkpt>
      <trkpt lat="40.258310" lon="-4.962590">
        <ele>1177.262</ele>
        <time>2020-02-29T03:03:36Z</time>
      </trkpt>
      <trkpt lat="40.258400" lon="-4.962530">
        <ele>1176.260</ele>
        <time>2020-02-29T03:03:56Z</time>
      </trkpt>
      <trkpt lat="40.258530" lon="-4.962380">
        <ele>1176.563</ele>
        <time>2020-02-29T03:04:16Z</time>
      </trkpt>
      <trkpt lat="40.258540" lon="-4.962380">
        <ele>1176.058</ele>
        <time>2020-02-29T03:04:36Z</time>
      </trkpt>
      <trkpt lat="40.258710" lon="-4.962110">
        <ele>1176.359</ele>
        <time>2020-02-29T03:04:56Z</time>
      </trkpt>
      <trkpt lat="40.259260" lon="-4.961080">
        <ele>1170.703</ele>
        <time>2020-02-29T03:05:16Z</time>
      </trkpt>
      <trkpt lat="40.259270" lon="-4.961040">
        <ele>1171.123</ele>
        <time>2020-02-29T03:05:36Z</time>
      </trkpt>
      <trkpt lat="40.259380" lon="-4.960820">
        <ele>1171.508</ele>
        <time>2020-02-29T03:05:56Z</time>
      </trkpt>
      <trkpt lat="40.259510" lon="-4.960500">
        <ele>1175.429</ele>
        <time>2020-02-29T03:06:16Z</time>
      </trkpt>
      <trkpt lat="40.259570" lon="-4.960410">
        <ele>1175.912</ele>
        <time>2020-02-29T03:06:36Z</time>
      </trkpt>
      <trkpt lat="40.259630" lon="-4.960340">
        <ele>1175.237</ele>
        <time>2020-02-29T03:06:56Z</time>
      </trkpt>
      <trkpt lat="40.259800" lon="-4.960220">
        <ele>1173.858</ele>
        <time>2020-02-29T03:07:16Z</time>
      </trkpt>
      <trkpt lat="40.259880" lon="-4.960180">
        <ele>1174.470</ele>
        <time>2020-02-29T03:07:36Z</time>
      </trkpt>
      <trkpt lat="40.259940" lon="-4.960160">
        <ele>1174.228</ele>
        <time>2020-02-29T03:07:56Z</time>
      </trkpt>
      <trkpt lat="40.260010" lon="-4.960160">
        <ele>1173.141</ele>
        <time>2020-02-29T03:08:16Z</time>
      </trkpt>
      <trkpt lat="40.260100" lon="-4.960180">
        <ele>1173.896</ele>
        <time>2020-02-29T03:08:36Z</time>
      </trkpt>
      <trkpt lat="40.260190" lon="-4.960250">
        <ele>1172.882</ele>
        <time>2020-02-29T03:08:56Z</time>
      </trkpt>
      <trkpt lat="40.261370" lon="-4.961450">
        <ele>1165.743</ele>
        <time>2020-02-29T03:09:16Z</time>
      </trkpt>
      <trkpt lat="40.261500" lon="-4.961630">
        <ele>1163.317</ele>
        <time>2020-02-29T03:09:36Z</time>
      </trkpt>
      <trkpt lat="40.261620" lon="-4.961850">
        <ele>1161.608</ele>
        <time>2020-02-29T03:09:56Z</time>
      </trkpt>
      <trkpt lat="40.261710" lon="-4.962090">
        <ele>1158.792</ele>
        <time>2020-02-29T03:10:16Z</time>
      </trkpt>
      <trkpt lat="40.261740" lon="-4.962140">
        <ele>1158.235</ele>
        <time>2020-02-29T03:10:36Z</time>
      </trkpt>
      <trkpt lat="40.261760" lon="-4.962190">
        <ele>1157.440</ele>
        <time>2020-02-29T03:10:56Z</time>
      </trkpt>
      <trkpt lat="40.262320" lon="-4.962950">
        <ele>1154.471</ele>
        <time>2020-02-29T03:11:16Z</time>
      </trkpt>
      <trkpt lat="40.262370" lon="-4.963000">
        <ele>1154.093</ele>
        <time>2020-02-29T03:11:36Z</time>
      </trkpt>
      <trkpt lat="40.262400" lon="-4.963020">
        <ele>1153.951</ele>
        <time>2020-02-29T03:11:56Z</time>
      </trkpt>
      <trkpt lat="40.262430" lon="-4.963030">
        <ele>1153.994</ele>
        <time>2020-02-29T03:12:16Z</time>
      </trkpt>
      <trkpt lat="40.262510" lon="-4.963030">
        <ele>1154.299</ele>
        <time>2020-02-29T03:12:36Z</time>
      </trkpt>
      <trkpt lat="40.262660" lon="-4.963000">
        <ele>1151.465</ele>
        <time>2020-02-29T03:12:56Z</time>
      </trkpt>
      <trkpt lat="40.262910" lon="-4.962890">
        <ele>1149.968</ele>
        <time>2020-02-29T03:13:16Z</time>
      </trkpt>
      <trkpt lat="40.263020" lon="-4.962830">
        <ele>1150.314</ele>
        <time>2020-02-29T03:13:36Z</time>
      </trkpt>
      <trkpt lat="40.263620" lon="-4.962370">
        <ele>1147.508</ele>
        <time>2020-02-29T03:13:56Z</time>
      </trkpt>
      <trkpt lat="40.263640" lon="-4.962350">
        <ele>1147.860</ele>
        <time>2020-02-29T03:14:16Z</time>
      </trkpt>
      <trkpt lat="40.263860" lon="-4.962190">
        <ele>1149.843</ele>
        <time>2020-02-29T03:14:36Z</time>
      </trkpt>
      <trkpt lat="40.263980" lon="-4.962130">
        <ele>1149.618</ele>
        <time>2020-02-29T03:14:56Z</time>
      </trkpt>
      <trkpt lat="40.264150" lon="-4.962020">
        <ele>1149.779</ele>
        <time>2020-02-29T03:15:16Z</time>
      </trkpt>
      <trkpt lat="40.264460" lon="-4.961860">
        <ele>1148.211</ele>
        <time>2020-02-29T03:15:36Z</time>
      </trkpt>
      <trkpt lat="40.264550" lon="-4.961830">
        <ele>1148.019</ele>
        <time>2020-02-29T03:15:56Z</time>
      </trkpt>
      <trkpt lat="40.265760" lon="-4.961700">
        <ele>1136.322</ele>
        <time>2020-02-29T03:16:16Z</time>
      </trkpt>
      <trkpt lat="40.266060" lon="-4.961700">
        <ele>1133.857</ele>
        <time>2020-02-29T03:16:36Z</time>
      </trkpt>
      <trkpt lat="40.266330" lon="-4.961730">
        <ele>1133.047</ele>
        <time>2020-02-29T03:16:56Z</time>
      </trkpt>
      <trkpt lat="40.266680" lon="-4.961800">
        <ele>1134.129</ele>
        <time>2020-02-29T03:17:16Z</time>
      </trkpt>
      <trkpt lat="40.266760" lon="-4.961840">
        <ele>1133.821</ele>
        <time>2020-02-29T03:17:36Z</time>
      </trkpt>
      <trkpt lat="40.266840" lon="-4.961900">
        <ele>1133.308</ele>
        <time>2020-02-29T03:17:56Z</time>
      </trkpt>
      <trkpt lat="40.267000" lon="-4.962150">
        <ele>1129.298</ele>
        <time>2020-02-29T03:18:16Z</time>
      </trkpt>
      <trkpt lat="40.267020" lon="-4.962200">
        <ele>1128.241</ele>
        <time>2020-02-29T03:18:36Z</time>
      </trkpt>
      <trkpt lat="40.267040" lon="-4.962280">
        <ele>1125.786</ele>
        <time>2020-02-29T03:18:56Z</time>
      </trkpt>
      <trkpt lat="40.267580" lon="-4.962060">
        <ele>1132.447</ele>
        <time>2020-02-29T03:19:16Z</time>
      </trkpt>
      <trkpt lat="40.267730" lon="-4.962050">
        <ele>1133.959</ele>
        <time>2020-02-29T03:19:36Z</time>
      </trkpt>
      <trkpt lat="40.267790" lon="-4.962080">
        <ele>1133.857</ele>
        <time>2020-02-29T03:19:56Z</time>
      </trkpt>
      <trkpt lat="40.267850" lon="-4.962130">
        <ele>1133.710</ele>
        <time>2020-02-29T03:20:16Z</time>
      </trkpt>
      <trkpt lat="40.267900" lon="-4.962190">
        <ele>1133.675</ele>
        <time>2020-02-29T03:20:36Z</time>
      </trkpt>
      <trkpt lat="40.267940" lon="-4.962260">
        <ele>1134.186</ele>
        <time>2020-02-29T03:20:56Z</time>
      </trkpt>
      <trkpt lat="40.267960" lon="-4.962340">
        <ele>1134.660</ele>
        <time>2020-02-29T03:21:16Z</time>
      </trkpt>
      <trkpt lat="40.267960" lon="-4.962420">
        <ele>1134.626</ele>
        <time>2020-02-29T03:21:36Z</time>
      </trkpt>
      <trkpt lat="40.267890" lon="-4.963020">
        <ele>1132.708</ele>
        <time>2020-02-29T03:21:56Z</time>
      </trkpt>
      <trkpt lat="40.267870" lon="-4.963370">
        <ele>1131.892</ele>
        <time>2020-02-29T03:22:16Z</time>
      </trkpt>
      <trkpt lat="40.267880" lon="-4.963450">
        <ele>1131.975</ele>
        <time>2020-02-29T03:22:36Z</time>
      </trkpt>
      <trkpt lat="40.267900" lon="-4.963510">
        <ele>1132.740</ele>
        <time>2020-02-29T03:22:56Z</time>
      </trkpt>
      <trkpt lat="40.267900" lon="-4.963530">
        <ele>1132.621</ele>
        <time>2020-02-29T03:23:16Z</time>
      </trkpt>
      <trkpt lat="40.267930" lon="-4.963610">
        <ele>1133.863</ele>
        <time>2020-02-29T03:23:36Z</time>
      </trkpt>
      <trkpt lat="40.268330" lon="-4.964340">
        <ele>1134.841</ele>
        <time>2020-02-29T03:23:56Z</time>
      </trkpt>
      <trkpt lat="40.268480" lon="-4.964530">
        <ele>1132.284</ele>
        <time>2020-02-29T03:24:16Z</time>
      </trkpt>
      <trkpt lat="40.268540" lon="-4.964580">
        <ele>1131.339</ele>
        <time>2020-02-29T03:24:36Z</time>
      </trkpt>
      <trkpt lat="40.268580" lon="-4.964600">
        <ele>1131.072</ele>
        <time>2020-02-29T03:24:56Z</time>
      </trkpt>
      <trkpt lat="40.268590" lon="-4.964600">
        <ele>1131.013</ele>
        <time>2020-02-29T03:25:16Z</time>
      </trkpt>
      <trkpt lat="40.268670" lon="-4.964620">
        <ele>1130.614</ele>
        <time>2020-02-29T03:25:36Z</time>
      </trkpt>
      <trkpt lat="40.268720" lon="-4.964610">
        <ele>1130.808</ele>
        <time>2020-02-29T03:25:56Z</time>
      </trkpt>
      <trkpt lat="40.268770" lon="-4.964610">
        <ele>1130.861</ele>
        <time>2020-02-29T03:26:16Z</time>
      </trkpt>
      <trkpt lat="40.268900" lon="-4.964550">
        <ele>1132.474</ele>
        <time>2020-02-29T03:26:36Z</time>
      </trkpt>
      <trkpt lat="40.268930" lon="-4.964520">
        <ele>1133.329</ele>
        <time>2020-02-29T03:26:56Z</time>
      </trkpt>
      <trkpt lat="40.269140" lon="-4.964370">
        <ele>1138.710</ele>
        <time>2020-02-29T03:27:16Z</time>
      </trkpt>
      <trkpt lat="40.269260" lon="-4.964300">
        <ele>1140.522</ele>
        <time>2020-02-29T03:27:36Z</time>
      </trkpt>
      <trkpt lat="40.269480" lon="-4.964230">
        <ele>1142.080</ele>
        <time>2020-02-29T03:27:56Z</time>
      </trkpt>
      <trkpt lat="40.270730" lon="-4.964080">
        <ele>1148.773</ele>
        <time>2020-02-29T03:28:16Z</time>
      </trkpt>
      <trkpt lat="40.270920" lon="-4.964040">
        <ele>1148.958</ele>
        <time>2020-02-29T03:28:36Z</time>
      </trkpt>
      <trkpt lat="40.270990" lon="-4.964000">
        <ele>1148.821</ele>
        <time>2020-02-29T03:28:56Z</time>
      </trkpt>
      <trkpt lat="40.271130" lon="-4.963890">
        <ele>1149.441</ele>
        <time>2020-02-29T03:29:16Z</time>
      </trkpt>
      <trkpt lat="40.271200" lon="-4.963810">
        <ele>1149.705</ele>
        <time>2020-02-29T03:29:36Z</time>
      </trkpt>
      <trkpt lat="40.271770" lon="-4.962970">
        <ele>1154.708</ele>
        <time>2020-02-29T03:29:56Z</time>
      </trkpt>
      <trkpt lat="40.271900" lon="-4.962800">
        <ele>1154.156</ele>
        <time>2020-02-29T03:30:16Z</time>
      </trkpt>
      <trkpt lat="40.272960" lon="-4.961260">
        <ele>1165.969</ele>
        <time>2020-02-29T03:30:36Z</time>
      </trkpt>
      <trkpt lat="40.273040" lon="-4.961180">
        <ele>1165.564</ele>
        <time>2020-02-29T03:30:56Z</time>
      </trkpt>
      <trkpt lat="40.273140" lon="-4.961110">
        <ele>1167.575</ele>
        <time>2020-02-29T03:31:16Z</time>
      </trkpt>
      <trkpt lat="40.273170" lon="-4.961100">
        <ele>1167.837</ele>
        <time>2020-02-29T03:31:36Z</time>
      </trkpt>
      <trkpt lat="40.273250" lon="-4.961090">
        <ele>1167.845</ele>
        <time>2020-02-29T03:31:56Z</time>
      </trkpt>
      <trkpt lat="40.273480" lon="-4.961100">
        <ele>1167.728</ele>
        <time>2020-02-29T03:32:16Z</time>
      </trkpt>
      <trkpt lat="40.273600" lon="-4.961120">
        <ele>1167.573</ele>
        <time>2020-02-29T03:32:36Z</time>
      </trkpt>
      <trkpt lat="40.274120" lon="-4.961250">
        <ele>1170.633</ele>
        <time>2020-02-29T03:32:56Z</time>
      </trkpt>
      <trkpt lat="40.274260" lon="-4.961270">
        <ele>1171.423</ele>
        <time>2020-02-29T03:33:16Z</time>
      </trkpt>
      <trkpt lat="40.274390" lon="-4.961270">
        <ele>1172.615</ele>
        <time>2020-02-29T03:33:36Z</time>
      </trkpt>
      <trkpt lat="40.274520" lon="-4.961250">
        <ele>1173.608</ele>
        <time>2020-02-29T03:33:56Z</time>
      </trkpt>
      <trkpt lat="40.274620" lon="-4.961220">
        <ele>1174.137</ele>
        <time>2020-02-29T03:34:16Z</time>
      </trkpt>
      <trkpt lat="40.274710" lon="-4.961160">
        <ele>1175.590</ele>
        <time>2020-02-29T03:34:36Z</time>
      </trkpt>
      <trkpt lat="40.274790" lon="-4.961080">
        <ele>1177.195</ele>
        <time>2020-02-29T03:34:56Z</time>
      </trkpt>
      <trkpt lat="40.275340" lon="-4.960410">
        <ele>1183.286</ele>
        <time>2020-02-29T03:35:16Z</time>
      </trkpt>
      <trkpt lat="40.275460" lon="-4.960290">
        <ele>1184.498</ele>
        <time>2020-02-29T03:35:36Z</time>
      </trkpt>
      <trkpt lat="40.275610" lon="-4.960180">
        <ele>1186.626</ele>
        <time>2020-02-29T03:35:56Z</time>
      </trkpt>
      <trkpt lat="40.275750" lon="-4.960100">
        <ele>1188.199</ele>
        <time>2020-02-29T03:36:16Z</time>
      </trkpt>
      <trkpt lat="40.276260" lon="-4.959890">
        <ele>1187.754</ele>
        <time>2020-02-29T03:36:36Z</time>
      </trkpt>
      <trkpt lat="40.276740" lon="-4.959730">
        <ele>1189.984</ele>
        <time>2020-02-29T03:36:56Z</time>
      </trkpt>
      <trkpt lat="40.276910" lon="-4.959650">
        <ele>1190.707</ele>
        <time>2020-02-29T03:37:16Z</time>
      </trkpt>
      <trkpt lat="40.276930" lon="-4.959650">
        <ele>1190.517</ele>
        <time>2020-02-29T03:37:36Z</time>
      </trkpt>
      <trkpt lat="40.277080" lon="-4.959510">
        <ele>1192.908</ele>
        <time>2020-02-29T03:37:56Z</time>
      </trkpt>
      <trkpt lat="40.277140" lon="-4.959440">
        <ele>1194.472</ele>
        <time>2020-02-29T03:38:16Z</time>
      </trkpt>
      <trkpt lat="40.277220" lon="-4.959240">
        <ele>1200.435</ele>
        <time>2020-02-29T03:38:36Z</time>
      </trkpt>
      <trkpt lat="40.277250" lon="-4.959130">
        <ele>1202.710</ele>
        <time>2020-02-29T03:38:56Z</time>
      </trkpt>
      <trkpt lat="40.277330" lon="-4.958920">
        <ele>1204.551</ele>
        <time>2020-02-29T03:39:16Z</time>
      </trkpt>
      <trkpt lat="40.277340" lon="-4.958870">
        <ele>1205.233</ele>
        <time>2020-02-29T03:39:36Z</time>
      </trkpt>
      <trkpt lat="40.277400" lon="-4.958710">
        <ele>1205.611</ele>
        <time>2020-02-29T03:39:56Z</time>
      </trkpt>
      <trkpt lat="40.277560" lon="-4.958370">
        <ele>1207.864</ele>
        <time>2020-02-29T03:40:16Z</time>
      </trkpt>
      <trkpt lat="40.277600" lon="-4.958310">
        <ele>1207.659</ele>
        <time>2020-02-29T03:40:36Z</time>
      </trkpt>
      <trkpt lat="40.277640" lon="-4.958230">
        <ele>1207.916</ele>
        <time>2020-02-29T03:40:56Z</time>
      </trkpt>
      <trkpt lat="40.277740" lon="-4.958090">
        <ele>1207.576</ele>
        <time>2020-02-29T03:41:16Z</time>
      </trkpt>
      <trkpt lat="40.277830" lon="-4.958040">
        <ele>1207.313</ele>
        <time>2020-02-29T03:41:36Z</time>
      </trkpt>
      <trkpt lat="40.278000" lon="-4.958010">
        <ele>1208.008</ele>
        <time>2020-02-29T03:41:56Z</time>
      </trkpt>
      <trkpt lat="40.278050" lon="-4.958020">
        <ele>1207.285</ele>
        <time>2020-02-29T03:42:16Z</time>
      </trkpt>
      <trkpt lat="40.278100" lon="-4.958050">
        <ele>1207.948</ele>
        <time>2020-02-29T03:42:36Z</time>
      </trkpt>
      <trkpt lat="40.278210" lon="-4.958150">
        <ele>1210.353</ele>
        <time>2020-02-29T03:42:56Z</time>
      </trkpt>
      <trkpt lat="40.278390" lon="-4.958390">
        <ele>1211.344</ele>
        <time>2020-02-29T03:43:16Z</time>
      </trkpt>
      <trkpt lat="40.278690" lon="-4.958680">
        <ele>1214.836</ele>
        <time>2020-02-29T03:43:36Z</time>
      </trkpt>
      <trkpt lat="40.278750" lon="-4.958750">
        <ele>1214.234</ele>
        <time>2020-02-29T03:43:56Z</time>
      </trkpt>
      <trkpt lat="40.278910" lon="-4.958980">
        <ele>1214.287</ele>
        <time>2020-02-29T03:44:16Z</time>
      </trkpt>
      <trkpt lat="40.278990" lon="-4.959130">
        <ele>1214.632</ele>
        <time>2020-02-29T03:44:36Z</time>
      </trkpt>
      <trkpt lat="40.279290" lon="-4.959600">
        <ele>1219.934</ele>
        <time>2020-02-29T03:44:56Z</time>
      </trkpt>
      <trkpt lat="40.279300" lon="-4.959610">
        <ele>1220.255</ele>
        <time>2020-02-29T03:45:16Z</time>
      </trkpt>
      <trkpt lat="40.279400" lon="-4.959780">
        <ele>1220.410</ele>
        <time>2020-02-29T03:45:36Z</time>
      </trkpt>
      <trkpt lat="40.279410" lon="-4.959790">
        <ele>1220.608</ele>
        <time>2020-02-29T03:45:56Z</time>
      </trkpt>
      <trkpt lat="40.279480" lon="-4.959900">
        <ele>1220.177</ele>
        <time>2020-02-29T03:46:16Z</time>
      </trkpt>
      <trkpt lat="40.279610" lon="-4.960030">
        <ele>1221.710</ele>
        <time>2020-02-29T03:46:36Z</time>
      </trkpt>
      <trkpt lat="40.279680" lon="-4.960080">
        <ele>1223.225</ele>
        <time>2020-02-29T03:46:56Z</time>
      </trkpt>
      <trkpt lat="40.279820" lon="-4.960140">
        <ele>1223.736</ele>
        <time>2020-02-29T03:47:16Z</time>
      </trkpt>
      <trkpt lat="40.279890" lon="-4.960160">
        <ele>1223.458</ele>
        <time>2020-02-29T03:47:36Z</time>
      </trkpt>
      <trkpt lat="40.280000" lon="-4.960160">
        <ele>1224.296</ele>
        <time>2020-02-29T03:47:56Z</time>
      </trkpt>
      <trkpt lat="40.280040" lon="-4.960140">
        <ele>1224.539</ele>
        <time>2020-02-29T03:48:16Z</time>
      </trkpt>
      <trkpt lat="40.280040" lon="-4.960130">
        <ele>1224.924</ele>
        <time>2020-02-29T03:48:36Z</time>
      </trkpt>
      <trkpt lat="40.280110" lon="-4.960090">
        <ele>1225.663</ele>
        <time>2020-02-29T03:48:56Z</time>
      </trkpt>
      <trkpt lat="40.280190" lon="-4.960020">
        <ele>1227.244</ele>
        <time>2020-02-29T03:49:16Z</time>
      </trkpt>
      <trkpt lat="40.280470" lon="-4.959720">
        <ele>1229.918</ele>
        <time>2020-02-29T03:49:36Z</time>
      </trkpt>
      <trkpt lat="40.280530" lon="-4.959670">
        <ele>1230.008</ele>
        <time>2020-02-29T03:49:56Z</time>
      </trkpt>
      <trkpt lat="40.280660" lon="-4.959530">
        <ele>1230.340</ele>
        <time>2020-02-29T03:50:16Z</time>
      </trkpt>
      <trkpt lat="40.280780" lon="-4.959340">
        <ele>1231.173</ele>
        <time>2020-02-29T03:50:36Z</time>
      </trkpt>
      <trkpt lat="40.280870" lon="-4.959140">
        <ele>1232.368</ele>
        <time>2020-02-29T03:50:56Z</time>
      </trkpt>
      <trkpt lat="40.280940" lon="-4.958930">
        <ele>1233.599</ele>
        <time>2020-02-29T03:51:16Z</time>
      </trkpt>
      <trkpt lat="40.280950" lon="-4.958860">
        <ele>1234.641</ele>
        <time>2020-02-29T03:51:36Z</time>
      </trkpt>
      <trkpt lat="40.281170" lon="-4.958040">
        <ele>1240.839</ele>
        <time>2020-02-29T03:51:56Z</time>
      </trkpt>
      <trkpt lat="40.281220" lon="-4.957740">
        <ele>1244.182</ele>
        <time>2020-02-29T03:52:16Z</time>
      </trkpt>
      <trkpt lat="40.281240" lon="-4.957670">
        <ele>1243.757</ele>
        <time>2020-02-29T03:52:36Z</time>
      </trkpt>
      <trkpt lat="40.281340" lon="-4.956960">
        <ele>1247.234</ele>
        <time>2020-02-29T03:52:56Z</time>
      </trkpt>
      <trkpt lat="40.281490" lon="-4.956150">
        <ele>1250.755</ele>
        <time>2020-02-29T03:53:16Z</time>
      </trkpt>
      <trkpt lat="40.281520" lon="-4.955860">
        <ele>1252.210</ele>
        <time>2020-02-29T03:53:36Z</time>
      </trkpt>
      <trkpt lat="40.281520" lon="-4.955590">
        <ele>1253.308</ele>
        <time>2020-02-29T03:53:56Z</time>
      </trkpt>
      <trkpt lat="40.281480" lon="-4.955150">
        <ele>1256.357</ele>
        <time>2020-02-29T03:54:16Z</time>
      </trkpt>
      <trkpt lat="40.281330" lon="-4.954390">
        <ele>1263.890</ele>
        <time>2020-02-29T03:54:36Z</time>
      </trkpt>
      <trkpt lat="40.281320" lon="-4.954270">
        <ele>1264.365</ele>
        <time>2020-02-29T03:54:56Z</time>
      </trkpt>
      <trkpt lat="40.281310" lon="-4.954240">
        <ele>1264.986</ele>
        <time>2020-02-29T03:55:16Z</time>
      </trkpt>
      <trkpt lat="40.281310" lon="-4.954150">
        <ele>1265.138</ele>
        <time>2020-02-29T03:55:36Z</time>
      </trkpt>
      <trkpt lat="40.281330" lon="-4.954070">
        <ele>1265.526</ele>
        <time>2020-02-29T03:55:56Z</time>
      </trkpt>
      <trkpt lat="40.281360" lon="-4.954010">
        <ele>1265.359</ele>
        <time>2020-02-29T03:56:16Z</time>
      </trkpt>
      <trkpt lat="40.281450" lon="-4.953930">
        <ele>1265.074</ele>
        <time>2020-02-29T03:56:36Z</time>
      </trkpt>
      <trkpt lat="40.281490" lon="-4.953920">
        <ele>1264.627</ele>
        <time>2020-02-29T03:56:56Z</time>
      </trkpt>
      <trkpt lat="40.281500" lon="-4.953910">
        <ele>1264.768</ele>
        <time>2020-02-29T03:57:16Z</time>
      </trkpt>
      <trkpt lat="40.281700" lon="-4.953910">
        <ele>1261.714</ele>
        <time>2020-02-29T03:57:36Z</time>
      </trkpt>
      <trkpt lat="40.281790" lon="-4.953900">
        <ele>1260.908</ele>
        <time>2020-02-29T03:57:56Z</time>
      </trkpt>
      <trkpt lat="40.281920" lon="-4.953850">
        <ele>1260.926</ele>
        <time>2020-02-29T03:58:16Z</time>
      </trkpt>
      <trkpt lat="40.282140" lon="-4.953670">
        <ele>1261.019</ele>
        <time>2020-02-29T03:58:36Z</time>
      </trkpt>
      <trkpt lat="40.282220" lon="-4.953560">
        <ele>1260.914</ele>
        <time>2020-02-29T03:58:56Z</time>
      </trkpt>
      <trkpt lat="40.282300" lon="-4.953400">
        <ele>1263.025</ele>
        <time>2020-02-29T03:59:16Z</time>
      </trkpt>
      <trkpt lat="40.282330" lon="-4.953370">
        <ele>1262.747</ele>
        <time>2020-02-29T03:59:36Z</time>
      </trkpt>
      <trkpt lat="40.282440" lon="-4.953310">
        <ele>1259.645</ele>
        <time>2020-02-29T03:59:56Z</time>
      </trkpt>
      <trkpt lat="40.282480" lon="-4.953310">
        <ele>1257.828</ele>
        <time>2020-02-29T04:00:16Z</time>
      </trkpt>
      <trkpt lat="40.282530" lon="-4.953320">
        <ele>1257.673</ele>
        <time>2020-02-29T04:00:36Z</time>
      </trkpt>
      <trkpt lat="40.282580" lon="-4.953350">
        <ele>1258.361</ele>
        <time>2020-02-29T04:00:56Z</time>
      </trkpt>
      <trkpt lat="40.282980" lon="-4.953780">
        <ele>1256.621</ele>
        <time>2020-02-29T04:01:16Z</time>
      </trkpt>
      <trkpt lat="40.283060" lon="-4.953820">
        <ele>1258.713</ele>
        <time>2020-02-29T04:01:36Z</time>
      </trkpt>
      <trkpt lat="40.283760" lon="-4.953870">
        <ele>1262.508</ele>
        <time>2020-02-29T04:01:56Z</time>
      </trkpt>
      <trkpt lat="40.284390" lon="-4.954020">
        <ele>1261.170</ele>
        <time>2020-02-29T04:02:16Z</time>
      </trkpt>
      <trkpt lat="40.284410" lon="-4.954030">
        <ele>1260.843</ele>
        <time>2020-02-29T04:02:36Z</time>
      </trkpt>
      <trkpt lat="40.284480" lon="-4.954040">
        <ele>1260.198</ele>
        <time>2020-02-29T04:02:56Z</time>
      </trkpt>
      <trkpt lat="40.284550" lon="-4.954020">
        <ele>1259.999</ele>
        <time>2020-02-29T04:03:16Z</time>
      </trkpt>
      <trkpt lat="40.284570" lon="-4.954010">
        <ele>1260.011</ele>
        <time>2020-02-29T04:03:36Z</time>
      </trkpt>
      <trkpt lat="40.284620" lon="-4.954000">
        <ele>1259.799</ele>
        <time>2020-02-29T04:03:56Z</time>
      </trkpt>
      <trkpt lat="40.284680" lon="-4.953960">
        <ele>1260.372</ele>
        <time>2020-02-29T04:04:16Z</time>
      </trkpt>
      <trkpt lat="40.284730" lon="-4.953910">
        <ele>1261.027</ele>
        <time>2020-02-29T04:04:36Z</time>
      </trkpt>
      <trkpt lat="40.284920" lon="-4.953620">
        <ele>1261.298</ele>
        <time>2020-02-29T04:04:56Z</time>
      </trkpt>
      <trkpt lat="40.284950" lon="-4.953540">
        <ele>1262.315</ele>
        <time>2020-02-29T04:05:16Z</time>
      </trkpt>
      <trkpt lat="40.284990" lon="-4.953460">
        <ele>1262.826</ele>
        <time>2020-02-29T04:05:36Z</time>
      </trkpt>
      <trkpt lat="40.285030" lon="-4.953400">
        <ele>1263.508</ele>
        <time>2020-02-29T04:05:56Z</time>
      </trkpt>
      <trkpt lat="40.285060" lon="-4.953380">
        <ele>1263.783</ele>
        <time>2020-02-29T04:06:16Z</time>
      </trkpt>
      <trkpt lat="40.285080" lon="-4.953360">
        <ele>1264.156</ele>
        <time>2020-02-29T04:06:36Z</time>
      </trkpt>
      <trkpt lat="40.285230" lon="-4.953340">
        <ele>1263.191</ele>
        <time>2020-02-29T04:06:56Z</time>
      </trkpt>
      <trkpt lat="40.285500" lon="-4.953340">
        <ele>1262.772</ele>
        <time>2020-02-29T04:07:16Z</time>
      </trkpt>
      <trkpt lat="40.285590" lon="-4.953370">
        <ele>1262.264</ele>
        <time>2020-02-29T04:07:36Z</time>
      </trkpt>
      <trkpt lat="40.285600" lon="-4.953380">
        <ele>1261.972</ele>
        <time>2020-02-29T04:07:56Z</time>
      </trkpt>
      <trkpt lat="40.285930" lon="-4.953540">
        <ele>1263.135</ele>
        <time>2020-02-29T04:08:16Z</time>
      </trkpt>
      <trkpt lat="40.285940" lon="-4.953540">
        <ele>1263.490</ele>
        <time>2020-02-29T04:08:36Z</time>
      </trkpt>
      <trkpt lat="40.286570" lon="-4.953880">
        <ele>1268.259</ele>
        <time>2020-02-29T04:08:56Z</time>
      </trkpt>
      <trkpt lat="40.286710" lon="-4.953970">
        <ele>1268.803</ele>
        <time>2020-02-29T04:09:16Z</time>
      </trkpt>
      <trkpt lat="40.286760" lon="-4.953990">
        <ele>1268.823</ele>
        <time>2020-02-29T04:09:36Z</time>
      </trkpt>
      <trkpt lat="40.286770" lon="-4.953990">
        <ele>1269.008</ele>
        <time>2020-02-29T04:09:56Z</time>
      </trkpt>
      <trkpt lat="40.286800" lon="-4.954000">
        <ele>1269.149</ele>
        <time>2020-02-29T04:10:16Z</time>
      </trkpt>
      <trkpt lat="40.286870" lon="-4.954000">
        <ele>1270.242</ele>
        <time>2020-02-29T04:10:36Z</time>
      </trkpt>
      <trkpt lat="40.286950" lon="-4.953980">
        <ele>1271.837</ele>
        <time>2020-02-29T04:10:56Z</time>
      </trkpt>
      <trkpt lat="40.287020" lon="-4.953930">
        <ele>1270.878</ele>
        <time>2020-02-29T04:11:16Z</time>
      </trkpt>
      <trkpt lat="40.287080" lon="-4.953840">
        <ele>1270.810</ele>
        <time>2020-02-29T04:11:36Z</time>
      </trkpt>
      <trkpt lat="40.287080" lon="-4.953830">
        <ele>1271.058</ele>
        <time>2020-02-29T04:11:56Z</time>
      </trkpt>
      <trkpt lat="40.287120" lon="-4.953740">
        <ele>1271.531</ele>
        <time>2020-02-29T04:12:16Z</time>
      </trkpt>
      <trkpt lat="40.287150" lon="-4.953630">
        <ele>1272.736</ele>
        <time>2020-02-29T04:12:36Z</time>
      </trkpt>
      <trkpt lat="40.287160" lon="-4.953620">
        <ele>1272.583</ele>
        <time>2020-02-29T04:12:56Z</time>
      </trkpt>
      <trkpt lat="40.287230" lon="-4.953400">
        <ele>1274.025</ele>
        <time>2020-02-29T04:13:16Z</time>
      </trkpt>
      <trkpt lat="40.287250" lon="-4.953360">
        <ele>1273.317</ele>
        <time>2020-02-29T04:13:36Z</time>
      </trkpt>
      <trkpt lat="40.287360" lon="-4.952960">
        <ele>1273.508</ele>
        <time>2020-02-29T04:13:56Z</time>
      </trkpt>
      <trkpt lat="40.287380" lon="-4.952920">
        <ele>1273.422</ele>
        <time>2020-02-29T04:14:16Z</time>
      </trkpt>
      <trkpt lat="40.287430" lon="-4.952740">
        <ele>1275.845</ele>
        <time>2020-02-29T04:14:36Z</time>
      </trkpt>
      <trkpt lat="40.287440" lon="-4.952680">
        <ele>1276.470</ele>
        <time>2020-02-29T04:14:56Z</time>
      </trkpt>
      <trkpt lat="40.287480" lon="-4.952570">
        <ele>1276.011</ele>
        <time>2020-02-29T04:15:16Z</time>
      </trkpt>
      <trkpt lat="40.287490" lon="-4.952520">
        <ele>1276.343</ele>
        <time>2020-02-29T04:15:36Z</time>
      </trkpt>
      <trkpt lat="40.287490" lon="-4.952500">
        <ele>1276.681</ele>
        <time>2020-02-29T04:15:56Z</time>
      </trkpt>
      <trkpt lat="40.287550" lon="-4.952380">
        <ele>1276.654</ele>
        <time>2020-02-29T04:16:16Z</time>
      </trkpt>
      <trkpt lat="40.287620" lon="-4.952290">
        <ele>1276.819</ele>
        <time>2020-02-29T04:16:36Z</time>
      </trkpt>
      <trkpt lat="40.287890" lon="-4.952090">
        <ele>1277.794</ele>
        <time>2020-02-29T04:16:56Z</time>
      </trkpt>
      <trkpt lat="40.287900" lon="-4.952090">
        <ele>1277.457</ele>
        <time>2020-02-29T04:17:16Z</time>
      </trkpt>
      <trkpt lat="40.287990" lon="-4.952020">
        <ele>1278.522</ele>
        <time>2020-02-29T04:17:36Z</time>
      </trkpt>
      <trkpt lat="40.288060" lon="-4.951980">
        <ele>1278.808</ele>
        <time>2020-02-29T04:17:56Z</time>
      </trkpt>
      <trkpt lat="40.288210" lon="-4.951860">
        <ele>1279.773</ele>
        <time>2020-02-29T04:18:16Z</time>
      </trkpt>
      <trkpt lat="40.288280" lon="-4.951820">
        <ele>1279.136</ele>
        <time>2020-02-29T04:18:36Z</time>
      </trkpt>
      <trkpt lat="40.288340" lon="-4.951760">
        <ele>1279.531</ele>
        <time>2020-02-29T04:18:56Z</time>
      </trkpt>
      <trkpt lat="40.288370" lon="-4.951740">
        <ele>1279.822</ele>
        <time>2020-02-29T04:19:16Z</time>
      </trkpt>
      <trkpt lat="40.288380" lon="-4.951720">
        <ele>1280.334</ele>
        <time>2020-02-29T04:19:36Z</time>
      </trkpt>
      <trkpt lat="40.288420" lon="-4.951670">
        <ele>1281.322</ele>
        <time>2020-02-29T04:19:56Z</time>
      </trkpt>
      <trkpt lat="40.288480" lon="-4.951560">
        <ele>1282.845</ele>
        <time>2020-02-29T04:20:16Z</time>
      </trkpt>
      <trkpt lat="40.288480" lon="-4.951550">
        <ele>1283.110</ele>
        <time>2020-02-29T04:20:36Z</time>
      </trkpt>
      <trkpt lat="40.288490" lon="-4.951510">
        <ele>1283.727</ele>
        <time>2020-02-29T04:20:56Z</time>
      </trkpt>
      <trkpt lat="40.288500" lon="-4.951360">
        <ele>1286.768</ele>
        <time>2020-02-29T04:21:16Z</time>
      </trkpt>
      <trkpt lat="40.288530" lon="-4.951270">
        <ele>1287.214</ele>
        <time>2020-02-29T04:21:36Z</time>
      </trkpt>
      <trkpt lat="40.288560" lon="-4.951220">
        <ele>1287.008</ele>
        <time>2020-02-29T04:21:56Z</time>
      </trkpt>
      <trkpt lat="40.288590" lon="-4.951190">
        <ele>1286.556</ele>
        <time>2020-02-29T04:22:16Z</time>
      </trkpt>
      <trkpt lat="40.288620" lon="-4.951170">
        <ele>1286.239</ele>
        <time>2020-02-29T04:22:36Z</time>
      </trkpt>
      <trkpt lat="40.288630" lon="-4.951170">
        <ele>1286.384</ele>
        <time>2020-02-29T04:22:56Z</time>
      </trkpt>
      <trkpt lat="40.288690" lon="-4.951150">
        <ele>1287.365</ele>
        <time>2020-02-29T04:23:16Z</time>
      </trkpt>
      <trkpt lat="40.288730" lon="-4.951150">
        <ele>1287.767</ele>
        <time>2020-02-29T04:23:36Z</time>
      </trkpt>
      <trkpt lat="40.288830" lon="-4.951200">
        <ele>1287.145</ele>
        <time>2020-02-29T04:23:56Z</time>
      </trkpt>
      <trkpt lat="40.289040" lon="-4.951420">
        <ele>1285.958</ele>
        <time>2020-02-29T04:24:16Z</time>
      </trkpt>
      <trkpt lat="40.289190" lon="-4.951550">
        <ele>1288.233</ele>
        <time>2020-02-29T04:24:36Z</time>
      </trkpt>
      <trkpt lat="40.289250" lon="-4.951620">
        <ele>1287.099</ele>
        <time>2020-02-29T04:24:56Z</time>
      </trkpt>
      <trkpt lat="40.289370" lon="-4.951700">
        <ele>1286.707</ele>
        <time>2020-02-29T04:25:16Z</time>
      </trkpt>
      <trkpt lat="40.289400" lon="-4.951710">
        <ele>1286.927</ele>
        <time>2020-02-29T04:25:36Z</time>
      </trkpt>
      <trkpt lat="40.289460" lon="-4.951710">
        <ele>1287.508</ele>
        <time>2020-02-29T04:25:56Z</time>
      </trkpt>
      <trkpt lat="40.289510" lon="-4.951700">
        <ele>1287.173</ele>
        <time>2020-02-29T04:26:16Z</time>
      </trkpt>
      <trkpt lat="40.289550" lon="-4.951680">
        <ele>1287.156</ele>
        <time>2020-02-29T04:26:36Z</time>
      </trkpt>
      <trkpt lat="40.289630" lon="-4.951610">
        <ele>1288.041</ele>
        <time>2020-02-29T04:26:56Z</time>
      </trkpt>
      <trkpt lat="40.289670" lon="-4.951530">
        <ele>1289.872</ele>
        <time>2020-02-29T04:27:16Z</time>
      </trkpt>
      <trkpt lat="40.289720" lon="-4.951460">
        <ele>1291.074</ele>
        <time>2020-02-29T04:27:36Z</time>
      </trkpt>
      <trkpt lat="40.289890" lon="-4.951110">
        <ele>1291.462</ele>
        <time>2020-02-29T04:27:56Z</time>
      </trkpt>
      <trkpt lat="40.289890" lon="-4.951090">
        <ele>1291.825</ele>
        <time>2020-02-29T04:28:16Z</time>
      </trkpt>
      <trkpt lat="40.290060" lon="-4.950700">
        <ele>1291.860</ele>
        <time>2020-02-29T04:28:36Z</time>
      </trkpt>
      <trkpt lat="40.290130" lon="-4.950630">
        <ele>1293.157</ele>
        <time>2020-02-29T04:28:56Z</time>
      </trkpt>
      <trkpt lat="40.290190" lon="-4.950600">
        <ele>1293.900</ele>
        <time>2020-02-29T04:29:16Z</time>
      </trkpt>
      <trkpt lat="40.290230" lon="-4.950600">
        <ele>1293.720</ele>
        <time>2020-02-29T04:29:36Z</time>
      </trkpt>
      <trkpt lat="40.290390" lon="-4.950690">
        <ele>1291.708</ele>
        <time>2020-02-29T04:29:56Z</time>
      </trkpt>
      <trkpt lat="40.290430" lon="-4.950730">
        <ele>1291.019</ele>
        <time>2020-02-29T04:30:16Z</time>
      </trkpt>
      <trkpt lat="40.290500" lon="-4.950780">
        <ele>1291.162</ele>
        <time>2020-02-29T04:30:36Z</time>
      </trkpt>
      <trkpt lat="40.290690" lon="-4.950880">
        <ele>1293.967</ele>
        <time>2020-02-29T04:30:56Z</time>
      </trkpt>
      <trkpt lat="40.290720" lon="-4.950890">
        <ele>1294.668</ele>
        <time>2020-02-29T04:31:16Z</time>
      </trkpt>
      <trkpt lat="40.290860" lon="-4.950980">
        <ele>1297.030</ele>
        <time>2020-02-29T04:31:36Z</time>
      </trkpt>
      <trkpt lat="40.290990" lon="-4.951100">
        <ele>1297.668</ele>
        <time>2020-02-29T04:31:56Z</time>
      </trkpt>
      <trkpt lat="40.291100" lon="-4.951240">
        <ele>1296.531</ele>
        <time>2020-02-29T04:32:16Z</time>
      </trkpt>
      <trkpt lat="40.291270" lon="-4.951400">
        <ele>1297.376</ele>
        <time>2020-02-29T04:32:36Z</time>
      </trkpt>
      <trkpt lat="40.291440" lon="-4.951530">
        <ele>1298.686</ele>
        <time>2020-02-29T04:32:56Z</time>
      </trkpt>
      <trkpt lat="40.291520" lon="-4.951580">
        <ele>1298.460</ele>
        <time>2020-02-29T04:33:16Z</time>
      </trkpt>
      <trkpt lat="40.291630" lon="-4.951630">
        <ele>1298.526</ele>
        <time>2020-02-29T04:33:36Z</time>
      </trkpt>
      <trkpt lat="40.291710" lon="-4.951640">
        <ele>1299.008</ele>
        <time>2020-02-29T04:33:56Z</time>
      </trkpt>
      <trkpt lat="40.291840" lon="-4.951640">
        <ele>1299.922</ele>
        <time>2020-02-29T04:34:16Z</time>
      </trkpt>
      <trkpt lat="40.291900" lon="-4.951630">
        <ele>1300.595</ele>
        <time>2020-02-29T04:34:36Z</time>
      </trkpt>
      <trkpt lat="40.292050" lon="-4.951570">
        <ele>1300.610</ele>
        <time>2020-02-29T04:34:56Z</time>
      </trkpt>
      <trkpt lat="40.292100" lon="-4.951540">
        <ele>1300.591</ele>
        <time>2020-02-29T04:35:16Z</time>
      </trkpt>
      <trkpt lat="40.292160" lon="-4.951480">
        <ele>1300.923</ele>
        <time>2020-02-29T04:35:36Z</time>
      </trkpt>
      <trkpt lat="40.292230" lon="-4.951390">
        <ele>1301.891</ele>
        <time>2020-02-29T04:35:56Z</time>
      </trkpt>
      <trkpt lat="40.292450" lon="-4.951040">
        <ele>1305.524</ele>
        <time>2020-02-29T04:36:16Z</time>
      </trkpt>
      <trkpt lat="40.292540" lon="-4.950870">
        <ele>1306.589</ele>
        <time>2020-02-29T04:36:36Z</time>
      </trkpt>
      <trkpt lat="40.292590" lon="-4.950730">
        <ele>1306.721</ele>
        <time>2020-02-29T04:36:56Z</time>
      </trkpt>
      <trkpt lat="40.292620" lon="-4.950610">
        <ele>1307.441</ele>
        <time>2020-02-29T04:37:16Z</time>
      </trkpt>
      <trkpt lat="40.292650" lon="-4.950320">
        <ele>1311.305</ele>
        <time>2020-02-29T04:37:36Z</time>
      </trkpt>
      <trkpt lat="40.292660" lon="-4.949860">
        <ele>1316.808</ele>
        <time>2020-02-29T04:37:56Z</time>
      </trkpt>
      <trkpt lat="40.292680" lon="-4.949730">
        <ele>1317.566</ele>
        <time>2020-02-29T04:38:16Z</time>
      </trkpt>
      <trkpt lat="40.292800" lon="-4.949200">
        <ele>1317.969</ele>
        <time>2020-02-29T04:38:36Z</time>
      </trkpt>
      <trkpt lat="40.292800" lon="-4.949180">
        <ele>1318.164</ele>
        <time>2020-02-29T04:38:56Z</time>
      </trkpt>
      <trkpt lat="40.292850" lon="-4.949000">
        <ele>1318.525</ele>
        <time>2020-02-29T04:39:16Z</time>
      </trkpt>
      <trkpt lat="40.292870" lon="-4.948870">
        <ele>1319.297</ele>
        <time>2020-02-29T04:39:36Z</time>
      </trkpt>
      <trkpt lat="40.292870" lon="-4.948710">
        <ele>1320.515</ele>
        <time>2020-02-29T04:39:56Z</time>
      </trkpt>
      <trkpt lat="40.292850" lon="-4.948610">
        <ele>1322.138</ele>
        <time>2020-02-29T04:40:16Z</time>
      </trkpt>
      <trkpt lat="40.292730" lon="-4.948290">
        <ele>1325.513</ele>
        <time>2020-02-29T04:40:36Z</time>
      </trkpt>
      <trkpt lat="40.292580" lon="-4.947970">
        <ele>1329.171</ele>
        <time>2020-02-29T04:40:56Z</time>
      </trkpt>
      <trkpt lat="40.292550" lon="-4.947860">
        <ele>1328.841</ele>
        <time>2020-02-29T04:41:16Z</time>
      </trkpt>
      <trkpt lat="40.292540" lon="-4.947780">
        <ele>1327.915</ele>
        <time>2020-02-29T04:41:36Z</time>
      </trkpt>
      <trkpt lat="40.292540" lon="-4.947700">
        <ele>1329.008</ele>
        <time>2020-02-29T04:41:56Z</time>
      </trkpt>
      <trkpt lat="40.292550" lon="-4.947640">
        <ele>1329.341</ele>
        <time>2020-02-29T04:42:16Z</time>
      </trkpt>
      <trkpt lat="40.292550" lon="-4.947590">
        <ele>1330.014</ele>
        <time>2020-02-29T04:42:36Z</time>
      </trkpt>
      <trkpt lat="40.292570" lon="-4.947500">
        <ele>1330.289</ele>
        <time>2020-02-29T04:42:56Z</time>
      </trkpt>
      <trkpt lat="40.292630" lon="-4.947360">
        <ele>1331.490</ele>
        <time>2020-02-29T04:43:16Z</time>
      </trkpt>
      <trkpt lat="40.292700" lon="-4.947280">
        <ele>1331.432</ele>
        <time>2020-02-29T04:43:36Z</time>
      </trkpt>
      <trkpt lat="40.292740" lon="-4.947250">
        <ele>1331.180</ele>
        <time>2020-02-29T04:43:56Z</time>
      </trkpt>
      <trkpt lat="40.292800" lon="-4.947240">
        <ele>1330.593</ele>
        <time>2020-02-29T04:44:16Z</time>
      </trkpt>
      <trkpt lat="40.292890" lon="-4.947260">
        <ele>1330.948</ele>
        <time>2020-02-29T04:44:36Z</time>
      </trkpt>
      <trkpt lat="40.292900" lon="-4.947270">
        <ele>1330.738</ele>
        <time>2020-02-29T04:44:56Z</time>
      </trkpt>
      <trkpt lat="40.292950" lon="-4.947290">
        <ele>1330.870</ele>
        <time>2020-02-29T04:45:16Z</time>
      </trkpt>
      <trkpt lat="40.293040" lon="-4.947310">
        <ele>1331.817</ele>
        <time>2020-02-29T04:45:36Z</time>
      </trkpt>
      <trkpt lat="40.293130" lon="-4.947290">
        <ele>1332.008</ele>
        <time>2020-02-29T04:45:56Z</time>
      </trkpt>
      <trkpt lat="40.293210" lon="-4.947230">
        <ele>1332.767</ele>
        <time>2020-02-29T04:46:16Z</time>
      </trkpt>
      <trkpt lat="40.293250" lon="-4.947190">
        <ele>1333.120</ele>
        <time>2020-02-29T04:46:36Z</time>
      </trkpt>
      <trkpt lat="40.293290" lon="-4.947120">
        <ele>1333.875</ele>
        <time>2020-02-29T04:46:56Z</time>
      </trkpt>
      <trkpt lat="40.293370" lon="-4.946770">
        <ele>1337.746</ele>
        <time>2020-02-29T04:47:16Z</time>
      </trkpt>
      <trkpt lat="40.293390" lon="-4.946710">
        <ele>1338.328</ele>
        <time>2020-02-29T04:47:36Z</time>
      </trkpt>
      <trkpt lat="40.293440" lon="-4.946620">
        <ele>1339.096</ele>
        <time>2020-02-29T04:47:56Z</time>
      </trkpt>
      <trkpt lat="40.293480" lon="-4.946590">
        <ele>1339.089</ele>
        <time>2020-02-29T04:48:16Z</time>
      </trkpt>
      <trkpt lat="40.293540" lon="-4.946570">
        <ele>1338.574</ele>
        <time>2020-02-29T04:48:36Z</time>
      </trkpt>
      <trkpt lat="40.293590" lon="-4.946580">
        <ele>1337.519</ele>
        <time>2020-02-29T04:48:56Z</time>
      </trkpt>
      <trkpt lat="40.293640" lon="-4.946600">
        <ele>1337.809</ele>
        <time>2020-02-29T04:49:16Z</time>
      </trkpt>
      <trkpt lat="40.293750" lon="-4.946690">
        <ele>1338.819</ele>
        <time>2020-02-29T04:49:36Z</time>
      </trkpt>
      <trkpt lat="40.293790" lon="-4.946750">
        <ele>1338.308</ele>
        <time>2020-02-29T04:49:56Z</time>
      </trkpt>
      <trkpt lat="40.293930" lon="-4.946910">
        <ele>1337.375</ele>
        <time>2020-02-29T04:50:16Z</time>
      </trkpt>
      <trkpt lat="40.294020" lon="-4.946970">
        <ele>1338.168</ele>
        <time>2020-02-29T04:50:36Z</time>
      </trkpt>
      <trkpt lat="40.294070" lon="-4.946990">
        <ele>1339.013</ele>
        <time>2020-02-29T04:50:56Z</time>
      </trkpt>
      <trkpt lat="40.294120" lon="-4.947000">
        <ele>1340.124</ele>
        <time>2020-02-29T04:51:16Z</time>
      </trkpt>
      <trkpt lat="40.294230" lon="-4.947000">
        <ele>1341.476</ele>
        <time>2020-02-29T04:51:36Z</time>
      </trkpt>
      <trkpt lat="40.294270" lon="-4.946990">
        <ele>1341.624</ele>
        <time>2020-02-29T04:51:56Z</time>
      </trkpt>
      <trkpt lat="40.294290" lon="-4.946990">
        <ele>1341.677</ele>
        <time>2020-02-29T04:52:16Z</time>
      </trkpt>
      <trkpt lat="40.294970" lon="-4.946790">
        <ele>1344.122</ele>
        <time>2020-02-29T04:52:36Z</time>
      </trkpt>
      <trkpt lat="40.295660" lon="-4.946530">
        <ele>1350.279</ele>
        <time>2020-02-29T04:52:56Z</time>
      </trkpt>
      <trkpt lat="40.296090" lon="-4.946340">
        <ele>1352.105</ele>
        <time>2020-02-29T04:53:16Z</time>
      </trkpt>
      <trkpt lat="40.296150" lon="-4.946320">
        <ele>1351.725</ele>
        <time>2020-02-29T04:53:36Z</time>
      </trkpt>
      <trkpt lat="40.296210" lon="-4.946260">
        <ele>1352.708</ele>
        <time>2020-02-29T04:53:56Z</time>
      </trkpt>
      <trkpt lat="40.296300" lon="-4.946220">
        <ele>1352.411</ele>
        <time>2020-02-29T04:54:16Z</time>
      </trkpt>
      <trkpt lat="40.296410" lon="-4.946130">
        <ele>1353.614</ele>
        <time>2020-02-29T04:54:36Z</time>
      </trkpt>
      <trkpt lat="40.296420" lon="-4.946130">
        <ele>1353.219</ele>
        <time>2020-02-29T04:54:56Z</time>
      </trkpt>
      <trkpt lat="40.296560" lon="-4.945990">
        <ele>1353.890</ele>
        <time>2020-02-29T04:55:16Z</time>
      </trkpt>
      <trkpt lat="40.296680" lon="-4.945850">
        <ele>1354.822</ele>
        <time>2020-02-29T04:55:36Z</time>
      </trkpt>
      <trkpt lat="40.296770" lon="-4.945710">
        <ele>1355.070</ele>
        <time>2020-02-29T04:55:56Z</time>
      </trkpt>
      <trkpt lat="40.296820" lon="-4.945610">
        <ele>1355.683</ele>
        <time>2020-02-29T04:56:16Z</time>
      </trkpt>
      <trkpt lat="40.296890" lon="-4.945350">
        <ele>1358.938</ele>
        <time>2020-02-29T04:56:36Z</time>
      </trkpt>
      <trkpt lat="40.296940" lon="-4.945230">
        <ele>1359.858</ele>
        <time>2020-02-29T04:56:56Z</time>
      </trkpt>
      <trkpt lat="40.296950" lon="-4.945220">
        <ele>1359.952</ele>
        <time>2020-02-29T04:57:16Z</time>
      </trkpt>
      <trkpt lat="40.296980" lon="-4.945150">
        <ele>1361.817</ele>
        <time>2020-02-29T04:57:36Z</time>
      </trkpt>
      <trkpt lat="40.297020" lon="-4.945110">
        <ele>1362.408</ele>
        <time>2020-02-29T04:57:56Z</time>
      </trkpt>
      <trkpt lat="40.297050" lon="-4.945100">
        <ele>1362.249</ele>
        <time>2020-02-29T04:58:16Z</time>
      </trkpt>
      <trkpt lat="40.297170" lon="-4.945100">
        <ele>1360.422</ele>
        <time>2020-02-29T04:58:36Z</time>
      </trkpt>
      <trkpt lat="40.297190" lon="-4.945110">
        <ele>1360.097</ele>
        <time>2020-02-29T04:58:56Z</time>
      </trkpt>
      <trkpt lat="40.297210" lon="-4.945110">
        <ele>1359.848</ele>
        <time>2020-02-29T04:59:16Z</time>
      </trkpt>
      <trkpt lat="40.297230" lon="-4.945130">
        <ele>1360.070</ele>
        <time>2020-02-29T04:59:36Z</time>
      </trkpt>
      <trkpt lat="40.297250" lon="-4.945160">
        <ele>1361.188</ele>
        <time>2020-02-29T04:59:56Z</time>
      </trkpt>
      <trkpt lat="40.297260" lon="-4.945160">
        <ele>1361.671</ele>
        <time>2020-02-29T05:00:16Z</time>
      </trkpt>
      <trkpt lat="40.297270" lon="-4.945220">
        <ele>1361.976</ele>
        <time>2020-02-29T05:00:36Z</time>
      </trkpt>
      <trkpt lat="40.297320" lon="-4.945380">
        <ele>1363.035</ele>
        <time>2020-02-29T05:00:56Z</time>
      </trkpt>
      <trkpt lat="40.297420" lon="-4.945810">
        <ele>1363.586</ele>
        <time>2020-02-29T05:01:16Z</time>
      </trkpt>
      <trkpt lat="40.297470" lon="-4.945970">
        <ele>1364.214</ele>
        <time>2020-02-29T05:01:36Z</time>
      </trkpt>
      <trkpt lat="40.297510" lon="-4.946040">
        <ele>1365.008</ele>
        <time>2020-02-29T05:01:56Z</time>
      </trkpt>
      <trkpt lat="40.297580" lon="-4.946130">
        <ele>1365.487</ele>
        <time>2020-02-29T05:02:16Z</time>
      </trkpt>
      <trkpt lat="40.297650" lon="-4.946180">
        <ele>1365.870</ele>
        <time>2020-02-29T05:02:36Z</time>
      </trkpt>
      <trkpt lat="40.297660" lon="-4.946180">
        <ele>1366.045</ele>
        <time>2020-02-29T05:02:56Z</time>
      </trkpt>
      <trkpt lat="40.297700" lon="-4.946200">
        <ele>1366.346</ele>
        <time>2020-02-29T05:03:16Z</time>
      </trkpt>
      <trkpt lat="40.297750" lon="-4.946210">
        <ele>1367.038</ele>
        <time>2020-02-29T05:03:36Z</time>
      </trkpt>
      <trkpt lat="40.297800" lon="-4.946210">
        <ele>1367.256</ele>
        <time>2020-02-29T05:03:56Z</time>
      </trkpt>
      <trkpt lat="40.297870" lon="-4.946190">
        <ele>1366.619</ele>
        <time>2020-02-29T05:04:16Z</time>
      </trkpt>
      <trkpt lat="40.297920" lon="-4.946150">
        <ele>1366.954</ele>
        <time>2020-02-29T05:04:36Z</time>
      </trkpt>
      <trkpt lat="40.297970" lon="-4.946120">
        <ele>1367.038</ele>
        <time>2020-02-29T05:04:56Z</time>
      </trkpt>
      <trkpt lat="40.298010" lon="-4.946080">
        <ele>1367.470</ele>
        <time>2020-02-29T05:05:16Z</time>
      </trkpt>
      <trkpt lat="40.298120" lon="-4.945940">
        <ele>1368.017</ele>
        <time>2020-02-29T05:05:36Z</time>
      </trkpt>
      <trkpt lat="40.298120" lon="-4.945930">
        <ele>1368.208</ele>
        <time>2020-02-29T05:05:56Z</time>
      </trkpt>
      <trkpt lat="40.298170" lon="-4.945850">
        <ele>1368.567</ele>
        <time>2020-02-29T05:06:16Z</time>
      </trkpt>
      <trkpt lat="40.298340" lon="-4.945440">
        <ele>1374.910</ele>
        <time>2020-02-29T05:06:36Z</time>
      </trkpt>
      <trkpt lat="40.298380" lon="-4.945390">
        <ele>1375.325</ele>
        <time>2020-02-29T05:06:56Z</time>
      </trkpt>
      <trkpt lat="40.298480" lon="-4.945330">
        <ele>1374.536</ele>
        <time>2020-02-29T05:07:16Z</time>
      </trkpt>
      <trkpt lat="40.298730" lon="-4.945240">
        <ele>1373.198</ele>
        <time>2020-02-29T05:07:36Z</time>
      </trkpt>
      <trkpt lat="40.298770" lon="-4.945220">
        <ele>1373.346</ele>
        <time>2020-02-29T05:07:56Z</time>
      </trkpt>
      <trkpt lat="40.298870" lon="-4.945110">
        <ele>1375.289</ele>
        <time>2020-02-29T05:08:16Z</time>
      </trkpt>
      <trkpt lat="40.298880" lon="-4.945090">
        <ele>1375.634</ele>
        <time>2020-02-29T05:08:36Z</time>
      </trkpt>
      <trkpt lat="40.298910" lon="-4.945050">
        <ele>1375.616</ele>
        <time>2020-02-29T05:08:56Z</time>
      </trkpt>
      <trkpt lat="40.298980" lon="-4.944910">
        <ele>1377.176</ele>
        <time>2020-02-29T05:09:16Z</time>
      </trkpt>
      <trkpt lat="40.298990" lon="-4.944900">
        <ele>1377.013</ele>
        <time>2020-02-29T05:09:36Z</time>
      </trkpt>
      <trkpt lat="40.299230" lon="-4.944390">
        <ele>1380.908</ele>
        <time>2020-02-29T05:09:56Z</time>
      </trkpt>
      <trkpt lat="40.299400" lon="-4.943930">
        <ele>1384.235</ele>
        <time>2020-02-29T05:10:16Z</time>
      </trkpt>
      <trkpt lat="40.299430" lon="-4.943870">
        <ele>1384.188</ele>
        <time>2020-02-29T05:10:36Z</time>
      </trkpt>
      <trkpt lat="40.299520" lon="-4.943570">
        <ele>1383.563</ele>
        <time>2020-02-29T05:10:56Z</time>
      </trkpt>
      <trkpt lat="40.299550" lon="-4.943380">
        <ele>1383.534</ele>
        <time>2020-02-29T05:11:16Z</time>
      </trkpt>
      <trkpt lat="40.299560" lon="-4.942580">
        <ele>1392.936</ele>
        <time>2020-02-29T05:11:36Z</time>
      </trkpt>
      <trkpt lat="40.299540" lon="-4.942420">
        <ele>1395.624</ele>
        <time>2020-02-29T05:11:56Z</time>
      </trkpt>
      <trkpt lat="40.299550" lon="-4.942360">
        <ele>1395.767</ele>
        <time>2020-02-29T05:12:16Z</time>
      </trkpt>
      <trkpt lat="40.299550" lon="-4.942320">
        <ele>1396.182</ele>
        <time>2020-02-29T05:12:36Z</time>
      </trkpt>
      <trkpt lat="40.299570" lon="-4.942280">
        <ele>1395.563</ele>
        <time>2020-02-29T05:12:56Z</time>
      </trkpt>
      <trkpt lat="40.299620" lon="-4.942230">
        <ele>1393.744</ele>
        <time>2020-02-29T05:13:16Z</time>
      </trkpt>
      <trkpt lat="40.299680" lon="-4.942210">
        <ele>1391.418</ele>
        <time>2020-02-29T05:13:36Z</time>
      </trkpt>
      <trkpt lat="40.299730" lon="-4.942210">
        <ele>1389.308</ele>
        <time>2020-02-29T05:13:56Z</time>
      </trkpt>
      <trkpt lat="40.299780" lon="-4.942190">
        <ele>1388.660</ele>
        <time>2020-02-29T05:14:16Z</time>
      </trkpt>
      <trkpt lat="40.299900" lon="-4.942160">
        <ele>1386.563</ele>
        <time>2020-02-29T05:14:36Z</time>
      </trkpt>
      <trkpt lat="40.299930" lon="-4.942140">
        <ele>1386.588</ele>
        <time>2020-02-29T05:14:56Z</time>
      </trkpt>
      <trkpt lat="40.300030" lon="-4.942050">
        <ele>1387.749</ele>
        <time>2020-02-29T05:15:16Z</time>
      </trkpt>
      <trkpt lat="40.300070" lon="-4.941990">
        <ele>1388.751</ele>
        <time>2020-02-29T05:15:36Z</time>
      </trkpt>
      <trkpt lat="40.300100" lon="-4.941960">
        <ele>1388.669</ele>
        <time>2020-02-29T05:15:56Z</time>
      </trkpt>
      <trkpt lat="40.300130" lon="-4.941920">
        <ele>1388.772</ele>
        <time>2020-02-29T05:16:16Z</time>
      </trkpt>
      <trkpt lat="40.300180" lon="-4.941830">
        <ele>1389.677</ele>
        <time>2020-02-29T05:16:36Z</time>
      </trkpt>
      <trkpt lat="40.300220" lon="-4.941820">
        <ele>1388.237</ele>
        <time>2020-02-29T05:16:56Z</time>
      </trkpt>
      <trkpt lat="40.300260" lon="-4.941790">
        <ele>1387.349</ele>
        <time>2020-02-29T05:17:16Z</time>
      </trkpt>
      <trkpt lat="40.300300" lon="-4.941790">
        <ele>1386.913</ele>
        <time>2020-02-29T05:17:36Z</time>
      </trkpt>
      <trkpt lat="40.300330" lon="-4.941810">
        <ele>1387.108</ele>
        <time>2020-02-29T05:17:56Z</time>
      </trkpt>
      <trkpt lat="40.300360" lon="-4.941820">
        <ele>1387.637</ele>
        <time>2020-02-29T05:18:16Z</time>
      </trkpt>
      <trkpt lat="40.300390" lon="-4.941840">
        <ele>1388.160</ele>
        <time>2020-02-29T05:18:36Z</time>
      </trkpt>
      <trkpt lat="40.300420" lon="-4.941870">
        <ele>1388.555</ele>
        <time>2020-02-29T05:18:56Z</time>
      </trkpt>
      <trkpt lat="40.300450" lon="-4.941890">
        <ele>1389.386</ele>
        <time>2020-02-29T05:19:16Z</time>
      </trkpt>
      <trkpt lat="40.300450" lon="-4.941900">
        <ele>1389.288</ele>
        <time>2020-02-29T05:19:36Z</time>
      </trkpt>
      <trkpt lat="40.300480" lon="-4.941940">
        <ele>1390.096</ele>
        <time>2020-02-29T05:19:56Z</time>
      </trkpt>
      <trkpt lat="40.300510" lon="-4.942040">
        <ele>1391.729</ele>
        <time>2020-02-29T05:20:16Z</time>
      </trkpt>
      <trkpt lat="40.300510" lon="-4.942140">
        <ele>1392.154</ele>
        <time>2020-02-29T05:20:36Z</time>
      </trkpt>
      <trkpt lat="40.300480" lon="-4.942330">
        <ele>1391.735</ele>
        <time>2020-02-29T05:20:56Z</time>
      </trkpt>
      <trkpt lat="40.300440" lon="-4.942470">
        <ele>1390.586</ele>
        <time>2020-02-29T05:21:16Z</time>
      </trkpt>
      <trkpt lat="40.300440" lon="-4.942600">
        <ele>1389.414</ele>
        <time>2020-02-29T05:21:36Z</time>
      </trkpt>
      <trkpt lat="40.300460" lon="-4.942710">
        <ele>1388.808</ele>
        <time>2020-02-29T05:21:56Z</time>
      </trkpt>
      <trkpt lat="40.300480" lon="-4.942760">
        <ele>1389.077</ele>
        <time>2020-02-29T05:22:16Z</time>
      </trkpt>
      <trkpt lat="40.300540" lon="-4.942820">
        <ele>1390.060</ele>
        <time>2020-02-29T05:22:36Z</time>
      </trkpt>
      <trkpt lat="40.300590" lon="-4.942850">
        <ele>1390.585</ele>
        <time>2020-02-29T05:22:56Z</time>
      </trkpt>
      <trkpt lat="40.300630" lon="-4.942850">
        <ele>1391.596</ele>
        <time>2020-02-29T05:23:16Z</time>
      </trkpt>
      <trkpt lat="40.300800" lon="-4.942960">
        <ele>1393.788</ele>
        <time>2020-02-29T05:23:36Z</time>
      </trkpt>
      <trkpt lat="40.300820" lon="-4.942990">
        <ele>1393.746</ele>
        <time>2020-02-29T05:23:56Z</time>
      </trkpt>
      <trkpt lat="40.300850" lon="-4.943020">
        <ele>1394.439</ele>
        <time>2020-02-29T05:24:16Z</time>
      </trkpt>
      <trkpt lat="40.300950" lon="-4.943260">
        <ele>1394.724</ele>
        <time>2020-02-29T05:24:36Z</time>
      </trkpt>
      <trkpt lat="40.301030" lon="-4.943520">
        <ele>1394.187</ele>
        <time>2020-02-29T05:24:56Z</time>
      </trkpt>
      <trkpt lat="40.301110" lon="-4.943700">
        <ele>1394.742</ele>
        <time>2020-02-29T05:25:16Z</time>
      </trkpt>
      <trkpt lat="40.301180" lon="-4.943820">
        <ele>1394.226</ele>
        <time>2020-02-29T05:25:36Z</time>
      </trkpt>
      <trkpt lat="40.301230" lon="-4.943870">
        <ele>1394.808</ele>
        <time>2020-02-29T05:25:56Z</time>
      </trkpt>
      <trkpt lat="40.301270" lon="-4.943900">
        <ele>1395.442</ele>
        <time>2020-02-29T05:26:16Z</time>
      </trkpt>
      <trkpt lat="40.301360" lon="-4.943940">
        <ele>1397.225</ele>
        <time>2020-02-29T05:26:36Z</time>
      </trkpt>
      <trkpt lat="40.301410" lon="-4.943940">
        <ele>1398.240</ele>
        <time>2020-02-29T05:26:56Z</time>
      </trkpt>
      <trkpt lat="40.301670" lon="-4.943900">
        <ele>1400.471</ele>
        <time>2020-02-29T05:27:16Z</time>
      </trkpt>
      <trkpt lat="40.302170" lon="-4.943770">
        <ele>1409.163</ele>
        <time>2020-02-29T05:27:36Z</time>
      </trkpt>
      <trkpt lat="40.302250" lon="-4.943770">
        <ele>1410.691</ele>
        <time>2020-02-29T05:27:56Z</time>
      </trkpt>
      <trkpt lat="40.302300" lon="-4.943790">
        <ele>1411.124</ele>
        <time>2020-02-29T05:28:16Z</time>
      </trkpt>
      <trkpt lat="40.302380" lon="-4.943840">
        <ele>1411.399</ele>
        <time>2020-02-29T05:28:36Z</time>
      </trkpt>
      <trkpt lat="40.302430" lon="-4.943890">
        <ele>1411.021</ele>
        <time>2020-02-29T05:28:56Z</time>
      </trkpt>
      <trkpt lat="40.302460" lon="-4.943910">
        <ele>1411.841</ele>
        <time>2020-02-29T05:29:16Z</time>
      </trkpt>
      <trkpt lat="40.302480" lon="-4.943940">
        <ele>1412.005</ele>
        <time>2020-02-29T05:29:36Z</time>
      </trkpt>
      <trkpt lat="40.302510" lon="-4.944060">
        <ele>1410.908</ele>
        <time>2020-02-29T05:29:56Z</time>
      </trkpt>
      <trkpt lat="40.302510" lon="-4.944190">
        <ele>1409.176</ele>
        <time>2020-02-29T05:30:16Z</time>
      </trkpt>
      <trkpt lat="40.302440" lon="-4.944540">
        <ele>1411.139</ele>
        <time>2020-02-29T05:30:36Z</time>
      </trkpt>
      <trkpt lat="40.302380" lon="-4.944970">
        <ele>1414.274</ele>
        <time>2020-02-29T05:30:56Z</time>
      </trkpt>
      <trkpt lat="40.302370" lon="-4.945160">
        <ele>1415.435</ele>
        <time>2020-02-29T05:31:16Z</time>
      </trkpt>
      <trkpt lat="40.302360" lon="-4.945180">
        <ele>1415.167</ele>
        <time>2020-02-29T05:31:36Z</time>
      </trkpt>
      <trkpt lat="40.302350" lon="-4.945640">
        <ele>1415.345</ele>
        <time>2020-02-29T05:31:56Z</time>
      </trkpt>
      <trkpt lat="40.302390" lon="-4.946060">
        <ele>1414.998</ele>
        <time>2020-02-29T05:32:16Z</time>
      </trkpt>
      <trkpt lat="40.302400" lon="-4.946330">
        <ele>1417.753</ele>
        <time>2020-02-29T05:32:36Z</time>
      </trkpt>
      <trkpt lat="40.302430" lon="-4.946570">
        <ele>1420.457</ele>
        <time>2020-02-29T05:32:56Z</time>
      </trkpt>
      <trkpt lat="40.302500" lon="-4.946860">
        <ele>1423.300</ele>
        <time>2020-02-29T05:33:16Z</time>
      </trkpt>
      <trkpt lat="40.302770" lon="-4.947670">
        <ele>1427.920</ele>
        <time>2020-02-29T05:33:36Z</time>
      </trkpt>
      <trkpt lat="40.302820" lon="-4.947890">
        <ele>1428.108</ele>
        <time>2020-02-29T05:33:56Z</time>
      </trkpt>
      <trkpt lat="40.302830" lon="-4.948140">
        <ele>1425.929</ele>
        <time>2020-02-29T05:34:16Z</time>
      </trkpt>
      <trkpt lat="40.302810" lon="-4.948280">
        <ele>1423.252</ele>
        <time>2020-02-29T05:34:36Z</time>
      </trkpt>
      <trkpt lat="40.302810" lon="-4.948450">
        <ele>1420.757</ele>
        <time>2020-02-29T05:34:56Z</time>
      </trkpt>
      <trkpt lat="40.302830" lon="-4.948530">
        <ele>1420.368</ele>
        <time>2020-02-29T05:35:16Z</time>
      </trkpt>
      <trkpt lat="40.302880" lon="-4.948640">
        <ele>1420.480</ele>
        <time>2020-02-29T05:35:36Z</time>
      </trkpt>
      <trkpt lat="40.303010" lon="-4.948800">
        <ele>1421.148</ele>
        <time>2020-02-29T05:35:56Z</time>
      </trkpt>
      <trkpt lat="40.303150" lon="-4.948910">
        <ele>1422.471</ele>
        <time>2020-02-29T05:36:16Z</time>
      </trkpt>
      <trkpt lat="40.303240" lon="-4.948960">
        <ele>1423.816</ele>
        <time>2020-02-29T05:36:36Z</time>
      </trkpt>
      <trkpt lat="40.303320" lon="-4.948990">
        <ele>1425.344</ele>
        <time>2020-02-29T05:36:56Z</time>
      </trkpt>
      <trkpt lat="40.303510" lon="-4.949010">
        <ele>1428.105</ele>
        <time>2020-02-29T05:37:16Z</time>
      </trkpt>
      <trkpt lat="40.303780" lon="-4.949010">
        <ele>1430.515</ele>
        <time>2020-02-29T05:37:36Z</time>
      </trkpt>
      <trkpt lat="40.303940" lon="-4.948960">
        <ele>1433.408</ele>
        <time>2020-02-29T05:37:56Z</time>
      </trkpt>
      <trkpt lat="40.304300" lon="-4.948810">
        <ele>1441.228</ele>
        <time>2020-02-29T05:38:16Z</time>
      </trkpt>
      <trkpt lat="40.304380" lon="-4.948800">
        <ele>1441.961</ele>
        <time>2020-02-29T05:38:36Z</time>
      </trkpt>
      <trkpt lat="40.304450" lon="-4.948800">
        <ele>1442.386</ele>
        <time>2020-02-29T05:38:56Z</time>
      </trkpt>
      <trkpt lat="40.304550" lon="-4.948830">
        <ele>1442.157</ele>
        <time>2020-02-29T05:39:16Z</time>
      </trkpt>
      <trkpt lat="40.304960" lon="-4.949030">
        <ele>1442.499</ele>
        <time>2020-02-29T05:39:36Z</time>
      </trkpt>
      <trkpt lat="40.305110" lon="-4.949140">
        <ele>1446.337</ele>
        <time>2020-02-29T05:39:56Z</time>
      </trkpt>
      <trkpt lat="40.305210" lon="-4.949270">
        <ele>1448.740</ele>
        <time>2020-02-29T05:40:16Z</time>
      </trkpt>
      <trkpt lat="40.305250" lon="-4.949400">
        <ele>1448.415</ele>
        <time>2020-02-29T05:40:36Z</time>
      </trkpt>
      <trkpt lat="40.305260" lon="-4.949460">
        <ele>1448.056</ele>
        <time>2020-02-29T05:40:56Z</time>
      </trkpt>
      <trkpt lat="40.305250" lon="-4.949720">
        <ele>1446.459</ele>
        <time>2020-02-29T05:41:16Z</time>
      </trkpt>
      <trkpt lat="40.305090" lon="-4.950950">
        <ele>1454.914</ele>
        <time>2020-02-29T05:41:36Z</time>
      </trkpt>
      <trkpt lat="40.305080" lon="-4.951170">
        <ele>1455.208</ele>
        <time>2020-02-29T05:41:56Z</time>
      </trkpt>
      <trkpt lat="40.305210" lon="-4.951660">
        <ele>1459.159</ele>
        <time>2020-02-29T05:42:16Z</time>
      </trkpt>
      <trkpt lat="40.305340" lon="-4.952670">
        <ele>1462.742</ele>
        <time>2020-02-29T05:42:36Z</time>
      </trkpt>
      <trkpt lat="40.305340" lon="-4.952800">
        <ele>1462.277</ele>
        <time>2020-02-29T05:42:56Z</time>
      </trkpt>
      <trkpt lat="40.305370" lon="-4.952960">
        <ele>1462.798</ele>
        <time>2020-02-29T05:43:16Z</time>
      </trkpt>
      <trkpt lat="40.305390" lon="-4.953010">
        <ele>1463.440</ele>
        <time>2020-02-29T05:43:36Z</time>
      </trkpt>
      <trkpt lat="40.305410" lon="-4.953180">
        <ele>1464.698</ele>
        <time>2020-02-29T05:43:56Z</time>
      </trkpt>
      <trkpt lat="40.305410" lon="-4.953400">
        <ele>1466.641</ele>
        <time>2020-02-29T05:44:16Z</time>
      </trkpt>
      <trkpt lat="40.305400" lon="-4.953470">
        <ele>1467.626</ele>
        <time>2020-02-29T05:44:36Z</time>
      </trkpt>
      <trkpt lat="40.305280" lon="-4.953800">
        <ele>1466.855</ele>
        <time>2020-02-29T05:44:56Z</time>
      </trkpt>
      <trkpt lat="40.305280" lon="-4.953830">
        <ele>1467.307</ele>
        <time>2020-02-29T05:45:16Z</time>
      </trkpt>
      <trkpt lat="40.305270" lon="-4.953860">
        <ele>1467.117</ele>
        <time>2020-02-29T05:45:36Z</time>
      </trkpt>
      <trkpt lat="40.305280" lon="-4.954490">
        <ele>1471.808</ele>
        <time>2020-02-29T05:45:56Z</time>
      </trkpt>
      <trkpt lat="40.305270" lon="-4.954510">
        <ele>1472.059</ele>
        <time>2020-02-29T05:46:16Z</time>
      </trkpt>
      <trkpt lat="40.305270" lon="-4.954540">
        <ele>1473.152</ele>
        <time>2020-02-29T05:46:36Z</time>
      </trkpt>
      <trkpt lat="40.305100" lon="-4.954980">
        <ele>1479.497</ele>
        <time>2020-02-29T05:46:56Z</time>
      </trkpt>
      <trkpt lat="40.304720" lon="-4.956120">
        <ele>1486.298</ele>
        <time>2020-02-29T05:47:16Z</time>
      </trkpt>
      <trkpt lat="40.304670" lon="-4.956210">
        <ele>1487.190</ele>
        <time>2020-02-29T05:47:36Z</time>
      </trkpt>
      <trkpt lat="40.304650" lon="-4.956270">
        <ele>1488.038</ele>
        <time>2020-02-29T05:47:56Z</time>
      </trkpt>
      <trkpt lat="40.304130" lon="-4.956990">
        <ele>1488.741</ele>
        <time>2020-02-29T05:48:16Z</time>
      </trkpt>
      <trkpt lat="40.304070" lon="-4.957100">
        <ele>1486.446</ele>
        <time>2020-02-29T05:48:36Z</time>
      </trkpt>
      <trkpt lat="40.304060" lon="-4.957150">
        <ele>1486.072</ele>
        <time>2020-02-29T05:48:56Z</time>
      </trkpt>
      <trkpt lat="40.304050" lon="-4.957160">
        <ele>1485.513</ele>
        <time>2020-02-29T05:49:16Z</time>
      </trkpt>
      <trkpt lat="40.304030" lon="-4.957360">
        <ele>1484.414</ele>
        <time>2020-02-29T05:49:36Z</time>
      </trkpt>
      <trkpt lat="40.304030" lon="-4.957470">
        <ele>1484.208</ele>
        <time>2020-02-29T05:49:56Z</time>
      </trkpt>
      <trkpt lat="40.304050" lon="-4.957580">
        <ele>1485.671</ele>
        <time>2020-02-29T05:50:16Z</time>
      </trkpt>
      <trkpt lat="40.304060" lon="-4.957610">
        <ele>1486.354</ele>
        <time>2020-02-29T05:50:36Z</time>
      </trkpt>
      <trkpt lat="40.304070" lon="-4.957700">
        <ele>1487.229</ele>
        <time>2020-02-29T05:50:56Z</time>
      </trkpt>
      <trkpt lat="40.304090" lon="-4.957790">
        <ele>1488.760</ele>
        <time>2020-02-29T05:51:16Z</time>
      </trkpt>
      <trkpt lat="40.304090" lon="-4.957850">
        <ele>1490.372</ele>
        <time>2020-02-29T05:51:36Z</time>
      </trkpt>
      <trkpt lat="40.304070" lon="-4.957940">
        <ele>1492.050</ele>
        <time>2020-02-29T05:51:56Z</time>
      </trkpt>
      <trkpt lat="40.304030" lon="-4.958020">
        <ele>1493.473</ele>
        <time>2020-02-29T05:52:16Z</time>
      </trkpt>
      <trkpt lat="40.304000" lon="-4.958040">
        <ele>1493.528</ele>
        <time>2020-02-29T05:52:36Z</time>
      </trkpt>
      <trkpt lat="40.303970" lon="-4.958080">
        <ele>1494.347</ele>
        <time>2020-02-29T05:52:56Z</time>
      </trkpt>
      <trkpt lat="40.303840" lon="-4.958150">
        <ele>1494.029</ele>
        <time>2020-02-29T05:53:16Z</time>
      </trkpt>
      <trkpt lat="40.303740" lon="-4.958180">
        <ele>1492.821</ele>
        <time>2020-02-29T05:53:36Z</time>
      </trkpt>
      <trkpt lat="40.303660" lon="-4.958220">
        <ele>1492.408</ele>
        <time>2020-02-29T05:53:56Z</time>
      </trkpt>
      <trkpt lat="40.303470" lon="-4.958340">
        <ele>1491.658</ele>
        <time>2020-02-29T05:54:16Z</time>
      </trkpt>
      <trkpt lat="40.303360" lon="-4.958430">
        <ele>1491.261</ele>
        <time>2020-02-29T05:54:36Z</time>
      </trkpt>
      <trkpt lat="40.303180" lon="-4.958620">
        <ele>1491.436</ele>
        <time>2020-02-29T05:54:56Z</time>
      </trkpt>
      <trkpt lat="40.303030" lon="-4.958830">
        <ele>1492.097</ele>
        <time>2020-02-29T05:55:16Z</time>
      </trkpt>
      <trkpt lat="40.302580" lon="-4.959570">
        <ele>1497.139</ele>
        <time>2020-02-29T05:55:36Z</time>
      </trkpt>
      <trkpt lat="40.302360" lon="-4.959780">
        <ele>1497.737</ele>
        <time>2020-02-29T05:55:56Z</time>
      </trkpt>
      <trkpt lat="40.302210" lon="-4.959900">
        <ele>1497.390</ele>
        <time>2020-02-29T05:56:16Z</time>
      </trkpt>
      <trkpt lat="40.302210" lon="-4.959910">
        <ele>1497.765</ele>
        <time>2020-02-29T05:56:36Z</time>
      </trkpt>
      <trkpt lat="40.301970" lon="-4.960110">
        <ele>1496.495</ele>
        <time>2020-02-29T05:56:56Z</time>
      </trkpt>
      <trkpt lat="40.301910" lon="-4.960170">
        <ele>1496.749</ele>
        <time>2020-02-29T05:57:16Z</time>
      </trkpt>
      <trkpt lat="40.301900" lon="-4.960190">
        <ele>1497.123</ele>
        <time>2020-02-29T05:57:36Z</time>
      </trkpt>
      <trkpt lat="40.301900" lon="-4.960220">
        <ele>1498.108</ele>
        <time>2020-02-29T05:57:56Z</time>
      </trkpt>
      <trkpt lat="40.301890" lon="-4.960250">
        <ele>1498.963</ele>
        <time>2020-02-29T05:58:16Z</time>
      </trkpt>
      <trkpt lat="40.301890" lon="-4.960310">
        <ele>1501.116</ele>
        <time>2020-02-29T05:58:36Z</time>
      </trkpt>
      <trkpt lat="40.301900" lon="-4.960320">
        <ele>1501.751</ele>
        <time>2020-02-29T05:58:56Z</time>
      </trkpt>
      <trkpt lat="40.301900" lon="-4.960340">
        <ele>1502.552</ele>
        <time>2020-02-29T05:59:16Z</time>
      </trkpt>
      <trkpt lat="40.301910" lon="-4.960360">
        <ele>1503.564</ele>
        <time>2020-02-29T05:59:36Z</time>
      </trkpt>
      <trkpt lat="40.301930" lon="-4.960370">
        <ele>1504.362</ele>
        <time>2020-02-29T05:59:56Z</time>
      </trkpt>
      <trkpt lat="40.301940" lon="-4.960370">
        <ele>1504.695</ele>
        <time>2020-02-29T06:00:16Z</time>
      </trkpt>
      <trkpt lat="40.301960" lon="-4.960390">
        <ele>1505.950</ele>
        <time>2020-02-29T06:00:36Z</time>
      </trkpt>
      <trkpt lat="40.302030" lon="-4.960390">
        <ele>1508.049</ele>
        <time>2020-02-29T06:00:56Z</time>
      </trkpt>
      <trkpt lat="40.302070" lon="-4.960380">
        <ele>1508.802</ele>
        <time>2020-02-29T06:01:16Z</time>
      </trkpt>
      <trkpt lat="40.302270" lon="-4.960240">
        <ele>1509.422</ele>
        <time>2020-02-29T06:01:36Z</time>
      </trkpt>
      <trkpt lat="40.302820" lon="-4.959810">
        <ele>1512.208</ele>
        <time>2020-02-29T06:01:56Z</time>
      </trkpt>
      <trkpt lat="40.303770" lon="-4.958970">
        <ele>1518.118</ele>
        <time>2020-02-29T06:02:16Z</time>
      </trkpt>
      <trkpt lat="40.303850" lon="-4.958910">
        <ele>1518.681</ele>
        <time>2020-02-29T06:02:36Z</time>
      </trkpt>
      <trkpt lat="40.303970" lon="-4.958840">
        <ele>1520.026</ele>
        <time>2020-02-29T06:02:56Z</time>
      </trkpt>
      <trkpt lat="40.304690" lon="-4.958530">
        <ele>1531.167</ele>
        <time>2020-02-29T06:03:16Z</time>
      </trkpt>
      <trkpt lat="40.304920" lon="-4.958380">
        <ele>1534.889</ele>
        <time>2020-02-29T06:03:36Z</time>
      </trkpt>
      <trkpt lat="40.304990" lon="-4.958310">
        <ele>1535.387</ele>
        <time>2020-02-29T06:03:56Z</time>
      </trkpt>
      <trkpt lat="40.305020" lon="-4.958260">
        <ele>1535.270</ele>
        <time>2020-02-29T06:04:16Z</time>
      </trkpt>
      <trkpt lat="40.305050" lon="-4.958180">
        <ele>1534.675</ele>
        <time>2020-02-29T06:04:36Z</time>
      </trkpt>
      <trkpt lat="40.305100" lon="-4.957780">
        <ele>1530.986</ele>
        <time>2020-02-29T06:04:56Z</time>
      </trkpt>
      <trkpt lat="40.305140" lon="-4.957660">
        <ele>1530.560</ele>
        <time>2020-02-29T06:05:16Z</time>
      </trkpt>
      <trkpt lat="40.305150" lon="-4.957650">
        <ele>1530.726</ele>
        <time>2020-02-29T06:05:36Z</time>
      </trkpt>
      <trkpt lat="40.305180" lon="-4.957570">
        <ele>1530.708</ele>
        <time>2020-02-29T06:05:56Z</time>
      </trkpt>
      <trkpt lat="40.305560" lon="-4.956990">
        <ele>1536.992</ele>
        <time>2020-02-29T06:06:16Z</time>
      </trkpt>
      <trkpt lat="40.305670" lon="-4.956780">
        <ele>1538.485</ele>
        <time>2020-02-29T06:06:36Z</time>
      </trkpt>
      <trkpt lat="40.305690" lon="-4.956720">
        <ele>1538.360</ele>
        <time>2020-02-29T06:06:56Z</time>
      </trkpt>
      <trkpt lat="40.305780" lon="-4.956520">
        <ele>1539.321</ele>
        <time>2020-02-29T06:07:16Z</time>
      </trkpt>
      <trkpt lat="40.305820" lon="-4.956450">
        <ele>1540.253</ele>
        <time>2020-02-29T06:07:36Z</time>
      </trkpt>
      <trkpt lat="40.305900" lon="-4.956270">
        <ele>1542.391</ele>
        <time>2020-02-29T06:07:56Z</time>
      </trkpt>
      <trkpt lat="40.305970" lon="-4.956030">
        <ele>1543.134</ele>
        <time>2020-02-29T06:08:16Z</time>
      </trkpt>
      <trkpt lat="40.305990" lon="-4.955890">
        <ele>1543.279</ele>
        <time>2020-02-29T06:08:36Z</time>
      </trkpt>
      <trkpt lat="40.305990" lon="-4.955700">
        <ele>1541.481</ele>
        <time>2020-02-29T06:08:56Z</time>
      </trkpt>
      <trkpt lat="40.306040" lon="-4.955470">
        <ele>1541.461</ele>
        <time>2020-02-29T06:09:16Z</time>
      </trkpt>
      <trkpt lat="40.306070" lon="-4.955420">
        <ele>1542.117</ele>
        <time>2020-02-29T06:09:36Z</time>
      </trkpt>
      <trkpt lat="40.306100" lon="-4.955390">
        <ele>1543.208</ele>
        <time>2020-02-29T06:09:56Z</time>
      </trkpt>
      <trkpt lat="40.306140" lon="-4.955370">
        <ele>1544.192</ele>
        <time>2020-02-29T06:10:16Z</time>
      </trkpt>
      <trkpt lat="40.306350" lon="-4.955180">
        <ele>1546.045</ele>
        <time>2020-02-29T06:10:36Z</time>
      </trkpt>
      <trkpt lat="40.306400" lon="-4.955110">
        <ele>1546.630</ele>
        <time>2020-02-29T06:10:56Z</time>
      </trkpt>
      <trkpt lat="40.306450" lon="-4.954920">
        <ele>1546.261</ele>
        <time>2020-02-29T06:11:16Z</time>
      </trkpt>
      <trkpt lat="40.306450" lon="-4.954870">
        <ele>1545.453</ele>
        <time>2020-02-29T06:11:36Z</time>
      </trkpt>
      <trkpt lat="40.306460" lon="-4.954790">
        <ele>1544.731</ele>
        <time>2020-02-29T06:11:56Z</time>
      </trkpt>
      <trkpt lat="40.306460" lon="-4.954700">
        <ele>1543.424</ele>
        <time>2020-02-29T06:12:16Z</time>
      </trkpt>
      <trkpt lat="40.306480" lon="-4.954560">
        <ele>1543.299</ele>
        <time>2020-02-29T06:12:36Z</time>
      </trkpt>
      <trkpt lat="40.306580" lon="-4.954190">
        <ele>1545.397</ele>
        <time>2020-02-29T06:12:56Z</time>
      </trkpt>
      <trkpt lat="40.306590" lon="-4.954180">
        <ele>1545.923</ele>
        <time>2020-02-29T06:13:16Z</time>
      </trkpt>
      <trkpt lat="40.307000" lon="-4.952950">
        <ele>1551.325</ele>
        <time>2020-02-29T06:13:36Z</time>
      </trkpt>
      <trkpt lat="40.307030" lon="-4.952880">
        <ele>1552.508</ele>
        <time>2020-02-29T06:13:56Z</time>
      </trkpt>
      <trkpt lat="40.307050" lon="-4.952780">
        <ele>1553.033</ele>
        <time>2020-02-29T06:14:16Z</time>
      </trkpt>
      <trkpt lat="40.307050" lon="-4.952670">
        <ele>1553.346</ele>
        <time>2020-02-29T06:14:36Z</time>
      </trkpt>
      <trkpt lat="40.307010" lon="-4.952450">
        <ele>1552.541</ele>
        <time>2020-02-29T06:14:56Z</time>
      </trkpt>
      <trkpt lat="40.307010" lon="-4.952430">
        <ele>1552.662</ele>
        <time>2020-02-29T06:15:16Z</time>
      </trkpt>
      <trkpt lat="40.306950" lon="-4.952170">
        <ele>1551.844</ele>
        <time>2020-02-29T06:15:36Z</time>
      </trkpt>
      <trkpt lat="40.306940" lon="-4.952090">
        <ele>1552.292</ele>
        <time>2020-02-29T06:15:56Z</time>
      </trkpt>
      <trkpt lat="40.306940" lon="-4.951970">
        <ele>1553.545</ele>
        <time>2020-02-29T06:16:16Z</time>
      </trkpt>
      <trkpt lat="40.306960" lon="-4.951770">
        <ele>1554.270</ele>
        <time>2020-02-29T06:16:36Z</time>
      </trkpt>
      <trkpt lat="40.307120" lon="-4.951110">
        <ele>1558.587</ele>
        <time>2020-02-29T06:16:56Z</time>
      </trkpt>
      <trkpt lat="40.307120" lon="-4.951060">
        <ele>1558.142</ele>
        <time>2020-02-29T06:17:16Z</time>
      </trkpt>
      <trkpt lat="40.307220" lon="-4.950530">
        <ele>1559.026</ele>
        <time>2020-02-29T06:17:36Z</time>
      </trkpt>
      <trkpt lat="40.307220" lon="-4.950290">
        <ele>1559.808</ele>
        <time>2020-02-29T06:17:56Z</time>
      </trkpt>
      <trkpt lat="40.307200" lon="-4.950050">
        <ele>1558.942</ele>
        <time>2020-02-29T06:18:16Z</time>
      </trkpt>
      <trkpt lat="40.307200" lon="-4.949690">
        <ele>1559.825</ele>
        <time>2020-02-29T06:18:36Z</time>
      </trkpt>
      <trkpt lat="40.307230" lon="-4.949520">
        <ele>1560.880</ele>
        <time>2020-02-29T06:18:56Z</time>
      </trkpt>
      <trkpt lat="40.307370" lon="-4.947940">
        <ele>1572.111</ele>
        <time>2020-02-29T06:19:16Z</time>
      </trkpt>
      <trkpt lat="40.307390" lon="-4.947850">
        <ele>1573.353</ele>
        <time>2020-02-29T06:19:36Z</time>
      </trkpt>
      <trkpt lat="40.307410" lon="-4.947820">
        <ele>1574.111</ele>
        <time>2020-02-29T06:19:56Z</time>
      </trkpt>
      <trkpt lat="40.307440" lon="-4.947790">
        <ele>1575.284</ele>
        <time>2020-02-29T06:20:16Z</time>
      </trkpt>
      <trkpt lat="40.307480" lon="-4.947770">
        <ele>1576.559</ele>
        <time>2020-02-29T06:20:36Z</time>
      </trkpt>
      <trkpt lat="40.307530" lon="-4.947770">
        <ele>1576.194</ele>
        <time>2020-02-29T06:20:56Z</time>
      </trkpt>
      <trkpt lat="40.307560" lon="-4.947780">
        <ele>1575.057</ele>
        <time>2020-02-29T06:21:16Z</time>
      </trkpt>
      <trkpt lat="40.307610" lon="-4.947830">
        <ele>1573.422</ele>
        <time>2020-02-29T06:21:36Z</time>
      </trkpt>
      <trkpt lat="40.307980" lon="-4.948410">
        <ele>1573.008</ele>
        <time>2020-02-29T06:21:56Z</time>
      </trkpt>
      <trkpt lat="40.308020" lon="-4.948440">
        <ele>1573.243</ele>
        <time>2020-02-29T06:22:16Z</time>
      </trkpt>
      <trkpt lat="40.308070" lon="-4.948460">
        <ele>1573.366</ele>
        <time>2020-02-29T06:22:36Z</time>
      </trkpt>
      <trkpt lat="40.308120" lon="-4.948470">
        <ele>1573.371</ele>
        <time>2020-02-29T06:22:56Z</time>
      </trkpt>
      <trkpt lat="40.308120" lon="-4.948460">
        <ele>1573.272</ele>
        <time>2020-02-29T06:23:16Z</time>
      </trkpt>
      <trkpt lat="40.308180" lon="-4.948440">
        <ele>1572.794</ele>
        <time>2020-02-29T06:23:36Z</time>
      </trkpt>
      <trkpt lat="40.308230" lon="-4.948400">
        <ele>1572.092</ele>
        <time>2020-02-29T06:23:56Z</time>
      </trkpt>
      <trkpt lat="40.308400" lon="-4.948190">
        <ele>1570.095</ele>
        <time>2020-02-29T06:24:16Z</time>
      </trkpt>
      <trkpt lat="40.308410" lon="-4.948170">
        <ele>1569.870</ele>
        <time>2020-02-29T06:24:36Z</time>
      </trkpt>
      <trkpt lat="40.308760" lon="-4.947680">
        <ele>1566.694</ele>
        <time>2020-02-29T06:24:56Z</time>
      </trkpt>
      <trkpt lat="40.308810" lon="-4.947560">
        <ele>1565.357</ele>
        <time>2020-02-29T06:25:16Z</time>
      </trkpt>
      <trkpt lat="40.308890" lon="-4.947420">
        <ele>1564.322</ele>
        <time>2020-02-29T06:25:36Z</time>
      </trkpt>
      <trkpt lat="40.308970" lon="-4.947310">
        <ele>1563.608</ele>
        <time>2020-02-29T06:25:56Z</time>
      </trkpt>
      <trkpt lat="40.309090" lon="-4.947170">
        <ele>1563.073</ele>
        <time>2020-02-29T06:26:16Z</time>
      </trkpt>
      <trkpt lat="40.309320" lon="-4.946940">
        <ele>1563.776</ele>
        <time>2020-02-29T06:26:36Z</time>
      </trkpt>
      <trkpt lat="40.309410" lon="-4.946870">
        <ele>1564.441</ele>
        <time>2020-02-29T06:26:56Z</time>
      </trkpt>
      <trkpt lat="40.309550" lon="-4.946740">
        <ele>1563.232</ele>
        <time>2020-02-29T06:27:16Z</time>
      </trkpt>
      <trkpt lat="40.309610" lon="-4.946720">
        <ele>1563.264</ele>
        <time>2020-02-29T06:27:36Z</time>
      </trkpt>
      <trkpt lat="40.309760" lon="-4.946700">
        <ele>1564.012</ele>
        <time>2020-02-29T06:27:56Z</time>
      </trkpt>
      <trkpt lat="40.309860" lon="-4.946670">
        <ele>1564.665</ele>
        <time>2020-02-29T06:28:16Z</time>
      </trkpt>
      <trkpt lat="40.309950" lon="-4.946570">
        <ele>1562.780</ele>
        <time>2020-02-29T06:28:36Z</time>
      </trkpt>
      <trkpt lat="40.310070" lon="-4.946330">
        <ele>1559.276</ele>
        <time>2020-02-29T06:28:56Z</time>
      </trkpt>
      <trkpt lat="40.310400" lon="-4.945780">
        <ele>1551.490</ele>
        <time>2020-02-29T06:29:16Z</time>
      </trkpt>
      <trkpt lat="40.310760" lon="-4.945320">
        <ele>1548.119</ele>
        <time>2020-02-29T06:29:36Z</time>
      </trkpt>
      <trkpt lat="40.311210" lon="-4.944830">
        <ele>1546.108</ele>
        <time>2020-02-29T06:29:56Z</time>
      </trkpt>
      <trkpt lat="40.311410" lon="-4.944650">
        <ele>1545.921</ele>
        <time>2020-02-29T06:30:16Z</time>
      </trkpt>
      <trkpt lat="40.311440" lon="-4.944630">
        <ele>1546.214</ele>
        <time>2020-02-29T06:30:36Z</time>
      </trkpt>
      <trkpt lat="40.311470" lon="-4.944600">
        <ele>1546.189</ele>
        <time>2020-02-29T06:30:56Z</time>
      </trkpt>
      <trkpt lat="40.311490" lon="-4.944560">
        <ele>1545.690</ele>
        <time>2020-02-29T06:31:16Z</time>
      </trkpt>
      <trkpt lat="40.311520" lon="-4.944520">
        <ele>1545.292</ele>
        <time>2020-02-29T06:31:36Z</time>
      </trkpt>
      <trkpt lat="40.311560" lon="-4.944380">
        <ele>1542.820</ele>
        <time>2020-02-29T06:31:56Z</time>
      </trkpt>
      <trkpt lat="40.311670" lon="-4.944150">
        <ele>1540.783</ele>
        <time>2020-02-29T06:32:16Z</time>
      </trkpt>
      <trkpt lat="40.311770" lon="-4.944000">
        <ele>1539.998</ele>
        <time>2020-02-29T06:32:36Z</time>
      </trkpt>
      <trkpt lat="40.312170" lon="-4.943620">
        <ele>1535.717</ele>
        <time>2020-02-29T06:32:56Z</time>
      </trkpt>
      <trkpt lat="40.312240" lon="-4.943570">
        <ele>1534.787</ele>
        <time>2020-02-29T06:33:16Z</time>
      </trkpt>
      <trkpt lat="40.312340" lon="-4.943520">
        <ele>1533.315</ele>
        <time>2020-02-29T06:33:36Z</time>
      </trkpt>
      <trkpt lat="40.312380" lon="-4.943510">
        <ele>1533.108</ele>
        <time>2020-02-29T06:33:56Z</time>
      </trkpt>
      <trkpt lat="40.312410" lon="-4.943520">
        <ele>1533.545</ele>
        <time>2020-02-29T06:34:16Z</time>
      </trkpt>
      <trkpt lat="40.312500" lon="-4.943520">
        <ele>1533.768</ele>
        <time>2020-02-29T06:34:36Z</time>
      </trkpt>
      <trkpt lat="40.312510" lon="-4.943530">
        <ele>1534.063</ele>
        <time>2020-02-29T06:34:56Z</time>
      </trkpt>
      <trkpt lat="40.312640" lon="-4.943550">
        <ele>1534.984</ele>
        <time>2020-02-29T06:35:16Z</time>
      </trkpt>
      <trkpt lat="40.312700" lon="-4.943540">
        <ele>1534.716</ele>
        <time>2020-02-29T06:35:36Z</time>
      </trkpt>
      <trkpt lat="40.312750" lon="-4.943520">
        <ele>1534.314</ele>
        <time>2020-02-29T06:35:56Z</time>
      </trkpt>
      <trkpt lat="40.312790" lon="-4.943480">
        <ele>1533.377</ele>
        <time>2020-02-29T06:36:16Z</time>
      </trkpt>
      <trkpt lat="40.312820" lon="-4.943460">
        <ele>1532.932</ele>
        <time>2020-02-29T06:36:36Z</time>
      </trkpt>
      <trkpt lat="40.312850" lon="-4.943400">
        <ele>1531.586</ele>
        <time>2020-02-29T06:36:56Z</time>
      </trkpt>
      <trkpt lat="40.313140" lon="-4.942660">
        <ele>1522.860</ele>
        <time>2020-02-29T06:37:16Z</time>
      </trkpt>
      <trkpt lat="40.313430" lon="-4.942150">
        <ele>1518.726</ele>
        <time>2020-02-29T06:37:36Z</time>
      </trkpt>
      <trkpt lat="40.313470" lon="-4.942100">
        <ele>1518.408</ele>
        <time>2020-02-29T06:37:56Z</time>
      </trkpt>
      <trkpt lat="40.313610" lon="-4.942000">
        <ele>1518.642</ele>
        <time>2020-02-29T06:38:16Z</time>
      </trkpt>
      <trkpt lat="40.313980" lon="-4.941820">
        <ele>1524.075</ele>
        <time>2020-02-29T06:38:36Z</time>
      </trkpt>
      <trkpt lat="40.314180" lon="-4.941670">
        <ele>1519.440</ele>
        <time>2020-02-29T06:38:56Z</time>
      </trkpt>
      <trkpt lat="40.314380" lon="-4.941500">
        <ele>1518.281</ele>
        <time>2020-02-29T06:39:16Z</time>
      </trkpt>
      <trkpt lat="40.314630" lon="-4.941380">
        <ele>1519.093</ele>
        <time>2020-02-29T06:39:36Z</time>
      </trkpt>
      <trkpt lat="40.314830" lon="-4.941240">
        <ele>1517.591</ele>
        <time>2020-02-29T06:39:56Z</time>
      </trkpt>
      <trkpt lat="40.315000" lon="-4.941040">
        <ele>1514.284</ele>
        <time>2020-02-29T06:40:16Z</time>
      </trkpt>
      <trkpt lat="40.315080" lon="-4.940920">
        <ele>1513.259</ele>
        <time>2020-02-29T06:40:36Z</time>
      </trkpt>
      <trkpt lat="40.315100" lon="-4.940880">
        <ele>1512.736</ele>
        <time>2020-02-29T06:40:56Z</time>
      </trkpt>
      <trkpt lat="40.315580" lon="-4.940240">
        <ele>1506.717</ele>
        <time>2020-02-29T06:41:16Z</time>
      </trkpt>
      <trkpt lat="40.315620" lon="-4.940170">
        <ele>1506.018</ele>
        <time>2020-02-29T06:41:36Z</time>
      </trkpt>
      <trkpt lat="40.315820" lon="-4.939940">
        <ele>1504.908</ele>
        <time>2020-02-29T06:41:56Z</time>
      </trkpt>
      <trkpt lat="40.315890" lon="-4.939900">
        <ele>1504.767</ele>
        <time>2020-02-29T06:42:16Z</time>
      </trkpt>
      <trkpt lat="40.315970" lon="-4.939870">
        <ele>1504.560</ele>
        <time>2020-02-29T06:42:36Z</time>
      </trkpt>
      <trkpt lat="40.316070" lon="-4.939850">
        <ele>1504.845</ele>
        <time>2020-02-29T06:42:56Z</time>
      </trkpt>
      <trkpt lat="40.316310" lon="-4.939840">
        <ele>1504.966</ele>
        <time>2020-02-29T06:43:16Z</time>
      </trkpt>
      <trkpt lat="40.316370" lon="-4.939810">
        <ele>1504.288</ele>
        <time>2020-02-29T06:43:36Z</time>
      </trkpt>
      <trkpt lat="40.316380" lon="-4.939810">
        <ele>1504.286</ele>
        <time>2020-02-29T06:43:56Z</time>
      </trkpt>
      <trkpt lat="40.316450" lon="-4.939780">
        <ele>1505.519</ele>
        <time>2020-02-29T06:44:16Z</time>
      </trkpt>
      <trkpt lat="40.316520" lon="-4.939720">
        <ele>1506.274</ele>
        <time>2020-02-29T06:44:36Z</time>
      </trkpt>
      <trkpt lat="40.316570" lon="-4.939630">
        <ele>1505.313</ele>
        <time>2020-02-29T06:44:56Z</time>
      </trkpt>
      <trkpt lat="40.316590" lon="-4.939540">
        <ele>1503.443</ele>
        <time>2020-02-29T06:45:16Z</time>
      </trkpt>
      <trkpt lat="40.316620" lon="-4.939070">
        <ele>1495.607</ele>
        <time>2020-02-29T06:45:36Z</time>
      </trkpt>
      <trkpt lat="40.316680" lon="-4.938800">
        <ele>1494.408</ele>
        <time>2020-02-29T06:45:56Z</time>
      </trkpt>
      <trkpt lat="40.316720" lon="-4.938700">
        <ele>1494.165</ele>
        <time>2020-02-29T06:46:16Z</time>
      </trkpt>
      <trkpt lat="40.316810" lon="-4.938560">
        <ele>1493.748</ele>
        <time>2020-02-29T06:46:36Z</time>
      </trkpt>
      <trkpt lat="40.316910" lon="-4.938490">
        <ele>1493.983</ele>
        <time>2020-02-29T06:46:56Z</time>
      </trkpt>
      <trkpt lat="40.317120" lon="-4.938410">
        <ele>1492.874</ele>
        <time>2020-02-29T06:47:16Z</time>
      </trkpt>
      <trkpt lat="40.317210" lon="-4.938400">
        <ele>1492.726</ele>
        <time>2020-02-29T06:47:36Z</time>
      </trkpt>
      <trkpt lat="40.317320" lon="-4.938420">
        <ele>1492.014</ele>
        <time>2020-02-29T06:47:56Z</time>
      </trkpt>
      <trkpt lat="40.317410" lon="-4.938460">
        <ele>1491.927</ele>
        <time>2020-02-29T06:48:16Z</time>
      </trkpt>
      <trkpt lat="40.317550" lon="-4.938550">
        <ele>1492.782</ele>
        <time>2020-02-29T06:48:36Z</time>
      </trkpt>
      <trkpt lat="40.317610" lon="-4.938560">
        <ele>1493.057</ele>
        <time>2020-02-29T06:48:56Z</time>
      </trkpt>
      <trkpt lat="40.317690" lon="-4.938550">
        <ele>1492.800</ele>
        <time>2020-02-29T06:49:16Z</time>
      </trkpt>
      <trkpt lat="40.317730" lon="-4.938530">
        <ele>1492.520</ele>
        <time>2020-02-29T06:49:36Z</time>
      </trkpt>
      <trkpt lat="40.317780" lon="-4.938480">
        <ele>1491.708</ele>
        <time>2020-02-29T06:49:56Z</time>
      </trkpt>
      <trkpt lat="40.317780" lon="-4.938470">
        <ele>1491.589</ele>
        <time>2020-02-29T06:50:16Z</time>
      </trkpt>
      <trkpt lat="40.318050" lon="-4.938010">
        <ele>1486.972</ele>
        <time>2020-02-29T06:50:36Z</time>
      </trkpt>
      <trkpt lat="40.318110" lon="-4.937940">
        <ele>1486.367</ele>
        <time>2020-02-29T06:50:56Z</time>
      </trkpt>
      <trkpt lat="40.318130" lon="-4.937930">
        <ele>1486.438</ele>
        <time>2020-02-29T06:51:16Z</time>
      </trkpt>
      <trkpt lat="40.318170" lon="-4.937890">
        <ele>1486.010</ele>
        <time>2020-02-29T06:51:36Z</time>
      </trkpt>
      <trkpt lat="40.318250" lon="-4.937870">
        <ele>1486.688</ele>
        <time>2020-02-29T06:51:56Z</time>
      </trkpt>
      <trkpt lat="40.318310" lon="-4.937870">
        <ele>1487.311</ele>
        <time>2020-02-29T06:52:16Z</time>
      </trkpt>
      <trkpt lat="40.318380" lon="-4.937890">
        <ele>1487.736</ele>
        <time>2020-02-29T06:52:36Z</time>
      </trkpt>
      <trkpt lat="40.318560" lon="-4.937980">
        <ele>1489.119</ele>
        <time>2020-02-29T06:52:56Z</time>
      </trkpt>
      <trkpt lat="40.318640" lon="-4.938000">
        <ele>1489.509</ele>
        <time>2020-02-29T06:53:16Z</time>
      </trkpt>
      <trkpt lat="40.318730" lon="-4.937970">
        <ele>1488.119</ele>
        <time>2020-02-29T06:53:36Z</time>
      </trkpt>
      <trkpt lat="40.318770" lon="-4.937930">
        <ele>1486.908</ele>
        <time>2020-02-29T06:53:56Z</time>
      </trkpt>
      <trkpt lat="40.318790" lon="-4.937890">
        <ele>1486.015</ele>
        <time>2020-02-29T06:54:16Z</time>
      </trkpt>
      <trkpt lat="40.318810" lon="-4.937790">
        <ele>1483.998</ele>
        <time>2020-02-29T06:54:36Z</time>
      </trkpt>
      <trkpt lat="40.318800" lon="-4.937660">
        <ele>1481.043</ele>
        <time>2020-02-29T06:54:56Z</time>
      </trkpt>
      <trkpt lat="40.318770" lon="-4.937470">
        <ele>1476.554</ele>
        <time>2020-02-29T06:55:16Z</time>
      </trkpt>
      <trkpt lat="40.318720" lon="-4.936830">
        <ele>1469.386</ele>
        <time>2020-02-29T06:55:36Z</time>
      </trkpt>
      <trkpt lat="40.318740" lon="-4.936610">
        <ele>1468.254</ele>
        <time>2020-02-29T06:55:56Z</time>
      </trkpt>
      <trkpt lat="40.318860" lon="-4.936130">
        <ele>1468.377</ele>
        <time>2020-02-29T06:56:16Z</time>
      </trkpt>
      <trkpt lat="40.318870" lon="-4.936040">
        <ele>1467.442</ele>
        <time>2020-02-29T06:56:36Z</time>
      </trkpt>
      <trkpt lat="40.318900" lon="-4.935920">
        <ele>1466.634</ele>
        <time>2020-02-29T06:56:56Z</time>
      </trkpt>
      <trkpt lat="40.318960" lon="-4.935760">
        <ele>1465.955</ele>
        <time>2020-02-29T06:57:16Z</time>
      </trkpt>
      <trkpt lat="40.319000" lon="-4.935680">
        <ele>1465.810</ele>
        <time>2020-02-29T06:57:36Z</time>
      </trkpt>
      <trkpt lat="40.319040" lon="-4.935630">
        <ele>1466.008</ele>
        <time>2020-02-29T06:57:56Z</time>
      </trkpt>
      <trkpt lat="40.319070" lon="-4.935580">
        <ele>1466.017</ele>
        <time>2020-02-29T06:58:16Z</time>
      </trkpt>
      <trkpt lat="40.319140" lon="-4.935500">
        <ele>1466.150</ele>
        <time>2020-02-29T06:58:36Z</time>
      </trkpt>
      <trkpt lat="40.319330" lon="-4.935330">
        <ele>1465.175</ele>
        <time>2020-02-29T06:58:56Z</time>
      </trkpt>
      <trkpt lat="40.319900" lon="-4.935040">
        <ele>1464.726</ele>
        <time>2020-02-29T06:59:16Z</time>
      </trkpt>
      <trkpt lat="40.320050" lon="-4.934900">
        <ele>1463.128</ele>
        <time>2020-02-29T06:59:36Z</time>
      </trkpt>
      <trkpt lat="40.320700" lon="-4.933750">
        <ele>1452.576</ele>
        <time>2020-02-29T06:59:56Z</time>
      </trkpt>
      <trkpt lat="40.320760" lon="-4.933680">
        <ele>1452.389</ele>
        <time>2020-02-29T07:00:16Z</time>
      </trkpt>
      <trkpt lat="40.320860" lon="-4.933540">
        <ele>1450.834</ele>
        <time>2020-02-29T07:00:36Z</time>
      </trkpt>
      <trkpt lat="40.320890" lon="-4.933520">
        <ele>1451.111</ele>
        <time>2020-02-29T07:00:56Z</time>
      </trkpt>
      <trkpt lat="40.320950" lon="-4.933460">
        <ele>1450.921</ele>
        <time>2020-02-29T07:01:16Z</time>
      </trkpt>
      <trkpt lat="40.321060" lon="-4.933390">
        <ele>1451.203</ele>
        <time>2020-02-29T07:01:36Z</time>
      </trkpt>
      <trkpt lat="40.321470" lon="-4.933200">
        <ele>1447.408</ele>
        <time>2020-02-29T07:01:56Z</time>
      </trkpt>
      <trkpt lat="40.321730" lon="-4.933060">
        <ele>1445.545</ele>
        <time>2020-02-29T07:02:16Z</time>
      </trkpt>
      <trkpt lat="40.321760" lon="-4.933030">
        <ele>1445.428</ele>
        <time>2020-02-29T07:02:36Z</time>
      </trkpt>
      <trkpt lat="40.321820" lon="-4.932940">
        <ele>1444.933</ele>
        <time>2020-02-29T07:02:56Z</time>
      </trkpt>
      <trkpt lat="40.321830" lon="-4.932890">
        <ele>1444.284</ele>
        <time>2020-02-29T07:03:16Z</time>
      </trkpt>
      <trkpt lat="40.321840" lon="-4.932770">
        <ele>1442.176</ele>
        <time>2020-02-29T07:03:36Z</time>
      </trkpt>
      <trkpt lat="40.321860" lon="-4.932660">
        <ele>1440.774</ele>
        <time>2020-02-29T07:03:56Z</time>
      </trkpt>
      <trkpt lat="40.321860" lon="-4.932640">
        <ele>1440.397</ele>
        <time>2020-02-29T07:04:16Z</time>
      </trkpt>
      <trkpt lat="40.321910" lon="-4.932390">
        <ele>1438.132</ele>
        <time>2020-02-29T07:04:36Z</time>
      </trkpt>
      <trkpt lat="40.321980" lon="-4.932220">
        <ele>1438.797</ele>
        <time>2020-02-29T07:04:56Z</time>
      </trkpt>
      <trkpt lat="40.321990" lon="-4.932210">
        <ele>1439.023</ele>
        <time>2020-02-29T07:05:16Z</time>
      </trkpt>
      <trkpt lat="40.322030" lon="-4.932120">
        <ele>1439.025</ele>
        <time>2020-02-29T07:05:36Z</time>
      </trkpt>
      <trkpt lat="40.322110" lon="-4.931990">
        <ele>1439.208</ele>
        <time>2020-02-29T07:05:56Z</time>
      </trkpt>
      <trkpt lat="40.322290" lon="-4.931770">
        <ele>1440.053</ele>
        <time>2020-02-29T07:06:16Z</time>
      </trkpt>
      <trkpt lat="40.322500" lon="-4.931580">
        <ele>1442.946</ele>
        <time>2020-02-29T07:06:36Z</time>
      </trkpt>
      <trkpt lat="40.322500" lon="-4.931570">
        <ele>1442.541</ele>
        <time>2020-02-29T07:06:56Z</time>
      </trkpt>
      <trkpt lat="40.322550" lon="-4.931500">
        <ele>1442.162</ele>
        <time>2020-02-29T07:07:16Z</time>
      </trkpt>
      <trkpt lat="40.322600" lon="-4.931380">
        <ele>1439.734</ele>
        <time>2020-02-29T07:07:36Z</time>
      </trkpt>
      <trkpt lat="40.322740" lon="-4.930770">
        <ele>1429.072</ele>
        <time>2020-02-29T07:07:56Z</time>
      </trkpt>
      <trkpt lat="40.322820" lon="-4.930540">
        <ele>1427.115</ele>
        <time>2020-02-29T07:08:16Z</time>
      </trkpt>
      <trkpt lat="40.322860" lon="-4.930460">
        <ele>1426.740</ele>
        <time>2020-02-29T07:08:36Z</time>
      </trkpt>
      <trkpt lat="40.323080" lon="-4.930150">
        <ele>1426.884</ele>
        <time>2020-02-29T07:08:56Z</time>
      </trkpt>
      <trkpt lat="40.323300" lon="-4.929920">
        <ele>1423.607</ele>
        <time>2020-02-29T07:09:16Z</time>
      </trkpt>
      <trkpt lat="40.323370" lon="-4.929860">
        <ele>1422.617</ele>
        <time>2020-02-29T07:09:36Z</time>
      </trkpt>
      <trkpt lat="40.323510" lon="-4.929780">
        <ele>1421.408</ele>
        <time>2020-02-29T07:09:56Z</time>
      </trkpt>
      <trkpt lat="40.323850" lon="-4.929710">
        <ele>1422.032</ele>
        <time>2020-02-29T07:10:16Z</time>
      </trkpt>
      <trkpt lat="40.323900" lon="-4.929690">
        <ele>1421.685</ele>
        <time>2020-02-29T07:10:36Z</time>
      </trkpt>
      <trkpt lat="40.324000" lon="-4.929630">
        <ele>1420.080</ele>
        <time>2020-02-29T07:10:56Z</time>
      </trkpt>
      <trkpt lat="40.324120" lon="-4.929530">
        <ele>1417.191</ele>
        <time>2020-02-29T07:11:16Z</time>
      </trkpt>
      <trkpt lat="40.324210" lon="-4.929480">
        <ele>1415.473</ele>
        <time>2020-02-29T07:11:36Z</time>
      </trkpt>
      <trkpt lat="40.324220" lon="-4.929480">
        <ele>1415.451</ele>
        <time>2020-02-29T07:11:56Z</time>
      </trkpt>
      <trkpt lat="40.324280" lon="-4.929460">
        <ele>1414.664</ele>
        <time>2020-02-29T07:12:16Z</time>
      </trkpt>
      <trkpt lat="40.324350" lon="-4.929490">
        <ele>1415.449</ele>
        <time>2020-02-29T07:12:36Z</time>
      </trkpt>
      <trkpt lat="40.324420" lon="-4.929560">
        <ele>1417.116</ele>
        <time>2020-02-29T07:12:56Z</time>
      </trkpt>
      <trkpt lat="40.324500" lon="-4.929670">
        <ele>1418.376</ele>
        <time>2020-02-29T07:13:16Z</time>
      </trkpt>
      <trkpt lat="40.324510" lon="-4.929670">
        <ele>1418.013</ele>
        <time>2020-02-29T07:13:36Z</time>
      </trkpt>
      <trkpt lat="40.324550" lon="-4.929720">
        <ele>1418.308</ele>
        <time>2020-02-29T07:13:56Z</time>
      </trkpt>
      <trkpt lat="40.324590" lon="-4.929730">
        <ele>1417.565</ele>
        <time>2020-02-29T07:14:16Z</time>
      </trkpt>
      <trkpt lat="40.324630" lon="-4.929750">
        <ele>1417.068</ele>
        <time>2020-02-29T07:14:36Z</time>
      </trkpt>
      <trkpt lat="40.324660" lon="-4.929740">
        <ele>1416.053</ele>
        <time>2020-02-29T07:14:56Z</time>
      </trkpt>
      <trkpt lat="40.324670" lon="-4.929740">
        <ele>1415.744</ele>
        <time>2020-02-29T07:15:16Z</time>
      </trkpt>
      <trkpt lat="40.324700" lon="-4.929730">
        <ele>1414.886</ele>
        <time>2020-02-29T07:15:36Z</time>
      </trkpt>
      <trkpt lat="40.324780" lon="-4.929690">
        <ele>1414.684</ele>
        <time>2020-02-29T07:15:56Z</time>
      </trkpt>
      <trkpt lat="40.325010" lon="-4.929490">
        <ele>1413.747</ele>
        <time>2020-02-29T07:16:16Z</time>
      </trkpt>
      <trkpt lat="40.325090" lon="-4.929370">
        <ele>1412.512</ele>
        <time>2020-02-29T07:16:36Z</time>
      </trkpt>
      <trkpt lat="40.325120" lon="-4.929260">
        <ele>1411.255</ele>
        <time>2020-02-29T07:16:56Z</time>
      </trkpt>
      <trkpt lat="40.325160" lon="-4.929030">
        <ele>1408.107</ele>
        <time>2020-02-29T07:17:16Z</time>
      </trkpt>
      <trkpt lat="40.325170" lon="-4.928920">
        <ele>1406.517</ele>
        <time>2020-02-29T07:17:36Z</time>
      </trkpt>
      <trkpt lat="40.325190" lon="-4.928830">
        <ele>1405.608</ele>
        <time>2020-02-29T07:17:56Z</time>
      </trkpt>
      <trkpt lat="40.325430" lon="-4.928340">
        <ele>1406.199</ele>
        <time>2020-02-29T07:18:16Z</time>
      </trkpt>
      <trkpt lat="40.325690" lon="-4.927600">
        <ele>1404.612</ele>
        <time>2020-02-29T07:18:36Z</time>
      </trkpt>
      <trkpt lat="40.325690" lon="-4.927580">
        <ele>1404.357</ele>
        <time>2020-02-29T07:18:56Z</time>
      </trkpt>
      <trkpt lat="40.325950" lon="-4.926900">
        <ele>1399.868</ele>
        <time>2020-02-29T07:19:16Z</time>
      </trkpt>
      <trkpt lat="40.326090" lon="-4.926650">
        <ele>1398.970</ele>
        <time>2020-02-29T07:19:36Z</time>
      </trkpt>
      <trkpt lat="40.326380" lon="-4.926060">
        <ele>1398.238</ele>
        <time>2020-02-29T07:19:56Z</time>
      </trkpt>
      <trkpt lat="40.326430" lon="-4.925860">
        <ele>1398.751</ele>
        <time>2020-02-29T07:20:16Z</time>
      </trkpt>
      <trkpt lat="40.326430" lon="-4.925760">
        <ele>1398.076</ele>
        <time>2020-02-29T07:20:36Z</time>
      </trkpt>
      <trkpt lat="40.326410" lon="-4.925540">
        <ele>1395.656</ele>
        <time>2020-02-29T07:20:56Z</time>
      </trkpt>
      <trkpt lat="40.326330" lon="-4.925210">
        <ele>1389.959</ele>
        <time>2020-02-29T07:21:16Z</time>
      </trkpt>
      <trkpt lat="40.326310" lon="-4.925080">
        <ele>1388.514</ele>
        <time>2020-02-29T07:21:36Z</time>
      </trkpt>
      <trkpt lat="40.326310" lon="-4.925050">
        <ele>1388.408</ele>
        <time>2020-02-29T07:21:56Z</time>
      </trkpt>
      <trkpt lat="40.326300" lon="-4.924990">
        <ele>1387.899</ele>
        <time>2020-02-29T07:22:16Z</time>
      </trkpt>
      <trkpt lat="40.326310" lon="-4.924870">
        <ele>1387.632</ele>
        <time>2020-02-29T07:22:36Z</time>
      </trkpt>
      <trkpt lat="40.326330" lon="-4.924820">
        <ele>1388.067</ele>
        <time>2020-02-29T07:22:56Z</time>
      </trkpt>
      <trkpt lat="40.326350" lon="-4.924740">
        <ele>1388.138</ele>
        <time>2020-02-29T07:23:16Z</time>
      </trkpt>
      <trkpt lat="40.326390" lon="-4.924670">
        <ele>1388.170</ele>
        <time>2020-02-29T07:23:36Z</time>
      </trkpt>
      <trkpt lat="40.326430" lon="-4.924630">
        <ele>1388.248</ele>
        <time>2020-02-29T07:23:56Z</time>
      </trkpt>
      <trkpt lat="40.326710" lon="-4.924450">
        <ele>1391.281</ele>
        <time>2020-02-29T07:24:16Z</time>
      </trkpt>
      <trkpt lat="40.326800" lon="-4.924320">
        <ele>1391.146</ele>
        <time>2020-02-29T07:24:36Z</time>
      </trkpt>
      <trkpt lat="40.326830" lon="-4.924210">
        <ele>1389.919</ele>
        <time>2020-02-29T07:24:56Z</time>
      </trkpt>
      <trkpt lat="40.326840" lon="-4.924200">
        <ele>1390.009</ele>
        <time>2020-02-29T07:25:16Z</time>
      </trkpt>
      <trkpt lat="40.326850" lon="-4.924150">
        <ele>1389.419</ele>
        <time>2020-02-29T07:25:36Z</time>
      </trkpt>
      <trkpt lat="40.326900" lon="-4.923360">
        <ele>1381.008</ele>
        <time>2020-02-29T07:25:56Z</time>
      </trkpt>
      <trkpt lat="40.326940" lon="-4.923180">
        <ele>1379.725</ele>
        <time>2020-02-29T07:26:16Z</time>
      </trkpt>
      <trkpt lat="40.326960" lon="-4.923120">
        <ele>1379.478</ele>
        <time>2020-02-29T07:26:36Z</time>
      </trkpt>
      <trkpt lat="40.326960" lon="-4.923110">
        <ele>1379.223</ele>
        <time>2020-02-29T07:26:56Z</time>
      </trkpt>
      <trkpt lat="40.327150" lon="-4.922730">
        <ele>1378.774</ele>
        <time>2020-02-29T07:27:16Z</time>
      </trkpt>
      <trkpt lat="40.327150" lon="-4.922720">
        <ele>1378.546</ele>
        <time>2020-02-29T07:27:36Z</time>
      </trkpt>
      <trkpt lat="40.327330" lon="-4.922310">
        <ele>1376.884</ele>
        <time>2020-02-29T07:27:56Z</time>
      </trkpt>
      <trkpt lat="40.327500" lon="-4.921850">
        <ele>1372.677</ele>
        <time>2020-02-29T07:28:16Z</time>
      </trkpt>
      <trkpt lat="40.327590" lon="-4.921680">
        <ele>1371.932</ele>
        <time>2020-02-29T07:28:36Z</time>
      </trkpt>
      <trkpt lat="40.327630" lon="-4.921630">
        <ele>1371.892</ele>
        <time>2020-02-29T07:28:56Z</time>
      </trkpt>
      <trkpt lat="40.327680" lon="-4.921590">
        <ele>1372.273</ele>
        <time>2020-02-29T07:29:16Z</time>
      </trkpt>
      <trkpt lat="40.327760" lon="-4.921510">
        <ele>1371.720</ele>
        <time>2020-02-29T07:29:36Z</time>
      </trkpt>
      <trkpt lat="40.327920" lon="-4.921420">
        <ele>1370.308</ele>
        <time>2020-02-29T07:29:56Z</time>
      </trkpt>
      <trkpt lat="40.328300" lon="-4.921290">
        <ele>1372.053</ele>
        <time>2020-02-29T07:30:16Z</time>
      </trkpt>
      <trkpt lat="40.328360" lon="-4.921260">
        <ele>1371.556</ele>
        <time>2020-02-29T07:30:36Z</time>
      </trkpt>
      <trkpt lat="40.328400" lon="-4.921230">
        <ele>1370.761</ele>
        <time>2020-02-29T07:30:56Z</time>
      </trkpt>
      <trkpt lat="40.328430" lon="-4.921220">
        <ele>1370.762</ele>
        <time>2020-02-29T07:31:16Z</time>
      </trkpt>
      <trkpt lat="40.328490" lon="-4.921180">
        <ele>1369.844</ele>
        <time>2020-02-29T07:31:36Z</time>
      </trkpt>
      <trkpt lat="40.328550" lon="-4.921150">
        <ele>1369.672</ele>
        <time>2020-02-29T07:31:56Z</time>
      </trkpt>
      <trkpt lat="40.328710" lon="-4.921010">
        <ele>1369.155</ele>
        <time>2020-02-29T07:32:16Z</time>
      </trkpt>
      <trkpt lat="40.328710" lon="-4.921000">
        <ele>1368.760</ele>
        <time>2020-02-29T07:32:36Z</time>
      </trkpt>
      <trkpt lat="40.328730" lon="-4.920980">
        <ele>1368.894</ele>
        <time>2020-02-29T07:32:56Z</time>
      </trkpt>
      <trkpt lat="40.328770" lon="-4.920920">
        <ele>1368.357</ele>
        <time>2020-02-29T07:33:16Z</time>
      </trkpt>
      <trkpt lat="40.328820" lon="-4.920810">
        <ele>1366.822</ele>
        <time>2020-02-29T07:33:36Z</time>
      </trkpt>
      <trkpt lat="40.328830" lon="-4.920800">
        <ele>1366.908</ele>
        <time>2020-02-29T07:33:56Z</time>
      </trkpt>
      <trkpt lat="40.328880" lon="-4.920660">
        <ele>1364.613</ele>
        <time>2020-02-29T07:34:16Z</time>
      </trkpt>
      <trkpt lat="40.328890" lon="-4.920590">
        <ele>1363.116</ele>
        <time>2020-02-29T07:34:36Z</time>
      </trkpt>
      <trkpt lat="40.328970" lon="-4.920380">
        <ele>1361.851</ele>
        <time>2020-02-29T07:34:56Z</time>
      </trkpt>
      <trkpt lat="40.329050" lon="-4.920230">
        <ele>1360.532</ele>
        <time>2020-02-29T07:35:16Z</time>
      </trkpt>
      <trkpt lat="40.329080" lon="-4.920200">
        <ele>1360.854</ele>
        <time>2020-02-29T07:35:36Z</time>
      </trkpt>
      <trkpt lat="40.329080" lon="-4.920190">
        <ele>1360.392</ele>
        <time>2020-02-29T07:35:56Z</time>
      </trkpt>
      <trkpt lat="40.329420" lon="-4.919760">
        <ele>1356.685</ele>
        <time>2020-02-29T07:36:16Z</time>
      </trkpt>
      <trkpt lat="40.329470" lon="-4.919710">
        <ele>1356.290</ele>
        <time>2020-02-29T07:36:36Z</time>
      </trkpt>
      <trkpt lat="40.329490" lon="-4.919680">
        <ele>1355.641</ele>
        <time>2020-02-29T07:36:56Z</time>
      </trkpt>
      <trkpt lat="40.329560" lon="-4.919640">
        <ele>1355.881</ele>
        <time>2020-02-29T07:37:16Z</time>
      </trkpt>
      <trkpt lat="40.329600" lon="-4.919610">
        <ele>1355.709</ele>
        <time>2020-02-29T07:37:36Z</time>
      </trkpt>
      <trkpt lat="40.329710" lon="-4.919570">
        <ele>1356.708</ele>
        <time>2020-02-29T07:37:56Z</time>
      </trkpt>
      <trkpt lat="40.330110" lon="-4.919500">
        <ele>1352.558</ele>
        <time>2020-02-29T07:38:16Z</time>
      </trkpt>
      <trkpt lat="40.330170" lon="-4.919500">
        <ele>1351.891</ele>
        <time>2020-02-29T07:38:36Z</time>
      </trkpt>
      <trkpt lat="40.330240" lon="-4.919510">
        <ele>1351.526</ele>
        <time>2020-02-29T07:38:56Z</time>
      </trkpt>
      <trkpt lat="40.330330" lon="-4.919540">
        <ele>1350.787</ele>
        <time>2020-02-29T07:39:16Z</time>
      </trkpt>
      <trkpt lat="40.330340" lon="-4.919540">
        <ele>1350.419</ele>
        <time>2020-02-29T07:39:36Z</time>
      </trkpt>
      <trkpt lat="40.330530" lon="-4.919640">
        <ele>1348.347</ele>
        <time>2020-02-29T07:39:56Z</time>
      </trkpt>
      <trkpt lat="40.330670" lon="-4.919760">
        <ele>1349.580</ele>
        <time>2020-02-29T07:40:16Z</time>
      </trkpt>
      <trkpt lat="40.330750" lon="-4.919810">
        <ele>1349.575</ele>
        <time>2020-02-29T07:40:36Z</time>
      </trkpt>
      <trkpt lat="40.330850" lon="-4.919890">
        <ele>1350.336</ele>
        <time>2020-02-29T07:40:56Z</time>
      </trkpt>
      <trkpt lat="40.330970" lon="-4.919950">
        <ele>1349.117</ele>
        <time>2020-02-29T07:41:16Z</time>
      </trkpt>
      <trkpt lat="40.330980" lon="-4.919950">
        <ele>1348.818</ele>
        <time>2020-02-29T07:41:36Z</time>
      </trkpt>
      <trkpt lat="40.331040" lon="-4.919970">
        <ele>1347.808</ele>
        <time>2020-02-29T07:41:56Z</time>
      </trkpt>
      <trkpt lat="40.331260" lon="-4.919980">
        <ele>1340.747</ele>
        <time>2020-02-29T07:42:16Z</time>
      </trkpt>
      <trkpt lat="40.331400" lon="-4.920010">
        <ele>1337.340</ele>
        <time>2020-02-29T07:42:36Z</time>
      </trkpt>
      <trkpt lat="40.331600" lon="-4.920090">
        <ele>1336.295</ele>
        <time>2020-02-29T07:42:56Z</time>
      </trkpt>
      <trkpt lat="40.331800" lon="-4.920280">
        <ele>1337.386</ele>
        <time>2020-02-29T07:43:16Z</time>
      </trkpt>
      <trkpt lat="40.331820" lon="-4.920290">
        <ele>1336.998</ele>
        <time>2020-02-29T07:43:36Z</time>
      </trkpt>
      <trkpt lat="40.331840" lon="-4.920310">
        <ele>1337.056</ele>
        <time>2020-02-29T07:43:56Z</time>
      </trkpt>
      <trkpt lat="40.331900" lon="-4.920350">
        <ele>1336.329</ele>
        <time>2020-02-29T07:44:16Z</time>
      </trkpt>
      <trkpt lat="40.331930" lon="-4.920360">
        <ele>1335.594</ele>
        <time>2020-02-29T07:44:36Z</time>
      </trkpt>
      <trkpt lat="40.331950" lon="-4.920360">
        <ele>1335.057</ele>
        <time>2020-02-29T07:44:56Z</time>
      </trkpt>
      <trkpt lat="40.331980" lon="-4.920350">
        <ele>1335.100</ele>
        <time>2020-02-29T07:45:16Z</time>
      </trkpt>
      <trkpt lat="40.331990" lon="-4.920350">
        <ele>1335.420</ele>
        <time>2020-02-29T07:45:36Z</time>
      </trkpt>
      <trkpt lat="40.332020" lon="-4.920340">
        <ele>1335.608</ele>
        <time>2020-02-29T07:45:56Z</time>
      </trkpt>
      <trkpt lat="40.332040" lon="-4.920320">
        <ele>1335.399</ele>
        <time>2020-02-29T07:46:16Z</time>
      </trkpt>
      <trkpt lat="40.332090" lon="-4.920240">
        <ele>1334.262</ele>
        <time>2020-02-29T07:46:36Z</time>
      </trkpt>
      <trkpt lat="40.332110" lon="-4.920190">
        <ele>1333.637</ele>
        <time>2020-02-29T07:46:56Z</time>
      </trkpt>
      <trkpt lat="40.332110" lon="-4.920180">
        <ele>1333.378</ele>
        <time>2020-02-29T07:47:16Z</time>
      </trkpt>
      <trkpt lat="40.332140" lon="-4.920110">
        <ele>1332.480</ele>
        <time>2020-02-29T07:47:36Z</time>
      </trkpt>
      <trkpt lat="40.332150" lon="-4.920050">
        <ele>1331.298</ele>
        <time>2020-02-29T07:47:56Z</time>
      </trkpt>
      <trkpt lat="40.332150" lon="-4.919880">
        <ele>1328.761</ele>
        <time>2020-02-29T07:48:16Z</time>
      </trkpt>
      <trkpt lat="40.332140" lon="-4.919800">
        <ele>1327.636</ele>
        <time>2020-02-29T07:48:36Z</time>
      </trkpt>
      <trkpt lat="40.332050" lon="-4.919500">
        <ele>1322.897</ele>
        <time>2020-02-29T07:48:56Z</time>
      </trkpt>
      <trkpt lat="40.331990" lon="-4.919240">
        <ele>1318.723</ele>
        <time>2020-02-29T07:49:16Z</time>
      </trkpt>
      <trkpt lat="40.331970" lon="-4.919060">
        <ele>1316.625</ele>
        <time>2020-02-29T07:49:36Z</time>
      </trkpt>
      <trkpt lat="40.331970" lon="-4.918950">
        <ele>1315.908</ele>
        <time>2020-02-29T07:49:56Z</time>
      </trkpt>
      <trkpt lat="40.331990" lon="-4.918820">
        <ele>1316.083</ele>
        <time>2020-02-29T07:50:16Z</time>
      </trkpt>
      <trkpt lat="40.332060" lon="-4.918630">
        <ele>1317.666</ele>
        <time>2020-02-29T07:50:36Z</time>
      </trkpt>
      <trkpt lat="40.332130" lon="-4.918500">
        <ele>1319.321</ele>
        <time>2020-02-29T07:50:56Z</time>
      </trkpt>
      <trkpt lat="40.332150" lon="-4.918430">
        <ele>1319.492</ele>
        <time>2020-02-29T07:51:16Z</time>
      </trkpt>
      <trkpt lat="40.332150" lon="-4.918390">
        <ele>1318.884</ele>
        <time>2020-02-29T07:51:36Z</time>
      </trkpt>
      <trkpt lat="40.332130" lon="-4.918330">
        <ele>1317.322</ele>
        <time>2020-02-29T07:51:56Z</time>
      </trkpt>
      <trkpt lat="40.332110" lon="-4.918310">
        <ele>1316.095</ele>
        <time>2020-02-29T07:52:16Z</time>
      </trkpt>
      <trkpt lat="40.332090" lon="-4.918300">
        <ele>1315.090</ele>
        <time>2020-02-29T07:52:36Z</time>
      </trkpt>
      <trkpt lat="40.332080" lon="-4.918290">
        <ele>1314.473</ele>
        <time>2020-02-29T07:52:56Z</time>
      </trkpt>
      <trkpt lat="40.332060" lon="-4.918280">
        <ele>1313.585</ele>
        <time>2020-02-29T07:53:16Z</time>
      </trkpt>
      <trkpt lat="40.332040" lon="-4.918280">
        <ele>1312.713</ele>
        <time>2020-02-29T07:53:36Z</time>
      </trkpt>
      <trkpt lat="40.331970" lon="-4.918310">
        <ele>1310.608</ele>
        <time>2020-02-29T07:53:56Z</time>
      </trkpt>
      <trkpt lat="40.331940" lon="-4.918340">
        <ele>1309.971</ele>
        <time>2020-02-29T07:54:16Z</time>
      </trkpt>
      <trkpt lat="40.331910" lon="-4.918380">
        <ele>1309.254</ele>
        <time>2020-02-29T07:54:36Z</time>
      </trkpt>
      <trkpt lat="40.331900" lon="-4.918430">
        <ele>1309.239</ele>
        <time>2020-02-29T07:54:56Z</time>
      </trkpt>
      <trkpt lat="40.331890" lon="-4.918440">
        <ele>1308.960</ele>
        <time>2020-02-29T07:55:16Z</time>
      </trkpt>
      <trkpt lat="40.331820" lon="-4.919040">
        <ele>1309.062</ele>
        <time>2020-02-29T07:55:36Z</time>
      </trkpt>
      <trkpt lat="40.331840" lon="-4.919250">
        <ele>1311.510</ele>
        <time>2020-02-29T07:55:56Z</time>
      </trkpt>
      <trkpt lat="40.331840" lon="-4.919330">
        <ele>1312.573</ele>
        <time>2020-02-29T07:56:16Z</time>
      </trkpt>
      <trkpt lat="40.331830" lon="-4.919370">
        <ele>1312.778</ele>
        <time>2020-02-29T07:56:36Z</time>
      </trkpt>
      <trkpt lat="40.331830" lon="-4.919410">
        <ele>1313.273</ele>
        <time>2020-02-29T07:56:56Z</time>
      </trkpt>
      <trkpt lat="40.331790" lon="-4.919500">
        <ele>1314.185</ele>
        <time>2020-02-29T07:57:16Z</time>
      </trkpt>
      <trkpt lat="40.331750" lon="-4.919540">
        <ele>1314.513</ele>
        <time>2020-02-29T07:57:36Z</time>
      </trkpt>
      <trkpt lat="40.331710" lon="-4.919560">
        <ele>1314.608</ele>
        <time>2020-02-29T07:57:56Z</time>
      </trkpt>
      <trkpt lat="40.331670" lon="-4.919570">
        <ele>1314.521</ele>
        <time>2020-02-29T07:58:16Z</time>
      </trkpt>
      <trkpt lat="40.331650" lon="-4.919580">
        <ele>1315.214</ele>
        <time>2020-02-29T07:58:36Z</time>
      </trkpt>
      <trkpt lat="40.331600" lon="-4.919570">
        <ele>1315.939</ele>
        <time>2020-02-29T07:58:56Z</time>
      </trkpt>
      <trkpt lat="40.331560" lon="-4.919550">
        <ele>1316.030</ele>
        <time>2020-02-29T07:59:16Z</time>
      </trkpt>
      <trkpt lat="40.331480" lon="-4.919490">
        <ele>1315.512</ele>
        <time>2020-02-29T07:59:36Z</time>
      </trkpt>
      <trkpt lat="40.331410" lon="-4.919420">
        <ele>1314.460</ele>
        <time>2020-02-29T07:59:56Z</time>
      </trkpt>
      <trkpt lat="40.331380" lon="-4.919400">
        <ele>1314.233</ele>
        <time>2020-02-29T08:00:16Z</time>
      </trkpt>
      <trkpt lat="40.331180" lon="-4.919200">
        <ele>1311.138</ele>
        <time>2020-02-29T08:00:36Z</time>
      </trkpt>
      <trkpt lat="40.331030" lon="-4.919020">
        <ele>1309.461</ele>
        <time>2020-02-29T08:00:56Z</time>
      </trkpt>
      <trkpt lat="40.330700" lon="-4.918560">
        <ele>1304.021</ele>
        <time>2020-02-29T08:01:16Z</time>
      </trkpt>
      <trkpt lat="40.330590" lon="-4.918460">
        <ele>1302.813</ele>
        <time>2020-02-29T08:01:36Z</time>
      </trkpt>
      <trkpt lat="40.330520" lon="-4.918410">
        <ele>1302.108</ele>
        <time>2020-02-29T08:01:56Z</time>
      </trkpt>
      <trkpt lat="40.330100" lon="-4.918230">
        <ele>1300.410</ele>
        <time>2020-02-29T08:02:16Z</time>
      </trkpt>
      <trkpt lat="40.330050" lon="-4.918220">
        <ele>1300.363</ele>
        <time>2020-02-29T08:02:36Z</time>
      </trkpt>
      <trkpt lat="40.329990" lon="-4.918220">
        <ele>1300.398</ele>
        <time>2020-02-29T08:02:56Z</time>
      </trkpt>
      <trkpt lat="40.329900" lon="-4.918240">
        <ele>1299.529</ele>
        <time>2020-02-29T08:03:16Z</time>
      </trkpt>
      <trkpt lat="40.329400" lon="-4.918400">
        <ele>1297.311</ele>
        <time>2020-02-29T08:03:36Z</time>
      </trkpt>
      <trkpt lat="40.329100" lon="-4.918520">
        <ele>1293.219</ele>
        <time>2020-02-29T08:03:56Z</time>
      </trkpt>
      <trkpt lat="40.329020" lon="-4.918560">
        <ele>1291.712</ele>
        <time>2020-02-29T08:04:16Z</time>
      </trkpt>
      <trkpt lat="40.328450" lon="-4.919110">
        <ele>1290.487</ele>
        <time>2020-02-29T08:04:36Z</time>
      </trkpt>
      <trkpt lat="40.328410" lon="-4.919160">
        <ele>1290.366</ele>
        <time>2020-02-29T08:04:56Z</time>
      </trkpt>
      <trkpt lat="40.328370" lon="-4.919190">
        <ele>1290.029</ele>
        <time>2020-02-29T08:05:16Z</time>
      </trkpt>
      <trkpt lat="40.328310" lon="-4.919250">
        <ele>1290.021</ele>
        <time>2020-02-29T08:05:36Z</time>
      </trkpt>
      <trkpt lat="40.328210" lon="-4.919320">
        <ele>1289.208</ele>
        <time>2020-02-29T08:05:56Z</time>
      </trkpt>
      <trkpt lat="40.328170" lon="-4.919320">
        <ele>1287.910</ele>
        <time>2020-02-29T08:06:16Z</time>
      </trkpt>
      <trkpt lat="40.328120" lon="-4.919290">
        <ele>1285.573</ele>
        <time>2020-02-29T08:06:36Z</time>
      </trkpt>
      <trkpt lat="40.328100" lon="-4.919250">
        <ele>1283.788</ele>
        <time>2020-02-29T08:06:56Z</time>
      </trkpt>
      <trkpt lat="40.328090" lon="-4.919190">
        <ele>1281.749</ele>
        <time>2020-02-29T08:07:16Z</time>
      </trkpt>
      <trkpt lat="40.328090" lon="-4.919140">
        <ele>1280.561</ele>
        <time>2020-02-29T08:07:36Z</time>
      </trkpt>
      <trkpt lat="40.328100" lon="-4.919090">
        <ele>1279.949</ele>
        <time>2020-02-29T08:07:56Z</time>
      </trkpt>
      <trkpt lat="40.328120" lon="-4.919060">
        <ele>1279.832</ele>
        <time>2020-02-29T08:08:16Z</time>
      </trkpt>
      <trkpt lat="40.328130" lon="-4.919020">
        <ele>1279.477</ele>
        <time>2020-02-29T08:08:36Z</time>
      </trkpt>
      <trkpt lat="40.328200" lon="-4.918970">
        <ele>1280.354</ele>
        <time>2020-02-29T08:08:56Z</time>
      </trkpt>
      <trkpt lat="40.328310" lon="-4.918910">
        <ele>1281.956</ele>
        <time>2020-02-29T08:09:16Z</time>
      </trkpt>
      <trkpt lat="40.328460" lon="-4.918790">
        <ele>1282.211</ele>
        <time>2020-02-29T08:09:36Z</time>
      </trkpt>
      <trkpt lat="40.329550" lon="-4.917430">
        <ele>1268.208</ele>
        <time>2020-02-29T08:09:56Z</time>
      </trkpt>
      <trkpt lat="40.329810" lon="-4.917210">
        <ele>1265.489</ele>
        <time>2020-02-29T08:10:16Z</time>
      </trkpt>
      <trkpt lat="40.329950" lon="-4.917160">
        <ele>1265.282</ele>
        <time>2020-02-29T08:10:36Z</time>
      </trkpt>
      <trkpt lat="40.330030" lon="-4.917140">
        <ele>1264.867</ele>
        <time>2020-02-29T08:10:56Z</time>
      </trkpt>
      <trkpt lat="40.331290" lon="-4.917020">
        <ele>1256.258</ele>
        <time>2020-02-29T08:11:16Z</time>
      </trkpt>
      <trkpt lat="40.331470" lon="-4.916990">
        <ele>1257.270</ele>
        <time>2020-02-29T08:11:36Z</time>
      </trkpt>
      <trkpt lat="40.331620" lon="-4.916930">
        <ele>1257.958</ele>
        <time>2020-02-29T08:11:56Z</time>
      </trkpt>
      <trkpt lat="40.331780" lon="-4.916820">
        <ele>1255.261</ele>
        <time>2020-02-29T08:12:16Z</time>
      </trkpt>
      <trkpt lat="40.332450" lon="-4.916300">
        <ele>1248.036</ele>
        <time>2020-02-29T08:12:36Z</time>
      </trkpt>
      <trkpt lat="40.332570" lon="-4.916160">
        <ele>1245.899</ele>
        <time>2020-02-29T08:12:56Z</time>
      </trkpt>
      <trkpt lat="40.332680" lon="-4.916010">
        <ele>1244.507</ele>
        <time>2020-02-29T08:13:16Z</time>
      </trkpt>
      <trkpt lat="40.332790" lon="-4.915830">
        <ele>1241.527</ele>
        <time>2020-02-29T08:13:36Z</time>
      </trkpt>
      <trkpt lat="40.332820" lon="-4.915800">
        <ele>1242.108</ele>
        <time>2020-02-29T08:13:56Z</time>
      </trkpt>
      <trkpt lat="40.332820" lon="-4.915790">
        <ele>1241.943</ele>
        <time>2020-02-29T08:14:16Z</time>
      </trkpt>
      <trkpt lat="40.332950" lon="-4.915590">
        <ele>1241.336</ele>
        <time>2020-02-29T08:14:36Z</time>
      </trkpt>
      <trkpt lat="40.333040" lon="-4.915410">
        <ele>1239.591</ele>
        <time>2020-02-29T08:14:56Z</time>
      </trkpt>
      <trkpt lat="40.333190" lon="-4.914980">
        <ele>1235.692</ele>
        <time>2020-02-29T08:15:16Z</time>
      </trkpt>
      <trkpt lat="40.333200" lon="-4.914970">
        <ele>1235.754</ele>
        <time>2020-02-29T08:15:36Z</time>
      </trkpt>
      <trkpt lat="40.333240" lon="-4.914870">
        <ele>1235.012</ele>
        <time>2020-02-29T08:15:56Z</time>
      </trkpt>
      <trkpt lat="40.333470" lon="-4.914450">
        <ele>1233.015</ele>
        <time>2020-02-29T08:16:16Z</time>
      </trkpt>
      <trkpt lat="40.333690" lon="-4.914100">
        <ele>1231.630</ele>
        <time>2020-02-29T08:16:36Z</time>
      </trkpt>
      <trkpt lat="40.333720" lon="-4.914030">
        <ele>1231.128</ele>
        <time>2020-02-29T08:16:56Z</time>
      </trkpt>
      <trkpt lat="40.333760" lon="-4.913990">
        <ele>1231.489</ele>
        <time>2020-02-29T08:17:16Z</time>
      </trkpt>
      <trkpt lat="40.333900" lon="-4.913800">
        <ele>1231.117</ele>
        <time>2020-02-29T08:17:36Z</time>
      </trkpt>
      <trkpt lat="40.334010" lon="-4.913550">
        <ele>1228.308</ele>
        <time>2020-02-29T08:17:56Z</time>
      </trkpt>
      <trkpt lat="40.334060" lon="-4.913460">
        <ele>1228.086</ele>
        <time>2020-02-29T08:18:16Z</time>
      </trkpt>
      <trkpt lat="40.334330" lon="-4.913100">
        <ele>1229.239</ele>
        <time>2020-02-29T08:18:36Z</time>
      </trkpt>
      <trkpt lat="40.334400" lon="-4.912990">
        <ele>1228.954</ele>
        <time>2020-02-29T08:18:56Z</time>
      </trkpt>
      <trkpt lat="40.334440" lon="-4.912900">
        <ele>1228.655</ele>
        <time>2020-02-29T08:19:16Z</time>
      </trkpt>
      <trkpt lat="40.334450" lon="-4.912730">
        <ele>1226.477</ele>
        <time>2020-02-29T08:19:36Z</time>
      </trkpt>
      <trkpt lat="40.334430" lon="-4.912580">
        <ele>1223.825</ele>
        <time>2020-02-29T08:19:56Z</time>
      </trkpt>
      <trkpt lat="40.334410" lon="-4.912510">
        <ele>1222.488</ele>
        <time>2020-02-29T08:20:16Z</time>
      </trkpt>
      <trkpt lat="40.334440" lon="-4.912500">
        <ele>1222.923</ele>
        <time>2020-02-29T08:20:36Z</time>
      </trkpt>
      <trkpt lat="40.334650" lon="-4.912260">
        <ele>1220.316</ele>
        <time>2020-02-29T08:20:56Z</time>
      </trkpt>
      <trkpt lat="40.334710" lon="-4.912210">
        <ele>1219.876</ele>
        <time>2020-02-29T08:21:16Z</time>
      </trkpt>
      <trkpt lat="40.334740" lon="-4.912200">
        <ele>1219.813</ele>
        <time>2020-02-29T08:21:36Z</time>
      </trkpt>
      <trkpt lat="40.334780" lon="-4.912170">
        <ele>1219.608</ele>
        <time>2020-02-29T08:21:56Z</time>
      </trkpt>
      <trkpt lat="40.334910" lon="-4.912120">
        <ele>1219.385</ele>
        <time>2020-02-29T08:22:16Z</time>
      </trkpt>
      <trkpt lat="40.334920" lon="-4.912120">
        <ele>1219.318</ele>
        <time>2020-02-29T08:22:36Z</time>
      </trkpt>
      <trkpt lat="40.335080" lon="-4.912060">
        <ele>1219.673</ele>
        <time>2020-02-29T08:22:56Z</time>
      </trkpt>
      <trkpt lat="40.335210" lon="-4.911980">
        <ele>1219.334</ele>
        <time>2020-02-29T08:23:16Z</time>
      </trkpt>
      <trkpt lat="40.335260" lon="-4.911960">
        <ele>1219.356</ele>
        <time>2020-02-29T08:23:36Z</time>
      </trkpt>
      <trkpt lat="40.335310" lon="-4.911930">
        <ele>1219.184</ele>
        <time>2020-02-29T08:23:56Z</time>
      </trkpt>
      <trkpt lat="40.335530" lon="-4.911930">
        <ele>1221.577</ele>
        <time>2020-02-29T08:24:16Z</time>
      </trkpt>
      <trkpt lat="40.335600" lon="-4.911910">
        <ele>1221.812</ele>
        <time>2020-02-29T08:24:36Z</time>
      </trkpt>
      <trkpt lat="40.335640" lon="-4.911890">
        <ele>1221.927</ele>
        <time>2020-02-29T08:24:56Z</time>
      </trkpt>
      <trkpt lat="40.335760" lon="-4.911800">
        <ele>1221.268</ele>
        <time>2020-02-29T08:25:16Z</time>
      </trkpt>
      <trkpt lat="40.336010" lon="-4.911640">
        <ele>1221.214</ele>
        <time>2020-02-29T08:25:36Z</time>
      </trkpt>
      <trkpt lat="40.336100" lon="-4.911600">
        <ele>1221.908</ele>
        <time>2020-02-29T08:25:56Z</time>
      </trkpt>
      <trkpt lat="40.336140" lon="-4.911570">
        <ele>1221.936</ele>
        <time>2020-02-29T08:26:16Z</time>
      </trkpt>
      <trkpt lat="40.336210" lon="-4.911530">
        <ele>1222.159</ele>
        <time>2020-02-29T08:26:36Z</time>
      </trkpt>
      <trkpt lat="40.336300" lon="-4.911460">
        <ele>1222.114</ele>
        <time>2020-02-29T08:26:56Z</time>
      </trkpt>
      <trkpt lat="40.336350" lon="-4.911440">
        <ele>1222.385</ele>
        <time>2020-02-29T08:27:16Z</time>
      </trkpt>
      <trkpt lat="40.336400" lon="-4.911410">
        <ele>1222.387</ele>
        <time>2020-02-29T08:27:36Z</time>
      </trkpt>
      <trkpt lat="40.336880" lon="-4.911230">
        <ele>1220.385</ele>
        <time>2020-02-29T08:27:56Z</time>
      </trkpt>
      <trkpt lat="40.336930" lon="-4.911230">
        <ele>1220.288</ele>
        <time>2020-02-29T08:28:16Z</time>
      </trkpt>
      <trkpt lat="40.337020" lon="-4.911260">
        <ele>1221.363</ele>
        <time>2020-02-29T08:28:36Z</time>
      </trkpt>
      <trkpt lat="40.337070" lon="-4.911270">
        <ele>1222.086</ele>
        <time>2020-02-29T08:28:56Z</time>
      </trkpt>
      <trkpt lat="40.337100" lon="-4.911270">
        <ele>1222.260</ele>
        <time>2020-02-29T08:29:16Z</time>
      </trkpt>
      <trkpt lat="40.337180" lon="-4.911200">
        <ele>1221.926</ele>
        <time>2020-02-29T08:29:36Z</time>
      </trkpt>
      <trkpt lat="40.337250" lon="-4.911120">
        <ele>1221.308</ele>
        <time>2020-02-29T08:29:56Z</time>
      </trkpt>
      <trkpt lat="40.337250" lon="-4.911110">
        <ele>1221.232</ele>
        <time>2020-02-29T08:30:16Z</time>
      </trkpt>
      <trkpt lat="40.337260" lon="-4.911110">
        <ele>1221.285</ele>
        <time>2020-02-29T08:30:36Z</time>
      </trkpt>
      <trkpt lat="40.337260" lon="-4.910990">
        <ele>1218.720</ele>
        <time>2020-02-29T08:30:56Z</time>
      </trkpt>
      <trkpt lat="40.337270" lon="-4.910950">
        <ele>1218.061</ele>
        <time>2020-02-29T08:31:16Z</time>
      </trkpt>
      <trkpt lat="40.337280" lon="-4.910930">
        <ele>1217.653</ele>
        <time>2020-02-29T08:31:36Z</time>
      </trkpt>
      <trkpt lat="40.337290" lon="-4.910920">
        <ele>1217.591</ele>
        <time>2020-02-29T08:31:56Z</time>
      </trkpt>
      <trkpt lat="40.337350" lon="-4.910890">
        <ele>1217.524</ele>
        <time>2020-02-29T08:32:16Z</time>
      </trkpt>
      <trkpt lat="40.337390" lon="-4.910890">
        <ele>1217.929</ele>
        <time>2020-02-29T08:32:36Z</time>
      </trkpt>
      <trkpt lat="40.337480" lon="-4.910870">
        <ele>1218.587</ele>
        <time>2020-02-29T08:32:56Z</time>
      </trkpt>
      <trkpt lat="40.337530" lon="-4.910840">
        <ele>1218.842</ele>
        <time>2020-02-29T08:33:16Z</time>
      </trkpt>
      <trkpt lat="40.337580" lon="-4.910800">
        <ele>1219.026</ele>
        <time>2020-02-29T08:33:36Z</time>
      </trkpt>
      <trkpt lat="40.337600" lon="-4.910760">
        <ele>1218.508</ele>
        <time>2020-02-29T08:33:56Z</time>
      </trkpt>
      <trkpt lat="40.337630" lon="-4.910720">
        <ele>1218.312</ele>
        <time>2020-02-29T08:34:16Z</time>
      </trkpt>
      <trkpt lat="40.337660" lon="-4.910690">
        <ele>1218.475</ele>
        <time>2020-02-29T08:34:36Z</time>
      </trkpt>
      <trkpt lat="40.337680" lon="-4.910680">
        <ele>1218.710</ele>
        <time>2020-02-29T08:34:56Z</time>
      </trkpt>
      <trkpt lat="40.337770" lon="-4.910590">
        <ele>1219.431</ele>
        <time>2020-02-29T08:35:16Z</time>
      </trkpt>
      <trkpt lat="40.337820" lon="-4.910570">
        <ele>1220.013</ele>
        <time>2020-02-29T08:35:36Z</time>
      </trkpt>
      <trkpt lat="40.337820" lon="-4.910560">
        <ele>1219.891</ele>
        <time>2020-02-29T08:35:56Z</time>
      </trkpt>
      <trkpt lat="40.337850" lon="-4.910550">
        <ele>1220.144</ele>
        <time>2020-02-29T08:36:16Z</time>
      </trkpt>
      <trkpt lat="40.337880" lon="-4.910530">
        <ele>1219.999</ele>
        <time>2020-02-29T08:36:36Z</time>
      </trkpt>
      <trkpt lat="40.337900" lon="-4.910500">
        <ele>1219.374</ele>
        <time>2020-02-29T08:36:56Z</time>
      </trkpt>
      <trkpt lat="40.337950" lon="-4.910470">
        <ele>1219.356</ele>
        <time>2020-02-29T08:37:16Z</time>
      </trkpt>
      <trkpt lat="40.337990" lon="-4.910410">
        <ele>1218.321</ele>
        <time>2020-02-29T08:37:36Z</time>
      </trkpt>
      <trkpt lat="40.338060" lon="-4.910360">
        <ele>1218.408</ele>
        <time>2020-02-29T08:37:56Z</time>
      </trkpt>
      <trkpt lat="40.338100" lon="-4.910340">
        <ele>1218.661</ele>
        <time>2020-02-29T08:38:16Z</time>
      </trkpt>
      <trkpt lat="40.338170" lon="-4.910320">
        <ele>1219.324</ele>
        <time>2020-02-29T08:38:36Z</time>
      </trkpt>
      <trkpt lat="40.338230" lon="-4.910320">
        <ele>1220.429</ele>
        <time>2020-02-29T08:38:56Z</time>
      </trkpt>
      <trkpt lat="40.338370" lon="-4.910280">
        <ele>1221.130</ele>
        <time>2020-02-29T08:39:16Z</time>
      </trkpt>
      <trkpt lat="40.338410" lon="-4.910260">
        <ele>1220.682</ele>
        <time>2020-02-29T08:39:36Z</time>
      </trkpt>
      <trkpt lat="40.338480" lon="-4.910240">
        <ele>1220.280</ele>
        <time>2020-02-29T08:39:56Z</time>
      </trkpt>
      <trkpt lat="40.338630" lon="-4.910290">
        <ele>1221.163</ele>
        <time>2020-02-29T08:40:16Z</time>
      </trkpt>
      <trkpt lat="40.338800" lon="-4.910280">
        <ele>1219.088</ele>
        <time>2020-02-29T08:40:36Z</time>
      </trkpt>
      <trkpt lat="40.338910" lon="-4.910240">
        <ele>1217.315</ele>
        <time>2020-02-29T08:40:56Z</time>
      </trkpt>
      <trkpt lat="40.339220" lon="-4.910060">
        <ele>1214.665</ele>
        <time>2020-02-29T08:41:16Z</time>
      </trkpt>
      <trkpt lat="40.339290" lon="-4.910050">
        <ele>1214.811</ele>
        <time>2020-02-29T08:41:36Z</time>
      </trkpt>
      <trkpt lat="40.339310" lon="-4.910040">
        <ele>1214.708</ele>
        <time>2020-02-29T08:41:56Z</time>
      </trkpt>
      <trkpt lat="40.339340" lon="-4.910040">
        <ele>1214.935</ele>
        <time>2020-02-29T08:42:16Z</time>
      </trkpt>
      <trkpt lat="40.339470" lon="-4.910020">
        <ele>1215.498</ele>
        <time>2020-02-29T08:42:36Z</time>
      </trkpt>
      <trkpt lat="40.339520" lon="-4.910000">
        <ele>1215.383</ele>
        <time>2020-02-29T08:42:56Z</time>
      </trkpt>
      <trkpt lat="40.339770" lon="-4.909820">
        <ele>1213.254</ele>
        <time>2020-02-29T08:43:16Z</time>
      </trkpt>
      <trkpt lat="40.339980" lon="-4.909740">
        <ele>1210.566</ele>
        <time>2020-02-29T08:43:36Z</time>
      </trkpt>
      <trkpt lat="40.340050" lon="-4.909690">
        <ele>1210.384</ele>
        <time>2020-02-29T08:43:56Z</time>
      </trkpt>
      <trkpt lat="40.340070" lon="-4.909670">
        <ele>1210.357</ele>
        <time>2020-02-29T08:44:16Z</time>
      </trkpt>
      <trkpt lat="40.340160" lon="-4.909540">
        <ele>1209.612</ele>
        <time>2020-02-29T08:44:36Z</time>
      </trkpt>
      <trkpt lat="40.340510" lon="-4.909230">
        <ele>1208.153</ele>
        <time>2020-02-29T08:44:56Z</time>
      </trkpt>
      <trkpt lat="40.340760" lon="-4.909030">
        <ele>1207.004</ele>
        <time>2020-02-29T08:45:16Z</time>
      </trkpt>
      <trkpt lat="40.340800" lon="-4.908990">
        <ele>1206.614</ele>
        <time>2020-02-29T08:45:36Z</time>
      </trkpt>
      <trkpt lat="40.340850" lon="-4.908970">
        <ele>1206.308</ele>
        <time>2020-02-29T08:45:56Z</time>
      </trkpt>
      <trkpt lat="40.340930" lon="-4.908950">
        <ele>1205.199</ele>
        <time>2020-02-29T08:46:16Z</time>
      </trkpt>
      <trkpt lat="40.340990" lon="-4.908950">
        <ele>1204.592</ele>
        <time>2020-02-29T08:46:36Z</time>
      </trkpt>
      <trkpt lat="40.341000" lon="-4.908960">
        <ele>1204.657</ele>
        <time>2020-02-29T08:46:56Z</time>
      </trkpt>
      <trkpt lat="40.341010" lon="-4.908960">
        <ele>1204.558</ele>
        <time>2020-02-29T08:47:16Z</time>
      </trkpt>
      <trkpt lat="40.341050" lon="-4.908980">
        <ele>1204.680</ele>
        <time>2020-02-29T08:47:36Z</time>
      </trkpt>
      <trkpt lat="40.341060" lon="-4.909000">
        <ele>1204.918</ele>
        <time>2020-02-29T08:47:56Z</time>
      </trkpt>
      <trkpt lat="40.341080" lon="-4.909010">
        <ele>1204.941</ele>
        <time>2020-02-29T08:48:16Z</time>
      </trkpt>
      <trkpt lat="40.341110" lon="-4.909040">
        <ele>1205.326</ele>
        <time>2020-02-29T08:48:36Z</time>
      </trkpt>
      <trkpt lat="40.341130" lon="-4.909070">
        <ele>1205.415</ele>
        <time>2020-02-29T08:48:56Z</time>
      </trkpt>
      <trkpt lat="40.341190" lon="-4.909100">
        <ele>1204.565</ele>
        <time>2020-02-29T08:49:16Z</time>
      </trkpt>
      <trkpt lat="40.341220" lon="-4.909130">
        <ele>1204.411</ele>
        <time>2020-02-29T08:49:36Z</time>
      </trkpt>
      <trkpt lat="40.341240" lon="-4.909130">
        <ele>1203.908</ele>
        <time>2020-02-29T08:49:56Z</time>
      </trkpt>
      <trkpt lat="40.341260" lon="-4.909140">
        <ele>1203.625</ele>
        <time>2020-02-29T08:50:16Z</time>
      </trkpt>
      <trkpt lat="40.341320" lon="-4.909140">
        <ele>1202.118</ele>
        <time>2020-02-29T08:50:36Z</time>
      </trkpt>
      <trkpt lat="40.341370" lon="-4.909150">
        <ele>1201.163</ele>
        <time>2020-02-29T08:50:56Z</time>
      </trkpt>
      <trkpt lat="40.341420" lon="-4.909150">
        <ele>1200.484</ele>
        <time>2020-02-29T08:51:16Z</time>
      </trkpt>
      <trkpt lat="40.341460" lon="-4.909140">
        <ele>1199.816</ele>
        <time>2020-02-29T08:51:36Z</time>
      </trkpt>
      <trkpt lat="40.341510" lon="-4.909150">
        <ele>1199.794</ele>
        <time>2020-02-29T08:51:56Z</time>
      </trkpt>
      <trkpt lat="40.341620" lon="-4.909150">
        <ele>1199.047</ele>
        <time>2020-02-29T08:52:16Z</time>
      </trkpt>
      <trkpt lat="40.341660" lon="-4.909160">
        <ele>1198.912</ele>
        <time>2020-02-29T08:52:36Z</time>
      </trkpt>
      <trkpt lat="40.341680" lon="-4.909160">
        <ele>1198.711</ele>
        <time>2020-02-29T08:52:56Z</time>
      </trkpt>
      <trkpt lat="40.341780" lon="-4.909220">
        <ele>1199.621</ele>
        <time>2020-02-29T08:53:16Z</time>
      </trkpt>
      <trkpt lat="40.342090" lon="-4.909520">
        <ele>1198.403</ele>
        <time>2020-02-29T08:53:36Z</time>
      </trkpt>
      <trkpt lat="40.342430" lon="-4.909800">
        <ele>1195.208</ele>
        <time>2020-02-29T08:53:56Z</time>
      </trkpt>
      <trkpt lat="40.342650" lon="-4.909940">
        <ele>1195.265</ele>
        <time>2020-02-29T08:54:16Z</time>
      </trkpt>
      <trkpt lat="40.342890" lon="-4.910040">
        <ele>1196.298</ele>
        <time>2020-02-29T08:54:36Z</time>
      </trkpt>
      <trkpt lat="40.343270" lon="-4.910140">
        <ele>1197.613</ele>
        <time>2020-02-29T08:54:56Z</time>
      </trkpt>
      <trkpt lat="40.343460" lon="-4.910160">
        <ele>1198.244</ele>
        <time>2020-02-29T08:55:16Z</time>
      </trkpt>
      <trkpt lat="40.343530" lon="-4.910160">
        <ele>1198.336</ele>
        <time>2020-02-29T08:55:36Z</time>
      </trkpt>
      <trkpt lat="40.343570" lon="-4.910150">
        <ele>1198.254</ele>
        <time>2020-02-29T08:55:56Z</time>
      </trkpt>
      <trkpt lat="40.343660" lon="-4.910190">
        <ele>1200.087</ele>
        <time>2020-02-29T08:56:16Z</time>
      </trkpt>
      <trkpt lat="40.343820" lon="-4.910110">
        <ele>1201.072</ele>
        <time>2020-02-29T08:56:36Z</time>
      </trkpt>
      <trkpt lat="40.343950" lon="-4.910010">
        <ele>1200.286</ele>
        <time>2020-02-29T08:56:56Z</time>
      </trkpt>
      <trkpt lat="40.344030" lon="-4.909930">
        <ele>1199.560</ele>
        <time>2020-02-29T08:57:16Z</time>
      </trkpt>
      <trkpt lat="40.344060" lon="-4.909880">
        <ele>1198.926</ele>
        <time>2020-02-29T08:57:36Z</time>
      </trkpt>
      <trkpt lat="40.344100" lon="-4.909830">
        <ele>1198.408</ele>
        <time>2020-02-29T08:57:56Z</time>
      </trkpt>
      <trkpt lat="40.344160" lon="-4.909670">
        <ele>1196.072</ele>
        <time>2020-02-29T08:58:16Z</time>
      </trkpt>
      <trkpt lat="40.344180" lon="-4.909580">
        <ele>1194.725</ele>
        <time>2020-02-29T08:58:36Z</time>
      </trkpt>
      <trkpt lat="40.344280" lon="-4.909310">
        <ele>1190.980</ele>
        <time>2020-02-29T08:58:56Z</time>
      </trkpt>
      <trkpt lat="40.344330" lon="-4.909250">
        <ele>1190.641</ele>
        <time>2020-02-29T08:59:16Z</time>
      </trkpt>
      <trkpt lat="40.344460" lon="-4.909130">
        <ele>1189.673</ele>
        <time>2020-02-29T08:59:36Z</time>
      </trkpt>
      <trkpt lat="40.344680" lon="-4.908990">
        <ele>1187.571</ele>
        <time>2020-02-29T08:59:56Z</time>
      </trkpt>
      <trkpt lat="40.344960" lon="-4.908780">
        <ele>1179.264</ele>
        <time>2020-02-29T09:00:16Z</time>
      </trkpt>
      <trkpt lat="40.345040" lon="-4.908690">
        <ele>1178.959</ele>
        <time>2020-02-29T09:00:36Z</time>
      </trkpt>
      <trkpt lat="40.345190" lon="-4.908360">
        <ele>1178.513</ele>
        <time>2020-02-29T09:00:56Z</time>
      </trkpt>
      <trkpt lat="40.345190" lon="-4.908350">
        <ele>1178.343</ele>
        <time>2020-02-29T09:01:16Z</time>
      </trkpt>
      <trkpt lat="40.345310" lon="-4.907910">
        <ele>1175.007</ele>
        <time>2020-02-29T09:01:36Z</time>
      </trkpt>
      <trkpt lat="40.345360" lon="-4.907770">
        <ele>1173.908</ele>
        <time>2020-02-29T09:01:56Z</time>
      </trkpt>
      <trkpt lat="40.345430" lon="-4.907640">
        <ele>1172.825</ele>
        <time>2020-02-29T09:02:16Z</time>
      </trkpt>
      <trkpt lat="40.345490" lon="-4.907560">
        <ele>1172.258</ele>
        <time>2020-02-29T09:02:36Z</time>
      </trkpt>
      <trkpt lat="40.345570" lon="-4.907480">
        <ele>1171.783</ele>
        <time>2020-02-29T09:02:56Z</time>
      </trkpt>
      <trkpt lat="40.345630" lon="-4.907400">
        <ele>1170.534</ele>
        <time>2020-02-29T09:03:16Z</time>
      </trkpt>
      <trkpt lat="40.345700" lon="-4.907350">
        <ele>1170.036</ele>
        <time>2020-02-29T09:03:36Z</time>
      </trkpt>
      <trkpt lat="40.345780" lon="-4.907280">
        <ele>1169.024</ele>
        <time>2020-02-29T09:03:56Z</time>
      </trkpt>
      <trkpt lat="40.345820" lon="-4.907260">
        <ele>1168.987</ele>
        <time>2020-02-29T09:04:16Z</time>
      </trkpt>
      <trkpt lat="40.345960" lon="-4.907160">
        <ele>1167.772</ele>
        <time>2020-02-29T09:04:36Z</time>
      </trkpt>
      <trkpt lat="40.346080" lon="-4.907060">
        <ele>1166.358</ele>
        <time>2020-02-29T09:04:56Z</time>
      </trkpt>
      <trkpt lat="40.346310" lon="-4.906780">
        <ele>1163.952</ele>
        <time>2020-02-29T09:05:16Z</time>
      </trkpt>
      <trkpt lat="40.346400" lon="-4.906650">
        <ele>1162.817</ele>
        <time>2020-02-29T09:05:36Z</time>
      </trkpt>
      <trkpt lat="40.346510" lon="-4.906530">
        <ele>1161.808</ele>
        <time>2020-02-29T09:05:56Z</time>
      </trkpt>
      <trkpt lat="40.346710" lon="-4.906380">
        <ele>1159.979</ele>
        <time>2020-02-29T09:06:16Z</time>
      </trkpt>
      <trkpt lat="40.346830" lon="-4.906310">
        <ele>1158.562</ele>
        <time>2020-02-29T09:06:36Z</time>
      </trkpt>
      <trkpt lat="40.346900" lon="-4.906280">
        <ele>1158.057</ele>
        <time>2020-02-29T09:06:56Z</time>
      </trkpt>
      <trkpt lat="40.347250" lon="-4.906210">
        <ele>1156.518</ele>
        <time>2020-02-29T09:07:16Z</time>
      </trkpt>
      <trkpt lat="40.347470" lon="-4.906200">
        <ele>1156.670</ele>
        <time>2020-02-29T09:07:36Z</time>
      </trkpt>
      <trkpt lat="40.347570" lon="-4.906170">
        <ele>1156.578</ele>
        <time>2020-02-29T09:07:56Z</time>
      </trkpt>
      <trkpt lat="40.347720" lon="-4.906090">
        <ele>1156.241</ele>
        <time>2020-02-29T09:08:16Z</time>
      </trkpt>
      <trkpt lat="40.347820" lon="-4.906050">
        <ele>1156.046</ele>
        <time>2020-02-29T09:08:36Z</time>
      </trkpt>
      <trkpt lat="40.347920" lon="-4.906030">
        <ele>1155.939</ele>
        <time>2020-02-29T09:08:56Z</time>
      </trkpt>
      <trkpt lat="40.348030" lon="-4.906030">
        <ele>1156.201</ele>
        <time>2020-02-29T09:09:16Z</time>
      </trkpt>
      <trkpt lat="40.348130" lon="-4.906040">
        <ele>1155.921</ele>
        <time>2020-02-29T09:09:36Z</time>
      </trkpt>
      <trkpt lat="40.348520" lon="-4.906180">
        <ele>1155.608</ele>
        <time>2020-02-29T09:09:56Z</time>
      </trkpt>
      <trkpt lat="40.348660" lon="-4.906210">
        <ele>1154.717</ele>
        <time>2020-02-29T09:10:16Z</time>
      </trkpt>
      <trkpt lat="40.349440" lon="-4.906190">
        <ele>1148.410</ele>
        <time>2020-02-29T09:10:36Z</time>
      </trkpt>
      <trkpt lat="40.350550" lon="-4.906230">
        <ele>1146.935</ele>
        <time>2020-02-29T09:10:56Z</time>
      </trkpt>
      <trkpt lat="40.350900" lon="-4.906210">
        <ele>1144.786</ele>
        <time>2020-02-29T09:11:16Z</time>
      </trkpt>
      <trkpt lat="40.351240" lon="-4.906150">
        <ele>1142.048</ele>
        <time>2020-02-29T09:11:36Z</time>
      </trkpt>
      <trkpt lat="40.351330" lon="-4.906120">
        <ele>1141.366</ele>
        <time>2020-02-29T09:11:56Z</time>
      </trkpt>
      <trkpt lat="40.351500" lon="-4.906030">
        <ele>1140.979</ele>
        <time>2020-02-29T09:12:16Z</time>
      </trkpt>
      <trkpt lat="40.351670" lon="-4.905920">
        <ele>1141.074</ele>
        <time>2020-02-29T09:12:36Z</time>
      </trkpt>
      <trkpt lat="40.351790" lon="-4.905860">
        <ele>1140.868</ele>
        <time>2020-02-29T09:12:56Z</time>
      </trkpt>
      <trkpt lat="40.352190" lon="-4.905720">
        <ele>1139.942</ele>
        <time>2020-02-29T09:13:16Z</time>
      </trkpt>
      <trkpt lat="40.352290" lon="-4.905660">
        <ele>1139.726</ele>
        <time>2020-02-29T09:13:36Z</time>
      </trkpt>
      <trkpt lat="40.352340" lon="-4.905620">
        <ele>1139.708</ele>
        <time>2020-02-29T09:13:56Z</time>
      </trkpt>
      <trkpt lat="40.352450" lon="-4.905500">
        <ele>1139.530</ele>
        <time>2020-02-29T09:14:16Z</time>
      </trkpt>
      <trkpt lat="40.352920" lon="-4.904830">
        <ele>1139.823</ele>
        <time>2020-02-29T09:14:36Z</time>
      </trkpt>
      <trkpt lat="40.353210" lon="-4.904480">
        <ele>1138.998</ele>
        <time>2020-02-29T09:14:56Z</time>
      </trkpt>
      <trkpt lat="40.353420" lon="-4.904260">
        <ele>1136.849</ele>
        <time>2020-02-29T09:15:16Z</time>
      </trkpt>
      <trkpt lat="40.353610" lon="-4.904110">
        <ele>1136.581</ele>
        <time>2020-02-29T09:15:36Z</time>
      </trkpt>
      <trkpt lat="40.353820" lon="-4.903990">
        <ele>1133.019</ele>
        <time>2020-02-29T09:15:56Z</time>
      </trkpt>
      <trkpt lat="40.353910" lon="-4.903920">
        <ele>1131.872</ele>
        <time>2020-02-29T09:16:16Z</time>
      </trkpt>
      <trkpt lat="40.353940" lon="-4.903890">
        <ele>1131.677</ele>
        <time>2020-02-29T09:16:36Z</time>
      </trkpt>
      <trkpt lat="40.353990" lon="-4.903860">
        <ele>1131.627</ele>
        <time>2020-02-29T09:16:56Z</time>
      </trkpt>
      <trkpt lat="40.354120" lon="-4.903700">
        <ele>1130.768</ele>
        <time>2020-02-29T09:17:16Z</time>
      </trkpt>
      <trkpt lat="40.354910" lon="-4.902510">
        <ele>1126.314</ele>
        <time>2020-02-29T09:17:36Z</time>
      </trkpt>
      <trkpt lat="40.354910" lon="-4.902500">
        <ele>1126.108</ele>
        <time>2020-02-29T09:17:56Z</time>
      </trkpt>
      <trkpt lat="40.354950" lon="-4.902420">
        <ele>1125.716</ele>
        <time>2020-02-29T09:18:16Z</time>
      </trkpt>
      <trkpt lat="40.355070" lon="-4.902230">
        <ele>1124.989</ele>
        <time>2020-02-29T09:18:36Z</time>
      </trkpt>
      <trkpt lat="40.355180" lon="-4.902100">
        <ele>1123.584</ele>
        <time>2020-02-29T09:18:56Z</time>
      </trkpt>
      <trkpt lat="40.355240" lon="-4.902050">
        <ele>1123.055</ele>
        <time>2020-02-29T09:19:16Z</time>
      </trkpt>
      <trkpt lat="40.355300" lon="-4.902030">
        <ele>1123.077</ele>
        <time>2020-02-29T09:19:36Z</time>
      </trkpt>
      <trkpt lat="40.355360" lon="-4.902000">
        <ele>1122.735</ele>
        <time>2020-02-29T09:19:56Z</time>
      </trkpt>
      <trkpt lat="40.355570" lon="-4.901950">
        <ele>1122.228</ele>
        <time>2020-02-29T09:20:16Z</time>
      </trkpt>
      <trkpt lat="40.355640" lon="-4.901920">
        <ele>1121.863</ele>
        <time>2020-02-29T09:20:36Z</time>
      </trkpt>
      <trkpt lat="40.355650" lon="-4.901920">
        <ele>1121.912</ele>
        <time>2020-02-29T09:20:56Z</time>
      </trkpt>
      <trkpt lat="40.355760" lon="-4.901860">
        <ele>1121.032</ele>
        <time>2020-02-29T09:21:16Z</time>
      </trkpt>
      <trkpt lat="40.356130" lon="-4.901610">
        <ele>1121.005</ele>
        <time>2020-02-29T09:21:36Z</time>
      </trkpt>
      <trkpt lat="40.356620" lon="-4.901340">
        <ele>1117.608</ele>
        <time>2020-02-29T09:21:56Z</time>
      </trkpt>
      <trkpt lat="40.356810" lon="-4.901270">
        <ele>1117.235</ele>
        <time>2020-02-29T09:22:16Z</time>
      </trkpt>
      <trkpt lat="40.356890" lon="-4.901260">
        <ele>1117.588</ele>
        <time>2020-02-29T09:22:36Z</time>
      </trkpt>
      <trkpt lat="40.356970" lon="-4.901260">
        <ele>1117.833</ele>
        <time>2020-02-29T09:22:56Z</time>
      </trkpt>
      <trkpt lat="40.357080" lon="-4.901240">
        <ele>1117.524</ele>
        <time>2020-02-29T09:23:16Z</time>
      </trkpt>
      <trkpt lat="40.357120" lon="-4.901240">
        <ele>1117.596</ele>
        <time>2020-02-29T09:23:36Z</time>
      </trkpt>
      <trkpt lat="40.357170" lon="-4.901210">
        <ele>1116.874</ele>
        <time>2020-02-29T09:23:56Z</time>
      </trkpt>
      <trkpt lat="40.357240" lon="-4.901180">
        <ele>1116.297</ele>
        <time>2020-02-29T09:24:16Z</time>
      </trkpt>
      <trkpt lat="40.357340" lon="-4.901150">
        <ele>1116.232</ele>
        <time>2020-02-29T09:24:36Z</time>
      </trkpt>
      <trkpt lat="40.357410" lon="-4.901120">
        <ele>1115.772</ele>
        <time>2020-02-29T09:24:56Z</time>
      </trkpt>
      <trkpt lat="40.357690" lon="-4.901060">
        <ele>1114.213</ele>
        <time>2020-02-29T09:25:16Z</time>
      </trkpt>
      <trkpt lat="40.357990" lon="-4.900950">
        <ele>1109.614</ele>
        <time>2020-02-29T09:25:36Z</time>
      </trkpt>
      <trkpt lat="40.358540" lon="-4.900690">
        <ele>1105.308</ele>
        <time>2020-02-29T09:25:56Z</time>
      </trkpt>
      <trkpt lat="40.358770" lon="-4.900510">
        <ele>1104.971</ele>
        <time>2020-02-29T09:26:16Z</time>
      </trkpt>
      <trkpt lat="40.359990" lon="-4.899340">
        <ele>1090.064</ele>
        <time>2020-02-29T09:26:36Z</time>
      </trkpt>
      <trkpt lat="40.360010" lon="-4.899330">
        <ele>1090.049</ele>
        <time>2020-02-29T09:26:56Z</time>
      </trkpt>
      <trkpt lat="40.360050" lon="-4.899290">
        <ele>1090.130</ele>
        <time>2020-02-29T09:27:16Z</time>
      </trkpt>
      <trkpt lat="40.360200" lon="-4.899200">
        <ele>1090.142</ele>
        <time>2020-02-29T09:27:36Z</time>
      </trkpt>
      <trkpt lat="40.360330" lon="-4.899160">
        <ele>1090.070</ele>
        <time>2020-02-29T09:27:56Z</time>
      </trkpt>
      <trkpt lat="40.360550" lon="-4.899130">
        <ele>1089.963</ele>
        <time>2020-02-29T09:28:16Z</time>
      </trkpt>
      <trkpt lat="40.360580" lon="-4.899120">
        <ele>1089.848</ele>
        <time>2020-02-29T09:28:36Z</time>
      </trkpt>
      <trkpt lat="40.360650" lon="-4.899080">
        <ele>1089.531</ele>
        <time>2020-02-29T09:28:56Z</time>
      </trkpt>
      <trkpt lat="40.361000" lon="-4.899200">
        <ele>1089.961</ele>
        <time>2020-02-29T09:29:16Z</time>
      </trkpt>
      <trkpt lat="40.361010" lon="-4.899210">
        <ele>1090.107</ele>
        <time>2020-02-29T09:29:36Z</time>
      </trkpt>
      <trkpt lat="40.361170" lon="-4.899290">
        <ele>1090.608</ele>
        <time>2020-02-29T09:29:56Z</time>
      </trkpt>
      <trkpt lat="40.361450" lon="-4.899480">
        <ele>1088.597</ele>
        <time>2020-02-29T09:30:16Z</time>
      </trkpt>
      <trkpt lat="40.361630" lon="-4.899650">
        <ele>1087.120</ele>
        <time>2020-02-29T09:30:36Z</time>
      </trkpt>
      <trkpt lat="40.361640" lon="-4.899670">
        <ele>1087.145</ele>
        <time>2020-02-29T09:30:56Z</time>
      </trkpt>
      <trkpt lat="40.361760" lon="-4.899810">
        <ele>1087.726</ele>
        <time>2020-02-29T09:31:16Z</time>
      </trkpt>
      <trkpt lat="40.361890" lon="-4.899940">
        <ele>1089.258</ele>
        <time>2020-02-29T09:31:36Z</time>
      </trkpt>
      <trkpt lat="40.361910" lon="-4.899950">
        <ele>1089.456</ele>
        <time>2020-02-29T09:31:56Z</time>
      </trkpt>
      <trkpt lat="40.362060" lon="-4.900070">
        <ele>1090.639</ele>
        <time>2020-02-29T09:32:16Z</time>
      </trkpt>
      <trkpt lat="40.362070" lon="-4.900070">
        <ele>1090.674</ele>
        <time>2020-02-29T09:32:36Z</time>
      </trkpt>
      <trkpt lat="40.362340" lon="-4.900210">
        <ele>1092.255</ele>
        <time>2020-02-29T09:32:56Z</time>
      </trkpt>
      <trkpt lat="40.362700" lon="-4.900360">
        <ele>1095.807</ele>
        <time>2020-02-29T09:33:16Z</time>
      </trkpt>
      <trkpt lat="40.362870" lon="-4.900450">
        <ele>1098.117</ele>
        <time>2020-02-29T09:33:36Z</time>
      </trkpt>
      <trkpt lat="40.362910" lon="-4.900460">
        <ele>1098.308</ele>
        <time>2020-02-29T09:33:56Z</time>
      </trkpt>
      <trkpt lat="40.363120" lon="-4.900550">
        <ele>1100.479</ele>
        <time>2020-02-29T09:34:16Z</time>
      </trkpt>
      <trkpt lat="40.363260" lon="-4.900630">
        <ele>1103.282</ele>
        <time>2020-02-29T09:34:36Z</time>
      </trkpt>
      <trkpt lat="40.363390" lon="-4.900730">
        <ele>1105.647</ele>
        <time>2020-02-29T09:34:56Z</time>
      </trkpt>
      <trkpt lat="40.363500" lon="-4.900840">
        <ele>1107.598</ele>
        <time>2020-02-29T09:35:16Z</time>
      </trkpt>
      <trkpt lat="40.363540" lon="-4.900920">
        <ele>1108.240</ele>
        <time>2020-02-29T09:35:36Z</time>
      </trkpt>
      <trkpt lat="40.363580" lon="-4.901100">
        <ele>1110.028</ele>
        <time>2020-02-29T09:35:56Z</time>
      </trkpt>
      <trkpt lat="40.363580" lon="-4.901180">
        <ele>1110.411</ele>
        <time>2020-02-29T09:36:16Z</time>
      </trkpt>
      <trkpt lat="40.363590" lon="-4.901270">
        <ele>1110.716</ele>
        <time>2020-02-29T09:36:36Z</time>
      </trkpt>
      <trkpt lat="40.363570" lon="-4.901500">
        <ele>1111.124</ele>
        <time>2020-02-29T09:36:56Z</time>
      </trkpt>
      <trkpt lat="40.363550" lon="-4.901580">
        <ele>1111.204</ele>
        <time>2020-02-29T09:37:16Z</time>
      </trkpt>
      <trkpt lat="40.363540" lon="-4.901600">
        <ele>1111.314</ele>
        <time>2020-02-29T09:37:36Z</time>
      </trkpt>
      <trkpt lat="40.363530" lon="-4.901670">
        <ele>1111.508</ele>
        <time>2020-02-29T09:37:56Z</time>
      </trkpt>
      <trkpt lat="40.363430" lon="-4.901830">
        <ele>1114.236</ele>
        <time>2020-02-29T09:38:16Z</time>
      </trkpt>
      <trkpt lat="40.363350" lon="-4.901930">
        <ele>1116.559</ele>
        <time>2020-02-29T09:38:36Z</time>
      </trkpt>
      <trkpt lat="40.363230" lon="-4.902130">
        <ele>1118.314</ele>
        <time>2020-02-29T09:38:56Z</time>
      </trkpt>
      <trkpt lat="40.363140" lon="-4.902370">
        <ele>1120.895</ele>
        <time>2020-02-29T09:39:16Z</time>
      </trkpt>
      <trkpt lat="40.363140" lon="-4.902510">
        <ele>1122.637</ele>
        <time>2020-02-29T09:39:36Z</time>
      </trkpt>
      <trkpt lat="40.363150" lon="-4.902580">
        <ele>1123.965</ele>
        <time>2020-02-29T09:39:56Z</time>
      </trkpt>
      <trkpt lat="40.363190" lon="-4.902710">
        <ele>1125.828</ele>
        <time>2020-02-29T09:40:16Z</time>
      </trkpt>
      <trkpt lat="40.363210" lon="-4.902730">
        <ele>1125.993</ele>
        <time>2020-02-29T09:40:36Z</time>
      </trkpt>
      <trkpt lat="40.363260" lon="-4.902800">
        <ele>1126.424</ele>
        <time>2020-02-29T09:40:56Z</time>
      </trkpt>
      <trkpt lat="40.363320" lon="-4.902860">
        <ele>1126.704</ele>
        <time>2020-02-29T09:41:16Z</time>
      </trkpt>
      <trkpt lat="40.363330" lon="-4.902860">
        <ele>1126.514</ele>
        <time>2020-02-29T09:41:36Z</time>
      </trkpt>
      <trkpt lat="40.363380" lon="-4.902890">
        <ele>1127.108</ele>
        <time>2020-02-29T09:41:56Z</time>
      </trkpt>
      <trkpt lat="40.363610" lon="-4.902950">
        <ele>1128.756</ele>
        <time>2020-02-29T09:42:16Z</time>
      </trkpt>
      <trkpt lat="40.363760" lon="-4.903010">
        <ele>1130.189</ele>
        <time>2020-02-29T09:42:36Z</time>
      </trkpt>
      <trkpt lat="40.363920" lon="-4.903100">
        <ele>1131.764</ele>
        <time>2020-02-29T09:42:56Z</time>
      </trkpt>
      <trkpt lat="40.364090" lon="-4.903220">
        <ele>1133.855</ele>
        <time>2020-02-29T09:43:16Z</time>
      </trkpt>
      <trkpt lat="40.364450" lon="-4.903530">
        <ele>1138.427</ele>
        <time>2020-02-29T09:43:36Z</time>
      </trkpt>
      <trkpt lat="40.364520" lon="-4.903600">
        <ele>1137.995</ele>
        <time>2020-02-29T09:43:56Z</time>
      </trkpt>
      <trkpt lat="40.364570" lon="-4.903690">
        <ele>1137.388</ele>
        <time>2020-02-29T09:44:16Z</time>
      </trkpt>
      <trkpt lat="40.364590" lon="-4.903710">
        <ele>1136.983</ele>
        <time>2020-02-29T09:44:36Z</time>
      </trkpt>
      <trkpt lat="40.364650" lon="-4.903880">
        <ele>1136.024</ele>
        <time>2020-02-29T09:44:56Z</time>
      </trkpt>
      <trkpt lat="40.364780" lon="-4.904690">
        <ele>1134.704</ele>
        <time>2020-02-29T09:45:16Z</time>
      </trkpt>
      <trkpt lat="40.364860" lon="-4.904880">
        <ele>1134.714</ele>
        <time>2020-02-29T09:45:36Z</time>
      </trkpt>
      <trkpt lat="40.364920" lon="-4.904960">
        <ele>1134.308</ele>
        <time>2020-02-29T09:45:56Z</time>
      </trkpt>
      <trkpt lat="40.365010" lon="-4.905030">
        <ele>1133.296</ele>
        <time>2020-02-29T09:46:16Z</time>
      </trkpt>
      <trkpt lat="40.365120" lon="-4.905090">
        <ele>1133.079</ele>
        <time>2020-02-29T09:46:36Z</time>
      </trkpt>
      <trkpt lat="40.365230" lon="-4.905100">
        <ele>1132.134</ele>
        <time>2020-02-29T09:46:56Z</time>
      </trkpt>
      <trkpt lat="40.365370" lon="-4.905080">
        <ele>1132.835</ele>
        <time>2020-02-29T09:47:16Z</time>
      </trkpt>
      <trkpt lat="40.365480" lon="-4.905030">
        <ele>1134.057</ele>
        <time>2020-02-29T09:47:36Z</time>
      </trkpt>
      <trkpt lat="40.365520" lon="-4.905020">
        <ele>1134.675</ele>
        <time>2020-02-29T09:47:56Z</time>
      </trkpt>
      <trkpt lat="40.365690" lon="-4.904900">
        <ele>1136.668</ele>
        <time>2020-02-29T09:48:16Z</time>
      </trkpt>
      <trkpt lat="40.365980" lon="-4.904650">
        <ele>1140.023</ele>
        <time>2020-02-29T09:48:36Z</time>
      </trkpt>
      <trkpt lat="40.366020" lon="-4.904630">
        <ele>1140.487</ele>
        <time>2020-02-29T09:48:56Z</time>
      </trkpt>
      <trkpt lat="40.366070" lon="-4.904620">
        <ele>1140.842</ele>
        <time>2020-02-29T09:49:16Z</time>
      </trkpt>
      <trkpt lat="40.366120" lon="-4.904630">
        <ele>1141.526</ele>
        <time>2020-02-29T09:49:36Z</time>
      </trkpt>
      <trkpt lat="40.366170" lon="-4.904660">
        <ele>1142.708</ele>
        <time>2020-02-29T09:49:56Z</time>
      </trkpt>
      <trkpt lat="40.366210" lon="-4.904700">
        <ele>1143.622</ele>
        <time>2020-02-29T09:50:16Z</time>
      </trkpt>
      <trkpt lat="40.366230" lon="-4.904740">
        <ele>1144.355</ele>
        <time>2020-02-29T09:50:36Z</time>
      </trkpt>
      <trkpt lat="40.366280" lon="-4.904890">
        <ele>1146.780</ele>
        <time>2020-02-29T09:50:56Z</time>
      </trkpt>
      <trkpt lat="40.366280" lon="-4.905140">
        <ele>1150.141</ele>
        <time>2020-02-29T09:51:16Z</time>
      </trkpt>
      <trkpt lat="40.366330" lon="-4.905470">
        <ele>1152.963</ele>
        <time>2020-02-29T09:51:36Z</time>
      </trkpt>
      <trkpt lat="40.366380" lon="-4.905650">
        <ele>1152.131</ele>
        <time>2020-02-29T09:51:56Z</time>
      </trkpt>
      <trkpt lat="40.366450" lon="-4.905770">
        <ele>1151.614</ele>
        <time>2020-02-29T09:52:16Z</time>
      </trkpt>
      <trkpt lat="40.366570" lon="-4.905940">
        <ele>1152.549</ele>
        <time>2020-02-29T09:52:36Z</time>
      </trkpt>
      <trkpt lat="40.366720" lon="-4.906220">
        <ele>1154.289</ele>
        <time>2020-02-29T09:52:56Z</time>
      </trkpt>
      <trkpt lat="40.366790" lon="-4.906400">
        <ele>1155.906</ele>
        <time>2020-02-29T09:53:16Z</time>
      </trkpt>
      <trkpt lat="40.366800" lon="-4.906470">
        <ele>1156.626</ele>
        <time>2020-02-29T09:53:36Z</time>
      </trkpt>
      <trkpt lat="40.366840" lon="-4.906580">
        <ele>1158.408</ele>
        <time>2020-02-29T09:53:56Z</time>
      </trkpt>
      <trkpt lat="40.366870" lon="-4.906850">
        <ele>1161.482</ele>
        <time>2020-02-29T09:54:16Z</time>
      </trkpt>
      <trkpt lat="40.366860" lon="-4.907260">
        <ele>1162.435</ele>
        <time>2020-02-29T09:54:36Z</time>
      </trkpt>
      <trkpt lat="40.366900" lon="-4.907570">
        <ele>1163.060</ele>
        <time>2020-02-29T09:54:56Z</time>
      </trkpt>
      <trkpt lat="40.366960" lon="-4.907710">
        <ele>1164.431</ele>
        <time>2020-02-29T09:55:16Z</time>
      </trkpt>
      <trkpt lat="40.366990" lon="-4.907750">
        <ele>1165.193</ele>
        <time>2020-02-29T09:55:36Z</time>
      </trkpt>
      <trkpt lat="40.367070" lon="-4.907810">
        <ele>1167.091</ele>
        <time>2020-02-29T09:55:56Z</time>
      </trkpt>
      <trkpt lat="40.367120" lon="-4.907810">
        <ele>1168.374</ele>
        <time>2020-02-29T09:56:16Z</time>
      </trkpt>
      <trkpt lat="40.367160" lon="-4.907790">
        <ele>1169.459</ele>
        <time>2020-02-29T09:56:36Z</time>
      </trkpt>
      <trkpt lat="40.367210" lon="-4.907720">
        <ele>1170.527</ele>
        <time>2020-02-29T09:56:56Z</time>
      </trkpt>
      <trkpt lat="40.367230" lon="-4.907670">
        <ele>1170.868</ele>
        <time>2020-02-29T09:57:16Z</time>
      </trkpt>
      <trkpt lat="40.367290" lon="-4.907390">
        <ele>1171.014</ele>
        <time>2020-02-29T09:57:36Z</time>
      </trkpt>
      <trkpt lat="40.367360" lon="-4.907230">
        <ele>1171.508</ele>
        <time>2020-02-29T09:57:56Z</time>
      </trkpt>
      <trkpt lat="40.367500" lon="-4.906960">
        <ele>1172.126</ele>
        <time>2020-02-29T09:58:16Z</time>
      </trkpt>
      <trkpt lat="40.367580" lon="-4.906850">
        <ele>1174.099</ele>
        <time>2020-02-29T09:58:36Z</time>
      </trkpt>
      <trkpt lat="40.367680" lon="-4.906740">
        <ele>1176.844</ele>
        <time>2020-02-29T09:58:56Z</time>
      </trkpt>
      <trkpt lat="40.367780" lon="-4.906660">
        <ele>1180.075</ele>
        <time>2020-02-29T09:59:16Z</time>
      </trkpt>
      <trkpt lat="40.367890" lon="-4.906610">
        <ele>1180.577</ele>
        <time>2020-02-29T09:59:36Z</time>
      </trkpt>
      <trkpt lat="40.368000" lon="-4.906610">
        <ele>1181.295</ele>
        <time>2020-02-29T09:59:56Z</time>
      </trkpt>
      <trkpt lat="40.368100" lon="-4.906620">
        <ele>1182.898</ele>
        <time>2020-02-29T10:00:16Z</time>
      </trkpt>
      <trkpt lat="40.368180" lon="-4.906640">
        <ele>1184.983</ele>
        <time>2020-02-29T10:00:36Z</time>
      </trkpt>
      <trkpt lat="40.368200" lon="-4.906650">
        <ele>1185.579</ele>
        <time>2020-02-29T10:00:56Z</time>
      </trkpt>
      <trkpt lat="40.368290" lon="-4.906740">
        <ele>1188.205</ele>
        <time>2020-02-29T10:01:16Z</time>
      </trkpt>
      <trkpt lat="40.368380" lon="-4.906990">
        <ele>1190.025</ele>
        <time>2020-02-29T10:01:36Z</time>
      </trkpt>
      <trkpt lat="40.368360" lon="-4.907480">
        <ele>1191.908</ele>
        <time>2020-02-29T10:01:56Z</time>
      </trkpt>
      <trkpt lat="40.368370" lon="-4.907610">
        <ele>1192.141</ele>
        <time>2020-02-29T10:02:16Z</time>
      </trkpt>
      <trkpt lat="40.368400" lon="-4.907800">
        <ele>1192.644</ele>
        <time>2020-02-29T10:02:36Z</time>
      </trkpt>
      <trkpt lat="40.368490" lon="-4.908090">
        <ele>1194.739</ele>
        <time>2020-02-29T10:02:56Z</time>
      </trkpt>
      <trkpt lat="40.368630" lon="-4.908360">
        <ele>1196.270</ele>
        <time>2020-02-29T10:03:16Z</time>
      </trkpt>
      <trkpt lat="40.368750" lon="-4.908510">
        <ele>1197.582</ele>
        <time>2020-02-29T10:03:36Z</time>
      </trkpt>
      <trkpt lat="40.368760" lon="-4.908530">
        <ele>1197.660</ele>
        <time>2020-02-29T10:03:56Z</time>
      </trkpt>
      <trkpt lat="40.369380" lon="-4.909350">
        <ele>1201.043</ele>
        <time>2020-02-29T10:04:16Z</time>
      </trkpt>
      <trkpt lat="40.369410" lon="-4.909400">
        <ele>1200.938</ele>
        <time>2020-02-29T10:04:36Z</time>
      </trkpt>
      <trkpt lat="40.369500" lon="-4.909510">
        <ele>1201.791</ele>
        <time>2020-02-29T10:04:56Z</time>
      </trkpt>
      <trkpt lat="40.369500" lon="-4.909520">
        <ele>1201.781</ele>
        <time>2020-02-29T10:05:16Z</time>
      </trkpt>
      <trkpt lat="40.369640" lon="-4.909660">
        <ele>1203.219</ele>
        <time>2020-02-29T10:05:36Z</time>
      </trkpt>
      <trkpt lat="40.370070" lon="-4.909980">
        <ele>1205.408</ele>
        <time>2020-02-29T10:05:56Z</time>
      </trkpt>
      <trkpt lat="40.370200" lon="-4.910120">
        <ele>1204.743</ele>
        <time>2020-02-29T10:06:16Z</time>
      </trkpt>
      <trkpt lat="40.370540" lon="-4.910440">
        <ele>1205.526</ele>
        <time>2020-02-29T10:06:36Z</time>
      </trkpt>
      <trkpt lat="40.370700" lon="-4.910560">
        <ele>1207.181</ele>
        <time>2020-02-29T10:06:56Z</time>
      </trkpt>
      <trkpt lat="40.370700" lon="-4.910570">
        <ele>1207.112</ele>
        <time>2020-02-29T10:07:16Z</time>
      </trkpt>
      <trkpt lat="40.370950" lon="-4.910730">
        <ele>1210.164</ele>
        <time>2020-02-29T10:07:36Z</time>
      </trkpt>
      <trkpt lat="40.371160" lon="-4.910830">
        <ele>1212.322</ele>
        <time>2020-02-29T10:07:56Z</time>
      </trkpt>
      <trkpt lat="40.371270" lon="-4.910870">
        <ele>1213.485</ele>
        <time>2020-02-29T10:08:16Z</time>
      </trkpt>
      <trkpt lat="40.371390" lon="-4.910880">
        <ele>1214.380</ele>
        <time>2020-02-29T10:08:36Z</time>
      </trkpt>
      <trkpt lat="40.371550" lon="-4.910850">
        <ele>1215.992</ele>
        <time>2020-02-29T10:08:56Z</time>
      </trkpt>
      <trkpt lat="40.371910" lon="-4.910820">
        <ele>1219.573</ele>
        <time>2020-02-29T10:09:16Z</time>
      </trkpt>
      <trkpt lat="40.372060" lon="-4.910820">
        <ele>1220.320</ele>
        <time>2020-02-29T10:09:36Z</time>
      </trkpt>
      <trkpt lat="40.372130" lon="-4.910840">
        <ele>1220.708</ele>
        <time>2020-02-29T10:09:56Z</time>
      </trkpt>
      <trkpt lat="40.372220" lon="-4.910890">
        <ele>1221.243</ele>
        <time>2020-02-29T10:10:16Z</time>
      </trkpt>
      <trkpt lat="40.372340" lon="-4.910980">
        <ele>1221.586</ele>
        <time>2020-02-29T10:10:36Z</time>
      </trkpt>
      <trkpt lat="40.372410" lon="-4.911060">
        <ele>1221.891</ele>
        <time>2020-02-29T10:10:56Z</time>
      </trkpt>
      <trkpt lat="40.372420" lon="-4.911060">
        <ele>1221.862</ele>
        <time>2020-02-29T10:11:16Z</time>
      </trkpt>
      <trkpt lat="40.372560" lon="-4.911220">
        <ele>1222.564</ele>
        <time>2020-02-29T10:11:36Z</time>
      </trkpt>
      <trkpt lat="40.372880" lon="-4.911530">
        <ele>1224.132</ele>
        <time>2020-02-29T10:11:56Z</time>
      </trkpt>
      <trkpt lat="40.373160" lon="-4.911710">
        <ele>1223.895</ele>
        <time>2020-02-29T10:12:16Z</time>
      </trkpt>
      <trkpt lat="40.373500" lon="-4.911870">
        <ele>1224.210</ele>
        <time>2020-02-29T10:12:36Z</time>
      </trkpt>
      <trkpt lat="40.374280" lon="-4.912140">
        <ele>1227.449</ele>
        <time>2020-02-29T10:12:56Z</time>
      </trkpt>
      <trkpt lat="40.374300" lon="-4.912140">
        <ele>1227.302</ele>
        <time>2020-02-29T10:13:16Z</time>
      </trkpt>
      <trkpt lat="40.374460" lon="-4.912210">
        <ele>1227.822</ele>
        <time>2020-02-29T10:13:36Z</time>
      </trkpt>
      <trkpt lat="40.374950" lon="-4.912530">
        <ele>1229.208</ele>
        <time>2020-02-29T10:13:56Z</time>
      </trkpt>
      <trkpt lat="40.375120" lon="-4.912680">
        <ele>1227.188</ele>
        <time>2020-02-29T10:14:16Z</time>
      </trkpt>
      <trkpt lat="40.375510" lon="-4.913130">
        <ele>1228.211</ele>
        <time>2020-02-29T10:14:36Z</time>
      </trkpt>
      <trkpt lat="40.375620" lon="-4.913280">
        <ele>1230.046</ele>
        <time>2020-02-29T10:14:56Z</time>
      </trkpt>
      <trkpt lat="40.375640" lon="-4.913290">
        <ele>1229.837</ele>
        <time>2020-02-29T10:15:16Z</time>
      </trkpt>
      <trkpt lat="40.375740" lon="-4.913420">
        <ele>1230.339</ele>
        <time>2020-02-29T10:15:36Z</time>
      </trkpt>
      <trkpt lat="40.375760" lon="-4.913460">
        <ele>1230.737</ele>
        <time>2020-02-29T10:15:56Z</time>
      </trkpt>
      <trkpt lat="40.375830" lon="-4.913550">
        <ele>1230.860</ele>
        <time>2020-02-29T10:16:16Z</time>
      </trkpt>
      <trkpt lat="40.375930" lon="-4.913720">
        <ele>1230.855</ele>
        <time>2020-02-29T10:16:36Z</time>
      </trkpt>
      <trkpt lat="40.376050" lon="-4.913990">
        <ele>1230.989</ele>
        <time>2020-02-29T10:16:56Z</time>
      </trkpt>
      <trkpt lat="40.376720" lon="-4.915820">
        <ele>1236.306</ele>
        <time>2020-02-29T10:17:16Z</time>
      </trkpt>
      <trkpt lat="40.376880" lon="-4.916320">
        <ele>1236.526</ele>
        <time>2020-02-29T10:17:36Z</time>
      </trkpt>
      <trkpt lat="40.377100" lon="-4.917390">
        <ele>1242.308</ele>
        <time>2020-02-29T10:17:56Z</time>
      </trkpt>
      <trkpt lat="40.377120" lon="-4.917450">
        <ele>1242.022</ele>
        <time>2020-02-29T10:18:16Z</time>
      </trkpt>
      <trkpt lat="40.377130" lon="-4.917510">
        <ele>1242.245</ele>
        <time>2020-02-29T10:18:36Z</time>
      </trkpt>
      <trkpt lat="40.377190" lon="-4.917700">
        <ele>1244.110</ele>
        <time>2020-02-29T10:18:56Z</time>
      </trkpt>
      <trkpt lat="40.377300" lon="-4.917900">
        <ele>1245.781</ele>
        <time>2020-02-29T10:19:16Z</time>
      </trkpt>
      <trkpt lat="40.377370" lon="-4.917990">
        <ele>1245.723</ele>
        <time>2020-02-29T10:19:36Z</time>
      </trkpt>
      <trkpt lat="40.377590" lon="-4.918320">
        <ele>1247.741</ele>
        <time>2020-02-29T10:19:56Z</time>
      </trkpt>
      <trkpt lat="40.377650" lon="-4.918380">
        <ele>1248.324</ele>
        <time>2020-02-29T10:20:16Z</time>
      </trkpt>
      <trkpt lat="40.377690" lon="-4.918410">
        <ele>1248.469</ele>
        <time>2020-02-29T10:20:36Z</time>
      </trkpt>
      <trkpt lat="40.377750" lon="-4.918440">
        <ele>1248.389</ele>
        <time>2020-02-29T10:20:56Z</time>
      </trkpt>
      <trkpt lat="40.377990" lon="-4.918500">
        <ele>1249.306</ele>
        <time>2020-02-29T10:21:16Z</time>
      </trkpt>
      <trkpt lat="40.378060" lon="-4.918530">
        <ele>1249.826</ele>
        <time>2020-02-29T10:21:36Z</time>
      </trkpt>
      <trkpt lat="40.378120" lon="-4.918570">
        <ele>1249.308</ele>
        <time>2020-02-29T10:21:56Z</time>
      </trkpt>
      <trkpt lat="40.378220" lon="-4.918720">
        <ele>1249.492</ele>
        <time>2020-02-29T10:22:16Z</time>
      </trkpt>
      <trkpt lat="40.378260" lon="-4.918810">
        <ele>1249.785</ele>
        <time>2020-02-29T10:22:36Z</time>
      </trkpt>
      <trkpt lat="40.378280" lon="-4.918890">
        <ele>1250.230</ele>
        <time>2020-02-29T10:22:56Z</time>
      </trkpt>
      <trkpt lat="40.378320" lon="-4.918990">
        <ele>1250.781</ele>
        <time>2020-02-29T10:23:16Z</time>
      </trkpt>
      <trkpt lat="40.378360" lon="-4.919140">
        <ele>1252.083</ele>
        <time>2020-02-29T10:23:36Z</time>
      </trkpt>
      <trkpt lat="40.378410" lon="-4.919410">
        <ele>1254.611</ele>
        <time>2020-02-29T10:23:56Z</time>
      </trkpt>
      <trkpt lat="40.378580" lon="-4.921120">
        <ele>1266.634</ele>
        <time>2020-02-29T10:24:16Z</time>
      </trkpt>
      <trkpt lat="40.378630" lon="-4.921380">
        <ele>1267.439</ele>
        <time>2020-02-29T10:24:36Z</time>
      </trkpt>
      <trkpt lat="40.378750" lon="-4.921690">
        <ele>1266.746</ele>
        <time>2020-02-29T10:24:56Z</time>
      </trkpt>
      <trkpt lat="40.379080" lon="-4.922300">
        <ele>1267.588</ele>
        <time>2020-02-29T10:25:16Z</time>
      </trkpt>
      <trkpt lat="40.379280" lon="-4.922760">
        <ele>1266.916</ele>
        <time>2020-02-29T10:25:36Z</time>
      </trkpt>
      <trkpt lat="40.379350" lon="-4.922970">
        <ele>1266.608</ele>
        <time>2020-02-29T10:25:56Z</time>
      </trkpt>
      <trkpt lat="40.379360" lon="-4.922970">
        <ele>1266.498</ele>
        <time>2020-02-29T10:26:16Z</time>
      </trkpt>
      <trkpt lat="40.379430" lon="-4.923190">
        <ele>1265.861</ele>
        <time>2020-02-29T10:26:36Z</time>
      </trkpt>
      <trkpt lat="40.379500" lon="-4.923480">
        <ele>1264.196</ele>
        <time>2020-02-29T10:26:56Z</time>
      </trkpt>
      <trkpt lat="40.379520" lon="-4.923800">
        <ele>1261.927</ele>
        <time>2020-02-29T10:27:16Z</time>
      </trkpt>
      <trkpt lat="40.379510" lon="-4.923880">
        <ele>1261.689</ele>
        <time>2020-02-29T10:27:36Z</time>
      </trkpt>
      <trkpt lat="40.379460" lon="-4.925330">
        <ele>1255.297</ele>
        <time>2020-02-29T10:27:56Z</time>
      </trkpt>
      <trkpt lat="40.379390" lon="-4.926000">
        <ele>1253.520</ele>
        <time>2020-02-29T10:28:16Z</time>
      </trkpt>
      <trkpt lat="40.379380" lon="-4.926040">
        <ele>1253.565</ele>
        <time>2020-02-29T10:28:36Z</time>
      </trkpt>
      <trkpt lat="40.379360" lon="-4.926270">
        <ele>1252.865</ele>
        <time>2020-02-29T10:28:56Z</time>
      </trkpt>
      <trkpt lat="40.379320" lon="-4.926460">
        <ele>1252.468</ele>
        <time>2020-02-29T10:29:16Z</time>
      </trkpt>
      <trkpt lat="40.379250" lon="-4.926670">
        <ele>1252.114</ele>
        <time>2020-02-29T10:29:36Z</time>
      </trkpt>
      <trkpt lat="40.379240" lon="-4.926680">
        <ele>1252.108</ele>
        <time>2020-02-29T10:29:56Z</time>
      </trkpt>
      <trkpt lat="40.379200" lon="-4.926760">
        <ele>1251.790</ele>
        <time>2020-02-29T10:30:16Z</time>
      </trkpt>
      <trkpt lat="40.379130" lon="-4.926870">
        <ele>1251.333</ele>
        <time>2020-02-29T10:30:36Z</time>
      </trkpt>
      <trkpt lat="40.379060" lon="-4.926950">
        <ele>1251.528</ele>
        <time>2020-02-29T10:30:56Z</time>
      </trkpt>
      <trkpt lat="40.378760" lon="-4.927430">
        <ele>1251.899</ele>
        <time>2020-02-29T10:31:16Z</time>
      </trkpt>
      <trkpt lat="40.378700" lon="-4.927610">
        <ele>1252.061</ele>
        <time>2020-02-29T10:31:36Z</time>
      </trkpt>
      <trkpt lat="40.378670" lon="-4.927800">
        <ele>1251.849</ele>
        <time>2020-02-29T10:31:56Z</time>
      </trkpt>
      <trkpt lat="40.378660" lon="-4.928040">
        <ele>1251.012</ele>
        <time>2020-02-29T10:32:16Z</time>
      </trkpt>
      <trkpt lat="40.378650" lon="-4.928070">
        <ele>1251.267</ele>
        <time>2020-02-29T10:32:36Z</time>
      </trkpt>
      <trkpt lat="40.378640" lon="-4.928310">
        <ele>1251.368</ele>
        <time>2020-02-29T10:32:56Z</time>
      </trkpt>
      <trkpt lat="40.378630" lon="-4.928330">
        <ele>1251.542</ele>
        <time>2020-02-29T10:33:16Z</time>
      </trkpt>
      <trkpt lat="40.378610" lon="-4.928790">
        <ele>1250.426</ele>
        <time>2020-02-29T10:33:36Z</time>
      </trkpt>
      <trkpt lat="40.378590" lon="-4.928970">
        <ele>1249.408</ele>
        <time>2020-02-29T10:33:56Z</time>
      </trkpt>
      <trkpt lat="40.378540" lon="-4.929170">
        <ele>1248.030</ele>
        <time>2020-02-29T10:34:16Z</time>
      </trkpt>
      <trkpt lat="40.378400" lon="-4.929600">
        <ele>1245.413</ele>
        <time>2020-02-29T10:34:36Z</time>
      </trkpt>
      <trkpt lat="40.378390" lon="-4.929620">
        <ele>1245.348</ele>
        <time>2020-02-29T10:34:56Z</time>
      </trkpt>
      <trkpt lat="40.378170" lon="-4.930370">
        <ele>1241.129</ele>
        <time>2020-02-29T10:35:16Z</time>
      </trkpt>
      <trkpt lat="40.378170" lon="-4.930390">
        <ele>1241.021</ele>
        <time>2020-02-29T10:35:36Z</time>
      </trkpt>
      <trkpt lat="40.378140" lon="-4.930570">
        <ele>1240.189</ele>
        <time>2020-02-29T10:35:56Z</time>
      </trkpt>
      <trkpt lat="40.378140" lon="-4.930640">
        <ele>1239.882</ele>
        <time>2020-02-29T10:36:16Z</time>
      </trkpt>
      <trkpt lat="40.378170" lon="-4.930880">
        <ele>1238.027</ele>
        <time>2020-02-29T10:36:36Z</time>
      </trkpt>
      <trkpt lat="40.378200" lon="-4.930940">
        <ele>1237.217</ele>
        <time>2020-02-29T10:36:56Z</time>
      </trkpt>
      <trkpt lat="40.378220" lon="-4.931000">
        <ele>1236.487</ele>
        <time>2020-02-29T10:37:16Z</time>
      </trkpt>
      <trkpt lat="40.378260" lon="-4.931050">
        <ele>1235.515</ele>
        <time>2020-02-29T10:37:36Z</time>
      </trkpt>
      <trkpt lat="40.378270" lon="-4.931050">
        <ele>1235.408</ele>
        <time>2020-02-29T10:37:56Z</time>
      </trkpt>
      <trkpt lat="40.378350" lon="-4.931120">
        <ele>1233.685</ele>
        <time>2020-02-29T10:38:16Z</time>
      </trkpt>
      <trkpt lat="40.378390" lon="-4.931140">
        <ele>1232.768</ele>
        <time>2020-02-29T10:38:36Z</time>
      </trkpt>
      <trkpt lat="40.378450" lon="-4.931160">
        <ele>1231.573</ele>
        <time>2020-02-29T10:38:56Z</time>
      </trkpt>
      <trkpt lat="40.378490" lon="-4.931160">
        <ele>1230.984</ele>
        <time>2020-02-29T10:39:16Z</time>
      </trkpt>
      <trkpt lat="40.378540" lon="-4.931170">
        <ele>1230.096</ele>
        <time>2020-02-29T10:39:36Z</time>
      </trkpt>
      <trkpt lat="40.378680" lon="-4.931130">
        <ele>1227.914</ele>
        <time>2020-02-29T10:39:56Z</time>
      </trkpt>
      <trkpt lat="40.378720" lon="-4.931110">
        <ele>1227.447</ele>
        <time>2020-02-29T10:40:16Z</time>
      </trkpt>
      <trkpt lat="40.378820" lon="-4.931030">
        <ele>1226.952</ele>
        <time>2020-02-29T10:40:36Z</time>
      </trkpt>
      <trkpt lat="40.378870" lon="-4.930980">
        <ele>1226.792</ele>
        <time>2020-02-29T10:40:56Z</time>
      </trkpt>
      <trkpt lat="40.378880" lon="-4.930960">
        <ele>1226.873</ele>
        <time>2020-02-29T10:41:16Z</time>
      </trkpt>
      <trkpt lat="40.378940" lon="-4.930880">
        <ele>1226.420</ele>
        <time>2020-02-29T10:41:36Z</time>
      </trkpt>
      <trkpt lat="40.379170" lon="-4.930410">
        <ele>1223.008</ele>
        <time>2020-02-29T10:41:56Z</time>
      </trkpt>
      <trkpt lat="40.379170" lon="-4.930400">
        <ele>1223.173</ele>
        <time>2020-02-29T10:42:16Z</time>
      </trkpt>
      <trkpt lat="40.379260" lon="-4.930190">
        <ele>1223.336</ele>
        <time>2020-02-29T10:42:36Z</time>
      </trkpt>
      <trkpt lat="40.379290" lon="-4.930140">
        <ele>1223.141</ele>
        <time>2020-02-29T10:42:56Z</time>
      </trkpt>
      <trkpt lat="40.379330" lon="-4.930030">
        <ele>1222.832</ele>
        <time>2020-02-29T10:43:16Z</time>
      </trkpt>
      <trkpt lat="40.379550" lon="-4.929540">
        <ele>1218.064</ele>
        <time>2020-02-29T10:43:36Z</time>
      </trkpt>
      <trkpt lat="40.379600" lon="-4.929450">
        <ele>1217.742</ele>
        <time>2020-02-29T10:43:56Z</time>
      </trkpt>
      <trkpt lat="40.379660" lon="-4.929370">
        <ele>1217.735</ele>
        <time>2020-02-29T10:44:16Z</time>
      </trkpt>
      <trkpt lat="40.379740" lon="-4.929290">
        <ele>1217.210</ele>
        <time>2020-02-29T10:44:36Z</time>
      </trkpt>
      <trkpt lat="40.379830" lon="-4.929180">
        <ele>1215.848</ele>
        <time>2020-02-29T10:44:56Z</time>
      </trkpt>
      <trkpt lat="40.379900" lon="-4.929070">
        <ele>1214.961</ele>
        <time>2020-02-29T10:45:16Z</time>
      </trkpt>
      <trkpt lat="40.380060" lon="-4.928870">
        <ele>1213.117</ele>
        <time>2020-02-29T10:45:36Z</time>
      </trkpt>
      <trkpt lat="40.380210" lon="-4.928720">
        <ele>1211.608</ele>
        <time>2020-02-29T10:45:56Z</time>
      </trkpt>
      <trkpt lat="40.380320" lon="-4.928660">
        <ele>1210.148</ele>
        <time>2020-02-29T10:46:16Z</time>
      </trkpt>
      <trkpt lat="40.380400" lon="-4.928630">
        <ele>1209.161</ele>
        <time>2020-02-29T10:46:36Z</time>
      </trkpt>
      <trkpt lat="40.380510" lon="-4.928610">
        <ele>1207.766</ele>
        <time>2020-02-29T10:46:56Z</time>
      </trkpt>
      <trkpt lat="40.380530" lon="-4.928610">
        <ele>1207.457</ele>
        <time>2020-02-29T10:47:16Z</time>
      </trkpt>
      <trkpt lat="40.380650" lon="-4.928590">
        <ele>1205.859</ele>
        <time>2020-02-29T10:47:36Z</time>
      </trkpt>
      <trkpt lat="40.380690" lon="-4.928590">
        <ele>1205.327</ele>
        <time>2020-02-29T10:47:56Z</time>
      </trkpt>
      <trkpt lat="40.380790" lon="-4.928570">
        <ele>1203.960</ele>
        <time>2020-02-29T10:48:16Z</time>
      </trkpt>
      <trkpt lat="40.381070" lon="-4.928540">
        <ele>1201.085</ele>
        <time>2020-02-29T10:48:36Z</time>
      </trkpt>
      <trkpt lat="40.381130" lon="-4.928510">
        <ele>1200.641</ele>
        <time>2020-02-29T10:48:56Z</time>
      </trkpt>
      <trkpt lat="40.381220" lon="-4.928480">
        <ele>1200.281</ele>
        <time>2020-02-29T10:49:16Z</time>
      </trkpt>
      <trkpt lat="40.381390" lon="-4.928380">
        <ele>1199.009</ele>
        <time>2020-02-29T10:49:36Z</time>
      </trkpt>
      <trkpt lat="40.381460" lon="-4.928320">
        <ele>1198.808</ele>
        <time>2020-02-29T10:49:56Z</time>
      </trkpt>
      <trkpt lat="40.381540" lon="-4.928190">
        <ele>1198.488</ele>
        <time>2020-02-29T10:50:16Z</time>
      </trkpt>
      <trkpt lat="40.381820" lon="-4.927650">
        <ele>1195.761</ele>
        <time>2020-02-29T10:50:36Z</time>
      </trkpt>
      <trkpt lat="40.381940" lon="-4.927470">
        <ele>1195.266</ele>
        <time>2020-02-29T10:50:56Z</time>
      </trkpt>
      <trkpt lat="40.381990" lon="-4.927410">
        <ele>1194.767</ele>
        <time>2020-02-29T10:51:16Z</time>
      </trkpt>
      <trkpt lat="40.382080" lon="-4.927330">
        <ele>1194.069</ele>
        <time>2020-02-29T10:51:36Z</time>
      </trkpt>
      <trkpt lat="40.382090" lon="-4.927330">
        <ele>1193.817</ele>
        <time>2020-02-29T10:51:56Z</time>
      </trkpt>
      <trkpt lat="40.382210" lon="-4.927230">
        <ele>1193.130</ele>
        <time>2020-02-29T10:52:16Z</time>
      </trkpt>
      <trkpt lat="40.382730" lon="-4.926900">
        <ele>1193.225</ele>
        <time>2020-02-29T10:52:36Z</time>
      </trkpt>
      <trkpt lat="40.383090" lon="-4.926630">
        <ele>1191.022</ele>
        <time>2020-02-29T10:52:56Z</time>
      </trkpt>
      <trkpt lat="40.383160" lon="-4.926560">
        <ele>1190.962</ele>
        <time>2020-02-29T10:53:16Z</time>
      </trkpt>
      <trkpt lat="40.383190" lon="-4.926540">
        <ele>1190.808</ele>
        <time>2020-02-29T10:53:36Z</time>
      </trkpt>
      <trkpt lat="40.383300" lon="-4.926440">
        <ele>1190.208</ele>
        <time>2020-02-29T10:53:56Z</time>
      </trkpt>
      <trkpt lat="40.383710" lon="-4.926000">
        <ele>1183.526</ele>
        <time>2020-02-29T10:54:16Z</time>
      </trkpt>
      <trkpt lat="40.384270" lon="-4.925290">
        <ele>1174.399</ele>
        <time>2020-02-29T10:54:36Z</time>
      </trkpt>
      <trkpt lat="40.384360" lon="-4.925200">
        <ele>1174.314</ele>
        <time>2020-02-29T10:54:56Z</time>
      </trkpt>
      <trkpt lat="40.384400" lon="-4.925170">
        <ele>1174.185</ele>
        <time>2020-02-29T10:55:16Z</time>
      </trkpt>
      <trkpt lat="40.384420" lon="-4.925170">
        <ele>1173.917</ele>
        <time>2020-02-29T10:55:36Z</time>
      </trkpt>
      <trkpt lat="40.384460" lon="-4.925140">
        <ele>1173.755</ele>
        <time>2020-02-29T10:55:56Z</time>
      </trkpt>
      <trkpt lat="40.384750" lon="-4.925030">
        <ele>1171.278</ele>
        <time>2020-02-29T10:56:16Z</time>
      </trkpt>
      <trkpt lat="40.384760" lon="-4.925020">
        <ele>1171.313</ele>
        <time>2020-02-29T10:56:36Z</time>
      </trkpt>
      <trkpt lat="40.384960" lon="-4.924940">
        <ele>1170.832</ele>
        <time>2020-02-29T10:56:56Z</time>
      </trkpt>
      <trkpt lat="40.385200" lon="-4.924820">
        <ele>1169.392</ele>
        <time>2020-02-29T10:57:16Z</time>
      </trkpt>
      <trkpt lat="40.385270" lon="-4.924800">
        <ele>1169.011</ele>
        <time>2020-02-29T10:57:36Z</time>
      </trkpt>
      <trkpt lat="40.385280" lon="-4.924800">
        <ele>1168.808</ele>
        <time>2020-02-29T10:57:56Z</time>
      </trkpt>
      <trkpt lat="40.385460" lon="-4.924750">
        <ele>1167.097</ele>
        <time>2020-02-29T10:58:16Z</time>
      </trkpt>
      <trkpt lat="40.385620" lon="-4.924670">
        <ele>1165.650</ele>
        <time>2020-02-29T10:58:36Z</time>
      </trkpt>
      <trkpt lat="40.385660" lon="-4.924660">
        <ele>1164.925</ele>
        <time>2020-02-29T10:58:56Z</time>
      </trkpt>
      <trkpt lat="40.386010" lon="-4.924490">
        <ele>1163.316</ele>
        <time>2020-02-29T10:59:16Z</time>
      </trkpt>
      <trkpt lat="40.386120" lon="-4.924420">
        <ele>1163.288</ele>
        <time>2020-02-29T10:59:36Z</time>
      </trkpt>
      <trkpt lat="40.386240" lon="-4.924300">
        <ele>1162.516</ele>
        <time>2020-02-29T10:59:56Z</time>
      </trkpt>
      <trkpt lat="40.386390" lon="-4.924110">
        <ele>1161.489</ele>
        <time>2020-02-29T11:00:16Z</time>
      </trkpt>
      <trkpt lat="40.386750" lon="-4.923710">
        <ele>1158.114</ele>
        <time>2020-02-29T11:00:36Z</time>
      </trkpt>
      <trkpt lat="40.386790" lon="-4.923620">
        <ele>1158.253</ele>
        <time>2020-02-29T11:00:56Z</time>
      </trkpt>
      <trkpt lat="40.386810" lon="-4.923540">
        <ele>1158.804</ele>
        <time>2020-02-29T11:01:16Z</time>
      </trkpt>
      <trkpt lat="40.386900" lon="-4.923370">
        <ele>1159.314</ele>
        <time>2020-02-29T11:01:36Z</time>
      </trkpt>
      <trkpt lat="40.386990" lon="-4.923290">
        <ele>1158.808</ele>
        <time>2020-02-29T11:01:56Z</time>
      </trkpt>
      <trkpt lat="40.387040" lon="-4.923260">
        <ele>1158.469</ele>
        <time>2020-02-29T11:02:16Z</time>
      </trkpt>
      <trkpt lat="40.387160" lon="-4.923240">
        <ele>1156.992</ele>
        <time>2020-02-29T11:02:36Z</time>
      </trkpt>
      <trkpt lat="40.387190" lon="-4.923250">
        <ele>1156.437</ele>
        <time>2020-02-29T11:02:56Z</time>
      </trkpt>
      <trkpt lat="40.387230" lon="-4.923250">
        <ele>1155.868</ele>
        <time>2020-02-29T11:03:16Z</time>
      </trkpt>
      <trkpt lat="40.387320" lon="-4.923280">
        <ele>1154.270</ele>
        <time>2020-02-29T11:03:36Z</time>
      </trkpt>
      <trkpt lat="40.387470" lon="-4.923380">
        <ele>1150.888</ele>
        <time>2020-02-29T11:03:56Z</time>
      </trkpt>
      <trkpt lat="40.387820" lon="-4.923690">
        <ele>1151.891</ele>
        <time>2020-02-29T11:04:16Z</time>
      </trkpt>
      <trkpt lat="40.387930" lon="-4.923750">
        <ele>1153.916</ele>
        <time>2020-02-29T11:04:36Z</time>
      </trkpt>
      <trkpt lat="40.387990" lon="-4.923760">
        <ele>1154.612</ele>
        <time>2020-02-29T11:04:56Z</time>
      </trkpt>
      <trkpt lat="40.388360" lon="-4.923760">
        <ele>1156.332</ele>
        <time>2020-02-29T11:05:16Z</time>
      </trkpt>
      <trkpt lat="40.388490" lon="-4.923780">
        <ele>1157.305</ele>
        <time>2020-02-29T11:05:36Z</time>
      </trkpt>
      <trkpt lat="40.388520" lon="-4.923790">
        <ele>1157.708</ele>
        <time>2020-02-29T11:05:56Z</time>
      </trkpt>
      <trkpt lat="40.388550" lon="-4.923790">
        <ele>1157.915</ele>
        <time>2020-02-29T11:06:16Z</time>
      </trkpt>
      <trkpt lat="40.388630" lon="-4.923840">
        <ele>1158.728</ele>
        <time>2020-02-29T11:06:36Z</time>
      </trkpt>
      <trkpt lat="40.388680" lon="-4.923900">
        <ele>1158.493</ele>
        <time>2020-02-29T11:06:56Z</time>
      </trkpt>
      <trkpt lat="40.388710" lon="-4.923950">
        <ele>1158.094</ele>
        <time>2020-02-29T11:07:16Z</time>
      </trkpt>
      <trkpt lat="40.388770" lon="-4.924100">
        <ele>1157.446</ele>
        <time>2020-02-29T11:07:36Z</time>
      </trkpt>
      <trkpt lat="40.388770" lon="-4.924120">
        <ele>1157.534</ele>
        <time>2020-02-29T11:07:56Z</time>
      </trkpt>
      <trkpt lat="40.388860" lon="-4.924470">
        <ele>1157.217</ele>
        <time>2020-02-29T11:08:16Z</time>
      </trkpt>
      <trkpt lat="40.388900" lon="-4.924790">
        <ele>1157.492</ele>
        <time>2020-02-29T11:08:36Z</time>
      </trkpt>
      <trkpt lat="40.388960" lon="-4.925640">
        <ele>1161.043</ele>
        <time>2020-02-29T11:08:56Z</time>
      </trkpt>
      <trkpt lat="40.388980" lon="-4.926460">
        <ele>1165.764</ele>
        <time>2020-02-29T11:09:16Z</time>
      </trkpt>
      <trkpt lat="40.389020" lon="-4.926700">
        <ele>1165.010</ele>
        <time>2020-02-29T11:09:36Z</time>
      </trkpt>
      <trkpt lat="40.389050" lon="-4.926800">
        <ele>1165.208</ele>
        <time>2020-02-29T11:09:56Z</time>
      </trkpt>
      <trkpt lat="40.389150" lon="-4.926960">
        <ele>1164.558</ele>
        <time>2020-02-29T11:10:16Z</time>
      </trkpt>
      <trkpt lat="40.389320" lon="-4.927100">
        <ele>1166.441</ele>
        <time>2020-02-29T11:10:36Z</time>
      </trkpt>
      <trkpt lat="40.389630" lon="-4.927230">
        <ele>1170.146</ele>
        <time>2020-02-29T11:10:56Z</time>
      </trkpt>
      <trkpt lat="40.389830" lon="-4.927260">
        <ele>1170.537</ele>
        <time>2020-02-29T11:11:16Z</time>
      </trkpt>
      <trkpt lat="40.389910" lon="-4.927260">
        <ele>1170.679</ele>
        <time>2020-02-29T11:11:36Z</time>
      </trkpt>
      <trkpt lat="40.389970" lon="-4.927240">
        <ele>1170.397</ele>
        <time>2020-02-29T11:11:56Z</time>
      </trkpt>
      <trkpt lat="40.389980" lon="-4.927240">
        <ele>1170.320</ele>
        <time>2020-02-29T11:12:16Z</time>
      </trkpt>
      <trkpt lat="40.390010" lon="-4.927220">
        <ele>1169.915</ele>
        <time>2020-02-29T11:12:36Z</time>
      </trkpt>
      <trkpt lat="40.390050" lon="-4.927180">
        <ele>1168.528</ele>
        <time>2020-02-29T11:12:56Z</time>
      </trkpt>
      <trkpt lat="40.390110" lon="-4.927100">
        <ele>1166.889</ele>
        <time>2020-02-29T11:13:16Z</time>
      </trkpt>
      <trkpt lat="40.390170" lon="-4.926980">
        <ele>1165.517</ele>
        <time>2020-02-29T11:13:36Z</time>
      </trkpt>
      <trkpt lat="40.390220" lon="-4.926910">
        <ele>1166.608</ele>
        <time>2020-02-29T11:13:56Z</time>
      </trkpt>
      <trkpt lat="40.390280" lon="-4.926800">
        <ele>1169.146</ele>
        <time>2020-02-29T11:14:16Z</time>
      </trkpt>
      <trkpt lat="40.390430" lon="-4.926570">
        <ele>1172.259</ele>
        <time>2020-02-29T11:14:36Z</time>
      </trkpt>
      <trkpt lat="40.390470" lon="-4.926550">
        <ele>1172.854</ele>
        <time>2020-02-29T11:14:56Z</time>
      </trkpt>
      <trkpt lat="40.390510" lon="-4.926550">
        <ele>1173.315</ele>
        <time>2020-02-29T11:15:16Z</time>
      </trkpt>
      <trkpt lat="40.390580" lon="-4.926580">
        <ele>1174.237</ele>
        <time>2020-02-29T11:15:36Z</time>
      </trkpt>
      <trkpt lat="40.390780" lon="-4.926730">
        <ele>1177.615</ele>
        <time>2020-02-29T11:15:56Z</time>
      </trkpt>
      <trkpt lat="40.390950" lon="-4.926830">
        <ele>1179.298</ele>
        <time>2020-02-29T11:16:16Z</time>
      </trkpt>
      <trkpt lat="40.391110" lon="-4.926900">
        <ele>1181.573</ele>
        <time>2020-02-29T11:16:36Z</time>
      </trkpt>
      <trkpt lat="40.391170" lon="-4.926910">
        <ele>1182.253</ele>
        <time>2020-02-29T11:16:56Z</time>
      </trkpt>
      <trkpt lat="40.391200" lon="-4.926910">
        <ele>1182.704</ele>
        <time>2020-02-29T11:17:16Z</time>
      </trkpt>
      <trkpt lat="40.391230" lon="-4.926900">
        <ele>1183.314</ele>
        <time>2020-02-29T11:17:36Z</time>
      </trkpt>
      <trkpt lat="40.391290" lon="-4.926840">
        <ele>1184.908</ele>
        <time>2020-02-29T11:17:56Z</time>
      </trkpt>
      <trkpt lat="40.391310" lon="-4.926810">
        <ele>1185.799</ele>
        <time>2020-02-29T11:18:16Z</time>
      </trkpt>
      <trkpt lat="40.391320" lon="-4.926760">
        <ele>1186.572</ele>
        <time>2020-02-29T11:18:36Z</time>
      </trkpt>
      <trkpt lat="40.391320" lon="-4.926380">
        <ele>1189.877</ele>
        <time>2020-02-29T11:18:56Z</time>
      </trkpt>
      <trkpt lat="40.391310" lon="-4.926330">
        <ele>1190.028</ele>
        <time>2020-02-29T11:19:16Z</time>
      </trkpt>
      <trkpt lat="40.391310" lon="-4.926130">
        <ele>1191.490</ele>
        <time>2020-02-29T11:19:36Z</time>
      </trkpt>
      <trkpt lat="40.391320" lon="-4.926070">
        <ele>1192.198</ele>
        <time>2020-02-29T11:19:56Z</time>
      </trkpt>
      <trkpt lat="40.391320" lon="-4.925990">
        <ele>1192.631</ele>
        <time>2020-02-29T11:20:16Z</time>
      </trkpt>
      <trkpt lat="40.391340" lon="-4.925900">
        <ele>1193.676</ele>
        <time>2020-02-29T11:20:36Z</time>
      </trkpt>
      <trkpt lat="40.391360" lon="-4.925690">
        <ele>1195.559</ele>
        <time>2020-02-29T11:20:56Z</time>
      </trkpt>
      <trkpt lat="40.391370" lon="-4.925680">
        <ele>1195.803</ele>
        <time>2020-02-29T11:21:16Z</time>
      </trkpt>
      <trkpt lat="40.391430" lon="-4.924730">
        <ele>1200.723</ele>
        <time>2020-02-29T11:21:36Z</time>
      </trkpt>
      <trkpt lat="40.391710" lon="-4.923760">
        <ele>1208.708</ele>
        <time>2020-02-29T11:21:56Z</time>
      </trkpt>
      <trkpt lat="40.391760" lon="-4.923640">
        <ele>1209.419</ele>
        <time>2020-02-29T11:22:16Z</time>
      </trkpt>
      <trkpt lat="40.391840" lon="-4.923490">
        <ele>1210.342</ele>
        <time>2020-02-29T11:22:36Z</time>
      </trkpt>
      <trkpt lat="40.391870" lon="-4.923460">
        <ele>1210.877</ele>
        <time>2020-02-29T11:22:56Z</time>
      </trkpt>
      <trkpt lat="40.391890" lon="-4.923420">
        <ele>1211.138</ele>
        <time>2020-02-29T11:23:16Z</time>
      </trkpt>
      <trkpt lat="40.391930" lon="-4.923390">
        <ele>1211.830</ele>
        <time>2020-02-29T11:23:36Z</time>
      </trkpt>
      <trkpt lat="40.391960" lon="-4.923360">
        <ele>1212.138</ele>
        <time>2020-02-29T11:23:56Z</time>
      </trkpt>
      <trkpt lat="40.392000" lon="-4.923350">
        <ele>1212.471</ele>
        <time>2020-02-29T11:24:16Z</time>
      </trkpt>
      <trkpt lat="40.392020" lon="-4.923340">
        <ele>1212.686</ele>
        <time>2020-02-29T11:24:36Z</time>
      </trkpt>
      <trkpt lat="40.392130" lon="-4.923340">
        <ele>1213.432</ele>
        <time>2020-02-29T11:24:56Z</time>
      </trkpt>
      <trkpt lat="40.392180" lon="-4.923350">
        <ele>1213.892</ele>
        <time>2020-02-29T11:25:16Z</time>
      </trkpt>
      <trkpt lat="40.392290" lon="-4.923430">
        <ele>1215.411</ele>
        <time>2020-02-29T11:25:36Z</time>
      </trkpt>
      <trkpt lat="40.392490" lon="-4.923630">
        <ele>1219.008</ele>
        <time>2020-02-29T11:25:56Z</time>
      </trkpt>
      <trkpt lat="40.392620" lon="-4.923740">
        <ele>1219.777</ele>
        <time>2020-02-29T11:26:16Z</time>
      </trkpt>
      <trkpt lat="40.392720" lon="-4.923780">
        <ele>1219.970</ele>
        <time>2020-02-29T11:26:36Z</time>
      </trkpt>
      <trkpt lat="40.392820" lon="-4.923790">
        <ele>1219.935</ele>
        <time>2020-02-29T11:26:56Z</time>
      </trkpt>
      <trkpt lat="40.393020" lon="-4.923720">
        <ele>1219.796</ele>
        <time>2020-02-29T11:27:16Z</time>
      </trkpt>
      <trkpt lat="40.393210" lon="-4.923590">
        <ele>1223.438</ele>
        <time>2020-02-29T11:27:36Z</time>
      </trkpt>
      <trkpt lat="40.393350" lon="-4.923530">
        <ele>1226.886</ele>
        <time>2020-02-29T11:27:56Z</time>
      </trkpt>
      <trkpt lat="40.393390" lon="-4.923490">
        <ele>1227.799</ele>
        <time>2020-02-29T11:28:16Z</time>
      </trkpt>
      <trkpt lat="40.393480" lon="-4.923350">
        <ele>1230.024</ele>
        <time>2020-02-29T11:28:36Z</time>
      </trkpt>
      <trkpt lat="40.393520" lon="-4.923270">
        <ele>1231.143</ele>
        <time>2020-02-29T11:28:56Z</time>
      </trkpt>
      <trkpt lat="40.393620" lon="-4.923020">
        <ele>1234.464</ele>
        <time>2020-02-29T11:29:16Z</time>
      </trkpt>
      <trkpt lat="40.393950" lon="-4.921990">
        <ele>1243.310</ele>
        <time>2020-02-29T11:29:36Z</time>
      </trkpt>
      <trkpt lat="40.394060" lon="-4.921710">
        <ele>1244.108</ele>
        <time>2020-02-29T11:29:56Z</time>
      </trkpt>
      <trkpt lat="40.394140" lon="-4.921560">
        <ele>1243.998</ele>
        <time>2020-02-29T11:30:16Z</time>
      </trkpt>
      <trkpt lat="40.394230" lon="-4.921460">
        <ele>1244.711</ele>
        <time>2020-02-29T11:30:36Z</time>
      </trkpt>
      <trkpt lat="40.394330" lon="-4.921370">
        <ele>1246.566</ele>
        <time>2020-02-29T11:30:56Z</time>
      </trkpt>
      <trkpt lat="40.394420" lon="-4.921330">
        <ele>1248.747</ele>
        <time>2020-02-29T11:31:16Z</time>
      </trkpt>
      <trkpt lat="40.394540" lon="-4.921350">
        <ele>1251.099</ele>
        <time>2020-02-29T11:31:36Z</time>
      </trkpt>
      <trkpt lat="40.394600" lon="-4.921370">
        <ele>1252.027</ele>
        <time>2020-02-29T11:31:56Z</time>
      </trkpt>
      <trkpt lat="40.394670" lon="-4.921420">
        <ele>1253.640</ele>
        <time>2020-02-29T11:32:16Z</time>
      </trkpt>
      <trkpt lat="40.394750" lon="-4.921500">
        <ele>1255.455</ele>
        <time>2020-02-29T11:32:36Z</time>
      </trkpt>
      <trkpt lat="40.395060" lon="-4.921870">
        <ele>1262.886</ele>
        <time>2020-02-29T11:32:56Z</time>
      </trkpt>
      <trkpt lat="40.395170" lon="-4.922020">
        <ele>1264.760</ele>
        <time>2020-02-29T11:33:16Z</time>
      </trkpt>
      <trkpt lat="40.395350" lon="-4.922330">
        <ele>1266.426</ele>
        <time>2020-02-29T11:33:36Z</time>
      </trkpt>
      <trkpt lat="40.395400" lon="-4.922380">
        <ele>1266.808</ele>
        <time>2020-02-29T11:33:56Z</time>
      </trkpt>
      <trkpt lat="40.395410" lon="-4.922380">
        <ele>1266.952</ele>
        <time>2020-02-29T11:34:16Z</time>
      </trkpt>
      <trkpt lat="40.395430" lon="-4.922390">
        <ele>1267.095</ele>
        <time>2020-02-29T11:34:36Z</time>
      </trkpt>
      <trkpt lat="40.395480" lon="-4.922400">
        <ele>1267.580</ele>
        <time>2020-02-29T11:34:56Z</time>
      </trkpt>
      <trkpt lat="40.395480" lon="-4.922420">
        <ele>1267.591</ele>
        <time>2020-02-29T11:35:16Z</time>
      </trkpt>
      <trkpt lat="40.395510" lon="-4.922580">
        <ele>1267.213</ele>
        <time>2020-02-29T11:35:36Z</time>
      </trkpt>
      <trkpt lat="40.395550" lon="-4.922720">
        <ele>1267.111</ele>
        <time>2020-02-29T11:35:56Z</time>
      </trkpt>
      <trkpt lat="40.395710" lon="-4.923060">
        <ele>1267.244</ele>
        <time>2020-02-29T11:36:16Z</time>
      </trkpt>
      <trkpt lat="40.395890" lon="-4.923370">
        <ele>1269.549</ele>
        <time>2020-02-29T11:36:36Z</time>
      </trkpt>
      <trkpt lat="40.396090" lon="-4.923830">
        <ele>1270.022</ele>
        <time>2020-02-29T11:36:56Z</time>
      </trkpt>
      <trkpt lat="40.396120" lon="-4.923920">
        <ele>1270.162</ele>
        <time>2020-02-29T11:37:16Z</time>
      </trkpt>
      <trkpt lat="40.396360" lon="-4.925180">
        <ele>1270.908</ele>
        <time>2020-02-29T11:37:36Z</time>
      </trkpt>
      <trkpt lat="40.396600" lon="-4.926180">
        <ele>1275.508</ele>
        <time>2020-02-29T11:37:56Z</time>
      </trkpt>
      <trkpt lat="40.396600" lon="-4.926200">
        <ele>1275.416</ele>
        <time>2020-02-29T11:38:16Z</time>
      </trkpt>
      <trkpt lat="40.397050" lon="-4.927740">
        <ele>1274.769</ele>
        <time>2020-02-29T11:38:36Z</time>
      </trkpt>
      <trkpt lat="40.397690" lon="-4.929560">
        <ele>1278.874</ele>
        <time>2020-02-29T11:38:56Z</time>
      </trkpt>
      <trkpt lat="40.397720" lon="-4.929720">
        <ele>1279.585</ele>
        <time>2020-02-29T11:39:16Z</time>
      </trkpt>
      <trkpt lat="40.397720" lon="-4.929920">
        <ele>1280.027</ele>
        <time>2020-02-29T11:39:36Z</time>
      </trkpt>
      <trkpt lat="40.397690" lon="-4.930260">
        <ele>1280.375</ele>
        <time>2020-02-29T11:39:56Z</time>
      </trkpt>
      <trkpt lat="40.397690" lon="-4.930360">
        <ele>1280.328</ele>
        <time>2020-02-29T11:40:16Z</time>
      </trkpt>
      <trkpt lat="40.397700" lon="-4.930420">
        <ele>1280.293</ele>
        <time>2020-02-29T11:40:36Z</time>
      </trkpt>
      <trkpt lat="40.397700" lon="-4.930470">
        <ele>1280.151</ele>
        <time>2020-02-29T11:40:56Z</time>
      </trkpt>
      <trkpt lat="40.397780" lon="-4.930600">
        <ele>1280.001</ele>
        <time>2020-02-29T11:41:16Z</time>
      </trkpt>
      <trkpt lat="40.397830" lon="-4.930630">
        <ele>1280.711</ele>
        <time>2020-02-29T11:41:36Z</time>
      </trkpt>
      <trkpt lat="40.397900" lon="-4.930650">
        <ele>1281.608</ele>
        <time>2020-02-29T11:41:56Z</time>
      </trkpt>
      <trkpt lat="40.397990" lon="-4.930660">
        <ele>1282.829</ele>
        <time>2020-02-29T11:42:16Z</time>
      </trkpt>
      <trkpt lat="40.398230" lon="-4.930660">
        <ele>1283.682</ele>
        <time>2020-02-29T11:42:36Z</time>
      </trkpt>
      <trkpt lat="40.399240" lon="-4.930730">
        <ele>1281.757</ele>
        <time>2020-02-29T11:42:56Z</time>
      </trkpt>
      <trkpt lat="40.399390" lon="-4.930790">
        <ele>1281.398</ele>
        <time>2020-02-29T11:43:16Z</time>
      </trkpt>
      <trkpt lat="40.399400" lon="-4.930800">
        <ele>1281.270</ele>
        <time>2020-02-29T11:43:36Z</time>
      </trkpt>
      <trkpt lat="40.399450" lon="-4.930830">
        <ele>1281.068</ele>
        <time>2020-02-29T11:43:56Z</time>
      </trkpt>
      <trkpt lat="40.399560" lon="-4.930960">
        <ele>1280.791</ele>
        <time>2020-02-29T11:44:16Z</time>
      </trkpt>
      <trkpt lat="40.399780" lon="-4.931280">
        <ele>1280.146</ele>
        <time>2020-02-29T11:44:36Z</time>
      </trkpt>
      <trkpt lat="40.400230" lon="-4.932010">
        <ele>1281.551</ele>
        <time>2020-02-29T11:44:56Z</time>
      </trkpt>
      <trkpt lat="40.400260" lon="-4.932080">
        <ele>1281.801</ele>
        <time>2020-02-29T11:45:16Z</time>
      </trkpt>
      <trkpt lat="40.400260" lon="-4.932140">
        <ele>1281.911</ele>
        <time>2020-02-29T11:45:36Z</time>
      </trkpt>
      <trkpt lat="40.400270" lon="-4.932170">
        <ele>1281.908</ele>
        <time>2020-02-29T11:45:56Z</time>
      </trkpt>
      <trkpt lat="40.400270" lon="-4.932200">
        <ele>1281.929</ele>
        <time>2020-02-29T11:46:16Z</time>
      </trkpt>
      <trkpt lat="40.400230" lon="-4.932360">
        <ele>1282.182</ele>
        <time>2020-02-29T11:46:36Z</time>
      </trkpt>
      <trkpt lat="40.399610" lon="-4.933870">
        <ele>1280.247</ele>
        <time>2020-02-29T11:46:56Z</time>
      </trkpt>
      <trkpt lat="40.399500" lon="-4.934100">
        <ele>1279.978</ele>
        <time>2020-02-29T11:47:16Z</time>
      </trkpt>
      <trkpt lat="40.399430" lon="-4.934280">
        <ele>1279.280</ele>
        <time>2020-02-29T11:47:36Z</time>
      </trkpt>
      <trkpt lat="40.399310" lon="-4.934510">
        <ele>1278.448</ele>
        <time>2020-02-29T11:47:56Z</time>
      </trkpt>
      <trkpt lat="40.399240" lon="-4.934680">
        <ele>1278.141</ele>
        <time>2020-02-29T11:48:16Z</time>
      </trkpt>
      <trkpt lat="40.398990" lon="-4.935170">
        <ele>1275.036</ele>
        <time>2020-02-29T11:48:36Z</time>
      </trkpt>
      <trkpt lat="40.398960" lon="-4.935250">
        <ele>1274.795</ele>
        <time>2020-02-29T11:48:56Z</time>
      </trkpt>
      <trkpt lat="40.398820" lon="-4.935530">
        <ele>1273.249</ele>
        <time>2020-02-29T11:49:16Z</time>
      </trkpt>
      <trkpt lat="40.398760" lon="-4.935710">
        <ele>1272.923</ele>
        <time>2020-02-29T11:49:36Z</time>
      </trkpt>
      <trkpt lat="40.398730" lon="-4.935850">
        <ele>1272.708</ele>
        <time>2020-02-29T11:49:56Z</time>
      </trkpt>
      <trkpt lat="40.398720" lon="-4.936020">
        <ele>1272.663</ele>
        <time>2020-02-29T11:50:16Z</time>
      </trkpt>
      <trkpt lat="40.398710" lon="-4.936060">
        <ele>1272.466</ele>
        <time>2020-02-29T11:50:36Z</time>
      </trkpt>
      <trkpt lat="40.398710" lon="-4.936160">
        <ele>1272.151</ele>
        <time>2020-02-29T11:50:56Z</time>
      </trkpt>
      <trkpt lat="40.399230" lon="-4.939400">
        <ele>1258.762</ele>
        <time>2020-02-29T11:51:16Z</time>
      </trkpt>
      <trkpt lat="40.399280" lon="-4.939820">
        <ele>1256.134</ele>
        <time>2020-02-29T11:51:36Z</time>
      </trkpt>
      <trkpt lat="40.399280" lon="-4.940160">
        <ele>1255.742</ele>
        <time>2020-02-29T11:51:56Z</time>
      </trkpt>
      <trkpt lat="40.399250" lon="-4.940310">
        <ele>1256.465</ele>
        <time>2020-02-29T11:52:16Z</time>
      </trkpt>
      <trkpt lat="40.399190" lon="-4.940490">
        <ele>1257.450</ele>
        <time>2020-02-29T11:52:36Z</time>
      </trkpt>
      <trkpt lat="40.399090" lon="-4.940710">
        <ele>1259.469</ele>
        <time>2020-02-29T11:52:56Z</time>
      </trkpt>
      <trkpt lat="40.399080" lon="-4.940710">
        <ele>1259.404</ele>
        <time>2020-02-29T11:53:16Z</time>
      </trkpt>
      <trkpt lat="40.398820" lon="-4.941130">
        <ele>1261.124</ele>
        <time>2020-02-29T11:53:36Z</time>
      </trkpt>
      <trkpt lat="40.398640" lon="-4.941380">
        <ele>1260.408</ele>
        <time>2020-02-29T11:53:56Z</time>
      </trkpt>
      <trkpt lat="40.398520" lon="-4.941480">
        <ele>1259.110</ele>
        <time>2020-02-29T11:54:16Z</time>
      </trkpt>
      <trkpt lat="40.398400" lon="-4.941540">
        <ele>1257.913</ele>
        <time>2020-02-29T11:54:36Z</time>
      </trkpt>
      <trkpt lat="40.398320" lon="-4.941560">
        <ele>1257.378</ele>
        <time>2020-02-29T11:54:56Z</time>
      </trkpt>
      <trkpt lat="40.398170" lon="-4.941550">
        <ele>1258.129</ele>
        <time>2020-02-29T11:55:16Z</time>
      </trkpt>
      <trkpt lat="40.398110" lon="-4.941530">
        <ele>1258.241</ele>
        <time>2020-02-29T11:55:36Z</time>
      </trkpt>
      <trkpt lat="40.397950" lon="-4.941420">
        <ele>1261.679</ele>
        <time>2020-02-29T11:55:56Z</time>
      </trkpt>
      <trkpt lat="40.397830" lon="-4.941240">
        <ele>1263.532</ele>
        <time>2020-02-29T11:56:16Z</time>
      </trkpt>
      <trkpt lat="40.397730" lon="-4.941010">
        <ele>1262.677</ele>
        <time>2020-02-29T11:56:36Z</time>
      </trkpt>
      <trkpt lat="40.397630" lon="-4.940860">
        <ele>1263.485</ele>
        <time>2020-02-29T11:56:56Z</time>
      </trkpt>
      <trkpt lat="40.397510" lon="-4.940720">
        <ele>1265.589</ele>
        <time>2020-02-29T11:57:16Z</time>
      </trkpt>
      <trkpt lat="40.397290" lon="-4.940520">
        <ele>1267.417</ele>
        <time>2020-02-29T11:57:36Z</time>
      </trkpt>
      <trkpt lat="40.397240" lon="-4.940500">
        <ele>1268.208</ele>
        <time>2020-02-29T11:57:56Z</time>
      </trkpt>
      <trkpt lat="40.397200" lon="-4.940470">
        <ele>1267.962</ele>
        <time>2020-02-29T11:58:16Z</time>
      </trkpt>
      <trkpt lat="40.397070" lon="-4.940410">
        <ele>1267.265</ele>
        <time>2020-02-29T11:58:36Z</time>
      </trkpt>
      <trkpt lat="40.396990" lon="-4.940390">
        <ele>1267.290</ele>
        <time>2020-02-29T11:58:56Z</time>
      </trkpt>
      <trkpt lat="40.396920" lon="-4.940390">
        <ele>1267.311</ele>
        <time>2020-02-29T11:59:16Z</time>
      </trkpt>
      <trkpt lat="40.396790" lon="-4.940410">
        <ele>1266.823</ele>
        <time>2020-02-29T11:59:36Z</time>
      </trkpt>
      <trkpt lat="40.396730" lon="-4.940430">
        <ele>1266.721</ele>
        <time>2020-02-29T11:59:56Z</time>
      </trkpt>
      <trkpt lat="40.396590" lon="-4.940500">
        <ele>1266.844</ele>
        <time>2020-02-29T12:00:16Z</time>
      </trkpt>
      <trkpt lat="40.396450" lon="-4.940650">
        <ele>1267.229</ele>
        <time>2020-02-29T12:00:36Z</time>
      </trkpt>
      <trkpt lat="40.396380" lon="-4.940760">
        <ele>1267.313</ele>
        <time>2020-02-29T12:00:56Z</time>
      </trkpt>
      <trkpt lat="40.396290" lon="-4.940930">
        <ele>1267.043</ele>
        <time>2020-02-29T12:01:16Z</time>
      </trkpt>
      <trkpt lat="40.395680" lon="-4.942560">
        <ele>1266.807</ele>
        <time>2020-02-29T12:01:36Z</time>
      </trkpt>
      <trkpt lat="40.395530" lon="-4.943040">
        <ele>1268.108</ele>
        <time>2020-02-29T12:01:56Z</time>
      </trkpt>
      <trkpt lat="40.395310" lon="-4.943950">
        <ele>1267.685</ele>
        <time>2020-02-29T12:02:16Z</time>
      </trkpt>
      <trkpt lat="40.395300" lon="-4.943960">
        <ele>1267.398</ele>
        <time>2020-02-29T12:02:36Z</time>
      </trkpt>
      <trkpt lat="40.395260" lon="-4.944050">
        <ele>1267.063</ele>
        <time>2020-02-29T12:02:56Z</time>
      </trkpt>
      <trkpt lat="40.395190" lon="-4.944150">
        <ele>1266.984</ele>
        <time>2020-02-29T12:03:16Z</time>
      </trkpt>
      <trkpt lat="40.395090" lon="-4.944240">
        <ele>1266.316</ele>
        <time>2020-02-29T12:03:36Z</time>
      </trkpt>
      <trkpt lat="40.394910" lon="-4.944320">
        <ele>1266.154</ele>
        <time>2020-02-29T12:03:56Z</time>
      </trkpt>
      <trkpt lat="40.394840" lon="-4.944330">
        <ele>1266.547</ele>
        <time>2020-02-29T12:04:16Z</time>
      </trkpt>
      <trkpt lat="40.394760" lon="-4.944320">
        <ele>1266.992</ele>
        <time>2020-02-29T12:04:36Z</time>
      </trkpt>
      <trkpt lat="40.394580" lon="-4.944250">
        <ele>1268.832</ele>
        <time>2020-02-29T12:04:56Z</time>
      </trkpt>
      <trkpt lat="40.394480" lon="-4.944150">
        <ele>1269.492</ele>
        <time>2020-02-29T12:05:16Z</time>
      </trkpt>
      <trkpt lat="40.394420" lon="-4.944070">
        <ele>1270.111</ele>
        <time>2020-02-29T12:05:36Z</time>
      </trkpt>
      <trkpt lat="40.394390" lon="-4.944010">
        <ele>1270.608</ele>
        <time>2020-02-29T12:05:56Z</time>
      </trkpt>
      <trkpt lat="40.394120" lon="-4.943320">
        <ele>1273.227</ele>
        <time>2020-02-29T12:06:16Z</time>
      </trkpt>
      <trkpt lat="40.393950" lon="-4.942790">
        <ele>1274.350</ele>
        <time>2020-02-29T12:06:36Z</time>
      </trkpt>
      <trkpt lat="40.393870" lon="-4.942620">
        <ele>1275.315</ele>
        <time>2020-02-29T12:06:56Z</time>
      </trkpt>
      <trkpt lat="40.393860" lon="-4.942610">
        <ele>1275.536</ele>
        <time>2020-02-29T12:07:16Z</time>
      </trkpt>
      <trkpt lat="40.393790" lon="-4.942500">
        <ele>1276.548</ele>
        <time>2020-02-29T12:07:36Z</time>
      </trkpt>
      <trkpt lat="40.393690" lon="-4.942390">
        <ele>1278.296</ele>
        <time>2020-02-29T12:07:56Z</time>
      </trkpt>
      <trkpt lat="40.393530" lon="-4.942290">
        <ele>1280.799</ele>
        <time>2020-02-29T12:08:16Z</time>
      </trkpt>
      <trkpt lat="40.393430" lon="-4.942250">
        <ele>1281.914</ele>
        <time>2020-02-29T12:08:36Z</time>
      </trkpt>
      <trkpt lat="40.393320" lon="-4.942220">
        <ele>1282.933</ele>
        <time>2020-02-29T12:08:56Z</time>
      </trkpt>
      <trkpt lat="40.393220" lon="-4.942220">
        <ele>1282.623</ele>
        <time>2020-02-29T12:09:16Z</time>
      </trkpt>
      <trkpt lat="40.393040" lon="-4.942270">
        <ele>1282.515</ele>
        <time>2020-02-29T12:09:36Z</time>
      </trkpt>
      <trkpt lat="40.392930" lon="-4.942330">
        <ele>1281.608</ele>
        <time>2020-02-29T12:09:56Z</time>
      </trkpt>
      <trkpt lat="40.392850" lon="-4.942400">
        <ele>1281.167</ele>
        <time>2020-02-29T12:10:16Z</time>
      </trkpt>
      <trkpt lat="40.392710" lon="-4.942550">
        <ele>1279.570</ele>
        <time>2020-02-29T12:10:36Z</time>
      </trkpt>
      <trkpt lat="40.392640" lon="-4.942670">
        <ele>1278.625</ele>
        <time>2020-02-29T12:10:56Z</time>
      </trkpt>
      <trkpt lat="40.392580" lon="-4.942810">
        <ele>1277.966</ele>
        <time>2020-02-29T12:11:16Z</time>
      </trkpt>
      <trkpt lat="40.392580" lon="-4.942820">
        <ele>1278.058</ele>
        <time>2020-02-29T12:11:36Z</time>
      </trkpt>
      <trkpt lat="40.392550" lon="-4.942920">
        <ele>1278.266</ele>
        <time>2020-02-29T12:11:56Z</time>
      </trkpt>
      <trkpt lat="40.392330" lon="-4.944340">
        <ele>1278.019</ele>
        <time>2020-02-29T12:12:16Z</time>
      </trkpt>
      <trkpt lat="40.392310" lon="-4.944580">
        <ele>1277.584</ele>
        <time>2020-02-29T12:12:36Z</time>
      </trkpt>
      <trkpt lat="40.392310" lon="-4.944920">
        <ele>1276.447</ele>
        <time>2020-02-29T12:12:56Z</time>
      </trkpt>
      <trkpt lat="40.392500" lon="-4.946500">
        <ele>1278.029</ele>
        <time>2020-02-29T12:13:16Z</time>
      </trkpt>
      <trkpt lat="40.392560" lon="-4.947380">
        <ele>1281.921</ele>
        <time>2020-02-29T12:13:36Z</time>
      </trkpt>
      <trkpt lat="40.392650" lon="-4.947800">
        <ele>1283.908</ele>
        <time>2020-02-29T12:13:56Z</time>
      </trkpt>
      <trkpt lat="40.392870" lon="-4.948340">
        <ele>1285.668</ele>
        <time>2020-02-29T12:14:16Z</time>
      </trkpt>
      <trkpt lat="40.392920" lon="-4.948420">
        <ele>1285.591</ele>
        <time>2020-02-29T12:14:36Z</time>
      </trkpt>
      <trkpt lat="40.392980" lon="-4.948540">
        <ele>1285.236</ele>
        <time>2020-02-29T12:14:56Z</time>
      </trkpt>
      <trkpt lat="40.393050" lon="-4.948750">
        <ele>1286.317</ele>
        <time>2020-02-29T12:15:16Z</time>
      </trkpt>
      <trkpt lat="40.393100" lon="-4.949000">
        <ele>1289.429</ele>
        <time>2020-02-29T12:15:36Z</time>
      </trkpt>
      <trkpt lat="40.393130" lon="-4.949360">
        <ele>1291.577</ele>
        <time>2020-02-29T12:15:56Z</time>
      </trkpt>
      <trkpt lat="40.393130" lon="-4.949660">
        <ele>1292.590</ele>
        <time>2020-02-29T12:16:16Z</time>
      </trkpt>
      <trkpt lat="40.393030" lon="-4.950890">
        <ele>1294.045</ele>
        <time>2020-02-29T12:16:36Z</time>
      </trkpt>
      <trkpt lat="40.392940" lon="-4.951550">
        <ele>1294.294</ele>
        <time>2020-02-29T12:16:56Z</time>
      </trkpt>
      <trkpt lat="40.392880" lon="-4.951810">
        <ele>1295.357</ele>
        <time>2020-02-29T12:17:16Z</time>
      </trkpt>
      <trkpt lat="40.392700" lon="-4.952180">
        <ele>1295.222</ele>
        <time>2020-02-29T12:17:36Z</time>
      </trkpt>
      <trkpt lat="40.392210" lon="-4.952970">
        <ele>1291.008</ele>
        <time>2020-02-29T12:17:56Z</time>
      </trkpt>
      <trkpt lat="40.392010" lon="-4.953360">
        <ele>1292.923</ele>
        <time>2020-02-29T12:18:16Z</time>
      </trkpt>
      <trkpt lat="40.391890" lon="-4.953720">
        <ele>1293.876</ele>
        <time>2020-02-29T12:18:36Z</time>
      </trkpt>
      <trkpt lat="40.391820" lon="-4.953980">
        <ele>1294.211</ele>
        <time>2020-02-29T12:18:56Z</time>
      </trkpt>
      <trkpt lat="40.391720" lon="-4.954640">
        <ele>1295.682</ele>
        <time>2020-02-29T12:19:16Z</time>
      </trkpt>
      <trkpt lat="40.391640" lon="-4.955020">
        <ele>1295.054</ele>
        <time>2020-02-29T12:19:36Z</time>
      </trkpt>
      <trkpt lat="40.391630" lon="-4.955520">
        <ele>1294.192</ele>
        <time>2020-02-29T12:19:56Z</time>
      </trkpt>
      <trkpt lat="40.391970" lon="-4.957510">
        <ele>1295.595</ele>
        <time>2020-02-29T12:20:16Z</time>
      </trkpt>
      <trkpt lat="40.392020" lon="-4.957660">
        <ele>1295.550</ele>
        <time>2020-02-29T12:20:36Z</time>
      </trkpt>
      <trkpt lat="40.392080" lon="-4.957790">
        <ele>1295.842</ele>
        <time>2020-02-29T12:20:56Z</time>
      </trkpt>
      <trkpt lat="40.392230" lon="-4.958040">
        <ele>1296.322</ele>
        <time>2020-02-29T12:21:16Z</time>
      </trkpt>
      <trkpt lat="40.392640" lon="-4.958610">
        <ele>1297.014</ele>
        <time>2020-02-29T12:21:36Z</time>
      </trkpt>
      <trkpt lat="40.392910" lon="-4.958940">
        <ele>1300.408</ele>
        <time>2020-02-29T12:21:56Z</time>
      </trkpt>
      <trkpt lat="40.393200" lon="-4.959460">
        <ele>1299.938</ele>
        <time>2020-02-29T12:22:16Z</time>
      </trkpt>
      <trkpt lat="40.393290" lon="-4.959700">
        <ele>1298.461</ele>
        <time>2020-02-29T12:22:36Z</time>
      </trkpt>
      <trkpt lat="40.393690" lon="-4.961100">
        <ele>1297.886</ele>
        <time>2020-02-29T12:22:56Z</time>
      </trkpt>
      <trkpt lat="40.393780" lon="-4.961360">
        <ele>1298.927</ele>
        <time>2020-02-29T12:23:16Z</time>
      </trkpt>
      <trkpt lat="40.393970" lon="-4.962120">
        <ele>1299.319</ele>
        <time>2020-02-29T12:23:36Z</time>
      </trkpt>
      <trkpt lat="40.394090" lon="-4.962440">
        <ele>1299.527</ele>
        <time>2020-02-29T12:23:56Z</time>
      </trkpt>
      <trkpt lat="40.394190" lon="-4.962630">
        <ele>1299.780</ele>
        <time>2020-02-29T12:24:16Z</time>
      </trkpt>
      <trkpt lat="40.394730" lon="-4.963410">
        <ele>1300.595</ele>
        <time>2020-02-29T12:24:36Z</time>
      </trkpt>
      <trkpt lat="40.394930" lon="-4.963670">
        <ele>1300.183</ele>
        <time>2020-02-29T12:24:56Z</time>
      </trkpt>
      <trkpt lat="40.395140" lon="-4.963850">
        <ele>1300.825</ele>
        <time>2020-02-29T12:25:16Z</time>
      </trkpt>
      <trkpt lat="40.395490" lon="-4.964060">
        <ele>1300.317</ele>
        <time>2020-02-29T12:25:36Z</time>
      </trkpt>
      <trkpt lat="40.395680" lon="-4.964130">
        <ele>1300.408</ele>
        <time>2020-02-29T12:25:56Z</time>
      </trkpt>
      <trkpt lat="40.395730" lon="-4.964140">
        <ele>1300.752</ele>
        <time>2020-02-29T12:26:16Z</time>
      </trkpt>
      <trkpt lat="40.395970" lon="-4.964140">
        <ele>1302.385</ele>
        <time>2020-02-29T12:26:36Z</time>
      </trkpt>
      <trkpt lat="40.396180" lon="-4.964160">
        <ele>1302.910</ele>
        <time>2020-02-29T12:26:56Z</time>
      </trkpt>
      <trkpt lat="40.396260" lon="-4.964200">
        <ele>1302.931</ele>
        <time>2020-02-29T12:27:16Z</time>
      </trkpt>
      <trkpt lat="40.396390" lon="-4.964300">
        <ele>1302.193</ele>
        <time>2020-02-29T12:27:36Z</time>
      </trkpt>
      <trkpt lat="40.397270" lon="-4.965170">
        <ele>1299.951</ele>
        <time>2020-02-29T12:27:56Z</time>
      </trkpt>
      <trkpt lat="40.397360" lon="-4.965300">
        <ele>1299.054</ele>
        <time>2020-02-29T12:28:16Z</time>
      </trkpt>
      <trkpt lat="40.397460" lon="-4.965480">
        <ele>1297.069</ele>
        <time>2020-02-29T12:28:36Z</time>
      </trkpt>
      <trkpt lat="40.397870" lon="-4.966720">
        <ele>1302.626</ele>
        <time>2020-02-29T12:28:56Z</time>
      </trkpt>
      <trkpt lat="40.397990" lon="-4.967150">
        <ele>1299.647</ele>
        <time>2020-02-29T12:29:16Z</time>
      </trkpt>
      <trkpt lat="40.398030" lon="-4.967440">
        <ele>1298.311</ele>
        <time>2020-02-29T12:29:36Z</time>
      </trkpt>
      <trkpt lat="40.398030" lon="-4.967620">
        <ele>1299.508</ele>
        <time>2020-02-29T12:29:56Z</time>
      </trkpt>
      <trkpt lat="40.398020" lon="-4.967730">
        <ele>1300.646</ele>
        <time>2020-02-29T12:30:16Z</time>
      </trkpt>
      <trkpt lat="40.398000" lon="-4.967830">
        <ele>1301.139</ele>
        <time>2020-02-29T12:30:36Z</time>
      </trkpt>
      <trkpt lat="40.397930" lon="-4.968070">
        <ele>1301.764</ele>
        <time>2020-02-29T12:30:56Z</time>
      </trkpt>
      <trkpt lat="40.397300" lon="-4.969440">
        <ele>1303.665</ele>
        <time>2020-02-29T12:31:16Z</time>
      </trkpt>
      <trkpt lat="40.397230" lon="-4.969710">
        <ele>1304.177</ele>
        <time>2020-02-29T12:31:36Z</time>
      </trkpt>
      <trkpt lat="40.397190" lon="-4.970100">
        <ele>1301.895</ele>
        <time>2020-02-29T12:31:56Z</time>
      </trkpt>
      <trkpt lat="40.397230" lon="-4.970500">
        <ele>1303.758</ele>
        <time>2020-02-29T12:32:16Z</time>
      </trkpt>
      <trkpt lat="40.397280" lon="-4.970820">
        <ele>1306.743</ele>
        <time>2020-02-29T12:32:36Z</time>
      </trkpt>
      <trkpt lat="40.397310" lon="-4.971200">
        <ele>1309.571</ele>
        <time>2020-02-29T12:32:56Z</time>
      </trkpt>
      <trkpt lat="40.397310" lon="-4.971440">
        <ele>1310.941</ele>
        <time>2020-02-29T12:33:16Z</time>
      </trkpt>
      <trkpt lat="40.397280" lon="-4.971710">
        <ele>1312.415</ele>
        <time>2020-02-29T12:33:36Z</time>
      </trkpt>
      <trkpt lat="40.397270" lon="-4.971730">
        <ele>1312.408</ele>
        <time>2020-02-29T12:33:56Z</time>
      </trkpt>
      <trkpt lat="40.397170" lon="-4.972170">
        <ele>1314.031</ele>
        <time>2020-02-29T12:34:16Z</time>
      </trkpt>
      <trkpt lat="40.397160" lon="-4.972190">
        <ele>1314.174</ele>
        <time>2020-02-29T12:34:36Z</time>
      </trkpt>
      <trkpt lat="40.397120" lon="-4.972400">
        <ele>1314.839</ele>
        <time>2020-02-29T12:34:56Z</time>
      </trkpt>
      <trkpt lat="40.397090" lon="-4.972670">
        <ele>1316.020</ele>
        <time>2020-02-29T12:35:16Z</time>
      </trkpt>
      <trkpt lat="40.397050" lon="-4.973690">
        <ele>1317.812</ele>
        <time>2020-02-29T12:35:36Z</time>
      </trkpt>
      <trkpt lat="40.397090" lon="-4.974100">
        <ele>1318.070</ele>
        <time>2020-02-29T12:35:56Z</time>
      </trkpt>
      <trkpt lat="40.397100" lon="-4.974140">
        <ele>1318.193</ele>
        <time>2020-02-29T12:36:16Z</time>
      </trkpt>
      <trkpt lat="40.397140" lon="-4.974240">
        <ele>1318.368</ele>
        <time>2020-02-29T12:36:36Z</time>
      </trkpt>
      <trkpt lat="40.397150" lon="-4.974280">
        <ele>1318.473</ele>
        <time>2020-02-29T12:36:56Z</time>
      </trkpt>
      <trkpt lat="40.397240" lon="-4.974510">
        <ele>1319.085</ele>
        <time>2020-02-29T12:37:16Z</time>
      </trkpt>
      <trkpt lat="40.398860" lon="-4.977950">
        <ele>1314.813</ele>
        <time>2020-02-29T12:37:36Z</time>
      </trkpt>
      <trkpt lat="40.398930" lon="-4.978130">
        <ele>1315.608</ele>
        <time>2020-02-29T12:37:56Z</time>
      </trkpt>
      <trkpt lat="40.399000" lon="-4.978480">
        <ele>1315.141</ele>
        <time>2020-02-29T12:38:16Z</time>
      </trkpt>
      <trkpt lat="40.399020" lon="-4.978540">
        <ele>1315.394</ele>
        <time>2020-02-29T12:38:36Z</time>
      </trkpt>
      <trkpt lat="40.399160" lon="-4.979330">
        <ele>1315.879</ele>
        <time>2020-02-29T12:38:56Z</time>
      </trkpt>
      <trkpt lat="40.399170" lon="-4.979460">
        <ele>1316.180</ele>
        <time>2020-02-29T12:39:16Z</time>
      </trkpt>
      <trkpt lat="40.399190" lon="-4.979560">
        <ele>1316.732</ele>
        <time>2020-02-29T12:39:36Z</time>
      </trkpt>
      <trkpt lat="40.399190" lon="-4.979650">
        <ele>1316.720</ele>
        <time>2020-02-29T12:39:56Z</time>
      </trkpt>
      <trkpt lat="40.399220" lon="-4.979950">
        <ele>1317.543</ele>
        <time>2020-02-29T12:40:16Z</time>
      </trkpt>
      <trkpt lat="40.399220" lon="-4.980020">
        <ele>1317.438</ele>
        <time>2020-02-29T12:40:36Z</time>
      </trkpt>
      <trkpt lat="40.399230" lon="-4.980090">
        <ele>1317.254</ele>
        <time>2020-02-29T12:40:56Z</time>
      </trkpt>
      <trkpt lat="40.399230" lon="-4.980160">
        <ele>1316.756</ele>
        <time>2020-02-29T12:41:16Z</time>
      </trkpt>
      <trkpt lat="40.399250" lon="-4.980240">
        <ele>1316.711</ele>
        <time>2020-02-29T12:41:36Z</time>
      </trkpt>
      <trkpt lat="40.399260" lon="-4.980360">
        <ele>1316.408</ele>
        <time>2020-02-29T12:41:56Z</time>
      </trkpt>
      <trkpt lat="40.399620" lon="-4.982520">
        <ele>1315.269</ele>
        <time>2020-02-29T12:42:16Z</time>
      </trkpt>
      <trkpt lat="40.399780" lon="-4.983060">
        <ele>1313.632</ele>
        <time>2020-02-29T12:42:36Z</time>
      </trkpt>
      <trkpt lat="40.399830" lon="-4.983270">
        <ele>1312.587</ele>
        <time>2020-02-29T12:42:56Z</time>
      </trkpt>
      <trkpt lat="40.399870" lon="-4.983370">
        <ele>1312.258</ele>
        <time>2020-02-29T12:43:16Z</time>
      </trkpt>
      <trkpt lat="40.399870" lon="-4.983380">
        <ele>1312.190</ele>
        <time>2020-02-29T12:43:36Z</time>
      </trkpt>
      <trkpt lat="40.399960" lon="-4.983540">
        <ele>1312.068</ele>
        <time>2020-02-29T12:43:56Z</time>
      </trkpt>
      <trkpt lat="40.400370" lon="-4.984000">
        <ele>1311.941</ele>
        <time>2020-02-29T12:44:16Z</time>
      </trkpt>
      <trkpt lat="40.400440" lon="-4.984120">
        <ele>1311.146</ele>
        <time>2020-02-29T12:44:36Z</time>
      </trkpt>
      <trkpt lat="40.400480" lon="-4.984250">
        <ele>1309.549</ele>
        <time>2020-02-29T12:44:56Z</time>
      </trkpt>
      <trkpt lat="40.400480" lon="-4.984280">
        <ele>1309.102</ele>
        <time>2020-02-29T12:45:16Z</time>
      </trkpt>
      <trkpt lat="40.400500" lon="-4.984340">
        <ele>1308.522</ele>
        <time>2020-02-29T12:45:36Z</time>
      </trkpt>
      <trkpt lat="40.400500" lon="-4.984420">
        <ele>1307.208</ele>
        <time>2020-02-29T12:45:56Z</time>
      </trkpt>
      <trkpt lat="40.400490" lon="-4.984500">
        <ele>1306.088</ele>
        <time>2020-02-29T12:46:16Z</time>
      </trkpt>
      <trkpt lat="40.400490" lon="-4.984560">
        <ele>1305.431</ele>
        <time>2020-02-29T12:46:36Z</time>
      </trkpt>
      <trkpt lat="40.400450" lon="-4.984710">
        <ele>1303.276</ele>
        <time>2020-02-29T12:46:56Z</time>
      </trkpt>
      <trkpt lat="40.400390" lon="-4.984840">
        <ele>1306.667</ele>
        <time>2020-02-29T12:47:16Z</time>
      </trkpt>
      <trkpt lat="40.400330" lon="-4.984930">
        <ele>1310.379</ele>
        <time>2020-02-29T12:47:36Z</time>
      </trkpt>
      <trkpt lat="40.400210" lon="-4.985040">
        <ele>1314.657</ele>
        <time>2020-02-29T12:47:56Z</time>
      </trkpt>
      <trkpt lat="40.399620" lon="-4.985440">
        <ele>1317.380</ele>
        <time>2020-02-29T12:48:16Z</time>
      </trkpt>
      <trkpt lat="40.399570" lon="-4.985490">
        <ele>1317.225</ele>
        <time>2020-02-29T12:48:36Z</time>
      </trkpt>
      <trkpt lat="40.399470" lon="-4.985630">
        <ele>1317.262</ele>
        <time>2020-02-29T12:48:56Z</time>
      </trkpt>
      <trkpt lat="40.399470" lon="-4.985640">
        <ele>1317.383</ele>
        <time>2020-02-29T12:49:16Z</time>
      </trkpt>
      <trkpt lat="40.399410" lon="-4.985740">
        <ele>1317.711</ele>
        <time>2020-02-29T12:49:36Z</time>
      </trkpt>
      <trkpt lat="40.399280" lon="-4.985900">
        <ele>1318.108</ele>
        <time>2020-02-29T12:49:56Z</time>
      </trkpt>
      <trkpt lat="40.399130" lon="-4.986030">
        <ele>1317.440</ele>
        <time>2020-02-29T12:50:16Z</time>
      </trkpt>
      <trkpt lat="40.398850" lon="-4.986200">
        <ele>1317.363</ele>
        <time>2020-02-29T12:50:36Z</time>
      </trkpt>
      <trkpt lat="40.398720" lon="-4.986260">
        <ele>1317.598</ele>
        <time>2020-02-29T12:50:56Z</time>
      </trkpt>
      <trkpt lat="40.398600" lon="-4.986300">
        <ele>1317.359</ele>
        <time>2020-02-29T12:51:16Z</time>
      </trkpt>
      <trkpt lat="40.398230" lon="-4.986320">
        <ele>1317.271</ele>
        <time>2020-02-29T12:51:36Z</time>
      </trkpt>
      <trkpt lat="40.398180" lon="-4.986330">
        <ele>1318.069</ele>
        <time>2020-02-29T12:51:56Z</time>
      </trkpt>
      <trkpt lat="40.397610" lon="-4.986350">
        <ele>1322.872</ele>
        <time>2020-02-29T12:52:16Z</time>
      </trkpt>
      <trkpt lat="40.397320" lon="-4.986430">
        <ele>1324.997</ele>
        <time>2020-02-29T12:52:36Z</time>
      </trkpt>
      <trkpt lat="40.395910" lon="-4.986980">
        <ele>1331.296</ele>
        <time>2020-02-29T12:52:56Z</time>
      </trkpt>
      <trkpt lat="40.395830" lon="-4.987030">
        <ele>1330.631</ele>
        <time>2020-02-29T12:53:16Z</time>
      </trkpt>
      <trkpt lat="40.395710" lon="-4.987130">
        <ele>1330.724</ele>
        <time>2020-02-29T12:53:36Z</time>
      </trkpt>
      <trkpt lat="40.395580" lon="-4.987300">
        <ele>1330.508</ele>
        <time>2020-02-29T12:53:56Z</time>
      </trkpt>
      <trkpt lat="40.394950" lon="-4.988460">
        <ele>1329.633</ele>
        <time>2020-02-29T12:54:16Z</time>
      </trkpt>
      <trkpt lat="40.394790" lon="-4.988910">
        <ele>1330.426</ele>
        <time>2020-02-29T12:54:36Z</time>
      </trkpt>
      <trkpt lat="40.394720" lon="-4.989160">
        <ele>1329.991</ele>
        <time>2020-02-29T12:54:56Z</time>
      </trkpt>
      <trkpt lat="40.394570" lon="-4.989840">
        <ele>1332.562</ele>
        <time>2020-02-29T12:55:16Z</time>
      </trkpt>
      <trkpt lat="40.394530" lon="-4.990140">
        <ele>1333.194</ele>
        <time>2020-02-29T12:55:36Z</time>
      </trkpt>
      <trkpt lat="40.394520" lon="-4.990430">
        <ele>1333.442</ele>
        <time>2020-02-29T12:55:56Z</time>
      </trkpt>
      <trkpt lat="40.394580" lon="-4.991000">
        <ele>1335.175</ele>
        <time>2020-02-29T12:56:16Z</time>
      </trkpt>
      <trkpt lat="40.394590" lon="-4.991010">
        <ele>1335.480</ele>
        <time>2020-02-29T12:56:36Z</time>
      </trkpt>
      <trkpt lat="40.394590" lon="-4.991070">
        <ele>1335.398</ele>
        <time>2020-02-29T12:56:56Z</time>
      </trkpt>
      <trkpt lat="40.394620" lon="-4.991290">
        <ele>1335.915</ele>
        <time>2020-02-29T12:57:16Z</time>
      </trkpt>
      <trkpt lat="40.394760" lon="-4.994070">
        <ele>1341.926</ele>
        <time>2020-02-29T12:57:36Z</time>
      </trkpt>
      <trkpt lat="40.394740" lon="-4.994270">
        <ele>1341.908</ele>
        <time>2020-02-29T12:57:56Z</time>
      </trkpt>
      <trkpt lat="40.394620" lon="-4.994630">
        <ele>1341.483</ele>
        <time>2020-02-29T12:58:16Z</time>
      </trkpt>
      <trkpt lat="40.394510" lon="-4.994820">
        <ele>1342.256</ele>
        <time>2020-02-29T12:58:36Z</time>
      </trkpt>
      <trkpt lat="40.394390" lon="-4.994980">
        <ele>1343.821</ele>
        <time>2020-02-29T12:58:56Z</time>
      </trkpt>
      <trkpt lat="40.394170" lon="-4.995140">
        <ele>1345.522</ele>
        <time>2020-02-29T12:59:16Z</time>
      </trkpt>
      <trkpt lat="40.393970" lon="-4.995220">
        <ele>1347.424</ele>
        <time>2020-02-29T12:59:36Z</time>
      </trkpt>
      <trkpt lat="40.393830" lon="-4.995240">
        <ele>1349.382</ele>
        <time>2020-02-29T12:59:56Z</time>
      </trkpt>
      <trkpt lat="40.393760" lon="-4.995240">
        <ele>1351.055</ele>
        <time>2020-02-29T13:00:16Z</time>
      </trkpt>
      <trkpt lat="40.392180" lon="-4.995040">
        <ele>1368.170</ele>
        <time>2020-02-29T13:00:36Z</time>
      </trkpt>
      <trkpt lat="40.392000" lon="-4.995040">
        <ele>1368.934</ele>
        <time>2020-02-29T13:00:56Z</time>
      </trkpt>
      <trkpt lat="40.391830" lon="-4.995060">
        <ele>1368.455</ele>
        <time>2020-02-29T13:01:16Z</time>
      </trkpt>
      <trkpt lat="40.391630" lon="-4.995160">
        <ele>1368.410</ele>
        <time>2020-02-29T13:01:36Z</time>
      </trkpt>
      <trkpt lat="40.391040" lon="-4.995650">
        <ele>1369.008</ele>
        <time>2020-02-29T13:01:56Z</time>
      </trkpt>
      <trkpt lat="40.390650" lon="-4.996170">
        <ele>1367.147</ele>
        <time>2020-02-29T13:02:16Z</time>
      </trkpt>
      <trkpt lat="40.390580" lon="-4.996310">
        <ele>1366.180</ele>
        <time>2020-02-29T13:02:36Z</time>
      </trkpt>
      <trkpt lat="40.390550" lon="-4.996390">
        <ele>1365.935</ele>
        <time>2020-02-29T13:02:56Z</time>
      </trkpt>
      <trkpt lat="40.390510" lon="-4.996460">
        <ele>1365.376</ele>
        <time>2020-02-29T13:03:16Z</time>
      </trkpt>
      <trkpt lat="40.390380" lon="-4.996860">
        <ele>1363.758</ele>
        <time>2020-02-29T13:03:36Z</time>
      </trkpt>
      <trkpt lat="40.390150" lon="-4.998230">
        <ele>1360.066</ele>
        <time>2020-02-29T13:03:56Z</time>
      </trkpt>
      <trkpt lat="40.390140" lon="-4.998260">
        <ele>1360.039</ele>
        <time>2020-02-29T13:04:16Z</time>
      </trkpt>
      <trkpt lat="40.390080" lon="-4.998710">
        <ele>1360.034</ele>
        <time>2020-02-29T13:04:36Z</time>
      </trkpt>
      <trkpt lat="40.389900" lon="-5.000580">
        <ele>1352.176</ele>
        <time>2020-02-29T13:04:56Z</time>
      </trkpt>
      <trkpt lat="40.389900" lon="-5.000680">
        <ele>1351.990</ele>
        <time>2020-02-29T13:05:16Z</time>
      </trkpt>
      <trkpt lat="40.389870" lon="-5.000850">
        <ele>1351.119</ele>
        <time>2020-02-29T13:05:36Z</time>
      </trkpt>
      <trkpt lat="40.389850" lon="-5.000920">
        <ele>1350.808</ele>
        <time>2020-02-29T13:05:56Z</time>
      </trkpt>
      <trkpt lat="40.389840" lon="-5.000990">
        <ele>1350.771</ele>
        <time>2020-02-29T13:06:16Z</time>
      </trkpt>
      <trkpt lat="40.389780" lon="-5.001220">
        <ele>1349.974</ele>
        <time>2020-02-29T13:06:36Z</time>
      </trkpt>
      <trkpt lat="40.389750" lon="-5.001290">
        <ele>1349.519</ele>
        <time>2020-02-29T13:06:56Z</time>
      </trkpt>
      <trkpt lat="40.389350" lon="-5.002510">
        <ele>1342.010</ele>
        <time>2020-02-29T13:07:16Z</time>
      </trkpt>
      <trkpt lat="40.389250" lon="-5.002890">
        <ele>1340.942</ele>
        <time>2020-02-29T13:07:36Z</time>
      </trkpt>
      <trkpt lat="40.389210" lon="-5.003170">
        <ele>1339.720</ele>
        <time>2020-02-29T13:07:56Z</time>
      </trkpt>
      <trkpt lat="40.389170" lon="-5.004580">
        <ele>1331.143</ele>
        <time>2020-02-29T13:08:16Z</time>
      </trkpt>
      <trkpt lat="40.389190" lon="-5.004990">
        <ele>1329.458</ele>
        <time>2020-02-29T13:08:36Z</time>
      </trkpt>
      <trkpt lat="40.389270" lon="-5.005370">
        <ele>1326.292</ele>
        <time>2020-02-29T13:08:56Z</time>
      </trkpt>
      <trkpt lat="40.389290" lon="-5.005420">
        <ele>1326.173</ele>
        <time>2020-02-29T13:09:16Z</time>
      </trkpt>
      <trkpt lat="40.389300" lon="-5.005480">
        <ele>1325.720</ele>
        <time>2020-02-29T13:09:36Z</time>
      </trkpt>
      <trkpt lat="40.389330" lon="-5.005550">
        <ele>1325.608</ele>
        <time>2020-02-29T13:09:56Z</time>
      </trkpt>
      <trkpt lat="40.389350" lon="-5.005620">
        <ele>1325.023</ele>
        <time>2020-02-29T13:10:16Z</time>
      </trkpt>
      <trkpt lat="40.389430" lon="-5.005820">
        <ele>1323.956</ele>
        <time>2020-02-29T13:10:36Z</time>
      </trkpt>
      <trkpt lat="40.389440" lon="-5.005880">
        <ele>1323.481</ele>
        <time>2020-02-29T13:10:56Z</time>
      </trkpt>
      <trkpt lat="40.389470" lon="-5.005940">
        <ele>1323.562</ele>
        <time>2020-02-29T13:11:16Z</time>
      </trkpt>
      <trkpt lat="40.389510" lon="-5.006070">
        <ele>1322.994</ele>
        <time>2020-02-29T13:11:36Z</time>
      </trkpt>
      <trkpt lat="40.389690" lon="-5.006510">
        <ele>1322.212</ele>
        <time>2020-02-29T13:11:56Z</time>
      </trkpt>
      <trkpt lat="40.389910" lon="-5.007180">
        <ele>1318.675</ele>
        <time>2020-02-29T13:12:16Z</time>
      </trkpt>
      <trkpt lat="40.389920" lon="-5.007390">
        <ele>1318.230</ele>
        <time>2020-02-29T13:12:36Z</time>
      </trkpt>
      <trkpt lat="40.389900" lon="-5.007500">
        <ele>1317.983</ele>
        <time>2020-02-29T13:12:56Z</time>
      </trkpt>
      <trkpt lat="40.389720" lon="-5.008070">
        <ele>1315.025</ele>
        <time>2020-02-29T13:13:16Z</time>
      </trkpt>
      <trkpt lat="40.389560" lon="-5.008690">
        <ele>1313.517</ele>
        <time>2020-02-29T13:13:36Z</time>
      </trkpt>
      <trkpt lat="40.389490" lon="-5.009160">
        <ele>1310.808</ele>
        <time>2020-02-29T13:13:56Z</time>
      </trkpt>
      <trkpt lat="40.389450" lon="-5.009670">
        <ele>1307.552</ele>
        <time>2020-02-29T13:14:16Z</time>
      </trkpt>
      <trkpt lat="40.389440" lon="-5.010220">
        <ele>1304.315</ele>
        <time>2020-02-29T13:14:36Z</time>
      </trkpt>
      <trkpt lat="40.389490" lon="-5.011340">
        <ele>1299.820</ele>
        <time>2020-02-29T13:14:56Z</time>
      </trkpt>
      <trkpt lat="40.389480" lon="-5.011420">
        <ele>1299.431</ele>
        <time>2020-02-29T13:15:16Z</time>
      </trkpt>
      <trkpt lat="40.389460" lon="-5.011500">
        <ele>1298.843</ele>
        <time>2020-02-29T13:15:36Z</time>
      </trkpt>
      <trkpt lat="40.388130" lon="-5.014920">
        <ele>1279.311</ele>
        <time>2020-02-29T13:15:56Z</time>
      </trkpt>
      <trkpt lat="40.387980" lon="-5.015510">
        <ele>1274.884</ele>
        <time>2020-02-29T13:16:16Z</time>
      </trkpt>
      <trkpt lat="40.387960" lon="-5.015750">
        <ele>1272.949</ele>
        <time>2020-02-29T13:16:36Z</time>
      </trkpt>
      <trkpt lat="40.388010" lon="-5.015990">
        <ele>1270.549</ele>
        <time>2020-02-29T13:16:56Z</time>
      </trkpt>
      <trkpt lat="40.388080" lon="-5.016200">
        <ele>1267.702</ele>
        <time>2020-02-29T13:17:16Z</time>
      </trkpt>
      <trkpt lat="40.388200" lon="-5.016390">
        <ele>1265.022</ele>
        <time>2020-02-29T13:17:36Z</time>
      </trkpt>
      <trkpt lat="40.388300" lon="-5.016520">
        <ele>1263.208</ele>
        <time>2020-02-29T13:17:56Z</time>
      </trkpt>
      <trkpt lat="40.388450" lon="-5.016640">
        <ele>1261.818</ele>
        <time>2020-02-29T13:18:16Z</time>
      </trkpt>
      <trkpt lat="40.388580" lon="-5.016720">
        <ele>1261.371</ele>
        <time>2020-02-29T13:18:36Z</time>
      </trkpt>
      <trkpt lat="40.388730" lon="-5.016780">
        <ele>1261.256</ele>
        <time>2020-02-29T13:18:56Z</time>
      </trkpt>
      <trkpt lat="40.388830" lon="-5.016800">
        <ele>1261.317</ele>
        <time>2020-02-29T13:19:16Z</time>
      </trkpt>
      <trkpt lat="40.389080" lon="-5.016770">
        <ele>1263.349</ele>
        <time>2020-02-29T13:19:36Z</time>
      </trkpt>
      <trkpt lat="40.389320" lon="-5.016690">
        <ele>1262.697</ele>
        <time>2020-02-29T13:19:56Z</time>
      </trkpt>
      <trkpt lat="40.390430" lon="-5.016200">
        <ele>1252.720</ele>
        <time>2020-02-29T13:20:16Z</time>
      </trkpt>
      <trkpt lat="40.390440" lon="-5.016200">
        <ele>1252.615</ele>
        <time>2020-02-29T13:20:36Z</time>
      </trkpt>
      <trkpt lat="40.390610" lon="-5.016130">
        <ele>1251.433</ele>
        <time>2020-02-29T13:20:56Z</time>
      </trkpt>
      <trkpt lat="40.390740" lon="-5.016090">
        <ele>1250.823</ele>
        <time>2020-02-29T13:21:16Z</time>
      </trkpt>
      <trkpt lat="40.390830" lon="-5.016090">
        <ele>1250.215</ele>
        <time>2020-02-29T13:21:36Z</time>
      </trkpt>
      <trkpt lat="40.390960" lon="-5.016120">
        <ele>1249.508</ele>
        <time>2020-02-29T13:21:56Z</time>
      </trkpt>
      <trkpt lat="40.391080" lon="-5.016190">
        <ele>1248.877</ele>
        <time>2020-02-29T13:22:16Z</time>
      </trkpt>
      <trkpt lat="40.391120" lon="-5.016220">
        <ele>1248.740</ele>
        <time>2020-02-29T13:22:36Z</time>
      </trkpt>
      <trkpt lat="40.391150" lon="-5.016250">
        <ele>1248.815</ele>
        <time>2020-02-29T13:22:56Z</time>
      </trkpt>
      <trkpt lat="40.391220" lon="-5.016350">
        <ele>1248.936</ele>
        <time>2020-02-29T13:23:16Z</time>
      </trkpt>
      <trkpt lat="40.391290" lon="-5.016550">
        <ele>1249.168</ele>
        <time>2020-02-29T13:23:36Z</time>
      </trkpt>
      <trkpt lat="40.391320" lon="-5.016800">
        <ele>1248.786</ele>
        <time>2020-02-29T13:23:56Z</time>
      </trkpt>
      <trkpt lat="40.391440" lon="-5.020790">
        <ele>1230.069</ele>
        <time>2020-02-29T13:24:16Z</time>
      </trkpt>
      <trkpt lat="40.391410" lon="-5.021280">
        <ele>1231.564</ele>
        <time>2020-02-29T13:24:36Z</time>
      </trkpt>
      <trkpt lat="40.390980" lon="-5.023500">
        <ele>1241.531</ele>
        <time>2020-02-29T13:24:56Z</time>
      </trkpt>
      <trkpt lat="40.389720" lon="-5.022920">
        <ele>1243.661</ele>
        <time>2020-02-29T13:25:16Z</time>
      </trkpt>
      <trkpt lat="40.389640" lon="-5.022870">
        <ele>1244.307</ele>
        <time>2020-02-29T13:25:36Z</time>
      </trkpt>
      <trkpt lat="40.389570" lon="-5.022810">
        <ele>1244.608</ele>
        <time>2020-02-29T13:25:56Z</time>
      </trkpt>
      <trkpt lat="40.389270" lon="-5.022460">
        <ele>1243.467</ele>
        <time>2020-02-29T13:26:16Z</time>
      </trkpt>
      <trkpt lat="40.388800" lon="-5.021840">
        <ele>1242.930</ele>
        <time>2020-02-29T13:26:36Z</time>
      </trkpt>
      <trkpt lat="40.388610" lon="-5.021640">
        <ele>1241.585</ele>
        <time>2020-02-29T13:26:56Z</time>
      </trkpt>
      <trkpt lat="40.388490" lon="-5.021550">
        <ele>1242.056</ele>
        <time>2020-02-29T13:27:16Z</time>
      </trkpt>
      <trkpt lat="40.387330" lon="-5.021100">
        <ele>1237.498</ele>
        <time>2020-02-29T13:27:36Z</time>
      </trkpt>
      <trkpt lat="40.387160" lon="-5.021020">
        <ele>1236.896</ele>
        <time>2020-02-29T13:27:56Z</time>
      </trkpt>
      <trkpt lat="40.385170" lon="-5.020240">
        <ele>1230.749</ele>
        <time>2020-02-29T13:28:16Z</time>
      </trkpt>
      <trkpt lat="40.384650" lon="-5.020110">
        <ele>1231.834</ele>
        <time>2020-02-29T13:28:36Z</time>
      </trkpt>
      <trkpt lat="40.384310" lon="-5.020070">
        <ele>1232.449</ele>
        <time>2020-02-29T13:28:56Z</time>
      </trkpt>
      <trkpt lat="40.383840" lon="-5.020040">
        <ele>1233.602</ele>
        <time>2020-02-29T13:29:16Z</time>
      </trkpt>
      <trkpt lat="40.382750" lon="-5.020040">
        <ele>1230.722</ele>
        <time>2020-02-29T13:29:36Z</time>
      </trkpt>
      <trkpt lat="40.382430" lon="-5.020070">
        <ele>1231.308</ele>
        <time>2020-02-29T13:29:56Z</time>
      </trkpt>
      <trkpt lat="40.381990" lon="-5.020070">
        <ele>1230.778</ele>
        <time>2020-02-29T13:30:16Z</time>
      </trkpt>
      <trkpt lat="40.381720" lon="-5.020050">
        <ele>1230.421</ele>
        <time>2020-02-29T13:30:36Z</time>
      </trkpt>
      <trkpt lat="40.381620" lon="-5.020030">
        <ele>1230.286</ele>
        <time>2020-02-29T13:30:56Z</time>
      </trkpt>
      <trkpt lat="40.381510" lon="-5.020020">
        <ele>1230.137</ele>
        <time>2020-02-29T13:31:16Z</time>
      </trkpt>
      <trkpt lat="40.381070" lon="-5.019920">
        <ele>1230.199</ele>
        <time>2020-02-29T13:31:36Z</time>
      </trkpt>
      <trkpt lat="40.380860" lon="-5.019850">
        <ele>1230.487</ele>
        <time>2020-02-29T13:31:56Z</time>
      </trkpt>
      <trkpt lat="40.380630" lon="-5.019740">
        <ele>1230.850</ele>
        <time>2020-02-29T13:32:16Z</time>
      </trkpt>
      <trkpt lat="40.380510" lon="-5.019650">
        <ele>1231.055</ele>
        <time>2020-02-29T13:32:36Z</time>
      </trkpt>
      <trkpt lat="40.380430" lon="-5.019570">
        <ele>1231.197</ele>
        <time>2020-02-29T13:32:56Z</time>
      </trkpt>
      <trkpt lat="40.380410" lon="-5.019560">
        <ele>1231.223</ele>
        <time>2020-02-29T13:33:16Z</time>
      </trkpt>
      <trkpt lat="40.379830" lon="-5.019020">
        <ele>1230.025</ele>
        <time>2020-02-29T13:33:36Z</time>
      </trkpt>
      <trkpt lat="40.379610" lon="-5.018850">
        <ele>1230.308</ele>
        <time>2020-02-29T13:33:56Z</time>
      </trkpt>
      <trkpt lat="40.379500" lon="-5.018780">
        <ele>1230.543</ele>
        <time>2020-02-29T13:34:16Z</time>
      </trkpt>
      <trkpt lat="40.379420" lon="-5.018750">
        <ele>1230.696</ele>
        <time>2020-02-29T13:34:36Z</time>
      </trkpt>
      <trkpt lat="40.379320" lon="-5.018730">
        <ele>1231.091</ele>
        <time>2020-02-29T13:34:56Z</time>
      </trkpt>
      <trkpt lat="40.377630" lon="-5.018610">
        <ele>1230.042</ele>
        <time>2020-02-29T13:35:16Z</time>
      </trkpt>
      <trkpt lat="40.376870" lon="-5.018630">
        <ele>1230.244</ele>
        <time>2020-02-29T13:35:36Z</time>
      </trkpt>
      <trkpt lat="40.376240" lon="-5.018590">
        <ele>1230.032</ele>
        <time>2020-02-29T13:35:56Z</time>
      </trkpt>
      <trkpt lat="40.375840" lon="-5.018490">
        <ele>1230.585</ele>
        <time>2020-02-29T13:36:16Z</time>
      </trkpt>
      <trkpt lat="40.375820" lon="-5.018490">
        <ele>1230.830</ele>
        <time>2020-02-29T13:36:36Z</time>
      </trkpt>
      <trkpt lat="40.374190" lon="-5.018090">
        <ele>1237.522</ele>
        <time>2020-02-29T13:36:56Z</time>
      </trkpt>
      <trkpt lat="40.373270" lon="-5.017820">
        <ele>1230.762</ele>
        <time>2020-02-29T13:37:16Z</time>
      </trkpt>
      <trkpt lat="40.372800" lon="-5.017440">
        <ele>1229.108</ele>
        <time>2020-02-29T13:37:36Z</time>
      </trkpt>
      <trkpt lat="40.372680" lon="-5.017360">
        <ele>1229.908</ele>
        <time>2020-02-29T13:37:56Z</time>
      </trkpt>
      <trkpt lat="40.372670" lon="-5.017350">
        <ele>1229.946</ele>
        <time>2020-02-29T13:38:16Z</time>
      </trkpt>
      <trkpt lat="40.371870" lon="-5.016970">
        <ele>1228.569</ele>
        <time>2020-02-29T13:38:36Z</time>
      </trkpt>
      <trkpt lat="40.371680" lon="-5.016900">
        <ele>1227.514</ele>
        <time>2020-02-29T13:38:56Z</time>
      </trkpt>
      <trkpt lat="40.371670" lon="-5.016900">
        <ele>1227.575</ele>
        <time>2020-02-29T13:39:16Z</time>
      </trkpt>
      <trkpt lat="40.371560" lon="-5.016860">
        <ele>1226.867</ele>
        <time>2020-02-29T13:39:36Z</time>
      </trkpt>
      <trkpt lat="40.368810" lon="-5.016260">
        <ele>1226.775</ele>
        <time>2020-02-29T13:39:56Z</time>
      </trkpt>
      <trkpt lat="40.368010" lon="-5.016110">
        <ele>1226.048</ele>
        <time>2020-02-29T13:40:16Z</time>
      </trkpt>
      <trkpt lat="40.365100" lon="-5.015650">
        <ele>1231.923</ele>
        <time>2020-02-29T13:40:36Z</time>
      </trkpt>
      <trkpt lat="40.364580" lon="-5.015600">
        <ele>1232.124</ele>
        <time>2020-02-29T13:40:56Z</time>
      </trkpt>
      <trkpt lat="40.364370" lon="-5.015630">
        <ele>1233.704</ele>
        <time>2020-02-29T13:41:16Z</time>
      </trkpt>
      <trkpt lat="40.364000" lon="-5.015640">
        <ele>1233.314</ele>
        <time>2020-02-29T13:41:36Z</time>
      </trkpt>
      <trkpt lat="40.363560" lon="-5.015590">
        <ele>1231.608</ele>
        <time>2020-02-29T13:41:56Z</time>
      </trkpt>
      <trkpt lat="40.362120" lon="-5.015310">
        <ele>1233.976</ele>
        <time>2020-02-29T13:42:16Z</time>
      </trkpt>
      <trkpt lat="40.361680" lon="-5.015270">
        <ele>1234.839</ele>
        <time>2020-02-29T13:42:36Z</time>
      </trkpt>
      <trkpt lat="40.361510" lon="-5.015280">
        <ele>1235.614</ele>
        <time>2020-02-29T13:42:56Z</time>
      </trkpt>
      <trkpt lat="40.361250" lon="-5.015320">
        <ele>1236.775</ele>
        <time>2020-02-29T13:43:16Z</time>
      </trkpt>
      <trkpt lat="40.359900" lon="-5.015660">
        <ele>1239.697</ele>
        <time>2020-02-29T13:43:36Z</time>
      </trkpt>
      <trkpt lat="40.359640" lon="-5.015650">
        <ele>1239.365</ele>
        <time>2020-02-29T13:43:56Z</time>
      </trkpt>
      <trkpt lat="40.359200" lon="-5.015570">
        <ele>1239.188</ele>
        <time>2020-02-29T13:44:16Z</time>
      </trkpt>
      <trkpt lat="40.358920" lon="-5.015480">
        <ele>1238.733</ele>
        <time>2020-02-29T13:44:36Z</time>
      </trkpt>
      <trkpt lat="40.357530" lon="-5.015130">
        <ele>1244.496</ele>
        <time>2020-02-29T13:44:56Z</time>
      </trkpt>
      <trkpt lat="40.357420" lon="-5.015120">
        <ele>1244.631</ele>
        <time>2020-02-29T13:45:16Z</time>
      </trkpt>
      <trkpt lat="40.357300" lon="-5.015120">
        <ele>1244.724</ele>
        <time>2020-02-29T13:45:36Z</time>
      </trkpt>
      <trkpt lat="40.357190" lon="-5.015140">
        <ele>1244.808</ele>
        <time>2020-02-29T13:45:56Z</time>
      </trkpt>
      <trkpt lat="40.357020" lon="-5.015190">
        <ele>1244.523</ele>
        <time>2020-02-29T13:46:16Z</time>
      </trkpt>
      <trkpt lat="40.355760" lon="-5.015670">
        <ele>1245.266</ele>
        <time>2020-02-29T13:46:36Z</time>
      </trkpt>
      <trkpt lat="40.355070" lon="-5.015880">
        <ele>1247.331</ele>
        <time>2020-02-29T13:46:56Z</time>
      </trkpt>
      <trkpt lat="40.354870" lon="-5.015900">
        <ele>1248.222</ele>
        <time>2020-02-29T13:47:16Z</time>
      </trkpt>
      <trkpt lat="40.354530" lon="-5.015910">
        <ele>1248.694</ele>
        <time>2020-02-29T13:47:36Z</time>
      </trkpt>
      <trkpt lat="40.354340" lon="-5.015880">
        <ele>1248.092</ele>
        <time>2020-02-29T13:47:56Z</time>
      </trkpt>
      <trkpt lat="40.354220" lon="-5.015890">
        <ele>1247.895</ele>
        <time>2020-02-29T13:48:16Z</time>
      </trkpt>
      <trkpt lat="40.353260" lon="-5.015890">
        <ele>1248.490</ele>
        <time>2020-02-29T13:48:36Z</time>
      </trkpt>
      <trkpt lat="40.353140" lon="-5.015880">
        <ele>1248.374</ele>
        <time>2020-02-29T13:48:56Z</time>
      </trkpt>
      <trkpt lat="40.353000" lon="-5.015840">
        <ele>1248.256</ele>
        <time>2020-02-29T13:49:16Z</time>
      </trkpt>
      <trkpt lat="40.352900" lon="-5.015800">
        <ele>1248.421</ele>
        <time>2020-02-29T13:49:36Z</time>
      </trkpt>
      <trkpt lat="40.352810" lon="-5.015750">
        <ele>1248.608</ele>
        <time>2020-02-29T13:49:56Z</time>
      </trkpt>
      <trkpt lat="40.352760" lon="-5.015710">
        <ele>1248.651</ele>
        <time>2020-02-29T13:50:16Z</time>
      </trkpt>
      <trkpt lat="40.352720" lon="-5.015690">
        <ele>1248.754</ele>
        <time>2020-02-29T13:50:36Z</time>
      </trkpt>
      <trkpt lat="40.352650" lon="-5.015640">
        <ele>1248.879</ele>
        <time>2020-02-29T13:50:56Z</time>
      </trkpt>
      <trkpt lat="40.352480" lon="-5.015480">
        <ele>1249.170</ele>
        <time>2020-02-29T13:51:16Z</time>
      </trkpt>
      <trkpt lat="40.352270" lon="-5.015250">
        <ele>1249.792</ele>
        <time>2020-02-29T13:51:36Z</time>
      </trkpt>
      <trkpt lat="40.352130" lon="-5.015150">
        <ele>1251.070</ele>
        <time>2020-02-29T13:51:56Z</time>
      </trkpt>
      <trkpt lat="40.351940" lon="-5.015050">
        <ele>1254.173</ele>
        <time>2020-02-29T13:52:16Z</time>
      </trkpt>
      <trkpt lat="40.351890" lon="-5.015030">
        <ele>1255.088</ele>
        <time>2020-02-29T13:52:36Z</time>
      </trkpt>
      <trkpt lat="40.351240" lon="-5.014680">
        <ele>1258.612</ele>
        <time>2020-02-29T13:52:56Z</time>
      </trkpt>
      <trkpt lat="40.350940" lon="-5.014560">
        <ele>1260.432</ele>
        <time>2020-02-29T13:53:16Z</time>
      </trkpt>
      <trkpt lat="40.350620" lon="-5.014470">
        <ele>1259.705</ele>
        <time>2020-02-29T13:53:36Z</time>
      </trkpt>
      <trkpt lat="40.350550" lon="-5.014460">
        <ele>1259.408</ele>
        <time>2020-02-29T13:53:56Z</time>
      </trkpt>
      <trkpt lat="40.350530" lon="-5.014450">
        <ele>1259.265</ele>
        <time>2020-02-29T13:54:16Z</time>
      </trkpt>
      <trkpt lat="40.350490" lon="-5.014450">
        <ele>1259.268</ele>
        <time>2020-02-29T13:54:36Z</time>
      </trkpt>
      <trkpt lat="40.350360" lon="-5.014430">
        <ele>1259.193</ele>
        <time>2020-02-29T13:54:56Z</time>
      </trkpt>
      <trkpt lat="40.349520" lon="-5.014630">
        <ele>1264.844</ele>
        <time>2020-02-29T13:55:16Z</time>
      </trkpt>
      <trkpt lat="40.347850" lon="-5.014860">
        <ele>1260.096</ele>
        <time>2020-02-29T13:55:36Z</time>
      </trkpt>
      <trkpt lat="40.347270" lon="-5.014910">
        <ele>1260.614</ele>
        <time>2020-02-29T13:55:56Z</time>
      </trkpt>
      <trkpt lat="40.347100" lon="-5.014900">
        <ele>1261.257</ele>
        <time>2020-02-29T13:56:16Z</time>
      </trkpt>
      <trkpt lat="40.344570" lon="-5.014440">
        <ele>1270.132</ele>
        <time>2020-02-29T13:56:36Z</time>
      </trkpt>
      <trkpt lat="40.344410" lon="-5.014420">
        <ele>1270.881</ele>
        <time>2020-02-29T13:56:56Z</time>
      </trkpt>
      <trkpt lat="40.344210" lon="-5.014420">
        <ele>1270.861</ele>
        <time>2020-02-29T13:57:16Z</time>
      </trkpt>
      <trkpt lat="40.340270" lon="-5.014780">
        <ele>1280.417</ele>
        <time>2020-02-29T13:57:36Z</time>
      </trkpt>
      <trkpt lat="40.339910" lon="-5.014680">
        <ele>1279.008</ele>
        <time>2020-02-29T13:57:56Z</time>
      </trkpt>
      <trkpt lat="40.339700" lon="-5.014580">
        <ele>1279.032</ele>
        <time>2020-02-29T13:58:16Z</time>
      </trkpt>
      <trkpt lat="40.339460" lon="-5.014390">
        <ele>1279.075</ele>
        <time>2020-02-29T13:58:36Z</time>
      </trkpt>
      <trkpt lat="40.338670" lon="-5.013610">
        <ele>1280.880</ele>
        <time>2020-02-29T13:58:56Z</time>
      </trkpt>
      <trkpt lat="40.338180" lon="-5.013230">
        <ele>1285.371</ele>
        <time>2020-02-29T13:59:16Z</time>
      </trkpt>
      <trkpt lat="40.337950" lon="-5.013110">
        <ele>1286.893</ele>
        <time>2020-02-29T13:59:36Z</time>
      </trkpt>
      <trkpt lat="40.337720" lon="-5.013020">
        <ele>1288.251</ele>
        <time>2020-02-29T13:59:56Z</time>
      </trkpt>
      <trkpt lat="40.337560" lon="-5.012980">
        <ele>1288.874</ele>
        <time>2020-02-29T14:00:16Z</time>
      </trkpt>
      <trkpt lat="40.337400" lon="-5.012970">
        <ele>1289.079</ele>
        <time>2020-02-29T14:00:36Z</time>
      </trkpt>
      <trkpt lat="40.337230" lon="-5.013010">
        <ele>1289.061</ele>
        <time>2020-02-29T14:00:56Z</time>
      </trkpt>
      <trkpt lat="40.337040" lon="-5.013110">
        <ele>1289.021</ele>
        <time>2020-02-29T14:01:16Z</time>
      </trkpt>
      <trkpt lat="40.336730" lon="-5.013300">
        <ele>1289.513</ele>
        <time>2020-02-29T14:01:36Z</time>
      </trkpt>
      <trkpt lat="40.336520" lon="-5.013390">
        <ele>1289.408</ele>
        <time>2020-02-29T14:01:56Z</time>
      </trkpt>
      <trkpt lat="40.336340" lon="-5.013370">
        <ele>1289.920</ele>
        <time>2020-02-29T14:02:16Z</time>
      </trkpt>
      <trkpt lat="40.336270" lon="-5.013340">
        <ele>1290.053</ele>
        <time>2020-02-29T14:02:36Z</time>
      </trkpt>
      <trkpt lat="40.336180" lon="-5.013270">
        <ele>1290.948</ele>
        <time>2020-02-29T14:02:56Z</time>
      </trkpt>
      <trkpt lat="40.335740" lon="-5.012810">
        <ele>1292.419</ele>
        <time>2020-02-29T14:03:16Z</time>
      </trkpt>
      <trkpt lat="40.335660" lon="-5.012770">
        <ele>1292.531</ele>
        <time>2020-02-29T14:03:36Z</time>
      </trkpt>
      <trkpt lat="40.335320" lon="-5.012690">
        <ele>1295.569</ele>
        <time>2020-02-29T14:03:56Z</time>
      </trkpt>
      <trkpt lat="40.335060" lon="-5.012670">
        <ele>1297.312</ele>
        <time>2020-02-29T14:04:16Z</time>
      </trkpt>
      <trkpt lat="40.334880" lon="-5.012640">
        <ele>1298.697</ele>
        <time>2020-02-29T14:04:36Z</time>
      </trkpt>
      <trkpt lat="40.334710" lon="-5.012630">
        <ele>1299.784</ele>
        <time>2020-02-29T14:04:56Z</time>
      </trkpt>
      <trkpt lat="40.334490" lon="-5.012670">
        <ele>1300.807</ele>
        <time>2020-02-29T14:05:16Z</time>
      </trkpt>
      <trkpt lat="40.334280" lon="-5.012790">
        <ele>1299.917</ele>
        <time>2020-02-29T14:05:36Z</time>
      </trkpt>
      <trkpt lat="40.334180" lon="-5.012820">
        <ele>1299.808</ele>
        <time>2020-02-29T14:05:56Z</time>
      </trkpt>
      <trkpt lat="40.333840" lon="-5.012880">
        <ele>1299.642</ele>
        <time>2020-02-29T14:06:16Z</time>
      </trkpt>
      <trkpt lat="40.332080" lon="-5.012700">
        <ele>1308.375</ele>
        <time>2020-02-29T14:06:36Z</time>
      </trkpt>
      <trkpt lat="40.331760" lon="-5.012630">
        <ele>1310.940</ele>
        <time>2020-02-29T14:06:56Z</time>
      </trkpt>
      <trkpt lat="40.331420" lon="-5.012580">
        <ele>1313.021</ele>
        <time>2020-02-29T14:07:16Z</time>
      </trkpt>
      <trkpt lat="40.331200" lon="-5.012470">
        <ele>1313.613</ele>
        <time>2020-02-29T14:07:36Z</time>
      </trkpt>
      <trkpt lat="40.330990" lon="-5.012330">
        <ele>1314.851</ele>
        <time>2020-02-29T14:07:56Z</time>
      </trkpt>
      <trkpt lat="40.330800" lon="-5.012220">
        <ele>1315.994</ele>
        <time>2020-02-29T14:08:16Z</time>
      </trkpt>
      <trkpt lat="40.330520" lon="-5.012030">
        <ele>1317.219</ele>
        <time>2020-02-29T14:08:36Z</time>
      </trkpt>
      <trkpt lat="40.329720" lon="-5.011270">
        <ele>1324.664</ele>
        <time>2020-02-29T14:08:56Z</time>
      </trkpt>
      <trkpt lat="40.329120" lon="-5.010810">
        <ele>1329.206</ele>
        <time>2020-02-29T14:09:16Z</time>
      </trkpt>
      <trkpt lat="40.328950" lon="-5.010650">
        <ele>1330.316</ele>
        <time>2020-02-29T14:09:36Z</time>
      </trkpt>
      <trkpt lat="40.328860" lon="-5.010530">
        <ele>1331.408</ele>
        <time>2020-02-29T14:09:56Z</time>
      </trkpt>
      <trkpt lat="40.328740" lon="-5.010400">
        <ele>1333.210</ele>
        <time>2020-02-29T14:10:16Z</time>
      </trkpt>
      <trkpt lat="40.328680" lon="-5.010350">
        <ele>1334.063</ele>
        <time>2020-02-29T14:10:36Z</time>
      </trkpt>
      <trkpt lat="40.328570" lon="-5.010290">
        <ele>1335.328</ele>
        <time>2020-02-29T14:10:56Z</time>
      </trkpt>
      <trkpt lat="40.328460" lon="-5.010260">
        <ele>1336.859</ele>
        <time>2020-02-29T14:11:16Z</time>
      </trkpt>
      <trkpt lat="40.328120" lon="-5.010230">
        <ele>1340.261</ele>
        <time>2020-02-29T14:11:36Z</time>
      </trkpt>
      <trkpt lat="40.327930" lon="-5.010280">
        <ele>1342.759</ele>
        <time>2020-02-29T14:11:56Z</time>
      </trkpt>
      <trkpt lat="40.327850" lon="-5.010320">
        <ele>1344.172</ele>
        <time>2020-02-29T14:12:16Z</time>
      </trkpt>
      <trkpt lat="40.327810" lon="-5.010350">
        <ele>1344.847</ele>
        <time>2020-02-29T14:12:36Z</time>
      </trkpt>
      <trkpt lat="40.327730" lon="-5.010450">
        <ele>1345.442</ele>
        <time>2020-02-29T14:12:56Z</time>
      </trkpt>
      <trkpt lat="40.327680" lon="-5.010540">
        <ele>1345.522</ele>
        <time>2020-02-29T14:13:16Z</time>
      </trkpt>
      <trkpt lat="40.327640" lon="-5.010640">
        <ele>1345.714</ele>
        <time>2020-02-29T14:13:36Z</time>
      </trkpt>
      <trkpt lat="40.327560" lon="-5.010930">
        <ele>1346.308</ele>
        <time>2020-02-29T14:13:56Z</time>
      </trkpt>
      <trkpt lat="40.327470" lon="-5.011160">
        <ele>1347.528</ele>
        <time>2020-02-29T14:14:16Z</time>
      </trkpt>
      <trkpt lat="40.327470" lon="-5.011170">
        <ele>1347.431</ele>
        <time>2020-02-29T14:14:36Z</time>
      </trkpt>
      <trkpt lat="40.327320" lon="-5.011680">
        <ele>1347.196</ele>
        <time>2020-02-29T14:14:56Z</time>
      </trkpt>
      <trkpt lat="40.327170" lon="-5.011880">
        <ele>1349.437</ele>
        <time>2020-02-29T14:15:16Z</time>
      </trkpt>
      <trkpt lat="40.327030" lon="-5.011970">
        <ele>1350.489</ele>
        <time>2020-02-29T14:15:36Z</time>
      </trkpt>
      <trkpt lat="40.326890" lon="-5.011990">
        <ele>1351.937</ele>
        <time>2020-02-29T14:15:56Z</time>
      </trkpt>
      <trkpt lat="40.326770" lon="-5.011990">
        <ele>1353.030</ele>
        <time>2020-02-29T14:16:16Z</time>
      </trkpt>
      <trkpt lat="40.326740" lon="-5.011980">
        <ele>1353.515</ele>
        <time>2020-02-29T14:16:36Z</time>
      </trkpt>
      <trkpt lat="40.326690" lon="-5.011980">
        <ele>1354.014</ele>
        <time>2020-02-29T14:16:56Z</time>
      </trkpt>
      <trkpt lat="40.326610" lon="-5.011970">
        <ele>1355.154</ele>
        <time>2020-02-29T14:17:16Z</time>
      </trkpt>
      <trkpt lat="40.326500" lon="-5.011990">
        <ele>1356.209</ele>
        <time>2020-02-29T14:17:36Z</time>
      </trkpt>
      <trkpt lat="40.326430" lon="-5.012020">
        <ele>1356.908</ele>
        <time>2020-02-29T14:17:56Z</time>
      </trkpt>
      <trkpt lat="40.326340" lon="-5.012070">
        <ele>1357.715</ele>
        <time>2020-02-29T14:18:16Z</time>
      </trkpt>
      <trkpt lat="40.326240" lon="-5.012150">
        <ele>1358.318</ele>
        <time>2020-02-29T14:18:36Z</time>
      </trkpt>
      <trkpt lat="40.326240" lon="-5.012160">
        <ele>1358.263</ele>
        <time>2020-02-29T14:18:56Z</time>
      </trkpt>
      <trkpt lat="40.326170" lon="-5.012220">
        <ele>1358.444</ele>
        <time>2020-02-29T14:19:16Z</time>
      </trkpt>
      <trkpt lat="40.326110" lon="-5.012290">
        <ele>1358.356</ele>
        <time>2020-02-29T14:19:36Z</time>
      </trkpt>
      <trkpt lat="40.326060" lon="-5.012390">
        <ele>1358.844</ele>
        <time>2020-02-29T14:19:56Z</time>
      </trkpt>
      <trkpt lat="40.326060" lon="-5.012420">
        <ele>1358.547</ele>
        <time>2020-02-29T14:20:16Z</time>
      </trkpt>
      <trkpt lat="40.326040" lon="-5.012470">
        <ele>1358.642</ele>
        <time>2020-02-29T14:20:36Z</time>
      </trkpt>
      <trkpt lat="40.326020" lon="-5.012550">
        <ele>1358.576</ele>
        <time>2020-02-29T14:20:56Z</time>
      </trkpt>
      <trkpt lat="40.325960" lon="-5.012700">
        <ele>1359.190</ele>
        <time>2020-02-29T14:21:16Z</time>
      </trkpt>
      <trkpt lat="40.325900" lon="-5.012800">
        <ele>1359.819</ele>
        <time>2020-02-29T14:21:36Z</time>
      </trkpt>
      <trkpt lat="40.325700" lon="-5.013070">
        <ele>1361.608</ele>
        <time>2020-02-29T14:21:56Z</time>
      </trkpt>
      <trkpt lat="40.325600" lon="-5.013180">
        <ele>1362.991</ele>
        <time>2020-02-29T14:22:16Z</time>
      </trkpt>
      <trkpt lat="40.325510" lon="-5.013260">
        <ele>1363.614</ele>
        <time>2020-02-29T14:22:36Z</time>
      </trkpt>
      <trkpt lat="40.325440" lon="-5.013300">
        <ele>1363.849</ele>
        <time>2020-02-29T14:22:56Z</time>
      </trkpt>
      <trkpt lat="40.325390" lon="-5.013340">
        <ele>1363.790</ele>
        <time>2020-02-29T14:23:16Z</time>
      </trkpt>
      <trkpt lat="40.325340" lon="-5.013370">
        <ele>1363.742</ele>
        <time>2020-02-29T14:23:36Z</time>
      </trkpt>
      <trkpt lat="40.325260" lon="-5.013390">
        <ele>1364.290</ele>
        <time>2020-02-29T14:23:56Z</time>
      </trkpt>
      <trkpt lat="40.325110" lon="-5.013370">
        <ele>1366.243</ele>
        <time>2020-02-29T14:24:16Z</time>
      </trkpt>
      <trkpt lat="40.325060" lon="-5.013350">
        <ele>1367.178</ele>
        <time>2020-02-29T14:24:36Z</time>
      </trkpt>
      <trkpt lat="40.325050" lon="-5.013350">
        <ele>1367.227</ele>
        <time>2020-02-29T14:24:56Z</time>
      </trkpt>
      <trkpt lat="40.325000" lon="-5.013330">
        <ele>1368.168</ele>
        <time>2020-02-29T14:25:16Z</time>
      </trkpt>
      <trkpt lat="40.324870" lon="-5.013310">
        <ele>1369.414</ele>
        <time>2020-02-29T14:25:36Z</time>
      </trkpt>
      <trkpt lat="40.324600" lon="-5.013310">
        <ele>1371.908</ele>
        <time>2020-02-29T14:25:56Z</time>
      </trkpt>
      <trkpt lat="40.324380" lon="-5.013350">
        <ele>1374.196</ele>
        <time>2020-02-29T14:26:16Z</time>
      </trkpt>
      <trkpt lat="40.324330" lon="-5.013370">
        <ele>1374.969</ele>
        <time>2020-02-29T14:26:36Z</time>
      </trkpt>
      <trkpt lat="40.324300" lon="-5.013390">
        <ele>1375.214</ele>
        <time>2020-02-29T14:26:56Z</time>
      </trkpt>
      <trkpt lat="40.324150" lon="-5.013460">
        <ele>1377.065</ele>
        <time>2020-02-29T14:27:16Z</time>
      </trkpt>
      <trkpt lat="40.324080" lon="-5.013510">
        <ele>1377.137</ele>
        <time>2020-02-29T14:27:36Z</time>
      </trkpt>
      <trkpt lat="40.324020" lon="-5.013570">
        <ele>1376.965</ele>
        <time>2020-02-29T14:27:56Z</time>
      </trkpt>
      <trkpt lat="40.323830" lon="-5.013800">
        <ele>1378.518</ele>
        <time>2020-02-29T14:28:16Z</time>
      </trkpt>
      <trkpt lat="40.323710" lon="-5.013900">
        <ele>1380.263</ele>
        <time>2020-02-29T14:28:36Z</time>
      </trkpt>
      <trkpt lat="40.323590" lon="-5.013970">
        <ele>1381.722</ele>
        <time>2020-02-29T14:28:56Z</time>
      </trkpt>
      <trkpt lat="40.323580" lon="-5.013980">
        <ele>1381.862</ele>
        <time>2020-02-29T14:29:16Z</time>
      </trkpt>
      <trkpt lat="40.323460" lon="-5.014030">
        <ele>1382.908</ele>
        <time>2020-02-29T14:29:36Z</time>
      </trkpt>
      <trkpt lat="40.323250" lon="-5.014090">
        <ele>1384.308</ele>
        <time>2020-02-29T14:29:56Z</time>
      </trkpt>
      <trkpt lat="40.322980" lon="-5.014140">
        <ele>1385.776</ele>
        <time>2020-02-29T14:30:16Z</time>
      </trkpt>
      <trkpt lat="40.322920" lon="-5.014200">
        <ele>1385.869</ele>
        <time>2020-02-29T14:30:36Z</time>
      </trkpt>
      <trkpt lat="40.322880" lon="-5.014220">
        <ele>1386.094</ele>
        <time>2020-02-29T14:30:56Z</time>
      </trkpt>
      <trkpt lat="40.322740" lon="-5.014220">
        <ele>1387.195</ele>
        <time>2020-02-29T14:31:16Z</time>
      </trkpt>
      <trkpt lat="40.322650" lon="-5.014210">
        <ele>1387.857</ele>
        <time>2020-02-29T14:31:36Z</time>
      </trkpt>
      <trkpt lat="40.322580" lon="-5.014210">
        <ele>1388.365</ele>
        <time>2020-02-29T14:31:56Z</time>
      </trkpt>
      <trkpt lat="40.322470" lon="-5.014190">
        <ele>1388.978</ele>
        <time>2020-02-29T14:32:16Z</time>
      </trkpt>
      <trkpt lat="40.322430" lon="-5.014190">
        <ele>1389.093</ele>
        <time>2020-02-29T14:32:36Z</time>
      </trkpt>
      <trkpt lat="40.322340" lon="-5.014170">
        <ele>1389.065</ele>
        <time>2020-02-29T14:32:56Z</time>
      </trkpt>
      <trkpt lat="40.322160" lon="-5.014080">
        <ele>1389.568</ele>
        <time>2020-02-29T14:33:16Z</time>
      </trkpt>
      <trkpt lat="40.322040" lon="-5.013950">
        <ele>1389.914</ele>
        <time>2020-02-29T14:33:36Z</time>
      </trkpt>
      <trkpt lat="40.322030" lon="-5.013950">
        <ele>1389.908</ele>
        <time>2020-02-29T14:33:56Z</time>
      </trkpt>
      <trkpt lat="40.321370" lon="-5.012920">
        <ele>1389.140</ele>
        <time>2020-02-29T14:34:16Z</time>
      </trkpt>
      <trkpt lat="40.321330" lon="-5.012820">
        <ele>1389.363</ele>
        <time>2020-02-29T14:34:36Z</time>
      </trkpt>
      <trkpt lat="40.321010" lon="-5.012370">
        <ele>1386.078</ele>
        <time>2020-02-29T14:34:56Z</time>
      </trkpt>
      <trkpt lat="40.320710" lon="-5.011890">
        <ele>1382.089</ele>
        <time>2020-02-29T14:35:16Z</time>
      </trkpt>
      <trkpt lat="40.320670" lon="-5.011810">
        <ele>1381.841</ele>
        <time>2020-02-29T14:35:36Z</time>
      </trkpt>
      <trkpt lat="40.320630" lon="-5.011630">
        <ele>1382.589</ele>
        <time>2020-02-29T14:35:56Z</time>
      </trkpt>
      <trkpt lat="40.320630" lon="-5.011470">
        <ele>1381.842</ele>
        <time>2020-02-29T14:36:16Z</time>
      </trkpt>
      <trkpt lat="40.320640" lon="-5.011360">
        <ele>1381.797</ele>
        <time>2020-02-29T14:36:36Z</time>
      </trkpt>
      <trkpt lat="40.320690" lon="-5.011200">
        <ele>1382.657</ele>
        <time>2020-02-29T14:36:56Z</time>
      </trkpt>
      <trkpt lat="40.320730" lon="-5.011020">
        <ele>1384.200</ele>
        <time>2020-02-29T14:37:16Z</time>
      </trkpt>
      <trkpt lat="40.320730" lon="-5.010950">
        <ele>1384.420</ele>
        <time>2020-02-29T14:37:36Z</time>
      </trkpt>
      <trkpt lat="40.320700" lon="-5.010830">
        <ele>1383.808</ele>
        <time>2020-02-29T14:37:56Z</time>
      </trkpt>
      <trkpt lat="40.320690" lon="-5.010830">
        <ele>1383.499</ele>
        <time>2020-02-29T14:38:16Z</time>
      </trkpt>
      <trkpt lat="40.320680" lon="-5.010810">
        <ele>1383.712</ele>
        <time>2020-02-29T14:38:36Z</time>
      </trkpt>
      <trkpt lat="40.320580" lon="-5.010690">
        <ele>1383.737</ele>
        <time>2020-02-29T14:38:56Z</time>
      </trkpt>
      <trkpt lat="40.320560" lon="-5.010680">
        <ele>1383.248</ele>
        <time>2020-02-29T14:39:16Z</time>
      </trkpt>
      <trkpt lat="40.320460" lon="-5.010590">
        <ele>1379.270</ele>
        <time>2020-02-29T14:39:36Z</time>
      </trkpt>
      <trkpt lat="40.320010" lon="-5.010320">
        <ele>1370.818</ele>
        <time>2020-02-29T14:39:56Z</time>
      </trkpt>
      <trkpt lat="40.319820" lon="-5.010170">
        <ele>1368.231</ele>
        <time>2020-02-29T14:40:16Z</time>
      </trkpt>
      <trkpt lat="40.319690" lon="-5.010090">
        <ele>1365.876</ele>
        <time>2020-02-29T14:40:36Z</time>
      </trkpt>
      <trkpt lat="40.319440" lon="-5.010040">
        <ele>1353.845</ele>
        <time>2020-02-29T14:40:56Z</time>
      </trkpt>
      <trkpt lat="40.319350" lon="-5.010010">
        <ele>1350.947</ele>
        <time>2020-02-29T14:41:16Z</time>
      </trkpt>
      <trkpt lat="40.319230" lon="-5.010000">
        <ele>1346.511</ele>
        <time>2020-02-29T14:41:36Z</time>
      </trkpt>
      <trkpt lat="40.319180" lon="-5.010010">
        <ele>1344.008</ele>
        <time>2020-02-29T14:41:56Z</time>
      </trkpt>
      <trkpt lat="40.319070" lon="-5.010070">
        <ele>1345.968</ele>
        <time>2020-02-29T14:42:16Z</time>
      </trkpt>
      <trkpt lat="40.319060" lon="-5.010070">
        <ele>1346.591</ele>
        <time>2020-02-29T14:42:36Z</time>
      </trkpt>
      <trkpt lat="40.318790" lon="-5.010180">
        <ele>1356.446</ele>
        <time>2020-02-29T14:42:56Z</time>
      </trkpt>
      <trkpt lat="40.318740" lon="-5.010210">
        <ele>1357.277</ele>
        <time>2020-02-29T14:43:16Z</time>
      </trkpt>
      <trkpt lat="40.318680" lon="-5.010270">
        <ele>1357.359</ele>
        <time>2020-02-29T14:43:36Z</time>
      </trkpt>
      <trkpt lat="40.318620" lon="-5.010350">
        <ele>1356.557</ele>
        <time>2020-02-29T14:43:56Z</time>
      </trkpt>
      <trkpt lat="40.318520" lon="-5.010430">
        <ele>1354.480</ele>
        <time>2020-02-29T14:44:16Z</time>
      </trkpt>
      <trkpt lat="40.318450" lon="-5.010470">
        <ele>1353.435</ele>
        <time>2020-02-29T14:44:36Z</time>
      </trkpt>
      <trkpt lat="40.318250" lon="-5.010510">
        <ele>1352.665</ele>
        <time>2020-02-29T14:44:56Z</time>
      </trkpt>
      <trkpt lat="40.318050" lon="-5.010490">
        <ele>1352.368</ele>
        <time>2020-02-29T14:45:16Z</time>
      </trkpt>
      <trkpt lat="40.317830" lon="-5.010440">
        <ele>1352.114</ele>
        <time>2020-02-29T14:45:36Z</time>
      </trkpt>
      <trkpt lat="40.317490" lon="-5.010320">
        <ele>1350.808</ele>
        <time>2020-02-29T14:45:56Z</time>
      </trkpt>
      <trkpt lat="40.317350" lon="-5.010260">
        <ele>1350.350</ele>
        <time>2020-02-29T14:46:16Z</time>
      </trkpt>
      <trkpt lat="40.317230" lon="-5.010180">
        <ele>1350.053</ele>
        <time>2020-02-29T14:46:36Z</time>
      </trkpt>
      <trkpt lat="40.317130" lon="-5.010130">
        <ele>1348.548</ele>
        <time>2020-02-29T14:46:56Z</time>
      </trkpt>
      <trkpt lat="40.316970" lon="-5.010020">
        <ele>1347.919</ele>
        <time>2020-02-29T14:47:16Z</time>
      </trkpt>
      <trkpt lat="40.316820" lon="-5.009940">
        <ele>1345.981</ele>
        <time>2020-02-29T14:47:36Z</time>
      </trkpt>
      <trkpt lat="40.315900" lon="-5.009530">
        <ele>1332.249</ele>
        <time>2020-02-29T14:47:56Z</time>
      </trkpt>
      <trkpt lat="40.315860" lon="-5.009520">
        <ele>1331.042</ele>
        <time>2020-02-29T14:48:16Z</time>
      </trkpt>
      <trkpt lat="40.315630" lon="-5.009420">
        <ele>1329.197</ele>
        <time>2020-02-29T14:48:36Z</time>
      </trkpt>
      <trkpt lat="40.315450" lon="-5.009320">
        <ele>1329.236</ele>
        <time>2020-02-29T14:48:56Z</time>
      </trkpt>
      <trkpt lat="40.315370" lon="-5.009260">
        <ele>1328.917</ele>
        <time>2020-02-29T14:49:16Z</time>
      </trkpt>
      <trkpt lat="40.315290" lon="-5.009180">
        <ele>1328.218</ele>
        <time>2020-02-29T14:49:36Z</time>
      </trkpt>
      <trkpt lat="40.315210" lon="-5.009080">
        <ele>1328.608</ele>
        <time>2020-02-29T14:49:56Z</time>
      </trkpt>
      <trkpt lat="40.315090" lon="-5.008860">
        <ele>1327.997</ele>
        <time>2020-02-29T14:50:16Z</time>
      </trkpt>
      <trkpt lat="40.315030" lon="-5.008690">
        <ele>1326.120</ele>
        <time>2020-02-29T14:50:36Z</time>
      </trkpt>
      <trkpt lat="40.314990" lon="-5.008530">
        <ele>1325.355</ele>
        <time>2020-02-29T14:50:56Z</time>
      </trkpt>
      <trkpt lat="40.314940" lon="-5.008160">
        <ele>1325.056</ele>
        <time>2020-02-29T14:51:16Z</time>
      </trkpt>
      <trkpt lat="40.314830" lon="-5.007580">
        <ele>1319.878</ele>
        <time>2020-02-29T14:51:36Z</time>
      </trkpt>
      <trkpt lat="40.314740" lon="-5.007340">
        <ele>1320.656</ele>
        <time>2020-02-29T14:51:56Z</time>
      </trkpt>
      <trkpt lat="40.314670" lon="-5.007230">
        <ele>1319.979</ele>
        <time>2020-02-29T14:52:16Z</time>
      </trkpt>
      <trkpt lat="40.314540" lon="-5.007060">
        <ele>1319.444</ele>
        <time>2020-02-29T14:52:36Z</time>
      </trkpt>
      <trkpt lat="40.314460" lon="-5.007000">
        <ele>1318.375</ele>
        <time>2020-02-29T14:52:56Z</time>
      </trkpt>
      <trkpt lat="40.314400" lon="-5.006970">
        <ele>1317.428</ele>
        <time>2020-02-29T14:53:16Z</time>
      </trkpt>
      <trkpt lat="40.314380" lon="-5.006950">
        <ele>1317.720</ele>
        <time>2020-02-29T14:53:36Z</time>
      </trkpt>
      <trkpt lat="40.314280" lon="-5.006910">
        <ele>1316.208</ele>
        <time>2020-02-29T14:53:56Z</time>
      </trkpt>
      <trkpt lat="40.314170" lon="-5.006890">
        <ele>1313.821</ele>
        <time>2020-02-29T14:54:16Z</time>
      </trkpt>
      <trkpt lat="40.314140" lon="-5.006880">
        <ele>1313.734</ele>
        <time>2020-02-29T14:54:36Z</time>
      </trkpt>
      <trkpt lat="40.314050" lon="-5.006870">
        <ele>1312.189</ele>
        <time>2020-02-29T14:54:56Z</time>
      </trkpt>
      <trkpt lat="40.313960" lon="-5.006870">
        <ele>1310.190</ele>
        <time>2020-02-29T14:55:16Z</time>
      </trkpt>
      <trkpt lat="40.313760" lon="-5.006850">
        <ele>1306.272</ele>
        <time>2020-02-29T14:55:36Z</time>
      </trkpt>
      <trkpt lat="40.313630" lon="-5.006810">
        <ele>1304.890</ele>
        <time>2020-02-29T14:55:56Z</time>
      </trkpt>
      <trkpt lat="40.313460" lon="-5.006730">
        <ele>1303.433</ele>
        <time>2020-02-29T14:56:16Z</time>
      </trkpt>
      <trkpt lat="40.312260" lon="-5.005920">
        <ele>1296.788</ele>
        <time>2020-02-29T14:56:36Z</time>
      </trkpt>
      <trkpt lat="40.312220" lon="-5.005900">
        <ele>1296.094</ele>
        <time>2020-02-29T14:56:56Z</time>
      </trkpt>
      <trkpt lat="40.312130" lon="-5.005870">
        <ele>1294.557</ele>
        <time>2020-02-29T14:57:16Z</time>
      </trkpt>
      <trkpt lat="40.311440" lon="-5.005730">
        <ele>1282.222</ele>
        <time>2020-02-29T14:57:36Z</time>
      </trkpt>
      <trkpt lat="40.311380" lon="-5.005710">
        <ele>1281.708</ele>
        <time>2020-02-29T14:57:56Z</time>
      </trkpt>
      <trkpt lat="40.310910" lon="-5.005610">
        <ele>1276.153</ele>
        <time>2020-02-29T14:58:16Z</time>
      </trkpt>
      <trkpt lat="40.310750" lon="-5.005550">
        <ele>1273.026</ele>
        <time>2020-02-29T14:58:36Z</time>
      </trkpt>
      <trkpt lat="40.310600" lon="-5.005450">
        <ele>1271.741</ele>
        <time>2020-02-29T14:58:56Z</time>
      </trkpt>
      <trkpt lat="40.310070" lon="-5.005020">
        <ele>1272.732</ele>
        <time>2020-02-29T14:59:16Z</time>
      </trkpt>
      <trkpt lat="40.309970" lon="-5.004960">
        <ele>1272.154</ele>
        <time>2020-02-29T14:59:36Z</time>
      </trkpt>
      <trkpt lat="40.309960" lon="-5.004960">
        <ele>1271.832</ele>
        <time>2020-02-29T14:59:56Z</time>
      </trkpt>
      <trkpt lat="40.309780" lon="-5.004850">
        <ele>1270.985</ele>
        <time>2020-02-29T15:00:16Z</time>
      </trkpt>
      <trkpt lat="40.309510" lon="-5.004650">
        <ele>1271.260</ele>
        <time>2020-02-29T15:00:36Z</time>
      </trkpt>
      <trkpt lat="40.309240" lon="-5.004340">
        <ele>1274.751</ele>
        <time>2020-02-29T15:00:56Z</time>
      </trkpt>
      <trkpt lat="40.309160" lon="-5.004220">
        <ele>1276.401</ele>
        <time>2020-02-29T15:01:16Z</time>
      </trkpt>
      <trkpt lat="40.309080" lon="-5.004120">
        <ele>1279.011</ele>
        <time>2020-02-29T15:01:36Z</time>
      </trkpt>
      <trkpt lat="40.309040" lon="-5.004080">
        <ele>1279.908</ele>
        <time>2020-02-29T15:01:56Z</time>
      </trkpt>
      <trkpt lat="40.309010" lon="-5.004070">
        <ele>1280.029</ele>
        <time>2020-02-29T15:02:16Z</time>
      </trkpt>
      <trkpt lat="40.308990" lon="-5.004050">
        <ele>1280.382</ele>
        <time>2020-02-29T15:02:36Z</time>
      </trkpt>
      <trkpt lat="40.308960" lon="-5.004040">
        <ele>1280.367</ele>
        <time>2020-02-29T15:02:56Z</time>
      </trkpt>
      <trkpt lat="40.308910" lon="-5.004040">
        <ele>1279.928</ele>
        <time>2020-02-29T15:03:16Z</time>
      </trkpt>
      <trkpt lat="40.308830" lon="-5.004090">
        <ele>1279.420</ele>
        <time>2020-02-29T15:03:36Z</time>
      </trkpt>
      <trkpt lat="40.308750" lon="-5.004200">
        <ele>1277.468</ele>
        <time>2020-02-29T15:03:56Z</time>
      </trkpt>
      <trkpt lat="40.308730" lon="-5.004250">
        <ele>1276.051</ele>
        <time>2020-02-29T15:04:16Z</time>
      </trkpt>
      <trkpt lat="40.308720" lon="-5.004320">
        <ele>1273.746</ele>
        <time>2020-02-29T15:04:36Z</time>
      </trkpt>
      <trkpt lat="40.308730" lon="-5.004370">
        <ele>1272.068</ele>
        <time>2020-02-29T15:04:56Z</time>
      </trkpt>
      <trkpt lat="40.308730" lon="-5.004410">
        <ele>1270.742</ele>
        <time>2020-02-29T15:05:16Z</time>
      </trkpt>
      <trkpt lat="40.308760" lon="-5.004520">
        <ele>1267.726</ele>
        <time>2020-02-29T15:05:36Z</time>
      </trkpt>
      <trkpt lat="40.308800" lon="-5.004580">
        <ele>1266.208</ele>
        <time>2020-02-29T15:05:56Z</time>
      </trkpt>
      <trkpt lat="40.308740" lon="-5.004670">
        <ele>1264.290</ele>
        <time>2020-02-29T15:06:16Z</time>
      </trkpt>
      <trkpt lat="40.308720" lon="-5.004710">
        <ele>1263.373</ele>
        <time>2020-02-29T15:06:36Z</time>
      </trkpt>
      <trkpt lat="40.308700" lon="-5.004730">
        <ele>1262.888</ele>
        <time>2020-02-29T15:06:56Z</time>
      </trkpt>
      <trkpt lat="40.308650" lon="-5.004760">
        <ele>1261.979</ele>
        <time>2020-02-29T15:07:16Z</time>
      </trkpt>
      <trkpt lat="40.308570" lon="-5.004780">
        <ele>1261.531</ele>
        <time>2020-02-29T15:07:36Z</time>
      </trkpt>
      <trkpt lat="40.308400" lon="-5.004800">
        <ele>1261.399</ele>
        <time>2020-02-29T15:07:56Z</time>
      </trkpt>
      <trkpt lat="40.308110" lon="-5.004810">
        <ele>1260.172</ele>
        <time>2020-02-29T15:08:16Z</time>
      </trkpt>
      <trkpt lat="40.308000" lon="-5.004800">
        <ele>1259.587</ele>
        <time>2020-02-29T15:08:36Z</time>
      </trkpt>
      <trkpt lat="40.307920" lon="-5.004780">
        <ele>1259.357</ele>
        <time>2020-02-29T15:08:56Z</time>
      </trkpt>
      <trkpt lat="40.307800" lon="-5.004770">
        <ele>1258.200</ele>
        <time>2020-02-29T15:09:16Z</time>
      </trkpt>
      <trkpt lat="40.307650" lon="-5.004770">
        <ele>1256.620</ele>
        <time>2020-02-29T15:09:36Z</time>
      </trkpt>
      <trkpt lat="40.307590" lon="-5.004780">
        <ele>1255.508</ele>
        <time>2020-02-29T15:09:56Z</time>
      </trkpt>
      <trkpt lat="40.307400" lon="-5.004780">
        <ele>1252.569</ele>
        <time>2020-02-29T15:10:16Z</time>
      </trkpt>
      <trkpt lat="40.307360" lon="-5.004760">
        <ele>1252.662</ele>
        <time>2020-02-29T15:10:36Z</time>
      </trkpt>
      <trkpt lat="40.307280" lon="-5.004680">
        <ele>1254.657</ele>
        <time>2020-02-29T15:10:56Z</time>
      </trkpt>
      <trkpt lat="40.307100" lon="-5.004570">
        <ele>1252.978</ele>
        <time>2020-02-29T15:11:16Z</time>
      </trkpt>
      <trkpt lat="40.306730" lon="-5.004280">
        <ele>1253.180</ele>
        <time>2020-02-29T15:11:36Z</time>
      </trkpt>
      <trkpt lat="40.306620" lon="-5.004230">
        <ele>1251.958</ele>
        <time>2020-02-29T15:11:56Z</time>
      </trkpt>
      <trkpt lat="40.306550" lon="-5.004210">
        <ele>1251.171</ele>
        <time>2020-02-29T15:12:16Z</time>
      </trkpt>
      <trkpt lat="40.306150" lon="-5.004140">
        <ele>1245.786</ele>
        <time>2020-02-29T15:12:36Z</time>
      </trkpt>
      <trkpt lat="40.305990" lon="-5.004070">
        <ele>1243.479</ele>
        <time>2020-02-29T15:12:56Z</time>
      </trkpt>
      <trkpt lat="40.305660" lon="-5.003840">
        <ele>1241.005</ele>
        <time>2020-02-29T15:13:16Z</time>
      </trkpt>
      <trkpt lat="40.305510" lon="-5.003690">
        <ele>1240.425</ele>
        <time>2020-02-29T15:13:36Z</time>
      </trkpt>
      <trkpt lat="40.305230" lon="-5.003320">
        <ele>1238.708</ele>
        <time>2020-02-29T15:13:56Z</time>
      </trkpt>
      <trkpt lat="40.304940" lon="-5.002890">
        <ele>1236.111</ele>
        <time>2020-02-29T15:14:16Z</time>
      </trkpt>
      <trkpt lat="40.304890" lon="-5.002760">
        <ele>1236.084</ele>
        <time>2020-02-29T15:14:36Z</time>
      </trkpt>
      <trkpt lat="40.304870" lon="-5.002650">
        <ele>1235.869</ele>
        <time>2020-02-29T15:14:56Z</time>
      </trkpt>
      <trkpt lat="40.304870" lon="-5.002440">
        <ele>1236.590</ele>
        <time>2020-02-29T15:15:16Z</time>
      </trkpt>
      <trkpt lat="40.304880" lon="-5.002380">
        <ele>1236.422</ele>
        <time>2020-02-29T15:15:36Z</time>
      </trkpt>
      <trkpt lat="40.304900" lon="-5.002330">
        <ele>1236.840</ele>
        <time>2020-02-29T15:15:56Z</time>
      </trkpt>
      <trkpt lat="40.304950" lon="-5.002240">
        <ele>1237.743</ele>
        <time>2020-02-29T15:16:16Z</time>
      </trkpt>
      <trkpt lat="40.304970" lon="-5.002220">
        <ele>1238.178</ele>
        <time>2020-02-29T15:16:36Z</time>
      </trkpt>
      <trkpt lat="40.305180" lon="-5.002060">
        <ele>1238.467</ele>
        <time>2020-02-29T15:16:56Z</time>
      </trkpt>
      <trkpt lat="40.306060" lon="-5.001650">
        <ele>1234.781</ele>
        <time>2020-02-29T15:17:16Z</time>
      </trkpt>
      <trkpt lat="40.307200" lon="-5.001270">
        <ele>1226.119</ele>
        <time>2020-02-29T15:17:36Z</time>
      </trkpt>
      <trkpt lat="40.307480" lon="-5.001130">
        <ele>1224.508</ele>
        <time>2020-02-29T15:17:56Z</time>
      </trkpt>
      <trkpt lat="40.307820" lon="-5.000910">
        <ele>1220.740</ele>
        <time>2020-02-29T15:18:16Z</time>
      </trkpt>
      <trkpt lat="40.307880" lon="-5.000880">
        <ele>1220.463</ele>
        <time>2020-02-29T15:18:36Z</time>
      </trkpt>
      <trkpt lat="40.308000" lon="-5.000860">
        <ele>1221.348</ele>
        <time>2020-02-29T15:18:56Z</time>
      </trkpt>
      <trkpt lat="40.308020" lon="-5.000850">
        <ele>1221.279</ele>
        <time>2020-02-29T15:19:16Z</time>
      </trkpt>
      <trkpt lat="40.308160" lon="-5.000830">
        <ele>1223.981</ele>
        <time>2020-02-29T15:19:36Z</time>
      </trkpt>
      <trkpt lat="40.308200" lon="-5.000800">
        <ele>1224.389</ele>
        <time>2020-02-29T15:19:56Z</time>
      </trkpt>
      <trkpt lat="40.308240" lon="-5.000750">
        <ele>1224.392</ele>
        <time>2020-02-29T15:20:16Z</time>
      </trkpt>
      <trkpt lat="40.308260" lon="-5.000710">
        <ele>1224.017</ele>
        <time>2020-02-29T15:20:36Z</time>
      </trkpt>
      <trkpt lat="40.308270" lon="-5.000650">
        <ele>1222.912</ele>
        <time>2020-02-29T15:20:56Z</time>
      </trkpt>
      <trkpt lat="40.308260" lon="-5.000560">
        <ele>1220.532</ele>
        <time>2020-02-29T15:21:16Z</time>
      </trkpt>
      <trkpt lat="40.308200" lon="-5.000390">
        <ele>1215.605</ele>
        <time>2020-02-29T15:21:36Z</time>
      </trkpt>
      <trkpt lat="40.308200" lon="-5.000360">
        <ele>1215.108</ele>
        <time>2020-02-29T15:21:56Z</time>
      </trkpt>
      <trkpt lat="40.308170" lon="-5.000280">
        <ele>1212.465</ele>
        <time>2020-02-29T15:22:16Z</time>
      </trkpt>
      <trkpt lat="40.308140" lon="-5.000140">
        <ele>1212.358</ele>
        <time>2020-02-29T15:22:36Z</time>
      </trkpt>
      <trkpt lat="40.308020" lon="-4.999920">
        <ele>1209.793</ele>
        <time>2020-02-29T15:22:56Z</time>
      </trkpt>
      <trkpt lat="40.307960" lon="-4.999740">
        <ele>1209.664</ele>
        <time>2020-02-29T15:23:16Z</time>
      </trkpt>
      <trkpt lat="40.307900" lon="-4.999630">
        <ele>1208.416</ele>
        <time>2020-02-29T15:23:36Z</time>
      </trkpt>
      <trkpt lat="40.307670" lon="-4.999410">
        <ele>1203.374</ele>
        <time>2020-02-29T15:23:56Z</time>
      </trkpt>
      <trkpt lat="40.307590" lon="-4.999310">
        <ele>1202.727</ele>
        <time>2020-02-29T15:24:16Z</time>
      </trkpt>
      <trkpt lat="40.307510" lon="-4.999160">
        <ele>1202.562</ele>
        <time>2020-02-29T15:24:36Z</time>
      </trkpt>
      <trkpt lat="40.307460" lon="-4.998970">
        <ele>1202.599</ele>
        <time>2020-02-29T15:24:56Z</time>
      </trkpt>
      <trkpt lat="40.307460" lon="-4.998860">
        <ele>1203.607</ele>
        <time>2020-02-29T15:25:16Z</time>
      </trkpt>
      <trkpt lat="40.307450" lon="-4.998780">
        <ele>1203.927</ele>
        <time>2020-02-29T15:25:36Z</time>
      </trkpt>
      <trkpt lat="40.307430" lon="-4.998720">
        <ele>1203.608</ele>
        <time>2020-02-29T15:25:56Z</time>
      </trkpt>
      <trkpt lat="40.307380" lon="-4.998640">
        <ele>1202.473</ele>
        <time>2020-02-29T15:26:16Z</time>
      </trkpt>
      <trkpt lat="40.307360" lon="-4.998630">
        <ele>1201.856</ele>
        <time>2020-02-29T15:26:36Z</time>
      </trkpt>
      <trkpt lat="40.307220" lon="-4.998480">
        <ele>1198.831</ele>
        <time>2020-02-29T15:26:56Z</time>
      </trkpt>
      <trkpt lat="40.307210" lon="-4.998460">
        <ele>1198.892</ele>
        <time>2020-02-29T15:27:16Z</time>
      </trkpt>
      <trkpt lat="40.307080" lon="-4.998340">
        <ele>1196.894</ele>
        <time>2020-02-29T15:27:36Z</time>
      </trkpt>
      <trkpt lat="40.306920" lon="-4.998240">
        <ele>1194.392</ele>
        <time>2020-02-29T15:27:56Z</time>
      </trkpt>
      <trkpt lat="40.306910" lon="-4.998230">
        <ele>1194.365</ele>
        <time>2020-02-29T15:28:16Z</time>
      </trkpt>
      <trkpt lat="40.306760" lon="-4.998180">
        <ele>1191.480</ele>
        <time>2020-02-29T15:28:36Z</time>
      </trkpt>
      <trkpt lat="40.306550" lon="-4.998080">
        <ele>1187.321</ele>
        <time>2020-02-29T15:28:56Z</time>
      </trkpt>
      <trkpt lat="40.306460" lon="-4.997950">
        <ele>1186.841</ele>
        <time>2020-02-29T15:29:16Z</time>
      </trkpt>
      <trkpt lat="40.306390" lon="-4.997730">
        <ele>1187.605</ele>
        <time>2020-02-29T15:29:36Z</time>
      </trkpt>
      <trkpt lat="40.306380" lon="-4.997710">
        <ele>1187.508</ele>
        <time>2020-02-29T15:29:56Z</time>
      </trkpt>
      <trkpt lat="40.306330" lon="-4.997420">
        <ele>1188.666</ele>
        <time>2020-02-29T15:30:16Z</time>
      </trkpt>
      <trkpt lat="40.306310" lon="-4.996840">
        <ele>1191.749</ele>
        <time>2020-02-29T15:30:36Z</time>
      </trkpt>
      <trkpt lat="40.306300" lon="-4.996800">
        <ele>1191.644</ele>
        <time>2020-02-29T15:30:56Z</time>
      </trkpt>
      <trkpt lat="40.306290" lon="-4.996780">
        <ele>1191.315</ele>
        <time>2020-02-29T15:31:16Z</time>
      </trkpt>
      <trkpt lat="40.306290" lon="-4.996740">
        <ele>1191.747</ele>
        <time>2020-02-29T15:31:36Z</time>
      </trkpt>
      <trkpt lat="40.306260" lon="-4.996670">
        <ele>1190.985</ele>
        <time>2020-02-29T15:31:56Z</time>
      </trkpt>
      <trkpt lat="40.305980" lon="-4.996360">
        <ele>1184.148</ele>
        <time>2020-02-29T15:32:16Z</time>
      </trkpt>
      <trkpt lat="40.305980" lon="-4.996350">
        <ele>1184.433</ele>
        <time>2020-02-29T15:32:36Z</time>
      </trkpt>
      <trkpt lat="40.305920" lon="-4.996280">
        <ele>1183.989</ele>
        <time>2020-02-29T15:32:56Z</time>
      </trkpt>
      <trkpt lat="40.305810" lon="-4.996200">
        <ele>1182.406</ele>
        <time>2020-02-29T15:33:16Z</time>
      </trkpt>
      <trkpt lat="40.305540" lon="-4.996170">
        <ele>1175.826</ele>
        <time>2020-02-29T15:33:36Z</time>
      </trkpt>
      <trkpt lat="40.305480" lon="-4.996150">
        <ele>1175.408</ele>
        <time>2020-02-29T15:33:56Z</time>
      </trkpt>
      <trkpt lat="40.305460" lon="-4.996150">
        <ele>1175.192</ele>
        <time>2020-02-29T15:34:16Z</time>
      </trkpt>
      <trkpt lat="40.305270" lon="-4.996070">
        <ele>1173.875</ele>
        <time>2020-02-29T15:34:36Z</time>
      </trkpt>
      <trkpt lat="40.305220" lon="-4.996060">
        <ele>1172.270</ele>
        <time>2020-02-29T15:34:56Z</time>
      </trkpt>
      <trkpt lat="40.305140" lon="-4.996020">
        <ele>1170.521</ele>
        <time>2020-02-29T15:35:16Z</time>
      </trkpt>
      <trkpt lat="40.305070" lon="-4.995940">
        <ele>1170.373</ele>
        <time>2020-02-29T15:35:36Z</time>
      </trkpt>
      <trkpt lat="40.305020" lon="-4.995850">
        <ele>1171.291</ele>
        <time>2020-02-29T15:35:56Z</time>
      </trkpt>
      <trkpt lat="40.305010" lon="-4.995700">
        <ele>1172.444</ele>
        <time>2020-02-29T15:36:16Z</time>
      </trkpt>
      <trkpt lat="40.305030" lon="-4.995380">
        <ele>1173.779</ele>
        <time>2020-02-29T15:36:36Z</time>
      </trkpt>
      <trkpt lat="40.305050" lon="-4.995230">
        <ele>1173.911</ele>
        <time>2020-02-29T15:36:56Z</time>
      </trkpt>
      <trkpt lat="40.305060" lon="-4.994910">
        <ele>1172.821</ele>
        <time>2020-02-29T15:37:16Z</time>
      </trkpt>
      <trkpt lat="40.305030" lon="-4.994610">
        <ele>1170.903</ele>
        <time>2020-02-29T15:37:36Z</time>
      </trkpt>
      <trkpt lat="40.305020" lon="-4.994340">
        <ele>1169.808</ele>
        <time>2020-02-29T15:37:56Z</time>
      </trkpt>
      <trkpt lat="40.305060" lon="-4.993790">
        <ele>1168.075</ele>
        <time>2020-02-29T15:38:16Z</time>
      </trkpt>
      <trkpt lat="40.305060" lon="-4.993570">
        <ele>1166.548</ele>
        <time>2020-02-29T15:38:36Z</time>
      </trkpt>
      <trkpt lat="40.305080" lon="-4.993500">
        <ele>1166.623</ele>
        <time>2020-02-29T15:38:56Z</time>
      </trkpt>
      <trkpt lat="40.305100" lon="-4.993380">
        <ele>1166.514</ele>
        <time>2020-02-29T15:39:16Z</time>
      </trkpt>
      <trkpt lat="40.305280" lon="-4.992860">
        <ele>1168.096</ele>
        <time>2020-02-29T15:39:36Z</time>
      </trkpt>
      <trkpt lat="40.305280" lon="-4.992850">
        <ele>1167.834</ele>
        <time>2020-02-29T15:39:56Z</time>
      </trkpt>
      <trkpt lat="40.305380" lon="-4.992570">
        <ele>1166.657</ele>
        <time>2020-02-29T15:40:16Z</time>
      </trkpt>
      <trkpt lat="40.305500" lon="-4.992300">
        <ele>1167.742</ele>
        <time>2020-02-29T15:40:36Z</time>
      </trkpt>
      <trkpt lat="40.305660" lon="-4.992050">
        <ele>1166.856</ele>
        <time>2020-02-29T15:40:56Z</time>
      </trkpt>
      <trkpt lat="40.305900" lon="-4.991770">
        <ele>1168.459</ele>
        <time>2020-02-29T15:41:16Z</time>
      </trkpt>
      <trkpt lat="40.305940" lon="-4.991700">
        <ele>1168.514</ele>
        <time>2020-02-29T15:41:36Z</time>
      </trkpt>
      <trkpt lat="40.305950" lon="-4.991620">
        <ele>1168.208</ele>
        <time>2020-02-29T15:41:56Z</time>
      </trkpt>
      <trkpt lat="40.305950" lon="-4.991550">
        <ele>1167.969</ele>
        <time>2020-02-29T15:42:16Z</time>
      </trkpt>
      <trkpt lat="40.305930" lon="-4.991510">
        <ele>1167.262</ele>
        <time>2020-02-29T15:42:36Z</time>
      </trkpt>
      <trkpt lat="40.305930" lon="-4.991490">
        <ele>1167.177</ele>
        <time>2020-02-29T15:42:56Z</time>
      </trkpt>
      <trkpt lat="40.305840" lon="-4.991340">
        <ele>1164.988</ele>
        <time>2020-02-29T15:43:16Z</time>
      </trkpt>
      <trkpt lat="40.305820" lon="-4.991330">
        <ele>1164.710</ele>
        <time>2020-02-29T15:43:36Z</time>
      </trkpt>
      <trkpt lat="40.305810" lon="-4.991310">
        <ele>1164.938</ele>
        <time>2020-02-29T15:43:56Z</time>
      </trkpt>
      <trkpt lat="40.305770" lon="-4.991290">
        <ele>1164.911</ele>
        <time>2020-02-29T15:44:16Z</time>
      </trkpt>
      <trkpt lat="40.305730" lon="-4.991290">
        <ele>1164.616</ele>
        <time>2020-02-29T15:44:36Z</time>
      </trkpt>
      <trkpt lat="40.305690" lon="-4.991310">
        <ele>1163.761</ele>
        <time>2020-02-29T15:44:56Z</time>
      </trkpt>
      <trkpt lat="40.305660" lon="-4.991340">
        <ele>1162.521</ele>
        <time>2020-02-29T15:45:16Z</time>
      </trkpt>
      <trkpt lat="40.305640" lon="-4.991350">
        <ele>1161.913</ele>
        <time>2020-02-29T15:45:36Z</time>
      </trkpt>
      <trkpt lat="40.305540" lon="-4.991480">
        <ele>1157.908</ele>
        <time>2020-02-29T15:45:56Z</time>
      </trkpt>
      <trkpt lat="40.305520" lon="-4.991490">
        <ele>1157.970</ele>
        <time>2020-02-29T15:46:16Z</time>
      </trkpt>
      <trkpt lat="40.305450" lon="-4.991560">
        <ele>1156.763</ele>
        <time>2020-02-29T15:46:36Z</time>
      </trkpt>
      <trkpt lat="40.305200" lon="-4.991700">
        <ele>1151.628</ele>
        <time>2020-02-29T15:46:56Z</time>
      </trkpt>
      <trkpt lat="40.305190" lon="-4.991700">
        <ele>1151.659</ele>
        <time>2020-02-29T15:47:16Z</time>
      </trkpt>
      <trkpt lat="40.305020" lon="-4.991750">
        <ele>1150.491</ele>
        <time>2020-02-29T15:47:36Z</time>
      </trkpt>
      <trkpt lat="40.304840" lon="-4.991740">
        <ele>1148.449</ele>
        <time>2020-02-29T15:47:56Z</time>
      </trkpt>
      <trkpt lat="40.304630" lon="-4.991690">
        <ele>1146.772</ele>
        <time>2020-02-29T15:48:16Z</time>
      </trkpt>
      <trkpt lat="40.304550" lon="-4.991650">
        <ele>1146.147</ele>
        <time>2020-02-29T15:48:36Z</time>
      </trkpt>
      <trkpt lat="40.304520" lon="-4.991640">
        <ele>1145.554</ele>
        <time>2020-02-29T15:48:56Z</time>
      </trkpt>
      <trkpt lat="40.304490" lon="-4.991610">
        <ele>1145.656</ele>
        <time>2020-02-29T15:49:16Z</time>
      </trkpt>
      <trkpt lat="40.304460" lon="-4.991550">
        <ele>1146.811</ele>
        <time>2020-02-29T15:49:36Z</time>
      </trkpt>
      <trkpt lat="40.304420" lon="-4.991430">
        <ele>1148.908</ele>
        <time>2020-02-29T15:49:56Z</time>
      </trkpt>
      <trkpt lat="40.304420" lon="-4.991180">
        <ele>1151.989</ele>
        <time>2020-02-29T15:50:16Z</time>
      </trkpt>
      <trkpt lat="40.304460" lon="-4.991020">
        <ele>1154.992</ele>
        <time>2020-02-29T15:50:36Z</time>
      </trkpt>
      <trkpt lat="40.304480" lon="-4.990880">
        <ele>1156.057</ele>
        <time>2020-02-29T15:50:56Z</time>
      </trkpt>
      <trkpt lat="40.304480" lon="-4.990740">
        <ele>1156.358</ele>
        <time>2020-02-29T15:51:16Z</time>
      </trkpt>
      <trkpt lat="40.304470" lon="-4.990720">
        <ele>1155.870</ele>
        <time>2020-02-29T15:51:36Z</time>
      </trkpt>
      <trkpt lat="40.304470" lon="-4.990690">
        <ele>1155.938</ele>
        <time>2020-02-29T15:51:56Z</time>
      </trkpt>
      <trkpt lat="40.304440" lon="-4.990650">
        <ele>1154.581</ele>
        <time>2020-02-29T15:52:16Z</time>
      </trkpt>
      <trkpt lat="40.304340" lon="-4.990580">
        <ele>1152.086</ele>
        <time>2020-02-29T15:52:36Z</time>
      </trkpt>
      <trkpt lat="40.304310" lon="-4.990570">
        <ele>1151.428</ele>
        <time>2020-02-29T15:52:56Z</time>
      </trkpt>
      <trkpt lat="40.304260" lon="-4.990570">
        <ele>1150.089</ele>
        <time>2020-02-29T15:53:16Z</time>
      </trkpt>
      <trkpt lat="40.304130" lon="-4.990660">
        <ele>1143.917</ele>
        <time>2020-02-29T15:53:36Z</time>
      </trkpt>
      <trkpt lat="40.304040" lon="-4.990690">
        <ele>1141.108</ele>
        <time>2020-02-29T15:53:56Z</time>
      </trkpt>
      <trkpt lat="40.303980" lon="-4.990680">
        <ele>1140.326</ele>
        <time>2020-02-29T15:54:16Z</time>
      </trkpt>
      <trkpt lat="40.303840" lon="-4.990610">
        <ele>1139.829</ele>
        <time>2020-02-29T15:54:36Z</time>
      </trkpt>
      <trkpt lat="40.303830" lon="-4.990600">
        <ele>1139.984</ele>
        <time>2020-02-29T15:54:56Z</time>
      </trkpt>
      <trkpt lat="40.303490" lon="-4.990450">
        <ele>1137.635</ele>
        <time>2020-02-29T15:55:16Z</time>
      </trkpt>
      <trkpt lat="40.303160" lon="-4.990270">
        <ele>1138.187</ele>
        <time>2020-02-29T15:55:36Z</time>
      </trkpt>
      <trkpt lat="40.303090" lon="-4.990250">
        <ele>1137.515</ele>
        <time>2020-02-29T15:55:56Z</time>
      </trkpt>
      <trkpt lat="40.303050" lon="-4.990250">
        <ele>1136.848</ele>
        <time>2020-02-29T15:56:16Z</time>
      </trkpt>
      <trkpt lat="40.303010" lon="-4.990260">
        <ele>1136.763</ele>
        <time>2020-02-29T15:56:36Z</time>
      </trkpt>
      <trkpt lat="40.302640" lon="-4.990520">
        <ele>1131.122</ele>
        <time>2020-02-29T15:56:56Z</time>
      </trkpt>
      <trkpt lat="40.302490" lon="-4.990670">
        <ele>1127.262</ele>
        <time>2020-02-29T15:57:16Z</time>
      </trkpt>
      <trkpt lat="40.302430" lon="-4.990720">
        <ele>1125.108</ele>
        <time>2020-02-29T15:57:36Z</time>
      </trkpt>
      <trkpt lat="40.302380" lon="-4.990740">
        <ele>1124.008</ele>
        <time>2020-02-29T15:57:56Z</time>
      </trkpt>
      <trkpt lat="40.302360" lon="-4.990740">
        <ele>1123.916</ele>
        <time>2020-02-29T15:58:16Z</time>
      </trkpt>
      <trkpt lat="40.302340" lon="-4.990750">
        <ele>1123.359</ele>
        <time>2020-02-29T15:58:36Z</time>
      </trkpt>
      <trkpt lat="40.302290" lon="-4.990740">
        <ele>1123.324</ele>
        <time>2020-02-29T15:58:56Z</time>
      </trkpt>
      <trkpt lat="40.302240" lon="-4.990710">
        <ele>1124.015</ele>
        <time>2020-02-29T15:59:16Z</time>
      </trkpt>
      <trkpt lat="40.302150" lon="-4.990630">
        <ele>1125.347</ele>
        <time>2020-02-29T15:59:36Z</time>
      </trkpt>
      <trkpt lat="40.302040" lon="-4.990340">
        <ele>1132.715</ele>
        <time>2020-02-29T15:59:56Z</time>
      </trkpt>
      <trkpt lat="40.302010" lon="-4.990300">
        <ele>1133.128</ele>
        <time>2020-02-29T16:00:16Z</time>
      </trkpt>
      <trkpt lat="40.301990" lon="-4.990290">
        <ele>1132.953</ele>
        <time>2020-02-29T16:00:36Z</time>
      </trkpt>
      <trkpt lat="40.301970" lon="-4.990270">
        <ele>1133.074</ele>
        <time>2020-02-29T16:00:56Z</time>
      </trkpt>
      <trkpt lat="40.301850" lon="-4.990250">
        <ele>1132.756</ele>
        <time>2020-02-29T16:01:16Z</time>
      </trkpt>
      <trkpt lat="40.301780" lon="-4.990250">
        <ele>1132.521</ele>
        <time>2020-02-29T16:01:36Z</time>
      </trkpt>
      <trkpt lat="40.301720" lon="-4.990260">
        <ele>1131.908</ele>
        <time>2020-02-29T16:01:56Z</time>
      </trkpt>
      <trkpt lat="40.301680" lon="-4.990280">
        <ele>1130.991</ele>
        <time>2020-02-29T16:02:16Z</time>
      </trkpt>
      <trkpt lat="40.301470" lon="-4.990420">
        <ele>1121.424</ele>
        <time>2020-02-29T16:02:36Z</time>
      </trkpt>
      <trkpt lat="40.301380" lon="-4.990470">
        <ele>1118.249</ele>
        <time>2020-02-29T16:02:56Z</time>
      </trkpt>
      <trkpt lat="40.301320" lon="-4.990480">
        <ele>1116.680</ele>
        <time>2020-02-29T16:03:16Z</time>
      </trkpt>
      <trkpt lat="40.301270" lon="-4.990480">
        <ele>1115.772</ele>
        <time>2020-02-29T16:03:36Z</time>
      </trkpt>
      <trkpt lat="40.301050" lon="-4.990450">
        <ele>1113.850</ele>
        <time>2020-02-29T16:03:56Z</time>
      </trkpt>
      <trkpt lat="40.300630" lon="-4.990300">
        <ele>1112.593</ele>
        <time>2020-02-29T16:04:16Z</time>
      </trkpt>
      <trkpt lat="40.300420" lon="-4.990210">
        <ele>1112.448</ele>
        <time>2020-02-29T16:04:36Z</time>
      </trkpt>
      <trkpt lat="40.300370" lon="-4.990180">
        <ele>1112.484</ele>
        <time>2020-02-29T16:04:56Z</time>
      </trkpt>
      <trkpt lat="40.300130" lon="-4.989990">
        <ele>1111.607</ele>
        <time>2020-02-29T16:05:16Z</time>
      </trkpt>
      <trkpt lat="40.299850" lon="-4.989690">
        <ele>1109.817</ele>
        <time>2020-02-29T16:05:36Z</time>
      </trkpt>
      <trkpt lat="40.299840" lon="-4.989670">
        <ele>1109.908</ele>
        <time>2020-02-29T16:05:56Z</time>
      </trkpt>
      <trkpt lat="40.299800" lon="-4.989620">
        <ele>1109.662</ele>
        <time>2020-02-29T16:06:16Z</time>
      </trkpt>
      <trkpt lat="40.299770" lon="-4.989570">
        <ele>1109.695</ele>
        <time>2020-02-29T16:06:36Z</time>
      </trkpt>
      <trkpt lat="40.299750" lon="-4.989510">
        <ele>1110.470</ele>
        <time>2020-02-29T16:06:56Z</time>
      </trkpt>
      <trkpt lat="40.299740" lon="-4.989500">
        <ele>1110.361</ele>
        <time>2020-02-29T16:07:16Z</time>
      </trkpt>
      <trkpt lat="40.299740" lon="-4.989190">
        <ele>1114.433</ele>
        <time>2020-02-29T16:07:36Z</time>
      </trkpt>
      <trkpt lat="40.299730" lon="-4.989060">
        <ele>1115.871</ele>
        <time>2020-02-29T16:07:56Z</time>
      </trkpt>
      <trkpt lat="40.299710" lon="-4.989020">
        <ele>1115.644</ele>
        <time>2020-02-29T16:08:16Z</time>
      </trkpt>
      <trkpt lat="40.299690" lon="-4.988960">
        <ele>1115.629</ele>
        <time>2020-02-29T16:08:36Z</time>
      </trkpt>
      <trkpt lat="40.299650" lon="-4.988900">
        <ele>1115.083</ele>
        <time>2020-02-29T16:08:56Z</time>
      </trkpt>
      <trkpt lat="40.299580" lon="-4.988830">
        <ele>1113.325</ele>
        <time>2020-02-29T16:09:16Z</time>
      </trkpt>
      <trkpt lat="40.299520" lon="-4.988790">
        <ele>1111.717</ele>
        <time>2020-02-29T16:09:36Z</time>
      </trkpt>
      <trkpt lat="40.299420" lon="-4.988740">
        <ele>1108.708</ele>
        <time>2020-02-29T16:09:56Z</time>
      </trkpt>
      <trkpt lat="40.299360" lon="-4.988670">
        <ele>1107.582</ele>
        <time>2020-02-29T16:10:16Z</time>
      </trkpt>
      <trkpt lat="40.299320" lon="-4.988580">
        <ele>1107.215</ele>
        <time>2020-02-29T16:10:36Z</time>
      </trkpt>
      <trkpt lat="40.299240" lon="-4.988250">
        <ele>1110.420</ele>
        <time>2020-02-29T16:10:56Z</time>
      </trkpt>
      <trkpt lat="40.299180" lon="-4.988180">
        <ele>1109.491</ele>
        <time>2020-02-29T16:11:16Z</time>
      </trkpt>
      <trkpt lat="40.299160" lon="-4.988170">
        <ele>1109.143</ele>
        <time>2020-02-29T16:11:36Z</time>
      </trkpt>
      <trkpt lat="40.299110" lon="-4.988170">
        <ele>1108.981</ele>
        <time>2020-02-29T16:11:56Z</time>
      </trkpt>
      <trkpt lat="40.299060" lon="-4.988180">
        <ele>1108.524</ele>
        <time>2020-02-29T16:12:16Z</time>
      </trkpt>
      <trkpt lat="40.299010" lon="-4.988220">
        <ele>1107.349</ele>
        <time>2020-02-29T16:12:36Z</time>
      </trkpt>
      <trkpt lat="40.298940" lon="-4.988400">
        <ele>1102.881</ele>
        <time>2020-02-29T16:12:56Z</time>
      </trkpt>
      <trkpt lat="40.298770" lon="-4.988720">
        <ele>1097.661</ele>
        <time>2020-02-29T16:13:16Z</time>
      </trkpt>
      <trkpt lat="40.298590" lon="-4.988980">
        <ele>1095.017</ele>
        <time>2020-02-29T16:13:36Z</time>
      </trkpt>
      <trkpt lat="40.298500" lon="-4.989070">
        <ele>1094.608</ele>
        <time>2020-02-29T16:13:56Z</time>
      </trkpt>
      <trkpt lat="40.298410" lon="-4.989130">
        <ele>1094.392</ele>
        <time>2020-02-29T16:14:16Z</time>
      </trkpt>
      <trkpt lat="40.298230" lon="-4.989200">
        <ele>1093.445</ele>
        <time>2020-02-29T16:14:36Z</time>
      </trkpt>
      <trkpt lat="40.298110" lon="-4.989220">
        <ele>1093.390</ele>
        <time>2020-02-29T16:14:56Z</time>
      </trkpt>
      <trkpt lat="40.297930" lon="-4.989220">
        <ele>1093.591</ele>
        <time>2020-02-29T16:15:16Z</time>
      </trkpt>
      <trkpt lat="40.297580" lon="-4.989270">
        <ele>1089.673</ele>
        <time>2020-02-29T16:15:36Z</time>
      </trkpt>
      <trkpt lat="40.297450" lon="-4.989270">
        <ele>1088.221</ele>
        <time>2020-02-29T16:15:56Z</time>
      </trkpt>
      <trkpt lat="40.297190" lon="-4.989180">
        <ele>1088.934</ele>
        <time>2020-02-29T16:16:16Z</time>
      </trkpt>
      <trkpt lat="40.296940" lon="-4.989160">
        <ele>1085.199</ele>
        <time>2020-02-29T16:16:36Z</time>
      </trkpt>
      <trkpt lat="40.296610" lon="-4.989100">
        <ele>1081.925</ele>
        <time>2020-02-29T16:16:56Z</time>
      </trkpt>
      <trkpt lat="40.296540" lon="-4.989080">
        <ele>1081.226</ele>
        <time>2020-02-29T16:17:16Z</time>
      </trkpt>
      <trkpt lat="40.296460" lon="-4.989030">
        <ele>1081.208</ele>
        <time>2020-02-29T16:17:36Z</time>
      </trkpt>
      <trkpt lat="40.296390" lon="-4.988970">
        <ele>1081.708</ele>
        <time>2020-02-29T16:17:56Z</time>
      </trkpt>
      <trkpt lat="40.296280" lon="-4.988830">
        <ele>1080.646</ele>
        <time>2020-02-29T16:18:16Z</time>
      </trkpt>
      <trkpt lat="40.296280" lon="-4.988820">
        <ele>1080.859</ele>
        <time>2020-02-29T16:18:36Z</time>
      </trkpt>
      <trkpt lat="40.296190" lon="-4.988670">
        <ele>1081.314</ele>
        <time>2020-02-29T16:18:56Z</time>
      </trkpt>
      <trkpt lat="40.296150" lon="-4.988620">
        <ele>1081.315</ele>
        <time>2020-02-29T16:19:16Z</time>
      </trkpt>
      <trkpt lat="40.296080" lon="-4.988570">
        <ele>1080.357</ele>
        <time>2020-02-29T16:19:36Z</time>
      </trkpt>
      <trkpt lat="40.295990" lon="-4.988530">
        <ele>1078.445</ele>
        <time>2020-02-29T16:19:56Z</time>
      </trkpt>
      <trkpt lat="40.295850" lon="-4.988450">
        <ele>1075.758</ele>
        <time>2020-02-29T16:20:16Z</time>
      </trkpt>
      <trkpt lat="40.295840" lon="-4.988440">
        <ele>1075.693</ele>
        <time>2020-02-29T16:20:36Z</time>
      </trkpt>
      <trkpt lat="40.295780" lon="-4.988400">
        <ele>1074.418</ele>
        <time>2020-02-29T16:20:56Z</time>
      </trkpt>
      <trkpt lat="40.295740" lon="-4.988330">
        <ele>1074.798</ele>
        <time>2020-02-29T16:21:16Z</time>
      </trkpt>
      <trkpt lat="40.295560" lon="-4.987840">
        <ele>1076.317</ele>
        <time>2020-02-29T16:21:36Z</time>
      </trkpt>
      <trkpt lat="40.295430" lon="-4.987580">
        <ele>1074.208</ele>
        <time>2020-02-29T16:21:56Z</time>
      </trkpt>
      <trkpt lat="40.295350" lon="-4.987360">
        <ele>1073.525</ele>
        <time>2020-02-29T16:22:16Z</time>
      </trkpt>
      <trkpt lat="40.295290" lon="-4.987140">
        <ele>1072.098</ele>
        <time>2020-02-29T16:22:36Z</time>
      </trkpt>
      <trkpt lat="40.295190" lon="-4.986600">
        <ele>1070.713</ele>
        <time>2020-02-29T16:22:56Z</time>
      </trkpt>
      <trkpt lat="40.295190" lon="-4.986490">
        <ele>1070.474</ele>
        <time>2020-02-29T16:23:16Z</time>
      </trkpt>
      <trkpt lat="40.295200" lon="-4.986420">
        <ele>1070.656</ele>
        <time>2020-02-29T16:23:36Z</time>
      </trkpt>
      <trkpt lat="40.295320" lon="-4.986120">
        <ele>1071.014</ele>
        <time>2020-02-29T16:23:56Z</time>
      </trkpt>
      <trkpt lat="40.295400" lon="-4.985980">
        <ele>1071.437</ele>
        <time>2020-02-29T16:24:16Z</time>
      </trkpt>
      <trkpt lat="40.295550" lon="-4.985640">
        <ele>1069.932</ele>
        <time>2020-02-29T16:24:36Z</time>
      </trkpt>
      <trkpt lat="40.295560" lon="-4.985580">
        <ele>1068.817</ele>
        <time>2020-02-29T16:24:56Z</time>
      </trkpt>
      <trkpt lat="40.295560" lon="-4.985530">
        <ele>1068.487</ele>
        <time>2020-02-29T16:25:16Z</time>
      </trkpt>
      <trkpt lat="40.295540" lon="-4.985480">
        <ele>1068.015</ele>
        <time>2020-02-29T16:25:36Z</time>
      </trkpt>
      <trkpt lat="40.295480" lon="-4.985400">
        <ele>1066.408</ele>
        <time>2020-02-29T16:25:56Z</time>
      </trkpt>
      <trkpt lat="40.295390" lon="-4.985320">
        <ele>1063.795</ele>
        <time>2020-02-29T16:26:16Z</time>
      </trkpt>
      <trkpt lat="40.295340" lon="-4.985250">
        <ele>1062.418</ele>
        <time>2020-02-29T16:26:36Z</time>
      </trkpt>
      <trkpt lat="40.295310" lon="-4.985160">
        <ele>1062.073</ele>
        <time>2020-02-29T16:26:56Z</time>
      </trkpt>
      <trkpt lat="40.295300" lon="-4.985100">
        <ele>1062.064</ele>
        <time>2020-02-29T16:27:16Z</time>
      </trkpt>
      <trkpt lat="40.295300" lon="-4.984970">
        <ele>1062.446</ele>
        <time>2020-02-29T16:27:36Z</time>
      </trkpt>
      <trkpt lat="40.295320" lon="-4.984910">
        <ele>1062.494</ele>
        <time>2020-02-29T16:27:56Z</time>
      </trkpt>
      <trkpt lat="40.295430" lon="-4.984740">
        <ele>1064.127</ele>
        <time>2020-02-29T16:28:16Z</time>
      </trkpt>
      <trkpt lat="40.295480" lon="-4.984680">
        <ele>1064.862</ele>
        <time>2020-02-29T16:28:36Z</time>
      </trkpt>
      <trkpt lat="40.295520" lon="-4.984600">
        <ele>1064.732</ele>
        <time>2020-02-29T16:28:56Z</time>
      </trkpt>
      <trkpt lat="40.295530" lon="-4.984550">
        <ele>1064.192</ele>
        <time>2020-02-29T16:29:16Z</time>
      </trkpt>
      <trkpt lat="40.295520" lon="-4.984480">
        <ele>1062.611</ele>
        <time>2020-02-29T16:29:36Z</time>
      </trkpt>
      <trkpt lat="40.295470" lon="-4.984330">
        <ele>1060.308</ele>
        <time>2020-02-29T16:29:56Z</time>
      </trkpt>
      <trkpt lat="40.295460" lon="-4.984320">
        <ele>1059.967</ele>
        <time>2020-02-29T16:30:16Z</time>
      </trkpt>
      <trkpt lat="40.295400" lon="-4.984110">
        <ele>1057.220</ele>
        <time>2020-02-29T16:30:36Z</time>
      </trkpt>
      <trkpt lat="40.295370" lon="-4.983910">
        <ele>1055.125</ele>
        <time>2020-02-29T16:30:56Z</time>
      </trkpt>
      <trkpt lat="40.295380" lon="-4.983890">
        <ele>1055.456</ele>
        <time>2020-02-29T16:31:16Z</time>
      </trkpt>
      <trkpt lat="40.295380" lon="-4.983810">
        <ele>1055.218</ele>
        <time>2020-02-29T16:31:36Z</time>
      </trkpt>
      <trkpt lat="40.295450" lon="-4.983460">
        <ele>1056.176</ele>
        <time>2020-02-29T16:31:56Z</time>
      </trkpt>
      <trkpt lat="40.295530" lon="-4.983210">
        <ele>1055.329</ele>
        <time>2020-02-29T16:32:16Z</time>
      </trkpt>
      <trkpt lat="40.295640" lon="-4.983000">
        <ele>1055.394</ele>
        <time>2020-02-29T16:32:36Z</time>
      </trkpt>
      <trkpt lat="40.295710" lon="-4.982800">
        <ele>1053.771</ele>
        <time>2020-02-29T16:32:56Z</time>
      </trkpt>
      <trkpt lat="40.295730" lon="-4.982650">
        <ele>1052.041</ele>
        <time>2020-02-29T16:33:16Z</time>
      </trkpt>
      <trkpt lat="40.295700" lon="-4.982340">
        <ele>1049.015</ele>
        <time>2020-02-29T16:33:36Z</time>
      </trkpt>
      <trkpt lat="40.295730" lon="-4.981990">
        <ele>1048.608</ele>
        <time>2020-02-29T16:33:56Z</time>
      </trkpt>
      <trkpt lat="40.295900" lon="-4.981040">
        <ele>1044.711</ele>
        <time>2020-02-29T16:34:16Z</time>
      </trkpt>
      <trkpt lat="40.295920" lon="-4.980730">
        <ele>1042.374</ele>
        <time>2020-02-29T16:34:36Z</time>
      </trkpt>
      <trkpt lat="40.295900" lon="-4.980090">
        <ele>1035.389</ele>
        <time>2020-02-29T16:34:56Z</time>
      </trkpt>
      <trkpt lat="40.295920" lon="-4.979810">
        <ele>1035.030</ele>
        <time>2020-02-29T16:35:16Z</time>
      </trkpt>
      <trkpt lat="40.296030" lon="-4.979080">
        <ele>1035.882</ele>
        <time>2020-02-29T16:35:36Z</time>
      </trkpt>
      <trkpt lat="40.296110" lon="-4.978380">
        <ele>1029.670</ele>
        <time>2020-02-29T16:35:56Z</time>
      </trkpt>
      <trkpt lat="40.296150" lon="-4.978200">
        <ele>1028.533</ele>
        <time>2020-02-29T16:36:16Z</time>
      </trkpt>
      <trkpt lat="40.296170" lon="-4.978160">
        <ele>1028.968</ele>
        <time>2020-02-29T16:36:36Z</time>
      </trkpt>
      <trkpt lat="40.296200" lon="-4.978070">
        <ele>1028.856</ele>
        <time>2020-02-29T16:36:56Z</time>
      </trkpt>
      <trkpt lat="40.296290" lon="-4.977870">
        <ele>1027.459</ele>
        <time>2020-02-29T16:37:16Z</time>
      </trkpt>
      <trkpt lat="40.296370" lon="-4.977760">
        <ele>1026.714</ele>
        <time>2020-02-29T16:37:36Z</time>
      </trkpt>
      <trkpt lat="40.296490" lon="-4.977630">
        <ele>1027.608</ele>
        <time>2020-02-29T16:37:56Z</time>
      </trkpt>
      <trkpt lat="40.296500" lon="-4.977610">
        <ele>1027.479</ele>
        <time>2020-02-29T16:38:16Z</time>
      </trkpt>
      <trkpt lat="40.296650" lon="-4.977450">
        <ele>1028.322</ele>
        <time>2020-02-29T16:38:36Z</time>
      </trkpt>
      <trkpt lat="40.296830" lon="-4.977180">
        <ele>1025.957</ele>
        <time>2020-02-29T16:38:56Z</time>
      </trkpt>
      <trkpt lat="40.296860" lon="-4.977100">
        <ele>1024.858</ele>
        <time>2020-02-29T16:39:16Z</time>
      </trkpt>
      <trkpt lat="40.296920" lon="-4.976980">
        <ele>1023.370</ele>
        <time>2020-02-29T16:39:36Z</time>
      </trkpt>
      <trkpt lat="40.296960" lon="-4.976860">
        <ele>1021.898</ele>
        <time>2020-02-29T16:39:56Z</time>
      </trkpt>
      <trkpt lat="40.296980" lon="-4.976710">
        <ele>1019.311</ele>
        <time>2020-02-29T16:40:16Z</time>
      </trkpt>
      <trkpt lat="40.296960" lon="-4.976640">
        <ele>1017.356</ele>
        <time>2020-02-29T16:40:36Z</time>
      </trkpt>
      <trkpt lat="40.296920" lon="-4.976550">
        <ele>1015.621</ele>
        <time>2020-02-29T16:40:56Z</time>
      </trkpt>
      <trkpt lat="40.296870" lon="-4.976490">
        <ele>1014.241</ele>
        <time>2020-02-29T16:41:16Z</time>
      </trkpt>
      <trkpt lat="40.296780" lon="-4.976410">
        <ele>1012.105</ele>
        <time>2020-02-29T16:41:36Z</time>
      </trkpt>
      <trkpt lat="40.296770" lon="-4.976390">
        <ele>1011.908</ele>
        <time>2020-02-29T16:41:56Z</time>
      </trkpt>
      <trkpt lat="40.296170" lon="-4.975680">
        <ele>1010.836</ele>
        <time>2020-02-29T16:42:16Z</time>
      </trkpt>
      <trkpt lat="40.296060" lon="-4.975570">
        <ele>1011.129</ele>
        <time>2020-02-29T16:42:36Z</time>
      </trkpt>
      <trkpt lat="40.296020" lon="-4.975550">
        <ele>1010.884</ele>
        <time>2020-02-29T16:42:56Z</time>
      </trkpt>
      <trkpt lat="40.295960" lon="-4.975540">
        <ele>1010.115</ele>
        <time>2020-02-29T16:43:16Z</time>
      </trkpt>
      <trkpt lat="40.295810" lon="-4.975570">
        <ele>1007.997</ele>
        <time>2020-02-29T16:43:36Z</time>
      </trkpt>
      <trkpt lat="40.295670" lon="-4.975610">
        <ele>1007.695</ele>
        <time>2020-02-29T16:43:56Z</time>
      </trkpt>
      <trkpt lat="40.295650" lon="-4.975610">
        <ele>1007.628</ele>
        <time>2020-02-29T16:44:16Z</time>
      </trkpt>
      <trkpt lat="40.295160" lon="-4.975750">
        <ele>1005.153</ele>
        <time>2020-02-29T16:44:36Z</time>
      </trkpt>
      <trkpt lat="40.295140" lon="-4.975760">
        <ele>1005.051</ele>
        <time>2020-02-29T16:44:56Z</time>
      </trkpt>
      <trkpt lat="40.295070" lon="-4.975780">
        <ele>1005.001</ele>
        <time>2020-02-29T16:45:16Z</time>
      </trkpt>
      <trkpt lat="40.294990" lon="-4.975840">
        <ele>1004.111</ele>
        <time>2020-02-29T16:45:36Z</time>
      </trkpt>
      <trkpt lat="40.294970" lon="-4.975850">
        <ele>1004.308</ele>
        <time>2020-02-29T16:45:56Z</time>
      </trkpt>
      <trkpt lat="40.294680" lon="-4.976130">
        <ele>1001.339</ele>
        <time>2020-02-29T16:46:16Z</time>
      </trkpt>
      <trkpt lat="40.294520" lon="-4.976310">
        <ele>999.672</ele>
        <time>2020-02-29T16:46:36Z</time>
      </trkpt>
      <trkpt lat="40.294470" lon="-4.976380">
        <ele>998.827</ele>
        <time>2020-02-29T16:46:56Z</time>
      </trkpt>
      <trkpt lat="40.294440" lon="-4.976440">
        <ele>997.888</ele>
        <time>2020-02-29T16:47:16Z</time>
      </trkpt>
      <trkpt lat="40.294340" lon="-4.976770">
        <ele>991.730</ele>
        <time>2020-02-29T16:47:36Z</time>
      </trkpt>
      <trkpt lat="40.294300" lon="-4.976870">
        <ele>990.078</ele>
        <time>2020-02-29T16:47:56Z</time>
      </trkpt>
      <trkpt lat="40.294280" lon="-4.976890">
        <ele>989.851</ele>
        <time>2020-02-29T16:48:16Z</time>
      </trkpt>
      <trkpt lat="40.294260" lon="-4.976920">
        <ele>989.366</ele>
        <time>2020-02-29T16:48:36Z</time>
      </trkpt>
      <trkpt lat="40.294220" lon="-4.976960">
        <ele>988.842</ele>
        <time>2020-02-29T16:48:56Z</time>
      </trkpt>
      <trkpt lat="40.294180" lon="-4.976980">
        <ele>988.822</ele>
        <time>2020-02-29T16:49:16Z</time>
      </trkpt>
      <trkpt lat="40.293900" lon="-4.977040">
        <ele>991.114</ele>
        <time>2020-02-29T16:49:36Z</time>
      </trkpt>
      <trkpt lat="40.293870" lon="-4.977070">
        <ele>991.008</ele>
        <time>2020-02-29T16:49:56Z</time>
      </trkpt>
      <trkpt lat="40.293830" lon="-4.977100">
        <ele>991.418</ele>
        <time>2020-02-29T16:50:16Z</time>
      </trkpt>
      <trkpt lat="40.293350" lon="-4.978060">
        <ele>984.281</ele>
        <time>2020-02-29T16:50:36Z</time>
      </trkpt>
      <trkpt lat="40.293270" lon="-4.978280">
        <ele>983.896</ele>
        <time>2020-02-29T16:50:56Z</time>
      </trkpt>
      <trkpt lat="40.293210" lon="-4.978830">
        <ele>978.667</ele>
        <time>2020-02-29T16:51:16Z</time>
      </trkpt>
      <trkpt lat="40.293180" lon="-4.979000">
        <ele>977.059</ele>
        <time>2020-02-29T16:51:36Z</time>
      </trkpt>
      <trkpt lat="40.293070" lon="-4.979380">
        <ele>974.557</ele>
        <time>2020-02-29T16:51:56Z</time>
      </trkpt>
      <trkpt lat="40.292970" lon="-4.979590">
        <ele>974.250</ele>
        <time>2020-02-29T16:52:16Z</time>
      </trkpt>
      <trkpt lat="40.292900" lon="-4.979700">
        <ele>973.885</ele>
        <time>2020-02-29T16:52:36Z</time>
      </trkpt>
      <trkpt lat="40.292730" lon="-4.979910">
        <ele>973.696</ele>
        <time>2020-02-29T16:52:56Z</time>
      </trkpt>
      <trkpt lat="40.292490" lon="-4.980140">
        <ele>970.631</ele>
        <time>2020-02-29T16:53:16Z</time>
      </trkpt>
      <trkpt lat="40.291960" lon="-4.980560">
        <ele>966.424</ele>
        <time>2020-02-29T16:53:36Z</time>
      </trkpt>
      <trkpt lat="40.291640" lon="-4.980920">
        <ele>961.708</ele>
        <time>2020-02-29T16:53:56Z</time>
      </trkpt>
      <trkpt lat="40.291530" lon="-4.980990">
        <ele>961.693</ele>
        <time>2020-02-29T16:54:16Z</time>
      </trkpt>
      <trkpt lat="40.291300" lon="-4.981100">
        <ele>961.416</ele>
        <time>2020-02-29T16:54:36Z</time>
      </trkpt>
      <trkpt lat="40.291280" lon="-4.981100">
        <ele>961.631</ele>
        <time>2020-02-29T16:54:56Z</time>
      </trkpt>
      <trkpt lat="40.291120" lon="-4.981200">
        <ele>959.442</ele>
        <time>2020-02-29T16:55:16Z</time>
      </trkpt>
      <trkpt lat="40.290940" lon="-4.981280">
        <ele>957.594</ele>
        <time>2020-02-29T16:55:36Z</time>
      </trkpt>
      <trkpt lat="40.290800" lon="-4.981310">
        <ele>956.992</ele>
        <time>2020-02-29T16:55:56Z</time>
      </trkpt>
      <trkpt lat="40.290720" lon="-4.981310">
        <ele>956.575</ele>
        <time>2020-02-29T16:56:16Z</time>
      </trkpt>
      <trkpt lat="40.290660" lon="-4.981320">
        <ele>955.810</ele>
        <time>2020-02-29T16:56:36Z</time>
      </trkpt>
      <trkpt lat="40.290580" lon="-4.981310">
        <ele>955.796</ele>
        <time>2020-02-29T16:56:56Z</time>
      </trkpt>
      <trkpt lat="40.290500" lon="-4.981290">
        <ele>956.131</ele>
        <time>2020-02-29T16:57:16Z</time>
      </trkpt>
      <trkpt lat="40.290360" lon="-4.981290">
        <ele>956.024</ele>
        <time>2020-02-29T16:57:36Z</time>
      </trkpt>
      <trkpt lat="40.290270" lon="-4.981320">
        <ele>955.108</ele>
        <time>2020-02-29T16:57:56Z</time>
      </trkpt>
      <trkpt lat="40.290040" lon="-4.981490">
        <ele>954.133</ele>
        <time>2020-02-29T16:58:16Z</time>
      </trkpt>
      <trkpt lat="40.289960" lon="-4.981620">
        <ele>953.056</ele>
        <time>2020-02-29T16:58:36Z</time>
      </trkpt>
      <trkpt lat="40.289950" lon="-4.981620">
        <ele>953.341</ele>
        <time>2020-02-29T16:58:56Z</time>
      </trkpt>
      <trkpt lat="40.289880" lon="-4.981780">
        <ele>950.552</ele>
        <time>2020-02-29T16:59:16Z</time>
      </trkpt>
      <trkpt lat="40.289670" lon="-4.982130">
        <ele>945.044</ele>
        <time>2020-02-29T16:59:36Z</time>
      </trkpt>
      <trkpt lat="40.289470" lon="-4.982310">
        <ele>943.992</ele>
        <time>2020-02-29T16:59:56Z</time>
      </trkpt>
      <trkpt lat="40.289370" lon="-4.982350">
        <ele>943.235</ele>
        <time>2020-02-29T17:00:16Z</time>
      </trkpt>
      <trkpt lat="40.289300" lon="-4.982370">
        <ele>942.550</ele>
        <time>2020-02-29T17:00:36Z</time>
      </trkpt>
      <trkpt lat="40.289290" lon="-4.982380">
        <ele>942.392</ele>
        <time>2020-02-29T17:00:56Z</time>
      </trkpt>
      <trkpt lat="40.289220" lon="-4.982370">
        <ele>942.473</ele>
        <time>2020-02-29T17:01:16Z</time>
      </trkpt>
      <trkpt lat="40.289140" lon="-4.982320">
        <ele>942.620</ele>
        <time>2020-02-29T17:01:36Z</time>
      </trkpt>
      <trkpt lat="40.289130" lon="-4.982320">
        <ele>942.308</ele>
        <time>2020-02-29T17:01:56Z</time>
      </trkpt>
      <trkpt lat="40.289010" lon="-4.982150">
        <ele>942.153</ele>
        <time>2020-02-29T17:02:16Z</time>
      </trkpt>
      <trkpt lat="40.289010" lon="-4.982140">
        <ele>942.246</ele>
        <time>2020-02-29T17:02:36Z</time>
      </trkpt>
      <trkpt lat="40.288840" lon="-4.981790">
        <ele>942.491</ele>
        <time>2020-02-29T17:02:56Z</time>
      </trkpt>
      <trkpt lat="40.288690" lon="-4.981390">
        <ele>940.872</ele>
        <time>2020-02-29T17:03:16Z</time>
      </trkpt>
      <trkpt lat="40.288660" lon="-4.981330">
        <ele>940.064</ele>
        <time>2020-02-29T17:03:36Z</time>
      </trkpt>
      <trkpt lat="40.288540" lon="-4.980970">
        <ele>936.082</ele>
        <time>2020-02-29T17:03:56Z</time>
      </trkpt>
      <trkpt lat="40.288480" lon="-4.980740">
        <ele>933.315</ele>
        <time>2020-02-29T17:04:16Z</time>
      </trkpt>
      <trkpt lat="40.288480" lon="-4.980670">
        <ele>933.640</ele>
        <time>2020-02-29T17:04:36Z</time>
      </trkpt>
      <trkpt lat="40.288470" lon="-4.980610">
        <ele>933.272</ele>
        <time>2020-02-29T17:04:56Z</time>
      </trkpt>
      <trkpt lat="40.288490" lon="-4.980170">
        <ele>935.113</ele>
        <time>2020-02-29T17:05:16Z</time>
      </trkpt>
      <trkpt lat="40.288450" lon="-4.979990">
        <ele>933.814</ele>
        <time>2020-02-29T17:05:36Z</time>
      </trkpt>
      <trkpt lat="40.288440" lon="-4.979970">
        <ele>933.708</ele>
        <time>2020-02-29T17:05:56Z</time>
      </trkpt>
      <trkpt lat="40.288410" lon="-4.979940">
        <ele>933.191</ele>
        <time>2020-02-29T17:06:16Z</time>
      </trkpt>
      <trkpt lat="40.288360" lon="-4.979870">
        <ele>933.044</ele>
        <time>2020-02-29T17:06:36Z</time>
      </trkpt>
      <trkpt lat="40.288290" lon="-4.979850">
        <ele>932.369</ele>
        <time>2020-02-29T17:06:56Z</time>
      </trkpt>
      <trkpt lat="40.288220" lon="-4.979820">
        <ele>932.510</ele>
        <time>2020-02-29T17:07:16Z</time>
      </trkpt>
      <trkpt lat="40.288040" lon="-4.979810">
        <ele>931.532</ele>
        <time>2020-02-29T17:07:36Z</time>
      </trkpt>
      <trkpt lat="40.287630" lon="-4.979890">
        <ele>926.570</ele>
        <time>2020-02-29T17:07:56Z</time>
      </trkpt>
      <trkpt lat="40.287580" lon="-4.979910">
        <ele>925.573</ele>
        <time>2020-02-29T17:08:16Z</time>
      </trkpt>
      <trkpt lat="40.287430" lon="-4.979930">
        <ele>923.148</ele>
        <time>2020-02-29T17:08:36Z</time>
      </trkpt>
      <trkpt lat="40.287300" lon="-4.979910">
        <ele>921.265</ele>
        <time>2020-02-29T17:08:56Z</time>
      </trkpt>
      <trkpt lat="40.287050" lon="-4.979840">
        <ele>919.568</ele>
        <time>2020-02-29T17:09:16Z</time>
      </trkpt>
      <trkpt lat="40.286790" lon="-4.979830">
        <ele>918.014</ele>
        <time>2020-02-29T17:09:36Z</time>
      </trkpt>
      <trkpt lat="40.286720" lon="-4.979850">
        <ele>917.308</ele>
        <time>2020-02-29T17:09:56Z</time>
      </trkpt>
      <trkpt lat="40.286600" lon="-4.979920">
        <ele>915.870</ele>
        <time>2020-02-29T17:10:16Z</time>
      </trkpt>
      <trkpt lat="40.286320" lon="-4.980120">
        <ele>911.463</ele>
        <time>2020-02-29T17:10:36Z</time>
      </trkpt>
      <trkpt lat="40.286260" lon="-4.980150">
        <ele>910.658</ele>
        <time>2020-02-29T17:10:56Z</time>
      </trkpt>
      <trkpt lat="40.286180" lon="-4.980170">
        <ele>910.269</ele>
        <time>2020-02-29T17:11:16Z</time>
      </trkpt>
      <trkpt lat="40.285520" lon="-4.980160">
        <ele>903.881</ele>
        <time>2020-02-29T17:11:36Z</time>
      </trkpt>
      <trkpt lat="40.285490" lon="-4.980140">
        <ele>903.839</ele>
        <time>2020-02-29T17:11:56Z</time>
      </trkpt>
      <trkpt lat="40.285460" lon="-4.980130">
        <ele>903.642</ele>
        <time>2020-02-29T17:12:16Z</time>
      </trkpt>
      <trkpt lat="40.285350" lon="-4.980000">
        <ele>904.047</ele>
        <time>2020-02-29T17:12:36Z</time>
      </trkpt>
      <trkpt lat="40.285260" lon="-4.979860">
        <ele>904.095</ele>
        <time>2020-02-29T17:12:56Z</time>
      </trkpt>
      <trkpt lat="40.285230" lon="-4.979760">
        <ele>904.249</ele>
        <time>2020-02-29T17:13:16Z</time>
      </trkpt>
      <trkpt lat="40.285210" lon="-4.979600">
        <ele>905.323</ele>
        <time>2020-02-29T17:13:36Z</time>
      </trkpt>
      <trkpt lat="40.285200" lon="-4.979580">
        <ele>905.208</ele>
        <time>2020-02-29T17:13:56Z</time>
      </trkpt>
      <trkpt lat="40.285190" lon="-4.979470">
        <ele>905.983</ele>
        <time>2020-02-29T17:14:16Z</time>
      </trkpt>
      <trkpt lat="40.285120" lon="-4.979270">
        <ele>904.896</ele>
        <time>2020-02-29T17:14:36Z</time>
      </trkpt>
      <trkpt lat="40.285060" lon="-4.979160">
        <ele>903.231</ele>
        <time>2020-02-29T17:14:56Z</time>
      </trkpt>
      <trkpt lat="40.285000" lon="-4.979020">
        <ele>902.112</ele>
        <time>2020-02-29T17:15:16Z</time>
      </trkpt>
      <trkpt lat="40.284830" lon="-4.978520">
        <ele>899.514</ele>
        <time>2020-02-29T17:15:36Z</time>
      </trkpt>
      <trkpt lat="40.284800" lon="-4.978400">
        <ele>899.312</ele>
        <time>2020-02-29T17:15:56Z</time>
      </trkpt>
      <trkpt lat="40.284720" lon="-4.978260">
        <ele>898.015</ele>
        <time>2020-02-29T17:16:16Z</time>
      </trkpt>
      <trkpt lat="40.284680" lon="-4.978220">
        <ele>898.090</ele>
        <time>2020-02-29T17:16:36Z</time>
      </trkpt>
      <trkpt lat="40.284600" lon="-4.978220">
        <ele>896.961</ele>
        <time>2020-02-29T17:16:56Z</time>
      </trkpt>
      <trkpt lat="40.284540" lon="-4.978210">
        <ele>896.221</ele>
        <time>2020-02-29T17:17:16Z</time>
      </trkpt>
      <trkpt lat="40.284410" lon="-4.978210">
        <ele>893.813</ele>
        <time>2020-02-29T17:17:36Z</time>
      </trkpt>
      <trkpt lat="40.284380" lon="-4.978200">
        <ele>893.108</ele>
        <time>2020-02-29T17:17:56Z</time>
      </trkpt>
      <trkpt lat="40.284340" lon="-4.978170">
        <ele>892.240</ele>
        <time>2020-02-29T17:18:16Z</time>
      </trkpt>
      <trkpt lat="40.284290" lon="-4.978090">
        <ele>891.253</ele>
        <time>2020-02-29T17:18:36Z</time>
      </trkpt>
      <trkpt lat="40.284290" lon="-4.978000">
        <ele>891.358</ele>
        <time>2020-02-29T17:18:56Z</time>
      </trkpt>
      <trkpt lat="40.284320" lon="-4.977880">
        <ele>892.269</ele>
        <time>2020-02-29T17:19:16Z</time>
      </trkpt>
      <trkpt lat="40.284480" lon="-4.977600">
        <ele>895.661</ele>
        <time>2020-02-29T17:19:36Z</time>
      </trkpt>
      <trkpt lat="40.284530" lon="-4.977530">
        <ele>896.449</ele>
        <time>2020-02-29T17:19:56Z</time>
      </trkpt>
      <trkpt lat="40.284550" lon="-4.977470">
        <ele>896.772</ele>
        <time>2020-02-29T17:20:16Z</time>
      </trkpt>
      <trkpt lat="40.284560" lon="-4.977390">
        <ele>896.957</ele>
        <time>2020-02-29T17:20:36Z</time>
      </trkpt>
      <trkpt lat="40.284540" lon="-4.977310">
        <ele>896.052</ele>
        <time>2020-02-29T17:20:56Z</time>
      </trkpt>
      <trkpt lat="40.284510" lon="-4.977280">
        <ele>894.853</ele>
        <time>2020-02-29T17:21:16Z</time>
      </trkpt>
      <trkpt lat="40.284450" lon="-4.977250">
        <ele>892.308</ele>
        <time>2020-02-29T17:21:36Z</time>
      </trkpt>
      <trkpt lat="40.283920" lon="-4.977120">
        <ele>885.308</ele>
        <time>2020-02-29T17:21:56Z</time>
      </trkpt>
      <trkpt lat="40.283880" lon="-4.977080">
        <ele>885.319</ele>
        <time>2020-02-29T17:22:16Z</time>
      </trkpt>
      <trkpt lat="40.283830" lon="-4.976990">
        <ele>885.182</ele>
        <time>2020-02-29T17:22:36Z</time>
      </trkpt>
      <trkpt lat="40.283810" lon="-4.976930">
        <ele>885.377</ele>
        <time>2020-02-29T17:22:56Z</time>
      </trkpt>
      <trkpt lat="40.283760" lon="-4.976640">
        <ele>886.088</ele>
        <time>2020-02-29T17:23:16Z</time>
      </trkpt>
      <trkpt lat="40.283760" lon="-4.976570">
        <ele>886.580</ele>
        <time>2020-02-29T17:23:36Z</time>
      </trkpt>
      <trkpt lat="40.283710" lon="-4.976320">
        <ele>885.678</ele>
        <time>2020-02-29T17:23:56Z</time>
      </trkpt>
      <trkpt lat="40.283520" lon="-4.975910">
        <ele>880.421</ele>
        <time>2020-02-29T17:24:16Z</time>
      </trkpt>
      <trkpt lat="40.283450" lon="-4.975670">
        <ele>879.226</ele>
        <time>2020-02-29T17:24:36Z</time>
      </trkpt>
      <trkpt lat="40.283430" lon="-4.975230">
        <ele>878.178</ele>
        <time>2020-02-29T17:24:56Z</time>
      </trkpt>
      <trkpt lat="40.283450" lon="-4.975120">
        <ele>878.933</ele>
        <time>2020-02-29T17:25:16Z</time>
      </trkpt>
      <trkpt lat="40.283500" lon="-4.975020">
        <ele>881.826</ele>
        <time>2020-02-29T17:25:36Z</time>
      </trkpt>
      <trkpt lat="40.283500" lon="-4.975010">
        <ele>881.808</ele>
        <time>2020-02-29T17:25:56Z</time>
      </trkpt>
      <trkpt lat="40.283570" lon="-4.974890">
        <ele>883.021</ele>
        <time>2020-02-29T17:26:16Z</time>
      </trkpt>
      <trkpt lat="40.283760" lon="-4.974620">
        <ele>883.574</ele>
        <time>2020-02-29T17:26:36Z</time>
      </trkpt>
      <trkpt lat="40.283930" lon="-4.974420">
        <ele>884.119</ele>
        <time>2020-02-29T17:26:56Z</time>
      </trkpt>
      <trkpt lat="40.284020" lon="-4.974270">
        <ele>881.620</ele>
        <time>2020-02-29T17:27:16Z</time>
      </trkpt>
      <trkpt lat="40.284070" lon="-4.974210">
        <ele>881.522</ele>
        <time>2020-02-29T17:27:36Z</time>
      </trkpt>
      <trkpt lat="40.284120" lon="-4.974090">
        <ele>880.470</ele>
        <time>2020-02-29T17:27:56Z</time>
      </trkpt>
      <trkpt lat="40.284120" lon="-4.974050">
        <ele>879.473</ele>
        <time>2020-02-29T17:28:16Z</time>
      </trkpt>
      <trkpt lat="40.284090" lon="-4.973930">
        <ele>875.758</ele>
        <time>2020-02-29T17:28:36Z</time>
      </trkpt>
      <trkpt lat="40.284030" lon="-4.973800">
        <ele>873.446</ele>
        <time>2020-02-29T17:28:56Z</time>
      </trkpt>
      <trkpt lat="40.283990" lon="-4.973740">
        <ele>872.788</ele>
        <time>2020-02-29T17:29:16Z</time>
      </trkpt>
      <trkpt lat="40.283980" lon="-4.973710">
        <ele>872.716</ele>
        <time>2020-02-29T17:29:36Z</time>
      </trkpt>
      <trkpt lat="40.283910" lon="-4.973640">
        <ele>872.008</ele>
        <time>2020-02-29T17:29:56Z</time>
      </trkpt>
      <trkpt lat="40.283880" lon="-4.973620">
        <ele>871.938</ele>
        <time>2020-02-29T17:30:16Z</time>
      </trkpt>
      <trkpt lat="40.283820" lon="-4.973620">
        <ele>871.621</ele>
        <time>2020-02-29T17:30:36Z</time>
      </trkpt>
      <trkpt lat="40.283760" lon="-4.973630">
        <ele>871.286</ele>
        <time>2020-02-29T17:30:56Z</time>
      </trkpt>
      <trkpt lat="40.283530" lon="-4.973720">
        <ele>868.977</ele>
        <time>2020-02-29T17:31:16Z</time>
      </trkpt>
      <trkpt lat="40.283440" lon="-4.973790">
        <ele>867.239</ele>
        <time>2020-02-29T17:31:36Z</time>
      </trkpt>
      <trkpt lat="40.283040" lon="-4.974160">
        <ele>860.627</ele>
        <time>2020-02-29T17:31:56Z</time>
      </trkpt>
      <trkpt lat="40.282710" lon="-4.974350">
        <ele>861.480</ele>
        <time>2020-02-29T17:32:16Z</time>
      </trkpt>
      <trkpt lat="40.282660" lon="-4.974370">
        <ele>861.115</ele>
        <time>2020-02-29T17:32:36Z</time>
      </trkpt>
      <trkpt lat="40.282570" lon="-4.974390">
        <ele>861.139</ele>
        <time>2020-02-29T17:32:56Z</time>
      </trkpt>
      <trkpt lat="40.282520" lon="-4.974390">
        <ele>861.301</ele>
        <time>2020-02-29T17:33:16Z</time>
      </trkpt>
      <trkpt lat="40.282470" lon="-4.974380">
        <ele>861.521</ele>
        <time>2020-02-29T17:33:36Z</time>
      </trkpt>
      <trkpt lat="40.282400" lon="-4.974340">
        <ele>862.208</ele>
        <time>2020-02-29T17:33:56Z</time>
      </trkpt>
      <trkpt lat="40.282240" lon="-4.974130">
        <ele>864.777</ele>
        <time>2020-02-29T17:34:16Z</time>
      </trkpt>
      <trkpt lat="40.282160" lon="-4.974050">
        <ele>865.850</ele>
        <time>2020-02-29T17:34:36Z</time>
      </trkpt>
      <trkpt lat="40.282090" lon="-4.974000">
        <ele>866.555</ele>
        <time>2020-02-29T17:34:56Z</time>
      </trkpt>
      <trkpt lat="40.282010" lon="-4.973990">
        <ele>866.656</ele>
        <time>2020-02-29T17:35:16Z</time>
      </trkpt>
      <trkpt lat="40.281950" lon="-4.973990">
        <ele>866.618</ele>
        <time>2020-02-29T17:35:36Z</time>
      </trkpt>
      <trkpt lat="40.281870" lon="-4.974010">
        <ele>867.656</ele>
        <time>2020-02-29T17:35:56Z</time>
      </trkpt>
      <trkpt lat="40.281790" lon="-4.974080">
        <ele>867.999</ele>
        <time>2020-02-29T17:36:16Z</time>
      </trkpt>
      <trkpt lat="40.281770" lon="-4.974120">
        <ele>867.794</ele>
        <time>2020-02-29T17:36:36Z</time>
      </trkpt>
      <trkpt lat="40.281750" lon="-4.974250">
        <ele>866.883</ele>
        <time>2020-02-29T17:36:56Z</time>
      </trkpt>
      <trkpt lat="40.281760" lon="-4.974330">
        <ele>866.225</ele>
        <time>2020-02-29T17:37:16Z</time>
      </trkpt>
      <trkpt lat="40.281810" lon="-4.974500">
        <ele>864.717</ele>
        <time>2020-02-29T17:37:36Z</time>
      </trkpt>
      <trkpt lat="40.281890" lon="-4.974700">
        <ele>863.308</ele>
        <time>2020-02-29T17:37:56Z</time>
      </trkpt>
      <trkpt lat="40.281940" lon="-4.974760">
        <ele>862.732</ele>
        <time>2020-02-29T17:38:16Z</time>
      </trkpt>
      <trkpt lat="40.281950" lon="-4.974780">
        <ele>862.585</ele>
        <time>2020-02-29T17:38:36Z</time>
      </trkpt>
      <trkpt lat="40.282050" lon="-4.974910">
        <ele>859.480</ele>
        <time>2020-02-29T17:38:56Z</time>
      </trkpt>
      <trkpt lat="40.282120" lon="-4.975020">
        <ele>857.011</ele>
        <time>2020-02-29T17:39:16Z</time>
      </trkpt>
      <trkpt lat="40.282150" lon="-4.975140">
        <ele>855.373</ele>
        <time>2020-02-29T17:39:36Z</time>
      </trkpt>
      <trkpt lat="40.282150" lon="-4.975240">
        <ele>854.471</ele>
        <time>2020-02-29T17:39:56Z</time>
      </trkpt>
      <trkpt lat="40.282140" lon="-4.975320">
        <ele>853.794</ele>
        <time>2020-02-29T17:40:16Z</time>
      </trkpt>
      <trkpt lat="40.282060" lon="-4.975480">
        <ele>852.999</ele>
        <time>2020-02-29T17:40:36Z</time>
      </trkpt>
      <trkpt lat="40.282010" lon="-4.975540">
        <ele>852.988</ele>
        <time>2020-02-29T17:40:56Z</time>
      </trkpt>
      <trkpt lat="40.282000" lon="-4.975560">
        <ele>852.724</ele>
        <time>2020-02-29T17:41:16Z</time>
      </trkpt>
      <trkpt lat="40.281930" lon="-4.975620">
        <ele>852.426</ele>
        <time>2020-02-29T17:41:36Z</time>
      </trkpt>
      <trkpt lat="40.281860" lon="-4.975640">
        <ele>852.108</ele>
        <time>2020-02-29T17:41:56Z</time>
      </trkpt>
      <trkpt lat="40.281850" lon="-4.975650">
        <ele>851.912</ele>
        <time>2020-02-29T17:42:16Z</time>
      </trkpt>
      <trkpt lat="40.281800" lon="-4.975660">
        <ele>851.855</ele>
        <time>2020-02-29T17:42:36Z</time>
      </trkpt>
      <trkpt lat="40.281670" lon="-4.975670">
        <ele>851.910</ele>
        <time>2020-02-29T17:42:56Z</time>
      </trkpt>
      <trkpt lat="40.281580" lon="-4.975690">
        <ele>851.791</ele>
        <time>2020-02-29T17:43:16Z</time>
      </trkpt>
      <trkpt lat="40.281330" lon="-4.975810">
        <ele>849.943</ele>
        <time>2020-02-29T17:43:36Z</time>
      </trkpt>
      <trkpt lat="40.281310" lon="-4.975830">
        <ele>849.531</ele>
        <time>2020-02-29T17:43:56Z</time>
      </trkpt>
      <trkpt lat="40.280980" lon="-4.976040">
        <ele>843.924</ele>
        <time>2020-02-29T17:44:16Z</time>
      </trkpt>
      <trkpt lat="40.280950" lon="-4.976050">
        <ele>843.349</ele>
        <time>2020-02-29T17:44:36Z</time>
      </trkpt>
      <trkpt lat="40.280900" lon="-4.976050">
        <ele>842.389</ele>
        <time>2020-02-29T17:44:56Z</time>
      </trkpt>
      <trkpt lat="40.280840" lon="-4.975990">
        <ele>841.106</ele>
        <time>2020-02-29T17:45:16Z</time>
      </trkpt>
      <trkpt lat="40.280820" lon="-4.975930">
        <ele>840.626</ele>
        <time>2020-02-29T17:45:36Z</time>
      </trkpt>
      <trkpt lat="40.280800" lon="-4.975730">
        <ele>840.008</ele>
        <time>2020-02-29T17:45:56Z</time>
      </trkpt>
      <trkpt lat="40.280810" lon="-4.975620">
        <ele>840.112</ele>
        <time>2020-02-29T17:46:16Z</time>
      </trkpt>
      <trkpt lat="40.280860" lon="-4.975360">
        <ele>841.195</ele>
        <time>2020-02-29T17:46:36Z</time>
      </trkpt>
      <trkpt lat="40.280860" lon="-4.975330">
        <ele>841.120</ele>
        <time>2020-02-29T17:46:56Z</time>
      </trkpt>
      <trkpt lat="40.280820" lon="-4.975260">
        <ele>840.511</ele>
        <time>2020-02-29T17:47:16Z</time>
      </trkpt>
      <trkpt lat="40.280760" lon="-4.975220">
        <ele>842.423</ele>
        <time>2020-02-29T17:47:36Z</time>
      </trkpt>
      <trkpt lat="40.280740" lon="-4.975220">
        <ele>842.811</ele>
        <time>2020-02-29T17:47:56Z</time>
      </trkpt>
      <trkpt lat="40.280720" lon="-4.975210">
        <ele>843.464</ele>
        <time>2020-02-29T17:48:16Z</time>
      </trkpt>
      <trkpt lat="40.280680" lon="-4.975200">
        <ele>844.589</ele>
        <time>2020-02-29T17:48:36Z</time>
      </trkpt>
      <trkpt lat="40.280640" lon="-4.975200">
        <ele>845.422</ele>
        <time>2020-02-29T17:48:56Z</time>
      </trkpt>
      <trkpt lat="40.280620" lon="-4.975220">
        <ele>845.362</ele>
        <time>2020-02-29T17:49:16Z</time>
      </trkpt>
      <trkpt lat="40.280590" lon="-4.975240">
        <ele>845.408</ele>
        <time>2020-02-29T17:49:36Z</time>
      </trkpt>
      <trkpt lat="40.280560" lon="-4.975290">
        <ele>844.708</ele>
        <time>2020-02-29T17:49:56Z</time>
      </trkpt>
      <trkpt lat="40.280530" lon="-4.975360">
        <ele>844.486</ele>
        <time>2020-02-29T17:50:16Z</time>
      </trkpt>
      <trkpt lat="40.280480" lon="-4.975580">
        <ele>842.179</ele>
        <time>2020-02-29T17:50:36Z</time>
      </trkpt>
      <trkpt lat="40.280420" lon="-4.975760">
        <ele>839.734</ele>
        <time>2020-02-29T17:50:56Z</time>
      </trkpt>
      <trkpt lat="40.280360" lon="-4.975900">
        <ele>838.325</ele>
        <time>2020-02-29T17:51:16Z</time>
      </trkpt>
      <trkpt lat="40.280270" lon="-4.976040">
        <ele>836.467</ele>
        <time>2020-02-29T17:51:36Z</time>
      </trkpt>
      <trkpt lat="40.280120" lon="-4.976230">
        <ele>834.465</ele>
        <time>2020-02-29T17:51:56Z</time>
      </trkpt>
      <trkpt lat="40.280060" lon="-4.976290">
        <ele>833.878</ele>
        <time>2020-02-29T17:52:16Z</time>
      </trkpt>
      <trkpt lat="40.279750" lon="-4.976500">
        <ele>832.733</ele>
        <time>2020-02-29T17:52:36Z</time>
      </trkpt>
      <trkpt lat="40.279700" lon="-4.976560">
        <ele>832.375</ele>
        <time>2020-02-29T17:52:56Z</time>
      </trkpt>
      <trkpt lat="40.279610" lon="-4.976700">
        <ele>831.328</ele>
        <time>2020-02-29T17:53:16Z</time>
      </trkpt>
      <trkpt lat="40.279040" lon="-4.978070">
        <ele>819.820</ele>
        <time>2020-02-29T17:53:36Z</time>
      </trkpt>
      <trkpt lat="40.278990" lon="-4.978160">
        <ele>818.808</ele>
        <time>2020-02-29T17:53:56Z</time>
      </trkpt>
      <trkpt lat="40.278920" lon="-4.978260">
        <ele>818.341</ele>
        <time>2020-02-29T17:54:16Z</time>
      </trkpt>
      <trkpt lat="40.278920" lon="-4.978270">
        <ele>818.254</ele>
        <time>2020-02-29T17:54:36Z</time>
      </trkpt>
      <trkpt lat="40.278870" lon="-4.978290">
        <ele>817.839</ele>
        <time>2020-02-29T17:54:56Z</time>
      </trkpt>
      <trkpt lat="40.278830" lon="-4.978290">
        <ele>816.850</ele>
        <time>2020-02-29T17:55:16Z</time>
      </trkpt>
      <trkpt lat="40.278780" lon="-4.978280">
        <ele>815.612</ele>
        <time>2020-02-29T17:55:36Z</time>
      </trkpt>
      <trkpt lat="40.278740" lon="-4.978240">
        <ele>814.960</ele>
        <time>2020-02-29T17:55:56Z</time>
      </trkpt>
      <trkpt lat="40.278720" lon="-4.978210">
        <ele>814.693</ele>
        <time>2020-02-29T17:56:16Z</time>
      </trkpt>
      <trkpt lat="40.278670" lon="-4.978060">
        <ele>814.598</ele>
        <time>2020-02-29T17:56:36Z</time>
      </trkpt>
      <trkpt lat="40.278670" lon="-4.977920">
        <ele>815.553</ele>
        <time>2020-02-29T17:56:56Z</time>
      </trkpt>
      <trkpt lat="40.278650" lon="-4.977830">
        <ele>815.604</ele>
        <time>2020-02-29T17:57:16Z</time>
      </trkpt>
      <trkpt lat="40.278640" lon="-4.977720">
        <ele>816.114</ele>
        <time>2020-02-29T17:57:36Z</time>
      </trkpt>
      <trkpt lat="40.278620" lon="-4.977650">
        <ele>816.108</ele>
        <time>2020-02-29T17:57:56Z</time>
      </trkpt>
      <trkpt lat="40.278610" lon="-4.977570">
        <ele>816.529</ele>
        <time>2020-02-29T17:58:16Z</time>
      </trkpt>
      <trkpt lat="40.278590" lon="-4.977510">
        <ele>816.862</ele>
        <time>2020-02-29T17:58:36Z</time>
      </trkpt>
      <trkpt lat="40.278570" lon="-4.977470">
        <ele>817.097</ele>
        <time>2020-02-29T17:58:56Z</time>
      </trkpt>
      <trkpt lat="40.278530" lon="-4.977440">
        <ele>817.088</ele>
        <time>2020-02-29T17:59:16Z</time>
      </trkpt>
      <trkpt lat="40.278480" lon="-4.977420">
        <ele>816.990</ele>
        <time>2020-02-29T17:59:36Z</time>
      </trkpt>
      <trkpt lat="40.278440" lon="-4.977450">
        <ele>816.458</ele>
        <time>2020-02-29T17:59:56Z</time>
      </trkpt>
      <trkpt lat="40.278390" lon="-4.977500">
        <ele>815.471</ele>
        <time>2020-02-29T18:00:16Z</time>
      </trkpt>
      <trkpt lat="40.278310" lon="-4.977600">
        <ele>813.336</ele>
        <time>2020-02-29T18:00:36Z</time>
      </trkpt>
      <trkpt lat="40.278290" lon="-4.977610">
        <ele>813.254</ele>
        <time>2020-02-29T18:00:56Z</time>
      </trkpt>
      <trkpt lat="40.278020" lon="-4.977680">
        <ele>814.256</ele>
        <time>2020-02-29T18:01:16Z</time>
      </trkpt>
      <trkpt lat="40.277980" lon="-4.977720">
        <ele>814.611</ele>
        <time>2020-02-29T18:01:36Z</time>
      </trkpt>
      <trkpt lat="40.277960" lon="-4.977760">
        <ele>814.608</ele>
        <time>2020-02-29T18:01:56Z</time>
      </trkpt>
      <trkpt lat="40.277930" lon="-4.977860">
        <ele>814.219</ele>
        <time>2020-02-29T18:02:16Z</time>
      </trkpt>
      <trkpt lat="40.277910" lon="-4.978030">
        <ele>813.082</ele>
        <time>2020-02-29T18:02:36Z</time>
      </trkpt>
      <trkpt lat="40.277920" lon="-4.978120">
        <ele>811.837</ele>
        <time>2020-02-29T18:02:56Z</time>
      </trkpt>
      <trkpt lat="40.277920" lon="-4.978230">
        <ele>810.898</ele>
        <time>2020-02-29T18:03:16Z</time>
      </trkpt>
      <trkpt lat="40.277960" lon="-4.978600">
        <ele>805.680</ele>
        <time>2020-02-29T18:03:36Z</time>
      </trkpt>
      <trkpt lat="40.277960" lon="-4.978690">
        <ele>804.948</ele>
        <time>2020-02-29T18:03:56Z</time>
      </trkpt>
      <trkpt lat="40.277940" lon="-4.978910">
        <ele>803.771</ele>
        <time>2020-02-29T18:04:16Z</time>
      </trkpt>
      <trkpt lat="40.277880" lon="-4.979100">
        <ele>802.236</ele>
        <time>2020-02-29T18:04:36Z</time>
      </trkpt>
      <trkpt lat="40.277800" lon="-4.979270">
        <ele>802.349</ele>
        <time>2020-02-29T18:04:56Z</time>
      </trkpt>
      <trkpt lat="40.277650" lon="-4.979500">
        <ele>799.102</ele>
        <time>2020-02-29T18:05:16Z</time>
      </trkpt>
      <trkpt lat="40.277530" lon="-4.979640">
        <ele>796.622</ele>
        <time>2020-02-29T18:05:36Z</time>
      </trkpt>
      <trkpt lat="40.277170" lon="-4.979920">
        <ele>792.208</ele>
        <time>2020-02-29T18:05:56Z</time>
      </trkpt>
      <trkpt lat="40.277100" lon="-4.979960">
        <ele>791.018</ele>
        <time>2020-02-29T18:06:16Z</time>
      </trkpt>
      <trkpt lat="40.276780" lon="-4.980090">
        <ele>789.461</ele>
        <time>2020-02-29T18:06:36Z</time>
      </trkpt>
      <trkpt lat="40.276710" lon="-4.980170">
        <ele>788.846</ele>
        <time>2020-02-29T18:06:56Z</time>
      </trkpt>
      <trkpt lat="40.276610" lon="-4.979930">
        <ele>792.667</ele>
        <time>2020-02-29T18:07:16Z</time>
      </trkpt>
      <trkpt lat="40.276560" lon="-4.979880">
        <ele>793.779</ele>
        <time>2020-02-29T18:07:36Z</time>
      </trkpt>
      <trkpt lat="40.276510" lon="-4.979860">
        <ele>794.437</ele>
        <time>2020-02-29T18:07:56Z</time>
      </trkpt>
      <trkpt lat="40.276390" lon="-4.979790">
        <ele>796.330</ele>
        <time>2020-02-29T18:08:16Z</time>
      </trkpt>
      <trkpt lat="40.276150" lon="-4.979790">
        <ele>798.045</ele>
        <time>2020-02-29T18:08:36Z</time>
      </trkpt>
      <trkpt lat="40.276080" lon="-4.979800">
        <ele>798.364</ele>
        <time>2020-02-29T18:08:56Z</time>
      </trkpt>
      <trkpt lat="40.275820" lon="-4.979810">
        <ele>799.006</ele>
        <time>2020-02-29T18:09:16Z</time>
      </trkpt>
      <trkpt lat="40.275790" lon="-4.979800">
        <ele>799.016</ele>
        <time>2020-02-29T18:09:36Z</time>
      </trkpt>
      <trkpt lat="40.275700" lon="-4.979750">
        <ele>799.208</ele>
        <time>2020-02-29T18:09:56Z</time>
      </trkpt>
      <trkpt lat="40.275560" lon="-4.979630">
        <ele>799.740</ele>
        <time>2020-02-29T18:10:16Z</time>
      </trkpt>
      <trkpt lat="40.275480" lon="-4.979530">
        <ele>799.043</ele>
        <time>2020-02-29T18:10:36Z</time>
      </trkpt>
      <trkpt lat="40.275470" lon="-4.979490">
        <ele>799.118</ele>
        <time>2020-02-29T18:10:56Z</time>
      </trkpt>
      <trkpt lat="40.275420" lon="-4.979500">
        <ele>798.299</ele>
        <time>2020-02-29T18:11:16Z</time>
      </trkpt>
      <trkpt lat="40.275350" lon="-4.979470">
        <ele>797.191</ele>
        <time>2020-02-29T18:11:36Z</time>
      </trkpt>
      <trkpt lat="40.275310" lon="-4.979440">
        <ele>796.689</ele>
        <time>2020-02-29T18:11:56Z</time>
      </trkpt>
      <trkpt lat="40.275230" lon="-4.979440">
        <ele>795.422</ele>
        <time>2020-02-29T18:12:16Z</time>
      </trkpt>
      <trkpt lat="40.275120" lon="-4.979460">
        <ele>793.617</ele>
        <time>2020-02-29T18:12:36Z</time>
      </trkpt>
      <trkpt lat="40.275080" lon="-4.979550">
        <ele>792.467</ele>
        <time>2020-02-29T18:12:56Z</time>
      </trkpt>
      <trkpt lat="40.274970" lon="-4.979690">
        <ele>789.781</ele>
        <time>2020-02-29T18:13:16Z</time>
      </trkpt>
      <trkpt lat="40.274890" lon="-4.979860">
        <ele>786.819</ele>
        <time>2020-02-29T18:13:36Z</time>
      </trkpt>
      <trkpt lat="40.274890" lon="-4.979900">
        <ele>786.508</ele>
        <time>2020-02-29T18:13:56Z</time>
      </trkpt>
      <trkpt lat="40.274920" lon="-4.979980">
        <ele>786.420</ele>
        <time>2020-02-29T18:14:16Z</time>
      </trkpt>
      <trkpt lat="40.274930" lon="-4.979990">
        <ele>786.613</ele>
        <time>2020-02-29T18:14:36Z</time>
      </trkpt>
      <trkpt lat="40.274930" lon="-4.980020">
        <ele>786.368</ele>
        <time>2020-02-29T18:14:56Z</time>
      </trkpt>
      <trkpt lat="40.274920" lon="-4.980030">
        <ele>786.169</ele>
        <time>2020-02-29T18:15:16Z</time>
      </trkpt>
      <trkpt lat="40.274920" lon="-4.980040">
        <ele>786.081</ele>
        <time>2020-02-29T18:15:36Z</time>
      </trkpt>
      <trkpt lat="40.274820" lon="-4.980150">
        <ele>783.029</ele>
        <time>2020-02-29T18:15:56Z</time>
      </trkpt>
      <trkpt lat="40.274600" lon="-4.980460">
        <ele>778.542</ele>
        <time>2020-02-29T18:16:16Z</time>
      </trkpt>
      <trkpt lat="40.274570" lon="-4.980490">
        <ele>778.117</ele>
        <time>2020-02-29T18:16:36Z</time>
      </trkpt>
      <trkpt lat="40.274560" lon="-4.980520">
        <ele>778.035</ele>
        <time>2020-02-29T18:16:56Z</time>
      </trkpt>
      <trkpt lat="40.274680" lon="-4.980720">
        <ele>777.586</ele>
        <time>2020-02-29T18:17:16Z</time>
      </trkpt>
      <trkpt lat="40.274730" lon="-4.980760">
        <ele>777.614</ele>
        <time>2020-02-29T18:17:36Z</time>
      </trkpt>
      <trkpt lat="40.274770" lon="-4.980770">
        <ele>778.008</ele>
        <time>2020-02-29T18:17:56Z</time>
      </trkpt>
      <trkpt lat="40.274880" lon="-4.980850">
        <ele>778.697</ele>
        <time>2020-02-29T18:18:16Z</time>
      </trkpt>
      <trkpt lat="40.274790" lon="-4.981070">
        <ele>776.790</ele>
        <time>2020-02-29T18:18:36Z</time>
      </trkpt>
      <trkpt lat="40.274730" lon="-4.981070">
        <ele>776.235</ele>
        <time>2020-02-29T18:18:56Z</time>
      </trkpt>
      <trkpt lat="40.274620" lon="-4.981180">
        <ele>775.046</ele>
        <time>2020-02-29T18:19:16Z</time>
      </trkpt>
      <trkpt lat="40.274650" lon="-4.981250">
        <ele>775.018</ele>
        <time>2020-02-29T18:19:36Z</time>
      </trkpt>
      <trkpt lat="40.274960" lon="-4.981610">
        <ele>775.126</ele>
        <time>2020-02-29T18:19:56Z</time>
      </trkpt>
      <trkpt lat="40.275050" lon="-4.981700">
        <ele>775.199</ele>
        <time>2020-02-29T18:20:16Z</time>
      </trkpt>
      <trkpt lat="40.275220" lon="-4.981950">
        <ele>774.844</ele>
        <time>2020-02-29T18:20:36Z</time>
      </trkpt>
      <trkpt lat="40.275270" lon="-4.982000">
        <ele>774.688</ele>
        <time>2020-02-29T18:20:56Z</time>
      </trkpt>
      <trkpt lat="40.275510" lon="-4.982160">
        <ele>775.124</ele>
        <time>2020-02-29T18:21:16Z</time>
      </trkpt>
      <trkpt lat="40.275440" lon="-4.982480">
        <ele>772.326</ele>
        <time>2020-02-29T18:21:36Z</time>
      </trkpt>
      <trkpt lat="40.275540" lon="-4.982550">
        <ele>772.508</ele>
        <time>2020-02-29T18:21:56Z</time>
      </trkpt>
      <trkpt lat="40.275640" lon="-4.982600">
        <ele>772.372</ele>
        <time>2020-02-29T18:22:16Z</time>
      </trkpt>
      <trkpt lat="40.275790" lon="-4.982620">
        <ele>772.125</ele>
        <time>2020-02-29T18:22:36Z</time>
      </trkpt>
      <trkpt lat="40.275850" lon="-4.982610">
        <ele>772.060</ele>
        <time>2020-02-29T18:22:56Z</time>
      </trkpt>
      <trkpt lat="40.276050" lon="-4.982480">
        <ele>770.191</ele>
        <time>2020-02-29T18:23:16Z</time>
      </trkpt>
      <trkpt lat="40.276370" lon="-4.982190">
        <ele>768.573</ele>
        <time>2020-02-29T18:23:36Z</time>
      </trkpt>
      <trkpt lat="40.276510" lon="-4.982030">
        <ele>767.411</ele>
        <time>2020-02-29T18:23:56Z</time>
      </trkpt>
      <trkpt lat="40.276680" lon="-4.981790">
        <ele>767.574</ele>
        <time>2020-02-29T18:24:16Z</time>
      </trkpt>
      <trkpt lat="40.276810" lon="-4.981770">
        <ele>766.139</ele>
        <time>2020-02-29T18:24:36Z</time>
      </trkpt>
      <trkpt lat="40.276970" lon="-4.981790">
        <ele>764.389</ele>
        <time>2020-02-29T18:24:56Z</time>
      </trkpt>
      <trkpt lat="40.277070" lon="-4.981850">
        <ele>763.806</ele>
        <time>2020-02-29T18:25:16Z</time>
      </trkpt>
      <trkpt lat="40.277110" lon="-4.981920">
        <ele>763.426</ele>
        <time>2020-02-29T18:25:36Z</time>
      </trkpt>
      <trkpt lat="40.277140" lon="-4.981990">
        <ele>763.008</ele>
        <time>2020-02-29T18:25:56Z</time>
      </trkpt>
      <trkpt lat="40.277170" lon="-4.982100">
        <ele>762.432</ele>
        <time>2020-02-29T18:26:16Z</time>
      </trkpt>
      <trkpt lat="40.277210" lon="-4.982450">
        <ele>761.015</ele>
        <time>2020-02-29T18:26:36Z</time>
      </trkpt>
      <trkpt lat="40.277210" lon="-4.982550">
        <ele>760.790</ele>
        <time>2020-02-29T18:26:56Z</time>
      </trkpt>
      <trkpt lat="40.277220" lon="-4.982570">
        <ele>760.731</ele>
        <time>2020-02-29T18:27:16Z</time>
      </trkpt>
      <trkpt lat="40.277250" lon="-4.982680">
        <ele>760.633</ele>
        <time>2020-02-29T18:27:36Z</time>
      </trkpt>
      <trkpt lat="40.277290" lon="-4.982750">
        <ele>760.651</ele>
        <time>2020-02-29T18:27:56Z</time>
      </trkpt>
      <trkpt lat="40.277370" lon="-4.982840">
        <ele>760.624</ele>
        <time>2020-02-29T18:28:16Z</time>
      </trkpt>
      <trkpt lat="40.277590" lon="-4.983020">
        <ele>760.969</ele>
        <time>2020-02-29T18:28:36Z</time>
      </trkpt>
      <trkpt lat="40.277730" lon="-4.983160">
        <ele>760.594</ele>
        <time>2020-02-29T18:28:56Z</time>
      </trkpt>
      <trkpt lat="40.277800" lon="-4.983260">
        <ele>759.957</ele>
        <time>2020-02-29T18:29:16Z</time>
      </trkpt>
      <trkpt lat="40.277940" lon="-4.983570">
        <ele>758.122</ele>
        <time>2020-02-29T18:29:36Z</time>
      </trkpt>
      <trkpt lat="40.278040" lon="-4.983930">
        <ele>756.808</ele>
        <time>2020-02-29T18:29:56Z</time>
      </trkpt>
      <trkpt lat="40.278050" lon="-4.983990">
        <ele>756.993</ele>
        <time>2020-02-29T18:30:16Z</time>
      </trkpt>
      <trkpt lat="40.278120" lon="-4.984230">
        <ele>758.326</ele>
        <time>2020-02-29T18:30:36Z</time>
      </trkpt>
      <trkpt lat="40.278170" lon="-4.984520">
        <ele>759.181</ele>
        <time>2020-02-29T18:30:56Z</time>
      </trkpt>
      <trkpt lat="40.278160" lon="-4.984830">
        <ele>756.952</ele>
        <time>2020-02-29T18:31:16Z</time>
      </trkpt>
      <trkpt lat="40.278130" lon="-4.985010">
        <ele>755.474</ele>
        <time>2020-02-29T18:31:36Z</time>
      </trkpt>
      <trkpt lat="40.278130" lon="-4.985030">
        <ele>755.452</ele>
        <time>2020-02-29T18:31:56Z</time>
      </trkpt>
      <trkpt lat="40.278090" lon="-4.985250">
        <ele>754.785</ele>
        <time>2020-02-29T18:32:16Z</time>
      </trkpt>
      <trkpt lat="40.278110" lon="-4.985370">
        <ele>754.490</ele>
        <time>2020-02-29T18:32:36Z</time>
      </trkpt>
      <trkpt lat="40.278160" lon="-4.985510">
        <ele>754.347</ele>
        <time>2020-02-29T18:32:56Z</time>
      </trkpt>
      <trkpt lat="40.278330" lon="-4.985880">
        <ele>753.529</ele>
        <time>2020-02-29T18:33:16Z</time>
      </trkpt>
      <trkpt lat="40.278400" lon="-4.985990">
        <ele>752.321</ele>
        <time>2020-02-29T18:33:36Z</time>
      </trkpt>
      <trkpt lat="40.278440" lon="-4.986030">
        <ele>751.708</ele>
        <time>2020-02-29T18:33:56Z</time>
      </trkpt>
      <trkpt lat="40.278490" lon="-4.986050">
        <ele>751.368</ele>
        <time>2020-02-29T18:34:16Z</time>
      </trkpt>
      <trkpt lat="40.278540" lon="-4.986060">
        <ele>751.111</ele>
        <time>2020-02-29T18:34:36Z</time>
      </trkpt>
      <trkpt lat="40.278640" lon="-4.986060">
        <ele>751.156</ele>
        <time>2020-02-29T18:34:56Z</time>
      </trkpt>
      <trkpt lat="40.278700" lon="-4.986070">
        <ele>751.347</ele>
        <time>2020-02-29T18:35:16Z</time>
      </trkpt>
      <trkpt lat="40.278730" lon="-4.986070">
        <ele>751.589</ele>
        <time>2020-02-29T18:35:36Z</time>
      </trkpt>
      <trkpt lat="40.278810" lon="-4.986100">
        <ele>751.627</ele>
        <time>2020-02-29T18:35:56Z</time>
      </trkpt>
      <trkpt lat="40.278840" lon="-4.986130">
        <ele>751.790</ele>
        <time>2020-02-29T18:36:16Z</time>
      </trkpt>
      <trkpt lat="40.278890" lon="-4.986250">
        <ele>752.565</ele>
        <time>2020-02-29T18:36:36Z</time>
      </trkpt>
      <trkpt lat="40.278890" lon="-4.986380">
        <ele>753.044</ele>
        <time>2020-02-29T18:36:56Z</time>
      </trkpt>
      <trkpt lat="40.278880" lon="-4.986450">
        <ele>754.005</ele>
        <time>2020-02-29T18:37:16Z</time>
      </trkpt>
      <trkpt lat="40.278860" lon="-4.986490">
        <ele>754.315</ele>
        <time>2020-02-29T18:37:36Z</time>
      </trkpt>
      <trkpt lat="40.278840" lon="-4.986550">
        <ele>754.908</ele>
        <time>2020-02-29T18:37:56Z</time>
      </trkpt>
      <trkpt lat="40.278780" lon="-4.986620">
        <ele>754.448</ele>
        <time>2020-02-29T18:38:16Z</time>
      </trkpt>
      <trkpt lat="40.278760" lon="-4.986660">
        <ele>754.291</ele>
        <time>2020-02-29T18:38:36Z</time>
      </trkpt>
      <trkpt lat="40.278700" lon="-4.986740">
        <ele>754.036</ele>
        <time>2020-02-29T18:38:56Z</time>
      </trkpt>
      <trkpt lat="40.278540" lon="-4.986870">
        <ele>753.947</ele>
        <time>2020-02-29T18:39:16Z</time>
      </trkpt>
      <trkpt lat="40.278220" lon="-4.986980">
        <ele>752.739</ele>
        <time>2020-02-29T18:39:36Z</time>
      </trkpt>
      <trkpt lat="40.278080" lon="-4.987040">
        <ele>750.957</ele>
        <time>2020-02-29T18:39:56Z</time>
      </trkpt>
      <trkpt lat="40.278030" lon="-4.987080">
        <ele>750.190</ele>
        <time>2020-02-29T18:40:16Z</time>
      </trkpt>
      <trkpt lat="40.277980" lon="-4.987140">
        <ele>749.475</ele>
        <time>2020-02-29T18:40:36Z</time>
      </trkpt>
      <trkpt lat="40.277930" lon="-4.987220">
        <ele>748.913</ele>
        <time>2020-02-29T18:40:56Z</time>
      </trkpt>
      <trkpt lat="40.277840" lon="-4.987480">
        <ele>746.543</ele>
        <time>2020-02-29T18:41:16Z</time>
      </trkpt>
      <trkpt lat="40.277810" lon="-4.987610">
        <ele>745.307</ele>
        <time>2020-02-29T18:41:36Z</time>
      </trkpt>
      <trkpt lat="40.277780" lon="-4.988130">
        <ele>743.508</ele>
        <time>2020-02-29T18:41:56Z</time>
      </trkpt>
      <trkpt lat="40.277780" lon="-4.988320">
        <ele>742.175</ele>
        <time>2020-02-29T18:42:16Z</time>
      </trkpt>
      <trkpt lat="40.277760" lon="-4.988600">
        <ele>739.888</ele>
        <time>2020-02-29T18:42:36Z</time>
      </trkpt>
      <trkpt lat="40.277760" lon="-4.989000">
        <ele>737.423</ele>
        <time>2020-02-29T18:42:56Z</time>
      </trkpt>
      <trkpt lat="40.277800" lon="-4.989290">
        <ele>735.244</ele>
        <time>2020-02-29T18:43:16Z</time>
      </trkpt>
      <trkpt lat="40.277860" lon="-4.989530">
        <ele>734.346</ele>
        <time>2020-02-29T18:43:36Z</time>
      </trkpt>
      <trkpt lat="40.277860" lon="-4.989550">
        <ele>734.164</ele>
        <time>2020-02-29T18:43:56Z</time>
      </trkpt>
      <trkpt lat="40.277910" lon="-4.989690">
        <ele>733.787</ele>
        <time>2020-02-29T18:44:16Z</time>
      </trkpt>
      <trkpt lat="40.277940" lon="-4.989740">
        <ele>733.772</ele>
        <time>2020-02-29T18:44:36Z</time>
      </trkpt>
      <trkpt lat="40.277960" lon="-4.989810">
        <ele>733.123</ele>
        <time>2020-02-29T18:44:56Z</time>
      </trkpt>
      <trkpt lat="40.278020" lon="-4.989920">
        <ele>732.683</ele>
        <time>2020-02-29T18:45:16Z</time>
      </trkpt>
      <trkpt lat="40.278060" lon="-4.989970">
        <ele>732.511</ele>
        <time>2020-02-29T18:45:36Z</time>
      </trkpt>
      <trkpt lat="40.278180" lon="-4.990070">
        <ele>732.908</ele>
        <time>2020-02-29T18:45:56Z</time>
      </trkpt>
      <trkpt lat="40.278480" lon="-4.990260">
        <ele>733.166</ele>
        <time>2020-02-29T18:46:16Z</time>
      </trkpt>
      <trkpt lat="40.278590" lon="-4.990400">
        <ele>733.339</ele>
        <time>2020-02-29T18:46:36Z</time>
      </trkpt>
      <trkpt lat="40.278610" lon="-4.990470">
        <ele>732.964</ele>
        <time>2020-02-29T18:46:56Z</time>
      </trkpt>
      <trkpt lat="40.278620" lon="-4.990550">
        <ele>732.215</ele>
        <time>2020-02-29T18:47:16Z</time>
      </trkpt>
      <trkpt lat="40.278620" lon="-4.990630">
        <ele>732.117</ele>
        <time>2020-02-29T18:47:36Z</time>
      </trkpt>
      <trkpt lat="40.278610" lon="-4.990700">
        <ele>732.035</ele>
        <time>2020-02-29T18:47:56Z</time>
      </trkpt>
      <trkpt lat="40.278570" lon="-4.990830">
        <ele>731.618</ele>
        <time>2020-02-29T18:48:16Z</time>
      </trkpt>
      <trkpt lat="40.278530" lon="-4.990910">
        <ele>731.013</ele>
        <time>2020-02-29T18:48:36Z</time>
      </trkpt>
      <trkpt lat="40.278510" lon="-4.991060">
        <ele>730.627</ele>
        <time>2020-02-29T18:48:56Z</time>
      </trkpt>
      <trkpt lat="40.278510" lon="-4.991150">
        <ele>730.068</ele>
        <time>2020-02-29T18:49:16Z</time>
      </trkpt>
      <trkpt lat="40.278530" lon="-4.991210">
        <ele>729.514</ele>
        <time>2020-02-29T18:49:36Z</time>
      </trkpt>
      <trkpt lat="40.278590" lon="-4.991300">
        <ele>729.008</ele>
        <time>2020-02-29T18:49:56Z</time>
      </trkpt>
      <trkpt lat="40.278670" lon="-4.991340">
        <ele>729.136</ele>
        <time>2020-02-29T18:50:16Z</time>
      </trkpt>
      <trkpt lat="40.278710" lon="-4.991350">
        <ele>729.289</ele>
        <time>2020-02-29T18:50:36Z</time>
      </trkpt>
      <trkpt lat="40.278790" lon="-4.991390">
        <ele>729.294</ele>
        <time>2020-02-29T18:50:56Z</time>
      </trkpt>
      <trkpt lat="40.279290" lon="-4.991430">
        <ele>728.975</ele>
        <time>2020-02-29T18:51:16Z</time>
      </trkpt>
      <trkpt lat="40.279400" lon="-4.991470">
        <ele>728.687</ele>
        <time>2020-02-29T18:51:36Z</time>
      </trkpt>
      <trkpt lat="40.279970" lon="-4.991800">
        <ele>727.875</ele>
        <time>2020-02-29T18:51:56Z</time>
      </trkpt>
      <trkpt lat="40.280000" lon="-4.991830">
        <ele>727.838</ele>
        <time>2020-02-29T18:52:16Z</time>
      </trkpt>
      <trkpt lat="40.280040" lon="-4.991920">
        <ele>727.543</ele>
        <time>2020-02-29T18:52:36Z</time>
      </trkpt>
      <trkpt lat="40.280170" lon="-4.992360">
        <ele>725.858</ele>
        <time>2020-02-29T18:52:56Z</time>
      </trkpt>
      <trkpt lat="40.280200" lon="-4.992430">
        <ele>725.952</ele>
        <time>2020-02-29T18:53:16Z</time>
      </trkpt>
      <trkpt lat="40.280220" lon="-4.992570">
        <ele>726.517</ele>
        <time>2020-02-29T18:53:36Z</time>
      </trkpt>
      <trkpt lat="40.280210" lon="-4.992720">
        <ele>727.608</ele>
        <time>2020-02-29T18:53:56Z</time>
      </trkpt>
      <trkpt lat="40.280180" lon="-4.992910">
        <ele>729.089</ele>
        <time>2020-02-29T18:54:16Z</time>
      </trkpt>
      <trkpt lat="40.280150" lon="-4.992940">
        <ele>729.132</ele>
        <time>2020-02-29T18:54:36Z</time>
      </trkpt>
      <trkpt lat="40.280120" lon="-4.992960">
        <ele>729.237</ele>
        <time>2020-02-29T18:54:56Z</time>
      </trkpt>
      <trkpt lat="40.279320" lon="-4.992870">
        <ele>721.888</ele>
        <time>2020-02-29T18:55:16Z</time>
      </trkpt>
      <trkpt lat="40.278960" lon="-4.992910">
        <ele>718.360</ele>
        <time>2020-02-29T18:55:36Z</time>
      </trkpt>
      <trkpt lat="40.278900" lon="-4.992950">
        <ele>718.238</ele>
        <time>2020-02-29T18:55:56Z</time>
      </trkpt>
      <trkpt lat="40.278680" lon="-4.993160">
        <ele>718.331</ele>
        <time>2020-02-29T18:56:16Z</time>
      </trkpt>
      <trkpt lat="40.278610" lon="-4.993190">
        <ele>717.956</ele>
        <time>2020-02-29T18:56:36Z</time>
      </trkpt>
      <trkpt lat="40.278600" lon="-4.993190">
        <ele>717.747</ele>
        <time>2020-02-29T18:56:56Z</time>
      </trkpt>
      <trkpt lat="40.278500" lon="-4.993220">
        <ele>716.029</ele>
        <time>2020-02-29T18:57:16Z</time>
      </trkpt>
      <trkpt lat="40.278370" lon="-4.993290">
        <ele>714.221</ele>
        <time>2020-02-29T18:57:36Z</time>
      </trkpt>
      <trkpt lat="40.278020" lon="-4.993610">
        <ele>712.608</ele>
        <time>2020-02-29T18:57:56Z</time>
      </trkpt>
      <trkpt lat="40.277970" lon="-4.993630">
        <ele>712.398</ele>
        <time>2020-02-29T18:58:16Z</time>
      </trkpt>
      <trkpt lat="40.277840" lon="-4.993700">
        <ele>711.611</ele>
        <time>2020-02-29T18:58:36Z</time>
      </trkpt>
      <trkpt lat="40.277800" lon="-4.993710">
        <ele>711.376</ele>
        <time>2020-02-29T18:58:56Z</time>
      </trkpt>
      <trkpt lat="40.277390" lon="-4.993870">
        <ele>708.227</ele>
        <time>2020-02-29T18:59:16Z</time>
      </trkpt>
      <trkpt lat="40.277290" lon="-4.993930">
        <ele>707.159</ele>
        <time>2020-02-29T18:59:36Z</time>
      </trkpt>
      <trkpt lat="40.277210" lon="-4.993990">
        <ele>706.347</ele>
        <time>2020-02-29T18:59:56Z</time>
      </trkpt>
      <trkpt lat="40.277180" lon="-4.994030">
        <ele>706.130</ele>
        <time>2020-02-29T19:00:16Z</time>
      </trkpt>
      <trkpt lat="40.277140" lon="-4.994070">
        <ele>705.915</ele>
        <time>2020-02-29T19:00:36Z</time>
      </trkpt>
      <trkpt lat="40.277110" lon="-4.994200">
        <ele>705.548</ele>
        <time>2020-02-29T19:00:56Z</time>
      </trkpt>
      <trkpt lat="40.277120" lon="-4.994270">
        <ele>704.961</ele>
        <time>2020-02-29T19:01:16Z</time>
      </trkpt>
      <trkpt lat="40.277110" lon="-4.994340">
        <ele>704.217</ele>
        <time>2020-02-29T19:01:36Z</time>
      </trkpt>
      <trkpt lat="40.277130" lon="-4.994450">
        <ele>703.308</ele>
        <time>2020-02-29T19:01:56Z</time>
      </trkpt>
      <trkpt lat="40.277160" lon="-4.994520">
        <ele>702.848</ele>
        <time>2020-02-29T19:02:16Z</time>
      </trkpt>
      <trkpt lat="40.277170" lon="-4.994530">
        <ele>702.821</ele>
        <time>2020-02-29T19:02:36Z</time>
      </trkpt>
      <trkpt lat="40.277560" lon="-4.995250">
        <ele>699.666</ele>
        <time>2020-02-29T19:02:56Z</time>
      </trkpt>
      <trkpt lat="40.277670" lon="-4.995380">
        <ele>699.567</ele>
        <time>2020-02-29T19:03:16Z</time>
      </trkpt>
      <trkpt lat="40.277750" lon="-4.995440">
        <ele>699.819</ele>
        <time>2020-02-29T19:03:36Z</time>
      </trkpt>
      <trkpt lat="40.277790" lon="-4.995460">
        <ele>700.077</ele>
        <time>2020-02-29T19:03:56Z</time>
      </trkpt>
      <trkpt lat="40.277870" lon="-4.995480">
        <ele>700.250</ele>
        <time>2020-02-29T19:04:16Z</time>
      </trkpt>
      <trkpt lat="40.277890" lon="-4.995480">
        <ele>700.295</ele>
        <time>2020-02-29T19:04:36Z</time>
      </trkpt>
      <trkpt lat="40.278020" lon="-4.995510">
        <ele>700.389</ele>
        <time>2020-02-29T19:04:56Z</time>
      </trkpt>
      <trkpt lat="40.278110" lon="-4.995550">
        <ele>700.006</ele>
        <time>2020-02-29T19:05:16Z</time>
      </trkpt>
      <trkpt lat="40.278170" lon="-4.995590">
        <ele>700.026</ele>
        <time>2020-02-29T19:05:36Z</time>
      </trkpt>
      <trkpt lat="40.278200" lon="-4.995630">
        <ele>700.008</ele>
        <time>2020-02-29T19:05:56Z</time>
      </trkpt>
      <trkpt lat="40.278220" lon="-4.995680">
        <ele>700.072</ele>
        <time>2020-02-29T19:06:16Z</time>
      </trkpt>
      <trkpt lat="40.278230" lon="-4.995740">
        <ele>700.045</ele>
        <time>2020-02-29T19:06:36Z</time>
      </trkpt>
      <trkpt lat="40.278220" lon="-4.995810">
        <ele>700.010</ele>
        <time>2020-02-29T19:06:56Z</time>
      </trkpt>
      <trkpt lat="40.278200" lon="-4.995870">
        <ele>700.171</ele>
        <time>2020-02-29T19:07:16Z</time>
      </trkpt>
      <trkpt lat="40.278170" lon="-4.995920">
        <ele>700.123</ele>
        <time>2020-02-29T19:07:36Z</time>
      </trkpt>
      <trkpt lat="40.278090" lon="-4.995980">
        <ele>700.191</ele>
        <time>2020-02-29T19:07:56Z</time>
      </trkpt>
      <trkpt lat="40.276600" lon="-4.996640">
        <ele>690.064</ele>
        <time>2020-02-29T19:08:16Z</time>
      </trkpt>
      <trkpt lat="40.276400" lon="-4.996780">
        <ele>690.249</ele>
        <time>2020-02-29T19:08:36Z</time>
      </trkpt>
      <trkpt lat="40.276140" lon="-4.997000">
        <ele>688.698</ele>
        <time>2020-02-29T19:08:56Z</time>
      </trkpt>
      <trkpt lat="40.275840" lon="-4.997310">
        <ele>687.715</ele>
        <time>2020-02-29T19:09:16Z</time>
      </trkpt>
      <trkpt lat="40.275400" lon="-4.997830">
        <ele>686.626</ele>
        <time>2020-02-29T19:09:36Z</time>
      </trkpt>
      <trkpt lat="40.275230" lon="-4.998090">
        <ele>685.108</ele>
        <time>2020-02-29T19:09:56Z</time>
      </trkpt>
      <trkpt lat="40.275200" lon="-4.998160">
        <ele>684.763</ele>
        <time>2020-02-29T19:10:16Z</time>
      </trkpt>
      <trkpt lat="40.275180" lon="-4.998280">
        <ele>684.796</ele>
        <time>2020-02-29T19:10:36Z</time>
      </trkpt>
      <trkpt lat="40.275240" lon="-4.998690">
        <ele>685.491</ele>
        <time>2020-02-29T19:10:56Z</time>
      </trkpt>
      <trkpt lat="40.275240" lon="-4.998800">
        <ele>685.792</ele>
        <time>2020-02-29T19:11:16Z</time>
      </trkpt>
      <trkpt lat="40.275230" lon="-4.998900">
        <ele>685.854</ele>
        <time>2020-02-29T19:11:36Z</time>
      </trkpt>
      <trkpt lat="40.275210" lon="-4.998970">
        <ele>686.032</ele>
        <time>2020-02-29T19:11:56Z</time>
      </trkpt>
      <trkpt lat="40.275140" lon="-4.999090">
        <ele>685.655</ele>
        <time>2020-02-29T19:12:16Z</time>
      </trkpt>
      <trkpt lat="40.274970" lon="-4.999300">
        <ele>683.950</ele>
        <time>2020-02-29T19:12:36Z</time>
      </trkpt>
      <trkpt lat="40.274910" lon="-4.999360">
        <ele>683.366</ele>
        <time>2020-02-29T19:12:56Z</time>
      </trkpt>
      <trkpt lat="40.274870" lon="-4.999490">
        <ele>682.829</ele>
        <time>2020-02-29T19:13:16Z</time>
      </trkpt>
      <trkpt lat="40.274860" lon="-4.999550">
        <ele>682.021</ele>
        <time>2020-02-29T19:13:36Z</time>
      </trkpt>
      <trkpt lat="40.274870" lon="-4.999620">
        <ele>681.608</ele>
        <time>2020-02-29T19:13:56Z</time>
      </trkpt>
      <trkpt lat="40.274910" lon="-4.999730">
        <ele>680.940</ele>
        <time>2020-02-29T19:14:16Z</time>
      </trkpt>
      <trkpt lat="40.275000" lon="-4.999870">
        <ele>680.443</ele>
        <time>2020-02-29T19:14:36Z</time>
      </trkpt>
      <trkpt lat="40.275210" lon="-5.000140">
        <ele>679.628</ele>
        <time>2020-02-29T19:14:56Z</time>
      </trkpt>
      <trkpt lat="40.275230" lon="-5.000190">
        <ele>679.089</ele>
        <time>2020-02-29T19:15:16Z</time>
      </trkpt>
      <trkpt lat="40.275240" lon="-5.000200">
        <ele>679.081</ele>
        <time>2020-02-29T19:15:36Z</time>
      </trkpt>
      <trkpt lat="40.275260" lon="-5.000270">
        <ele>677.989</ele>
        <time>2020-02-29T19:15:56Z</time>
      </trkpt>
      <trkpt lat="40.275280" lon="-5.000420">
        <ele>678.692</ele>
        <time>2020-02-29T19:16:16Z</time>
      </trkpt>
      <trkpt lat="40.275270" lon="-5.000490">
        <ele>678.757</ele>
        <time>2020-02-29T19:16:36Z</time>
      </trkpt>
      <trkpt lat="40.275250" lon="-5.000550">
        <ele>678.866</ele>
        <time>2020-02-29T19:16:56Z</time>
      </trkpt>
      <trkpt lat="40.275160" lon="-5.000660">
        <ele>679.529</ele>
        <time>2020-02-29T19:17:16Z</time>
      </trkpt>
      <trkpt lat="40.275100" lon="-5.000700">
        <ele>679.521</ele>
        <time>2020-02-29T19:17:36Z</time>
      </trkpt>
      <trkpt lat="40.274940" lon="-5.000770">
        <ele>678.808</ele>
        <time>2020-02-29T19:17:56Z</time>
      </trkpt>
      <trkpt lat="40.274410" lon="-5.000960">
        <ele>676.050</ele>
        <time>2020-02-29T19:18:16Z</time>
      </trkpt>
      <trkpt lat="40.274260" lon="-5.000980">
        <ele>675.093</ele>
        <time>2020-02-29T19:18:36Z</time>
      </trkpt>
      <trkpt lat="40.274170" lon="-5.000980">
        <ele>674.118</ele>
        <time>2020-02-29T19:18:56Z</time>
      </trkpt>
      <trkpt lat="40.274080" lon="-5.000970">
        <ele>673.889</ele>
        <time>2020-02-29T19:19:16Z</time>
      </trkpt>
      <trkpt lat="40.273960" lon="-5.000910">
        <ele>672.971</ele>
        <time>2020-02-29T19:19:36Z</time>
      </trkpt>
      <trkpt lat="40.273850" lon="-5.000870">
        <ele>672.499</ele>
        <time>2020-02-29T19:19:56Z</time>
      </trkpt>
      <trkpt lat="40.273830" lon="-5.000850">
        <ele>672.242</ele>
        <time>2020-02-29T19:20:16Z</time>
      </trkpt>
      <trkpt lat="40.273800" lon="-5.000840">
        <ele>672.177</ele>
        <time>2020-02-29T19:20:36Z</time>
      </trkpt>
      <trkpt lat="40.273730" lon="-5.000840">
        <ele>672.135</ele>
        <time>2020-02-29T19:20:56Z</time>
      </trkpt>
      <trkpt lat="40.273670" lon="-5.000860">
        <ele>672.286</ele>
        <time>2020-02-29T19:21:16Z</time>
      </trkpt>
      <trkpt lat="40.273590" lon="-5.000910">
        <ele>672.314</ele>
        <time>2020-02-29T19:21:36Z</time>
      </trkpt>
      <trkpt lat="40.273540" lon="-5.000970">
        <ele>672.208</ele>
        <time>2020-02-29T19:21:56Z</time>
      </trkpt>
      <trkpt lat="40.273380" lon="-5.001110">
        <ele>671.597</ele>
        <time>2020-02-29T19:22:16Z</time>
      </trkpt>
      <trkpt lat="40.273260" lon="-5.001240">
        <ele>671.960</ele>
        <time>2020-02-29T19:22:36Z</time>
      </trkpt>
      <trkpt lat="40.273160" lon="-5.001320">
        <ele>672.035</ele>
        <time>2020-02-29T19:22:56Z</time>
      </trkpt>
      <trkpt lat="40.273060" lon="-5.001380">
        <ele>671.916</ele>
        <time>2020-02-29T19:23:16Z</time>
      </trkpt>
      <trkpt lat="40.272910" lon="-5.001450">
        <ele>671.278</ele>
        <time>2020-02-29T19:23:36Z</time>
      </trkpt>
      <trkpt lat="40.272870" lon="-5.001460">
        <ele>670.816</ele>
        <time>2020-02-29T19:23:56Z</time>
      </trkpt>
      <trkpt lat="40.272740" lon="-5.001520">
        <ele>669.569</ele>
        <time>2020-02-29T19:24:16Z</time>
      </trkpt>
      <trkpt lat="40.272590" lon="-5.001610">
        <ele>668.614</ele>
        <time>2020-02-29T19:24:36Z</time>
      </trkpt>
      <trkpt lat="40.272470" lon="-5.001740">
        <ele>667.937</ele>
        <time>2020-02-29T19:24:56Z</time>
      </trkpt>
      <trkpt lat="40.272360" lon="-5.001900">
        <ele>666.249</ele>
        <time>2020-02-29T19:25:16Z</time>
      </trkpt>
      <trkpt lat="40.272340" lon="-5.001970">
        <ele>666.013</ele>
        <time>2020-02-29T19:25:36Z</time>
      </trkpt>
      <trkpt lat="40.272270" lon="-5.002110">
        <ele>663.908</ele>
        <time>2020-02-29T19:25:56Z</time>
      </trkpt>
      <trkpt lat="40.272250" lon="-5.002180">
        <ele>663.167</ele>
        <time>2020-02-29T19:26:16Z</time>
      </trkpt>
      <trkpt lat="40.272220" lon="-5.002400">
        <ele>663.220</ele>
        <time>2020-02-29T19:26:36Z</time>
      </trkpt>
      <trkpt lat="40.272180" lon="-5.002590">
        <ele>663.465</ele>
        <time>2020-02-29T19:26:56Z</time>
      </trkpt>
      <trkpt lat="40.271980" lon="-5.003290">
        <ele>656.956</ele>
        <time>2020-02-29T19:27:16Z</time>
      </trkpt>
      <trkpt lat="40.271970" lon="-5.003400">
        <ele>655.238</ele>
        <time>2020-02-29T19:27:36Z</time>
      </trkpt>
      <trkpt lat="40.271980" lon="-5.003500">
        <ele>654.286</ele>
        <time>2020-02-29T19:27:56Z</time>
      </trkpt>
      <trkpt lat="40.272010" lon="-5.003630">
        <ele>653.969</ele>
        <time>2020-02-29T19:28:16Z</time>
      </trkpt>
      <trkpt lat="40.272100" lon="-5.003920">
        <ele>655.094</ele>
        <time>2020-02-29T19:28:36Z</time>
      </trkpt>
      <trkpt lat="40.272230" lon="-5.004490">
        <ele>655.066</ele>
        <time>2020-02-29T19:28:56Z</time>
      </trkpt>
      <trkpt lat="40.272250" lon="-5.004760">
        <ele>654.129</ele>
        <time>2020-02-29T19:29:16Z</time>
      </trkpt>
      <trkpt lat="40.272250" lon="-5.005170">
        <ele>652.621</ele>
        <time>2020-02-29T19:29:36Z</time>
      </trkpt>
      <trkpt lat="40.272290" lon="-5.005420">
        <ele>651.008</ele>
        <time>2020-02-29T19:29:56Z</time>
      </trkpt>
      <trkpt lat="40.272350" lon="-5.005570">
        <ele>650.190</ele>
        <time>2020-02-29T19:30:16Z</time>
      </trkpt>
      <trkpt lat="40.272350" lon="-5.005600">
        <ele>649.793</ele>
        <time>2020-02-29T19:30:36Z</time>
      </trkpt>
      <trkpt lat="40.272420" lon="-5.005740">
        <ele>648.648</ele>
        <time>2020-02-29T19:30:56Z</time>
      </trkpt>
      <trkpt lat="40.272530" lon="-5.005880">
        <ele>648.159</ele>
        <time>2020-02-29T19:31:16Z</time>
      </trkpt>
      <trkpt lat="40.273060" lon="-5.006410">
        <ele>647.711</ele>
        <time>2020-02-29T19:31:36Z</time>
      </trkpt>
      <trkpt lat="40.273490" lon="-5.006760">
        <ele>648.819</ele>
        <time>2020-02-29T19:31:56Z</time>
      </trkpt>
      <trkpt lat="40.273530" lon="-5.006810">
        <ele>649.392</ele>
        <time>2020-02-29T19:32:16Z</time>
      </trkpt>
      <trkpt lat="40.273580" lon="-5.006850">
        <ele>649.717</ele>
        <time>2020-02-29T19:32:36Z</time>
      </trkpt>
      <trkpt lat="40.273620" lon="-5.006900">
        <ele>650.049</ele>
        <time>2020-02-29T19:32:56Z</time>
      </trkpt>
      <trkpt lat="40.273670" lon="-5.007000">
        <ele>650.002</ele>
        <time>2020-02-29T19:33:16Z</time>
      </trkpt>
      <trkpt lat="40.273730" lon="-5.007160">
        <ele>650.022</ele>
        <time>2020-02-29T19:33:36Z</time>
      </trkpt>
      <trkpt lat="40.273770" lon="-5.007300">
        <ele>650.008</ele>
        <time>2020-02-29T19:33:56Z</time>
      </trkpt>
      <trkpt lat="40.273780" lon="-5.007360">
        <ele>650.098</ele>
        <time>2020-02-29T19:34:16Z</time>
      </trkpt>
      <trkpt lat="40.273750" lon="-5.007490">
        <ele>650.091</ele>
        <time>2020-02-29T19:34:36Z</time>
      </trkpt>
      <trkpt lat="40.273710" lon="-5.007550">
        <ele>650.986</ele>
        <time>2020-02-29T19:34:56Z</time>
      </trkpt>
      <trkpt lat="40.273670" lon="-5.007590">
        <ele>651.687</ele>
        <time>2020-02-29T19:35:16Z</time>
      </trkpt>
      <trkpt lat="40.273620" lon="-5.007620">
        <ele>652.289</ele>
        <time>2020-02-29T19:35:36Z</time>
      </trkpt>
      <trkpt lat="40.273500" lon="-5.007640">
        <ele>652.737</ele>
        <time>2020-02-29T19:35:56Z</time>
      </trkpt>
      <trkpt lat="40.273240" lon="-5.007650">
        <ele>652.950</ele>
        <time>2020-02-29T19:36:16Z</time>
      </trkpt>
      <trkpt lat="40.273140" lon="-5.007640">
        <ele>652.375</ele>
        <time>2020-02-29T19:36:36Z</time>
      </trkpt>
      <trkpt lat="40.272960" lon="-5.007600">
        <ele>651.385</ele>
        <time>2020-02-29T19:36:56Z</time>
      </trkpt>
      <trkpt lat="40.272900" lon="-5.007580">
        <ele>650.989</ele>
        <time>2020-02-29T19:37:16Z</time>
      </trkpt>
      <trkpt lat="40.272860" lon="-5.007550">
        <ele>650.217</ele>
        <time>2020-02-29T19:37:36Z</time>
      </trkpt>
      <trkpt lat="40.272470" lon="-5.007360">
        <ele>647.008</ele>
        <time>2020-02-29T19:37:56Z</time>
      </trkpt>
      <trkpt lat="40.272140" lon="-5.007330">
        <ele>646.472</ele>
        <time>2020-02-29T19:38:16Z</time>
      </trkpt>
      <trkpt lat="40.272040" lon="-5.007340">
        <ele>646.435</ele>
        <time>2020-02-29T19:38:36Z</time>
      </trkpt>
      <trkpt lat="40.271810" lon="-5.007390">
        <ele>646.340</ele>
        <time>2020-02-29T19:38:56Z</time>
      </trkpt>
      <trkpt lat="40.271420" lon="-5.007530">
        <ele>647.211</ele>
        <time>2020-02-29T19:39:16Z</time>
      </trkpt>
      <trkpt lat="40.270600" lon="-5.007780">
        <ele>648.063</ele>
        <time>2020-02-29T19:39:36Z</time>
      </trkpt>
      <trkpt lat="40.270570" lon="-5.007780">
        <ele>648.091</ele>
        <time>2020-02-29T19:39:56Z</time>
      </trkpt>
      <trkpt lat="40.270470" lon="-5.007810">
        <ele>648.454</ele>
        <time>2020-02-29T19:40:16Z</time>
      </trkpt>
      <trkpt lat="40.269880" lon="-5.007770">
        <ele>647.559</ele>
        <time>2020-02-29T19:40:36Z</time>
      </trkpt>
      <trkpt lat="40.269560" lon="-5.007850">
        <ele>646.884</ele>
        <time>2020-02-29T19:40:56Z</time>
      </trkpt>
      <trkpt lat="40.269260" lon="-5.007960">
        <ele>645.507</ele>
        <time>2020-02-29T19:41:16Z</time>
      </trkpt>
      <trkpt lat="40.269150" lon="-5.008050">
        <ele>645.717</ele>
        <time>2020-02-29T19:41:36Z</time>
      </trkpt>
      <trkpt lat="40.269140" lon="-5.008050">
        <ele>645.508</ele>
        <time>2020-02-29T19:41:56Z</time>
      </trkpt>
      <trkpt lat="40.268830" lon="-5.008370">
        <ele>645.732</ele>
        <time>2020-02-29T19:42:16Z</time>
      </trkpt>
      <trkpt lat="40.268610" lon="-5.008650">
        <ele>645.495</ele>
        <time>2020-02-29T19:42:36Z</time>
      </trkpt>
      <trkpt lat="40.268560" lon="-5.008770">
        <ele>646.180</ele>
        <time>2020-02-29T19:42:56Z</time>
      </trkpt>
      <trkpt lat="40.268550" lon="-5.008770">
        <ele>645.971</ele>
        <time>2020-02-29T19:43:16Z</time>
      </trkpt>
      <trkpt lat="40.268520" lon="-5.008870">
        <ele>646.513</ele>
        <time>2020-02-29T19:43:36Z</time>
      </trkpt>
      <trkpt lat="40.268470" lon="-5.009140">
        <ele>646.451</ele>
        <time>2020-02-29T19:43:56Z</time>
      </trkpt>
      <trkpt lat="40.268370" lon="-5.010200">
        <ele>643.284</ele>
        <time>2020-02-29T19:44:16Z</time>
      </trkpt>
      <trkpt lat="40.268390" lon="-5.010340">
        <ele>643.419</ele>
        <time>2020-02-29T19:44:36Z</time>
      </trkpt>
      <trkpt lat="40.268390" lon="-5.010390">
        <ele>643.343</ele>
        <time>2020-02-29T19:44:56Z</time>
      </trkpt>
      <trkpt lat="40.268400" lon="-5.010440">
        <ele>643.564</ele>
        <time>2020-02-29T19:45:16Z</time>
      </trkpt>
      <trkpt lat="40.268530" lon="-5.010730">
        <ele>645.610</ele>
        <time>2020-02-29T19:45:36Z</time>
      </trkpt>
      <trkpt lat="40.268560" lon="-5.010850">
        <ele>645.908</ele>
        <time>2020-02-29T19:45:56Z</time>
      </trkpt>
      <trkpt lat="40.268560" lon="-5.010930">
        <ele>645.938</ele>
        <time>2020-02-29T19:46:16Z</time>
      </trkpt>
      <trkpt lat="40.268380" lon="-5.012310">
        <ele>644.911</ele>
        <time>2020-02-29T19:46:36Z</time>
      </trkpt>
      <trkpt lat="40.268380" lon="-5.012390">
        <ele>644.676</ele>
        <time>2020-02-29T19:46:56Z</time>
      </trkpt>
      <trkpt lat="40.268370" lon="-5.012440">
        <ele>644.337</ele>
        <time>2020-02-29T19:47:16Z</time>
      </trkpt>
      <trkpt lat="40.268380" lon="-5.012670">
        <ele>643.019</ele>
        <time>2020-02-29T19:47:36Z</time>
      </trkpt>
      <trkpt lat="40.268500" lon="-5.013120">
        <ele>641.757</ele>
        <time>2020-02-29T19:47:56Z</time>
      </trkpt>
      <trkpt lat="40.268520" lon="-5.013300">
        <ele>641.490</ele>
        <time>2020-02-29T19:48:16Z</time>
      </trkpt>
      <trkpt lat="40.268510" lon="-5.013490">
        <ele>640.985</ele>
        <time>2020-02-29T19:48:36Z</time>
      </trkpt>
      <trkpt lat="40.268480" lon="-5.013580">
        <ele>640.622</ele>
        <time>2020-02-29T19:48:56Z</time>
      </trkpt>
      <trkpt lat="40.268390" lon="-5.013780">
        <ele>640.162</ele>
        <time>2020-02-29T19:49:16Z</time>
      </trkpt>
      <trkpt lat="40.268370" lon="-5.013810">
        <ele>640.008</ele>
        <time>2020-02-29T19:49:36Z</time>
      </trkpt>
      <trkpt lat="40.268290" lon="-5.013980">
        <ele>640.708</ele>
        <time>2020-02-29T19:49:56Z</time>
      </trkpt>
      <trkpt lat="40.268270" lon="-5.014000">
        <ele>640.936</ele>
        <time>2020-02-29T19:50:16Z</time>
      </trkpt>
      <trkpt lat="40.268220" lon="-5.014090">
        <ele>641.799</ele>
        <time>2020-02-29T19:50:36Z</time>
      </trkpt>
      <trkpt lat="40.268170" lon="-5.014160">
        <ele>642.574</ele>
        <time>2020-02-29T19:50:56Z</time>
      </trkpt>
      <trkpt lat="40.268070" lon="-5.014270">
        <ele>644.195</ele>
        <time>2020-02-29T19:51:16Z</time>
      </trkpt>
      <trkpt lat="40.268030" lon="-5.014300">
        <ele>644.697</ele>
        <time>2020-02-29T19:51:36Z</time>
      </trkpt>
      <trkpt lat="40.267980" lon="-5.014310">
        <ele>645.155</ele>
        <time>2020-02-29T19:51:56Z</time>
      </trkpt>
      <trkpt lat="40.267720" lon="-5.014320">
        <ele>647.358</ele>
        <time>2020-02-29T19:52:16Z</time>
      </trkpt>
      <trkpt lat="40.267600" lon="-5.014250">
        <ele>647.883</ele>
        <time>2020-02-29T19:52:36Z</time>
      </trkpt>
      <trkpt lat="40.267490" lon="-5.014150">
        <ele>648.029</ele>
        <time>2020-02-29T19:52:56Z</time>
      </trkpt>
      <trkpt lat="40.267320" lon="-5.013940">
        <ele>648.700</ele>
        <time>2020-02-29T19:53:16Z</time>
      </trkpt>
      <trkpt lat="40.267200" lon="-5.013850">
        <ele>649.620</ele>
        <time>2020-02-29T19:53:36Z</time>
      </trkpt>
      <trkpt lat="40.267080" lon="-5.013810">
        <ele>650.208</ele>
        <time>2020-02-29T19:53:56Z</time>
      </trkpt>
      <trkpt lat="40.266920" lon="-5.013790">
        <ele>651.416</ele>
        <time>2020-02-29T19:54:16Z</time>
      </trkpt>
      <trkpt lat="40.266520" lon="-5.013820">
        <ele>653.079</ele>
        <time>2020-02-29T19:54:36Z</time>
      </trkpt>
      <trkpt lat="40.266150" lon="-5.013880">
        <ele>653.914</ele>
        <time>2020-02-29T19:54:56Z</time>
      </trkpt>
      <trkpt lat="40.266030" lon="-5.013920">
        <ele>654.265</ele>
        <time>2020-02-29T19:55:16Z</time>
      </trkpt>
      <trkpt lat="40.265990" lon="-5.013940">
        <ele>654.457</ele>
        <time>2020-02-29T19:55:36Z</time>
      </trkpt>
      <trkpt lat="40.260310" lon="-5.016980">
        <ele>630.099</ele>
        <time>2020-02-27T19:44:33Z</time>
      </trkpt>
      <trkpt lat="40.260390" lon="-5.017320">
        <ele>634.507</ele>
        <time>2020-02-27T19:44:53Z</time>
      </trkpt>
      <trkpt lat="40.260640" lon="-5.016850">
        <ele>635.027</ele>
        <time>2020-02-27T19:45:13Z</time>
      </trkpt>
      <trkpt lat="40.260970" lon="-5.016390">
        <ele>636.508</ele>
        <time>2020-02-27T19:45:33Z</time>
      </trkpt>
      <trkpt lat="40.261230" lon="-5.016070">
        <ele>638.873</ele>
        <time>2020-02-27T19:45:53Z</time>
      </trkpt>
      <trkpt lat="40.261240" lon="-5.016050">
        <ele>638.966</ele>
        <time>2020-02-27T19:46:13Z</time>
      </trkpt>
      <trkpt lat="40.261350" lon="-5.015970">
        <ele>640.321</ele>
        <time>2020-02-27T19:46:33Z</time>
      </trkpt>
      <trkpt lat="40.262660" lon="-5.014820">
        <ele>647.572</ele>
        <time>2020-02-27T19:46:53Z</time>
      </trkpt>
      <trkpt lat="40.262700" lon="-5.014800">
        <ele>647.755</ele>
        <time>2020-02-27T19:47:13Z</time>
      </trkpt>
      <trkpt lat="40.262750" lon="-5.014760">
        <ele>647.914</ele>
        <time>2020-02-27T19:47:33Z</time>
      </trkpt>
      <trkpt lat="40.262830" lon="-5.014730">
        <ele>648.825</ele>
        <time>2020-02-27T19:47:53Z</time>
      </trkpt>
      <trkpt lat="40.263050" lon="-5.014680">
        <ele>651.832</ele>
        <time>2020-02-27T19:48:13Z</time>
      </trkpt>
      <trkpt lat="40.263510" lon="-5.014630">
        <ele>655.658</ele>
        <time>2020-02-27T19:48:33Z</time>
      </trkpt>
      <trkpt lat="40.263580" lon="-5.014590">
        <ele>655.852</ele>
        <time>2020-02-27T19:48:53Z</time>
      </trkpt>
      <trkpt lat="40.264000" lon="-5.014530">
        <ele>657.817</ele>
        <time>2020-02-27T19:49:13Z</time>
      </trkpt>
      <trkpt lat="40.264620" lon="-5.014550">
        <ele>658.508</ele>
        <time>2020-02-27T19:49:33Z</time>
      </trkpt>
      <trkpt lat="40.264610" lon="-5.014630">
        <ele>658.999</ele>
        <time>2020-02-27T19:49:53Z</time>
      </trkpt>
      <trkpt lat="40.264630" lon="-5.014750">
        <ele>659.772</ele>
        <time>2020-02-27T19:50:13Z</time>
      </trkpt>
      <trkpt lat="40.264630" lon="-5.014840">
        <ele>660.757</ele>
        <time>2020-02-27T19:50:33Z</time>
      </trkpt>
      <trkpt lat="40.264680" lon="-5.014990">
        <ele>662.258</ele>
        <time>2020-02-27T19:50:53Z</time>
      </trkpt>
      <trkpt lat="40.264770" lon="-5.015180">
        <ele>664.561</ele>
        <time>2020-02-27T19:51:13Z</time>
      </trkpt>
      <trkpt lat="40.264900" lon="-5.015370">
        <ele>666.520</ele>
        <time>2020-02-27T19:51:33Z</time>
      </trkpt>
      <trkpt lat="40.265080" lon="-5.015570">
        <ele>668.251</ele>
        <time>2020-02-27T19:51:53Z</time>
      </trkpt>
      <trkpt lat="40.265140" lon="-5.015660">
        <ele>669.128</ele>
        <time>2020-02-27T19:52:13Z</time>
      </trkpt>
      <trkpt lat="40.265160" lon="-5.015740">
        <ele>670.039</ele>
        <time>2020-02-27T19:52:33Z</time>
      </trkpt>
      <trkpt lat="40.265160" lon="-5.015810">
        <ele>670.701</ele>
        <time>2020-02-27T19:52:53Z</time>
      </trkpt>
      <trkpt lat="40.265140" lon="-5.015900">
        <ele>671.721</ele>
        <time>2020-02-27T19:53:13Z</time>
      </trkpt>
      <trkpt lat="40.265100" lon="-5.015980">
        <ele>672.608</ele>
        <time>2020-02-27T19:53:33Z</time>
      </trkpt>
      <trkpt lat="40.265020" lon="-5.016060">
        <ele>673.417</ele>
        <time>2020-02-27T19:53:53Z</time>
      </trkpt>
      <trkpt lat="40.264510" lon="-5.016440">
        <ele>677.410</ele>
        <time>2020-02-27T19:54:13Z</time>
      </trkpt>
      <trkpt lat="40.264340" lon="-5.016620">
        <ele>678.075</ele>
        <time>2020-02-27T19:54:33Z</time>
      </trkpt>
      <trkpt lat="40.264230" lon="-5.016780">
        <ele>678.366</ele>
        <time>2020-02-27T19:54:53Z</time>
      </trkpt>
      <trkpt lat="40.264030" lon="-5.017130">
        <ele>679.069</ele>
        <time>2020-02-27T19:55:13Z</time>
      </trkpt>
      <trkpt lat="40.263990" lon="-5.017220">
        <ele>679.138</ele>
        <time>2020-02-27T19:55:33Z</time>
      </trkpt>
      <trkpt lat="40.263770" lon="-5.017590">
        <ele>681.459</ele>
        <time>2020-02-27T19:55:53Z</time>
      </trkpt>
      <trkpt lat="40.263450" lon="-5.018190">
        <ele>684.016</ele>
        <time>2020-02-27T19:56:13Z</time>
      </trkpt>
      <trkpt lat="40.263390" lon="-5.018560">
        <ele>683.877</ele>
        <time>2020-02-27T19:56:33Z</time>
      </trkpt>
      <trkpt lat="40.263370" lon="-5.018910">
        <ele>682.761</ele>
        <time>2020-02-27T19:56:53Z</time>
      </trkpt>
      <trkpt lat="40.263370" lon="-5.019300">
        <ele>684.527</ele>
        <time>2020-02-27T19:57:13Z</time>
      </trkpt>
      <trkpt lat="40.263330" lon="-5.019570">
        <ele>685.908</ele>
        <time>2020-02-27T19:57:33Z</time>
      </trkpt>
      <trkpt lat="40.263240" lon="-5.019980">
        <ele>687.871</ele>
        <time>2020-02-27T19:57:53Z</time>
      </trkpt>
      <trkpt lat="40.263240" lon="-5.020180">
        <ele>689.124</ele>
        <time>2020-02-27T19:58:13Z</time>
      </trkpt>
      <trkpt lat="40.263400" lon="-5.020540">
        <ele>693.639</ele>
        <time>2020-02-27T19:58:33Z</time>
      </trkpt>
      <trkpt lat="40.263660" lon="-5.020980">
        <ele>698.580</ele>
        <time>2020-02-27T19:58:53Z</time>
      </trkpt>
      <trkpt lat="40.263750" lon="-5.021160">
        <ele>700.283</ele>
        <time>2020-02-27T19:59:13Z</time>
      </trkpt>
      <trkpt lat="40.263830" lon="-5.021400">
        <ele>701.652</ele>
        <time>2020-02-27T19:59:33Z</time>
      </trkpt>
      <trkpt lat="40.263860" lon="-5.021540">
        <ele>702.813</ele>
        <time>2020-02-27T19:59:53Z</time>
      </trkpt>
      <trkpt lat="40.263870" lon="-5.021550">
        <ele>703.080</ele>
        <time>2020-02-27T20:00:13Z</time>
      </trkpt>
      <trkpt lat="40.263960" lon="-5.021760">
        <ele>704.419</ele>
        <time>2020-02-27T20:00:33Z</time>
      </trkpt>
      <trkpt lat="40.264400" lon="-5.022550">
        <ele>705.209</ele>
        <time>2020-02-27T20:00:53Z</time>
      </trkpt>
      <trkpt lat="40.264400" lon="-5.022560">
        <ele>705.119</ele>
        <time>2020-02-27T20:01:13Z</time>
      </trkpt>
      <trkpt lat="40.264630" lon="-5.023070">
        <ele>704.208</ele>
        <time>2020-02-27T20:01:33Z</time>
      </trkpt>
      <trkpt lat="40.264660" lon="-5.023100">
        <ele>704.485</ele>
        <time>2020-02-27T20:01:53Z</time>
      </trkpt>
      <trkpt lat="40.264770" lon="-5.023280">
        <ele>704.718</ele>
        <time>2020-02-27T20:02:13Z</time>
      </trkpt>
      <trkpt lat="40.264770" lon="-5.023290">
        <ele>704.683</ele>
        <time>2020-02-27T20:02:33Z</time>
      </trkpt>
      <trkpt lat="40.265010" lon="-5.023640">
        <ele>705.824</ele>
        <time>2020-02-27T20:02:53Z</time>
      </trkpt>
      <trkpt lat="40.265150" lon="-5.023790">
        <ele>706.217</ele>
        <time>2020-02-27T20:03:13Z</time>
      </trkpt>
      <trkpt lat="40.265310" lon="-5.023900">
        <ele>707.016</ele>
        <time>2020-02-27T20:03:33Z</time>
      </trkpt>
      <trkpt lat="40.265330" lon="-5.023920">
        <ele>706.947</ele>
        <time>2020-02-27T20:03:53Z</time>
      </trkpt>
      <trkpt lat="40.265550" lon="-5.024000">
        <ele>707.224</ele>
        <time>2020-02-27T20:04:13Z</time>
      </trkpt>
      <trkpt lat="40.265750" lon="-5.024030">
        <ele>708.083</ele>
        <time>2020-02-27T20:04:33Z</time>
      </trkpt>
      <trkpt lat="40.265950" lon="-5.024100">
        <ele>708.725</ele>
        <time>2020-02-27T20:04:53Z</time>
      </trkpt>
      <trkpt lat="40.266150" lon="-5.024200">
        <ele>709.017</ele>
        <time>2020-02-27T20:05:13Z</time>
      </trkpt>
      <trkpt lat="40.266520" lon="-5.024500">
        <ele>709.308</ele>
        <time>2020-02-27T20:05:33Z</time>
      </trkpt>
      <trkpt lat="40.267050" lon="-5.025010">
        <ele>712.212</ele>
        <time>2020-02-27T20:05:53Z</time>
      </trkpt>
      <trkpt lat="40.267470" lon="-5.025480">
        <ele>719.425</ele>
        <time>2020-02-27T20:06:13Z</time>
      </trkpt>
      <trkpt lat="40.267470" lon="-5.025530">
        <ele>719.490</ele>
        <time>2020-02-27T20:06:33Z</time>
      </trkpt>
      <trkpt lat="40.267460" lon="-5.025570">
        <ele>719.361</ele>
        <time>2020-02-27T20:06:53Z</time>
      </trkpt>
      <trkpt lat="40.267460" lon="-5.025600">
        <ele>719.464</ele>
        <time>2020-02-27T20:07:13Z</time>
      </trkpt>
      <trkpt lat="40.267450" lon="-5.025640">
        <ele>719.463</ele>
        <time>2020-02-27T20:07:33Z</time>
      </trkpt>
      <trkpt lat="40.267430" lon="-5.025680">
        <ele>719.374</ele>
        <time>2020-02-27T20:07:53Z</time>
      </trkpt>
      <trkpt lat="40.267430" lon="-5.025690">
        <ele>719.431</ele>
        <time>2020-02-27T20:08:13Z</time>
      </trkpt>
      <trkpt lat="40.267420" lon="-5.025720">
        <ele>719.498</ele>
        <time>2020-02-27T20:08:33Z</time>
      </trkpt>
      <trkpt lat="40.267380" lon="-5.025720">
        <ele>719.115</ele>
        <time>2020-02-27T20:08:53Z</time>
      </trkpt>
      <trkpt lat="40.267320" lon="-5.025730">
        <ele>718.826</ele>
        <time>2020-02-27T20:09:13Z</time>
      </trkpt>
      <trkpt lat="40.266960" lon="-5.025720">
        <ele>718.908</ele>
        <time>2020-02-27T20:09:33Z</time>
      </trkpt>
      <trkpt lat="40.266870" lon="-5.025700">
        <ele>719.193</ele>
        <time>2020-02-27T20:09:53Z</time>
      </trkpt>
      <trkpt lat="40.266820" lon="-5.025680">
        <ele>719.126</ele>
        <time>2020-02-27T20:10:13Z</time>
      </trkpt>
      <trkpt lat="40.266710" lon="-5.025670">
        <ele>720.111</ele>
        <time>2020-02-27T20:10:33Z</time>
      </trkpt>
      <trkpt lat="40.266520" lon="-5.025610">
        <ele>720.842</ele>
        <time>2020-02-27T20:10:53Z</time>
      </trkpt>
      <trkpt lat="40.266360" lon="-5.025590">
        <ele>722.075</ele>
        <time>2020-02-27T20:11:13Z</time>
      </trkpt>
      <trkpt lat="40.265940" lon="-5.025610">
        <ele>724.584</ele>
        <time>2020-02-27T20:11:33Z</time>
      </trkpt>
      <trkpt lat="40.265550" lon="-5.025530">
        <ele>728.045</ele>
        <time>2020-02-27T20:11:53Z</time>
      </trkpt>
      <trkpt lat="40.265290" lon="-5.025510">
        <ele>728.862</ele>
        <time>2020-02-27T20:12:13Z</time>
      </trkpt>
      <trkpt lat="40.265060" lon="-5.025560">
        <ele>728.035</ele>
        <time>2020-02-27T20:12:33Z</time>
      </trkpt>
      <trkpt lat="40.264860" lon="-5.025680">
        <ele>730.586</ele>
        <time>2020-02-27T20:12:53Z</time>
      </trkpt>
      <trkpt lat="40.264280" lon="-5.025900">
        <ele>734.814</ele>
        <time>2020-02-27T20:13:13Z</time>
      </trkpt>
      <trkpt lat="40.264060" lon="-5.025920">
        <ele>736.608</ele>
        <time>2020-02-27T20:13:33Z</time>
      </trkpt>
      <trkpt lat="40.263990" lon="-5.025880">
        <ele>736.317</ele>
        <time>2020-02-27T20:13:53Z</time>
      </trkpt>
      <trkpt lat="40.263960" lon="-5.025870">
        <ele>736.340</ele>
        <time>2020-02-27T20:14:13Z</time>
      </trkpt>
      <trkpt lat="40.263910" lon="-5.025830">
        <ele>735.785</ele>
        <time>2020-02-27T20:14:33Z</time>
      </trkpt>
      <trkpt lat="40.263750" lon="-5.025670">
        <ele>734.936</ele>
        <time>2020-02-27T20:14:53Z</time>
      </trkpt>
      <trkpt lat="40.263560" lon="-5.025540">
        <ele>735.629</ele>
        <time>2020-02-27T20:15:13Z</time>
      </trkpt>
      <trkpt lat="40.263520" lon="-5.025500">
        <ele>735.398</ele>
        <time>2020-02-27T20:15:33Z</time>
      </trkpt>
      <trkpt lat="40.263310" lon="-5.025440">
        <ele>737.489</ele>
        <time>2020-02-27T20:15:53Z</time>
      </trkpt>
      <trkpt lat="40.262910" lon="-5.025440">
        <ele>741.466</ele>
        <time>2020-02-27T20:16:13Z</time>
      </trkpt>
      <trkpt lat="40.262740" lon="-5.025410">
        <ele>743.533</ele>
        <time>2020-02-27T20:16:33Z</time>
      </trkpt>
      <trkpt lat="40.262680" lon="-5.025410">
        <ele>744.623</ele>
        <time>2020-02-27T20:16:53Z</time>
      </trkpt>
      <trkpt lat="40.262470" lon="-5.025330">
        <ele>745.315</ele>
        <time>2020-02-27T20:17:13Z</time>
      </trkpt>
      <trkpt lat="40.262320" lon="-5.025250">
        <ele>744.308</ele>
        <time>2020-02-27T20:17:33Z</time>
      </trkpt>
      <trkpt lat="40.262300" lon="-5.025250">
        <ele>744.667</ele>
        <time>2020-02-27T20:17:53Z</time>
      </trkpt>
      <trkpt lat="40.262250" lon="-5.025240">
        <ele>744.950</ele>
        <time>2020-02-27T20:18:13Z</time>
      </trkpt>
      <trkpt lat="40.262120" lon="-5.025240">
        <ele>745.465</ele>
        <time>2020-02-27T20:18:33Z</time>
      </trkpt>
      <trkpt lat="40.261940" lon="-5.025260">
        <ele>746.256</ele>
        <time>2020-02-27T20:18:53Z</time>
      </trkpt>
      <trkpt lat="40.261740" lon="-5.025320">
        <ele>747.219</ele>
        <time>2020-02-27T20:19:13Z</time>
      </trkpt>
      <trkpt lat="40.261090" lon="-5.025610">
        <ele>752.858</ele>
        <time>2020-02-27T20:19:33Z</time>
      </trkpt>
      <trkpt lat="40.260880" lon="-5.025780">
        <ele>751.549</ele>
        <time>2020-02-27T20:19:53Z</time>
      </trkpt>
      <trkpt lat="40.260790" lon="-5.025880">
        <ele>751.766</ele>
        <time>2020-02-27T20:20:13Z</time>
      </trkpt>
      <trkpt lat="40.260600" lon="-5.026180">
        <ele>753.376</ele>
        <time>2020-02-27T20:20:33Z</time>
      </trkpt>
      <trkpt lat="40.260480" lon="-5.026450">
        <ele>754.390</ele>
        <time>2020-02-27T20:20:53Z</time>
      </trkpt>
      <trkpt lat="40.260480" lon="-5.026460">
        <ele>754.519</ele>
        <time>2020-02-27T20:21:13Z</time>
      </trkpt>
      <trkpt lat="40.260380" lon="-5.026710">
        <ele>752.908</ele>
        <time>2020-02-27T20:21:33Z</time>
      </trkpt>
      <trkpt lat="40.260290" lon="-5.027220">
        <ele>755.791</ele>
        <time>2020-02-27T20:21:53Z</time>
      </trkpt>
      <trkpt lat="40.260210" lon="-5.027460">
        <ele>757.034</ele>
        <time>2020-02-27T20:22:13Z</time>
      </trkpt>
      <trkpt lat="40.260120" lon="-5.027590">
        <ele>757.519</ele>
        <time>2020-02-27T20:22:33Z</time>
      </trkpt>
      <trkpt lat="40.259900" lon="-5.027720">
        <ele>755.340</ele>
        <time>2020-02-27T20:22:53Z</time>
      </trkpt>
      <trkpt lat="40.259740" lon="-5.027890">
        <ele>755.723</ele>
        <time>2020-02-27T20:23:13Z</time>
      </trkpt>
      <trkpt lat="40.259520" lon="-5.028320">
        <ele>758.512</ele>
        <time>2020-02-27T20:23:33Z</time>
      </trkpt>
      <trkpt lat="40.259510" lon="-5.028320">
        <ele>758.113</ele>
        <time>2020-02-27T20:23:53Z</time>
      </trkpt>
      <trkpt lat="40.259400" lon="-5.028500">
        <ele>757.980</ele>
        <time>2020-02-27T20:24:13Z</time>
      </trkpt>
      <trkpt lat="40.259390" lon="-5.028510">
        <ele>757.816</ele>
        <time>2020-02-27T20:24:33Z</time>
      </trkpt>
      <trkpt lat="40.259290" lon="-5.028690">
        <ele>758.476</ele>
        <time>2020-02-27T20:24:53Z</time>
      </trkpt>
      <trkpt lat="40.259280" lon="-5.028700">
        <ele>758.313</ele>
        <time>2020-02-27T20:25:13Z</time>
      </trkpt>
      <trkpt lat="40.259170" lon="-5.028870">
        <ele>758.708</ele>
        <time>2020-02-27T20:25:33Z</time>
      </trkpt>
      <trkpt lat="40.259060" lon="-5.029120">
        <ele>757.655</ele>
        <time>2020-02-27T20:25:53Z</time>
      </trkpt>
      <trkpt lat="40.259030" lon="-5.029390">
        <ele>757.968</ele>
        <time>2020-02-27T20:26:13Z</time>
      </trkpt>
      <trkpt lat="40.259050" lon="-5.029930">
        <ele>761.263</ele>
        <time>2020-02-27T20:26:33Z</time>
      </trkpt>
      <trkpt lat="40.259000" lon="-5.030230">
        <ele>762.234</ele>
        <time>2020-02-27T20:26:53Z</time>
      </trkpt>
      <trkpt lat="40.258950" lon="-5.030440">
        <ele>761.777</ele>
        <time>2020-02-27T20:27:13Z</time>
      </trkpt>
      <trkpt lat="40.258960" lon="-5.030700">
        <ele>763.286</ele>
        <time>2020-02-27T20:27:33Z</time>
      </trkpt>
      <trkpt lat="40.259000" lon="-5.030920">
        <ele>765.677</ele>
        <time>2020-02-27T20:27:53Z</time>
      </trkpt>
      <trkpt lat="40.259000" lon="-5.030940">
        <ele>765.624</ele>
        <time>2020-02-27T20:28:13Z</time>
      </trkpt>
      <trkpt lat="40.259050" lon="-5.031210">
        <ele>767.177</ele>
        <time>2020-02-27T20:28:33Z</time>
      </trkpt>
      <trkpt lat="40.259020" lon="-5.031780">
        <ele>762.561</ele>
        <time>2020-02-27T20:28:53Z</time>
      </trkpt>
      <trkpt lat="40.259040" lon="-5.031850">
        <ele>762.527</ele>
        <time>2020-02-27T20:29:13Z</time>
      </trkpt>
      <trkpt lat="40.259100" lon="-5.031970">
        <ele>763.008</ele>
        <time>2020-02-27T20:29:33Z</time>
      </trkpt>
      <trkpt lat="40.259380" lon="-5.032330">
        <ele>767.641</ele>
        <time>2020-02-27T20:29:53Z</time>
      </trkpt>
      <trkpt lat="40.259490" lon="-5.032590">
        <ele>770.344</ele>
        <time>2020-02-27T20:30:13Z</time>
      </trkpt>
      <trkpt lat="40.259550" lon="-5.032850">
        <ele>771.529</ele>
        <time>2020-02-27T20:30:33Z</time>
      </trkpt>
      <trkpt lat="40.259630" lon="-5.033120">
        <ele>772.540</ele>
        <time>2020-02-27T20:30:53Z</time>
      </trkpt>
      <trkpt lat="40.259660" lon="-5.033170">
        <ele>772.843</ele>
        <time>2020-02-27T20:31:13Z</time>
      </trkpt>
      <trkpt lat="40.259740" lon="-5.033260">
        <ele>773.582</ele>
        <time>2020-02-27T20:31:33Z</time>
      </trkpt>
      <trkpt lat="40.259860" lon="-5.033330">
        <ele>774.523</ele>
        <time>2020-02-27T20:31:53Z</time>
      </trkpt>
      <trkpt lat="40.260120" lon="-5.033530">
        <ele>776.950</ele>
        <time>2020-02-27T20:32:13Z</time>
      </trkpt>
      <trkpt lat="40.260150" lon="-5.033560">
        <ele>777.278</ele>
        <time>2020-02-27T20:32:33Z</time>
      </trkpt>
      <trkpt lat="40.260200" lon="-5.033670">
        <ele>778.633</ele>
        <time>2020-02-27T20:32:53Z</time>
      </trkpt>
      <trkpt lat="40.260210" lon="-5.033730">
        <ele>779.526</ele>
        <time>2020-02-27T20:33:13Z</time>
      </trkpt>
      <trkpt lat="40.260130" lon="-5.033890">
        <ele>779.808</ele>
        <time>2020-02-27T20:33:33Z</time>
      </trkpt>
      <trkpt lat="40.260060" lon="-5.033960">
        <ele>779.531</ele>
        <time>2020-02-27T20:33:53Z</time>
      </trkpt>
      <trkpt lat="40.259640" lon="-5.034460">
        <ele>779.784</ele>
        <time>2020-02-27T20:34:13Z</time>
      </trkpt>
      <trkpt lat="40.259520" lon="-5.034720">
        <ele>779.519</ele>
        <time>2020-02-27T20:34:33Z</time>
      </trkpt>
      <trkpt lat="40.259460" lon="-5.035010">
        <ele>779.910</ele>
        <time>2020-02-27T20:34:53Z</time>
      </trkpt>
      <trkpt lat="40.259430" lon="-5.035630">
        <ele>785.413</ele>
        <time>2020-02-27T20:35:13Z</time>
      </trkpt>
      <trkpt lat="40.259390" lon="-5.035940">
        <ele>787.362</ele>
        <time>2020-02-27T20:35:33Z</time>
      </trkpt>
      <trkpt lat="40.259380" lon="-5.035960">
        <ele>787.223</ele>
        <time>2020-02-27T20:35:53Z</time>
      </trkpt>
      <trkpt lat="40.259330" lon="-5.036230">
        <ele>788.820</ele>
        <time>2020-02-27T20:36:13Z</time>
      </trkpt>
      <trkpt lat="40.259310" lon="-5.036300">
        <ele>789.399</ele>
        <time>2020-02-27T20:36:33Z</time>
      </trkpt>
      <trkpt lat="40.259210" lon="-5.036520">
        <ele>791.407</ele>
        <time>2020-02-27T20:36:53Z</time>
      </trkpt>
      <trkpt lat="40.259140" lon="-5.036620">
        <ele>792.727</ele>
        <time>2020-02-27T20:37:13Z</time>
      </trkpt>
      <trkpt lat="40.259100" lon="-5.036660">
        <ele>793.108</ele>
        <time>2020-02-27T20:37:33Z</time>
      </trkpt>
      <trkpt lat="40.258880" lon="-5.036730">
        <ele>791.923</ele>
        <time>2020-02-27T20:37:53Z</time>
      </trkpt>
      <trkpt lat="40.258810" lon="-5.036810">
        <ele>791.666</ele>
        <time>2020-02-27T20:38:13Z</time>
      </trkpt>
      <trkpt lat="40.258730" lon="-5.036880">
        <ele>790.821</ele>
        <time>2020-02-27T20:38:33Z</time>
      </trkpt>
      <trkpt lat="40.258610" lon="-5.037320">
        <ele>792.762</ele>
        <time>2020-02-27T20:38:53Z</time>
      </trkpt>
      <trkpt lat="40.258590" lon="-5.037470">
        <ele>793.395</ele>
        <time>2020-02-27T20:39:13Z</time>
      </trkpt>
      <trkpt lat="40.258590" lon="-5.037770">
        <ele>796.464</ele>
        <time>2020-02-27T20:39:33Z</time>
      </trkpt>
      <trkpt lat="40.258610" lon="-5.038030">
        <ele>798.845</ele>
        <time>2020-02-27T20:39:53Z</time>
      </trkpt>
      <trkpt lat="40.258590" lon="-5.038140">
        <ele>799.572</ele>
        <time>2020-02-27T20:40:13Z</time>
      </trkpt>
      <trkpt lat="40.258590" lon="-5.038170">
        <ele>799.943</ele>
        <time>2020-02-27T20:40:33Z</time>
      </trkpt>
      <trkpt lat="40.258530" lon="-5.038310">
        <ele>800.364</ele>
        <time>2020-02-27T20:40:53Z</time>
      </trkpt>
      <trkpt lat="40.258370" lon="-5.038500">
        <ele>799.510</ele>
        <time>2020-02-27T20:41:13Z</time>
      </trkpt>
      <trkpt lat="40.258370" lon="-5.038510">
        <ele>799.708</ele>
        <time>2020-02-27T20:41:33Z</time>
      </trkpt>
      <trkpt lat="40.258290" lon="-5.038620">
        <ele>799.588</ele>
        <time>2020-02-27T20:41:53Z</time>
      </trkpt>
      <trkpt lat="40.258210" lon="-5.038890">
        <ele>802.461</ele>
        <time>2020-02-27T20:42:13Z</time>
      </trkpt>
      <trkpt lat="40.258210" lon="-5.038910">
        <ele>802.646</ele>
        <time>2020-02-27T20:42:33Z</time>
      </trkpt>
      <trkpt lat="40.258150" lon="-5.039130">
        <ele>804.547</ele>
        <time>2020-02-27T20:42:53Z</time>
      </trkpt>
      <trkpt lat="40.258110" lon="-5.039430">
        <ele>807.690</ele>
        <time>2020-02-27T20:43:13Z</time>
      </trkpt>
      <trkpt lat="40.258010" lon="-5.039960">
        <ele>811.379</ele>
        <time>2020-02-27T20:43:33Z</time>
      </trkpt>
      <trkpt lat="40.257860" lon="-5.040490">
        <ele>812.760</ele>
        <time>2020-02-27T20:43:53Z</time>
      </trkpt>
      <trkpt lat="40.257830" lon="-5.040730">
        <ele>812.627</ele>
        <time>2020-02-27T20:44:13Z</time>
      </trkpt>
      <trkpt lat="40.257850" lon="-5.041090">
        <ele>810.941</ele>
        <time>2020-02-27T20:44:33Z</time>
      </trkpt>
      <trkpt lat="40.258030" lon="-5.041950">
        <ele>812.381</ele>
        <time>2020-02-27T20:44:53Z</time>
      </trkpt>
      <trkpt lat="40.258000" lon="-5.042010">
        <ele>814.109</ele>
        <time>2020-02-27T20:45:13Z</time>
      </trkpt>
      <trkpt lat="40.257830" lon="-5.042060">
        <ele>815.208</ele>
        <time>2020-02-27T20:45:33Z</time>
      </trkpt>
      <trkpt lat="40.257740" lon="-5.042100">
        <ele>815.738</ele>
        <time>2020-02-27T20:45:53Z</time>
      </trkpt>
      <trkpt lat="40.257550" lon="-5.042210">
        <ele>817.061</ele>
        <time>2020-02-27T20:46:13Z</time>
      </trkpt>
      <trkpt lat="40.257440" lon="-5.042290">
        <ele>818.096</ele>
        <time>2020-02-27T20:46:33Z</time>
      </trkpt>
      <trkpt lat="40.257150" lon="-5.042560">
        <ele>820.977</ele>
        <time>2020-02-27T20:46:53Z</time>
      </trkpt>
      <trkpt lat="40.257130" lon="-5.042570">
        <ele>820.940</ele>
        <time>2020-02-27T20:47:13Z</time>
      </trkpt>
      <trkpt lat="40.256940" lon="-5.042720">
        <ele>822.519</ele>
        <time>2020-02-27T20:47:33Z</time>
      </trkpt>
      <trkpt lat="40.256830" lon="-5.042780">
        <ele>823.240</ele>
        <time>2020-02-27T20:47:53Z</time>
      </trkpt>
      <trkpt lat="40.256830" lon="-5.042790">
        <ele>823.577</ele>
        <time>2020-02-27T20:48:13Z</time>
      </trkpt>
      <trkpt lat="40.256760" lon="-5.042830">
        <ele>824.094</ele>
        <time>2020-02-27T20:48:33Z</time>
      </trkpt>
      <trkpt lat="40.256680" lon="-5.042910">
        <ele>825.057</ele>
        <time>2020-02-27T20:48:53Z</time>
      </trkpt>
      <trkpt lat="40.256430" lon="-5.043120">
        <ele>828.722</ele>
        <time>2020-02-27T20:49:13Z</time>
      </trkpt>
      <trkpt lat="40.256230" lon="-5.043230">
        <ele>830.208</ele>
        <time>2020-02-27T20:49:33Z</time>
      </trkpt>
      <trkpt lat="40.256200" lon="-5.043240">
        <ele>830.173</ele>
        <time>2020-02-27T20:49:53Z</time>
      </trkpt>
      <trkpt lat="40.256030" lon="-5.043330">
        <ele>830.796</ele>
        <time>2020-02-27T20:50:13Z</time>
      </trkpt>
      <trkpt lat="40.255840" lon="-5.043410">
        <ele>830.641</ele>
        <time>2020-02-27T20:50:33Z</time>
      </trkpt>
      <trkpt lat="40.255630" lon="-5.043540">
        <ele>831.252</ele>
        <time>2020-02-27T20:50:53Z</time>
      </trkpt>
      <trkpt lat="40.255430" lon="-5.043610">
        <ele>829.785</ele>
        <time>2020-02-27T20:51:13Z</time>
      </trkpt>
      <trkpt lat="40.255320" lon="-5.043680">
        <ele>828.934</ele>
        <time>2020-02-27T20:51:33Z</time>
      </trkpt>
      <trkpt lat="40.255280" lon="-5.043730">
        <ele>828.885</ele>
        <time>2020-02-27T20:51:53Z</time>
      </trkpt>
      <trkpt lat="40.255240" lon="-5.043800">
        <ele>829.192</ele>
        <time>2020-02-27T20:52:13Z</time>
      </trkpt>
      <trkpt lat="40.255230" lon="-5.043950">
        <ele>831.025</ele>
        <time>2020-02-27T20:52:33Z</time>
      </trkpt>
      <trkpt lat="40.255240" lon="-5.044210">
        <ele>834.826</ele>
        <time>2020-02-27T20:52:53Z</time>
      </trkpt>
      <trkpt lat="40.255230" lon="-5.044280">
        <ele>835.708</ele>
        <time>2020-02-27T20:53:13Z</time>
      </trkpt>
      <trkpt lat="40.255230" lon="-5.044520">
        <ele>839.108</ele>
        <time>2020-02-27T20:53:33Z</time>
      </trkpt>
      <trkpt lat="40.255210" lon="-5.044770">
        <ele>841.826</ele>
        <time>2020-02-27T20:53:53Z</time>
      </trkpt>
      <trkpt lat="40.255170" lon="-5.044980">
        <ele>842.739</ele>
        <time>2020-02-27T20:54:13Z</time>
      </trkpt>
      <trkpt lat="40.255170" lon="-5.045010">
        <ele>842.964</ele>
        <time>2020-02-27T20:54:33Z</time>
      </trkpt>
      <trkpt lat="40.255130" lon="-5.045210">
        <ele>844.355</ele>
        <time>2020-02-27T20:54:53Z</time>
      </trkpt>
      <trkpt lat="40.255130" lon="-5.045260">
        <ele>844.788</ele>
        <time>2020-02-27T20:55:13Z</time>
      </trkpt>
      <trkpt lat="40.255100" lon="-5.045450">
        <ele>843.427</ele>
        <time>2020-02-27T20:55:33Z</time>
      </trkpt>
      <trkpt lat="40.255090" lon="-5.045780">
        <ele>841.388</ele>
        <time>2020-02-27T20:55:53Z</time>
      </trkpt>
      <trkpt lat="40.255120" lon="-5.046050">
        <ele>840.075</ele>
        <time>2020-02-27T20:56:13Z</time>
      </trkpt>
      <trkpt lat="40.255220" lon="-5.046360">
        <ele>840.925</ele>
        <time>2020-02-27T20:56:33Z</time>
      </trkpt>
      <trkpt lat="40.255220" lon="-5.046370">
        <ele>840.826</ele>
        <time>2020-02-27T20:56:53Z</time>
      </trkpt>
      <trkpt lat="40.255290" lon="-5.046530">
        <ele>843.808</ele>
        <time>2020-02-27T20:57:13Z</time>
      </trkpt>
      <trkpt lat="40.255310" lon="-5.046560">
        <ele>844.608</ele>
        <time>2020-02-27T20:57:33Z</time>
      </trkpt>
      <trkpt lat="40.255550" lon="-5.047200">
        <ele>853.856</ele>
        <time>2020-02-27T20:57:53Z</time>
      </trkpt>
      <trkpt lat="40.255640" lon="-5.047570">
        <ele>857.269</ele>
        <time>2020-02-27T20:58:13Z</time>
      </trkpt>
      <trkpt lat="40.255710" lon="-5.048110">
        <ele>860.544</ele>
        <time>2020-02-27T20:58:33Z</time>
      </trkpt>
      <trkpt lat="40.255780" lon="-5.048430">
        <ele>863.355</ele>
        <time>2020-02-27T20:58:53Z</time>
      </trkpt>
      <trkpt lat="40.255780" lon="-5.048490">
        <ele>863.598</ele>
        <time>2020-02-27T20:59:13Z</time>
      </trkpt>
      <trkpt lat="40.255700" lon="-5.048760">
        <ele>862.927</ele>
        <time>2020-02-27T20:59:33Z</time>
      </trkpt>
      <trkpt lat="40.255650" lon="-5.049170">
        <ele>865.168</ele>
        <time>2020-02-27T20:59:53Z</time>
      </trkpt>
      <trkpt lat="40.255670" lon="-5.049750">
        <ele>870.225</ele>
        <time>2020-02-27T21:00:13Z</time>
      </trkpt>
      <trkpt lat="40.255650" lon="-5.050030">
        <ele>872.719</ele>
        <time>2020-02-27T21:00:33Z</time>
      </trkpt>
      <trkpt lat="40.255580" lon="-5.050270">
        <ele>873.509</ele>
        <time>2020-02-27T21:00:53Z</time>
      </trkpt>
      <trkpt lat="40.255350" lon="-5.050760">
        <ele>874.019</ele>
        <time>2020-02-27T21:01:13Z</time>
      </trkpt>
      <trkpt lat="40.255280" lon="-5.051020">
        <ele>875.108</ele>
        <time>2020-02-27T21:01:33Z</time>
      </trkpt>
      <trkpt lat="40.255180" lon="-5.051280">
        <ele>876.245</ele>
        <time>2020-02-27T21:01:53Z</time>
      </trkpt>
      <trkpt lat="40.255130" lon="-5.051450">
        <ele>876.758</ele>
        <time>2020-02-27T21:02:13Z</time>
      </trkpt>
      <trkpt lat="40.255060" lon="-5.051770">
        <ele>877.573</ele>
        <time>2020-02-27T21:02:33Z</time>
      </trkpt>
      <trkpt lat="40.255020" lon="-5.052030">
        <ele>879.034</ele>
        <time>2020-02-27T21:02:53Z</time>
      </trkpt>
      <trkpt lat="40.255040" lon="-5.052300">
        <ele>881.717</ele>
        <time>2020-02-27T21:03:13Z</time>
      </trkpt>
      <trkpt lat="40.255060" lon="-5.052370">
        <ele>882.826</ele>
        <time>2020-02-27T21:03:33Z</time>
      </trkpt>
      <trkpt lat="40.255060" lon="-5.052390">
        <ele>883.057</ele>
        <time>2020-02-27T21:03:53Z</time>
      </trkpt>
      <trkpt lat="40.255130" lon="-5.052580">
        <ele>886.184</ele>
        <time>2020-02-27T21:04:13Z</time>
      </trkpt>
      <trkpt lat="40.255140" lon="-5.052820">
        <ele>888.445</ele>
        <time>2020-02-27T21:04:33Z</time>
      </trkpt>
      <trkpt lat="40.255150" lon="-5.052840">
        <ele>888.747</ele>
        <time>2020-02-27T21:04:53Z</time>
      </trkpt>
      <trkpt lat="40.255130" lon="-5.052980">
        <ele>889.711</ele>
        <time>2020-02-27T21:05:13Z</time>
      </trkpt>
      <trkpt lat="40.255080" lon="-5.053020">
        <ele>889.108</ele>
        <time>2020-02-27T21:05:33Z</time>
      </trkpt>
      <trkpt lat="40.254960" lon="-5.053160">
        <ele>889.358</ele>
        <time>2020-02-27T21:05:53Z</time>
      </trkpt>
      <trkpt lat="40.254570" lon="-5.053430">
        <ele>891.711</ele>
        <time>2020-02-27T21:06:13Z</time>
      </trkpt>
      <trkpt lat="40.254450" lon="-5.053550">
        <ele>891.816</ele>
        <time>2020-02-27T21:06:33Z</time>
      </trkpt>
      <trkpt lat="40.254400" lon="-5.053590">
        <ele>891.167</ele>
        <time>2020-02-27T21:06:53Z</time>
      </trkpt>
      <trkpt lat="40.254330" lon="-5.053690">
        <ele>890.240</ele>
        <time>2020-02-27T21:07:13Z</time>
      </trkpt>
      <trkpt lat="40.254220" lon="-5.053890">
        <ele>887.549</ele>
        <time>2020-02-27T21:07:33Z</time>
      </trkpt>
      <trkpt lat="40.254170" lon="-5.054160">
        <ele>887.180</ele>
        <time>2020-02-27T21:07:53Z</time>
      </trkpt>
      <trkpt lat="40.254160" lon="-5.054430">
        <ele>886.867</ele>
        <time>2020-02-27T21:08:13Z</time>
      </trkpt>
      <trkpt lat="40.254200" lon="-5.054700">
        <ele>888.871</ele>
        <time>2020-02-27T21:08:33Z</time>
      </trkpt>
      <trkpt lat="40.254220" lon="-5.054990">
        <ele>890.341</ele>
        <time>2020-02-27T21:08:53Z</time>
      </trkpt>
      <trkpt lat="40.254210" lon="-5.055040">
        <ele>890.315</ele>
        <time>2020-02-27T21:09:13Z</time>
      </trkpt>
      <trkpt lat="40.254220" lon="-5.055550">
        <ele>891.708</ele>
        <time>2020-02-27T21:09:33Z</time>
      </trkpt>
      <trkpt lat="40.254240" lon="-5.055750">
        <ele>892.241</ele>
        <time>2020-02-27T21:09:53Z</time>
      </trkpt>
      <trkpt lat="40.254380" lon="-5.056220">
        <ele>894.564</ele>
        <time>2020-02-27T21:10:13Z</time>
      </trkpt>
      <trkpt lat="40.254590" lon="-5.056710">
        <ele>893.729</ele>
        <time>2020-02-27T21:10:33Z</time>
      </trkpt>
      <trkpt lat="40.254850" lon="-5.057150">
        <ele>894.080</ele>
        <time>2020-02-27T21:10:53Z</time>
      </trkpt>
      <trkpt lat="40.254900" lon="-5.057280">
        <ele>894.073</ele>
        <time>2020-02-27T21:11:13Z</time>
      </trkpt>
      <trkpt lat="40.254950" lon="-5.057540">
        <ele>892.892</ele>
        <time>2020-02-27T21:11:33Z</time>
      </trkpt>
      <trkpt lat="40.255050" lon="-5.057810">
        <ele>893.393</ele>
        <time>2020-02-27T21:11:53Z</time>
      </trkpt>
      <trkpt lat="40.255200" lon="-5.057980">
        <ele>896.550</ele>
        <time>2020-02-27T21:12:13Z</time>
      </trkpt>
      <trkpt lat="40.255260" lon="-5.058080">
        <ele>898.139</ele>
        <time>2020-02-27T21:12:33Z</time>
      </trkpt>
      <trkpt lat="40.255280" lon="-5.058140">
        <ele>899.901</ele>
        <time>2020-02-27T21:12:53Z</time>
      </trkpt>
      <trkpt lat="40.255270" lon="-5.058180">
        <ele>900.521</ele>
        <time>2020-02-27T21:13:13Z</time>
      </trkpt>
      <trkpt lat="40.255260" lon="-5.058200">
        <ele>900.708</ele>
        <time>2020-02-27T21:13:33Z</time>
      </trkpt>
      <trkpt lat="40.254990" lon="-5.058420">
        <ele>899.537</ele>
        <time>2020-02-27T21:13:53Z</time>
      </trkpt>
      <trkpt lat="40.254860" lon="-5.058590">
        <ele>895.820</ele>
        <time>2020-02-27T21:14:13Z</time>
      </trkpt>
      <trkpt lat="40.254840" lon="-5.058650">
        <ele>895.115</ele>
        <time>2020-02-27T21:14:33Z</time>
      </trkpt>
      <trkpt lat="40.254830" lon="-5.058780">
        <ele>894.886</ele>
        <time>2020-02-27T21:14:53Z</time>
      </trkpt>
      <trkpt lat="40.254840" lon="-5.058830">
        <ele>895.289</ele>
        <time>2020-02-27T21:15:13Z</time>
      </trkpt>
      <trkpt lat="40.254850" lon="-5.058850">
        <ele>895.628</ele>
        <time>2020-02-27T21:15:33Z</time>
      </trkpt>
      <trkpt lat="40.254890" lon="-5.058980">
        <ele>896.179</ele>
        <time>2020-02-27T21:15:53Z</time>
      </trkpt>
      <trkpt lat="40.255030" lon="-5.059220">
        <ele>897.596</ele>
        <time>2020-02-27T21:16:13Z</time>
      </trkpt>
      <trkpt lat="40.255060" lon="-5.059260">
        <ele>898.143</ele>
        <time>2020-02-27T21:16:33Z</time>
      </trkpt>
      <trkpt lat="40.255080" lon="-5.059340">
        <ele>898.264</ele>
        <time>2020-02-27T21:16:53Z</time>
      </trkpt>
      <trkpt lat="40.255100" lon="-5.059520">
        <ele>899.410</ele>
        <time>2020-02-27T21:17:13Z</time>
      </trkpt>
      <trkpt lat="40.255100" lon="-5.059580">
        <ele>900.308</ele>
        <time>2020-02-27T21:17:33Z</time>
      </trkpt>
      <trkpt lat="40.255080" lon="-5.059650">
        <ele>900.998</ele>
        <time>2020-02-27T21:17:53Z</time>
      </trkpt>
      <trkpt lat="40.255010" lon="-5.059770">
        <ele>901.321</ele>
        <time>2020-02-27T21:18:13Z</time>
      </trkpt>
      <trkpt lat="40.254760" lon="-5.059930">
        <ele>901.226</ele>
        <time>2020-02-27T21:18:33Z</time>
      </trkpt>
      <trkpt lat="40.254750" lon="-5.059930">
        <ele>901.127</ele>
        <time>2020-02-27T21:18:53Z</time>
      </trkpt>
      <trkpt lat="40.254720" lon="-5.059950">
        <ele>901.170</ele>
        <time>2020-02-27T21:19:13Z</time>
      </trkpt>
      <trkpt lat="40.254700" lon="-5.059970">
        <ele>901.079</ele>
        <time>2020-02-27T21:19:33Z</time>
      </trkpt>
      <trkpt lat="40.254680" lon="-5.060010">
        <ele>901.260</ele>
        <time>2020-02-27T21:19:53Z</time>
      </trkpt>
      <trkpt lat="40.254630" lon="-5.060080">
        <ele>900.947</ele>
        <time>2020-02-27T21:20:13Z</time>
      </trkpt>
      <trkpt lat="40.254630" lon="-5.060090">
        <ele>901.061</ele>
        <time>2020-02-27T21:20:33Z</time>
      </trkpt>
      <trkpt lat="40.254580" lon="-5.060210">
        <ele>901.221</ele>
        <time>2020-02-27T21:20:53Z</time>
      </trkpt>
      <trkpt lat="40.254510" lon="-5.060510">
        <ele>903.113</ele>
        <time>2020-02-27T21:21:13Z</time>
      </trkpt>
      <trkpt lat="40.254510" lon="-5.060520">
        <ele>903.208</ele>
        <time>2020-02-27T21:21:33Z</time>
      </trkpt>
      <trkpt lat="40.254470" lon="-5.060690">
        <ele>904.610</ele>
        <time>2020-02-27T21:21:53Z</time>
      </trkpt>
      <trkpt lat="40.254450" lon="-5.060730">
        <ele>904.763</ele>
        <time>2020-02-27T21:22:13Z</time>
      </trkpt>
      <trkpt lat="40.254440" lon="-5.060770">
        <ele>905.058</ele>
        <time>2020-02-27T21:22:33Z</time>
      </trkpt>
      <trkpt lat="40.254350" lon="-5.060940">
        <ele>905.499</ele>
        <time>2020-02-27T21:22:53Z</time>
      </trkpt>
      <trkpt lat="40.254330" lon="-5.060960">
        <ele>905.322</ele>
        <time>2020-02-27T21:23:13Z</time>
      </trkpt>
      <trkpt lat="40.254200" lon="-5.061170">
        <ele>905.711</ele>
        <time>2020-02-27T21:23:33Z</time>
      </trkpt>
      <trkpt lat="40.254140" lon="-5.061320">
        <ele>905.362</ele>
        <time>2020-02-27T21:23:53Z</time>
      </trkpt>
      <trkpt lat="40.254080" lon="-5.061540">
        <ele>905.449</ele>
        <time>2020-02-27T21:24:13Z</time>
      </trkpt>
      <trkpt lat="40.254000" lon="-5.062000">
        <ele>906.727</ele>
        <time>2020-02-27T21:24:33Z</time>
      </trkpt>
      <trkpt lat="40.253990" lon="-5.062020">
        <ele>906.668</ele>
        <time>2020-02-27T21:24:53Z</time>
      </trkpt>
      <trkpt lat="40.253930" lon="-5.062430">
        <ele>907.614</ele>
        <time>2020-02-27T21:25:13Z</time>
      </trkpt>
      <trkpt lat="40.253920" lon="-5.062640">
        <ele>908.908</ele>
        <time>2020-02-27T21:25:33Z</time>
      </trkpt>
      <trkpt lat="40.253910" lon="-5.062700">
        <ele>909.066</ele>
        <time>2020-02-27T21:25:53Z</time>
      </trkpt>
      <trkpt lat="40.253910" lon="-5.062810">
        <ele>910.139</ele>
        <time>2020-02-27T21:26:13Z</time>
      </trkpt>
      <trkpt lat="40.253880" lon="-5.062970">
        <ele>911.744</ele>
        <time>2020-02-27T21:26:33Z</time>
      </trkpt>
      <trkpt lat="40.253860" lon="-5.063020">
        <ele>912.365</ele>
        <time>2020-02-27T21:26:53Z</time>
      </trkpt>
      <trkpt lat="40.253830" lon="-5.063060">
        <ele>912.758</ele>
        <time>2020-02-27T21:27:13Z</time>
      </trkpt>
      <trkpt lat="40.253770" lon="-5.063120">
        <ele>913.387</ele>
        <time>2020-02-27T21:27:33Z</time>
      </trkpt>
      <trkpt lat="40.253700" lon="-5.063150">
        <ele>913.398</ele>
        <time>2020-02-27T21:27:53Z</time>
      </trkpt>
      <trkpt lat="40.252970" lon="-5.063270">
        <ele>913.645</ele>
        <time>2020-02-27T21:28:13Z</time>
      </trkpt>
      <trkpt lat="40.252860" lon="-5.063300">
        <ele>913.213</ele>
        <time>2020-02-27T21:28:33Z</time>
      </trkpt>
      <trkpt lat="40.252760" lon="-5.063340">
        <ele>913.043</ele>
        <time>2020-02-27T21:28:53Z</time>
      </trkpt>
      <trkpt lat="40.252700" lon="-5.063380">
        <ele>913.207</ele>
        <time>2020-02-27T21:29:13Z</time>
      </trkpt>
      <trkpt lat="40.252650" lon="-5.063440">
        <ele>913.608</ele>
        <time>2020-02-27T21:29:33Z</time>
      </trkpt>
      <trkpt lat="40.252600" lon="-5.063520">
        <ele>914.235</ele>
        <time>2020-02-27T21:29:53Z</time>
      </trkpt>
      <trkpt lat="40.252590" lon="-5.063520">
        <ele>914.118</ele>
        <time>2020-02-27T21:30:13Z</time>
      </trkpt>
      <trkpt lat="40.252340" lon="-5.064150">
        <ele>917.923</ele>
        <time>2020-02-27T21:30:33Z</time>
      </trkpt>
      <trkpt lat="40.252230" lon="-5.064330">
        <ele>918.544</ele>
        <time>2020-02-27T21:30:53Z</time>
      </trkpt>
      <trkpt lat="40.251770" lon="-5.064730">
        <ele>920.497</ele>
        <time>2020-02-27T21:31:13Z</time>
      </trkpt>
      <trkpt lat="40.251740" lon="-5.064800">
        <ele>921.046</ele>
        <time>2020-02-27T21:31:33Z</time>
      </trkpt>
      <trkpt lat="40.251700" lon="-5.064870">
        <ele>921.347</ele>
        <time>2020-02-27T21:31:53Z</time>
      </trkpt>
      <trkpt lat="40.251680" lon="-5.064920">
        <ele>921.514</ele>
        <time>2020-02-27T21:32:13Z</time>
      </trkpt>
      <trkpt lat="40.251650" lon="-5.064970">
        <ele>921.586</ele>
        <time>2020-02-27T21:32:33Z</time>
      </trkpt>
      <trkpt lat="40.251380" lon="-5.065630">
        <ele>923.760</ele>
        <time>2020-02-27T21:32:53Z</time>
      </trkpt>
      <trkpt lat="40.250880" lon="-5.066580">
        <ele>925.026</ele>
        <time>2020-02-27T21:33:13Z</time>
      </trkpt>
      <trkpt lat="40.250810" lon="-5.066740">
        <ele>925.608</ele>
        <time>2020-02-27T21:33:33Z</time>
      </trkpt>
      <trkpt lat="40.250610" lon="-5.067060">
        <ele>925.452</ele>
        <time>2020-02-27T21:33:53Z</time>
      </trkpt>
      <trkpt lat="40.250580" lon="-5.067140">
        <ele>925.685</ele>
        <time>2020-02-27T21:34:13Z</time>
      </trkpt>
      <trkpt lat="40.250560" lon="-5.067220">
        <ele>926.170</ele>
        <time>2020-02-27T21:34:33Z</time>
      </trkpt>
      <trkpt lat="40.250550" lon="-5.067320">
        <ele>926.931</ele>
        <time>2020-02-27T21:34:53Z</time>
      </trkpt>
      <trkpt lat="40.250520" lon="-5.067460">
        <ele>927.514</ele>
        <time>2020-02-27T21:35:13Z</time>
      </trkpt>
      <trkpt lat="40.250520" lon="-5.067480">
        <ele>927.673</ele>
        <time>2020-02-27T21:35:33Z</time>
      </trkpt>
      <trkpt lat="40.250480" lon="-5.067590">
        <ele>928.474</ele>
        <time>2020-02-27T21:35:53Z</time>
      </trkpt>
      <trkpt lat="40.250450" lon="-5.067650">
        <ele>928.911</ele>
        <time>2020-02-27T21:36:13Z</time>
      </trkpt>
      <trkpt lat="40.250420" lon="-5.067680">
        <ele>928.836</ele>
        <time>2020-02-27T21:36:33Z</time>
      </trkpt>
      <trkpt lat="40.250420" lon="-5.067690">
        <ele>929.017</ele>
        <time>2020-02-27T21:36:53Z</time>
      </trkpt>
      <trkpt lat="40.250370" lon="-5.067740">
        <ele>929.018</ele>
        <time>2020-02-27T21:37:13Z</time>
      </trkpt>
      <trkpt lat="40.250120" lon="-5.067930">
        <ele>928.108</ele>
        <time>2020-02-27T21:37:33Z</time>
      </trkpt>
      <trkpt lat="40.249980" lon="-5.068090">
        <ele>928.057</ele>
        <time>2020-02-27T21:37:53Z</time>
      </trkpt>
      <trkpt lat="40.249860" lon="-5.068250">
        <ele>927.580</ele>
        <time>2020-02-27T21:38:13Z</time>
      </trkpt>
      <trkpt lat="40.249790" lon="-5.068380">
        <ele>927.745</ele>
        <time>2020-02-27T21:38:33Z</time>
      </trkpt>
      <trkpt lat="40.249700" lon="-5.068590">
        <ele>927.816</ele>
        <time>2020-02-27T21:38:53Z</time>
      </trkpt>
      <trkpt lat="40.249640" lon="-5.068780">
        <ele>927.459</ele>
        <time>2020-02-27T21:39:13Z</time>
      </trkpt>
      <trkpt lat="40.249630" lon="-5.068840">
        <ele>927.548</ele>
        <time>2020-02-27T21:39:33Z</time>
      </trkpt>
      <trkpt lat="40.249630" lon="-5.068880">
        <ele>927.979</ele>
        <time>2020-02-27T21:39:53Z</time>
      </trkpt>
      <trkpt lat="40.249620" lon="-5.068940">
        <ele>928.416</ele>
        <time>2020-02-27T21:40:13Z</time>
      </trkpt>
      <trkpt lat="40.249630" lon="-5.069020">
        <ele>930.198</ele>
        <time>2020-02-27T21:40:33Z</time>
      </trkpt>
      <trkpt lat="40.249610" lon="-5.069130">
        <ele>931.015</ele>
        <time>2020-02-27T21:40:53Z</time>
      </trkpt>
      <trkpt lat="40.249570" lon="-5.069260">
        <ele>931.226</ele>
        <time>2020-02-27T21:41:13Z</time>
      </trkpt>
      <trkpt lat="40.249530" lon="-5.069320">
        <ele>930.408</ele>
        <time>2020-02-27T21:41:33Z</time>
      </trkpt>
      <trkpt lat="40.249530" lon="-5.069330">
        <ele>930.613</ele>
        <time>2020-02-27T21:41:53Z</time>
      </trkpt>
      <trkpt lat="40.249410" lon="-5.069490">
        <ele>928.846</ele>
        <time>2020-02-27T21:42:13Z</time>
      </trkpt>
      <trkpt lat="40.249410" lon="-5.069500">
        <ele>929.011</ele>
        <time>2020-02-27T21:42:33Z</time>
      </trkpt>
      <trkpt lat="40.249330" lon="-5.069600">
        <ele>928.592</ele>
        <time>2020-02-27T21:42:53Z</time>
      </trkpt>
      <trkpt lat="40.249260" lon="-5.069720">
        <ele>928.635</ele>
        <time>2020-02-27T21:43:13Z</time>
      </trkpt>
      <trkpt lat="40.249100" lon="-5.070070">
        <ele>930.394</ele>
        <time>2020-02-27T21:43:33Z</time>
      </trkpt>
      <trkpt lat="40.249100" lon="-5.070090">
        <ele>930.875</ele>
        <time>2020-02-27T21:43:53Z</time>
      </trkpt>
      <trkpt lat="40.248680" lon="-5.071110">
        <ele>931.522</ele>
        <time>2020-02-27T21:44:13Z</time>
      </trkpt>
      <trkpt lat="40.248630" lon="-5.071300">
        <ele>931.118</ele>
        <time>2020-02-27T21:44:33Z</time>
      </trkpt>
      <trkpt lat="40.248630" lon="-5.071340">
        <ele>931.298</ele>
        <time>2020-02-27T21:44:53Z</time>
      </trkpt>
      <trkpt lat="40.248660" lon="-5.071480">
        <ele>931.117</ele>
        <time>2020-02-27T21:45:13Z</time>
      </trkpt>
      <trkpt lat="40.248720" lon="-5.071580">
        <ele>931.608</ele>
        <time>2020-02-27T21:45:33Z</time>
      </trkpt>
      <trkpt lat="40.248800" lon="-5.071750">
        <ele>932.675</ele>
        <time>2020-02-27T21:45:53Z</time>
      </trkpt>
      <trkpt lat="40.248800" lon="-5.071760">
        <ele>932.638</ele>
        <time>2020-02-27T21:46:13Z</time>
      </trkpt>
      <trkpt lat="40.248920" lon="-5.072090">
        <ele>938.293</ele>
        <time>2020-02-27T21:46:33Z</time>
      </trkpt>
      <trkpt lat="40.248990" lon="-5.072380">
        <ele>941.664</ele>
        <time>2020-02-27T21:46:53Z</time>
      </trkpt>
      <trkpt lat="40.248990" lon="-5.072520">
        <ele>941.657</ele>
        <time>2020-02-27T21:47:13Z</time>
      </trkpt>
      <trkpt lat="40.248970" lon="-5.072650">
        <ele>943.346</ele>
        <time>2020-02-27T21:47:33Z</time>
      </trkpt>
      <trkpt lat="40.248940" lon="-5.072730">
        <ele>943.587</ele>
        <time>2020-02-27T21:47:53Z</time>
      </trkpt>
      <trkpt lat="40.248810" lon="-5.072970">
        <ele>945.024</ele>
        <time>2020-02-27T21:48:13Z</time>
      </trkpt>
      <trkpt lat="40.248560" lon="-5.073340">
        <ele>947.077</ele>
        <time>2020-02-27T21:48:33Z</time>
      </trkpt>
      <trkpt lat="40.248480" lon="-5.073480">
        <ele>948.161</ele>
        <time>2020-02-27T21:48:53Z</time>
      </trkpt>
      <trkpt lat="40.247860" lon="-5.074810">
        <ele>955.827</ele>
        <time>2020-02-27T21:49:13Z</time>
      </trkpt>
      <trkpt lat="40.247800" lon="-5.074990">
        <ele>956.708</ele>
        <time>2020-02-27T21:49:33Z</time>
      </trkpt>
      <trkpt lat="40.247740" lon="-5.075480">
        <ele>964.451</ele>
        <time>2020-02-27T21:49:53Z</time>
      </trkpt>
      <trkpt lat="40.247720" lon="-5.075540">
        <ele>965.444</ele>
        <time>2020-02-27T21:50:13Z</time>
      </trkpt>
      <trkpt lat="40.247690" lon="-5.075600">
        <ele>965.939</ele>
        <time>2020-02-27T21:50:33Z</time>
      </trkpt>
      <trkpt lat="40.247630" lon="-5.075670">
        <ele>966.110</ele>
        <time>2020-02-27T21:50:53Z</time>
      </trkpt>
      <trkpt lat="40.247580" lon="-5.075710">
        <ele>966.123</ele>
        <time>2020-02-27T21:51:13Z</time>
      </trkpt>
      <trkpt lat="40.247480" lon="-5.075760">
        <ele>965.712</ele>
        <time>2020-02-27T21:51:33Z</time>
      </trkpt>
      <trkpt lat="40.247470" lon="-5.075760">
        <ele>965.483</ele>
        <time>2020-02-27T21:51:53Z</time>
      </trkpt>
      <trkpt lat="40.247330" lon="-5.075840">
        <ele>963.860</ele>
        <time>2020-02-27T21:52:13Z</time>
      </trkpt>
      <trkpt lat="40.247320" lon="-5.075850">
        <ele>963.674</ele>
        <time>2020-02-27T21:52:33Z</time>
      </trkpt>
      <trkpt lat="40.247290" lon="-5.075860">
        <ele>963.056</ele>
        <time>2020-02-27T21:52:53Z</time>
      </trkpt>
      <trkpt lat="40.247260" lon="-5.075890">
        <ele>962.621</ele>
        <time>2020-02-27T21:53:13Z</time>
      </trkpt>
      <trkpt lat="40.247250" lon="-5.075920">
        <ele>962.608</ele>
        <time>2020-02-27T21:53:33Z</time>
      </trkpt>
      <trkpt lat="40.247220" lon="-5.075970">
        <ele>962.421</ele>
        <time>2020-02-27T21:53:53Z</time>
      </trkpt>
      <trkpt lat="40.247200" lon="-5.076020">
        <ele>962.474</ele>
        <time>2020-02-27T21:54:13Z</time>
      </trkpt>
      <trkpt lat="40.247190" lon="-5.076080">
        <ele>962.829</ele>
        <time>2020-02-27T21:54:33Z</time>
      </trkpt>
      <trkpt lat="40.247190" lon="-5.076140">
        <ele>963.330</ele>
        <time>2020-02-27T21:54:53Z</time>
      </trkpt>
      <trkpt lat="40.247210" lon="-5.076250">
        <ele>964.213</ele>
        <time>2020-02-27T21:55:13Z</time>
      </trkpt>
      <trkpt lat="40.247220" lon="-5.076260">
        <ele>964.572</ele>
        <time>2020-02-27T21:55:33Z</time>
      </trkpt>
      <trkpt lat="40.247280" lon="-5.076470">
        <ele>966.953</ele>
        <time>2020-02-27T21:55:53Z</time>
      </trkpt>
      <trkpt lat="40.247480" lon="-5.077030">
        <ele>969.930</ele>
        <time>2020-02-27T21:56:13Z</time>
      </trkpt>
      <trkpt lat="40.247630" lon="-5.077360">
        <ele>972.395</ele>
        <time>2020-02-27T21:56:33Z</time>
      </trkpt>
      <trkpt lat="40.247990" lon="-5.077980">
        <ele>974.549</ele>
        <time>2020-02-27T21:56:53Z</time>
      </trkpt>
      <trkpt lat="40.249190" lon="-5.079860">
        <ele>980.323</ele>
        <time>2020-02-27T21:57:13Z</time>
      </trkpt>
      <trkpt lat="40.249200" lon="-5.079860">
        <ele>980.408</ele>
        <time>2020-02-27T21:57:33Z</time>
      </trkpt>
      <trkpt lat="40.249280" lon="-5.079980">
        <ele>979.523</ele>
        <time>2020-02-27T21:57:53Z</time>
      </trkpt>
      <trkpt lat="40.249490" lon="-5.080160">
        <ele>979.426</ele>
        <time>2020-02-27T21:58:13Z</time>
      </trkpt>
      <trkpt lat="40.249710" lon="-5.080300">
        <ele>980.381</ele>
        <time>2020-02-27T21:58:33Z</time>
      </trkpt>
      <trkpt lat="40.249920" lon="-5.080380">
        <ele>980.262</ele>
        <time>2020-02-27T21:58:53Z</time>
      </trkpt>
      <trkpt lat="40.250030" lon="-5.080380">
        <ele>980.985</ele>
        <time>2020-02-27T21:59:13Z</time>
      </trkpt>
      <trkpt lat="40.250270" lon="-5.080420">
        <ele>981.484</ele>
        <time>2020-02-27T21:59:33Z</time>
      </trkpt>
      <trkpt lat="40.250330" lon="-5.080440">
        <ele>981.655</ele>
        <time>2020-02-27T21:59:53Z</time>
      </trkpt>
      <trkpt lat="40.250340" lon="-5.080450">
        <ele>981.692</ele>
        <time>2020-02-27T22:00:13Z</time>
      </trkpt>
      <trkpt lat="40.250380" lon="-5.080460">
        <ele>981.819</ele>
        <time>2020-02-27T22:00:33Z</time>
      </trkpt>
      <trkpt lat="40.250550" lon="-5.080550">
        <ele>982.009</ele>
        <time>2020-02-27T22:00:53Z</time>
      </trkpt>
      <trkpt lat="40.250660" lon="-5.080580">
        <ele>982.819</ele>
        <time>2020-02-27T22:01:13Z</time>
      </trkpt>
      <trkpt lat="40.250680" lon="-5.080590">
        <ele>982.808</ele>
        <time>2020-02-27T22:01:33Z</time>
      </trkpt>
      <trkpt lat="40.250810" lon="-5.080620">
        <ele>983.895</ele>
        <time>2020-02-27T22:01:53Z</time>
      </trkpt>
      <trkpt lat="40.250900" lon="-5.080660">
        <ele>984.338</ele>
        <time>2020-02-27T22:02:13Z</time>
      </trkpt>
      <trkpt lat="40.250970" lon="-5.080710">
        <ele>984.533</ele>
        <time>2020-02-27T22:02:33Z</time>
      </trkpt>
      <trkpt lat="40.251080" lon="-5.080850">
        <ele>984.364</ele>
        <time>2020-02-27T22:02:53Z</time>
      </trkpt>
      <trkpt lat="40.251210" lon="-5.081160">
        <ele>982.057</ele>
        <time>2020-02-27T22:03:13Z</time>
      </trkpt>
      <trkpt lat="40.251310" lon="-5.081300">
        <ele>981.736</ele>
        <time>2020-02-27T22:03:33Z</time>
      </trkpt>
      <trkpt lat="40.251390" lon="-5.081390">
        <ele>982.017</ele>
        <time>2020-02-27T22:03:53Z</time>
      </trkpt>
      <trkpt lat="40.251530" lon="-5.081490">
        <ele>981.264</ele>
        <time>2020-02-27T22:04:13Z</time>
      </trkpt>
      <trkpt lat="40.251620" lon="-5.081520">
        <ele>981.342</ele>
        <time>2020-02-27T22:04:33Z</time>
      </trkpt>
      <trkpt lat="40.251630" lon="-5.081530">
        <ele>981.122</ele>
        <time>2020-02-27T22:04:53Z</time>
      </trkpt>
      <trkpt lat="40.251790" lon="-5.081560">
        <ele>979.114</ele>
        <time>2020-02-27T22:05:13Z</time>
      </trkpt>
      <trkpt lat="40.251830" lon="-5.081560">
        <ele>978.608</ele>
        <time>2020-02-27T22:05:33Z</time>
      </trkpt>
      <trkpt lat="40.251910" lon="-5.081530">
        <ele>978.428</ele>
        <time>2020-02-27T22:05:53Z</time>
      </trkpt>
      <trkpt lat="40.251970" lon="-5.081480">
        <ele>978.431</ele>
        <time>2020-02-27T22:06:13Z</time>
      </trkpt>
      <trkpt lat="40.251980" lon="-5.081480">
        <ele>978.116</ele>
        <time>2020-02-27T22:06:33Z</time>
      </trkpt>
      <trkpt lat="40.252070" lon="-5.081360">
        <ele>977.647</ele>
        <time>2020-02-27T22:06:53Z</time>
      </trkpt>
      <trkpt lat="40.252090" lon="-5.081310">
        <ele>977.820</ele>
        <time>2020-02-27T22:07:13Z</time>
      </trkpt>
      <trkpt lat="40.252100" lon="-5.081300">
        <ele>977.689</ele>
        <time>2020-02-27T22:07:33Z</time>
      </trkpt>
      <trkpt lat="40.252150" lon="-5.081170">
        <ele>978.090</ele>
        <time>2020-02-27T22:07:53Z</time>
      </trkpt>
      <trkpt lat="40.252200" lon="-5.080980">
        <ele>978.897</ele>
        <time>2020-02-27T22:08:13Z</time>
      </trkpt>
      <trkpt lat="40.252230" lon="-5.080790">
        <ele>979.155</ele>
        <time>2020-02-27T22:08:33Z</time>
      </trkpt>
      <trkpt lat="40.252230" lon="-5.080540">
        <ele>976.507</ele>
        <time>2020-02-27T22:08:53Z</time>
      </trkpt>
      <trkpt lat="40.252140" lon="-5.079630">
        <ele>974.617</ele>
        <time>2020-02-27T22:09:13Z</time>
      </trkpt>
      <trkpt lat="40.252140" lon="-5.079510">
        <ele>974.608</ele>
        <time>2020-02-27T22:09:33Z</time>
      </trkpt>
      <trkpt lat="40.252160" lon="-5.079400">
        <ele>974.169</ele>
        <time>2020-02-27T22:09:53Z</time>
      </trkpt>
      <trkpt lat="40.252280" lon="-5.079090">
        <ele>973.082</ele>
        <time>2020-02-27T22:10:13Z</time>
      </trkpt>
      <trkpt lat="40.252360" lon="-5.078950">
        <ele>971.947</ele>
        <time>2020-02-27T22:10:33Z</time>
      </trkpt>
      <trkpt lat="40.252460" lon="-5.078740">
        <ele>970.498</ele>
        <time>2020-02-27T22:10:53Z</time>
      </trkpt>
      <trkpt lat="40.252510" lon="-5.078670">
        <ele>969.361</ele>
        <time>2020-02-27T22:11:13Z</time>
      </trkpt>
      <trkpt lat="40.252510" lon="-5.078660">
        <ele>969.460</ele>
        <time>2020-02-27T22:11:33Z</time>
      </trkpt>
      <trkpt lat="40.252760" lon="-5.078350">
        <ele>967.291</ele>
        <time>2020-02-27T22:11:53Z</time>
      </trkpt>
      <trkpt lat="40.252910" lon="-5.078200">
        <ele>966.528</ele>
        <time>2020-02-27T22:12:13Z</time>
      </trkpt>
      <trkpt lat="40.252910" lon="-5.078190">
        <ele>966.733</ele>
        <time>2020-02-27T22:12:33Z</time>
      </trkpt>
      <trkpt lat="40.253900" lon="-5.077170">
        <ele>963.323</ele>
        <time>2020-02-27T22:12:53Z</time>
      </trkpt>
      <trkpt lat="40.254170" lon="-5.076920">
        <ele>962.315</ele>
        <time>2020-02-27T22:13:13Z</time>
      </trkpt>
      <trkpt lat="40.254200" lon="-5.076910">
        <ele>962.408</ele>
        <time>2020-02-27T22:13:33Z</time>
      </trkpt>
      <trkpt lat="40.254200" lon="-5.076900">
        <ele>962.547</ele>
        <time>2020-02-27T22:13:53Z</time>
      </trkpt>
      <trkpt lat="40.254280" lon="-5.076870">
        <ele>962.850</ele>
        <time>2020-02-27T22:14:13Z</time>
      </trkpt>
      <trkpt lat="40.254370" lon="-5.076870">
        <ele>962.815</ele>
        <time>2020-02-27T22:14:33Z</time>
      </trkpt>
      <trkpt lat="40.254410" lon="-5.076880">
        <ele>962.736</ele>
        <time>2020-02-27T22:14:53Z</time>
      </trkpt>
      <trkpt lat="40.254470" lon="-5.076910">
        <ele>962.589</ele>
        <time>2020-02-27T22:15:13Z</time>
      </trkpt>
      <trkpt lat="40.254560" lon="-5.077010">
        <ele>961.638</ele>
        <time>2020-02-27T22:15:33Z</time>
      </trkpt>
      <trkpt lat="40.254670" lon="-5.077180">
        <ele>960.159</ele>
        <time>2020-02-27T22:15:53Z</time>
      </trkpt>
      <trkpt lat="40.254730" lon="-5.077240">
        <ele>959.756</ele>
        <time>2020-02-27T22:16:13Z</time>
      </trkpt>
      <trkpt lat="40.254800" lon="-5.077270">
        <ele>959.344</ele>
        <time>2020-02-27T22:16:33Z</time>
      </trkpt>
      <trkpt lat="40.254850" lon="-5.077280">
        <ele>959.105</ele>
        <time>2020-02-27T22:16:53Z</time>
      </trkpt>
      <trkpt lat="40.254980" lon="-5.077250">
        <ele>959.515</ele>
        <time>2020-02-27T22:17:13Z</time>
      </trkpt>
      <trkpt lat="40.255020" lon="-5.077230">
        <ele>959.408</ele>
        <time>2020-02-27T22:17:33Z</time>
      </trkpt>
      <trkpt lat="40.255200" lon="-5.077100">
        <ele>956.538</ele>
        <time>2020-02-27T22:17:53Z</time>
      </trkpt>
      <trkpt lat="40.255440" lon="-5.076880">
        <ele>952.971</ele>
        <time>2020-02-27T22:18:13Z</time>
      </trkpt>
      <trkpt lat="40.255500" lon="-5.076810">
        <ele>951.736</ele>
        <time>2020-02-27T22:18:33Z</time>
      </trkpt>
      <trkpt lat="40.255530" lon="-5.076760">
        <ele>951.157</ele>
        <time>2020-02-27T22:18:53Z</time>
      </trkpt>
      <trkpt lat="40.255550" lon="-5.076710">
        <ele>950.960</ele>
        <time>2020-02-27T22:19:13Z</time>
      </trkpt>
      <trkpt lat="40.255600" lon="-5.076460">
        <ele>952.029</ele>
        <time>2020-02-27T22:19:33Z</time>
      </trkpt>
      <trkpt lat="40.255660" lon="-5.076250">
        <ele>952.010</ele>
        <time>2020-02-27T22:19:53Z</time>
      </trkpt>
      <trkpt lat="40.255660" lon="-5.076240">
        <ele>952.137</ele>
        <time>2020-02-27T22:20:13Z</time>
      </trkpt>
      <trkpt lat="40.255690" lon="-5.076140">
        <ele>951.948</ele>
        <time>2020-02-27T22:20:33Z</time>
      </trkpt>
      <trkpt lat="40.255840" lon="-5.075850">
        <ele>947.961</ele>
        <time>2020-02-27T22:20:53Z</time>
      </trkpt>
      <trkpt lat="40.256040" lon="-5.075560">
        <ele>946.017</ele>
        <time>2020-02-27T22:21:13Z</time>
      </trkpt>
      <trkpt lat="40.256130" lon="-5.075470">
        <ele>945.308</ele>
        <time>2020-02-27T22:21:33Z</time>
      </trkpt>
      <trkpt lat="40.256240" lon="-5.075410">
        <ele>944.228</ele>
        <time>2020-02-27T22:21:53Z</time>
      </trkpt>
      <trkpt lat="40.256250" lon="-5.075410">
        <ele>944.141</ele>
        <time>2020-02-27T22:22:13Z</time>
      </trkpt>
      <trkpt lat="40.256300" lon="-5.075390">
        <ele>943.756</ele>
        <time>2020-02-27T22:22:33Z</time>
      </trkpt>
      <trkpt lat="40.256420" lon="-5.075360">
        <ele>943.137</ele>
        <time>2020-02-27T22:22:53Z</time>
      </trkpt>
      <trkpt lat="40.256720" lon="-5.075310">
        <ele>942.540</ele>
        <time>2020-02-27T22:23:13Z</time>
      </trkpt>
      <trkpt lat="40.256770" lon="-5.075290">
        <ele>941.959</ele>
        <time>2020-02-27T22:23:33Z</time>
      </trkpt>
      <trkpt lat="40.256780" lon="-5.075290">
        <ele>941.780</ele>
        <time>2020-02-27T22:23:53Z</time>
      </trkpt>
      <trkpt lat="40.256920" lon="-5.075210">
        <ele>940.967</ele>
        <time>2020-02-27T22:24:13Z</time>
      </trkpt>
      <trkpt lat="40.257330" lon="-5.074870">
        <ele>940.554</ele>
        <time>2020-02-27T22:24:33Z</time>
      </trkpt>
      <trkpt lat="40.257460" lon="-5.074730">
        <ele>939.856</ele>
        <time>2020-02-27T22:24:53Z</time>
      </trkpt>
      <trkpt lat="40.257610" lon="-5.074640">
        <ele>937.911</ele>
        <time>2020-02-27T22:25:13Z</time>
      </trkpt>
      <trkpt lat="40.257730" lon="-5.074600">
        <ele>936.208</ele>
        <time>2020-02-27T22:25:33Z</time>
      </trkpt>
      <trkpt lat="40.257810" lon="-5.074600">
        <ele>935.219</ele>
        <time>2020-02-27T22:25:53Z</time>
      </trkpt>
      <trkpt lat="40.257890" lon="-5.074610">
        <ele>935.082</ele>
        <time>2020-02-27T22:26:13Z</time>
      </trkpt>
      <trkpt lat="40.258150" lon="-5.074710">
        <ele>933.247</ele>
        <time>2020-02-27T22:26:33Z</time>
      </trkpt>
      <trkpt lat="40.258320" lon="-5.074790">
        <ele>932.018</ele>
        <time>2020-02-27T22:26:53Z</time>
      </trkpt>
      <trkpt lat="40.258550" lon="-5.074820">
        <ele>931.121</ele>
        <time>2020-02-27T22:27:13Z</time>
      </trkpt>
      <trkpt lat="40.258670" lon="-5.074790">
        <ele>930.810</ele>
        <time>2020-02-27T22:27:33Z</time>
      </trkpt>
      <trkpt lat="40.259080" lon="-5.074590">
        <ele>931.241</ele>
        <time>2020-02-27T22:27:53Z</time>
      </trkpt>
      <trkpt lat="40.259170" lon="-5.074590">
        <ele>931.018</ele>
        <time>2020-02-27T22:28:13Z</time>
      </trkpt>
      <trkpt lat="40.259220" lon="-5.074610">
        <ele>932.015</ele>
        <time>2020-02-27T22:28:33Z</time>
      </trkpt>
      <trkpt lat="40.259260" lon="-5.074670">
        <ele>932.565</ele>
        <time>2020-02-27T22:28:53Z</time>
      </trkpt>
      <trkpt lat="40.259270" lon="-5.074700">
        <ele>932.511</ele>
        <time>2020-02-27T22:29:13Z</time>
      </trkpt>
      <trkpt lat="40.259270" lon="-5.074740">
        <ele>932.408</ele>
        <time>2020-02-27T22:29:33Z</time>
      </trkpt>
      <trkpt lat="40.259200" lon="-5.075070">
        <ele>930.225</ele>
        <time>2020-02-27T22:29:53Z</time>
      </trkpt>
      <trkpt lat="40.259200" lon="-5.075130">
        <ele>930.368</ele>
        <time>2020-02-27T22:30:13Z</time>
      </trkpt>
      <trkpt lat="40.259160" lon="-5.075360">
        <ele>928.993</ele>
        <time>2020-02-27T22:30:33Z</time>
      </trkpt>
      <trkpt lat="40.259120" lon="-5.075830">
        <ele>927.784</ele>
        <time>2020-02-27T22:30:53Z</time>
      </trkpt>
      <trkpt lat="40.259130" lon="-5.076400">
        <ele>926.337</ele>
        <time>2020-02-27T22:31:13Z</time>
      </trkpt>
      <trkpt lat="40.259120" lon="-5.076660">
        <ele>925.896</ele>
        <time>2020-02-27T22:31:33Z</time>
      </trkpt>
      <trkpt lat="40.259100" lon="-5.076780">
        <ele>925.647</ele>
        <time>2020-02-27T22:31:53Z</time>
      </trkpt>
      <trkpt lat="40.259070" lon="-5.076870">
        <ele>925.784</ele>
        <time>2020-02-27T22:32:13Z</time>
      </trkpt>
      <trkpt lat="40.259040" lon="-5.077090">
        <ele>926.162</ele>
        <time>2020-02-27T22:32:33Z</time>
      </trkpt>
      <trkpt lat="40.259040" lon="-5.077170">
        <ele>926.283</ele>
        <time>2020-02-27T22:32:53Z</time>
      </trkpt>
      <trkpt lat="40.259060" lon="-5.077230">
        <ele>925.911</ele>
        <time>2020-02-27T22:33:13Z</time>
      </trkpt>
      <trkpt lat="40.259060" lon="-5.077240">
        <ele>926.008</ele>
        <time>2020-02-27T22:33:33Z</time>
      </trkpt>
      <trkpt lat="40.259090" lon="-5.077310">
        <ele>925.490</ele>
        <time>2020-02-27T22:33:53Z</time>
      </trkpt>
      <trkpt lat="40.259180" lon="-5.077470">
        <ele>923.433</ele>
        <time>2020-02-27T22:34:13Z</time>
      </trkpt>
      <trkpt lat="40.259890" lon="-5.078570">
        <ele>916.948</ele>
        <time>2020-02-27T22:34:33Z</time>
      </trkpt>
      <trkpt lat="40.260090" lon="-5.078820">
        <ele>914.079</ele>
        <time>2020-02-27T22:34:53Z</time>
      </trkpt>
      <trkpt lat="40.260280" lon="-5.079010">
        <ele>911.452</ele>
        <time>2020-02-27T22:35:13Z</time>
      </trkpt>
      <trkpt lat="40.260380" lon="-5.079050">
        <ele>910.971</ele>
        <time>2020-02-27T22:35:33Z</time>
      </trkpt>
      <trkpt lat="40.260570" lon="-5.079090">
        <ele>910.982</ele>
        <time>2020-02-27T22:35:53Z</time>
      </trkpt>
      <trkpt lat="40.260700" lon="-5.079060">
        <ele>909.549</ele>
        <time>2020-02-27T22:36:13Z</time>
      </trkpt>
      <trkpt lat="40.260790" lon="-5.079020">
        <ele>909.214</ele>
        <time>2020-02-27T22:36:33Z</time>
      </trkpt>
      <trkpt lat="40.260910" lon="-5.078940">
        <ele>909.254</ele>
        <time>2020-02-27T22:36:53Z</time>
      </trkpt>
      <trkpt lat="40.261010" lon="-5.078830">
        <ele>909.809</ele>
        <time>2020-02-27T22:37:13Z</time>
      </trkpt>
      <trkpt lat="40.261110" lon="-5.078700">
        <ele>910.408</ele>
        <time>2020-02-27T22:37:33Z</time>
      </trkpt>
      <trkpt lat="40.261380" lon="-5.078150">
        <ele>905.715</ele>
        <time>2020-02-27T22:37:53Z</time>
      </trkpt>
      <trkpt lat="40.261660" lon="-5.077770">
        <ele>902.448</ele>
        <time>2020-02-27T22:38:13Z</time>
      </trkpt>
      <trkpt lat="40.261820" lon="-5.077610">
        <ele>903.423</ele>
        <time>2020-02-27T22:38:33Z</time>
      </trkpt>
      <trkpt lat="40.261920" lon="-5.077550">
        <ele>903.464</ele>
        <time>2020-02-27T22:38:53Z</time>
      </trkpt>
      <trkpt lat="40.262000" lon="-5.077550">
        <ele>903.197</ele>
        <time>2020-02-27T22:39:13Z</time>
      </trkpt>
      <trkpt lat="40.262020" lon="-5.077560">
        <ele>902.976</ele>
        <time>2020-02-27T22:39:33Z</time>
      </trkpt>
      <trkpt lat="40.262090" lon="-5.077620">
        <ele>901.857</ele>
        <time>2020-02-27T22:39:53Z</time>
      </trkpt>
      <trkpt lat="40.262110" lon="-5.077660">
        <ele>901.134</ele>
        <time>2020-02-27T22:40:13Z</time>
      </trkpt>
      <trkpt lat="40.262140" lon="-5.077700">
        <ele>900.451</ele>
        <time>2020-02-27T22:40:33Z</time>
      </trkpt>
      <trkpt lat="40.262200" lon="-5.077920">
        <ele>897.501</ele>
        <time>2020-02-27T22:40:53Z</time>
      </trkpt>
      <trkpt lat="40.262250" lon="-5.078170">
        <ele>894.711</ele>
        <time>2020-02-27T22:41:13Z</time>
      </trkpt>
      <trkpt lat="40.262300" lon="-5.078310">
        <ele>892.708</ele>
        <time>2020-02-27T22:41:33Z</time>
      </trkpt>
      <trkpt lat="40.262320" lon="-5.078330">
        <ele>892.489</ele>
        <time>2020-02-27T22:41:53Z</time>
      </trkpt>
      <trkpt lat="40.262340" lon="-5.078360">
        <ele>891.942</ele>
        <time>2020-02-27T22:42:13Z</time>
      </trkpt>
      <trkpt lat="40.262360" lon="-5.078380">
        <ele>891.547</ele>
        <time>2020-02-27T22:42:33Z</time>
      </trkpt>
      <trkpt lat="40.262380" lon="-5.078380">
        <ele>891.598</ele>
        <time>2020-02-27T22:42:53Z</time>
      </trkpt>
      <trkpt lat="40.262400" lon="-5.078390">
        <ele>891.361</ele>
        <time>2020-02-27T22:43:13Z</time>
      </trkpt>
      <trkpt lat="40.262630" lon="-5.078390">
        <ele>890.140</ele>
        <time>2020-02-27T22:43:33Z</time>
      </trkpt>
      <trkpt lat="40.263160" lon="-5.078350">
        <ele>886.811</ele>
        <time>2020-02-27T22:43:53Z</time>
      </trkpt>
      <trkpt lat="40.263350" lon="-5.078320">
        <ele>886.228</ele>
        <time>2020-02-27T22:44:13Z</time>
      </trkpt>
      <trkpt lat="40.263650" lon="-5.078240">
        <ele>885.076</ele>
        <time>2020-02-27T22:44:33Z</time>
      </trkpt>
      <trkpt lat="40.263730" lon="-5.078210">
        <ele>884.590</ele>
        <time>2020-02-27T22:44:53Z</time>
      </trkpt>
      <trkpt lat="40.263780" lon="-5.078180">
        <ele>884.319</ele>
        <time>2020-02-27T22:45:13Z</time>
      </trkpt>
      <trkpt lat="40.263830" lon="-5.078160">
        <ele>883.908</ele>
        <time>2020-02-27T22:45:33Z</time>
      </trkpt>
      <trkpt lat="40.264050" lon="-5.077990">
        <ele>882.651</ele>
        <time>2020-02-27T22:45:53Z</time>
      </trkpt>
      <trkpt lat="40.264170" lon="-5.077860">
        <ele>882.154</ele>
        <time>2020-02-27T22:46:13Z</time>
      </trkpt>
      <trkpt lat="40.264310" lon="-5.077670">
        <ele>879.069</ele>
        <time>2020-02-27T22:46:33Z</time>
      </trkpt>
      <trkpt lat="40.264340" lon="-5.077610">
        <ele>878.450</ele>
        <time>2020-02-27T22:46:53Z</time>
      </trkpt>
      <trkpt lat="40.264420" lon="-5.077250">
        <ele>878.023</ele>
        <time>2020-02-27T22:47:13Z</time>
      </trkpt>
      <trkpt lat="40.264480" lon="-5.077080">
        <ele>877.592</ele>
        <time>2020-02-27T22:47:33Z</time>
      </trkpt>
      <trkpt lat="40.264520" lon="-5.077010">
        <ele>877.163</ele>
        <time>2020-02-27T22:47:53Z</time>
      </trkpt>
      <trkpt lat="40.264580" lon="-5.076950">
        <ele>876.040</ele>
        <time>2020-02-27T22:48:13Z</time>
      </trkpt>
      <trkpt lat="40.264610" lon="-5.076930">
        <ele>875.577</ele>
        <time>2020-02-27T22:48:33Z</time>
      </trkpt>
      <trkpt lat="40.264640" lon="-5.076900">
        <ele>875.261</ele>
        <time>2020-02-27T22:48:53Z</time>
      </trkpt>
      <trkpt lat="40.264710" lon="-5.076860">
        <ele>873.927</ele>
        <time>2020-02-27T22:49:13Z</time>
      </trkpt>
      <trkpt lat="40.264740" lon="-5.076860">
        <ele>873.608</ele>
        <time>2020-02-27T22:49:33Z</time>
      </trkpt>
      <trkpt lat="40.264760" lon="-5.076850">
        <ele>874.021</ele>
        <time>2020-02-27T22:49:53Z</time>
      </trkpt>
      <trkpt lat="40.264780" lon="-5.076850">
        <ele>874.154</ele>
        <time>2020-02-27T22:50:13Z</time>
      </trkpt>
      <trkpt lat="40.264790" lon="-5.076860">
        <ele>874.029</ele>
        <time>2020-02-27T22:50:33Z</time>
      </trkpt>
      <trkpt lat="40.264840" lon="-5.076860">
        <ele>874.490</ele>
        <time>2020-02-27T22:50:53Z</time>
      </trkpt>
      <trkpt lat="40.264870" lon="-5.076870">
        <ele>874.433</ele>
        <time>2020-02-27T22:51:13Z</time>
      </trkpt>
      <trkpt lat="40.264900" lon="-5.076900">
        <ele>874.142</ele>
        <time>2020-02-27T22:51:33Z</time>
      </trkpt>
      <trkpt lat="40.265030" lon="-5.077150">
        <ele>871.633</ele>
        <time>2020-02-27T22:51:53Z</time>
      </trkpt>
      <trkpt lat="40.265120" lon="-5.077290">
        <ele>870.890</ele>
        <time>2020-02-27T22:52:13Z</time>
      </trkpt>
      <trkpt lat="40.265190" lon="-5.077370">
        <ele>870.687</ele>
        <time>2020-02-27T22:52:33Z</time>
      </trkpt>
      <trkpt lat="40.265270" lon="-5.077440">
        <ele>870.942</ele>
        <time>2020-02-27T22:52:53Z</time>
      </trkpt>
      <trkpt lat="40.265390" lon="-5.077500">
        <ele>871.626</ele>
        <time>2020-02-27T22:53:13Z</time>
      </trkpt>
      <trkpt lat="40.265650" lon="-5.077540">
        <ele>873.008</ele>
        <time>2020-02-27T22:53:33Z</time>
      </trkpt>
      <trkpt lat="40.265940" lon="-5.077470">
        <ele>873.562</ele>
        <time>2020-02-27T22:53:53Z</time>
      </trkpt>
      <trkpt lat="40.266120" lon="-5.077410">
        <ele>872.815</ele>
        <time>2020-02-27T22:54:13Z</time>
      </trkpt>
      <trkpt lat="40.266880" lon="-5.077010">
        <ele>871.240</ele>
        <time>2020-02-27T22:54:33Z</time>
      </trkpt>
      <trkpt lat="40.266940" lon="-5.076990">
        <ele>870.131</ele>
        <time>2020-02-27T22:54:53Z</time>
      </trkpt>
      <trkpt lat="40.266990" lon="-5.076990">
        <ele>871.144</ele>
        <time>2020-02-27T22:55:13Z</time>
      </trkpt>
      <trkpt lat="40.267000" lon="-5.077000">
        <ele>871.483</ele>
        <time>2020-02-27T22:55:33Z</time>
      </trkpt>
      <trkpt lat="40.267020" lon="-5.077000">
        <ele>871.984</ele>
        <time>2020-02-27T22:55:53Z</time>
      </trkpt>
      <trkpt lat="40.267020" lon="-5.077010">
        <ele>871.991</ele>
        <time>2020-02-27T22:56:13Z</time>
      </trkpt>
      <trkpt lat="40.267040" lon="-5.077020">
        <ele>872.447</ele>
        <time>2020-02-27T22:56:33Z</time>
      </trkpt>
      <trkpt lat="40.267060" lon="-5.077040">
        <ele>872.929</ele>
        <time>2020-02-27T22:56:53Z</time>
      </trkpt>
      <trkpt lat="40.267080" lon="-5.077070">
        <ele>873.421</ele>
        <time>2020-02-27T22:57:13Z</time>
      </trkpt>
      <trkpt lat="40.267100" lon="-5.077080">
        <ele>873.908</ele>
        <time>2020-02-27T22:57:33Z</time>
      </trkpt>
      <trkpt lat="40.267100" lon="-5.077110">
        <ele>873.938</ele>
        <time>2020-02-27T22:57:53Z</time>
      </trkpt>
      <trkpt lat="40.267110" lon="-5.077140">
        <ele>874.261</ele>
        <time>2020-02-27T22:58:13Z</time>
      </trkpt>
      <trkpt lat="40.267110" lon="-5.077470">
        <ele>872.686</ele>
        <time>2020-02-27T22:58:33Z</time>
      </trkpt>
      <trkpt lat="40.267120" lon="-5.077570">
        <ele>871.967</ele>
        <time>2020-02-27T22:58:53Z</time>
      </trkpt>
      <trkpt lat="40.267140" lon="-5.077620">
        <ele>871.680</ele>
        <time>2020-02-27T22:59:13Z</time>
      </trkpt>
      <trkpt lat="40.267140" lon="-5.077660">
        <ele>871.399</ele>
        <time>2020-02-27T22:59:33Z</time>
      </trkpt>
      <trkpt lat="40.267170" lon="-5.077710">
        <ele>871.150</ele>
        <time>2020-02-27T22:59:53Z</time>
      </trkpt>
      <trkpt lat="40.267230" lon="-5.077750">
        <ele>871.367</ele>
        <time>2020-02-27T23:00:13Z</time>
      </trkpt>
      <trkpt lat="40.267570" lon="-5.077850">
        <ele>870.833</ele>
        <time>2020-02-27T23:00:33Z</time>
      </trkpt>
      <trkpt lat="40.267620" lon="-5.077880">
        <ele>871.023</ele>
        <time>2020-02-27T23:00:53Z</time>
      </trkpt>
      <trkpt lat="40.267680" lon="-5.077940">
        <ele>871.015</ele>
        <time>2020-02-27T23:01:13Z</time>
      </trkpt>
      <trkpt lat="40.268120" lon="-5.078620">
        <ele>870.308</ele>
        <time>2020-02-27T23:01:33Z</time>
      </trkpt>
      <trkpt lat="40.268520" lon="-5.079310">
        <ele>871.137</ele>
        <time>2020-02-27T23:01:53Z</time>
      </trkpt>
      <trkpt lat="40.268730" lon="-5.079750">
        <ele>868.030</ele>
        <time>2020-02-27T23:02:13Z</time>
      </trkpt>
      <trkpt lat="40.268820" lon="-5.079890">
        <ele>866.795</ele>
        <time>2020-02-27T23:02:33Z</time>
      </trkpt>
      <trkpt lat="40.268880" lon="-5.079950">
        <ele>866.126</ele>
        <time>2020-02-27T23:02:53Z</time>
      </trkpt>
      <trkpt lat="40.268980" lon="-5.080030">
        <ele>866.159</ele>
        <time>2020-02-27T23:03:13Z</time>
      </trkpt>
      <trkpt lat="40.269460" lon="-5.080340">
        <ele>868.178</ele>
        <time>2020-02-27T23:03:33Z</time>
      </trkpt>
      <trkpt lat="40.269670" lon="-5.080520">
        <ele>869.839</ele>
        <time>2020-02-27T23:03:53Z</time>
      </trkpt>
      <trkpt lat="40.269730" lon="-5.080640">
        <ele>870.316</ele>
        <time>2020-02-27T23:04:13Z</time>
      </trkpt>
      <trkpt lat="40.269780" lon="-5.080790">
        <ele>871.259</ele>
        <time>2020-02-27T23:04:33Z</time>
      </trkpt>
      <trkpt lat="40.269860" lon="-5.081360">
        <ele>870.503</ele>
        <time>2020-02-27T23:04:53Z</time>
      </trkpt>
      <trkpt lat="40.269880" lon="-5.081650">
        <ele>870.123</ele>
        <time>2020-02-27T23:05:13Z</time>
      </trkpt>
      <trkpt lat="40.269870" lon="-5.081680">
        <ele>870.508</ele>
        <time>2020-02-27T23:05:33Z</time>
      </trkpt>
      <trkpt lat="40.269870" lon="-5.081710">
        <ele>871.869</ele>
        <time>2020-02-27T23:05:53Z</time>
      </trkpt>
      <trkpt lat="40.269840" lon="-5.081750">
        <ele>873.512</ele>
        <time>2020-02-27T23:06:13Z</time>
      </trkpt>
      <trkpt lat="40.269800" lon="-5.081790">
        <ele>875.447</ele>
        <time>2020-02-27T23:06:33Z</time>
      </trkpt>
      <trkpt lat="40.269770" lon="-5.081810">
        <ele>876.488</ele>
        <time>2020-02-27T23:06:53Z</time>
      </trkpt>
      <trkpt lat="40.269730" lon="-5.081820">
        <ele>877.171</ele>
        <time>2020-02-27T23:07:13Z</time>
      </trkpt>
      <trkpt lat="40.269690" lon="-5.081820">
        <ele>878.170</ele>
        <time>2020-02-27T23:07:33Z</time>
      </trkpt>
      <trkpt lat="40.269620" lon="-5.081790">
        <ele>878.831</ele>
        <time>2020-02-27T23:07:53Z</time>
      </trkpt>
      <trkpt lat="40.269570" lon="-5.081740">
        <ele>878.328</ele>
        <time>2020-02-27T23:08:13Z</time>
      </trkpt>
      <trkpt lat="40.269410" lon="-5.081540">
        <ele>874.692</ele>
        <time>2020-02-27T23:08:33Z</time>
      </trkpt>
      <trkpt lat="40.269370" lon="-5.081510">
        <ele>873.573</ele>
        <time>2020-02-27T23:08:53Z</time>
      </trkpt>
      <trkpt lat="40.269360" lon="-5.081510">
        <ele>873.520</ele>
        <time>2020-02-27T23:09:13Z</time>
      </trkpt>
      <trkpt lat="40.269250" lon="-5.081480">
        <ele>872.908</ele>
        <time>2020-02-27T23:09:33Z</time>
      </trkpt>
      <trkpt lat="40.268860" lon="-5.081680">
        <ele>875.193</ele>
        <time>2020-02-27T23:09:53Z</time>
      </trkpt>
      <trkpt lat="40.268590" lon="-5.081860">
        <ele>876.846</ele>
        <time>2020-02-27T23:10:13Z</time>
      </trkpt>
      <trkpt lat="40.268440" lon="-5.081940">
        <ele>878.381</ele>
        <time>2020-02-27T23:10:33Z</time>
      </trkpt>
      <trkpt lat="40.268370" lon="-5.081960">
        <ele>878.712</ele>
        <time>2020-02-27T23:10:53Z</time>
      </trkpt>
      <trkpt lat="40.268260" lon="-5.081970">
        <ele>878.695</ele>
        <time>2020-02-27T23:11:13Z</time>
      </trkpt>
      <trkpt lat="40.268090" lon="-5.081960">
        <ele>877.734</ele>
        <time>2020-02-27T23:11:33Z</time>
      </trkpt>
      <trkpt lat="40.267810" lon="-5.081910">
        <ele>878.425</ele>
        <time>2020-02-27T23:11:53Z</time>
      </trkpt>
      <trkpt lat="40.267620" lon="-5.081940">
        <ele>879.872</ele>
        <time>2020-02-27T23:12:13Z</time>
      </trkpt>
      <trkpt lat="40.267480" lon="-5.082000">
        <ele>881.363</ele>
        <time>2020-02-27T23:12:33Z</time>
      </trkpt>
      <trkpt lat="40.267380" lon="-5.082060">
        <ele>881.444</ele>
        <time>2020-02-27T23:12:53Z</time>
      </trkpt>
      <trkpt lat="40.267190" lon="-5.082210">
        <ele>881.718</ele>
        <time>2020-02-27T23:13:13Z</time>
      </trkpt>
      <trkpt lat="40.267140" lon="-5.082260">
        <ele>881.008</ele>
        <time>2020-02-27T23:13:33Z</time>
      </trkpt>
      <trkpt lat="40.267050" lon="-5.082380">
        <ele>880.460</ele>
        <time>2020-02-27T23:13:53Z</time>
      </trkpt>
      <trkpt lat="40.266870" lon="-5.082760">
        <ele>881.173</ele>
        <time>2020-02-27T23:14:13Z</time>
      </trkpt>
      <trkpt lat="40.266820" lon="-5.083130">
        <ele>880.258</ele>
        <time>2020-02-27T23:14:33Z</time>
      </trkpt>
      <trkpt lat="40.266830" lon="-5.083250">
        <ele>880.139</ele>
        <time>2020-02-27T23:14:53Z</time>
      </trkpt>
      <trkpt lat="40.266850" lon="-5.083360">
        <ele>880.232</ele>
        <time>2020-02-27T23:15:13Z</time>
      </trkpt>
      <trkpt lat="40.266930" lon="-5.083550">
        <ele>881.951</ele>
        <time>2020-02-27T23:15:33Z</time>
      </trkpt>
      <trkpt lat="40.267060" lon="-5.083930">
        <ele>887.932</ele>
        <time>2020-02-27T23:15:53Z</time>
      </trkpt>
      <trkpt lat="40.266880" lon="-5.084020">
        <ele>887.329</ele>
        <time>2020-02-27T23:16:13Z</time>
      </trkpt>
      <trkpt lat="40.266820" lon="-5.084040">
        <ele>886.799</ele>
        <time>2020-02-27T23:16:33Z</time>
      </trkpt>
      <trkpt lat="40.266770" lon="-5.084070">
        <ele>886.507</ele>
        <time>2020-02-27T23:16:53Z</time>
      </trkpt>
      <trkpt lat="40.266740" lon="-5.084080">
        <ele>886.327</ele>
        <time>2020-02-27T23:17:13Z</time>
      </trkpt>
      <trkpt lat="40.266670" lon="-5.084120">
        <ele>886.008</ele>
        <time>2020-02-27T23:17:33Z</time>
      </trkpt>
      <trkpt lat="40.266590" lon="-5.084210">
        <ele>886.993</ele>
        <time>2020-02-27T23:17:53Z</time>
      </trkpt>
      <trkpt lat="40.266360" lon="-5.084640">
        <ele>889.826</ele>
        <time>2020-02-27T23:18:13Z</time>
      </trkpt>
      <trkpt lat="40.266330" lon="-5.084680">
        <ele>889.981</ele>
        <time>2020-02-27T23:18:33Z</time>
      </trkpt>
      <trkpt lat="40.266270" lon="-5.084810">
        <ele>890.252</ele>
        <time>2020-02-27T23:18:53Z</time>
      </trkpt>
      <trkpt lat="40.266200" lon="-5.084910">
        <ele>890.185</ele>
        <time>2020-02-27T23:19:13Z</time>
      </trkpt>
      <trkpt lat="40.266080" lon="-5.085050">
        <ele>889.884</ele>
        <time>2020-02-27T23:19:33Z</time>
      </trkpt>
      <trkpt lat="40.266040" lon="-5.085120">
        <ele>889.715</ele>
        <time>2020-02-27T23:19:53Z</time>
      </trkpt>
      <trkpt lat="40.266010" lon="-5.085200">
        <ele>889.622</ele>
        <time>2020-02-27T23:20:13Z</time>
      </trkpt>
      <trkpt lat="40.266000" lon="-5.085560">
        <ele>891.494</ele>
        <time>2020-02-27T23:20:33Z</time>
      </trkpt>
      <trkpt lat="40.266010" lon="-5.085580">
        <ele>891.657</ele>
        <time>2020-02-27T23:20:53Z</time>
      </trkpt>
      <trkpt lat="40.266010" lon="-5.085620">
        <ele>891.722</ele>
        <time>2020-02-27T23:21:13Z</time>
      </trkpt>
      <trkpt lat="40.266000" lon="-5.085660">
        <ele>891.608</ele>
        <time>2020-02-27T23:21:33Z</time>
      </trkpt>
      <trkpt lat="40.266000" lon="-5.085680">
        <ele>891.773</ele>
        <time>2020-02-27T23:21:53Z</time>
      </trkpt>
      <trkpt lat="40.265990" lon="-5.085710">
        <ele>891.656</ele>
        <time>2020-02-27T23:22:13Z</time>
      </trkpt>
      <trkpt lat="40.265990" lon="-5.085730">
        <ele>891.681</ele>
        <time>2020-02-27T23:22:33Z</time>
      </trkpt>
      <trkpt lat="40.265980" lon="-5.085740">
        <ele>891.532</ele>
        <time>2020-02-27T23:22:53Z</time>
      </trkpt>
      <trkpt lat="40.265980" lon="-5.085750">
        <ele>891.535</ele>
        <time>2020-02-27T23:23:13Z</time>
      </trkpt>
      <trkpt lat="40.265970" lon="-5.085760">
        <ele>891.394</ele>
        <time>2020-02-27T23:23:33Z</time>
      </trkpt>
      <trkpt lat="40.265970" lon="-5.085770">
        <ele>891.375</ele>
        <time>2020-02-27T23:23:53Z</time>
      </trkpt>
      <trkpt lat="40.265960" lon="-5.085780">
        <ele>891.262</ele>
        <time>2020-02-27T23:24:13Z</time>
      </trkpt>
      <trkpt lat="40.265960" lon="-5.085790">
        <ele>891.247</ele>
        <time>2020-02-27T23:24:33Z</time>
      </trkpt>
      <trkpt lat="40.265950" lon="-5.085790">
        <ele>891.029</ele>
        <time>2020-02-27T23:24:53Z</time>
      </trkpt>
      <trkpt lat="40.265920" lon="-5.085820">
        <ele>890.521</ele>
        <time>2020-02-27T23:25:13Z</time>
      </trkpt>
      <trkpt lat="40.266000" lon="-5.085980">
        <ele>892.508</ele>
        <time>2020-02-27T23:25:33Z</time>
      </trkpt>
      <trkpt lat="40.265810" lon="-5.086250">
        <ele>890.438</ele>
        <time>2020-02-27T23:25:53Z</time>
      </trkpt>
      <trkpt lat="40.265770" lon="-5.086340">
        <ele>890.631</ele>
        <time>2020-02-27T23:26:13Z</time>
      </trkpt>
      <trkpt lat="40.265720" lon="-5.086380">
        <ele>890.666</ele>
        <time>2020-02-27T23:26:33Z</time>
      </trkpt>
      <trkpt lat="40.265580" lon="-5.086460">
        <ele>890.197</ele>
        <time>2020-02-27T23:26:53Z</time>
      </trkpt>
      <trkpt lat="40.265460" lon="-5.086500">
        <ele>890.060</ele>
        <time>2020-02-27T23:27:13Z</time>
      </trkpt>
      <trkpt lat="40.265460" lon="-5.086550">
        <ele>890.039</ele>
        <time>2020-02-27T23:27:33Z</time>
      </trkpt>
      <trkpt lat="40.265440" lon="-5.086590">
        <ele>890.090</ele>
        <time>2020-02-27T23:27:53Z</time>
      </trkpt>
      <trkpt lat="40.265410" lon="-5.086690">
        <ele>890.017</ele>
        <time>2020-02-27T23:28:13Z</time>
      </trkpt>
      <trkpt lat="40.265400" lon="-5.086940">
        <ele>889.633</ele>
        <time>2020-02-27T23:28:33Z</time>
      </trkpt>
      <trkpt lat="40.265470" lon="-5.087350">
        <ele>888.623</ele>
        <time>2020-02-27T23:28:53Z</time>
      </trkpt>
      <trkpt lat="40.265410" lon="-5.087460">
        <ele>887.715</ele>
        <time>2020-02-27T23:29:13Z</time>
      </trkpt>
      <trkpt lat="40.265040" lon="-5.087750">
        <ele>882.608</ele>
        <time>2020-02-27T23:29:33Z</time>
      </trkpt>
      <trkpt lat="40.264990" lon="-5.087770">
        <ele>882.037</ele>
        <time>2020-02-27T23:29:53Z</time>
      </trkpt>
      <trkpt lat="40.264880" lon="-5.087790">
        <ele>881.190</ele>
        <time>2020-02-27T23:30:13Z</time>
      </trkpt>
      <trkpt lat="40.264730" lon="-5.087840">
        <ele>879.895</ele>
        <time>2020-02-27T23:30:33Z</time>
      </trkpt>
      <trkpt lat="40.264510" lon="-5.087890">
        <ele>879.076</ele>
        <time>2020-02-27T23:30:53Z</time>
      </trkpt>
      <trkpt lat="40.264340" lon="-5.087950">
        <ele>877.239</ele>
        <time>2020-02-27T23:31:13Z</time>
      </trkpt>
      <trkpt lat="40.264140" lon="-5.088070">
        <ele>874.398</ele>
        <time>2020-02-27T23:31:33Z</time>
      </trkpt>
      <trkpt lat="40.264060" lon="-5.088140">
        <ele>874.959</ele>
        <time>2020-02-27T23:31:53Z</time>
      </trkpt>
      <trkpt lat="40.263990" lon="-5.088240">
        <ele>874.896</ele>
        <time>2020-02-27T23:32:13Z</time>
      </trkpt>
      <trkpt lat="40.263910" lon="-5.088380">
        <ele>874.034</ele>
        <time>2020-02-27T23:32:33Z</time>
      </trkpt>
      <trkpt lat="40.263780" lon="-5.088560">
        <ele>873.155</ele>
        <time>2020-02-27T23:32:53Z</time>
      </trkpt>
      <trkpt lat="40.263700" lon="-5.088640">
        <ele>872.510</ele>
        <time>2020-02-27T23:33:13Z</time>
      </trkpt>
      <trkpt lat="40.263650" lon="-5.088680">
        <ele>872.208</ele>
        <time>2020-02-27T23:33:33Z</time>
      </trkpt>
      <trkpt lat="40.263520" lon="-5.088740">
        <ele>870.697</ele>
        <time>2020-02-27T23:33:53Z</time>
      </trkpt>
      <trkpt lat="40.263380" lon="-5.088740">
        <ele>869.670</ele>
        <time>2020-02-27T23:34:13Z</time>
      </trkpt>
      <trkpt lat="40.263350" lon="-5.088730">
        <ele>869.665</ele>
        <time>2020-02-27T23:34:33Z</time>
      </trkpt>
      <trkpt lat="40.263330" lon="-5.088710">
        <ele>869.816</ele>
        <time>2020-02-27T23:34:53Z</time>
      </trkpt>
      <trkpt lat="40.263310" lon="-5.088700">
        <ele>869.799</ele>
        <time>2020-02-27T23:35:13Z</time>
      </trkpt>
      <trkpt lat="40.263300" lon="-5.088700">
        <ele>869.668</ele>
        <time>2020-02-27T23:35:33Z</time>
      </trkpt>
      <trkpt lat="40.263280" lon="-5.088680">
        <ele>869.649</ele>
        <time>2020-02-27T23:35:53Z</time>
      </trkpt>
      <trkpt lat="40.263240" lon="-5.088660">
        <ele>869.496</ele>
        <time>2020-02-27T23:36:13Z</time>
      </trkpt>
      <trkpt lat="40.263200" lon="-5.088650">
        <ele>868.949</ele>
        <time>2020-02-27T23:36:33Z</time>
      </trkpt>
      <trkpt lat="40.263160" lon="-5.088650">
        <ele>868.202</ele>
        <time>2020-02-27T23:36:53Z</time>
      </trkpt>
      <trkpt lat="40.263120" lon="-5.088670">
        <ele>867.222</ele>
        <time>2020-02-27T23:37:13Z</time>
      </trkpt>
      <trkpt lat="40.263100" lon="-5.088690">
        <ele>866.608</ele>
        <time>2020-02-27T23:37:33Z</time>
      </trkpt>
      <trkpt lat="40.263100" lon="-5.088710">
        <ele>866.378</ele>
        <time>2020-02-27T23:37:53Z</time>
      </trkpt>
      <trkpt lat="40.263090" lon="-5.088730">
        <ele>865.851</ele>
        <time>2020-02-27T23:38:13Z</time>
      </trkpt>
      <trkpt lat="40.263090" lon="-5.088780">
        <ele>865.086</ele>
        <time>2020-02-27T23:38:33Z</time>
      </trkpt>
      <trkpt lat="40.263120" lon="-5.088830">
        <ele>864.677</ele>
        <time>2020-02-27T23:38:53Z</time>
      </trkpt>
      <trkpt lat="40.263140" lon="-5.088850">
        <ele>864.660</ele>
        <time>2020-02-27T23:39:13Z</time>
      </trkpt>
      <trkpt lat="40.263140" lon="-5.088860">
        <ele>864.449</ele>
        <time>2020-02-27T23:39:33Z</time>
      </trkpt>
      <trkpt lat="40.263240" lon="-5.088930">
        <ele>864.560</ele>
        <time>2020-02-27T23:39:53Z</time>
      </trkpt>
      <trkpt lat="40.263450" lon="-5.089020">
        <ele>864.847</ele>
        <time>2020-02-27T23:40:13Z</time>
      </trkpt>
      <trkpt lat="40.263870" lon="-5.089150">
        <ele>863.221</ele>
        <time>2020-02-27T23:40:33Z</time>
      </trkpt>
      <trkpt lat="40.263900" lon="-5.089170">
        <ele>863.141</ele>
        <time>2020-02-27T23:40:53Z</time>
      </trkpt>
      <trkpt lat="40.263950" lon="-5.089220">
        <ele>863.305</ele>
        <time>2020-02-27T23:41:13Z</time>
      </trkpt>
      <trkpt lat="40.264000" lon="-5.089330">
        <ele>863.108</ele>
        <time>2020-02-27T23:41:33Z</time>
      </trkpt>
      <trkpt lat="40.264030" lon="-5.089480">
        <ele>862.446</ele>
        <time>2020-02-27T23:41:53Z</time>
      </trkpt>
      <trkpt lat="40.264040" lon="-5.089810">
        <ele>861.919</ele>
        <time>2020-02-27T23:42:13Z</time>
      </trkpt>
      <trkpt lat="40.264010" lon="-5.089990">
        <ele>861.654</ele>
        <time>2020-02-27T23:42:33Z</time>
      </trkpt>
      <trkpt lat="40.264010" lon="-5.090020">
        <ele>861.635</ele>
        <time>2020-02-27T23:42:53Z</time>
      </trkpt>
      <trkpt lat="40.263990" lon="-5.090060">
        <ele>861.188</ele>
        <time>2020-02-27T23:43:13Z</time>
      </trkpt>
      <trkpt lat="40.263980" lon="-5.090100">
        <ele>860.877</ele>
        <time>2020-02-27T23:43:33Z</time>
      </trkpt>
      <trkpt lat="40.263880" lon="-5.090300">
        <ele>857.788</ele>
        <time>2020-02-27T23:43:53Z</time>
      </trkpt>
      <trkpt lat="40.263840" lon="-5.090410">
        <ele>856.395</ele>
        <time>2020-02-27T23:44:13Z</time>
      </trkpt>
      <trkpt lat="40.263810" lon="-5.090550">
        <ele>855.025</ele>
        <time>2020-02-27T23:44:33Z</time>
      </trkpt>
      <trkpt lat="40.263800" lon="-5.090880">
        <ele>854.026</ele>
        <time>2020-02-27T23:44:53Z</time>
      </trkpt>
      <trkpt lat="40.263790" lon="-5.090950">
        <ele>853.608</ele>
        <time>2020-02-27T23:45:13Z</time>
      </trkpt>
      <trkpt lat="40.263790" lon="-5.090990">
        <ele>853.508</ele>
        <time>2020-02-27T23:45:33Z</time>
      </trkpt>
      <trkpt lat="40.263770" lon="-5.091030">
        <ele>853.086</ele>
        <time>2020-02-27T23:45:53Z</time>
      </trkpt>
      <trkpt lat="40.263760" lon="-5.091100">
        <ele>852.789</ele>
        <time>2020-02-27T23:46:13Z</time>
      </trkpt>
      <trkpt lat="40.263660" lon="-5.091360">
        <ele>850.114</ele>
        <time>2020-02-27T23:46:33Z</time>
      </trkpt>
      <trkpt lat="40.263590" lon="-5.091610">
        <ele>848.555</ele>
        <time>2020-02-27T23:46:53Z</time>
      </trkpt>
      <trkpt lat="40.263560" lon="-5.091760">
        <ele>847.468</ele>
        <time>2020-02-27T23:47:13Z</time>
      </trkpt>
      <trkpt lat="40.263570" lon="-5.091870">
        <ele>847.297</ele>
        <time>2020-02-27T23:47:33Z</time>
      </trkpt>
      <trkpt lat="40.263570" lon="-5.092290">
        <ele>848.488</ele>
        <time>2020-02-27T23:47:53Z</time>
      </trkpt>
      <trkpt lat="40.263540" lon="-5.092390">
        <ele>848.215</ele>
        <time>2020-02-27T23:48:13Z</time>
      </trkpt>
      <trkpt lat="40.263500" lon="-5.092460">
        <ele>847.816</ele>
        <time>2020-02-27T23:48:33Z</time>
      </trkpt>
      <trkpt lat="40.263430" lon="-5.092540">
        <ele>847.076</ele>
        <time>2020-02-27T23:48:53Z</time>
      </trkpt>
      <trkpt lat="40.263360" lon="-5.092590">
        <ele>846.413</ele>
        <time>2020-02-27T23:49:13Z</time>
      </trkpt>
      <trkpt lat="40.263230" lon="-5.092620">
        <ele>847.208</ele>
        <time>2020-02-27T23:49:33Z</time>
      </trkpt>
      <trkpt lat="40.263200" lon="-5.092620">
        <ele>847.595</ele>
        <time>2020-02-27T23:49:53Z</time>
      </trkpt>
      <trkpt lat="40.263120" lon="-5.092590">
        <ele>847.818</ele>
        <time>2020-02-27T23:50:13Z</time>
      </trkpt>
      <trkpt lat="40.263070" lon="-5.092550">
        <ele>847.643</ele>
        <time>2020-02-27T23:50:33Z</time>
      </trkpt>
      <trkpt lat="40.262830" lon="-5.092220">
        <ele>844.274</ele>
        <time>2020-02-27T23:50:53Z</time>
      </trkpt>
      <trkpt lat="40.262770" lon="-5.092160">
        <ele>843.917</ele>
        <time>2020-02-27T23:51:13Z</time>
      </trkpt>
      <trkpt lat="40.262740" lon="-5.092120">
        <ele>843.296</ele>
        <time>2020-02-27T23:51:33Z</time>
      </trkpt>
      <trkpt lat="40.262700" lon="-5.092090">
        <ele>842.767</ele>
        <time>2020-02-27T23:51:53Z</time>
      </trkpt>
      <trkpt lat="40.262570" lon="-5.092030">
        <ele>842.364</ele>
        <time>2020-02-27T23:52:13Z</time>
      </trkpt>
      <trkpt lat="40.262370" lon="-5.091990">
        <ele>841.951</ele>
        <time>2020-02-27T23:52:33Z</time>
      </trkpt>
      <trkpt lat="40.262150" lon="-5.091990">
        <ele>840.601</ele>
        <time>2020-02-27T23:52:53Z</time>
      </trkpt>
      <trkpt lat="40.261830" lon="-5.092080">
        <ele>837.811</ele>
        <time>2020-02-27T23:53:13Z</time>
      </trkpt>
      <trkpt lat="40.261630" lon="-5.092180">
        <ele>836.108</ele>
        <time>2020-02-27T23:53:33Z</time>
      </trkpt>
      <trkpt lat="40.261550" lon="-5.092240">
        <ele>835.969</ele>
        <time>2020-02-27T23:53:53Z</time>
      </trkpt>
      <trkpt lat="40.261430" lon="-5.092360">
        <ele>835.912</ele>
        <time>2020-02-27T23:54:13Z</time>
      </trkpt>
      <trkpt lat="40.261190" lon="-5.092660">
        <ele>836.617</ele>
        <time>2020-02-27T23:54:33Z</time>
      </trkpt>
      <trkpt lat="40.260920" lon="-5.092920">
        <ele>835.858</ele>
        <time>2020-02-27T23:54:53Z</time>
      </trkpt>
      <trkpt lat="40.260650" lon="-5.093100">
        <ele>837.081</ele>
        <time>2020-02-27T23:55:13Z</time>
      </trkpt>
      <trkpt lat="40.260590" lon="-5.093120">
        <ele>837.350</ele>
        <time>2020-02-27T23:55:33Z</time>
      </trkpt>
      <trkpt lat="40.260550" lon="-5.093120">
        <ele>837.581</ele>
        <time>2020-02-27T23:55:53Z</time>
      </trkpt>
      <trkpt lat="40.260500" lon="-5.093110">
        <ele>837.948</ele>
        <time>2020-02-27T23:56:13Z</time>
      </trkpt>
      <trkpt lat="40.260420" lon="-5.093030">
        <ele>838.429</ele>
        <time>2020-02-27T23:56:33Z</time>
      </trkpt>
      <trkpt lat="40.260380" lon="-5.092940">
        <ele>838.600</ele>
        <time>2020-02-27T23:56:53Z</time>
      </trkpt>
      <trkpt lat="40.260350" lon="-5.092700">
        <ele>838.820</ele>
        <time>2020-02-27T23:57:13Z</time>
      </trkpt>
      <trkpt lat="40.260320" lon="-5.092170">
        <ele>838.908</ele>
        <time>2020-02-27T23:57:33Z</time>
      </trkpt>
      <trkpt lat="40.260250" lon="-5.091920">
        <ele>838.846</ele>
        <time>2020-02-27T23:57:53Z</time>
      </trkpt>
      <trkpt lat="40.260180" lon="-5.091810">
        <ele>839.849</ele>
        <time>2020-02-27T23:58:13Z</time>
      </trkpt>
      <trkpt lat="40.259960" lon="-5.091560">
        <ele>843.774</ele>
        <time>2020-02-27T23:58:33Z</time>
      </trkpt>
      <trkpt lat="40.259780" lon="-5.091380">
        <ele>844.355</ele>
        <time>2020-02-27T23:58:53Z</time>
      </trkpt>
      <trkpt lat="40.259610" lon="-5.091180">
        <ele>842.768</ele>
        <time>2020-02-27T23:59:13Z</time>
      </trkpt>
      <trkpt lat="40.259440" lon="-5.091030">
        <ele>843.037</ele>
        <time>2020-02-27T23:59:33Z</time>
      </trkpt>
      <trkpt lat="40.259400" lon="-5.091010">
        <ele>842.838</ele>
        <time>2020-02-27T23:59:53Z</time>
      </trkpt>
      <trkpt lat="40.259290" lon="-5.090980">
        <ele>842.845</ele>
        <time>2020-02-28T00:00:13Z</time>
      </trkpt>
      <trkpt lat="40.259160" lon="-5.090980">
        <ele>843.626</ele>
        <time>2020-02-28T00:00:33Z</time>
      </trkpt>
      <trkpt lat="40.259100" lon="-5.090990">
        <ele>843.447</ele>
        <time>2020-02-28T00:00:53Z</time>
      </trkpt>
      <trkpt lat="40.259070" lon="-5.090990">
        <ele>843.111</ele>
        <time>2020-02-28T00:01:13Z</time>
      </trkpt>
      <trkpt lat="40.258970" lon="-5.091010">
        <ele>842.808</ele>
        <time>2020-02-28T00:01:33Z</time>
      </trkpt>
      <trkpt lat="40.258590" lon="-5.091160">
        <ele>840.396</ele>
        <time>2020-02-28T00:01:53Z</time>
      </trkpt>
      <trkpt lat="40.258580" lon="-5.091170">
        <ele>840.579</ele>
        <time>2020-02-28T00:02:13Z</time>
      </trkpt>
      <trkpt lat="40.258420" lon="-5.091240">
        <ele>840.854</ele>
        <time>2020-02-28T00:02:33Z</time>
      </trkpt>
      <trkpt lat="40.258410" lon="-5.091240">
        <ele>840.735</ele>
        <time>2020-02-28T00:02:53Z</time>
      </trkpt>
      <trkpt lat="40.258180" lon="-5.091330">
        <ele>841.618</ele>
        <time>2020-02-28T00:03:13Z</time>
      </trkpt>
      <trkpt lat="40.258080" lon="-5.091350">
        <ele>841.837</ele>
        <time>2020-02-28T00:03:33Z</time>
      </trkpt>
      <trkpt lat="40.258040" lon="-5.091350">
        <ele>841.728</ele>
        <time>2020-02-28T00:03:53Z</time>
      </trkpt>
      <trkpt lat="40.257700" lon="-5.091280">
        <ele>839.165</ele>
        <time>2020-02-28T00:04:13Z</time>
      </trkpt>
      <trkpt lat="40.257530" lon="-5.091230">
        <ele>838.316</ele>
        <time>2020-02-28T00:04:33Z</time>
      </trkpt>
      <trkpt lat="40.257510" lon="-5.091230">
        <ele>838.476</ele>
        <time>2020-02-28T00:04:53Z</time>
      </trkpt>
      <trkpt lat="40.257180" lon="-5.091120">
        <ele>834.813</ele>
        <time>2020-02-28T00:05:13Z</time>
      </trkpt>
      <trkpt lat="40.256910" lon="-5.091060">
        <ele>830.608</ele>
        <time>2020-02-28T00:05:33Z</time>
      </trkpt>
      <trkpt lat="40.256840" lon="-5.091060">
        <ele>830.325</ele>
        <time>2020-02-28T00:05:53Z</time>
      </trkpt>
      <trkpt lat="40.256820" lon="-5.091050">
        <ele>830.088</ele>
        <time>2020-02-28T00:06:13Z</time>
      </trkpt>
      <trkpt lat="40.256790" lon="-5.091050">
        <ele>829.983</ele>
        <time>2020-02-28T00:06:33Z</time>
      </trkpt>
      <trkpt lat="40.256730" lon="-5.091060">
        <ele>829.914</ele>
        <time>2020-02-28T00:06:53Z</time>
      </trkpt>
      <trkpt lat="40.256620" lon="-5.091100">
        <ele>829.727</ele>
        <time>2020-02-28T00:07:13Z</time>
      </trkpt>
      <trkpt lat="40.256510" lon="-5.091160">
        <ele>828.386</ele>
        <time>2020-02-28T00:07:33Z</time>
      </trkpt>
      <trkpt lat="40.256400" lon="-5.091240">
        <ele>827.587</ele>
        <time>2020-02-28T00:07:53Z</time>
      </trkpt>
      <trkpt lat="40.256280" lon="-5.091380">
        <ele>825.254</ele>
        <time>2020-02-28T00:08:13Z</time>
      </trkpt>
      <trkpt lat="40.256230" lon="-5.091500">
        <ele>824.265</ele>
        <time>2020-02-28T00:08:33Z</time>
      </trkpt>
      <trkpt lat="40.256140" lon="-5.091990">
        <ele>826.568</ele>
        <time>2020-02-28T00:08:53Z</time>
      </trkpt>
      <trkpt lat="40.256040" lon="-5.092250">
        <ele>825.314</ele>
        <time>2020-02-28T00:09:13Z</time>
      </trkpt>
      <trkpt lat="40.255630" lon="-5.092980">
        <ele>821.308</ele>
        <time>2020-02-28T00:09:33Z</time>
      </trkpt>
      <trkpt lat="40.255560" lon="-5.093080">
        <ele>820.850</ele>
        <time>2020-02-28T00:09:53Z</time>
      </trkpt>
      <trkpt lat="40.255530" lon="-5.093110">
        <ele>820.713</ele>
        <time>2020-02-28T00:10:13Z</time>
      </trkpt>
      <trkpt lat="40.255510" lon="-5.093140">
        <ele>821.058</ele>
        <time>2020-02-28T00:10:33Z</time>
      </trkpt>
      <trkpt lat="40.255470" lon="-5.093170">
        <ele>820.979</ele>
        <time>2020-02-28T00:10:53Z</time>
      </trkpt>
      <trkpt lat="40.255430" lon="-5.093210">
        <ele>821.062</ele>
        <time>2020-02-28T00:11:13Z</time>
      </trkpt>
      <trkpt lat="40.255380" lon="-5.093240">
        <ele>820.661</ele>
        <time>2020-02-28T00:11:33Z</time>
      </trkpt>
      <trkpt lat="40.255320" lon="-5.093260">
        <ele>819.872</ele>
        <time>2020-02-28T00:11:53Z</time>
      </trkpt>
      <trkpt lat="40.255230" lon="-5.093270">
        <ele>818.139</ele>
        <time>2020-02-28T00:12:13Z</time>
      </trkpt>
      <trkpt lat="40.255090" lon="-5.093320">
        <ele>816.097</ele>
        <time>2020-02-28T00:12:33Z</time>
      </trkpt>
      <trkpt lat="40.255030" lon="-5.093360">
        <ele>815.223</ele>
        <time>2020-02-28T00:12:53Z</time>
      </trkpt>
      <trkpt lat="40.255020" lon="-5.093380">
        <ele>815.225</ele>
        <time>2020-02-28T00:13:13Z</time>
      </trkpt>
      <trkpt lat="40.254990" lon="-5.093410">
        <ele>814.708</ele>
        <time>2020-02-28T00:13:33Z</time>
      </trkpt>
      <trkpt lat="40.254940" lon="-5.093500">
        <ele>813.913</ele>
        <time>2020-02-28T00:13:53Z</time>
      </trkpt>
      <trkpt lat="40.254930" lon="-5.093550">
        <ele>814.286</ele>
        <time>2020-02-28T00:14:13Z</time>
      </trkpt>
      <trkpt lat="40.254910" lon="-5.093600">
        <ele>814.031</ele>
        <time>2020-02-28T00:14:33Z</time>
      </trkpt>
      <trkpt lat="40.254770" lon="-5.094100">
        <ele>814.772</ele>
        <time>2020-02-28T00:14:53Z</time>
      </trkpt>
      <trkpt lat="40.254740" lon="-5.094170">
        <ele>814.865</ele>
        <time>2020-02-28T00:15:13Z</time>
      </trkpt>
      <trkpt lat="40.254630" lon="-5.094280">
        <ele>814.424</ele>
        <time>2020-02-28T00:15:33Z</time>
      </trkpt>
      <trkpt lat="40.254560" lon="-5.094310">
        <ele>814.045</ele>
        <time>2020-02-28T00:15:53Z</time>
      </trkpt>
      <trkpt lat="40.254530" lon="-5.094330">
        <ele>814.192</ele>
        <time>2020-02-28T00:16:13Z</time>
      </trkpt>
      <trkpt lat="40.254470" lon="-5.094350">
        <ele>813.987</ele>
        <time>2020-02-28T00:16:33Z</time>
      </trkpt>
      <trkpt lat="40.254280" lon="-5.094350">
        <ele>813.442</ele>
        <time>2020-02-28T00:16:53Z</time>
      </trkpt>
      <trkpt lat="40.254020" lon="-5.094270">
        <ele>809.426</ele>
        <time>2020-02-28T00:17:13Z</time>
      </trkpt>
      <trkpt lat="40.253810" lon="-5.094260">
        <ele>807.308</ele>
        <time>2020-02-28T00:17:33Z</time>
      </trkpt>
      <trkpt lat="40.253670" lon="-5.094310">
        <ele>807.022</ele>
        <time>2020-02-28T00:17:53Z</time>
      </trkpt>
      <trkpt lat="40.253570" lon="-5.094360">
        <ele>806.325</ele>
        <time>2020-02-28T00:18:13Z</time>
      </trkpt>
      <trkpt lat="40.253510" lon="-5.094400">
        <ele>805.640</ele>
        <time>2020-02-28T00:18:33Z</time>
      </trkpt>
      <trkpt lat="40.253390" lon="-5.094500">
        <ele>804.061</ele>
        <time>2020-02-28T00:18:53Z</time>
      </trkpt>
      <trkpt lat="40.252210" lon="-5.095940">
        <ele>799.554</ele>
        <time>2020-02-28T00:19:13Z</time>
      </trkpt>
      <trkpt lat="40.252130" lon="-5.096060">
        <ele>798.863</ele>
        <time>2020-02-28T00:19:33Z</time>
      </trkpt>
      <trkpt lat="40.252080" lon="-5.096200">
        <ele>798.144</ele>
        <time>2020-02-28T00:19:53Z</time>
      </trkpt>
      <trkpt lat="40.252080" lon="-5.096390">
        <ele>797.451</ele>
        <time>2020-02-28T00:20:13Z</time>
      </trkpt>
      <trkpt lat="40.252120" lon="-5.096800">
        <ele>797.242</ele>
        <time>2020-02-28T00:20:33Z</time>
      </trkpt>
      <trkpt lat="40.252110" lon="-5.096870">
        <ele>797.122</ele>
        <time>2020-02-28T00:20:53Z</time>
      </trkpt>
      <trkpt lat="40.252110" lon="-5.096930">
        <ele>797.214</ele>
        <time>2020-02-28T00:21:13Z</time>
      </trkpt>
      <trkpt lat="40.252090" lon="-5.096980">
        <ele>797.708</ele>
        <time>2020-02-28T00:21:33Z</time>
      </trkpt>
      <trkpt lat="40.252080" lon="-5.097030">
        <ele>798.948</ele>
        <time>2020-02-28T00:21:53Z</time>
      </trkpt>
      <trkpt lat="40.252040" lon="-5.097130">
        <ele>800.371</ele>
        <time>2020-02-28T00:22:13Z</time>
      </trkpt>
      <trkpt lat="40.251950" lon="-5.097230">
        <ele>799.666</ele>
        <time>2020-02-28T00:22:33Z</time>
      </trkpt>
      <trkpt lat="40.251850" lon="-5.097280">
        <ele>799.927</ele>
        <time>2020-02-28T00:22:53Z</time>
      </trkpt>
      <trkpt lat="40.251480" lon="-5.097430">
        <ele>797.290</ele>
        <time>2020-02-28T00:23:13Z</time>
      </trkpt>
      <trkpt lat="40.250830" lon="-5.097910">
        <ele>792.749</ele>
        <time>2020-02-28T00:23:33Z</time>
      </trkpt>
      <trkpt lat="40.250740" lon="-5.098000">
        <ele>792.630</ele>
        <time>2020-02-28T00:23:53Z</time>
      </trkpt>
      <trkpt lat="40.250600" lon="-5.098260">
        <ele>791.947</ele>
        <time>2020-02-28T00:24:13Z</time>
      </trkpt>
      <trkpt lat="40.250550" lon="-5.098550">
        <ele>792.418</ele>
        <time>2020-02-28T00:24:33Z</time>
      </trkpt>
      <trkpt lat="40.250540" lon="-5.098670">
        <ele>793.098</ele>
        <time>2020-02-28T00:24:53Z</time>
      </trkpt>
      <trkpt lat="40.250530" lon="-5.098700">
        <ele>793.017</ele>
        <time>2020-02-28T00:25:13Z</time>
      </trkpt>
      <trkpt lat="40.250520" lon="-5.098780">
        <ele>793.308</ele>
        <time>2020-02-28T00:25:33Z</time>
      </trkpt>
      <trkpt lat="40.250440" lon="-5.099010">
        <ele>793.325</ele>
        <time>2020-02-28T00:25:53Z</time>
      </trkpt>
      <trkpt lat="40.250340" lon="-5.099140">
        <ele>792.888</ele>
        <time>2020-02-28T00:26:13Z</time>
      </trkpt>
      <trkpt lat="40.250290" lon="-5.099170">
        <ele>792.283</ele>
        <time>2020-02-28T00:26:33Z</time>
      </trkpt>
      <trkpt lat="40.250030" lon="-5.099370">
        <ele>789.654</ele>
        <time>2020-02-28T00:26:53Z</time>
      </trkpt>
      <trkpt lat="40.249930" lon="-5.099470">
        <ele>788.797</ele>
        <time>2020-02-28T00:27:13Z</time>
      </trkpt>
      <trkpt lat="40.249840" lon="-5.099620">
        <ele>787.176</ele>
        <time>2020-02-28T00:27:33Z</time>
      </trkpt>
      <trkpt lat="40.249810" lon="-5.099750">
        <ele>786.327</ele>
        <time>2020-02-28T00:27:53Z</time>
      </trkpt>
      <trkpt lat="40.249840" lon="-5.099950">
        <ele>785.284</ele>
        <time>2020-02-28T00:28:13Z</time>
      </trkpt>
      <trkpt lat="40.249860" lon="-5.099990">
        <ele>785.527</ele>
        <time>2020-02-28T00:28:33Z</time>
      </trkpt>
      <trkpt lat="40.249880" lon="-5.100050">
        <ele>785.168</ele>
        <time>2020-02-28T00:28:53Z</time>
      </trkpt>
      <trkpt lat="40.249990" lon="-5.100230">
        <ele>784.714</ele>
        <time>2020-02-28T00:29:13Z</time>
      </trkpt>
      <trkpt lat="40.250170" lon="-5.100430">
        <ele>783.508</ele>
        <time>2020-02-28T00:29:33Z</time>
      </trkpt>
      <trkpt lat="40.250270" lon="-5.100510">
        <ele>783.216</ele>
        <time>2020-02-28T00:29:53Z</time>
      </trkpt>
      <trkpt lat="40.250450" lon="-5.100600">
        <ele>781.619</ele>
        <time>2020-02-28T00:30:13Z</time>
      </trkpt>
      <trkpt lat="40.250500" lon="-5.100610">
        <ele>781.784</ele>
        <time>2020-02-28T00:30:33Z</time>
      </trkpt>
      <trkpt lat="40.250510" lon="-5.100620">
        <ele>781.565</ele>
        <time>2020-02-28T00:30:53Z</time>
      </trkpt>
      <trkpt lat="40.250600" lon="-5.100640">
        <ele>781.388</ele>
        <time>2020-02-28T00:31:13Z</time>
      </trkpt>
      <trkpt lat="40.250690" lon="-5.100670">
        <ele>780.597</ele>
        <time>2020-02-28T00:31:33Z</time>
      </trkpt>
      <trkpt lat="40.250750" lon="-5.100680">
        <ele>780.338</ele>
        <time>2020-02-28T00:31:53Z</time>
      </trkpt>
      <trkpt lat="40.250800" lon="-5.100700">
        <ele>779.895</ele>
        <time>2020-02-28T00:32:13Z</time>
      </trkpt>
      <trkpt lat="40.250850" lon="-5.100690">
        <ele>780.055</ele>
        <time>2020-02-28T00:32:33Z</time>
      </trkpt>
      <trkpt lat="40.250930" lon="-5.100690">
        <ele>779.407</ele>
        <time>2020-02-28T00:32:53Z</time>
      </trkpt>
      <trkpt lat="40.251000" lon="-5.100680">
        <ele>779.317</ele>
        <time>2020-02-28T00:33:13Z</time>
      </trkpt>
      <trkpt lat="40.251030" lon="-5.100670">
        <ele>779.408</ele>
        <time>2020-02-28T00:33:33Z</time>
      </trkpt>
      <trkpt lat="40.251090" lon="-5.100660">
        <ele>779.419</ele>
        <time>2020-02-28T00:33:53Z</time>
      </trkpt>
      <trkpt lat="40.251640" lon="-5.100500">
        <ele>775.672</ele>
        <time>2020-02-28T00:34:13Z</time>
      </trkpt>
      <trkpt lat="40.251650" lon="-5.100500">
        <ele>775.377</ele>
        <time>2020-02-28T00:34:33Z</time>
      </trkpt>
      <trkpt lat="40.252170" lon="-5.100320">
        <ele>773.098</ele>
        <time>2020-02-28T00:34:53Z</time>
      </trkpt>
      <trkpt lat="40.252180" lon="-5.100310">
        <ele>773.371</ele>
        <time>2020-02-28T00:35:13Z</time>
      </trkpt>
      <trkpt lat="40.252470" lon="-5.100190">
        <ele>773.020</ele>
        <time>2020-02-28T00:35:33Z</time>
      </trkpt>
      <trkpt lat="40.252610" lon="-5.100150">
        <ele>773.091</ele>
        <time>2020-02-28T00:35:53Z</time>
      </trkpt>
      <trkpt lat="40.252700" lon="-5.100140">
        <ele>772.548</ele>
        <time>2020-02-28T00:36:13Z</time>
      </trkpt>
      <trkpt lat="40.252730" lon="-5.100150">
        <ele>772.212</ele>
        <time>2020-02-28T00:36:33Z</time>
      </trkpt>
      <trkpt lat="40.252750" lon="-5.100150">
        <ele>772.032</ele>
        <time>2020-02-28T00:36:53Z</time>
      </trkpt>
      <trkpt lat="40.252780" lon="-5.100160">
        <ele>771.805</ele>
        <time>2020-02-28T00:37:13Z</time>
      </trkpt>
      <trkpt lat="40.252830" lon="-5.100210">
        <ele>772.308</ele>
        <time>2020-02-28T00:37:33Z</time>
      </trkpt>
      <trkpt lat="40.252840" lon="-5.100240">
        <ele>772.235</ele>
        <time>2020-02-28T00:37:53Z</time>
      </trkpt>
      <trkpt lat="40.252850" lon="-5.100240">
        <ele>772.528</ele>
        <time>2020-02-28T00:38:13Z</time>
      </trkpt>
      <trkpt lat="40.252860" lon="-5.100270">
        <ele>772.533</ele>
        <time>2020-02-28T00:38:33Z</time>
      </trkpt>
      <trkpt lat="40.252860" lon="-5.100370">
        <ele>773.134</ele>
        <time>2020-02-28T00:38:53Z</time>
      </trkpt>
      <trkpt lat="40.252850" lon="-5.100440">
        <ele>773.457</ele>
        <time>2020-02-28T00:39:13Z</time>
      </trkpt>
      <trkpt lat="40.252800" lon="-5.100620">
        <ele>773.446</ele>
        <time>2020-02-28T00:39:33Z</time>
      </trkpt>
      <trkpt lat="40.252550" lon="-5.101270">
        <ele>772.797</ele>
        <time>2020-02-28T00:39:53Z</time>
      </trkpt>
      <trkpt lat="40.252520" lon="-5.101320">
        <ele>772.164</ele>
        <time>2020-02-28T00:40:13Z</time>
      </trkpt>
      <trkpt lat="40.252440" lon="-5.101500">
        <ele>771.573</ele>
        <time>2020-02-28T00:40:33Z</time>
      </trkpt>
      <trkpt lat="40.252300" lon="-5.101760">
        <ele>770.285</ele>
        <time>2020-02-28T00:40:53Z</time>
      </trkpt>
      <trkpt lat="40.252160" lon="-5.101950">
        <ele>768.513</ele>
        <time>2020-02-28T00:41:13Z</time>
      </trkpt>
      <trkpt lat="40.252060" lon="-5.102110">
        <ele>767.508</ele>
        <time>2020-02-28T00:41:33Z</time>
      </trkpt>
      <trkpt lat="40.251890" lon="-5.102570">
        <ele>767.771</ele>
        <time>2020-02-28T00:41:53Z</time>
      </trkpt>
      <trkpt lat="40.251860" lon="-5.102700">
        <ele>766.924</ele>
        <time>2020-02-28T00:42:13Z</time>
      </trkpt>
      <trkpt lat="40.251820" lon="-5.102820">
        <ele>766.499</ele>
        <time>2020-02-28T00:42:33Z</time>
      </trkpt>
      <trkpt lat="40.251780" lon="-5.102910">
        <ele>766.130</ele>
        <time>2020-02-28T00:42:53Z</time>
      </trkpt>
      <trkpt lat="40.251760" lon="-5.102940">
        <ele>765.993</ele>
        <time>2020-02-28T00:43:13Z</time>
      </trkpt>
      <trkpt lat="40.251700" lon="-5.103000">
        <ele>765.352</ele>
        <time>2020-02-28T00:43:33Z</time>
      </trkpt>
      <trkpt lat="40.251610" lon="-5.103040">
        <ele>763.713</ele>
        <time>2020-02-28T00:43:53Z</time>
      </trkpt>
      <trkpt lat="40.251090" lon="-5.103080">
        <ele>756.820</ele>
        <time>2020-02-28T00:44:13Z</time>
      </trkpt>
      <trkpt lat="40.251030" lon="-5.103100">
        <ele>756.272</ele>
        <time>2020-02-28T00:44:33Z</time>
      </trkpt>
      <trkpt lat="40.250940" lon="-5.103170">
        <ele>755.413</ele>
        <time>2020-02-28T00:44:53Z</time>
      </trkpt>
      <trkpt lat="40.250860" lon="-5.103260">
        <ele>755.014</ele>
        <time>2020-02-28T00:45:13Z</time>
      </trkpt>
      <trkpt lat="40.250680" lon="-5.103400">
        <ele>754.208</ele>
        <time>2020-02-28T00:45:33Z</time>
      </trkpt>
      <trkpt lat="40.250660" lon="-5.103400">
        <ele>754.051</ele>
        <time>2020-02-28T00:45:53Z</time>
      </trkpt>
      <trkpt lat="40.250630" lon="-5.103420">
        <ele>754.094</ele>
        <time>2020-02-28T00:46:13Z</time>
      </trkpt>
      <trkpt lat="40.250530" lon="-5.103410">
        <ele>752.869</ele>
        <time>2020-02-28T00:46:33Z</time>
      </trkpt>
      <trkpt lat="40.250470" lon="-5.103390">
        <ele>751.860</ele>
        <time>2020-02-28T00:46:53Z</time>
      </trkpt>
      <trkpt lat="40.250450" lon="-5.103350">
        <ele>751.163</ele>
        <time>2020-02-28T00:47:13Z</time>
      </trkpt>
      <trkpt lat="40.250390" lon="-5.103290">
        <ele>750.112</ele>
        <time>2020-02-28T00:47:33Z</time>
      </trkpt>
      <trkpt lat="40.250110" lon="-5.103130">
        <ele>746.273</ele>
        <time>2020-02-28T00:47:53Z</time>
      </trkpt>
      <trkpt lat="40.249920" lon="-5.102960">
        <ele>742.540</ele>
        <time>2020-02-28T00:48:13Z</time>
      </trkpt>
      <trkpt lat="40.249710" lon="-5.102800">
        <ele>740.211</ele>
        <time>2020-02-28T00:48:33Z</time>
      </trkpt>
      <trkpt lat="40.249640" lon="-5.102770">
        <ele>740.021</ele>
        <time>2020-02-28T00:48:53Z</time>
      </trkpt>
      <trkpt lat="40.249570" lon="-5.102750">
        <ele>739.903</ele>
        <time>2020-02-28T00:49:13Z</time>
      </trkpt>
      <trkpt lat="40.249530" lon="-5.102750">
        <ele>739.908</ele>
        <time>2020-02-28T00:49:33Z</time>
      </trkpt>
      <trkpt lat="40.249440" lon="-5.102790">
        <ele>740.075</ele>
        <time>2020-02-28T00:49:53Z</time>
      </trkpt>
      <trkpt lat="40.249240" lon="-5.102980">
        <ele>737.098</ele>
        <time>2020-02-28T00:50:13Z</time>
      </trkpt>
      <trkpt lat="40.249010" lon="-5.103330">
        <ele>734.643</ele>
        <time>2020-02-28T00:50:33Z</time>
      </trkpt>
      <trkpt lat="40.249000" lon="-5.103340">
        <ele>734.464</ele>
        <time>2020-02-28T00:50:53Z</time>
      </trkpt>
      <trkpt lat="40.248920" lon="-5.103380">
        <ele>733.027</ele>
        <time>2020-02-28T00:51:13Z</time>
      </trkpt>
      <trkpt lat="40.248860" lon="-5.103380">
        <ele>732.976</ele>
        <time>2020-02-28T00:51:33Z</time>
      </trkpt>
      <trkpt lat="40.248780" lon="-5.103340">
        <ele>734.047</ele>
        <time>2020-02-28T00:51:53Z</time>
      </trkpt>
      <trkpt lat="40.248760" lon="-5.103310">
        <ele>734.234</ele>
        <time>2020-02-28T00:52:13Z</time>
      </trkpt>
      <trkpt lat="40.248720" lon="-5.103190">
        <ele>734.023</ele>
        <time>2020-02-28T00:52:33Z</time>
      </trkpt>
      <trkpt lat="40.248660" lon="-5.102860">
        <ele>732.883</ele>
        <time>2020-02-28T00:52:53Z</time>
      </trkpt>
      <trkpt lat="40.248650" lon="-5.102660">
        <ele>731.711</ele>
        <time>2020-02-28T00:53:13Z</time>
      </trkpt>
      <trkpt lat="40.248660" lon="-5.102540">
        <ele>730.708</ele>
        <time>2020-02-28T00:53:33Z</time>
      </trkpt>
      <trkpt lat="40.248650" lon="-5.102300">
        <ele>729.996</ele>
        <time>2020-02-28T00:53:53Z</time>
      </trkpt>
      <trkpt lat="40.248610" lon="-5.102030">
        <ele>727.349</ele>
        <time>2020-02-28T00:54:13Z</time>
      </trkpt>
      <trkpt lat="40.248430" lon="-5.101550">
        <ele>729.864</ele>
        <time>2020-02-28T00:54:33Z</time>
      </trkpt>
      <trkpt lat="40.248420" lon="-5.101540">
        <ele>730.285</ele>
        <time>2020-02-28T00:54:53Z</time>
      </trkpt>
      <trkpt lat="40.248250" lon="-5.101240">
        <ele>730.238</ele>
        <time>2020-02-28T00:55:13Z</time>
      </trkpt>
      <trkpt lat="40.248100" lon="-5.101040">
        <ele>730.517</ele>
        <time>2020-02-28T00:55:33Z</time>
      </trkpt>
      <trkpt lat="40.247630" lon="-5.100590">
        <ele>730.698</ele>
        <time>2020-02-28T00:55:53Z</time>
      </trkpt>
      <trkpt lat="40.247590" lon="-5.100560">
        <ele>730.915</ele>
        <time>2020-02-28T00:56:13Z</time>
      </trkpt>
      <trkpt lat="40.247370" lon="-5.100320">
        <ele>731.146</ele>
        <time>2020-02-28T00:56:33Z</time>
      </trkpt>
      <trkpt lat="40.247350" lon="-5.100280">
        <ele>730.688</ele>
        <time>2020-02-28T00:56:53Z</time>
      </trkpt>
      <trkpt lat="40.247290" lon="-5.100200">
        <ele>730.816</ele>
        <time>2020-02-28T00:57:13Z</time>
      </trkpt>
      <trkpt lat="40.247170" lon="-5.099930">
        <ele>728.808</ele>
        <time>2020-02-28T00:57:33Z</time>
      </trkpt>
      <trkpt lat="40.247110" lon="-5.099720">
        <ele>725.678</ele>
        <time>2020-02-28T00:57:53Z</time>
      </trkpt>
      <trkpt lat="40.246010" lon="-5.097170">
        <ele>713.841</ele>
        <time>2020-02-28T00:58:13Z</time>
      </trkpt>
      <trkpt lat="40.245910" lon="-5.096880">
        <ele>713.736</ele>
        <time>2020-02-28T00:58:33Z</time>
      </trkpt>
      <trkpt lat="40.245900" lon="-5.096650">
        <ele>712.977</ele>
        <time>2020-02-28T00:58:53Z</time>
      </trkpt>
      <trkpt lat="40.245930" lon="-5.096420">
        <ele>710.810</ele>
        <time>2020-02-28T00:59:13Z</time>
      </trkpt>
      <trkpt lat="40.245940" lon="-5.096390">
        <ele>710.519</ele>
        <time>2020-02-28T00:59:33Z</time>
      </trkpt>
      <trkpt lat="40.245960" lon="-5.096220">
        <ele>709.090</ele>
        <time>2020-02-28T00:59:53Z</time>
      </trkpt>
      <trkpt lat="40.245960" lon="-5.096110">
        <ele>708.337</ele>
        <time>2020-02-28T01:00:13Z</time>
      </trkpt>
      <trkpt lat="40.245940" lon="-5.095950">
        <ele>707.975</ele>
        <time>2020-02-28T01:00:33Z</time>
      </trkpt>
      <trkpt lat="40.245870" lon="-5.095770">
        <ele>708.028</ele>
        <time>2020-02-28T01:00:53Z</time>
      </trkpt>
      <trkpt lat="40.245840" lon="-5.095720">
        <ele>707.820</ele>
        <time>2020-02-28T01:01:13Z</time>
      </trkpt>
      <trkpt lat="40.245800" lon="-5.095670">
        <ele>707.308</ele>
        <time>2020-02-28T01:01:33Z</time>
      </trkpt>
      <trkpt lat="40.245700" lon="-5.095580">
        <ele>706.851</ele>
        <time>2020-02-28T01:01:53Z</time>
      </trkpt>
      <trkpt lat="40.245580" lon="-5.095510">
        <ele>706.834</ele>
        <time>2020-02-28T01:02:13Z</time>
      </trkpt>
      <trkpt lat="40.245430" lon="-5.095460">
        <ele>706.859</ele>
        <time>2020-02-28T01:02:33Z</time>
      </trkpt>
      <trkpt lat="40.245300" lon="-5.095400">
        <ele>706.560</ele>
        <time>2020-02-28T01:02:53Z</time>
      </trkpt>
      <trkpt lat="40.245130" lon="-5.095340">
        <ele>705.983</ele>
        <time>2020-02-28T01:03:13Z</time>
      </trkpt>
      <trkpt lat="40.244960" lon="-5.095220">
        <ele>703.962</ele>
        <time>2020-02-28T01:03:33Z</time>
      </trkpt>
      <trkpt lat="40.244890" lon="-5.095150">
        <ele>702.613</ele>
        <time>2020-02-28T01:03:53Z</time>
      </trkpt>
      <trkpt lat="40.244600" lon="-5.094760">
        <ele>697.910</ele>
        <time>2020-02-28T01:04:13Z</time>
      </trkpt>
      <trkpt lat="40.244490" lon="-5.094580">
        <ele>696.777</ele>
        <time>2020-02-28T01:04:33Z</time>
      </trkpt>
      <trkpt lat="40.244040" lon="-5.093960">
        <ele>691.461</ele>
        <time>2020-02-28T01:04:53Z</time>
      </trkpt>
      <trkpt lat="40.243960" lon="-5.093880">
        <ele>690.427</ele>
        <time>2020-02-28T01:05:13Z</time>
      </trkpt>
      <trkpt lat="40.243800" lon="-5.093790">
        <ele>689.908</ele>
        <time>2020-02-28T01:05:33Z</time>
      </trkpt>
      <trkpt lat="40.243720" lon="-5.093760">
        <ele>689.551</ele>
        <time>2020-02-28T01:05:53Z</time>
      </trkpt>
      <trkpt lat="40.243570" lon="-5.093730">
        <ele>689.074</ele>
        <time>2020-02-28T01:06:13Z</time>
      </trkpt>
      <trkpt lat="40.243410" lon="-5.093730">
        <ele>689.089</ele>
        <time>2020-02-28T01:06:33Z</time>
      </trkpt>
      <trkpt lat="40.243350" lon="-5.093740">
        <ele>689.280</ele>
        <time>2020-02-28T01:06:53Z</time>
      </trkpt>
      <trkpt lat="40.243320" lon="-5.093740">
        <ele>689.113</ele>
        <time>2020-02-28T01:07:13Z</time>
      </trkpt>
      <trkpt lat="40.243170" lon="-5.093780">
        <ele>688.932</ele>
        <time>2020-02-28T01:07:33Z</time>
      </trkpt>
      <trkpt lat="40.242820" lon="-5.093940">
        <ele>686.523</ele>
        <time>2020-02-28T01:07:53Z</time>
      </trkpt>
      <trkpt lat="40.242580" lon="-5.094070">
        <ele>684.720</ele>
        <time>2020-02-28T01:08:13Z</time>
      </trkpt>
      <trkpt lat="40.242350" lon="-5.094230">
        <ele>683.671</ele>
        <time>2020-02-28T01:08:33Z</time>
      </trkpt>
      <trkpt lat="40.242220" lon="-5.094340">
        <ele>683.141</ele>
        <time>2020-02-28T01:08:53Z</time>
      </trkpt>
      <trkpt lat="40.242120" lon="-5.094450">
        <ele>682.515</ele>
        <time>2020-02-28T01:09:13Z</time>
      </trkpt>
      <trkpt lat="40.241900" lon="-5.094780">
        <ele>681.408</ele>
        <time>2020-02-28T01:09:33Z</time>
      </trkpt>
      <trkpt lat="40.241880" lon="-5.094820">
        <ele>681.921</ele>
        <time>2020-02-28T01:09:53Z</time>
      </trkpt>
      <trkpt lat="40.241800" lon="-5.094920">
        <ele>682.994</ele>
        <time>2020-02-28T01:10:13Z</time>
      </trkpt>
      <trkpt lat="40.241770" lon="-5.094930">
        <ele>682.799</ele>
        <time>2020-02-28T01:10:33Z</time>
      </trkpt>
      <trkpt lat="40.241720" lon="-5.094960">
        <ele>682.720</ele>
        <time>2020-02-28T01:10:53Z</time>
      </trkpt>
      <trkpt lat="40.241580" lon="-5.094950">
        <ele>680.923</ele>
        <time>2020-02-28T01:11:13Z</time>
      </trkpt>
      <trkpt lat="40.241500" lon="-5.094930">
        <ele>679.612</ele>
        <time>2020-02-28T01:11:33Z</time>
      </trkpt>
      <trkpt lat="40.241420" lon="-5.094900">
        <ele>678.053</ele>
        <time>2020-02-28T01:11:53Z</time>
      </trkpt>
      <trkpt lat="40.241380" lon="-5.094900">
        <ele>677.730</ele>
        <time>2020-02-28T01:12:13Z</time>
      </trkpt>
      <trkpt lat="40.241330" lon="-5.094890">
        <ele>676.979</ele>
        <time>2020-02-28T01:12:33Z</time>
      </trkpt>
      <trkpt lat="40.241230" lon="-5.094890">
        <ele>676.105</ele>
        <time>2020-02-28T01:12:53Z</time>
      </trkpt>
      <trkpt lat="40.241130" lon="-5.094920">
        <ele>676.325</ele>
        <time>2020-02-28T01:13:13Z</time>
      </trkpt>
      <trkpt lat="40.241060" lon="-5.094950">
        <ele>676.108</ele>
        <time>2020-02-28T01:13:33Z</time>
      </trkpt>
      <trkpt lat="40.240840" lon="-5.095090">
        <ele>675.781</ele>
        <time>2020-02-28T01:13:53Z</time>
      </trkpt>
      <trkpt lat="40.240660" lon="-5.095320">
        <ele>677.414</ele>
        <time>2020-02-28T01:14:13Z</time>
      </trkpt>
      <trkpt lat="40.240380" lon="-5.095750">
        <ele>679.259</ele>
        <time>2020-02-28T01:14:33Z</time>
      </trkpt>
      <trkpt lat="40.240270" lon="-5.095870">
        <ele>679.710</ele>
        <time>2020-02-28T01:14:53Z</time>
      </trkpt>
      <trkpt lat="40.240210" lon="-5.095910">
        <ele>680.353</ele>
        <time>2020-02-28T01:15:13Z</time>
      </trkpt>
      <trkpt lat="40.240150" lon="-5.095910">
        <ele>680.312</ele>
        <time>2020-02-28T01:15:33Z</time>
      </trkpt>
      <trkpt lat="40.240090" lon="-5.095880">
        <ele>679.773</ele>
        <time>2020-02-28T01:15:53Z</time>
      </trkpt>
      <trkpt lat="40.240030" lon="-5.095770">
        <ele>677.770</ele>
        <time>2020-02-28T01:16:13Z</time>
      </trkpt>
      <trkpt lat="40.240010" lon="-5.095700">
        <ele>676.178</ele>
        <time>2020-02-28T01:16:33Z</time>
      </trkpt>
      <trkpt lat="40.240010" lon="-5.095540">
        <ele>672.933</ele>
        <time>2020-02-28T01:16:53Z</time>
      </trkpt>
      <trkpt lat="40.240030" lon="-5.095390">
        <ele>671.126</ele>
        <time>2020-02-28T01:17:13Z</time>
      </trkpt>
      <trkpt lat="40.240040" lon="-5.095100">
        <ele>668.508</ele>
        <time>2020-02-28T01:17:33Z</time>
      </trkpt>
      <trkpt lat="40.240030" lon="-5.095070">
        <ele>668.641</ele>
        <time>2020-02-28T01:17:53Z</time>
      </trkpt>
      <trkpt lat="40.240030" lon="-5.094980">
        <ele>668.024</ele>
        <time>2020-02-28T01:18:13Z</time>
      </trkpt>
      <trkpt lat="40.239990" lon="-5.094590">
        <ele>667.589</ele>
        <time>2020-02-28T01:18:33Z</time>
      </trkpt>
      <trkpt lat="40.239990" lon="-5.094060">
        <ele>663.650</ele>
        <time>2020-02-28T01:18:53Z</time>
      </trkpt>
      <trkpt lat="40.239970" lon="-5.093930">
        <ele>663.373</ele>
        <time>2020-02-28T01:19:13Z</time>
      </trkpt>
      <trkpt lat="40.239910" lon="-5.093740">
        <ele>663.512</ele>
        <time>2020-02-28T01:19:33Z</time>
      </trkpt>
      <trkpt lat="40.239740" lon="-5.093470">
        <ele>663.953</ele>
        <time>2020-02-28T01:19:53Z</time>
      </trkpt>
      <trkpt lat="40.239550" lon="-5.093220">
        <ele>664.560</ele>
        <time>2020-02-28T01:20:13Z</time>
      </trkpt>
      <trkpt lat="40.239370" lon="-5.093030">
        <ele>663.844</ele>
        <time>2020-02-28T01:20:33Z</time>
      </trkpt>
      <trkpt lat="40.239180" lon="-5.092910">
        <ele>662.205</ele>
        <time>2020-02-28T01:20:53Z</time>
      </trkpt>
      <trkpt lat="40.239120" lon="-5.092890">
        <ele>661.515</ele>
        <time>2020-02-28T01:21:13Z</time>
      </trkpt>
      <trkpt lat="40.239020" lon="-5.092880">
        <ele>660.508</ele>
        <time>2020-02-28T01:21:33Z</time>
      </trkpt>
      <trkpt lat="40.238960" lon="-5.092890">
        <ele>660.258</ele>
        <time>2020-02-28T01:21:53Z</time>
      </trkpt>
      <trkpt lat="40.238830" lon="-5.092940">
        <ele>659.271</ele>
        <time>2020-02-28T01:22:13Z</time>
      </trkpt>
      <trkpt lat="40.238610" lon="-5.093090">
        <ele>656.256</ele>
        <time>2020-02-28T01:22:33Z</time>
      </trkpt>
      <trkpt lat="40.238570" lon="-5.093140">
        <ele>655.337</ele>
        <time>2020-02-28T01:22:53Z</time>
      </trkpt>
      <trkpt lat="40.238540" lon="-5.093160">
        <ele>654.480</ele>
        <time>2020-02-28T01:23:13Z</time>
      </trkpt>
      <trkpt lat="40.238470" lon="-5.093240">
        <ele>652.899</ele>
        <time>2020-02-28T01:23:33Z</time>
      </trkpt>
      <trkpt lat="40.238240" lon="-5.093550">
        <ele>649.760</ele>
        <time>2020-02-28T01:23:53Z</time>
      </trkpt>
      <trkpt lat="40.238070" lon="-5.093710">
        <ele>648.377</ele>
        <time>2020-02-28T01:24:13Z</time>
      </trkpt>
      <trkpt lat="40.237250" lon="-5.094250">
        <ele>641.861</ele>
        <time>2020-02-28T01:24:33Z</time>
      </trkpt>
      <trkpt lat="40.237230" lon="-5.094250">
        <ele>641.321</ele>
        <time>2020-02-28T01:24:53Z</time>
      </trkpt>
      <trkpt lat="40.236720" lon="-5.094630">
        <ele>638.113</ele>
        <time>2020-02-28T01:25:13Z</time>
      </trkpt>
      <trkpt lat="40.236100" lon="-5.094930">
        <ele>632.608</ele>
        <time>2020-02-28T01:25:33Z</time>
      </trkpt>
      <trkpt lat="40.236090" lon="-5.094930">
        <ele>632.420</ele>
        <time>2020-02-28T01:25:53Z</time>
      </trkpt>
      <trkpt lat="40.235920" lon="-5.095010">
        <ele>632.573</ele>
        <time>2020-02-28T01:26:13Z</time>
      </trkpt>
      <trkpt lat="40.235730" lon="-5.095080">
        <ele>632.518</ele>
        <time>2020-02-28T01:26:33Z</time>
      </trkpt>
      <trkpt lat="40.235670" lon="-5.095080">
        <ele>632.029</ele>
        <time>2020-02-28T01:26:53Z</time>
      </trkpt>
      <trkpt lat="40.235620" lon="-5.095090">
        <ele>631.872</ele>
        <time>2020-02-28T01:27:13Z</time>
      </trkpt>
      <trkpt lat="40.235530" lon="-5.095070">
        <ele>630.991</ele>
        <time>2020-02-28T01:27:33Z</time>
      </trkpt>
      <trkpt lat="40.234910" lon="-5.094670">
        <ele>622.812</ele>
        <time>2020-02-28T01:27:53Z</time>
      </trkpt>
      <trkpt lat="40.234490" lon="-5.094430">
        <ele>616.559</ele>
        <time>2020-02-28T01:28:13Z</time>
      </trkpt>
      <trkpt lat="40.234450" lon="-5.094420">
        <ele>616.138</ele>
        <time>2020-02-28T01:28:33Z</time>
      </trkpt>
      <trkpt lat="40.234290" lon="-5.094420">
        <ele>614.670</ele>
        <time>2020-02-28T01:28:53Z</time>
      </trkpt>
      <trkpt lat="40.234150" lon="-5.094450">
        <ele>613.817</ele>
        <time>2020-02-28T01:29:13Z</time>
      </trkpt>
      <trkpt lat="40.231660" lon="-5.095520">
        <ele>589.308</ele>
        <time>2020-02-28T01:29:33Z</time>
      </trkpt>
      <trkpt lat="40.231040" lon="-5.095810">
        <ele>588.227</ele>
        <time>2020-02-28T01:29:53Z</time>
      </trkpt>
      <trkpt lat="40.230420" lon="-5.096020">
        <ele>586.760</ele>
        <time>2020-02-28T01:30:13Z</time>
      </trkpt>
      <trkpt lat="40.229730" lon="-5.096120">
        <ele>585.155</ele>
        <time>2020-02-28T01:30:33Z</time>
      </trkpt>
      <trkpt lat="40.229300" lon="-5.096290">
        <ele>584.296</ele>
        <time>2020-02-28T01:30:53Z</time>
      </trkpt>
      <trkpt lat="40.228640" lon="-5.096680">
        <ele>579.869</ele>
        <time>2020-02-28T01:31:13Z</time>
      </trkpt>
      <trkpt lat="40.228160" lon="-5.097050">
        <ele>577.998</ele>
        <time>2020-02-28T01:31:33Z</time>
      </trkpt>
      <trkpt lat="40.227410" lon="-5.097820">
        <ele>576.129</ele>
        <time>2020-02-28T01:31:53Z</time>
      </trkpt>
      <trkpt lat="40.227050" lon="-5.098150">
        <ele>575.856</ele>
        <time>2020-02-28T01:32:13Z</time>
      </trkpt>
      <trkpt lat="40.226910" lon="-5.098190">
        <ele>574.544</ele>
        <time>2020-02-28T01:32:33Z</time>
      </trkpt>
      <trkpt lat="40.226770" lon="-5.098210">
        <ele>573.205</ele>
        <time>2020-02-28T01:32:53Z</time>
      </trkpt>
      <trkpt lat="40.226740" lon="-5.098210">
        <ele>572.815</ele>
        <time>2020-02-28T01:33:13Z</time>
      </trkpt>
      <trkpt lat="40.226410" lon="-5.098280">
        <ele>570.908</ele>
        <time>2020-02-28T01:33:33Z</time>
      </trkpt>
      <trkpt lat="40.226380" lon="-5.098280">
        <ele>570.568</ele>
        <time>2020-02-28T01:33:53Z</time>
      </trkpt>
      <trkpt lat="40.225710" lon="-5.098500">
        <ele>567.141</ele>
        <time>2020-02-28T01:34:13Z</time>
      </trkpt>
      <trkpt lat="40.225550" lon="-5.098530">
        <ele>565.836</ele>
        <time>2020-02-28T01:34:33Z</time>
      </trkpt>
      <trkpt lat="40.225470" lon="-5.098530">
        <ele>565.577</ele>
        <time>2020-02-28T01:34:53Z</time>
      </trkpt>
      <trkpt lat="40.225380" lon="-5.098510">
        <ele>564.910</ele>
        <time>2020-02-28T01:35:13Z</time>
      </trkpt>
      <trkpt lat="40.225030" lon="-5.098360">
        <ele>562.389</ele>
        <time>2020-02-28T01:35:33Z</time>
      </trkpt>
      <trkpt lat="40.225020" lon="-5.098360">
        <ele>562.360</ele>
        <time>2020-02-28T01:35:53Z</time>
      </trkpt>
      <trkpt lat="40.224740" lon="-5.098290">
        <ele>560.457</ele>
        <time>2020-02-28T01:36:13Z</time>
      </trkpt>
      <trkpt lat="40.224480" lon="-5.098280">
        <ele>560.254</ele>
        <time>2020-02-28T01:36:33Z</time>
      </trkpt>
      <trkpt lat="40.224470" lon="-5.098270">
        <ele>560.156</ele>
        <time>2020-02-28T01:36:53Z</time>
      </trkpt>
      <trkpt lat="40.223430" lon="-5.098270">
        <ele>557.211</ele>
        <time>2020-02-28T01:37:13Z</time>
      </trkpt>
      <trkpt lat="40.223030" lon="-5.098310">
        <ele>555.608</ele>
        <time>2020-02-28T01:37:33Z</time>
      </trkpt>
      <trkpt lat="40.221020" lon="-5.098410">
        <ele>546.869</ele>
        <time>2020-02-28T01:37:53Z</time>
      </trkpt>
      <trkpt lat="40.220710" lon="-5.098460">
        <ele>544.852</ele>
        <time>2020-02-28T01:38:13Z</time>
      </trkpt>
      <trkpt lat="40.220680" lon="-5.098460">
        <ele>544.327</ele>
        <time>2020-02-28T01:38:33Z</time>
      </trkpt>
      <trkpt lat="40.220020" lon="-5.098720">
        <ele>541.598</ele>
        <time>2020-02-28T01:38:53Z</time>
      </trkpt>
      <trkpt lat="40.219950" lon="-5.098730">
        <ele>541.061</ele>
        <time>2020-02-28T01:39:13Z</time>
      </trkpt>
      <trkpt lat="40.219540" lon="-5.098860">
        <ele>539.360</ele>
        <time>2020-02-28T01:39:33Z</time>
      </trkpt>
      <trkpt lat="40.219340" lon="-5.098900">
        <ele>538.581</ele>
        <time>2020-02-28T01:39:53Z</time>
      </trkpt>
      <trkpt lat="40.219120" lon="-5.098910">
        <ele>537.318</ele>
        <time>2020-02-28T01:40:13Z</time>
      </trkpt>
      <trkpt lat="40.219070" lon="-5.098900">
        <ele>536.984</ele>
        <time>2020-02-28T01:40:33Z</time>
      </trkpt>
      <trkpt lat="40.218910" lon="-5.098900">
        <ele>536.407</ele>
        <time>2020-02-28T01:40:53Z</time>
      </trkpt>
      <trkpt lat="40.218890" lon="-5.098890">
        <ele>536.017</ele>
        <time>2020-02-28T01:41:13Z</time>
      </trkpt>
      <trkpt lat="40.218850" lon="-5.098890">
        <ele>536.008</ele>
        <time>2020-02-28T01:41:33Z</time>
      </trkpt>
      <trkpt lat="40.218490" lon="-5.098830">
        <ele>535.212</ele>
        <time>2020-02-28T01:41:53Z</time>
      </trkpt>
      <trkpt lat="40.218320" lon="-5.098750">
        <ele>534.035</ele>
        <time>2020-02-28T01:42:13Z</time>
      </trkpt>
      <trkpt lat="40.218120" lon="-5.098630">
        <ele>532.810</ele>
        <time>2020-02-28T01:42:33Z</time>
      </trkpt>
      <trkpt lat="40.217870" lon="-5.098360">
        <ele>533.091</ele>
        <time>2020-02-28T01:42:53Z</time>
      </trkpt>
      <trkpt lat="40.217740" lon="-5.098120">
        <ele>533.414</ele>
        <time>2020-02-28T01:43:13Z</time>
      </trkpt>
      <trkpt lat="40.217710" lon="-5.098010">
        <ele>534.043</ele>
        <time>2020-02-28T01:43:33Z</time>
      </trkpt>
      <trkpt lat="40.217640" lon="-5.097540">
        <ele>533.744</ele>
        <time>2020-02-28T01:43:53Z</time>
      </trkpt>
      <trkpt lat="40.217610" lon="-5.097010">
        <ele>531.021</ele>
        <time>2020-02-28T01:44:13Z</time>
      </trkpt>
      <trkpt lat="40.217520" lon="-5.096620">
        <ele>531.085</ele>
        <time>2020-02-28T01:44:33Z</time>
      </trkpt>
      <trkpt lat="40.217470" lon="-5.096470">
        <ele>531.089</ele>
        <time>2020-02-28T01:44:53Z</time>
      </trkpt>
      <trkpt lat="40.217400" lon="-5.096340">
        <ele>529.817</ele>
        <time>2020-02-28T01:45:13Z</time>
      </trkpt>
      <trkpt lat="40.217360" lon="-5.096290">
        <ele>529.008</ele>
        <time>2020-02-28T01:45:33Z</time>
      </trkpt>
      <trkpt lat="40.217290" lon="-5.096230">
        <ele>528.682</ele>
        <time>2020-02-28T01:45:53Z</time>
      </trkpt>
      <trkpt lat="40.216900" lon="-5.095980">
        <ele>525.445</ele>
        <time>2020-02-28T01:46:13Z</time>
      </trkpt>
      <trkpt lat="40.216830" lon="-5.095950">
        <ele>524.860</ele>
        <time>2020-02-28T01:46:33Z</time>
      </trkpt>
      <trkpt lat="40.216670" lon="-5.095860">
        <ele>523.651</ele>
        <time>2020-02-28T01:46:53Z</time>
      </trkpt>
      <trkpt lat="40.216660" lon="-5.095850">
        <ele>523.554</ele>
        <time>2020-02-28T01:47:13Z</time>
      </trkpt>
      <trkpt lat="40.216550" lon="-5.095780">
        <ele>524.053</ele>
        <time>2020-02-28T01:47:33Z</time>
      </trkpt>
      <trkpt lat="40.216350" lon="-5.095630">
        <ele>524.544</ele>
        <time>2020-02-28T01:47:53Z</time>
      </trkpt>
      <trkpt lat="40.215770" lon="-5.095060">
        <ele>524.471</ele>
        <time>2020-02-28T01:48:13Z</time>
      </trkpt>
      <trkpt lat="40.215380" lon="-5.094580">
        <ele>522.994</ele>
        <time>2020-02-28T01:48:33Z</time>
      </trkpt>
      <trkpt lat="40.215380" lon="-5.094570">
        <ele>522.757</ele>
        <time>2020-02-28T01:48:53Z</time>
      </trkpt>
      <trkpt lat="40.215310" lon="-5.094490">
        <ele>522.422</ele>
        <time>2020-02-28T01:49:13Z</time>
      </trkpt>
      <trkpt lat="40.215260" lon="-5.094450">
        <ele>522.308</ele>
        <time>2020-02-28T01:49:33Z</time>
      </trkpt>
      <trkpt lat="40.215180" lon="-5.094410">
        <ele>522.713</ele>
        <time>2020-02-28T01:49:53Z</time>
      </trkpt>
      <trkpt lat="40.215100" lon="-5.094390">
        <ele>523.286</ele>
        <time>2020-02-28T01:50:13Z</time>
      </trkpt>
      <trkpt lat="40.215060" lon="-5.094390">
        <ele>523.571</ele>
        <time>2020-02-28T01:50:33Z</time>
      </trkpt>
      <trkpt lat="40.215020" lon="-5.094380">
        <ele>523.782</ele>
        <time>2020-02-28T01:50:53Z</time>
      </trkpt>
      <trkpt lat="40.214620" lon="-5.094400">
        <ele>523.895</ele>
        <time>2020-02-28T01:51:13Z</time>
      </trkpt>
      <trkpt lat="40.214340" lon="-5.094370">
        <ele>522.694</ele>
        <time>2020-02-28T01:51:33Z</time>
      </trkpt>
      <trkpt lat="40.214180" lon="-5.094340">
        <ele>521.815</ele>
        <time>2020-02-28T01:51:53Z</time>
      </trkpt>
      <trkpt lat="40.214040" lon="-5.094340">
        <ele>521.922</ele>
        <time>2020-02-28T01:52:13Z</time>
      </trkpt>
      <trkpt lat="40.213930" lon="-5.094360">
        <ele>522.575</ele>
        <time>2020-02-28T01:52:33Z</time>
      </trkpt>
      <trkpt lat="40.213800" lon="-5.094410">
        <ele>523.028</ele>
        <time>2020-02-28T01:52:53Z</time>
      </trkpt>
      <trkpt lat="40.213640" lon="-5.094490">
        <ele>523.820</ele>
        <time>2020-02-28T01:53:13Z</time>
      </trkpt>
      <trkpt lat="40.213490" lon="-5.094620">
        <ele>525.108</ele>
        <time>2020-02-28T01:53:33Z</time>
      </trkpt>
      <trkpt lat="40.213470" lon="-5.094630">
        <ele>525.011</ele>
        <time>2020-02-28T01:53:53Z</time>
      </trkpt>
      <trkpt lat="40.213250" lon="-5.094830">
        <ele>526.314</ele>
        <time>2020-02-28T01:54:13Z</time>
      </trkpt>
      <trkpt lat="40.213160" lon="-5.094890">
        <ele>525.749</ele>
        <time>2020-02-28T01:54:33Z</time>
      </trkpt>
      <trkpt lat="40.213070" lon="-5.094890">
        <ele>523.260</ele>
        <time>2020-02-28T01:54:53Z</time>
      </trkpt>
      <trkpt lat="40.212890" lon="-5.094740">
        <ele>518.433</ele>
        <time>2020-02-28T01:55:13Z</time>
      </trkpt>
      <trkpt lat="40.212530" lon="-5.094550">
        <ele>512.442</ele>
        <time>2020-02-28T01:55:33Z</time>
      </trkpt>
      <trkpt lat="40.212370" lon="-5.094450">
        <ele>511.053</ele>
        <time>2020-02-28T01:55:53Z</time>
      </trkpt>
      <trkpt lat="40.212300" lon="-5.094420">
        <ele>510.910</ele>
        <time>2020-02-28T01:56:13Z</time>
      </trkpt>
      <trkpt lat="40.211750" lon="-5.094110">
        <ele>510.085</ele>
        <time>2020-02-28T01:56:33Z</time>
      </trkpt>
      <trkpt lat="40.211710" lon="-5.094080">
        <ele>510.089</ele>
        <time>2020-02-28T01:56:53Z</time>
      </trkpt>
      <trkpt lat="40.211530" lon="-5.093900">
        <ele>509.517</ele>
        <time>2020-02-28T01:57:13Z</time>
      </trkpt>
      <trkpt lat="40.211460" lon="-5.093780">
        <ele>509.308</ele>
        <time>2020-02-28T01:57:33Z</time>
      </trkpt>
      <trkpt lat="40.211160" lon="-5.093410">
        <ele>507.522</ele>
        <time>2020-02-28T01:57:53Z</time>
      </trkpt>
      <trkpt lat="40.210330" lon="-5.092550">
        <ele>503.725</ele>
        <time>2020-02-28T01:58:13Z</time>
      </trkpt>
      <trkpt lat="40.210130" lon="-5.092450">
        <ele>503.420</ele>
        <time>2020-02-28T01:58:33Z</time>
      </trkpt>
      <trkpt lat="40.208750" lon="-5.092380">
        <ele>500.631</ele>
        <time>2020-02-28T01:58:53Z</time>
      </trkpt>
      <trkpt lat="40.208660" lon="-5.092420">
        <ele>500.314</ele>
        <time>2020-02-28T01:59:13Z</time>
      </trkpt>
      <trkpt lat="40.208620" lon="-5.092460">
        <ele>500.163</ele>
        <time>2020-02-28T01:59:33Z</time>
      </trkpt>
      <trkpt lat="40.208620" lon="-5.092470">
        <ele>500.184</ele>
        <time>2020-02-28T01:59:53Z</time>
      </trkpt>
      <trkpt lat="40.208610" lon="-5.092490">
        <ele>500.031</ele>
        <time>2020-02-28T02:00:13Z</time>
      </trkpt>
      <trkpt lat="40.208610" lon="-5.092510">
        <ele>500.026</ele>
        <time>2020-02-28T02:00:33Z</time>
      </trkpt>
      <trkpt lat="40.208600" lon="-5.092540">
        <ele>500.047</ele>
        <time>2020-02-28T02:00:53Z</time>
      </trkpt>
      <trkpt lat="40.208600" lon="-5.092560">
        <ele>500.011</ele>
        <time>2020-02-28T02:01:13Z</time>
      </trkpt>
      <trkpt lat="40.208590" lon="-5.092600">
        <ele>500.008</ele>
        <time>2020-02-28T02:01:33Z</time>
      </trkpt>
      <trkpt lat="40.208570" lon="-5.092880">
        <ele>500.086</ele>
        <time>2020-02-28T02:01:53Z</time>
      </trkpt>
      <trkpt lat="40.208530" lon="-5.093090">
        <ele>500.319</ele>
        <time>2020-02-28T02:02:13Z</time>
      </trkpt>
      <trkpt lat="40.208530" lon="-5.093120">
        <ele>500.584</ele>
        <time>2020-02-28T02:02:33Z</time>
      </trkpt>
      <trkpt lat="40.208520" lon="-5.093120">
        <ele>500.555</ele>
        <time>2020-02-28T02:02:53Z</time>
      </trkpt>
      <trkpt lat="40.208480" lon="-5.093220">
        <ele>500.988</ele>
        <time>2020-02-28T02:03:13Z</time>
      </trkpt>
      <trkpt lat="40.206990" lon="-5.096200">
        <ele>508.197</ele>
        <time>2020-02-28T02:03:33Z</time>
      </trkpt>
      <trkpt lat="40.206690" lon="-5.096720">
        <ele>507.528</ele>
        <time>2020-02-28T02:03:53Z</time>
      </trkpt>
      <trkpt lat="40.206190" lon="-5.097460">
        <ele>507.235</ele>
        <time>2020-02-28T02:04:13Z</time>
      </trkpt>
      <trkpt lat="40.206130" lon="-5.097570">
        <ele>507.715</ele>
        <time>2020-02-28T02:04:33Z</time>
      </trkpt>
      <trkpt lat="40.205990" lon="-5.097960">
        <ele>510.065</ele>
        <time>2020-02-28T02:04:53Z</time>
      </trkpt>
      <trkpt lat="40.205990" lon="-5.097980">
        <ele>510.411</ele>
        <time>2020-02-28T02:05:13Z</time>
      </trkpt>
      <trkpt lat="40.205750" lon="-5.098790">
        <ele>513.808</ele>
        <time>2020-02-28T02:05:33Z</time>
      </trkpt>
      <trkpt lat="40.205610" lon="-5.099720">
        <ele>518.485</ele>
        <time>2020-02-28T02:05:53Z</time>
      </trkpt>
      <trkpt lat="40.205560" lon="-5.099950">
        <ele>518.898</ele>
        <time>2020-02-28T02:06:13Z</time>
      </trkpt>
      <trkpt lat="40.205290" lon="-5.100610">
        <ele>515.343</ele>
        <time>2020-02-28T02:06:33Z</time>
      </trkpt>
      <trkpt lat="40.205260" lon="-5.100740">
        <ele>515.294</ele>
        <time>2020-02-28T02:06:53Z</time>
      </trkpt>
      <trkpt lat="40.205260" lon="-5.101160">
        <ele>521.017</ele>
        <time>2020-02-28T02:07:13Z</time>
      </trkpt>
      <trkpt lat="40.205220" lon="-5.101280">
        <ele>523.816</ele>
        <time>2020-02-28T02:07:33Z</time>
      </trkpt>
      <trkpt lat="40.205180" lon="-5.101320">
        <ele>524.647</ele>
        <time>2020-02-28T02:07:53Z</time>
      </trkpt>
      <trkpt lat="40.205110" lon="-5.101350">
        <ele>525.264</ele>
        <time>2020-02-28T02:08:13Z</time>
      </trkpt>
      <trkpt lat="40.204890" lon="-5.101350">
        <ele>523.678</ele>
        <time>2020-02-28T02:08:33Z</time>
      </trkpt>
      <trkpt lat="40.204780" lon="-5.101400">
        <ele>524.833</ele>
        <time>2020-02-28T02:08:53Z</time>
      </trkpt>
      <trkpt lat="40.204740" lon="-5.101440">
        <ele>525.826</ele>
        <time>2020-02-28T02:09:13Z</time>
      </trkpt>
      <trkpt lat="40.204680" lon="-5.101520">
        <ele>527.308</ele>
        <time>2020-02-28T02:09:33Z</time>
      </trkpt>
      <trkpt lat="40.204630" lon="-5.101570">
        <ele>527.781</ele>
        <time>2020-02-28T02:09:53Z</time>
      </trkpt>
      <trkpt lat="40.204590" lon="-5.101590">
        <ele>527.374</ele>
        <time>2020-02-28T02:10:13Z</time>
      </trkpt>
      <trkpt lat="40.204580" lon="-5.101600">
        <ele>527.429</ele>
        <time>2020-02-28T02:10:33Z</time>
      </trkpt>
      <trkpt lat="40.204510" lon="-5.101640">
        <ele>526.930</ele>
        <time>2020-02-28T02:10:53Z</time>
      </trkpt>
      <trkpt lat="40.204430" lon="-5.101660">
        <ele>525.893</ele>
        <time>2020-02-28T02:11:13Z</time>
      </trkpt>
      <trkpt lat="40.204420" lon="-5.101660">
        <ele>525.742</ele>
        <time>2020-02-28T02:11:33Z</time>
      </trkpt>
      <trkpt lat="40.204350" lon="-5.101690">
        <ele>526.583</ele>
        <time>2020-02-28T02:11:53Z</time>
      </trkpt>
      <trkpt lat="40.204170" lon="-5.101730">
        <ele>527.150</ele>
        <time>2020-02-28T02:12:13Z</time>
      </trkpt>
      <trkpt lat="40.204130" lon="-5.101730">
        <ele>527.812</ele>
        <time>2020-02-28T02:12:33Z</time>
      </trkpt>
      <trkpt lat="40.204120" lon="-5.101720">
        <ele>527.632</ele>
        <time>2020-02-28T02:12:53Z</time>
      </trkpt>
      <trkpt lat="40.204100" lon="-5.101720">
        <ele>528.005</ele>
        <time>2020-02-28T02:13:13Z</time>
      </trkpt>
      <trkpt lat="40.204070" lon="-5.101700">
        <ele>528.008</ele>
        <time>2020-02-28T02:13:33Z</time>
      </trkpt>
      <trkpt lat="40.204040" lon="-5.101690">
        <ele>528.415</ele>
        <time>2020-02-28T02:13:53Z</time>
      </trkpt>
      <trkpt lat="40.203910" lon="-5.101620">
        <ele>528.978</ele>
        <time>2020-02-28T02:14:13Z</time>
      </trkpt>
      <trkpt lat="40.203900" lon="-5.101620">
        <ele>529.183</ele>
        <time>2020-02-28T02:14:33Z</time>
      </trkpt>
      <trkpt lat="40.203540" lon="-5.101400">
        <ele>529.714</ele>
        <time>2020-02-28T02:14:53Z</time>
      </trkpt>
      <trkpt lat="40.203340" lon="-5.101340">
        <ele>529.747</ele>
        <time>2020-02-28T02:15:13Z</time>
      </trkpt>
      <trkpt lat="40.203210" lon="-5.101340">
        <ele>529.056</ele>
        <time>2020-02-28T02:15:33Z</time>
      </trkpt>
      <trkpt lat="40.203100" lon="-5.101470">
        <ele>529.727</ele>
        <time>2020-02-28T02:15:53Z</time>
      </trkpt>
      <trkpt lat="40.203050" lon="-5.101580">
        <ele>529.574</ele>
        <time>2020-02-28T02:16:13Z</time>
      </trkpt>
      <trkpt lat="40.203050" lon="-5.101590">
        <ele>529.611</ele>
        <time>2020-02-28T02:16:33Z</time>
      </trkpt>
      <trkpt lat="40.203030" lon="-5.101630">
        <ele>529.221</ele>
        <time>2020-02-28T02:16:53Z</time>
      </trkpt>
      <trkpt lat="40.203010" lon="-5.101750">
        <ele>529.103</ele>
        <time>2020-02-28T02:17:13Z</time>
      </trkpt>
      <trkpt lat="40.202990" lon="-5.102100">
        <ele>527.308</ele>
        <time>2020-02-28T02:17:33Z</time>
      </trkpt>
      <trkpt lat="40.203000" lon="-5.102150">
        <ele>527.175</ele>
        <time>2020-02-28T02:17:53Z</time>
      </trkpt>
      <trkpt lat="40.203000" lon="-5.102210">
        <ele>526.578</ele>
        <time>2020-02-28T02:18:13Z</time>
      </trkpt>
      <trkpt lat="40.203010" lon="-5.102270">
        <ele>526.043</ele>
        <time>2020-02-28T02:18:33Z</time>
      </trkpt>
      <trkpt lat="40.203020" lon="-5.102290">
        <ele>526.064</ele>
        <time>2020-02-28T02:18:53Z</time>
      </trkpt>
      <trkpt lat="40.203060" lon="-5.102420">
        <ele>525.317</ele>
        <time>2020-02-28T02:19:13Z</time>
      </trkpt>
      <trkpt lat="40.203230" lon="-5.102800">
        <ele>528.396</ele>
        <time>2020-02-28T02:19:33Z</time>
      </trkpt>
      <trkpt lat="40.203240" lon="-5.102850">
        <ele>528.747</ele>
        <time>2020-02-28T02:19:53Z</time>
      </trkpt>
      <trkpt lat="40.203270" lon="-5.102940">
        <ele>529.564</ele>
        <time>2020-02-28T02:20:13Z</time>
      </trkpt>
      <trkpt lat="40.203270" lon="-5.103020">
        <ele>529.452</ele>
        <time>2020-02-28T02:20:33Z</time>
      </trkpt>
      <trkpt lat="40.203260" lon="-5.103040">
        <ele>529.253</ele>
        <time>2020-02-28T02:20:53Z</time>
      </trkpt>
      <trkpt lat="40.203260" lon="-5.103060">
        <ele>529.308</ele>
        <time>2020-02-28T02:21:13Z</time>
      </trkpt>
      <trkpt lat="40.203250" lon="-5.103080">
        <ele>529.708</ele>
        <time>2020-02-28T02:21:33Z</time>
      </trkpt>
      <trkpt lat="40.203250" lon="-5.103100">
        <ele>530.239</ele>
        <time>2020-02-28T02:21:53Z</time>
      </trkpt>
      <trkpt lat="40.203190" lon="-5.103160">
        <ele>531.162</ele>
        <time>2020-02-28T02:22:13Z</time>
      </trkpt>
      <trkpt lat="40.202880" lon="-5.103250">
        <ele>530.157</ele>
        <time>2020-02-28T02:22:33Z</time>
      </trkpt>
      <trkpt lat="40.202860" lon="-5.103250">
        <ele>529.988</ele>
        <time>2020-02-28T02:22:53Z</time>
      </trkpt>
      <trkpt lat="40.202820" lon="-5.103270">
        <ele>530.181</ele>
        <time>2020-02-28T02:23:13Z</time>
      </trkpt>
      <trkpt lat="40.202750" lon="-5.103340">
        <ele>530.930</ele>
        <time>2020-02-28T02:23:33Z</time>
      </trkpt>
      <trkpt lat="40.202730" lon="-5.103370">
        <ele>530.731</ele>
        <time>2020-02-28T02:23:53Z</time>
      </trkpt>
      <trkpt lat="40.202610" lon="-5.103640">
        <ele>530.738</ele>
        <time>2020-02-28T02:24:13Z</time>
      </trkpt>
      <trkpt lat="40.202590" lon="-5.103770">
        <ele>532.125</ele>
        <time>2020-02-28T02:24:33Z</time>
      </trkpt>
      <trkpt lat="40.202580" lon="-5.103800">
        <ele>532.126</ele>
        <time>2020-02-28T02:24:53Z</time>
      </trkpt>
      <trkpt lat="40.202500" lon="-5.104290">
        <ele>534.808</ele>
        <time>2020-02-28T02:25:13Z</time>
      </trkpt>
      <trkpt lat="40.202470" lon="-5.104380">
        <ele>535.208</ele>
        <time>2020-02-28T02:25:33Z</time>
      </trkpt>
      <trkpt lat="40.202450" lon="-5.104410">
        <ele>535.156</ele>
        <time>2020-02-28T02:25:53Z</time>
      </trkpt>
      <trkpt lat="40.202400" lon="-5.104460">
        <ele>534.979</ele>
        <time>2020-02-28T02:26:13Z</time>
      </trkpt>
      <trkpt lat="40.202330" lon="-5.104500">
        <ele>534.394</ele>
        <time>2020-02-28T02:26:33Z</time>
      </trkpt>
      <trkpt lat="40.202240" lon="-5.104530">
        <ele>532.925</ele>
        <time>2020-02-28T02:26:53Z</time>
      </trkpt>
      <trkpt lat="40.202050" lon="-5.104620">
        <ele>530.868</ele>
        <time>2020-02-28T02:27:13Z</time>
      </trkpt>
      <trkpt lat="40.201920" lon="-5.104720">
        <ele>532.157</ele>
        <time>2020-02-28T02:27:33Z</time>
      </trkpt>
      <trkpt lat="40.201570" lon="-5.105060">
        <ele>537.978</ele>
        <time>2020-02-28T02:27:53Z</time>
      </trkpt>
      <trkpt lat="40.201470" lon="-5.105120">
        <ele>538.285</ele>
        <time>2020-02-28T02:28:13Z</time>
      </trkpt>
      <trkpt lat="40.201460" lon="-5.105130">
        <ele>538.488</ele>
        <time>2020-02-28T02:28:33Z</time>
      </trkpt>
      <trkpt lat="40.201380" lon="-5.105180">
        <ele>538.324</ele>
        <time>2020-02-28T02:28:53Z</time>
      </trkpt>
      <trkpt lat="40.201230" lon="-5.105240">
        <ele>538.126</ele>
        <time>2020-02-28T02:29:13Z</time>
      </trkpt>
      <trkpt lat="40.201190" lon="-5.105240">
        <ele>537.308</ele>
        <time>2020-02-28T02:29:33Z</time>
      </trkpt>
      <trkpt lat="40.201130" lon="-5.105250">
        <ele>536.592</ele>
        <time>2020-02-28T02:29:53Z</time>
      </trkpt>
      <trkpt lat="40.201130" lon="-5.105260">
        <ele>536.885</ele>
        <time>2020-02-28T02:30:13Z</time>
      </trkpt>
      <trkpt lat="40.201060" lon="-5.105250">
        <ele>535.970</ele>
        <time>2020-02-28T02:30:33Z</time>
      </trkpt>
      <trkpt lat="40.200950" lon="-5.105250">
        <ele>535.561</ele>
        <time>2020-02-28T02:30:53Z</time>
      </trkpt>
      <trkpt lat="40.200870" lon="-5.105240">
        <ele>534.894</ele>
        <time>2020-02-28T02:31:13Z</time>
      </trkpt>
      <trkpt lat="40.200810" lon="-5.105240">
        <ele>534.593</ele>
        <time>2020-02-28T02:31:33Z</time>
      </trkpt>
      <trkpt lat="40.200770" lon="-5.105250">
        <ele>534.514</ele>
        <time>2020-02-28T02:31:53Z</time>
      </trkpt>
      <trkpt lat="40.200730" lon="-5.105250">
        <ele>534.341</ele>
        <time>2020-02-28T02:32:13Z</time>
      </trkpt>
      <trkpt lat="40.200610" lon="-5.105280">
        <ele>534.473</ele>
        <time>2020-02-28T02:32:33Z</time>
      </trkpt>
      <trkpt lat="40.200600" lon="-5.105290">
        <ele>534.685</ele>
        <time>2020-02-28T02:32:53Z</time>
      </trkpt>
      <trkpt lat="40.200560" lon="-5.105300">
        <ele>534.513</ele>
        <time>2020-02-28T02:33:13Z</time>
      </trkpt>
      <trkpt lat="40.200540" lon="-5.105320">
        <ele>534.708</ele>
        <time>2020-02-28T02:33:33Z</time>
      </trkpt>
      <trkpt lat="40.200510" lon="-5.105330">
        <ele>534.451</ele>
        <time>2020-02-28T02:33:53Z</time>
      </trkpt>
      <trkpt lat="40.200480" lon="-5.105350">
        <ele>534.344</ele>
        <time>2020-02-28T02:34:13Z</time>
      </trkpt>
      <trkpt lat="40.200460" lon="-5.105370">
        <ele>534.339</ele>
        <time>2020-02-28T02:34:33Z</time>
      </trkpt>
      <trkpt lat="40.200430" lon="-5.105390">
        <ele>534.180</ele>
        <time>2020-02-28T02:34:53Z</time>
      </trkpt>
      <trkpt lat="40.200320" lon="-5.105560">
        <ele>534.143</ele>
        <time>2020-02-28T02:35:13Z</time>
      </trkpt>
      <trkpt lat="40.200320" lon="-5.105570">
        <ele>534.022</ele>
        <time>2020-02-28T02:35:33Z</time>
      </trkpt>
      <trkpt lat="40.200300" lon="-5.105620">
        <ele>533.453</ele>
        <time>2020-02-28T02:35:53Z</time>
      </trkpt>
      <trkpt lat="40.200300" lon="-5.105660">
        <ele>533.230</ele>
        <time>2020-02-28T02:36:13Z</time>
      </trkpt>
      <trkpt lat="40.200290" lon="-5.105690">
        <ele>532.945</ele>
        <time>2020-02-28T02:36:33Z</time>
      </trkpt>
      <trkpt lat="40.200300" lon="-5.106230">
        <ele>531.747</ele>
        <time>2020-02-28T02:36:53Z</time>
      </trkpt>
      <trkpt lat="40.200290" lon="-5.106270">
        <ele>531.311</ele>
        <time>2020-02-28T02:37:13Z</time>
      </trkpt>
      <trkpt lat="40.200260" lon="-5.106720">
        <ele>528.008</ele>
        <time>2020-02-28T02:37:33Z</time>
      </trkpt>
      <trkpt lat="40.200280" lon="-5.106930">
        <ele>525.378</ele>
        <time>2020-02-28T02:37:53Z</time>
      </trkpt>
      <trkpt lat="40.200440" lon="-5.107430">
        <ele>522.061</ele>
        <time>2020-02-28T02:38:13Z</time>
      </trkpt>
      <trkpt lat="40.200620" lon="-5.108290">
        <ele>514.046</ele>
        <time>2020-02-28T02:38:33Z</time>
      </trkpt>
      <trkpt lat="40.200690" lon="-5.108460">
        <ele>511.267</ele>
        <time>2020-02-28T02:38:53Z</time>
      </trkpt>
      <trkpt lat="40.200710" lon="-5.108490">
        <ele>510.920</ele>
        <time>2020-02-28T02:39:13Z</time>
      </trkpt>
      <trkpt lat="40.200770" lon="-5.108550">
        <ele>510.879</ele>
        <time>2020-02-28T02:39:33Z</time>
      </trkpt>
      <trkpt lat="40.200790" lon="-5.108560">
        <ele>511.150</ele>
        <time>2020-02-28T02:39:53Z</time>
      </trkpt>
      <trkpt lat="40.200800" lon="-5.108560">
        <ele>511.347</ele>
        <time>2020-02-28T02:40:13Z</time>
      </trkpt>
      <trkpt lat="40.200820" lon="-5.108570">
        <ele>511.632</ele>
        <time>2020-02-28T02:40:33Z</time>
      </trkpt>
      <trkpt lat="40.200830" lon="-5.108580">
        <ele>511.692</ele>
        <time>2020-02-28T02:40:53Z</time>
      </trkpt>
      <trkpt lat="40.200860" lon="-5.108580">
        <ele>512.011</ele>
        <time>2020-02-28T02:41:13Z</time>
      </trkpt>
      <trkpt lat="40.200890" lon="-5.108590">
        <ele>512.208</ele>
        <time>2020-02-28T02:41:33Z</time>
      </trkpt>
      <trkpt lat="40.200930" lon="-5.108590">
        <ele>512.817</ele>
        <time>2020-02-28T02:41:53Z</time>
      </trkpt>
      <trkpt lat="40.201070" lon="-5.108630">
        <ele>514.560</ele>
        <time>2020-02-28T02:42:13Z</time>
      </trkpt>
      <trkpt lat="40.201080" lon="-5.108630">
        <ele>514.665</ele>
        <time>2020-02-28T02:42:33Z</time>
      </trkpt>
      <trkpt lat="40.201110" lon="-5.108650">
        <ele>515.136</ele>
        <time>2020-02-28T02:42:53Z</time>
      </trkpt>
      <trkpt lat="40.201130" lon="-5.108670">
        <ele>515.569</ele>
        <time>2020-02-28T02:43:13Z</time>
      </trkpt>
      <trkpt lat="40.201160" lon="-5.108690">
        <ele>516.288</ele>
        <time>2020-02-28T02:43:33Z</time>
      </trkpt>
      <trkpt lat="40.201180" lon="-5.108730">
        <ele>516.839</ele>
        <time>2020-02-28T02:43:53Z</time>
      </trkpt>
      <trkpt lat="40.201190" lon="-5.108770">
        <ele>517.476</ele>
        <time>2020-02-28T02:44:13Z</time>
      </trkpt>
      <trkpt lat="40.201200" lon="-5.108780">
        <ele>517.773</ele>
        <time>2020-02-28T02:44:33Z</time>
      </trkpt>
      <trkpt lat="40.201200" lon="-5.108890">
        <ele>518.685</ele>
        <time>2020-02-28T02:44:53Z</time>
      </trkpt>
      <trkpt lat="40.201190" lon="-5.108930">
        <ele>518.813</ele>
        <time>2020-02-28T02:45:13Z</time>
      </trkpt>
      <trkpt lat="40.201160" lon="-5.109000">
        <ele>518.608</ele>
        <time>2020-02-28T02:45:33Z</time>
      </trkpt>
      <trkpt lat="40.200930" lon="-5.109350">
        <ele>513.781</ele>
        <time>2020-02-28T02:45:53Z</time>
      </trkpt>
      <trkpt lat="40.200910" lon="-5.109410">
        <ele>513.064</ele>
        <time>2020-02-28T02:46:13Z</time>
      </trkpt>
      <trkpt lat="40.200900" lon="-5.109470">
        <ele>512.529</ele>
        <time>2020-02-28T02:46:33Z</time>
      </trkpt>
      <trkpt lat="40.200900" lon="-5.109620">
        <ele>511.740</ele>
        <time>2020-02-28T02:46:53Z</time>
      </trkpt>
      <trkpt lat="40.201190" lon="-5.110570">
        <ele>507.293</ele>
        <time>2020-02-28T02:47:13Z</time>
      </trkpt>
      <trkpt lat="40.201250" lon="-5.110700">
        <ele>504.182</ele>
        <time>2020-02-28T02:47:33Z</time>
      </trkpt>
      <trkpt lat="40.201300" lon="-5.110780">
        <ele>502.373</ele>
        <time>2020-02-28T02:47:53Z</time>
      </trkpt>
      <trkpt lat="40.201370" lon="-5.110830">
        <ele>501.830</ele>
        <time>2020-02-28T02:48:13Z</time>
      </trkpt>
      <trkpt lat="40.201470" lon="-5.110880">
        <ele>502.444</ele>
        <time>2020-02-28T02:48:33Z</time>
      </trkpt>
      <trkpt lat="40.201540" lon="-5.110900">
        <ele>503.305</ele>
        <time>2020-02-28T02:48:53Z</time>
      </trkpt>
      <trkpt lat="40.201650" lon="-5.110950">
        <ele>504.615</ele>
        <time>2020-02-28T02:49:13Z</time>
      </trkpt>
      <trkpt lat="40.201720" lon="-5.111000">
        <ele>505.308</ele>
        <time>2020-02-28T02:49:33Z</time>
      </trkpt>
      <trkpt lat="40.201760" lon="-5.111040">
        <ele>505.678</ele>
        <time>2020-02-28T02:49:53Z</time>
      </trkpt>
      <trkpt lat="40.201850" lon="-5.111180">
        <ele>505.821</ele>
        <time>2020-02-28T02:50:13Z</time>
      </trkpt>
      <trkpt lat="40.201900" lon="-5.111370">
        <ele>504.996</ele>
        <time>2020-02-28T02:50:33Z</time>
      </trkpt>
      <trkpt lat="40.201990" lon="-5.111870">
        <ele>504.737</ele>
        <time>2020-02-28T02:50:53Z</time>
      </trkpt>
      <trkpt lat="40.201990" lon="-5.111980">
        <ele>504.190</ele>
        <time>2020-02-28T02:51:13Z</time>
      </trkpt>
      <trkpt lat="40.201970" lon="-5.112040">
        <ele>502.759</ele>
        <time>2020-02-28T02:51:33Z</time>
      </trkpt>
      <trkpt lat="40.201970" lon="-5.112050">
        <ele>502.680</ele>
        <time>2020-02-28T02:51:53Z</time>
      </trkpt>
      <trkpt lat="40.201960" lon="-5.112060">
        <ele>502.047</ele>
        <time>2020-02-28T02:52:13Z</time>
      </trkpt>
      <trkpt lat="40.201960" lon="-5.112080">
        <ele>501.991</ele>
        <time>2020-02-28T02:52:33Z</time>
      </trkpt>
      <trkpt lat="40.201940" lon="-5.112100">
        <ele>500.781</ele>
        <time>2020-02-28T02:52:53Z</time>
      </trkpt>
      <trkpt lat="40.201930" lon="-5.112120">
        <ele>500.219</ele>
        <time>2020-02-28T02:53:13Z</time>
      </trkpt>
      <trkpt lat="40.201910" lon="-5.112130">
        <ele>499.408</ele>
        <time>2020-02-28T02:53:33Z</time>
      </trkpt>
      <trkpt lat="40.201890" lon="-5.112150">
        <ele>498.653</ele>
        <time>2020-02-28T02:53:53Z</time>
      </trkpt>
      <trkpt lat="40.201870" lon="-5.112160">
        <ele>497.956</ele>
        <time>2020-02-28T02:54:13Z</time>
      </trkpt>
      <trkpt lat="40.201820" lon="-5.112170">
        <ele>496.141</ele>
        <time>2020-02-28T02:54:33Z</time>
      </trkpt>
      <trkpt lat="40.201590" lon="-5.112250">
        <ele>494.532</ele>
        <time>2020-02-28T02:54:53Z</time>
      </trkpt>
      <trkpt lat="40.201560" lon="-5.112250">
        <ele>495.895</ele>
        <time>2020-02-28T02:55:13Z</time>
      </trkpt>
      <trkpt lat="40.201470" lon="-5.112220">
        <ele>499.534</ele>
        <time>2020-02-28T02:55:33Z</time>
      </trkpt>
      <trkpt lat="40.201420" lon="-5.112190">
        <ele>501.315</ele>
        <time>2020-02-28T02:55:53Z</time>
      </trkpt>
      <trkpt lat="40.201390" lon="-5.112160">
        <ele>502.322</ele>
        <time>2020-02-28T02:56:13Z</time>
      </trkpt>
      <trkpt lat="40.201360" lon="-5.112140">
        <ele>503.287</ele>
        <time>2020-02-28T02:56:33Z</time>
      </trkpt>
      <trkpt lat="40.201320" lon="-5.112090">
        <ele>503.942</ele>
        <time>2020-02-28T02:56:53Z</time>
      </trkpt>
      <trkpt lat="40.201290" lon="-5.112040">
        <ele>504.226</ele>
        <time>2020-02-28T02:57:13Z</time>
      </trkpt>
      <trkpt lat="40.200940" lon="-5.111600">
        <ele>506.508</ele>
        <time>2020-02-28T02:57:33Z</time>
      </trkpt>
      <trkpt lat="40.200900" lon="-5.111560">
        <ele>506.932</ele>
        <time>2020-02-28T02:57:53Z</time>
      </trkpt>
      <trkpt lat="40.200900" lon="-5.111550">
        <ele>506.655</ele>
        <time>2020-02-28T02:58:13Z</time>
      </trkpt>
      <trkpt lat="40.199760" lon="-5.110510">
        <ele>520.320</ele>
        <time>2020-02-28T02:58:33Z</time>
      </trkpt>
      <trkpt lat="40.199720" lon="-5.110460">
        <ele>520.731</ele>
        <time>2020-02-28T02:58:53Z</time>
      </trkpt>
      <trkpt lat="40.199710" lon="-5.110430">
        <ele>520.514</ele>
        <time>2020-02-28T02:59:13Z</time>
      </trkpt>
      <trkpt lat="40.199680" lon="-5.110390">
        <ele>521.073</ele>
        <time>2020-02-28T02:59:33Z</time>
      </trkpt>
      <trkpt lat="40.199620" lon="-5.110240">
        <ele>520.914</ele>
        <time>2020-02-28T02:59:53Z</time>
      </trkpt>
      <trkpt lat="40.199520" lon="-5.109830">
        <ele>519.281</ele>
        <time>2020-02-28T03:00:13Z</time>
      </trkpt>
      <trkpt lat="40.199520" lon="-5.109810">
        <ele>518.886</ele>
        <time>2020-02-28T03:00:33Z</time>
      </trkpt>
      <trkpt lat="40.199430" lon="-5.109370">
        <ele>520.360</ele>
        <time>2020-02-28T03:00:53Z</time>
      </trkpt>
      <trkpt lat="40.199420" lon="-5.109360">
        <ele>520.926</ele>
        <time>2020-02-28T03:01:13Z</time>
      </trkpt>
      <trkpt lat="40.199410" lon="-5.109290">
        <ele>520.908</ele>
        <time>2020-02-28T03:01:33Z</time>
      </trkpt>
      <trkpt lat="40.199280" lon="-5.108930">
        <ele>523.572</ele>
        <time>2020-02-28T03:01:53Z</time>
      </trkpt>
      <trkpt lat="40.199180" lon="-5.108730">
        <ele>525.785</ele>
        <time>2020-02-28T03:02:13Z</time>
      </trkpt>
      <trkpt lat="40.198830" lon="-5.108210">
        <ele>530.550</ele>
        <time>2020-02-28T03:02:33Z</time>
      </trkpt>
      <trkpt lat="40.198820" lon="-5.108200">
        <ele>530.781</ele>
        <time>2020-02-28T03:02:53Z</time>
      </trkpt>
      <trkpt lat="40.198630" lon="-5.107810">
        <ele>530.754</ele>
        <time>2020-02-28T03:03:13Z</time>
      </trkpt>
      <trkpt lat="40.198620" lon="-5.107800">
        <ele>531.023</ele>
        <time>2020-02-28T03:03:33Z</time>
      </trkpt>
      <trkpt lat="40.198590" lon="-5.107730">
        <ele>529.944</ele>
        <time>2020-02-28T03:03:53Z</time>
      </trkpt>
      <trkpt lat="40.198510" lon="-5.107620">
        <ele>528.611</ele>
        <time>2020-02-28T03:04:13Z</time>
      </trkpt>
      <trkpt lat="40.198480" lon="-5.107600">
        <ele>529.094</ele>
        <time>2020-02-28T03:04:33Z</time>
      </trkpt>
      <trkpt lat="40.198460" lon="-5.107570">
        <ele>528.657</ele>
        <time>2020-02-28T03:04:53Z</time>
      </trkpt>
      <trkpt lat="40.198380" lon="-5.107510">
        <ele>529.522</ele>
        <time>2020-02-28T03:05:13Z</time>
      </trkpt>
      <trkpt lat="40.198340" lon="-5.107490">
        <ele>530.308</ele>
        <time>2020-02-28T03:05:33Z</time>
      </trkpt>
      <trkpt lat="40.198190" lon="-5.107450">
        <ele>534.093</ele>
        <time>2020-02-28T03:05:53Z</time>
      </trkpt>
      <trkpt lat="40.198170" lon="-5.107450">
        <ele>534.746</ele>
        <time>2020-02-28T03:06:13Z</time>
      </trkpt>
      <trkpt lat="40.198120" lon="-5.107440">
        <ele>536.061</ele>
        <time>2020-02-28T03:06:33Z</time>
      </trkpt>
      <trkpt lat="40.198070" lon="-5.107420">
        <ele>536.652</ele>
        <time>2020-02-28T03:06:53Z</time>
      </trkpt>
      <trkpt lat="40.198010" lon="-5.107380">
        <ele>536.715</ele>
        <time>2020-02-28T03:07:13Z</time>
      </trkpt>
      <trkpt lat="40.198000" lon="-5.107380">
        <ele>537.234</ele>
        <time>2020-02-28T03:07:33Z</time>
      </trkpt>
      <trkpt lat="40.197420" lon="-5.106950">
        <ele>537.895</ele>
        <time>2020-02-28T03:07:53Z</time>
      </trkpt>
      <trkpt lat="40.197220" lon="-5.106830">
        <ele>540.382</ele>
        <time>2020-02-28T03:08:13Z</time>
      </trkpt>
      <trkpt lat="40.196870" lon="-5.106760">
        <ele>541.824</ele>
        <time>2020-02-28T03:08:33Z</time>
      </trkpt>
      <trkpt lat="40.196500" lon="-5.106650">
        <ele>541.204</ele>
        <time>2020-02-28T03:08:53Z</time>
      </trkpt>
      <trkpt lat="40.196490" lon="-5.106640">
        <ele>540.914</ele>
        <time>2020-02-28T03:09:13Z</time>
      </trkpt>
      <trkpt lat="40.196460" lon="-5.106640">
        <ele>541.208</ele>
        <time>2020-02-28T03:09:33Z</time>
      </trkpt>
      <trkpt lat="40.196200" lon="-5.106710">
        <ele>545.746</ele>
        <time>2020-02-28T03:09:53Z</time>
      </trkpt>
      <trkpt lat="40.196150" lon="-5.106730">
        <ele>546.429</ele>
        <time>2020-02-28T03:10:13Z</time>
      </trkpt>
      <trkpt lat="40.196140" lon="-5.106740">
        <ele>546.824</ele>
        <time>2020-02-28T03:10:33Z</time>
      </trkpt>
      <trkpt lat="40.196080" lon="-5.106760">
        <ele>546.615</ele>
        <time>2020-02-28T03:10:53Z</time>
      </trkpt>
      <trkpt lat="40.196030" lon="-5.106820">
        <ele>546.868</ele>
        <time>2020-02-28T03:11:13Z</time>
      </trkpt>
      <trkpt lat="40.195830" lon="-5.107210">
        <ele>550.627</ele>
        <time>2020-02-28T03:11:33Z</time>
      </trkpt>
      <trkpt lat="40.195780" lon="-5.107260">
        <ele>551.258</ele>
        <time>2020-02-28T03:11:53Z</time>
      </trkpt>
      <trkpt lat="40.195530" lon="-5.107450">
        <ele>550.335</ele>
        <time>2020-02-28T03:12:13Z</time>
      </trkpt>
      <trkpt lat="40.195470" lon="-5.107540">
        <ele>550.522</ele>
        <time>2020-02-28T03:12:33Z</time>
      </trkpt>
      <trkpt lat="40.195410" lon="-5.107680">
        <ele>551.362</ele>
        <time>2020-02-28T03:12:53Z</time>
      </trkpt>
      <trkpt lat="40.195390" lon="-5.107780">
        <ele>552.408</ele>
        <time>2020-02-28T03:13:13Z</time>
      </trkpt>
      <trkpt lat="40.195380" lon="-5.107890">
        <ele>553.108</ele>
        <time>2020-02-28T03:13:33Z</time>
      </trkpt>
      <trkpt lat="40.195380" lon="-5.108310">
        <ele>556.156</ele>
        <time>2020-02-28T03:13:53Z</time>
      </trkpt>
      <trkpt lat="40.195320" lon="-5.109300">
        <ele>561.249</ele>
        <time>2020-02-28T03:14:13Z</time>
      </trkpt>
      <trkpt lat="40.195340" lon="-5.110540">
        <ele>565.034</ele>
        <time>2020-02-28T03:14:33Z</time>
      </trkpt>
      <trkpt lat="40.195320" lon="-5.111670">
        <ele>569.825</ele>
        <time>2020-02-28T03:14:53Z</time>
      </trkpt>
      <trkpt lat="40.195300" lon="-5.111710">
        <ele>569.258</ele>
        <time>2020-02-28T03:15:13Z</time>
      </trkpt>
      <trkpt lat="40.195300" lon="-5.111740">
        <ele>569.427</ele>
        <time>2020-02-28T03:15:33Z</time>
      </trkpt>
      <trkpt lat="40.195280" lon="-5.111770">
        <ele>568.868</ele>
        <time>2020-02-28T03:15:53Z</time>
      </trkpt>
      <trkpt lat="40.195270" lon="-5.111810">
        <ele>569.065</ele>
        <time>2020-02-28T03:16:13Z</time>
      </trkpt>
      <trkpt lat="40.195200" lon="-5.111900">
        <ele>569.336</ele>
        <time>2020-02-28T03:16:33Z</time>
      </trkpt>
      <trkpt lat="40.195150" lon="-5.111950">
        <ele>569.617</ele>
        <time>2020-02-28T03:16:53Z</time>
      </trkpt>
      <trkpt lat="40.195090" lon="-5.111970">
        <ele>569.818</ele>
        <time>2020-02-28T03:17:13Z</time>
      </trkpt>
      <trkpt lat="40.195070" lon="-5.111970">
        <ele>569.708</ele>
        <time>2020-02-28T03:17:33Z</time>
      </trkpt>
      <trkpt lat="40.195050" lon="-5.111960">
        <ele>569.597</ele>
        <time>2020-02-28T03:17:53Z</time>
      </trkpt>
      <trkpt lat="40.195040" lon="-5.111960">
        <ele>569.460</ele>
        <time>2020-02-28T03:18:13Z</time>
      </trkpt>
      <trkpt lat="40.194970" lon="-5.111910">
        <ele>569.455</ele>
        <time>2020-02-28T03:18:33Z</time>
      </trkpt>
      <trkpt lat="40.194890" lon="-5.111820">
        <ele>570.356</ele>
        <time>2020-02-28T03:18:53Z</time>
      </trkpt>
      <trkpt lat="40.194750" lon="-5.111580">
        <ele>570.939</ele>
        <time>2020-02-28T03:19:13Z</time>
      </trkpt>
      <trkpt lat="40.194550" lon="-5.111280">
        <ele>572.768</ele>
        <time>2020-02-28T03:19:33Z</time>
      </trkpt>
      <trkpt lat="40.194460" lon="-5.111170">
        <ele>574.339</ele>
        <time>2020-02-28T03:19:53Z</time>
      </trkpt>
      <trkpt lat="40.194410" lon="-5.111130">
        <ele>575.016</ele>
        <time>2020-02-28T03:20:13Z</time>
      </trkpt>
      <trkpt lat="40.194290" lon="-5.111010">
        <ele>575.897</ele>
        <time>2020-02-28T03:20:33Z</time>
      </trkpt>
      <trkpt lat="40.194060" lon="-5.110840">
        <ele>577.823</ele>
        <time>2020-02-28T03:20:53Z</time>
      </trkpt>
      <trkpt lat="40.193930" lon="-5.110670">
        <ele>578.625</ele>
        <time>2020-02-28T03:21:13Z</time>
      </trkpt>
      <trkpt lat="40.193670" lon="-5.110220">
        <ele>578.908</ele>
        <time>2020-02-28T03:21:33Z</time>
      </trkpt>
      <trkpt lat="40.193500" lon="-5.109960">
        <ele>579.673</ele>
        <time>2020-02-28T03:21:53Z</time>
      </trkpt>
      <trkpt lat="40.193330" lon="-5.109760">
        <ele>580.866</ele>
        <time>2020-02-28T03:22:13Z</time>
      </trkpt>
      <trkpt lat="40.193100" lon="-5.109550">
        <ele>583.831</ele>
        <time>2020-02-28T03:22:33Z</time>
      </trkpt>
      <trkpt lat="40.193100" lon="-5.109540">
        <ele>583.622</ele>
        <time>2020-02-28T03:22:53Z</time>
      </trkpt>
      <trkpt lat="40.192950" lon="-5.109330">
        <ele>584.295</ele>
        <time>2020-02-28T03:23:13Z</time>
      </trkpt>
      <trkpt lat="40.192770" lon="-5.109010">
        <ele>584.954</ele>
        <time>2020-02-28T03:23:33Z</time>
      </trkpt>
      <trkpt lat="40.192690" lon="-5.108910">
        <ele>584.945</ele>
        <time>2020-02-28T03:23:53Z</time>
      </trkpt>
      <trkpt lat="40.192590" lon="-5.108820">
        <ele>585.662</ele>
        <time>2020-02-28T03:24:13Z</time>
      </trkpt>
      <trkpt lat="40.192390" lon="-5.108750">
        <ele>588.195</ele>
        <time>2020-02-28T03:24:33Z</time>
      </trkpt>
      <trkpt lat="40.192280" lon="-5.108700">
        <ele>589.149</ele>
        <time>2020-02-28T03:24:53Z</time>
      </trkpt>
      <trkpt lat="40.192180" lon="-5.108670">
        <ele>590.323</ele>
        <time>2020-02-28T03:25:13Z</time>
      </trkpt>
      <trkpt lat="40.191990" lon="-5.108590">
        <ele>592.008</ele>
        <time>2020-02-28T03:25:33Z</time>
      </trkpt>
      <trkpt lat="40.191760" lon="-5.108540">
        <ele>594.553</ele>
        <time>2020-02-28T03:25:53Z</time>
      </trkpt>
      <trkpt lat="40.191510" lon="-5.108570">
        <ele>597.226</ele>
        <time>2020-02-28T03:26:13Z</time>
      </trkpt>
      <trkpt lat="40.191310" lon="-5.108640">
        <ele>599.831</ele>
        <time>2020-02-28T03:26:33Z</time>
      </trkpt>
      <trkpt lat="40.191140" lon="-5.108740">
        <ele>602.242</ele>
        <time>2020-02-28T03:26:53Z</time>
      </trkpt>
      <trkpt lat="40.191050" lon="-5.108780">
        <ele>603.315</ele>
        <time>2020-02-28T03:27:13Z</time>
      </trkpt>
      <trkpt lat="40.190960" lon="-5.108800">
        <ele>603.914</ele>
        <time>2020-02-28T03:27:33Z</time>
      </trkpt>
      <trkpt lat="40.190890" lon="-5.108770">
        <ele>603.785</ele>
        <time>2020-02-28T03:27:53Z</time>
      </trkpt>
      <trkpt lat="40.190840" lon="-5.108760">
        <ele>603.752</ele>
        <time>2020-02-28T03:28:13Z</time>
      </trkpt>
      <trkpt lat="40.190770" lon="-5.108700">
        <ele>604.424</ele>
        <time>2020-02-28T03:28:33Z</time>
      </trkpt>
      <trkpt lat="40.190740" lon="-5.108660">
        <ele>604.504</ele>
        <time>2020-02-28T03:28:53Z</time>
      </trkpt>
      <trkpt lat="40.190710" lon="-5.108600">
        <ele>604.414</ele>
        <time>2020-02-28T03:29:13Z</time>
      </trkpt>
      <trkpt lat="40.190670" lon="-5.108440">
        <ele>604.008</ele>
        <time>2020-02-28T03:29:33Z</time>
      </trkpt>
      <trkpt lat="40.190660" lon="-5.108360">
        <ele>603.536</ele>
        <time>2020-02-28T03:29:53Z</time>
      </trkpt>
      <trkpt lat="40.190580" lon="-5.107990">
        <ele>603.549</ele>
        <time>2020-02-28T03:30:13Z</time>
      </trkpt>
      <trkpt lat="40.190310" lon="-5.107110">
        <ele>606.634</ele>
        <time>2020-02-28T03:30:33Z</time>
      </trkpt>
      <trkpt lat="40.190310" lon="-5.107090">
        <ele>606.585</ele>
        <time>2020-02-28T03:30:53Z</time>
      </trkpt>
      <trkpt lat="40.190250" lon="-5.106900">
        <ele>607.918</ele>
        <time>2020-02-28T03:31:13Z</time>
      </trkpt>
      <trkpt lat="40.190170" lon="-5.106740">
        <ele>610.257</ele>
        <time>2020-02-28T03:31:33Z</time>
      </trkpt>
      <trkpt lat="40.190140" lon="-5.106710">
        <ele>611.278</ele>
        <time>2020-02-28T03:31:53Z</time>
      </trkpt>
      <trkpt lat="40.190070" lon="-5.106710">
        <ele>613.855</ele>
        <time>2020-02-28T03:32:13Z</time>
      </trkpt>
      <trkpt lat="40.190050" lon="-5.106730">
        <ele>614.651</ele>
        <time>2020-02-28T03:32:33Z</time>
      </trkpt>
      <trkpt lat="40.190050" lon="-5.106750">
        <ele>614.701</ele>
        <time>2020-02-28T03:32:53Z</time>
      </trkpt>
      <trkpt lat="40.190030" lon="-5.106790">
        <ele>615.811</ele>
        <time>2020-02-28T03:33:13Z</time>
      </trkpt>
      <trkpt lat="40.190030" lon="-5.106860">
        <ele>616.208</ele>
        <time>2020-02-28T03:33:33Z</time>
      </trkpt>
      <trkpt lat="40.190060" lon="-5.107030">
        <ele>616.059</ele>
        <time>2020-02-28T03:33:53Z</time>
      </trkpt>
      <trkpt lat="40.190180" lon="-5.107520">
        <ele>614.322</ele>
        <time>2020-02-28T03:34:13Z</time>
      </trkpt>
      <trkpt lat="40.190220" lon="-5.107750">
        <ele>614.557</ele>
        <time>2020-02-28T03:34:33Z</time>
      </trkpt>
      <trkpt lat="40.190240" lon="-5.107990">
        <ele>615.648</ele>
        <time>2020-02-28T03:34:53Z</time>
      </trkpt>
      <trkpt lat="40.190220" lon="-5.108750">
        <ele>621.121</ele>
        <time>2020-02-28T03:35:13Z</time>
      </trkpt>
      <trkpt lat="40.190250" lon="-5.108920">
        <ele>622.120</ele>
        <time>2020-02-28T03:35:33Z</time>
      </trkpt>
      <trkpt lat="40.190250" lon="-5.108980">
        <ele>622.951</ele>
        <time>2020-02-28T03:35:53Z</time>
      </trkpt>
      <trkpt lat="40.190380" lon="-5.109250">
        <ele>624.848</ele>
        <time>2020-02-28T03:36:13Z</time>
      </trkpt>
      <trkpt lat="40.190510" lon="-5.109420">
        <ele>626.146</ele>
        <time>2020-02-28T03:36:33Z</time>
      </trkpt>
      <trkpt lat="40.190730" lon="-5.109560">
        <ele>626.088</ele>
        <time>2020-02-28T03:36:53Z</time>
      </trkpt>
      <trkpt lat="40.190890" lon="-5.109690">
        <ele>626.616</ele>
        <time>2020-02-28T03:37:13Z</time>
      </trkpt>
      <trkpt lat="40.191030" lon="-5.109830">
        <ele>627.108</ele>
        <time>2020-02-28T03:37:33Z</time>
      </trkpt>
      <trkpt lat="40.191140" lon="-5.109920">
        <ele>627.078</ele>
        <time>2020-02-28T03:37:53Z</time>
      </trkpt>
      <trkpt lat="40.191170" lon="-5.109970">
        <ele>627.271</ele>
        <time>2020-02-28T03:38:13Z</time>
      </trkpt>
      <trkpt lat="40.191250" lon="-5.110070">
        <ele>626.546</ele>
        <time>2020-02-28T03:38:33Z</time>
      </trkpt>
      <trkpt lat="40.191330" lon="-5.110230">
        <ele>625.917</ele>
        <time>2020-02-28T03:38:53Z</time>
      </trkpt>
      <trkpt lat="40.191360" lon="-5.110370">
        <ele>626.670</ele>
        <time>2020-02-28T03:39:13Z</time>
      </trkpt>
      <trkpt lat="40.191370" lon="-5.110520">
        <ele>627.989</ele>
        <time>2020-02-28T03:39:33Z</time>
      </trkpt>
      <trkpt lat="40.191360" lon="-5.110600">
        <ele>628.720</ele>
        <time>2020-02-28T03:39:53Z</time>
      </trkpt>
      <trkpt lat="40.191360" lon="-5.110710">
        <ele>629.557</ele>
        <time>2020-02-28T03:40:13Z</time>
      </trkpt>
      <trkpt lat="40.191340" lon="-5.110890">
        <ele>630.653</ele>
        <time>2020-02-28T03:40:33Z</time>
      </trkpt>
      <trkpt lat="40.191290" lon="-5.111060">
        <ele>631.604</ele>
        <time>2020-02-28T03:40:53Z</time>
      </trkpt>
      <trkpt lat="40.191280" lon="-5.111130">
        <ele>631.914</ele>
        <time>2020-02-28T03:41:13Z</time>
      </trkpt>
      <trkpt lat="40.191020" lon="-5.111900">
        <ele>638.808</ele>
        <time>2020-02-28T03:41:33Z</time>
      </trkpt>
      <trkpt lat="40.191020" lon="-5.111930">
        <ele>638.999</ele>
        <time>2020-02-28T03:41:53Z</time>
      </trkpt>
      <trkpt lat="40.190880" lon="-5.112360">
        <ele>641.012</ele>
        <time>2020-02-28T03:42:13Z</time>
      </trkpt>
      <trkpt lat="40.190860" lon="-5.112450">
        <ele>641.127</ele>
        <time>2020-02-28T03:42:33Z</time>
      </trkpt>
      <trkpt lat="40.190840" lon="-5.112650">
        <ele>641.048</ele>
        <time>2020-02-28T03:42:53Z</time>
      </trkpt>
      <trkpt lat="40.190840" lon="-5.112950">
        <ele>641.111</ele>
        <time>2020-02-28T03:43:13Z</time>
      </trkpt>
      <trkpt lat="40.190890" lon="-5.113350">
        <ele>642.110</ele>
        <time>2020-02-28T03:43:33Z</time>
      </trkpt>
      <trkpt lat="40.190890" lon="-5.113630">
        <ele>644.231</ele>
        <time>2020-02-28T03:43:53Z</time>
      </trkpt>
      <trkpt lat="40.190880" lon="-5.113760">
        <ele>644.988</ele>
        <time>2020-02-28T03:44:13Z</time>
      </trkpt>
      <trkpt lat="40.190640" lon="-5.114760">
        <ele>644.789</ele>
        <time>2020-02-28T03:44:33Z</time>
      </trkpt>
      <trkpt lat="40.190420" lon="-5.115500">
        <ele>646.106</ele>
        <time>2020-02-28T03:44:53Z</time>
      </trkpt>
      <trkpt lat="40.190060" lon="-5.116900">
        <ele>645.526</ele>
        <time>2020-02-28T03:45:13Z</time>
      </trkpt>
      <trkpt lat="40.190050" lon="-5.117040">
        <ele>644.808</ele>
        <time>2020-02-28T03:45:33Z</time>
      </trkpt>
      <trkpt lat="40.190040" lon="-5.117060">
        <ele>644.582</ele>
        <time>2020-02-28T03:45:53Z</time>
      </trkpt>
      <trkpt lat="40.190030" lon="-5.117190">
        <ele>643.915</ele>
        <time>2020-02-28T03:46:13Z</time>
      </trkpt>
      <trkpt lat="40.190050" lon="-5.117510">
        <ele>643.020</ele>
        <time>2020-02-28T03:46:33Z</time>
      </trkpt>
      <trkpt lat="40.190100" lon="-5.117670">
        <ele>643.391</ele>
        <time>2020-02-28T03:46:53Z</time>
      </trkpt>
      <trkpt lat="40.190110" lon="-5.117730">
        <ele>643.274</ele>
        <time>2020-02-28T03:47:13Z</time>
      </trkpt>
      <trkpt lat="40.190120" lon="-5.117740">
        <ele>643.453</ele>
        <time>2020-02-28T03:47:33Z</time>
      </trkpt>
      <trkpt lat="40.190140" lon="-5.117790">
        <ele>643.484</ele>
        <time>2020-02-28T03:47:53Z</time>
      </trkpt>
      <trkpt lat="40.190250" lon="-5.117940">
        <ele>644.321</ele>
        <time>2020-02-28T03:48:13Z</time>
      </trkpt>
      <trkpt lat="40.190370" lon="-5.118040">
        <ele>645.184</ele>
        <time>2020-02-28T03:48:33Z</time>
      </trkpt>
      <trkpt lat="40.190370" lon="-5.118050">
        <ele>645.007</ele>
        <time>2020-02-28T03:48:53Z</time>
      </trkpt>
      <trkpt lat="40.190460" lon="-5.118120">
        <ele>645.617</ele>
        <time>2020-02-28T03:49:13Z</time>
      </trkpt>
      <trkpt lat="40.190530" lon="-5.118220">
        <ele>645.608</ele>
        <time>2020-02-28T03:49:33Z</time>
      </trkpt>
      <trkpt lat="40.190550" lon="-5.118270">
        <ele>645.472</ele>
        <time>2020-02-28T03:49:53Z</time>
      </trkpt>
      <trkpt lat="40.190600" lon="-5.118500">
        <ele>644.915</ele>
        <time>2020-02-28T03:50:13Z</time>
      </trkpt>
      <trkpt lat="40.190660" lon="-5.119110">
        <ele>641.550</ele>
        <time>2020-02-28T03:50:33Z</time>
      </trkpt>
      <trkpt lat="40.190690" lon="-5.119250">
        <ele>640.521</ele>
        <time>2020-02-28T03:50:53Z</time>
      </trkpt>
      <trkpt lat="40.190710" lon="-5.119310">
        <ele>640.274</ele>
        <time>2020-02-28T03:51:13Z</time>
      </trkpt>
      <trkpt lat="40.190720" lon="-5.119320">
        <ele>640.233</ele>
        <time>2020-02-28T03:51:33Z</time>
      </trkpt>
      <trkpt lat="40.190720" lon="-5.119330">
        <ele>640.144</ele>
        <time>2020-02-28T03:51:53Z</time>
      </trkpt>
      <trkpt lat="40.190730" lon="-5.119330">
        <ele>640.391</ele>
        <time>2020-02-28T03:52:13Z</time>
      </trkpt>
      <trkpt lat="40.190760" lon="-5.119360">
        <ele>640.476</ele>
        <time>2020-02-28T03:52:33Z</time>
      </trkpt>
      <trkpt lat="40.190780" lon="-5.119370">
        <ele>640.790</ele>
        <time>2020-02-28T03:52:53Z</time>
      </trkpt>
      <trkpt lat="40.190850" lon="-5.119380">
        <ele>641.619</ele>
        <time>2020-02-28T03:53:13Z</time>
      </trkpt>
      <trkpt lat="40.191000" lon="-5.119420">
        <ele>641.908</ele>
        <time>2020-02-28T03:53:33Z</time>
      </trkpt>
      <trkpt lat="40.191050" lon="-5.119450">
        <ele>641.791</ele>
        <time>2020-02-28T03:53:53Z</time>
      </trkpt>
      <trkpt lat="40.191060" lon="-5.119470">
        <ele>641.494</ele>
        <time>2020-02-28T03:54:13Z</time>
      </trkpt>
      <trkpt lat="40.191070" lon="-5.119480">
        <ele>641.359</ele>
        <time>2020-02-28T03:54:33Z</time>
      </trkpt>
      <trkpt lat="40.191130" lon="-5.119610">
        <ele>640.040</ele>
        <time>2020-02-28T03:54:53Z</time>
      </trkpt>
      <trkpt lat="40.191140" lon="-5.119650">
        <ele>639.613</ele>
        <time>2020-02-28T03:55:13Z</time>
      </trkpt>
      <trkpt lat="40.191140" lon="-5.119670">
        <ele>639.392</ele>
        <time>2020-02-28T03:55:33Z</time>
      </trkpt>
      <trkpt lat="40.191190" lon="-5.119900">
        <ele>636.083</ele>
        <time>2020-02-28T03:55:53Z</time>
      </trkpt>
      <trkpt lat="40.191270" lon="-5.120110">
        <ele>633.670</ele>
        <time>2020-02-28T03:56:13Z</time>
      </trkpt>
      <trkpt lat="40.191370" lon="-5.120260">
        <ele>632.239</ele>
        <time>2020-02-28T03:56:33Z</time>
      </trkpt>
      <trkpt lat="40.191410" lon="-5.120300">
        <ele>632.201</ele>
        <time>2020-02-28T03:56:53Z</time>
      </trkpt>
      <trkpt lat="40.191540" lon="-5.120380">
        <ele>633.821</ele>
        <time>2020-02-28T03:57:13Z</time>
      </trkpt>
      <trkpt lat="40.191550" lon="-5.120390">
        <ele>633.908</ele>
        <time>2020-02-28T03:57:33Z</time>
      </trkpt>
      <trkpt lat="40.191660" lon="-5.120450">
        <ele>635.077</ele>
        <time>2020-02-28T03:57:53Z</time>
      </trkpt>
      <trkpt lat="40.191690" lon="-5.120520">
        <ele>634.910</ele>
        <time>2020-02-28T03:58:13Z</time>
      </trkpt>
      <trkpt lat="40.191690" lon="-5.120700">
        <ele>635.965</ele>
        <time>2020-02-28T03:58:33Z</time>
      </trkpt>
      <trkpt lat="40.191660" lon="-5.120790">
        <ele>636.556</ele>
        <time>2020-02-28T03:58:53Z</time>
      </trkpt>
      <trkpt lat="40.191660" lon="-5.120800">
        <ele>636.649</ele>
        <time>2020-02-28T03:59:13Z</time>
      </trkpt>
      <trkpt lat="40.191610" lon="-5.120910">
        <ele>638.388</ele>
        <time>2020-02-28T03:59:33Z</time>
      </trkpt>
      <trkpt lat="40.191580" lon="-5.120940">
        <ele>638.979</ele>
        <time>2020-02-28T03:59:53Z</time>
      </trkpt>
      <trkpt lat="40.191580" lon="-5.120950">
        <ele>639.136</ele>
        <time>2020-02-28T04:00:13Z</time>
      </trkpt>
      <trkpt lat="40.191570" lon="-5.120950">
        <ele>639.189</ele>
        <time>2020-02-28T04:00:33Z</time>
      </trkpt>
      <trkpt lat="40.191510" lon="-5.120980">
        <ele>640.006</ele>
        <time>2020-02-28T04:00:53Z</time>
      </trkpt>
      <trkpt lat="40.191460" lon="-5.120990">
        <ele>640.426</ele>
        <time>2020-02-28T04:01:13Z</time>
      </trkpt>
      <trkpt lat="40.191400" lon="-5.120990">
        <ele>640.608</ele>
        <time>2020-02-28T04:01:33Z</time>
      </trkpt>
      <trkpt lat="40.191050" lon="-5.120910">
        <ele>639.912</ele>
        <time>2020-02-28T04:01:53Z</time>
      </trkpt>
      <trkpt lat="40.190690" lon="-5.120910">
        <ele>642.135</ele>
        <time>2020-02-28T04:02:13Z</time>
      </trkpt>
      <trkpt lat="40.190210" lon="-5.121030">
        <ele>643.520</ele>
        <time>2020-02-28T04:02:33Z</time>
      </trkpt>
      <trkpt lat="40.189890" lon="-5.121140">
        <ele>642.281</ele>
        <time>2020-02-28T04:02:53Z</time>
      </trkpt>
      <trkpt lat="40.189790" lon="-5.121210">
        <ele>642.044</ele>
        <time>2020-02-28T04:03:13Z</time>
      </trkpt>
      <trkpt lat="40.189680" lon="-5.121370">
        <ele>642.253</ele>
        <time>2020-02-28T04:03:33Z</time>
      </trkpt>
      <trkpt lat="40.189590" lon="-5.121630">
        <ele>644.254</ele>
        <time>2020-02-28T04:03:53Z</time>
      </trkpt>
      <trkpt lat="40.189560" lon="-5.121790">
        <ele>645.211</ele>
        <time>2020-02-28T04:04:13Z</time>
      </trkpt>
      <trkpt lat="40.189520" lon="-5.122150">
        <ele>646.491</ele>
        <time>2020-02-28T04:04:33Z</time>
      </trkpt>
      <trkpt lat="40.189530" lon="-5.122540">
        <ele>645.481</ele>
        <time>2020-02-28T04:04:53Z</time>
      </trkpt>
      <trkpt lat="40.189560" lon="-5.122680">
        <ele>644.619</ele>
        <time>2020-02-28T04:05:13Z</time>
      </trkpt>
      <trkpt lat="40.189580" lon="-5.122720">
        <ele>644.608</ele>
        <time>2020-02-28T04:05:33Z</time>
      </trkpt>
      <trkpt lat="40.189580" lon="-5.122730">
        <ele>644.493</ele>
        <time>2020-02-28T04:05:53Z</time>
      </trkpt>
      <trkpt lat="40.189680" lon="-5.122850">
        <ele>646.456</ele>
        <time>2020-02-28T04:06:13Z</time>
      </trkpt>
      <trkpt lat="40.189700" lon="-5.122890">
        <ele>647.061</ele>
        <time>2020-02-28T04:06:33Z</time>
      </trkpt>
      <trkpt lat="40.189760" lon="-5.122960">
        <ele>648.712</ele>
        <time>2020-02-28T04:06:53Z</time>
      </trkpt>
      <trkpt lat="40.189820" lon="-5.123080">
        <ele>650.625</ele>
        <time>2020-02-28T04:07:13Z</time>
      </trkpt>
      <trkpt lat="40.189840" lon="-5.123160">
        <ele>651.614</ele>
        <time>2020-02-28T04:07:33Z</time>
      </trkpt>
      <trkpt lat="40.189850" lon="-5.123300">
        <ele>652.625</ele>
        <time>2020-02-28T04:07:53Z</time>
      </trkpt>
      <trkpt lat="40.189840" lon="-5.123400">
        <ele>653.042</ele>
        <time>2020-02-28T04:08:13Z</time>
      </trkpt>
      <trkpt lat="40.189660" lon="-5.124050">
        <ele>654.638</ele>
        <time>2020-02-28T04:08:33Z</time>
      </trkpt>
      <trkpt lat="40.189550" lon="-5.124350">
        <ele>655.070</ele>
        <time>2020-02-28T04:08:53Z</time>
      </trkpt>
      <trkpt lat="40.189290" lon="-5.125220">
        <ele>657.017</ele>
        <time>2020-02-28T04:09:13Z</time>
      </trkpt>
      <trkpt lat="40.189160" lon="-5.125740">
        <ele>658.708</ele>
        <time>2020-02-28T04:09:33Z</time>
      </trkpt>
      <trkpt lat="40.189120" lon="-5.126050">
        <ele>657.627</ele>
        <time>2020-02-28T04:09:53Z</time>
      </trkpt>
      <trkpt lat="40.189120" lon="-5.126170">
        <ele>657.340</ele>
        <time>2020-02-28T04:10:13Z</time>
      </trkpt>
      <trkpt lat="40.189100" lon="-5.126400">
        <ele>656.365</ele>
        <time>2020-02-28T04:10:33Z</time>
      </trkpt>
      <trkpt lat="40.189070" lon="-5.127540">
        <ele>659.466</ele>
        <time>2020-02-28T04:10:53Z</time>
      </trkpt>
      <trkpt lat="40.189060" lon="-5.127580">
        <ele>659.489</ele>
        <time>2020-02-28T04:11:13Z</time>
      </trkpt>
      <trkpt lat="40.189060" lon="-5.127630">
        <ele>659.558</ele>
        <time>2020-02-28T04:11:33Z</time>
      </trkpt>
      <trkpt lat="40.189010" lon="-5.127780">
        <ele>659.249</ele>
        <time>2020-02-28T04:11:53Z</time>
      </trkpt>
      <trkpt lat="40.189000" lon="-5.127790">
        <ele>659.196</ele>
        <time>2020-02-28T04:12:13Z</time>
      </trkpt>
      <trkpt lat="40.188980" lon="-5.127830">
        <ele>659.084</ele>
        <time>2020-02-28T04:12:33Z</time>
      </trkpt>
      <trkpt lat="40.188880" lon="-5.127950">
        <ele>658.107</ele>
        <time>2020-02-28T04:12:53Z</time>
      </trkpt>
      <trkpt lat="40.188870" lon="-5.127950">
        <ele>657.917</ele>
        <time>2020-02-28T04:13:13Z</time>
      </trkpt>
      <trkpt lat="40.188760" lon="-5.128040">
        <ele>657.008</ele>
        <time>2020-02-28T04:13:33Z</time>
      </trkpt>
      <trkpt lat="40.188730" lon="-5.128050">
        <ele>656.692</ele>
        <time>2020-02-28T04:13:53Z</time>
      </trkpt>
      <trkpt lat="40.188710" lon="-5.128050">
        <ele>656.315</ele>
        <time>2020-02-28T04:14:13Z</time>
      </trkpt>
      <trkpt lat="40.188690" lon="-5.128060">
        <ele>656.330</ele>
        <time>2020-02-28T04:14:33Z</time>
      </trkpt>
      <trkpt lat="40.188580" lon="-5.128060">
        <ele>655.881</ele>
        <time>2020-02-28T04:14:53Z</time>
      </trkpt>
      <trkpt lat="40.188530" lon="-5.128040">
        <ele>656.544</ele>
        <time>2020-02-28T04:15:13Z</time>
      </trkpt>
      <trkpt lat="40.188410" lon="-5.127940">
        <ele>657.323</ele>
        <time>2020-02-28T04:15:33Z</time>
      </trkpt>
      <trkpt lat="40.188350" lon="-5.127830">
        <ele>656.664</ele>
        <time>2020-02-28T04:15:53Z</time>
      </trkpt>
      <trkpt lat="40.188240" lon="-5.127540">
        <ele>657.391</ele>
        <time>2020-02-28T04:16:13Z</time>
      </trkpt>
      <trkpt lat="40.188090" lon="-5.127060">
        <ele>659.116</ele>
        <time>2020-02-28T04:16:33Z</time>
      </trkpt>
      <trkpt lat="40.188090" lon="-5.127050">
        <ele>659.076</ele>
        <time>2020-02-28T04:16:53Z</time>
      </trkpt>
      <trkpt lat="40.187530" lon="-5.125270">
        <ele>668.913</ele>
        <time>2020-02-28T04:17:13Z</time>
      </trkpt>
      <trkpt lat="40.187480" lon="-5.125140">
        <ele>669.508</ele>
        <time>2020-02-28T04:17:33Z</time>
      </trkpt>
      <trkpt lat="40.187420" lon="-5.125050">
        <ele>670.135</ele>
        <time>2020-02-28T04:17:53Z</time>
      </trkpt>
      <trkpt lat="40.187320" lon="-5.124940">
        <ele>671.288</ele>
        <time>2020-02-28T04:18:13Z</time>
      </trkpt>
      <trkpt lat="40.187050" lon="-5.124780">
        <ele>674.183</ele>
        <time>2020-02-28T04:18:33Z</time>
      </trkpt>
      <trkpt lat="40.186830" lon="-5.124710">
        <ele>675.734</ele>
        <time>2020-02-28T04:18:53Z</time>
      </trkpt>
      <trkpt lat="40.186640" lon="-5.124710">
        <ele>677.177</ele>
        <time>2020-02-28T04:19:13Z</time>
      </trkpt>
      <trkpt lat="40.186430" lon="-5.124760">
        <ele>679.296</ele>
        <time>2020-02-28T04:19:33Z</time>
      </trkpt>
      <trkpt lat="40.186230" lon="-5.124870">
        <ele>680.027</ele>
        <time>2020-02-28T04:19:53Z</time>
      </trkpt>
      <trkpt lat="40.186070" lon="-5.125010">
        <ele>681.044</ele>
        <time>2020-02-28T04:20:13Z</time>
      </trkpt>
      <trkpt lat="40.185900" lon="-5.125180">
        <ele>681.748</ele>
        <time>2020-02-28T04:20:33Z</time>
      </trkpt>
      <trkpt lat="40.185680" lon="-5.125490">
        <ele>682.461</ele>
        <time>2020-02-28T04:20:53Z</time>
      </trkpt>
      <trkpt lat="40.185610" lon="-5.125620">
        <ele>682.717</ele>
        <time>2020-02-28T04:21:13Z</time>
      </trkpt>
      <trkpt lat="40.185520" lon="-5.125860">
        <ele>682.308</ele>
        <time>2020-02-28T04:21:33Z</time>
      </trkpt>
      <trkpt lat="40.185330" lon="-5.126610">
        <ele>681.748</ele>
        <time>2020-02-28T04:21:53Z</time>
      </trkpt>
      <trkpt lat="40.185210" lon="-5.126940">
        <ele>681.571</ele>
        <time>2020-02-28T04:22:13Z</time>
      </trkpt>
      <trkpt lat="40.184870" lon="-5.127690">
        <ele>680.296</ele>
        <time>2020-02-28T04:22:33Z</time>
      </trkpt>
      <trkpt lat="40.184610" lon="-5.128190">
        <ele>678.977</ele>
        <time>2020-02-28T04:22:53Z</time>
      </trkpt>
      <trkpt lat="40.184480" lon="-5.128480">
        <ele>678.750</ele>
        <time>2020-02-28T04:23:13Z</time>
      </trkpt>
      <trkpt lat="40.184220" lon="-5.128980">
        <ele>676.869</ele>
        <time>2020-02-28T04:23:33Z</time>
      </trkpt>
      <trkpt lat="40.183920" lon="-5.129490">
        <ele>674.010</ele>
        <time>2020-02-28T04:23:53Z</time>
      </trkpt>
      <trkpt lat="40.183610" lon="-5.130100">
        <ele>671.337</ele>
        <time>2020-02-28T04:24:13Z</time>
      </trkpt>
      <trkpt lat="40.183510" lon="-5.130350">
        <ele>670.677</ele>
        <time>2020-02-28T04:24:33Z</time>
      </trkpt>
      <trkpt lat="40.183430" lon="-5.130640">
        <ele>670.061</ele>
        <time>2020-02-28T04:24:53Z</time>
      </trkpt>
      <trkpt lat="40.183360" lon="-5.131060">
        <ele>666.827</ele>
        <time>2020-02-28T04:25:13Z</time>
      </trkpt>
      <trkpt lat="40.183300" lon="-5.131760">
        <ele>666.108</ele>
        <time>2020-02-28T04:25:33Z</time>
      </trkpt>
      <trkpt lat="40.183300" lon="-5.131860">
        <ele>667.181</ele>
        <time>2020-02-28T04:25:53Z</time>
      </trkpt>
      <trkpt lat="40.183230" lon="-5.132200">
        <ele>668.844</ele>
        <time>2020-02-28T04:26:13Z</time>
      </trkpt>
      <trkpt lat="40.183180" lon="-5.132330">
        <ele>668.999</ele>
        <time>2020-02-28T04:26:33Z</time>
      </trkpt>
      <trkpt lat="40.182970" lon="-5.132750">
        <ele>666.470</ele>
        <time>2020-02-28T04:26:53Z</time>
      </trkpt>
      <trkpt lat="40.182760" lon="-5.133250">
        <ele>663.313</ele>
        <time>2020-02-28T04:27:13Z</time>
      </trkpt>
      <trkpt lat="40.182690" lon="-5.133560">
        <ele>662.982</ele>
        <time>2020-02-28T04:27:33Z</time>
      </trkpt>
      <trkpt lat="40.182680" lon="-5.133850">
        <ele>663.743</ele>
        <time>2020-02-28T04:27:53Z</time>
      </trkpt>
      <trkpt lat="40.182750" lon="-5.134420">
        <ele>662.490</ele>
        <time>2020-02-28T04:28:13Z</time>
      </trkpt>
      <trkpt lat="40.182810" lon="-5.134670">
        <ele>662.271</ele>
        <time>2020-02-28T04:28:33Z</time>
      </trkpt>
      <trkpt lat="40.182980" lon="-5.135200">
        <ele>660.141</ele>
        <time>2020-02-28T04:28:53Z</time>
      </trkpt>
      <trkpt lat="40.183000" lon="-5.135290">
        <ele>659.515</ele>
        <time>2020-02-28T04:29:13Z</time>
      </trkpt>
      <trkpt lat="40.183030" lon="-5.135530">
        <ele>658.408</ele>
        <time>2020-02-28T04:29:33Z</time>
      </trkpt>
      <trkpt lat="40.183020" lon="-5.135600">
        <ele>659.341</ele>
        <time>2020-02-28T04:29:53Z</time>
      </trkpt>
      <trkpt lat="40.182990" lon="-5.135710">
        <ele>662.144</ele>
        <time>2020-02-28T04:30:13Z</time>
      </trkpt>
      <trkpt lat="40.182960" lon="-5.135770">
        <ele>663.439</ele>
        <time>2020-02-28T04:30:33Z</time>
      </trkpt>
      <trkpt lat="40.182880" lon="-5.135890">
        <ele>665.680</ele>
        <time>2020-02-28T04:30:53Z</time>
      </trkpt>
      <trkpt lat="40.182830" lon="-5.135940">
        <ele>665.983</ele>
        <time>2020-02-28T04:31:13Z</time>
      </trkpt>
      <trkpt lat="40.182410" lon="-5.136290">
        <ele>662.732</ele>
        <time>2020-02-28T04:31:33Z</time>
      </trkpt>
      <trkpt lat="40.182170" lon="-5.136540">
        <ele>659.013</ele>
        <time>2020-02-28T04:31:53Z</time>
      </trkpt>
      <trkpt lat="40.181940" lon="-5.136940">
        <ele>658.850</ele>
        <time>2020-02-28T04:32:13Z</time>
      </trkpt>
      <trkpt lat="40.181330" lon="-5.137860">
        <ele>652.414</ele>
        <time>2020-02-28T04:32:33Z</time>
      </trkpt>
      <trkpt lat="40.181200" lon="-5.138110">
        <ele>651.354</ele>
        <time>2020-02-28T04:32:53Z</time>
      </trkpt>
      <trkpt lat="40.181070" lon="-5.138400">
        <ele>648.809</ele>
        <time>2020-02-28T04:33:13Z</time>
      </trkpt>
      <trkpt lat="40.180990" lon="-5.138640">
        <ele>646.708</ele>
        <time>2020-02-28T04:33:33Z</time>
      </trkpt>
      <trkpt lat="40.180950" lon="-5.138880">
        <ele>645.635</ele>
        <time>2020-02-28T04:33:53Z</time>
      </trkpt>
      <trkpt lat="40.180970" lon="-5.139500">
        <ele>647.018</ele>
        <time>2020-02-28T04:34:13Z</time>
      </trkpt>
      <trkpt lat="40.181040" lon="-5.140000">
        <ele>645.783</ele>
        <time>2020-02-28T04:34:33Z</time>
      </trkpt>
      <trkpt lat="40.181100" lon="-5.140280">
        <ele>643.664</ele>
        <time>2020-02-28T04:34:53Z</time>
      </trkpt>
      <trkpt lat="40.181180" lon="-5.140530">
        <ele>641.457</ele>
        <time>2020-02-28T04:35:13Z</time>
      </trkpt>
      <trkpt lat="40.181250" lon="-5.140640">
        <ele>640.646</ele>
        <time>2020-02-28T04:35:33Z</time>
      </trkpt>
      <trkpt lat="40.181390" lon="-5.140760">
        <ele>641.127</ele>
        <time>2020-02-28T04:35:53Z</time>
      </trkpt>
      <trkpt lat="40.181480" lon="-5.140820">
        <ele>640.974</ele>
        <time>2020-02-28T04:36:13Z</time>
      </trkpt>
      <trkpt lat="40.181600" lon="-5.140860">
        <ele>640.967</ele>
        <time>2020-02-28T04:36:33Z</time>
      </trkpt>
      <trkpt lat="40.181660" lon="-5.140860">
        <ele>641.581</ele>
        <time>2020-02-28T04:36:53Z</time>
      </trkpt>
      <trkpt lat="40.181710" lon="-5.140880">
        <ele>642.019</ele>
        <time>2020-02-28T04:37:13Z</time>
      </trkpt>
      <trkpt lat="40.181780" lon="-5.140920">
        <ele>642.708</ele>
        <time>2020-02-28T04:37:33Z</time>
      </trkpt>
      <trkpt lat="40.181820" lon="-5.140970">
        <ele>642.870</ele>
        <time>2020-02-28T04:37:53Z</time>
      </trkpt>
      <trkpt lat="40.181860" lon="-5.141070">
        <ele>642.453</ele>
        <time>2020-02-28T04:38:13Z</time>
      </trkpt>
      <trkpt lat="40.181900" lon="-5.141320">
        <ele>640.418</ele>
        <time>2020-02-28T04:38:33Z</time>
      </trkpt>
      <trkpt lat="40.181920" lon="-5.141380">
        <ele>640.389</ele>
        <time>2020-02-28T04:38:53Z</time>
      </trkpt>
      <trkpt lat="40.182030" lon="-5.141890">
        <ele>638.622</ele>
        <time>2020-02-28T04:39:13Z</time>
      </trkpt>
      <trkpt lat="40.182150" lon="-5.142680">
        <ele>632.611</ele>
        <time>2020-02-28T04:39:33Z</time>
      </trkpt>
      <trkpt lat="40.182210" lon="-5.142920">
        <ele>631.812</ele>
        <time>2020-02-28T04:39:53Z</time>
      </trkpt>
      <trkpt lat="40.182310" lon="-5.143220">
        <ele>634.299</ele>
        <time>2020-02-28T04:40:13Z</time>
      </trkpt>
      <trkpt lat="40.182380" lon="-5.144030">
        <ele>633.515</ele>
        <time>2020-02-28T04:40:33Z</time>
      </trkpt>
      <trkpt lat="40.182410" lon="-5.145270">
        <ele>624.265</ele>
        <time>2020-02-28T04:40:53Z</time>
      </trkpt>
      <trkpt lat="40.182470" lon="-5.145450">
        <ele>624.911</ele>
        <time>2020-02-28T04:41:13Z</time>
      </trkpt>
      <trkpt lat="40.182520" lon="-5.145500">
        <ele>625.908</ele>
        <time>2020-02-28T04:41:33Z</time>
      </trkpt>
      <trkpt lat="40.182650" lon="-5.145660">
        <ele>626.415</ele>
        <time>2020-02-28T04:41:53Z</time>
      </trkpt>
      <trkpt lat="40.182660" lon="-5.145690">
        <ele>626.378</ele>
        <time>2020-02-28T04:42:13Z</time>
      </trkpt>
      <trkpt lat="40.182690" lon="-5.145730">
        <ele>626.563</ele>
        <time>2020-02-28T04:42:33Z</time>
      </trkpt>
      <trkpt lat="40.182690" lon="-5.145770">
        <ele>626.224</ele>
        <time>2020-02-28T04:42:53Z</time>
      </trkpt>
      <trkpt lat="40.182720" lon="-5.145910">
        <ele>625.687</ele>
        <time>2020-02-28T04:43:13Z</time>
      </trkpt>
      <trkpt lat="40.182720" lon="-5.146260">
        <ele>622.736</ele>
        <time>2020-02-28T04:43:33Z</time>
      </trkpt>
      <trkpt lat="40.182730" lon="-5.146340">
        <ele>622.267</ele>
        <time>2020-02-28T04:43:53Z</time>
      </trkpt>
      <trkpt lat="40.182720" lon="-5.146450">
        <ele>620.834</ele>
        <time>2020-02-28T04:44:13Z</time>
      </trkpt>
      <trkpt lat="40.182720" lon="-5.146740">
        <ele>618.427</ele>
        <time>2020-02-28T04:44:33Z</time>
      </trkpt>
      <trkpt lat="40.182710" lon="-5.146800">
        <ele>618.468</ele>
        <time>2020-02-28T04:44:53Z</time>
      </trkpt>
      <trkpt lat="40.182700" lon="-5.146810">
        <ele>618.214</ele>
        <time>2020-02-28T04:45:13Z</time>
      </trkpt>
      <trkpt lat="40.182660" lon="-5.146940">
        <ele>618.308</ele>
        <time>2020-02-28T04:45:33Z</time>
      </trkpt>
      <trkpt lat="40.182620" lon="-5.147000">
        <ele>618.346</ele>
        <time>2020-02-28T04:45:53Z</time>
      </trkpt>
      <trkpt lat="40.182570" lon="-5.147050">
        <ele>618.419</ele>
        <time>2020-02-28T04:46:13Z</time>
      </trkpt>
      <trkpt lat="40.182520" lon="-5.147080">
        <ele>618.664</ele>
        <time>2020-02-28T04:46:33Z</time>
      </trkpt>
      <trkpt lat="40.182440" lon="-5.147100">
        <ele>620.085</ele>
        <time>2020-02-28T04:46:53Z</time>
      </trkpt>
      <trkpt lat="40.182400" lon="-5.147100">
        <ele>620.818</ele>
        <time>2020-02-28T04:47:13Z</time>
      </trkpt>
      <trkpt lat="40.182030" lon="-5.147020">
        <ele>624.227</ele>
        <time>2020-02-28T04:47:33Z</time>
      </trkpt>
      <trkpt lat="40.181630" lon="-5.146850">
        <ele>626.158</ele>
        <time>2020-02-28T04:47:53Z</time>
      </trkpt>
      <trkpt lat="40.181570" lon="-5.146800">
        <ele>626.415</ele>
        <time>2020-02-28T04:48:13Z</time>
      </trkpt>
      <trkpt lat="40.181460" lon="-5.146670">
        <ele>625.839</ele>
        <time>2020-02-28T04:48:33Z</time>
      </trkpt>
      <trkpt lat="40.181430" lon="-5.146650">
        <ele>626.701</ele>
        <time>2020-02-28T04:48:53Z</time>
      </trkpt>
      <trkpt lat="40.181410" lon="-5.146620">
        <ele>626.921</ele>
        <time>2020-02-28T04:49:13Z</time>
      </trkpt>
      <trkpt lat="40.181250" lon="-5.146240">
        <ele>625.108</ele>
        <time>2020-02-28T04:49:33Z</time>
      </trkpt>
      <trkpt lat="40.181250" lon="-5.146230">
        <ele>624.927</ele>
        <time>2020-02-28T04:49:53Z</time>
      </trkpt>
      <trkpt lat="40.181080" lon="-5.145830">
        <ele>624.020</ele>
        <time>2020-02-28T04:50:13Z</time>
      </trkpt>
      <trkpt lat="40.180890" lon="-5.145470">
        <ele>625.295</ele>
        <time>2020-02-28T04:50:33Z</time>
      </trkpt>
      <trkpt lat="40.180750" lon="-5.145340">
        <ele>626.016</ele>
        <time>2020-02-28T04:50:53Z</time>
      </trkpt>
      <trkpt lat="40.180720" lon="-5.145330">
        <ele>626.149</ele>
        <time>2020-02-28T04:51:13Z</time>
      </trkpt>
      <trkpt lat="40.180700" lon="-5.145330">
        <ele>626.338</ele>
        <time>2020-02-28T04:51:33Z</time>
      </trkpt>
      <trkpt lat="40.180640" lon="-5.145300">
        <ele>626.489</ele>
        <time>2020-02-28T04:51:53Z</time>
      </trkpt>
      <trkpt lat="40.180540" lon="-5.145300">
        <ele>627.056</ele>
        <time>2020-02-28T04:52:13Z</time>
      </trkpt>
      <trkpt lat="40.180500" lon="-5.145310">
        <ele>626.442</ele>
        <time>2020-02-28T04:52:33Z</time>
      </trkpt>
      <trkpt lat="40.180450" lon="-5.145340">
        <ele>625.922</ele>
        <time>2020-02-28T04:52:53Z</time>
      </trkpt>
      <trkpt lat="40.180350" lon="-5.145430">
        <ele>625.114</ele>
        <time>2020-02-28T04:53:13Z</time>
      </trkpt>
      <trkpt lat="40.180290" lon="-5.145510">
        <ele>624.808</ele>
        <time>2020-02-28T04:53:33Z</time>
      </trkpt>
      <trkpt lat="40.180270" lon="-5.145580">
        <ele>624.988</ele>
        <time>2020-02-28T04:53:53Z</time>
      </trkpt>
      <trkpt lat="40.180220" lon="-5.145690">
        <ele>623.711</ele>
        <time>2020-02-28T04:54:13Z</time>
      </trkpt>
      <trkpt lat="40.179110" lon="-5.149130">
        <ele>616.196</ele>
        <time>2020-02-28T04:54:33Z</time>
      </trkpt>
      <trkpt lat="40.178580" lon="-5.150600">
        <ele>607.437</ele>
        <time>2020-02-28T04:54:53Z</time>
      </trkpt>
      <trkpt lat="40.178200" lon="-5.152170">
        <ele>597.720</ele>
        <time>2020-02-28T04:55:13Z</time>
      </trkpt>
      <trkpt lat="40.178150" lon="-5.152460">
        <ele>595.849</ele>
        <time>2020-02-28T04:55:33Z</time>
      </trkpt>
      <trkpt lat="40.178080" lon="-5.152740">
        <ele>594.420</ele>
        <time>2020-02-28T04:55:53Z</time>
      </trkpt>
      <trkpt lat="40.177960" lon="-5.153380">
        <ele>593.287</ele>
        <time>2020-02-28T04:56:13Z</time>
      </trkpt>
      <trkpt lat="40.177960" lon="-5.153400">
        <ele>593.366</ele>
        <time>2020-02-28T04:56:33Z</time>
      </trkpt>
      <trkpt lat="40.177920" lon="-5.153530">
        <ele>593.129</ele>
        <time>2020-02-28T04:56:53Z</time>
      </trkpt>
      <trkpt lat="40.177790" lon="-5.153830">
        <ele>591.921</ele>
        <time>2020-02-28T04:57:13Z</time>
      </trkpt>
      <trkpt lat="40.177710" lon="-5.153940">
        <ele>591.508</ele>
        <time>2020-02-28T04:57:33Z</time>
      </trkpt>
      <trkpt lat="40.177580" lon="-5.154090">
        <ele>590.870</ele>
        <time>2020-02-28T04:57:53Z</time>
      </trkpt>
      <trkpt lat="40.177170" lon="-5.154500">
        <ele>587.623</ele>
        <time>2020-02-28T04:58:13Z</time>
      </trkpt>
      <trkpt lat="40.177060" lon="-5.154680">
        <ele>586.998</ele>
        <time>2020-02-28T04:58:33Z</time>
      </trkpt>
      <trkpt lat="40.176940" lon="-5.155060">
        <ele>585.169</ele>
        <time>2020-02-28T04:58:53Z</time>
      </trkpt>
      <trkpt lat="40.176800" lon="-5.155970">
        <ele>581.012</ele>
        <time>2020-02-28T04:59:13Z</time>
      </trkpt>
      <trkpt lat="40.176730" lon="-5.156670">
        <ele>579.051</ele>
        <time>2020-02-28T04:59:33Z</time>
      </trkpt>
      <trkpt lat="40.176640" lon="-5.157250">
        <ele>577.412</ele>
        <time>2020-02-28T04:59:53Z</time>
      </trkpt>
      <trkpt lat="40.176520" lon="-5.157800">
        <ele>579.049</ele>
        <time>2020-02-28T05:00:13Z</time>
      </trkpt>
      <trkpt lat="40.176490" lon="-5.157900">
        <ele>579.293</ele>
        <time>2020-02-28T05:00:33Z</time>
      </trkpt>
      <trkpt lat="40.176420" lon="-5.158030">
        <ele>578.665</ele>
        <time>2020-02-28T05:00:53Z</time>
      </trkpt>
      <trkpt lat="40.176100" lon="-5.158440">
        <ele>576.921</ele>
        <time>2020-02-28T05:01:13Z</time>
      </trkpt>
      <trkpt lat="40.175830" lon="-5.158820">
        <ele>573.908</ele>
        <time>2020-02-28T05:01:33Z</time>
      </trkpt>
      <trkpt lat="40.175690" lon="-5.159050">
        <ele>572.853</ele>
        <time>2020-02-28T05:01:53Z</time>
      </trkpt>
      <trkpt lat="40.175550" lon="-5.159320">
        <ele>571.096</ele>
        <time>2020-02-28T05:02:13Z</time>
      </trkpt>
      <trkpt lat="40.175530" lon="-5.159340">
        <ele>570.791</ele>
        <time>2020-02-28T05:02:33Z</time>
      </trkpt>
      <trkpt lat="40.175170" lon="-5.160080">
        <ele>567.652</ele>
        <time>2020-02-28T05:02:53Z</time>
      </trkpt>
      <trkpt lat="40.174910" lon="-5.160690">
        <ele>565.225</ele>
        <time>2020-02-28T05:03:13Z</time>
      </trkpt>
      <trkpt lat="40.174400" lon="-5.161760">
        <ele>564.054</ele>
        <time>2020-02-28T05:03:33Z</time>
      </trkpt>
      <trkpt lat="40.174380" lon="-5.161820">
        <ele>564.015</ele>
        <time>2020-02-28T05:03:53Z</time>
      </trkpt>
      <trkpt lat="40.174080" lon="-5.162430">
        <ele>562.922</ele>
        <time>2020-02-28T05:04:13Z</time>
      </trkpt>
      <trkpt lat="40.173990" lon="-5.162770">
        <ele>563.119</ele>
        <time>2020-02-28T05:04:33Z</time>
      </trkpt>
      <trkpt lat="40.173990" lon="-5.162840">
        <ele>563.109</ele>
        <time>2020-02-28T05:04:53Z</time>
      </trkpt>
      <trkpt lat="40.173980" lon="-5.162910">
        <ele>563.019</ele>
        <time>2020-02-28T05:05:13Z</time>
      </trkpt>
      <trkpt lat="40.174020" lon="-5.163720">
        <ele>562.108</ele>
        <time>2020-02-28T05:05:33Z</time>
      </trkpt>
      <trkpt lat="40.174030" lon="-5.163760">
        <ele>562.315</ele>
        <time>2020-02-28T05:05:53Z</time>
      </trkpt>
      <trkpt lat="40.174020" lon="-5.164160">
        <ele>562.848</ele>
        <time>2020-02-28T05:06:13Z</time>
      </trkpt>
      <trkpt lat="40.173930" lon="-5.164880">
        <ele>564.253</ele>
        <time>2020-02-28T05:06:33Z</time>
      </trkpt>
      <trkpt lat="40.173750" lon="-5.165710">
        <ele>565.384</ele>
        <time>2020-02-28T05:06:53Z</time>
      </trkpt>
      <trkpt lat="40.173680" lon="-5.166330">
        <ele>565.687</ele>
        <time>2020-02-28T05:07:13Z</time>
      </trkpt>
      <trkpt lat="40.173630" lon="-5.167300">
        <ele>564.546</ele>
        <time>2020-02-28T05:07:33Z</time>
      </trkpt>
      <trkpt lat="40.173620" lon="-5.167340">
        <ele>564.297</ele>
        <time>2020-02-28T05:07:53Z</time>
      </trkpt>
      <trkpt lat="40.173540" lon="-5.168150">
        <ele>563.114</ele>
        <time>2020-02-28T05:08:13Z</time>
      </trkpt>
      <trkpt lat="40.173490" lon="-5.168370">
        <ele>564.024</ele>
        <time>2020-02-28T05:08:33Z</time>
      </trkpt>
      <trkpt lat="40.173150" lon="-5.169160">
        <ele>564.604</ele>
        <time>2020-02-28T05:08:53Z</time>
      </trkpt>
      <trkpt lat="40.171400" lon="-5.173920">
        <ele>565.514</ele>
        <time>2020-02-28T05:09:13Z</time>
      </trkpt>
      <trkpt lat="40.171190" lon="-5.174630">
        <ele>566.008</ele>
        <time>2020-02-28T05:09:33Z</time>
      </trkpt>
      <trkpt lat="40.171130" lon="-5.175040">
        <ele>564.486</ele>
        <time>2020-02-28T05:09:53Z</time>
      </trkpt>
      <trkpt lat="40.171110" lon="-5.175940">
        <ele>559.639</ele>
        <time>2020-02-28T05:10:13Z</time>
      </trkpt>
      <trkpt lat="40.171180" lon="-5.176820">
        <ele>556.234</ele>
        <time>2020-02-28T05:10:33Z</time>
      </trkpt>
      <trkpt lat="40.171270" lon="-5.177390">
        <ele>554.795</ele>
        <time>2020-02-28T05:10:53Z</time>
      </trkpt>
      <trkpt lat="40.171260" lon="-5.177890">
        <ele>552.738</ele>
        <time>2020-02-28T05:11:13Z</time>
      </trkpt>
      <trkpt lat="40.170970" lon="-5.179110">
        <ele>549.427</ele>
        <time>2020-02-28T05:11:33Z</time>
      </trkpt>
      <trkpt lat="40.170970" lon="-5.179120">
        <ele>549.418</ele>
        <time>2020-02-28T05:11:53Z</time>
      </trkpt>
      <trkpt lat="40.170790" lon="-5.179680">
        <ele>548.415</ele>
        <time>2020-02-28T05:12:13Z</time>
      </trkpt>
      <trkpt lat="40.170790" lon="-5.179720">
        <ele>548.593</ele>
        <time>2020-02-28T05:12:33Z</time>
      </trkpt>
      <trkpt lat="40.170630" lon="-5.180250">
        <ele>548.465</ele>
        <time>2020-02-28T05:12:53Z</time>
      </trkpt>
      <trkpt lat="40.170570" lon="-5.180560">
        <ele>548.021</ele>
        <time>2020-02-28T05:13:13Z</time>
      </trkpt>
      <trkpt lat="40.170550" lon="-5.182780">
        <ele>543.908</ele>
        <time>2020-02-28T05:13:33Z</time>
      </trkpt>
      <trkpt lat="40.170520" lon="-5.183040">
        <ele>545.033</ele>
        <time>2020-02-28T05:13:53Z</time>
      </trkpt>
      <trkpt lat="40.170440" lon="-5.183430">
        <ele>544.286</ele>
        <time>2020-02-28T05:14:13Z</time>
      </trkpt>
      <trkpt lat="40.170020" lon="-5.184920">
        <ele>542.091</ele>
        <time>2020-02-28T05:14:33Z</time>
      </trkpt>
      <trkpt lat="40.170000" lon="-5.185070">
        <ele>542.372</ele>
        <time>2020-02-28T05:14:53Z</time>
      </trkpt>
      <trkpt lat="40.169990" lon="-5.185100">
        <ele>542.235</ele>
        <time>2020-02-28T05:15:13Z</time>
      </trkpt>
      <trkpt lat="40.169980" lon="-5.185470">
        <ele>542.084</ele>
        <time>2020-02-28T05:15:33Z</time>
      </trkpt>
      <trkpt lat="40.170120" lon="-5.186000">
        <ele>544.025</ele>
        <time>2020-02-28T05:15:53Z</time>
      </trkpt>
      <trkpt lat="40.170180" lon="-5.186340">
        <ele>544.132</ele>
        <time>2020-02-28T05:16:13Z</time>
      </trkpt>
      <trkpt lat="40.170200" lon="-5.186640">
        <ele>543.733</ele>
        <time>2020-02-28T05:16:33Z</time>
      </trkpt>
      <trkpt lat="40.170160" lon="-5.186920">
        <ele>542.423</ele>
        <time>2020-02-28T05:16:53Z</time>
      </trkpt>
      <trkpt lat="40.169730" lon="-5.188450">
        <ele>544.515</ele>
        <time>2020-02-28T05:17:13Z</time>
      </trkpt>
      <trkpt lat="40.169590" lon="-5.188760">
        <ele>544.108</ele>
        <time>2020-02-28T05:17:33Z</time>
      </trkpt>
      <trkpt lat="40.169110" lon="-5.189670">
        <ele>543.367</ele>
        <time>2020-02-28T05:17:53Z</time>
      </trkpt>
      <trkpt lat="40.169110" lon="-5.189680">
        <ele>543.330</ele>
        <time>2020-02-28T05:18:13Z</time>
      </trkpt>
      <trkpt lat="40.168960" lon="-5.190010">
        <ele>543.645</ele>
        <time>2020-02-28T05:18:33Z</time>
      </trkpt>
      <trkpt lat="40.168800" lon="-5.190530">
        <ele>544.396</ele>
        <time>2020-02-28T05:18:53Z</time>
      </trkpt>
      <trkpt lat="40.168700" lon="-5.190920">
        <ele>545.029</ele>
        <time>2020-02-28T05:19:13Z</time>
      </trkpt>
      <trkpt lat="40.168550" lon="-5.191320">
        <ele>544.528</ele>
        <time>2020-02-28T05:19:33Z</time>
      </trkpt>
      <trkpt lat="40.168550" lon="-5.191330">
        <ele>544.569</ele>
        <time>2020-02-28T05:19:53Z</time>
      </trkpt>
      <trkpt lat="40.168440" lon="-5.191510">
        <ele>544.246</ele>
        <time>2020-02-28T05:20:13Z</time>
      </trkpt>
      <trkpt lat="40.168390" lon="-5.191570">
        <ele>544.161</ele>
        <time>2020-02-28T05:20:33Z</time>
      </trkpt>
      <trkpt lat="40.167930" lon="-5.192290">
        <ele>544.321</ele>
        <time>2020-02-28T05:20:53Z</time>
      </trkpt>
      <trkpt lat="40.167600" lon="-5.192730">
        <ele>542.713</ele>
        <time>2020-02-28T05:21:13Z</time>
      </trkpt>
      <trkpt lat="40.167460" lon="-5.192940">
        <ele>541.708</ele>
        <time>2020-02-28T05:21:33Z</time>
      </trkpt>
      <trkpt lat="40.166840" lon="-5.194000">
        <ele>532.990</ele>
        <time>2020-02-28T05:21:53Z</time>
      </trkpt>
      <trkpt lat="40.166800" lon="-5.194120">
        <ele>532.443</ele>
        <time>2020-02-28T05:22:13Z</time>
      </trkpt>
      <trkpt lat="40.166710" lon="-5.194310">
        <ele>531.488</ele>
        <time>2020-02-28T05:22:33Z</time>
      </trkpt>
      <trkpt lat="40.166570" lon="-5.194680">
        <ele>531.149</ele>
        <time>2020-02-28T05:22:53Z</time>
      </trkpt>
      <trkpt lat="40.165660" lon="-5.198030">
        <ele>516.812</ele>
        <time>2020-02-28T05:23:13Z</time>
      </trkpt>
      <trkpt lat="40.165660" lon="-5.198050">
        <ele>516.821</ele>
        <time>2020-02-28T05:23:33Z</time>
      </trkpt>
      <trkpt lat="40.164930" lon="-5.200890">
        <ele>510.972</ele>
        <time>2020-02-28T05:23:53Z</time>
      </trkpt>
      <trkpt lat="40.164900" lon="-5.200950">
        <ele>510.939</ele>
        <time>2020-02-28T05:24:13Z</time>
      </trkpt>
      <trkpt lat="40.164880" lon="-5.201020">
        <ele>510.966</ele>
        <time>2020-02-28T05:24:33Z</time>
      </trkpt>
      <trkpt lat="40.164780" lon="-5.201190">
        <ele>510.929</ele>
        <time>2020-02-28T05:24:53Z</time>
      </trkpt>
      <trkpt lat="40.164760" lon="-5.201210">
        <ele>510.921</ele>
        <time>2020-02-28T05:25:13Z</time>
      </trkpt>
      <trkpt lat="40.164730" lon="-5.201280">
        <ele>511.308</ele>
        <time>2020-02-28T05:25:33Z</time>
      </trkpt>
      <trkpt lat="40.164160" lon="-5.201960">
        <ele>513.120</ele>
        <time>2020-02-28T05:25:53Z</time>
      </trkpt>
      <trkpt lat="40.163990" lon="-5.202230">
        <ele>513.583</ele>
        <time>2020-02-28T05:26:13Z</time>
      </trkpt>
      <trkpt lat="40.163840" lon="-5.202530">
        <ele>513.858</ele>
        <time>2020-02-28T05:26:33Z</time>
      </trkpt>
      <trkpt lat="40.163810" lon="-5.202630">
        <ele>514.149</ele>
        <time>2020-02-28T05:26:53Z</time>
      </trkpt>
      <trkpt lat="40.163720" lon="-5.202840">
        <ele>514.162</ele>
        <time>2020-02-28T05:27:13Z</time>
      </trkpt>
      <trkpt lat="40.163690" lon="-5.202950">
        <ele>513.811</ele>
        <time>2020-02-28T05:27:33Z</time>
      </trkpt>
      <trkpt lat="40.163100" lon="-5.204380">
        <ele>512.552</ele>
        <time>2020-02-28T05:27:53Z</time>
      </trkpt>
      <trkpt lat="40.163030" lon="-5.204500">
        <ele>511.839</ele>
        <time>2020-02-28T05:28:13Z</time>
      </trkpt>
      <trkpt lat="40.162920" lon="-5.204760">
        <ele>510.885</ele>
        <time>2020-02-28T05:28:33Z</time>
      </trkpt>
      <trkpt lat="40.162870" lon="-5.204850">
        <ele>510.189</ele>
        <time>2020-02-28T05:28:53Z</time>
      </trkpt>
      <trkpt lat="40.162640" lon="-5.205360">
        <ele>508.317</ele>
        <time>2020-02-28T05:29:13Z</time>
      </trkpt>
      <trkpt lat="40.162600" lon="-5.205430">
        <ele>507.708</ele>
        <time>2020-02-28T05:29:33Z</time>
      </trkpt>
      <trkpt lat="40.162530" lon="-5.205620">
        <ele>506.922</ele>
        <time>2020-02-28T05:29:53Z</time>
      </trkpt>
      <trkpt lat="40.162490" lon="-5.205770">
        <ele>506.545</ele>
        <time>2020-02-28T05:30:13Z</time>
      </trkpt>
      <trkpt lat="40.162480" lon="-5.205790">
        <ele>506.380</ele>
        <time>2020-02-28T05:30:33Z</time>
      </trkpt>
      <trkpt lat="40.162460" lon="-5.205910">
        <ele>506.571</ele>
        <time>2020-02-28T05:30:53Z</time>
      </trkpt>
      <trkpt lat="40.162430" lon="-5.206020">
        <ele>506.294</ele>
        <time>2020-02-28T05:31:13Z</time>
      </trkpt>
      <trkpt lat="40.162360" lon="-5.206800">
        <ele>502.023</ele>
        <time>2020-02-28T05:31:33Z</time>
      </trkpt>
      <trkpt lat="40.162350" lon="-5.207110">
        <ele>498.714</ele>
        <time>2020-02-28T05:31:53Z</time>
      </trkpt>
      <trkpt lat="40.162380" lon="-5.207330">
        <ele>497.491</ele>
        <time>2020-02-28T05:32:13Z</time>
      </trkpt>
      <trkpt lat="40.162500" lon="-5.207950">
        <ele>495.844</ele>
        <time>2020-02-28T05:32:33Z</time>
      </trkpt>
      <trkpt lat="40.162510" lon="-5.208110">
        <ele>495.405</ele>
        <time>2020-02-28T05:32:53Z</time>
      </trkpt>
      <trkpt lat="40.162540" lon="-5.208260">
        <ele>496.615</ele>
        <time>2020-02-28T05:33:13Z</time>
      </trkpt>
      <trkpt lat="40.162540" lon="-5.208340">
        <ele>496.608</ele>
        <time>2020-02-28T05:33:33Z</time>
      </trkpt>
      <trkpt lat="40.162550" lon="-5.208340">
        <ele>497.018</ele>
        <time>2020-02-28T05:33:53Z</time>
      </trkpt>
      <trkpt lat="40.162540" lon="-5.208490">
        <ele>496.351</ele>
        <time>2020-02-28T05:34:13Z</time>
      </trkpt>
      <trkpt lat="40.162550" lon="-5.208580">
        <ele>496.536</ele>
        <time>2020-02-28T05:34:33Z</time>
      </trkpt>
      <trkpt lat="40.162550" lon="-5.208730">
        <ele>495.437</ele>
        <time>2020-02-28T05:34:53Z</time>
      </trkpt>
      <trkpt lat="40.162510" lon="-5.209270">
        <ele>490.360</ele>
        <time>2020-02-28T05:35:13Z</time>
      </trkpt>
      <trkpt lat="40.162510" lon="-5.209420">
        <ele>490.299</ele>
        <time>2020-02-28T05:35:33Z</time>
      </trkpt>
      <trkpt lat="40.162150" lon="-5.215430">
        <ele>479.090</ele>
        <time>2020-02-28T05:35:53Z</time>
      </trkpt>
      <trkpt lat="40.162120" lon="-5.215620">
        <ele>479.667</ele>
        <time>2020-02-28T05:36:13Z</time>
      </trkpt>
      <trkpt lat="40.162120" lon="-5.215710">
        <ele>480.245</ele>
        <time>2020-02-28T05:36:33Z</time>
      </trkpt>
      <trkpt lat="40.162070" lon="-5.216170">
        <ele>482.747</ele>
        <time>2020-02-28T05:36:53Z</time>
      </trkpt>
      <trkpt lat="40.161880" lon="-5.217300">
        <ele>487.011</ele>
        <time>2020-02-28T05:37:13Z</time>
      </trkpt>
      <trkpt lat="40.161470" lon="-5.219310">
        <ele>489.708</ele>
        <time>2020-02-28T05:37:33Z</time>
      </trkpt>
      <trkpt lat="40.161310" lon="-5.219950">
        <ele>490.048</ele>
        <time>2020-02-28T05:37:53Z</time>
      </trkpt>
      <trkpt lat="40.161310" lon="-5.219960">
        <ele>490.161</ele>
        <time>2020-02-28T05:38:13Z</time>
      </trkpt>
      <trkpt lat="40.161030" lon="-5.221130">
        <ele>494.386</ele>
        <time>2020-02-28T05:38:33Z</time>
      </trkpt>
      <trkpt lat="40.161000" lon="-5.221220">
        <ele>493.447</ele>
        <time>2020-02-28T05:38:53Z</time>
      </trkpt>
      <trkpt lat="40.160890" lon="-5.221790">
        <ele>489.620</ele>
        <time>2020-02-28T05:39:13Z</time>
      </trkpt>
      <trkpt lat="40.160840" lon="-5.222270">
        <ele>486.919</ele>
        <time>2020-02-28T05:39:33Z</time>
      </trkpt>
      <trkpt lat="40.160820" lon="-5.222860">
        <ele>484.530</ele>
        <time>2020-02-28T05:39:53Z</time>
      </trkpt>
      <trkpt lat="40.160800" lon="-5.223020">
        <ele>483.757</ele>
        <time>2020-02-28T05:40:13Z</time>
      </trkpt>
      <trkpt lat="40.160800" lon="-5.223070">
        <ele>483.515</ele>
        <time>2020-02-28T05:40:33Z</time>
      </trkpt>
      <trkpt lat="40.160760" lon="-5.223280">
        <ele>482.165</ele>
        <time>2020-02-28T05:40:53Z</time>
      </trkpt>
      <trkpt lat="40.160750" lon="-5.223410">
        <ele>481.711</ele>
        <time>2020-02-28T05:41:13Z</time>
      </trkpt>
      <trkpt lat="40.160690" lon="-5.223660">
        <ele>480.708</ele>
        <time>2020-02-28T05:41:33Z</time>
      </trkpt>
      <trkpt lat="40.160620" lon="-5.223870">
        <ele>480.315</ele>
        <time>2020-02-28T05:41:53Z</time>
      </trkpt>
      <trkpt lat="40.160620" lon="-5.223880">
        <ele>480.468</ele>
        <time>2020-02-28T05:42:13Z</time>
      </trkpt>
      <trkpt lat="40.160590" lon="-5.223940">
        <ele>480.023</ele>
        <time>2020-02-28T05:42:33Z</time>
      </trkpt>
      <trkpt lat="40.160570" lon="-5.224000">
        <ele>479.794</ele>
        <time>2020-02-28T05:42:53Z</time>
      </trkpt>
      <trkpt lat="40.160460" lon="-5.224230">
        <ele>479.697</ele>
        <time>2020-02-28T05:43:13Z</time>
      </trkpt>
      <trkpt lat="40.159880" lon="-5.225250">
        <ele>476.176</ele>
        <time>2020-02-28T05:43:33Z</time>
      </trkpt>
      <trkpt lat="40.159790" lon="-5.225380">
        <ele>475.337</ele>
        <time>2020-02-28T05:43:53Z</time>
      </trkpt>
      <trkpt lat="40.159760" lon="-5.225450">
        <ele>475.134</ele>
        <time>2020-02-28T05:44:13Z</time>
      </trkpt>
      <trkpt lat="40.159570" lon="-5.225690">
        <ele>473.187</ele>
        <time>2020-02-28T05:44:33Z</time>
      </trkpt>
      <trkpt lat="40.159220" lon="-5.226060">
        <ele>469.142</ele>
        <time>2020-02-28T05:44:53Z</time>
      </trkpt>
      <trkpt lat="40.158700" lon="-5.226670">
        <ele>468.726</ele>
        <time>2020-02-28T05:45:13Z</time>
      </trkpt>
      <trkpt lat="40.158600" lon="-5.226860">
        <ele>469.208</ele>
        <time>2020-02-28T05:45:33Z</time>
      </trkpt>
      <trkpt lat="40.158430" lon="-5.227250">
        <ele>466.742</ele>
        <time>2020-02-28T05:45:53Z</time>
      </trkpt>
      <trkpt lat="40.158270" lon="-5.227840">
        <ele>461.815</ele>
        <time>2020-02-28T05:46:13Z</time>
      </trkpt>
      <trkpt lat="40.157400" lon="-5.231560">
        <ele>441.370</ele>
        <time>2020-02-28T05:46:33Z</time>
      </trkpt>
      <trkpt lat="40.157260" lon="-5.232550">
        <ele>434.621</ele>
        <time>2020-02-28T05:46:53Z</time>
      </trkpt>
      <trkpt lat="40.157260" lon="-5.232630">
        <ele>435.534</ele>
        <time>2020-02-28T05:47:13Z</time>
      </trkpt>
      <trkpt lat="40.157240" lon="-5.232830">
        <ele>436.763</ele>
        <time>2020-02-28T05:47:33Z</time>
      </trkpt>
      <trkpt lat="40.157200" lon="-5.234460">
        <ele>430.824</ele>
        <time>2020-02-28T05:47:53Z</time>
      </trkpt>
      <trkpt lat="40.157170" lon="-5.234630">
        <ele>430.411</ele>
        <time>2020-02-28T05:48:13Z</time>
      </trkpt>
      <trkpt lat="40.155820" lon="-5.239790">
        <ele>432.762</ele>
        <time>2020-02-28T05:48:33Z</time>
      </trkpt>
      <trkpt lat="40.155390" lon="-5.240990">
        <ele>428.483</ele>
        <time>2020-02-28T05:48:53Z</time>
      </trkpt>
      <trkpt lat="40.155410" lon="-5.241010">
        <ele>428.511</ele>
        <time>2020-02-28T05:49:13Z</time>
      </trkpt>
      <trkpt lat="40.155410" lon="-5.241020">
        <ele>428.508</ele>
        <time>2020-02-28T05:49:33Z</time>
      </trkpt>
      <trkpt lat="40.155420" lon="-5.241030">
        <ele>428.510</ele>
        <time>2020-02-28T05:49:53Z</time>
      </trkpt>
      <trkpt lat="40.155420" lon="-5.241040">
        <ele>428.543</ele>
        <time>2020-02-28T05:50:13Z</time>
      </trkpt>
      <trkpt lat="40.155430" lon="-5.241050">
        <ele>428.518</ele>
        <time>2020-02-28T05:50:33Z</time>
      </trkpt>
      <trkpt lat="40.155430" lon="-5.241090">
        <ele>428.539</ele>
        <time>2020-02-28T05:50:53Z</time>
      </trkpt>
      <trkpt lat="40.155420" lon="-5.241100">
        <ele>428.542</ele>
        <time>2020-02-28T05:51:13Z</time>
      </trkpt>
      <trkpt lat="40.155420" lon="-5.241110">
        <ele>428.551</ele>
        <time>2020-02-28T05:51:33Z</time>
      </trkpt>
      <trkpt lat="40.155410" lon="-5.241120">
        <ele>428.472</ele>
        <time>2020-02-28T05:51:53Z</time>
      </trkpt>
      <trkpt lat="40.155430" lon="-5.241160">
        <ele>428.489</ele>
        <time>2020-02-28T05:52:13Z</time>
      </trkpt>
      <trkpt lat="40.155430" lon="-5.241260">
        <ele>428.028</ele>
        <time>2020-02-28T05:52:33Z</time>
      </trkpt>
      <trkpt lat="40.155440" lon="-5.241320">
        <ele>427.889</ele>
        <time>2020-02-28T05:52:53Z</time>
      </trkpt>
      <trkpt lat="40.155440" lon="-5.241530">
        <ele>427.617</ele>
        <time>2020-02-28T05:53:13Z</time>
      </trkpt>
      <trkpt lat="40.155340" lon="-5.242920">
        <ele>425.108</ele>
        <time>2020-02-28T05:53:33Z</time>
      </trkpt>
      <trkpt lat="40.155250" lon="-5.243740">
        <ele>422.986</ele>
        <time>2020-02-28T05:53:53Z</time>
      </trkpt>
      <trkpt lat="40.154050" lon="-5.248070">
        <ele>415.749</ele>
        <time>2020-02-28T05:54:13Z</time>
      </trkpt>
      <trkpt lat="40.153690" lon="-5.249140">
        <ele>420.964</ele>
        <time>2020-02-28T05:54:33Z</time>
      </trkpt>
      <trkpt lat="40.153470" lon="-5.249330">
        <ele>418.715</ele>
        <time>2020-02-28T05:54:53Z</time>
      </trkpt>
      <trkpt lat="40.153080" lon="-5.249910">
        <ele>417.958</ele>
        <time>2020-02-28T05:55:13Z</time>
      </trkpt>
      <trkpt lat="40.152980" lon="-5.250090">
        <ele>417.527</ele>
        <time>2020-02-28T05:55:33Z</time>
      </trkpt>
      <trkpt lat="40.152120" lon="-5.251220">
        <ele>409.048</ele>
        <time>2020-02-28T05:55:53Z</time>
      </trkpt>
      <trkpt lat="40.151820" lon="-5.252020">
        <ele>408.175</ele>
        <time>2020-02-28T05:56:13Z</time>
      </trkpt>
      <trkpt lat="40.151250" lon="-5.254250">
        <ele>401.232</ele>
        <time>2020-02-28T05:56:33Z</time>
      </trkpt>
      <trkpt lat="40.150910" lon="-5.255990">
        <ele>397.392</ele>
        <time>2020-02-28T05:56:53Z</time>
      </trkpt>
      <trkpt lat="40.150720" lon="-5.257570">
        <ele>393.911</ele>
        <time>2020-02-28T05:57:13Z</time>
      </trkpt>
      <trkpt lat="40.150190" lon="-5.264480">
        <ele>385.708</ele>
        <time>2020-02-28T05:57:33Z</time>
      </trkpt>
      <trkpt lat="40.150170" lon="-5.264560">
        <ele>385.427</ele>
        <time>2020-02-28T05:57:53Z</time>
      </trkpt>
      <trkpt lat="40.150090" lon="-5.264770">
        <ele>384.220</ele>
        <time>2020-02-28T05:58:13Z</time>
      </trkpt>
      <trkpt lat="40.150000" lon="-5.264910">
        <ele>382.385</ele>
        <time>2020-02-28T05:58:33Z</time>
      </trkpt>
      <trkpt lat="40.149960" lon="-5.264950">
        <ele>382.016</ele>
        <time>2020-02-28T05:58:53Z</time>
      </trkpt>
      <trkpt lat="40.149850" lon="-5.265030">
        <ele>381.469</ele>
        <time>2020-02-28T05:59:13Z</time>
      </trkpt>
      <trkpt lat="40.149690" lon="-5.265100">
        <ele>380.538</ele>
        <time>2020-02-28T05:59:33Z</time>
      </trkpt>
      <trkpt lat="40.149390" lon="-5.265260">
        <ele>379.179</ele>
        <time>2020-02-28T05:59:53Z</time>
      </trkpt>
      <trkpt lat="40.149390" lon="-5.265280">
        <ele>379.016</ele>
        <time>2020-02-28T06:00:13Z</time>
      </trkpt>
      <trkpt lat="40.149400" lon="-5.265310">
        <ele>379.035</ele>
        <time>2020-02-28T06:00:33Z</time>
      </trkpt>
      <trkpt lat="40.149400" lon="-5.265330">
        <ele>379.086</ele>
        <time>2020-02-28T06:00:53Z</time>
      </trkpt>
      <trkpt lat="40.149410" lon="-5.265360">
        <ele>379.014</ele>
        <time>2020-02-28T06:01:13Z</time>
      </trkpt>
      <trkpt lat="40.149410" lon="-5.265420">
        <ele>379.008</ele>
        <time>2020-02-28T06:01:33Z</time>
      </trkpt>
      <trkpt lat="40.149400" lon="-5.265440">
        <ele>379.077</ele>
        <time>2020-02-28T06:01:53Z</time>
      </trkpt>
      <trkpt lat="40.149400" lon="-5.265470">
        <ele>379.050</ele>
        <time>2020-02-28T06:02:13Z</time>
      </trkpt>
      <trkpt lat="40.149380" lon="-5.265520">
        <ele>379.075</ele>
        <time>2020-02-28T06:02:33Z</time>
      </trkpt>
      <trkpt lat="40.149380" lon="-5.265540">
        <ele>379.016</ele>
        <time>2020-02-28T06:02:53Z</time>
      </trkpt>
      <trkpt lat="40.149370" lon="-5.265540">
        <ele>379.059</ele>
        <time>2020-02-28T06:03:13Z</time>
      </trkpt>
      <trkpt lat="40.149370" lon="-5.265560">
        <ele>379.048</ele>
        <time>2020-02-28T06:03:33Z</time>
      </trkpt>
      <trkpt lat="40.149360" lon="-5.265560">
        <ele>379.019</ele>
        <time>2020-02-28T06:03:53Z</time>
      </trkpt>
      <trkpt lat="40.149360" lon="-5.265570">
        <ele>379.026</ele>
        <time>2020-02-28T06:04:13Z</time>
      </trkpt>
      <trkpt lat="40.149320" lon="-5.265610">
        <ele>378.959</ele>
        <time>2020-02-28T06:04:33Z</time>
      </trkpt>
      <trkpt lat="40.149480" lon="-5.265990">
        <ele>379.003</ele>
        <time>2020-02-28T06:04:53Z</time>
      </trkpt>
      <trkpt lat="40.149480" lon="-5.266000">
        <ele>379.023</ele>
        <time>2020-02-28T06:05:13Z</time>
      </trkpt>
      <trkpt lat="40.149490" lon="-5.266010">
        <ele>379.008</ele>
        <time>2020-02-28T06:05:33Z</time>
      </trkpt>
      <trkpt lat="40.149530" lon="-5.266110">
        <ele>379.089</ele>
        <time>2020-02-28T06:05:53Z</time>
      </trkpt>
      <trkpt lat="40.149760" lon="-5.266910">
        <ele>379.192</ele>
        <time>2020-02-28T06:06:13Z</time>
      </trkpt>
      <trkpt lat="40.149820" lon="-5.267300">
        <ele>379.297</ele>
        <time>2020-02-28T06:06:33Z</time>
      </trkpt>
      <trkpt lat="40.149860" lon="-5.267750">
        <ele>379.078</ele>
        <time>2020-02-28T06:06:53Z</time>
      </trkpt>
      <trkpt lat="40.149840" lon="-5.268340">
        <ele>378.971</ele>
        <time>2020-02-28T06:07:13Z</time>
      </trkpt>
      <trkpt lat="40.149200" lon="-5.271640">
        <ele>370.670</ele>
        <time>2020-02-28T06:07:33Z</time>
      </trkpt>
      <trkpt lat="40.148900" lon="-5.272730">
        <ele>370.251</ele>
        <time>2020-02-28T06:07:53Z</time>
      </trkpt>
      <trkpt lat="40.148010" lon="-5.276360">
        <ele>359.818</ele>
        <time>2020-02-28T06:08:13Z</time>
      </trkpt>
      <trkpt lat="40.147890" lon="-5.277040">
        <ele>359.889</ele>
        <time>2020-02-28T06:08:33Z</time>
      </trkpt>
      <trkpt lat="40.147750" lon="-5.278120">
        <ele>357.006</ele>
        <time>2020-02-28T06:08:53Z</time>
      </trkpt>
      <trkpt lat="40.147650" lon="-5.279210">
        <ele>357.826</ele>
        <time>2020-02-28T06:09:13Z</time>
      </trkpt>
      <trkpt lat="40.147640" lon="-5.279910">
        <ele>354.408</ele>
        <time>2020-02-28T06:09:33Z</time>
      </trkpt>
      <trkpt lat="40.147840" lon="-5.287750">
        <ele>348.562</ele>
        <time>2020-02-28T06:09:53Z</time>
      </trkpt>
      <trkpt lat="40.147250" lon="-5.294520">
        <ele>357.555</ele>
        <time>2020-02-28T06:10:13Z</time>
      </trkpt>
      <trkpt lat="40.147210" lon="-5.294780">
        <ele>357.160</ele>
        <time>2020-02-28T06:10:33Z</time>
      </trkpt>
      <trkpt lat="40.147200" lon="-5.294990">
        <ele>357.231</ele>
        <time>2020-02-28T06:10:53Z</time>
      </trkpt>
      <trkpt lat="40.147190" lon="-5.295040">
        <ele>357.384</ele>
        <time>2020-02-28T06:11:13Z</time>
      </trkpt>
      <trkpt lat="40.146780" lon="-5.314460">
        <ele>380.033</ele>
        <time>2020-02-28T06:11:33Z</time>
      </trkpt>
      <trkpt lat="40.146750" lon="-5.314770">
        <ele>379.964</ele>
        <time>2020-02-28T06:11:53Z</time>
      </trkpt>
      <trkpt lat="40.146680" lon="-5.315160">
        <ele>379.041</ele>
        <time>2020-02-28T06:12:13Z</time>
      </trkpt>
      <trkpt lat="40.146550" lon="-5.315640">
        <ele>377.938</ele>
        <time>2020-02-28T06:12:33Z</time>
      </trkpt>
      <trkpt lat="40.146040" lon="-5.317110">
        <ele>373.170</ele>
        <time>2020-02-28T06:12:53Z</time>
      </trkpt>
      <trkpt lat="40.146040" lon="-5.317140">
        <ele>373.017</ele>
        <time>2020-02-28T06:13:13Z</time>
      </trkpt>
      <trkpt lat="40.145900" lon="-5.317640">
        <ele>370.608</ele>
        <time>2020-02-28T06:13:33Z</time>
      </trkpt>
      <trkpt lat="40.145850" lon="-5.318110">
        <ele>368.887</ele>
        <time>2020-02-28T06:13:53Z</time>
      </trkpt>
      <trkpt lat="40.145850" lon="-5.318550">
        <ele>368.080</ele>
        <time>2020-02-28T06:14:13Z</time>
      </trkpt>
      <trkpt lat="40.146860" lon="-5.336630">
        <ele>338.735</ele>
        <time>2020-02-28T06:14:33Z</time>
      </trkpt>
      <trkpt lat="40.146920" lon="-5.337170">
        <ele>338.986</ele>
        <time>2020-02-28T06:14:53Z</time>
      </trkpt>
      <trkpt lat="40.147020" lon="-5.337760">
        <ele>339.069</ele>
        <time>2020-02-28T06:15:13Z</time>
      </trkpt>
      <trkpt lat="40.148130" lon="-5.341770">
        <ele>340.048</ele>
        <time>2020-02-28T06:15:33Z</time>
      </trkpt>
      <trkpt lat="40.148750" lon="-5.344600">
        <ele>340.879</ele>
        <time>2020-02-28T06:15:53Z</time>
      </trkpt>
      <trkpt lat="40.148760" lon="-5.344620">
        <ele>340.946</ele>
        <time>2020-02-28T06:16:13Z</time>
      </trkpt>
      <trkpt lat="40.148960" lon="-5.345500">
        <ele>348.734</ele>
        <time>2020-02-28T06:16:33Z</time>
      </trkpt>
      <trkpt lat="40.148960" lon="-5.345520">
        <ele>348.855</ele>
        <time>2020-02-28T06:16:53Z</time>
      </trkpt>
      <trkpt lat="40.149130" lon="-5.346270">
        <ele>348.910</ele>
        <time>2020-02-28T06:17:13Z</time>
      </trkpt>
      <trkpt lat="40.149220" lon="-5.346820">
        <ele>350.008</ele>
        <time>2020-02-28T06:17:33Z</time>
      </trkpt>
      <trkpt lat="40.149250" lon="-5.347100">
        <ele>350.067</ele>
        <time>2020-02-28T06:17:53Z</time>
      </trkpt>
      <trkpt lat="40.149320" lon="-5.348590">
        <ele>350.030</ele>
        <time>2020-02-28T06:18:13Z</time>
      </trkpt>
      <trkpt lat="40.149320" lon="-5.349470">
        <ele>353.355</ele>
        <time>2020-02-28T06:18:33Z</time>
      </trkpt>
      <trkpt lat="40.149290" lon="-5.349940">
        <ele>355.656</ele>
        <time>2020-02-28T06:18:53Z</time>
      </trkpt>
      <trkpt lat="40.148910" lon="-5.352890">
        <ele>369.759</ele>
        <time>2020-02-28T06:19:13Z</time>
      </trkpt>
      <trkpt lat="40.148860" lon="-5.353140">
        <ele>370.288</ele>
        <time>2020-02-28T06:19:33Z</time>
      </trkpt>
      <trkpt lat="40.148800" lon="-5.353340">
        <ele>371.049</ele>
        <time>2020-02-28T06:19:53Z</time>
      </trkpt>
      <trkpt lat="40.148650" lon="-5.353710">
        <ele>373.756</ele>
        <time>2020-02-28T06:20:13Z</time>
      </trkpt>
      <trkpt lat="40.148240" lon="-5.354530">
        <ele>375.153</ele>
        <time>2020-02-28T06:20:33Z</time>
      </trkpt>
      <trkpt lat="40.148230" lon="-5.354540">
        <ele>375.104</ele>
        <time>2020-02-28T06:20:53Z</time>
      </trkpt>
      <trkpt lat="40.148140" lon="-5.354740">
        <ele>374.314</ele>
        <time>2020-02-28T06:21:13Z</time>
      </trkpt>
      <trkpt lat="40.148070" lon="-5.354960">
        <ele>373.208</ele>
        <time>2020-02-28T06:21:33Z</time>
      </trkpt>
      <trkpt lat="40.148000" lon="-5.355400">
        <ele>370.159</ele>
        <time>2020-02-28T06:21:53Z</time>
      </trkpt>
      <trkpt lat="40.147510" lon="-5.361010">
        <ele>377.382</ele>
        <time>2020-02-28T06:22:13Z</time>
      </trkpt>
      <trkpt lat="40.147370" lon="-5.366270">
        <ele>380.057</ele>
        <time>2020-02-28T06:22:33Z</time>
      </trkpt>
      <trkpt lat="40.147360" lon="-5.366300">
        <ele>380.058</ele>
        <time>2020-02-28T06:22:53Z</time>
      </trkpt>
      <trkpt lat="40.147320" lon="-5.366930">
        <ele>381.761</ele>
        <time>2020-02-28T06:23:13Z</time>
      </trkpt>
      <trkpt lat="40.147320" lon="-5.367320">
        <ele>384.490</ele>
        <time>2020-02-28T06:23:33Z</time>
      </trkpt>
      <trkpt lat="40.147270" lon="-5.367500">
        <ele>385.391</ele>
        <time>2020-02-28T06:23:53Z</time>
      </trkpt>
      <trkpt lat="40.147190" lon="-5.367610">
        <ele>385.218</ele>
        <time>2020-02-28T06:24:13Z</time>
      </trkpt>
      <trkpt lat="40.147100" lon="-5.367700">
        <ele>384.845</ele>
        <time>2020-02-28T06:24:33Z</time>
      </trkpt>
      <trkpt lat="40.146010" lon="-5.368460">
        <ele>383.647</ele>
        <time>2020-02-28T06:24:53Z</time>
      </trkpt>
      <trkpt lat="40.145800" lon="-5.368680">
        <ele>383.411</ele>
        <time>2020-02-28T06:25:13Z</time>
      </trkpt>
      <trkpt lat="40.145800" lon="-5.368690">
        <ele>383.508</ele>
        <time>2020-02-28T06:25:33Z</time>
      </trkpt>
      <trkpt lat="40.144910" lon="-5.369850">
        <ele>381.968</ele>
        <time>2020-02-28T06:25:53Z</time>
      </trkpt>
      <trkpt lat="40.144890" lon="-5.369860">
        <ele>381.861</ele>
        <time>2020-02-28T06:26:13Z</time>
      </trkpt>
      <trkpt lat="40.144850" lon="-5.369900">
        <ele>381.866</ele>
        <time>2020-02-28T06:26:33Z</time>
      </trkpt>
      <trkpt lat="40.144820" lon="-5.369910">
        <ele>381.587</ele>
        <time>2020-02-28T06:26:53Z</time>
      </trkpt>
      <trkpt lat="40.144800" lon="-5.369930">
        <ele>381.550</ele>
        <time>2020-02-28T06:27:13Z</time>
      </trkpt>
      <trkpt lat="40.144520" lon="-5.370040">
        <ele>380.589</ele>
        <time>2020-02-28T06:27:33Z</time>
      </trkpt>
      <trkpt lat="40.144420" lon="-5.370060">
        <ele>380.250</ele>
        <time>2020-02-28T06:27:53Z</time>
      </trkpt>
      <trkpt lat="40.144310" lon="-5.370100">
        <ele>380.217</ele>
        <time>2020-02-28T06:28:13Z</time>
      </trkpt>
      <trkpt lat="40.144010" lon="-5.370240">
        <ele>379.512</ele>
        <time>2020-02-28T06:28:33Z</time>
      </trkpt>
      <trkpt lat="40.143710" lon="-5.370410">
        <ele>379.232</ele>
        <time>2020-02-28T06:28:53Z</time>
      </trkpt>
      <trkpt lat="40.143620" lon="-5.370490">
        <ele>378.705</ele>
        <time>2020-02-28T06:29:13Z</time>
      </trkpt>
      <trkpt lat="40.143520" lon="-5.370610">
        <ele>378.708</ele>
        <time>2020-02-28T06:29:33Z</time>
      </trkpt>
      <trkpt lat="40.143390" lon="-5.370820">
        <ele>379.335</ele>
        <time>2020-02-28T06:29:53Z</time>
      </trkpt>
      <trkpt lat="40.143190" lon="-5.371080">
        <ele>380.038</ele>
        <time>2020-02-28T06:30:13Z</time>
      </trkpt>
      <trkpt lat="40.143040" lon="-5.371240">
        <ele>380.173</ele>
        <time>2020-02-28T06:30:33Z</time>
      </trkpt>
      <trkpt lat="40.141250" lon="-5.372730">
        <ele>373.734</ele>
        <time>2020-02-28T06:30:53Z</time>
      </trkpt>
      <trkpt lat="40.140640" lon="-5.373150">
        <ele>372.597</ele>
        <time>2020-02-28T06:31:13Z</time>
      </trkpt>
      <trkpt lat="40.140580" lon="-5.373200">
        <ele>371.866</ele>
        <time>2020-02-28T06:31:33Z</time>
      </trkpt>
      <trkpt lat="40.139850" lon="-5.373700">
        <ele>364.917</ele>
        <time>2020-02-28T06:31:53Z</time>
      </trkpt>
      <trkpt lat="40.139160" lon="-5.374260">
        <ele>364.234</ele>
        <time>2020-02-28T06:32:13Z</time>
      </trkpt>
      <trkpt lat="40.138960" lon="-5.374470">
        <ele>362.158</ele>
        <time>2020-02-28T06:32:33Z</time>
      </trkpt>
      <trkpt lat="40.138640" lon="-5.374890">
        <ele>358.152</ele>
        <time>2020-02-28T06:32:53Z</time>
      </trkpt>
      <trkpt lat="40.137960" lon="-5.375990">
        <ele>354.017</ele>
        <time>2020-02-28T06:33:13Z</time>
      </trkpt>
      <trkpt lat="40.137490" lon="-5.376660">
        <ele>347.708</ele>
        <time>2020-02-28T06:33:33Z</time>
      </trkpt>
      <trkpt lat="40.136860" lon="-5.377470">
        <ele>344.669</ele>
        <time>2020-02-28T06:33:53Z</time>
      </trkpt>
      <trkpt lat="40.136560" lon="-5.377910">
        <ele>342.932</ele>
        <time>2020-02-28T06:34:13Z</time>
      </trkpt>
      <trkpt lat="40.136540" lon="-5.377930">
        <ele>342.877</ele>
        <time>2020-02-28T06:34:33Z</time>
      </trkpt>
      <trkpt lat="40.136460" lon="-5.378080">
        <ele>342.578</ele>
        <time>2020-02-28T06:34:53Z</time>
      </trkpt>
      <trkpt lat="40.136260" lon="-5.378530">
        <ele>342.961</ele>
        <time>2020-02-28T06:35:13Z</time>
      </trkpt>
      <trkpt lat="40.136130" lon="-5.378910">
        <ele>344.370</ele>
        <time>2020-02-28T06:35:33Z</time>
      </trkpt>
      <trkpt lat="40.136030" lon="-5.379280">
        <ele>343.571</ele>
        <time>2020-02-28T06:35:53Z</time>
      </trkpt>
      <trkpt lat="40.135930" lon="-5.379550">
        <ele>342.268</ele>
        <time>2020-02-28T06:36:13Z</time>
      </trkpt>
      <trkpt lat="40.135930" lon="-5.379560">
        <ele>342.256</ele>
        <time>2020-02-28T06:36:33Z</time>
      </trkpt>
      <trkpt lat="40.135710" lon="-5.380030">
        <ele>341.859</ele>
        <time>2020-02-28T06:36:53Z</time>
      </trkpt>
      <trkpt lat="40.135590" lon="-5.380210">
        <ele>341.814</ele>
        <time>2020-02-28T06:37:13Z</time>
      </trkpt>
      <trkpt lat="40.134360" lon="-5.381660">
        <ele>350.608</ele>
        <time>2020-02-28T06:37:33Z</time>
      </trkpt>
      <trkpt lat="40.134230" lon="-5.381890">
        <ele>352.069</ele>
        <time>2020-02-28T06:37:53Z</time>
      </trkpt>
      <trkpt lat="40.134140" lon="-5.382110">
        <ele>353.012</ele>
        <time>2020-02-28T06:38:13Z</time>
      </trkpt>
      <trkpt lat="40.134090" lon="-5.382300">
        <ele>353.647</ele>
        <time>2020-02-28T06:38:33Z</time>
      </trkpt>
      <trkpt lat="40.134060" lon="-5.382520">
        <ele>353.418</ele>
        <time>2020-02-28T06:38:53Z</time>
      </trkpt>
      <trkpt lat="40.133820" lon="-5.385390">
        <ele>354.631</ele>
        <time>2020-02-28T06:39:13Z</time>
      </trkpt>
      <trkpt lat="40.133790" lon="-5.386040">
        <ele>354.450</ele>
        <time>2020-02-28T06:39:33Z</time>
      </trkpt>
      <trkpt lat="40.133830" lon="-5.386460">
        <ele>354.251</ele>
        <time>2020-02-28T06:39:53Z</time>
      </trkpt>
      <trkpt lat="40.133930" lon="-5.386900">
        <ele>352.558</ele>
        <time>2020-02-28T06:40:13Z</time>
      </trkpt>
      <trkpt lat="40.134110" lon="-5.387340">
        <ele>351.971</ele>
        <time>2020-02-28T06:40:33Z</time>
      </trkpt>
      <trkpt lat="40.134210" lon="-5.387530">
        <ele>351.341</ele>
        <time>2020-02-28T06:40:53Z</time>
      </trkpt>
      <trkpt lat="40.134410" lon="-5.387800">
        <ele>351.315</ele>
        <time>2020-02-28T06:41:13Z</time>
      </trkpt>
      <trkpt lat="40.135100" lon="-5.388480">
        <ele>351.908</ele>
        <time>2020-02-28T06:41:33Z</time>
      </trkpt>
      <trkpt lat="40.135200" lon="-5.388600">
        <ele>352.051</ele>
        <time>2020-02-28T06:41:53Z</time>
      </trkpt>
      <trkpt lat="40.135360" lon="-5.388860">
        <ele>352.124</ele>
        <time>2020-02-28T06:42:13Z</time>
      </trkpt>
      <trkpt lat="40.135430" lon="-5.389060">
        <ele>353.049</ele>
        <time>2020-02-28T06:42:33Z</time>
      </trkpt>
      <trkpt lat="40.135490" lon="-5.389290">
        <ele>354.310</ele>
        <time>2020-02-28T06:42:53Z</time>
      </trkpt>
      <trkpt lat="40.136330" lon="-5.393830">
        <ele>354.793</ele>
        <time>2020-02-28T06:43:13Z</time>
      </trkpt>
      <trkpt lat="40.136340" lon="-5.393860">
        <ele>354.922</ele>
        <time>2020-02-28T06:43:33Z</time>
      </trkpt>
      <trkpt lat="40.136650" lon="-5.395550">
        <ele>354.723</ele>
        <time>2020-02-28T06:43:53Z</time>
      </trkpt>
      <trkpt lat="40.136730" lon="-5.395880">
        <ele>355.180</ele>
        <time>2020-02-28T06:44:13Z</time>
      </trkpt>
      <trkpt lat="40.136810" lon="-5.396140">
        <ele>355.179</ele>
        <time>2020-02-28T06:44:33Z</time>
      </trkpt>
      <trkpt lat="40.136890" lon="-5.396340">
        <ele>356.805</ele>
        <time>2020-02-28T06:44:53Z</time>
      </trkpt>
      <trkpt lat="40.136910" lon="-5.396370">
        <ele>357.225</ele>
        <time>2020-02-28T06:45:13Z</time>
      </trkpt>
      <trkpt lat="40.137210" lon="-5.396980">
        <ele>357.808</ele>
        <time>2020-02-28T06:45:33Z</time>
      </trkpt>
      <trkpt lat="40.137410" lon="-5.397460">
        <ele>358.381</ele>
        <time>2020-02-28T06:45:53Z</time>
      </trkpt>
      <trkpt lat="40.137480" lon="-5.397670">
        <ele>358.984</ele>
        <time>2020-02-28T06:46:13Z</time>
      </trkpt>
      <trkpt lat="40.137500" lon="-5.397770">
        <ele>359.069</ele>
        <time>2020-02-28T06:46:33Z</time>
      </trkpt>
      <trkpt lat="40.137510" lon="-5.397790">
        <ele>359.130</ele>
        <time>2020-02-28T06:46:53Z</time>
      </trkpt>
      <trkpt lat="40.137620" lon="-5.398320">
        <ele>358.983</ele>
        <time>2020-02-28T06:47:13Z</time>
      </trkpt>
      <trkpt lat="40.137640" lon="-5.398520">
        <ele>359.052</ele>
        <time>2020-02-28T06:47:33Z</time>
      </trkpt>
      <trkpt lat="40.137640" lon="-5.398830">
        <ele>358.683</ele>
        <time>2020-02-28T06:47:53Z</time>
      </trkpt>
      <trkpt lat="40.137570" lon="-5.399380">
        <ele>358.470</ele>
        <time>2020-02-28T06:48:13Z</time>
      </trkpt>
      <trkpt lat="40.137520" lon="-5.399620">
        <ele>358.973</ele>
        <time>2020-02-28T06:48:33Z</time>
      </trkpt>
      <trkpt lat="40.137410" lon="-5.399980">
        <ele>357.785</ele>
        <time>2020-02-28T06:48:53Z</time>
      </trkpt>
      <trkpt lat="40.137230" lon="-5.400380">
        <ele>354.513</ele>
        <time>2020-02-28T06:49:13Z</time>
      </trkpt>
      <trkpt lat="40.136980" lon="-5.400790">
        <ele>354.908</ele>
        <time>2020-02-28T06:49:33Z</time>
      </trkpt>
      <trkpt lat="40.136870" lon="-5.400930">
        <ele>355.351</ele>
        <time>2020-02-28T06:49:53Z</time>
      </trkpt>
      <trkpt lat="40.136870" lon="-5.400940">
        <ele>355.414</ele>
        <time>2020-02-28T06:50:13Z</time>
      </trkpt>
      <trkpt lat="40.136820" lon="-5.400990">
        <ele>355.649</ele>
        <time>2020-02-28T06:50:33Z</time>
      </trkpt>
      <trkpt lat="40.136760" lon="-5.401070">
        <ele>355.960</ele>
        <time>2020-02-28T06:50:53Z</time>
      </trkpt>
      <trkpt lat="40.136710" lon="-5.401110">
        <ele>356.073</ele>
        <time>2020-02-28T06:51:13Z</time>
      </trkpt>
      <trkpt lat="40.136640" lon="-5.401190">
        <ele>356.392</ele>
        <time>2020-02-28T06:51:33Z</time>
      </trkpt>
      <trkpt lat="40.136520" lon="-5.401290">
        <ele>356.683</ele>
        <time>2020-02-28T06:51:53Z</time>
      </trkpt>
      <trkpt lat="40.136500" lon="-5.401300">
        <ele>356.740</ele>
        <time>2020-02-28T06:52:13Z</time>
      </trkpt>
      <trkpt lat="40.136420" lon="-5.401360">
        <ele>356.972</ele>
        <time>2020-02-28T06:52:33Z</time>
      </trkpt>
      <trkpt lat="40.136410" lon="-5.401360">
        <ele>356.913</ele>
        <time>2020-02-28T06:52:53Z</time>
      </trkpt>
      <trkpt lat="40.135880" lon="-5.401670">
        <ele>358.814</ele>
        <time>2020-02-28T06:53:13Z</time>
      </trkpt>
      <trkpt lat="40.135580" lon="-5.401810">
        <ele>359.508</ele>
        <time>2020-02-28T06:53:33Z</time>
      </trkpt>
      <trkpt lat="40.135460" lon="-5.401900">
        <ele>359.231</ele>
        <time>2020-02-28T06:53:53Z</time>
      </trkpt>
      <trkpt lat="40.135290" lon="-5.402060">
        <ele>358.124</ele>
        <time>2020-02-28T06:54:13Z</time>
      </trkpt>
      <trkpt lat="40.135270" lon="-5.402090">
        <ele>358.069</ele>
        <time>2020-02-28T06:54:33Z</time>
      </trkpt>
      <trkpt lat="40.135240" lon="-5.402120">
        <ele>358.150</ele>
        <time>2020-02-28T06:54:53Z</time>
      </trkpt>
      <trkpt lat="40.135210" lon="-5.402170">
        <ele>358.223</ele>
        <time>2020-02-28T06:55:13Z</time>
      </trkpt>
      <trkpt lat="40.135200" lon="-5.402170">
        <ele>358.292</ele>
        <time>2020-02-28T06:55:33Z</time>
      </trkpt>
      <trkpt lat="40.135140" lon="-5.402270">
        <ele>358.693</ele>
        <time>2020-02-28T06:55:53Z</time>
      </trkpt>
      <trkpt lat="40.135030" lon="-5.402550">
        <ele>359.260</ele>
        <time>2020-02-28T06:56:13Z</time>
      </trkpt>
      <trkpt lat="40.135020" lon="-5.402630">
        <ele>359.545</ele>
        <time>2020-02-28T06:56:33Z</time>
      </trkpt>
      <trkpt lat="40.134980" lon="-5.402780">
        <ele>360.047</ele>
        <time>2020-02-28T06:56:53Z</time>
      </trkpt>
      <trkpt lat="40.134550" lon="-5.407950">
        <ele>361.111</ele>
        <time>2020-02-28T06:57:13Z</time>
      </trkpt>
      <trkpt lat="40.134500" lon="-5.408340">
        <ele>360.608</ele>
        <time>2020-02-28T06:57:33Z</time>
      </trkpt>
      <trkpt lat="40.134440" lon="-5.408610">
        <ele>360.078</ele>
        <time>2020-02-28T06:57:53Z</time>
      </trkpt>
      <trkpt lat="40.134440" lon="-5.408630">
        <ele>360.091</ele>
        <time>2020-02-28T06:58:13Z</time>
      </trkpt>
      <trkpt lat="40.133200" lon="-5.413210">
        <ele>369.926</ele>
        <time>2020-02-28T06:58:33Z</time>
      </trkpt>
      <trkpt lat="40.133040" lon="-5.414030">
        <ele>374.717</ele>
        <time>2020-02-28T06:58:53Z</time>
      </trkpt>
      <trkpt lat="40.133000" lon="-5.414420">
        <ele>376.760</ele>
        <time>2020-02-28T06:59:13Z</time>
      </trkpt>
      <trkpt lat="40.132990" lon="-5.414650">
        <ele>377.519</ele>
        <time>2020-02-28T06:59:33Z</time>
      </trkpt>
      <trkpt lat="40.132980" lon="-5.414670">
        <ele>377.710</ele>
        <time>2020-02-28T06:59:53Z</time>
      </trkpt>
      <trkpt lat="40.132970" lon="-5.414850">
        <ele>378.267</ele>
        <time>2020-02-28T07:00:13Z</time>
      </trkpt>
      <trkpt lat="40.132810" lon="-5.416280">
        <ele>382.324</ele>
        <time>2020-02-28T07:00:33Z</time>
      </trkpt>
      <trkpt lat="40.132810" lon="-5.416420">
        <ele>382.704</ele>
        <time>2020-02-28T07:00:53Z</time>
      </trkpt>
      <trkpt lat="40.132820" lon="-5.416480">
        <ele>382.514</ele>
        <time>2020-02-28T07:01:13Z</time>
      </trkpt>
      <trkpt lat="40.132820" lon="-5.416540">
        <ele>382.508</ele>
        <time>2020-02-28T07:01:33Z</time>
      </trkpt>
      <trkpt lat="40.132900" lon="-5.416870">
        <ele>383.156</ele>
        <time>2020-02-28T07:01:53Z</time>
      </trkpt>
      <trkpt lat="40.133240" lon="-5.417870">
        <ele>387.539</ele>
        <time>2020-02-28T07:02:13Z</time>
      </trkpt>
      <trkpt lat="40.133320" lon="-5.418330">
        <ele>390.124</ele>
        <time>2020-02-28T07:02:33Z</time>
      </trkpt>
      <trkpt lat="40.133320" lon="-5.418620">
        <ele>392.265</ele>
        <time>2020-02-28T07:02:53Z</time>
      </trkpt>
      <trkpt lat="40.133310" lon="-5.418710">
        <ele>392.668</ele>
        <time>2020-02-28T07:03:13Z</time>
      </trkpt>
      <trkpt lat="40.133270" lon="-5.418900">
        <ele>393.737</ele>
        <time>2020-02-28T07:03:33Z</time>
      </trkpt>
      <trkpt lat="40.133210" lon="-5.419090">
        <ele>395.128</ele>
        <time>2020-02-28T07:03:53Z</time>
      </trkpt>
      <trkpt lat="40.133120" lon="-5.419310">
        <ele>396.885</ele>
        <time>2020-02-28T07:04:13Z</time>
      </trkpt>
      <trkpt lat="40.132570" lon="-5.420000">
        <ele>401.555</ele>
        <time>2020-02-28T07:04:33Z</time>
      </trkpt>
      <trkpt lat="40.131600" lon="-5.421090">
        <ele>406.807</ele>
        <time>2020-02-28T07:04:53Z</time>
      </trkpt>
      <trkpt lat="40.131190" lon="-5.421610">
        <ele>411.217</ele>
        <time>2020-02-28T07:05:13Z</time>
      </trkpt>
      <trkpt lat="40.131050" lon="-5.421890">
        <ele>413.108</ele>
        <time>2020-02-28T07:05:33Z</time>
      </trkpt>
      <trkpt lat="40.131020" lon="-5.421970">
        <ele>413.499</ele>
        <time>2020-02-28T07:05:53Z</time>
      </trkpt>
      <trkpt lat="40.130960" lon="-5.422200">
        <ele>414.592</ele>
        <time>2020-02-28T07:06:13Z</time>
      </trkpt>
      <trkpt lat="40.130950" lon="-5.422310">
        <ele>414.947</ele>
        <time>2020-02-28T07:06:33Z</time>
      </trkpt>
      <trkpt lat="40.130950" lon="-5.422710">
        <ele>416.378</ele>
        <time>2020-02-28T07:06:53Z</time>
      </trkpt>
      <trkpt lat="40.130980" lon="-5.422890">
        <ele>416.921</ele>
        <time>2020-02-28T07:07:13Z</time>
      </trkpt>
      <trkpt lat="40.131020" lon="-5.423040">
        <ele>417.340</ele>
        <time>2020-02-28T07:07:33Z</time>
      </trkpt>
      <trkpt lat="40.131360" lon="-5.423880">
        <ele>420.021</ele>
        <time>2020-02-28T07:07:53Z</time>
      </trkpt>
      <trkpt lat="40.131370" lon="-5.423930">
        <ele>420.048</ele>
        <time>2020-02-28T07:08:13Z</time>
      </trkpt>
      <trkpt lat="40.131380" lon="-5.423950">
        <ele>420.061</ele>
        <time>2020-02-28T07:08:33Z</time>
      </trkpt>
      <trkpt lat="40.131440" lon="-5.424230">
        <ele>419.521</ele>
        <time>2020-02-28T07:08:53Z</time>
      </trkpt>
      <trkpt lat="40.131450" lon="-5.424420">
        <ele>420.213</ele>
        <time>2020-02-28T07:09:13Z</time>
      </trkpt>
      <trkpt lat="40.131360" lon="-5.426290">
        <ele>426.008</ele>
        <time>2020-02-28T07:09:33Z</time>
      </trkpt>
      <trkpt lat="40.131360" lon="-5.426700">
        <ele>427.430</ele>
        <time>2020-02-28T07:09:53Z</time>
      </trkpt>
      <trkpt lat="40.131400" lon="-5.427080">
        <ele>428.413</ele>
        <time>2020-02-28T07:10:13Z</time>
      </trkpt>
      <trkpt lat="40.131660" lon="-5.428630">
        <ele>430.088</ele>
        <time>2020-02-28T07:10:33Z</time>
      </trkpt>
      <trkpt lat="40.131720" lon="-5.429170">
        <ele>430.259</ele>
        <time>2020-02-28T07:10:53Z</time>
      </trkpt>
      <trkpt lat="40.131770" lon="-5.429960">
        <ele>431.152</ele>
        <time>2020-02-28T07:11:13Z</time>
      </trkpt>
      <trkpt lat="40.131840" lon="-5.430480">
        <ele>432.351</ele>
        <time>2020-02-28T07:11:33Z</time>
      </trkpt>
      <trkpt lat="40.131930" lon="-5.430910">
        <ele>434.722</ele>
        <time>2020-02-28T07:11:53Z</time>
      </trkpt>
      <trkpt lat="40.132380" lon="-5.432510">
        <ele>441.269</ele>
        <time>2020-02-28T07:12:13Z</time>
      </trkpt>
      <trkpt lat="40.132470" lon="-5.433050">
        <ele>443.623</ele>
        <time>2020-02-28T07:12:33Z</time>
      </trkpt>
      <trkpt lat="40.132940" lon="-5.438510">
        <ele>454.283</ele>
        <time>2020-02-28T07:12:53Z</time>
      </trkpt>
      <trkpt lat="40.132940" lon="-5.438760">
        <ele>455.311</ele>
        <time>2020-02-28T07:13:13Z</time>
      </trkpt>
      <trkpt lat="40.132910" lon="-5.439130">
        <ele>456.808</ele>
        <time>2020-02-28T07:13:33Z</time>
      </trkpt>
      <trkpt lat="40.132780" lon="-5.439730">
        <ele>458.196</ele>
        <time>2020-02-28T07:13:53Z</time>
      </trkpt>
      <trkpt lat="40.132530" lon="-5.440400">
        <ele>457.599</ele>
        <time>2020-02-28T07:14:13Z</time>
      </trkpt>
      <trkpt lat="40.132440" lon="-5.440600">
        <ele>457.874</ele>
        <time>2020-02-28T07:14:33Z</time>
      </trkpt>
      <trkpt lat="40.132390" lon="-5.440690">
        <ele>458.175</ele>
        <time>2020-02-28T07:14:53Z</time>
      </trkpt>
      <trkpt lat="40.131450" lon="-5.442770">
        <ele>467.058</ele>
        <time>2020-02-28T07:15:13Z</time>
      </trkpt>
      <trkpt lat="40.131250" lon="-5.443300">
        <ele>471.557</ele>
        <time>2020-02-28T07:15:33Z</time>
      </trkpt>
      <trkpt lat="40.131130" lon="-5.443760">
        <ele>473.568</ele>
        <time>2020-02-28T07:15:53Z</time>
      </trkpt>
      <trkpt lat="40.130940" lon="-5.445410">
        <ele>482.595</ele>
        <time>2020-02-28T07:16:13Z</time>
      </trkpt>
      <trkpt lat="40.130940" lon="-5.445540">
        <ele>483.478</ele>
        <time>2020-02-28T07:16:33Z</time>
      </trkpt>
      <trkpt lat="40.130930" lon="-5.445620">
        <ele>483.933</ele>
        <time>2020-02-28T07:16:53Z</time>
      </trkpt>
      <trkpt lat="40.130940" lon="-5.445880">
        <ele>485.826</ele>
        <time>2020-02-28T07:17:13Z</time>
      </trkpt>
      <trkpt lat="40.130980" lon="-5.446040">
        <ele>485.908</ele>
        <time>2020-02-28T07:17:33Z</time>
      </trkpt>
      <trkpt lat="40.131050" lon="-5.446220">
        <ele>485.681</ele>
        <time>2020-02-28T07:17:53Z</time>
      </trkpt>
      <trkpt lat="40.131090" lon="-5.446290">
        <ele>485.544</ele>
        <time>2020-02-28T07:18:13Z</time>
      </trkpt>
      <trkpt lat="40.131210" lon="-5.446460">
        <ele>485.299</ele>
        <time>2020-02-28T07:18:33Z</time>
      </trkpt>
      <trkpt lat="40.131390" lon="-5.446650">
        <ele>485.130</ele>
        <time>2020-02-28T07:18:53Z</time>
      </trkpt>
      <trkpt lat="40.131400" lon="-5.446650">
        <ele>485.213</ele>
        <time>2020-02-28T07:19:13Z</time>
      </trkpt>
      <trkpt lat="40.131900" lon="-5.447240">
        <ele>482.582</ele>
        <time>2020-02-28T07:19:33Z</time>
      </trkpt>
      <trkpt lat="40.132140" lon="-5.447570">
        <ele>480.913</ele>
        <time>2020-02-28T07:19:53Z</time>
      </trkpt>
      <trkpt lat="40.132270" lon="-5.447790">
        <ele>477.980</ele>
        <time>2020-02-28T07:20:13Z</time>
      </trkpt>
      <trkpt lat="40.132310" lon="-5.447900">
        <ele>475.799</ele>
        <time>2020-02-28T07:20:33Z</time>
      </trkpt>
      <trkpt lat="40.132360" lon="-5.448100">
        <ele>473.207</ele>
        <time>2020-02-28T07:20:53Z</time>
      </trkpt>
      <trkpt lat="40.132400" lon="-5.448350">
        <ele>478.027</ele>
        <time>2020-02-28T07:21:13Z</time>
      </trkpt>
      <trkpt lat="40.132400" lon="-5.448460">
        <ele>479.408</ele>
        <time>2020-02-28T07:21:33Z</time>
      </trkpt>
      <trkpt lat="40.132380" lon="-5.448700">
        <ele>481.923</ele>
        <time>2020-02-28T07:21:53Z</time>
      </trkpt>
      <trkpt lat="40.132360" lon="-5.448810">
        <ele>483.096</ele>
        <time>2020-02-28T07:22:13Z</time>
      </trkpt>
      <trkpt lat="40.132250" lon="-5.449180">
        <ele>485.441</ele>
        <time>2020-02-28T07:22:33Z</time>
      </trkpt>
      <trkpt lat="40.132170" lon="-5.449360">
        <ele>486.862</ele>
        <time>2020-02-28T07:22:53Z</time>
      </trkpt>
      <trkpt lat="40.131320" lon="-5.450830">
        <ele>489.575</ele>
        <time>2020-02-28T07:23:13Z</time>
      </trkpt>
      <trkpt lat="40.131310" lon="-5.450860">
        <ele>489.644</ele>
        <time>2020-02-28T07:23:33Z</time>
      </trkpt>
      <trkpt lat="40.130180" lon="-5.452790">
        <ele>487.495</ele>
        <time>2020-02-28T07:23:53Z</time>
      </trkpt>
      <trkpt lat="40.130090" lon="-5.452920">
        <ele>487.372</ele>
        <time>2020-02-28T07:24:13Z</time>
      </trkpt>
      <trkpt lat="40.129970" lon="-5.453180">
        <ele>487.233</ele>
        <time>2020-02-28T07:24:33Z</time>
      </trkpt>
      <trkpt lat="40.129870" lon="-5.453480">
        <ele>486.823</ele>
        <time>2020-02-28T07:24:53Z</time>
      </trkpt>
      <trkpt lat="40.129850" lon="-5.453640">
        <ele>486.315</ele>
        <time>2020-02-28T07:25:13Z</time>
      </trkpt>
      <trkpt lat="40.129850" lon="-5.453880">
        <ele>485.408</ele>
        <time>2020-02-28T07:25:33Z</time>
      </trkpt>
      <trkpt lat="40.129860" lon="-5.453970">
        <ele>485.247</ele>
        <time>2020-02-28T07:25:53Z</time>
      </trkpt>
      <trkpt lat="40.129890" lon="-5.454100">
        <ele>485.180</ele>
        <time>2020-02-28T07:26:13Z</time>
      </trkpt>
      <trkpt lat="40.129910" lon="-5.454150">
        <ele>485.155</ele>
        <time>2020-02-28T07:26:33Z</time>
      </trkpt>
      <trkpt lat="40.129940" lon="-5.454280">
        <ele>484.646</ele>
        <time>2020-02-28T07:26:53Z</time>
      </trkpt>
      <trkpt lat="40.129960" lon="-5.454320">
        <ele>484.579</ele>
        <time>2020-02-28T07:27:13Z</time>
      </trkpt>
      <trkpt lat="40.130000" lon="-5.454450">
        <ele>484.078</ele>
        <time>2020-02-28T07:27:33Z</time>
      </trkpt>
      <trkpt lat="40.130130" lon="-5.454720">
        <ele>484.939</ele>
        <time>2020-02-28T07:27:53Z</time>
      </trkpt>
      <trkpt lat="40.130140" lon="-5.454730">
        <ele>485.096</ele>
        <time>2020-02-28T07:28:13Z</time>
      </trkpt>
      <trkpt lat="40.130410" lon="-5.455270">
        <ele>484.087</ele>
        <time>2020-02-28T07:28:33Z</time>
      </trkpt>
      <trkpt lat="40.130460" lon="-5.455350">
        <ele>483.942</ele>
        <time>2020-02-28T07:28:53Z</time>
      </trkpt>
      <trkpt lat="40.130550" lon="-5.455580">
        <ele>482.826</ele>
        <time>2020-02-28T07:29:13Z</time>
      </trkpt>
      <trkpt lat="40.130620" lon="-5.455860">
        <ele>481.808</ele>
        <time>2020-02-28T07:29:33Z</time>
      </trkpt>
      <trkpt lat="40.130730" lon="-5.456610">
        <ele>487.332</ele>
        <time>2020-02-28T07:29:53Z</time>
      </trkpt>
      <trkpt lat="40.130740" lon="-5.456870">
        <ele>489.465</ele>
        <time>2020-02-28T07:30:13Z</time>
      </trkpt>
      <trkpt lat="40.130670" lon="-5.457690">
        <ele>492.170</ele>
        <time>2020-02-28T07:30:33Z</time>
      </trkpt>
      <trkpt lat="40.130640" lon="-5.457840">
        <ele>492.561</ele>
        <time>2020-02-28T07:30:53Z</time>
      </trkpt>
      <trkpt lat="40.130240" lon="-5.458990">
        <ele>493.234</ele>
        <time>2020-02-28T07:31:13Z</time>
      </trkpt>
      <trkpt lat="40.130220" lon="-5.459100">
        <ele>493.473</ele>
        <time>2020-02-28T07:31:33Z</time>
      </trkpt>
      <trkpt lat="40.130220" lon="-5.459190">
        <ele>493.664</ele>
        <time>2020-02-28T07:31:53Z</time>
      </trkpt>
      <trkpt lat="40.130230" lon="-5.459280">
        <ele>493.711</ele>
        <time>2020-02-28T07:32:13Z</time>
      </trkpt>
      <trkpt lat="40.130550" lon="-5.460520">
        <ele>499.812</ele>
        <time>2020-02-28T07:32:33Z</time>
      </trkpt>
      <trkpt lat="40.130940" lon="-5.461500">
        <ele>506.532</ele>
        <time>2020-02-28T07:32:53Z</time>
      </trkpt>
      <trkpt lat="40.131180" lon="-5.462930">
        <ele>509.405</ele>
        <time>2020-02-28T07:33:13Z</time>
      </trkpt>
      <trkpt lat="40.131140" lon="-5.463130">
        <ele>509.408</ele>
        <time>2020-02-28T07:33:33Z</time>
      </trkpt>
      <trkpt lat="40.131090" lon="-5.463210">
        <ele>509.635</ele>
        <time>2020-02-28T07:33:53Z</time>
      </trkpt>
      <trkpt lat="40.131040" lon="-5.463260">
        <ele>510.088</ele>
        <time>2020-02-28T07:34:13Z</time>
      </trkpt>
      <trkpt lat="40.131000" lon="-5.463280">
        <ele>510.213</ele>
        <time>2020-02-28T07:34:33Z</time>
      </trkpt>
      <trkpt lat="40.130960" lon="-5.463310">
        <ele>510.534</ele>
        <time>2020-02-28T07:34:53Z</time>
      </trkpt>
      <trkpt lat="40.130420" lon="-5.463470">
        <ele>513.537</ele>
        <time>2020-02-28T07:35:13Z</time>
      </trkpt>
      <trkpt lat="40.130400" lon="-5.463480">
        <ele>513.576</ele>
        <time>2020-02-28T07:35:33Z</time>
      </trkpt>
      <trkpt lat="40.130400" lon="-5.463490">
        <ele>513.667</ele>
        <time>2020-02-28T07:35:53Z</time>
      </trkpt>
      <trkpt lat="40.130370" lon="-5.463500">
        <ele>513.624</ele>
        <time>2020-02-28T07:36:13Z</time>
      </trkpt>
      <trkpt lat="40.130280" lon="-5.463600">
        <ele>514.034</ele>
        <time>2020-02-28T07:36:33Z</time>
      </trkpt>
      <trkpt lat="40.130040" lon="-5.464090">
        <ele>515.055</ele>
        <time>2020-02-28T07:36:53Z</time>
      </trkpt>
      <trkpt lat="40.129940" lon="-5.464400">
        <ele>514.910</ele>
        <time>2020-02-28T07:37:13Z</time>
      </trkpt>
      <trkpt lat="40.129890" lon="-5.464500">
        <ele>514.608</ele>
        <time>2020-02-28T07:37:33Z</time>
      </trkpt>
      <trkpt lat="40.129820" lon="-5.464610">
        <ele>514.097</ele>
        <time>2020-02-28T07:37:53Z</time>
      </trkpt>
      <trkpt lat="40.129750" lon="-5.464690">
        <ele>513.320</ele>
        <time>2020-02-28T07:38:13Z</time>
      </trkpt>
      <trkpt lat="40.129620" lon="-5.464780">
        <ele>513.035</ele>
        <time>2020-02-28T07:38:33Z</time>
      </trkpt>
      <trkpt lat="40.129570" lon="-5.464790">
        <ele>512.956</ele>
        <time>2020-02-28T07:38:53Z</time>
      </trkpt>
      <trkpt lat="40.128300" lon="-5.465190">
        <ele>509.859</ele>
        <time>2020-02-28T07:39:13Z</time>
      </trkpt>
      <trkpt lat="40.128190" lon="-5.465270">
        <ele>509.028</ele>
        <time>2020-02-28T07:39:33Z</time>
      </trkpt>
      <trkpt lat="40.128140" lon="-5.465320">
        <ele>508.579</ele>
        <time>2020-02-28T07:39:53Z</time>
      </trkpt>
      <trkpt lat="40.128080" lon="-5.465430">
        <ele>507.726</ele>
        <time>2020-02-28T07:40:13Z</time>
      </trkpt>
      <trkpt lat="40.127800" lon="-5.466350">
        <ele>503.331</ele>
        <time>2020-02-28T07:40:33Z</time>
      </trkpt>
      <trkpt lat="40.127730" lon="-5.466540">
        <ele>501.961</ele>
        <time>2020-02-28T07:40:53Z</time>
      </trkpt>
      <trkpt lat="40.127700" lon="-5.466650">
        <ele>501.207</ele>
        <time>2020-02-28T07:41:13Z</time>
      </trkpt>
      <trkpt lat="40.127700" lon="-5.466690">
        <ele>501.108</ele>
        <time>2020-02-28T07:41:33Z</time>
      </trkpt>
      <trkpt lat="40.127730" lon="-5.466850">
        <ele>500.857</ele>
        <time>2020-02-28T07:41:53Z</time>
      </trkpt>
      <trkpt lat="40.127850" lon="-5.467140">
        <ele>502.140</ele>
        <time>2020-02-28T07:42:13Z</time>
      </trkpt>
      <trkpt lat="40.127870" lon="-5.467220">
        <ele>502.355</ele>
        <time>2020-02-28T07:42:33Z</time>
      </trkpt>
      <trkpt lat="40.127870" lon="-5.467400">
        <ele>502.586</ele>
        <time>2020-02-28T07:42:53Z</time>
      </trkpt>
      <trkpt lat="40.127830" lon="-5.467610">
        <ele>502.479</ele>
        <time>2020-02-28T07:43:13Z</time>
      </trkpt>
      <trkpt lat="40.127760" lon="-5.467860">
        <ele>501.828</ele>
        <time>2020-02-28T07:43:33Z</time>
      </trkpt>
      <trkpt lat="40.127690" lon="-5.468320">
        <ele>502.739</ele>
        <time>2020-02-28T07:43:53Z</time>
      </trkpt>
      <trkpt lat="40.127670" lon="-5.468770">
        <ele>501.436</ele>
        <time>2020-02-28T07:44:13Z</time>
      </trkpt>
      <trkpt lat="40.127690" lon="-5.468960">
        <ele>500.779</ele>
        <time>2020-02-28T07:44:33Z</time>
      </trkpt>
      <trkpt lat="40.127710" lon="-5.469010">
        <ele>500.705</ele>
        <time>2020-02-28T07:44:53Z</time>
      </trkpt>
      <trkpt lat="40.127720" lon="-5.469060">
        <ele>500.525</ele>
        <time>2020-02-28T07:45:13Z</time>
      </trkpt>
      <trkpt lat="40.127790" lon="-5.469180">
        <ele>500.808</ele>
        <time>2020-02-28T07:45:33Z</time>
      </trkpt>
      <trkpt lat="40.128070" lon="-5.469480">
        <ele>499.171</ele>
        <time>2020-02-28T07:45:53Z</time>
      </trkpt>
      <trkpt lat="40.128330" lon="-5.469810">
        <ele>500.654</ele>
        <time>2020-02-28T07:46:13Z</time>
      </trkpt>
      <trkpt lat="40.128430" lon="-5.469980">
        <ele>501.469</ele>
        <time>2020-02-28T07:46:33Z</time>
      </trkpt>
      <trkpt lat="40.128470" lon="-5.470090">
        <ele>501.540</ele>
        <time>2020-02-28T07:46:53Z</time>
      </trkpt>
      <trkpt lat="40.128470" lon="-5.470100">
        <ele>501.453</ele>
        <time>2020-02-28T07:47:13Z</time>
      </trkpt>
      <trkpt lat="40.128510" lon="-5.470250">
        <ele>501.642</ele>
        <time>2020-02-28T07:47:33Z</time>
      </trkpt>
      <trkpt lat="40.128530" lon="-5.470540">
        <ele>502.673</ele>
        <time>2020-02-28T07:47:53Z</time>
      </trkpt>
      <trkpt lat="40.128520" lon="-5.470590">
        <ele>502.710</ele>
        <time>2020-02-28T07:48:13Z</time>
      </trkpt>
      <trkpt lat="40.128500" lon="-5.470850">
        <ele>504.372</ele>
        <time>2020-02-28T07:48:33Z</time>
      </trkpt>
      <trkpt lat="40.128470" lon="-5.471000">
        <ele>504.913</ele>
        <time>2020-02-28T07:48:53Z</time>
      </trkpt>
      <trkpt lat="40.128380" lon="-5.471310">
        <ele>506.014</ele>
        <time>2020-02-28T07:49:13Z</time>
      </trkpt>
      <trkpt lat="40.128160" lon="-5.471840">
        <ele>507.308</ele>
        <time>2020-02-28T07:49:33Z</time>
      </trkpt>
      <trkpt lat="40.127800" lon="-5.472580">
        <ele>509.251</ele>
        <time>2020-02-28T07:49:53Z</time>
      </trkpt>
      <trkpt lat="40.127780" lon="-5.472640">
        <ele>509.164</ele>
        <time>2020-02-28T07:50:13Z</time>
      </trkpt>
      <trkpt lat="40.127770" lon="-5.472650">
        <ele>508.919</ele>
        <time>2020-02-28T07:50:33Z</time>
      </trkpt>
      <trkpt lat="40.127690" lon="-5.472920">
        <ele>508.640</ele>
        <time>2020-02-28T07:50:53Z</time>
      </trkpt>
      <trkpt lat="40.127670" lon="-5.473070">
        <ele>509.023</ele>
        <time>2020-02-28T07:51:13Z</time>
      </trkpt>
      <trkpt lat="40.127690" lon="-5.473620">
        <ele>512.552</ele>
        <time>2020-02-28T07:51:33Z</time>
      </trkpt>
      <trkpt lat="40.127680" lon="-5.473990">
        <ele>514.313</ele>
        <time>2020-02-28T07:51:53Z</time>
      </trkpt>
      <trkpt lat="40.127660" lon="-5.474110">
        <ele>514.610</ele>
        <time>2020-02-28T07:52:13Z</time>
      </trkpt>
      <trkpt lat="40.127620" lon="-5.474260">
        <ele>515.145</ele>
        <time>2020-02-28T07:52:33Z</time>
      </trkpt>
      <trkpt lat="40.127560" lon="-5.474400">
        <ele>515.547</ele>
        <time>2020-02-28T07:52:53Z</time>
      </trkpt>
      <trkpt lat="40.127420" lon="-5.474620">
        <ele>516.511</ele>
        <time>2020-02-28T07:53:13Z</time>
      </trkpt>
      <trkpt lat="40.127210" lon="-5.474900">
        <ele>516.308</ele>
        <time>2020-02-28T07:53:33Z</time>
      </trkpt>
      <trkpt lat="40.127020" lon="-5.475200">
        <ele>515.168</ele>
        <time>2020-02-28T07:53:53Z</time>
      </trkpt>
      <trkpt lat="40.126980" lon="-5.475280">
        <ele>514.431</ele>
        <time>2020-02-28T07:54:13Z</time>
      </trkpt>
      <trkpt lat="40.126920" lon="-5.475480">
        <ele>514.176</ele>
        <time>2020-02-28T07:54:33Z</time>
      </trkpt>
      <trkpt lat="40.126740" lon="-5.476560">
        <ele>521.657</ele>
        <time>2020-02-28T07:54:53Z</time>
      </trkpt>
      <trkpt lat="40.126440" lon="-5.477950">
        <ele>525.560</ele>
        <time>2020-02-28T07:55:13Z</time>
      </trkpt>
      <trkpt lat="40.126400" lon="-5.478090">
        <ele>525.479</ele>
        <time>2020-02-28T07:55:33Z</time>
      </trkpt>
      <trkpt lat="40.126380" lon="-5.478290">
        <ele>525.620</ele>
        <time>2020-02-28T07:55:53Z</time>
      </trkpt>
      <trkpt lat="40.126380" lon="-5.478410">
        <ele>525.597</ele>
        <time>2020-02-28T07:56:13Z</time>
      </trkpt>
      <trkpt lat="40.126400" lon="-5.478640">
        <ele>525.033</ele>
        <time>2020-02-28T07:56:33Z</time>
      </trkpt>
      <trkpt lat="40.126450" lon="-5.478840">
        <ele>524.823</ele>
        <time>2020-02-28T07:56:53Z</time>
      </trkpt>
      <trkpt lat="40.126610" lon="-5.479300">
        <ele>526.915</ele>
        <time>2020-02-28T07:57:13Z</time>
      </trkpt>
      <trkpt lat="40.126640" lon="-5.479610">
        <ele>527.308</ele>
        <time>2020-02-28T07:57:33Z</time>
      </trkpt>
      <trkpt lat="40.126620" lon="-5.479880">
        <ele>527.757</ele>
        <time>2020-02-28T07:57:53Z</time>
      </trkpt>
      <trkpt lat="40.125730" lon="-5.484130">
        <ele>527.940</ele>
        <time>2020-02-28T07:58:13Z</time>
      </trkpt>
      <trkpt lat="40.125720" lon="-5.484420">
        <ele>526.955</ele>
        <time>2020-02-28T07:58:33Z</time>
      </trkpt>
      <trkpt lat="40.125760" lon="-5.485120">
        <ele>525.886</ele>
        <time>2020-02-28T07:58:53Z</time>
      </trkpt>
      <trkpt lat="40.125950" lon="-5.487180">
        <ele>535.459</ele>
        <time>2020-02-28T07:59:13Z</time>
      </trkpt>
      <trkpt lat="40.125950" lon="-5.487250">
        <ele>535.948</ele>
        <time>2020-02-28T07:59:33Z</time>
      </trkpt>
      <trkpt lat="40.125960" lon="-5.487290">
        <ele>536.369</ele>
        <time>2020-02-28T07:59:53Z</time>
      </trkpt>
      <trkpt lat="40.126140" lon="-5.489420">
        <ele>534.426</ele>
        <time>2020-02-28T08:00:13Z</time>
      </trkpt>
      <trkpt lat="40.126150" lon="-5.489710">
        <ele>533.576</ele>
        <time>2020-02-28T08:00:33Z</time>
      </trkpt>
      <trkpt lat="40.126090" lon="-5.490150">
        <ele>533.890</ele>
        <time>2020-02-28T08:00:53Z</time>
      </trkpt>
      <trkpt lat="40.126020" lon="-5.490400">
        <ele>534.019</ele>
        <time>2020-02-28T08:01:13Z</time>
      </trkpt>
      <trkpt lat="40.125870" lon="-5.490820">
        <ele>532.008</ele>
        <time>2020-02-28T08:01:33Z</time>
      </trkpt>
      <trkpt lat="40.125530" lon="-5.491530">
        <ele>527.991</ele>
        <time>2020-02-28T08:01:53Z</time>
      </trkpt>
      <trkpt lat="40.125390" lon="-5.491890">
        <ele>525.844</ele>
        <time>2020-02-28T08:02:13Z</time>
      </trkpt>
      <trkpt lat="40.125290" lon="-5.492250">
        <ele>525.519</ele>
        <time>2020-02-28T08:02:33Z</time>
      </trkpt>
      <trkpt lat="40.125280" lon="-5.492410">
        <ele>526.480</ele>
        <time>2020-02-28T08:02:53Z</time>
      </trkpt>
      <trkpt lat="40.125210" lon="-5.492790">
        <ele>526.283</ele>
        <time>2020-02-28T08:03:13Z</time>
      </trkpt>
      <trkpt lat="40.125170" lon="-5.492900">
        <ele>526.162</ele>
        <time>2020-02-28T08:03:33Z</time>
      </trkpt>
      <trkpt lat="40.125130" lon="-5.492980">
        <ele>526.073</ele>
        <time>2020-02-28T08:03:53Z</time>
      </trkpt>
      <trkpt lat="40.125060" lon="-5.493090">
        <ele>525.980</ele>
        <time>2020-02-28T08:04:13Z</time>
      </trkpt>
      <trkpt lat="40.124830" lon="-5.493360">
        <ele>525.023</ele>
        <time>2020-02-28T08:04:33Z</time>
      </trkpt>
      <trkpt lat="40.124220" lon="-5.494490">
        <ele>521.183</ele>
        <time>2020-02-28T08:04:53Z</time>
      </trkpt>
      <trkpt lat="40.124150" lon="-5.494780">
        <ele>521.511</ele>
        <time>2020-02-28T08:05:13Z</time>
      </trkpt>
      <trkpt lat="40.124070" lon="-5.495580">
        <ele>518.608</ele>
        <time>2020-02-28T08:05:33Z</time>
      </trkpt>
      <trkpt lat="40.124070" lon="-5.495750">
        <ele>518.616</ele>
        <time>2020-02-28T08:05:53Z</time>
      </trkpt>
      <trkpt lat="40.124030" lon="-5.496020">
        <ele>518.089</ele>
        <time>2020-02-28T08:06:13Z</time>
      </trkpt>
      <trkpt lat="40.123990" lon="-5.496130">
        <ele>517.594</ele>
        <time>2020-02-28T08:06:33Z</time>
      </trkpt>
      <trkpt lat="40.123900" lon="-5.496290">
        <ele>516.245</ele>
        <time>2020-02-28T08:06:53Z</time>
      </trkpt>
      <trkpt lat="40.123800" lon="-5.496420">
        <ele>514.818</ele>
        <time>2020-02-28T08:07:13Z</time>
      </trkpt>
      <trkpt lat="40.123570" lon="-5.496840">
        <ele>512.927</ele>
        <time>2020-02-28T08:07:33Z</time>
      </trkpt>
      <trkpt lat="40.123130" lon="-5.497820">
        <ele>510.128</ele>
        <time>2020-02-28T08:07:53Z</time>
      </trkpt>
      <trkpt lat="40.123100" lon="-5.497870">
        <ele>510.145</ele>
        <time>2020-02-28T08:08:13Z</time>
      </trkpt>
      <trkpt lat="40.122920" lon="-5.498060">
        <ele>509.638</ele>
        <time>2020-02-28T08:08:33Z</time>
      </trkpt>
      <trkpt lat="40.122840" lon="-5.498120">
        <ele>509.070</ele>
        <time>2020-02-28T08:08:53Z</time>
      </trkpt>
      <trkpt lat="40.122290" lon="-5.498430">
        <ele>506.317</ele>
        <time>2020-02-28T08:09:13Z</time>
      </trkpt>
      <trkpt lat="40.121950" lon="-5.498580">
        <ele>503.908</ele>
        <time>2020-02-28T08:09:33Z</time>
      </trkpt>
      <trkpt lat="40.121740" lon="-5.498710">
        <ele>502.997</ele>
        <time>2020-02-28T08:09:53Z</time>
      </trkpt>
      <trkpt lat="40.121390" lon="-5.499030">
        <ele>499.580</ele>
        <time>2020-02-28T08:10:13Z</time>
      </trkpt>
      <trkpt lat="40.120710" lon="-5.499760">
        <ele>498.815</ele>
        <time>2020-02-28T08:10:33Z</time>
      </trkpt>
      <trkpt lat="40.120680" lon="-5.499780">
        <ele>498.636</ele>
        <time>2020-02-28T08:10:53Z</time>
      </trkpt>
      <trkpt lat="40.120140" lon="-5.500360">
        <ele>496.879</ele>
        <time>2020-02-28T08:11:13Z</time>
      </trkpt>
      <trkpt lat="40.119360" lon="-5.502440">
        <ele>499.218</ele>
        <time>2020-02-28T08:11:33Z</time>
      </trkpt>
      <trkpt lat="40.119180" lon="-5.503050">
        <ele>497.229</ele>
        <time>2020-02-28T08:11:53Z</time>
      </trkpt>
      <trkpt lat="40.119140" lon="-5.503270">
        <ele>497.596</ele>
        <time>2020-02-28T08:12:13Z</time>
      </trkpt>
      <trkpt lat="40.119130" lon="-5.503380">
        <ele>497.876</ele>
        <time>2020-02-28T08:12:33Z</time>
      </trkpt>
      <trkpt lat="40.119030" lon="-5.503860">
        <ele>498.990</ele>
        <time>2020-02-28T08:12:53Z</time>
      </trkpt>
      <trkpt lat="40.118930" lon="-5.504140">
        <ele>499.319</ele>
        <time>2020-02-28T08:13:13Z</time>
      </trkpt>
      <trkpt lat="40.118750" lon="-5.504520">
        <ele>501.008</ele>
        <time>2020-02-28T08:13:33Z</time>
      </trkpt>
      <trkpt lat="40.118710" lon="-5.504630">
        <ele>501.721</ele>
        <time>2020-02-28T08:13:53Z</time>
      </trkpt>
      <trkpt lat="40.118670" lon="-5.504700">
        <ele>502.144</ele>
        <time>2020-02-28T08:14:13Z</time>
      </trkpt>
      <trkpt lat="40.118550" lon="-5.505020">
        <ele>502.849</ele>
        <time>2020-02-28T08:14:33Z</time>
      </trkpt>
      <trkpt lat="40.118450" lon="-5.505380">
        <ele>502.570</ele>
        <time>2020-02-28T08:14:53Z</time>
      </trkpt>
      <trkpt lat="40.118210" lon="-5.506600">
        <ele>502.933</ele>
        <time>2020-02-28T08:15:13Z</time>
      </trkpt>
      <trkpt lat="40.118010" lon="-5.507110">
        <ele>504.052</ele>
        <time>2020-02-28T08:15:33Z</time>
      </trkpt>
      <trkpt lat="40.117190" lon="-5.508880">
        <ele>505.353</ele>
        <time>2020-02-28T08:15:53Z</time>
      </trkpt>
      <trkpt lat="40.117090" lon="-5.509130">
        <ele>504.920</ele>
        <time>2020-02-28T08:16:13Z</time>
      </trkpt>
      <trkpt lat="40.117050" lon="-5.509310">
        <ele>505.685</ele>
        <time>2020-02-28T08:16:33Z</time>
      </trkpt>
      <trkpt lat="40.117010" lon="-5.509420">
        <ele>505.889</ele>
        <time>2020-02-28T08:16:53Z</time>
      </trkpt>
      <trkpt lat="40.116960" lon="-5.509670">
        <ele>506.117</ele>
        <time>2020-02-28T08:17:13Z</time>
      </trkpt>
      <trkpt lat="40.116950" lon="-5.509760">
        <ele>506.108</ele>
        <time>2020-02-28T08:17:33Z</time>
      </trkpt>
      <trkpt lat="40.116930" lon="-5.509840">
        <ele>505.712</ele>
        <time>2020-02-28T08:17:53Z</time>
      </trkpt>
      <trkpt lat="40.116900" lon="-5.510110">
        <ele>504.055</ele>
        <time>2020-02-28T08:18:13Z</time>
      </trkpt>
      <trkpt lat="40.116880" lon="-5.510210">
        <ele>502.710</ele>
        <time>2020-02-28T08:18:33Z</time>
      </trkpt>
      <trkpt lat="40.116880" lon="-5.510680">
        <ele>499.711</ele>
        <time>2020-02-28T08:18:53Z</time>
      </trkpt>
      <trkpt lat="40.116890" lon="-5.510780">
        <ele>499.364</ele>
        <time>2020-02-28T08:19:13Z</time>
      </trkpt>
      <trkpt lat="40.116980" lon="-5.511220">
        <ele>499.063</ele>
        <time>2020-02-28T08:19:33Z</time>
      </trkpt>
      <trkpt lat="40.117250" lon="-5.511840">
        <ele>496.594</ele>
        <time>2020-02-28T08:19:53Z</time>
      </trkpt>
      <trkpt lat="40.117270" lon="-5.511870">
        <ele>496.541</ele>
        <time>2020-02-28T08:20:13Z</time>
      </trkpt>
      <trkpt lat="40.117340" lon="-5.512200">
        <ele>494.756</ele>
        <time>2020-02-28T08:20:33Z</time>
      </trkpt>
      <trkpt lat="40.117350" lon="-5.512330">
        <ele>494.859</ele>
        <time>2020-02-28T08:20:53Z</time>
      </trkpt>
      <trkpt lat="40.117330" lon="-5.512620">
        <ele>497.614</ele>
        <time>2020-02-28T08:21:13Z</time>
      </trkpt>
      <trkpt lat="40.117290" lon="-5.512820">
        <ele>501.908</ele>
        <time>2020-02-28T08:21:33Z</time>
      </trkpt>
      <trkpt lat="40.117260" lon="-5.512910">
        <ele>503.569</ele>
        <time>2020-02-28T08:21:53Z</time>
      </trkpt>
      <trkpt lat="40.116450" lon="-5.513970">
        <ele>501.722</ele>
        <time>2020-02-28T08:22:13Z</time>
      </trkpt>
      <trkpt lat="40.116250" lon="-5.514300">
        <ele>500.227</ele>
        <time>2020-02-28T08:22:33Z</time>
      </trkpt>
      <trkpt lat="40.116150" lon="-5.514510">
        <ele>499.878</ele>
        <time>2020-02-28T08:22:53Z</time>
      </trkpt>
      <trkpt lat="40.116130" lon="-5.514540">
        <ele>499.521</ele>
        <time>2020-02-28T08:23:13Z</time>
      </trkpt>
      <trkpt lat="40.116070" lon="-5.514720">
        <ele>497.440</ele>
        <time>2020-02-28T08:23:33Z</time>
      </trkpt>
      <trkpt lat="40.116040" lon="-5.514870">
        <ele>496.311</ele>
        <time>2020-02-28T08:23:53Z</time>
      </trkpt>
      <trkpt lat="40.115970" lon="-5.515050">
        <ele>494.238</ele>
        <time>2020-02-28T08:24:13Z</time>
      </trkpt>
      <trkpt lat="40.116030" lon="-5.515530">
        <ele>492.917</ele>
        <time>2020-02-28T08:24:33Z</time>
      </trkpt>
      <trkpt lat="40.116200" lon="-5.516140">
        <ele>495.887</ele>
        <time>2020-02-28T08:24:53Z</time>
      </trkpt>
      <trkpt lat="40.116260" lon="-5.516310">
        <ele>496.515</ele>
        <time>2020-02-28T08:25:13Z</time>
      </trkpt>
      <trkpt lat="40.116280" lon="-5.516520">
        <ele>496.508</ele>
        <time>2020-02-28T08:25:33Z</time>
      </trkpt>
      <trkpt lat="40.116280" lon="-5.516820">
        <ele>496.095</ele>
        <time>2020-02-28T08:25:53Z</time>
      </trkpt>
      <trkpt lat="40.116250" lon="-5.517060">
        <ele>495.068</ele>
        <time>2020-02-28T08:26:13Z</time>
      </trkpt>
      <trkpt lat="40.115330" lon="-5.521460">
        <ele>474.543</ele>
        <time>2020-02-28T08:26:33Z</time>
      </trkpt>
      <trkpt lat="40.115040" lon="-5.523210">
        <ele>465.694</ele>
        <time>2020-02-28T08:26:53Z</time>
      </trkpt>
      <trkpt lat="40.114900" lon="-5.524320">
        <ele>464.227</ele>
        <time>2020-02-28T08:27:13Z</time>
      </trkpt>
      <trkpt lat="40.114860" lon="-5.524890">
        <ele>464.066</ele>
        <time>2020-02-28T08:27:33Z</time>
      </trkpt>
      <trkpt lat="40.114790" lon="-5.529990">
        <ele>447.517</ele>
        <time>2020-02-28T08:27:53Z</time>
      </trkpt>
      <trkpt lat="40.114670" lon="-5.531460">
        <ele>445.884</ele>
        <time>2020-02-28T08:28:13Z</time>
      </trkpt>
      <trkpt lat="40.114620" lon="-5.531850">
        <ele>447.775</ele>
        <time>2020-02-28T08:28:33Z</time>
      </trkpt>
      <trkpt lat="40.114400" lon="-5.532780">
        <ele>448.428</ele>
        <time>2020-02-28T08:28:53Z</time>
      </trkpt>
      <trkpt lat="40.114350" lon="-5.533120">
        <ele>448.920</ele>
        <time>2020-02-28T08:29:13Z</time>
      </trkpt>
      <trkpt lat="40.114340" lon="-5.533530">
        <ele>446.308</ele>
        <time>2020-02-28T08:29:33Z</time>
      </trkpt>
      <trkpt lat="40.114400" lon="-5.533940">
        <ele>444.351</ele>
        <time>2020-02-28T08:29:53Z</time>
      </trkpt>
      <trkpt lat="40.114520" lon="-5.534430">
        <ele>443.734</ele>
        <time>2020-02-28T08:30:13Z</time>
      </trkpt>
      <trkpt lat="40.114780" lon="-5.535320">
        <ele>443.429</ele>
        <time>2020-02-28T08:30:33Z</time>
      </trkpt>
      <trkpt lat="40.114880" lon="-5.535580">
        <ele>444.280</ele>
        <time>2020-02-28T08:30:53Z</time>
      </trkpt>
      <trkpt lat="40.114880" lon="-5.535590">
        <ele>444.133</ele>
        <time>2020-02-28T08:31:13Z</time>
      </trkpt>
      <trkpt lat="40.114990" lon="-5.535780">
        <ele>443.612</ele>
        <time>2020-02-28T08:31:33Z</time>
      </trkpt>
      <trkpt lat="40.115160" lon="-5.535990">
        <ele>443.353</ele>
        <time>2020-02-28T08:31:53Z</time>
      </trkpt>
      <trkpt lat="40.115370" lon="-5.536180">
        <ele>443.330</ele>
        <time>2020-02-28T08:32:13Z</time>
      </trkpt>
      <trkpt lat="40.115400" lon="-5.536220">
        <ele>443.174</ele>
        <time>2020-02-28T08:32:33Z</time>
      </trkpt>
      <trkpt lat="40.115490" lon="-5.536310">
        <ele>443.156</ele>
        <time>2020-02-28T08:32:53Z</time>
      </trkpt>
      <trkpt lat="40.115530" lon="-5.536340">
        <ele>443.321</ele>
        <time>2020-02-28T08:33:13Z</time>
      </trkpt>
      <trkpt lat="40.115670" lon="-5.536540">
        <ele>444.408</ele>
        <time>2020-02-28T08:33:33Z</time>
      </trkpt>
      <trkpt lat="40.115670" lon="-5.536550">
        <ele>444.411</ele>
        <time>2020-02-28T08:33:53Z</time>
      </trkpt>
      <trkpt lat="40.115800" lon="-5.536800">
        <ele>447.354</ele>
        <time>2020-02-28T08:34:13Z</time>
      </trkpt>
      <trkpt lat="40.115840" lon="-5.536910">
        <ele>448.869</ele>
        <time>2020-02-28T08:34:33Z</time>
      </trkpt>
      <trkpt lat="40.115890" lon="-5.537210">
        <ele>452.940</ele>
        <time>2020-02-28T08:34:53Z</time>
      </trkpt>
      <trkpt lat="40.115910" lon="-5.537900">
        <ele>452.773</ele>
        <time>2020-02-28T08:35:13Z</time>
      </trkpt>
      <trkpt lat="40.115890" lon="-5.538370">
        <ele>453.722</ele>
        <time>2020-02-28T08:35:33Z</time>
      </trkpt>
      <trkpt lat="40.115850" lon="-5.538650">
        <ele>454.653</ele>
        <time>2020-02-28T08:35:53Z</time>
      </trkpt>
      <trkpt lat="40.115810" lon="-5.538770">
        <ele>454.810</ele>
        <time>2020-02-28T08:36:13Z</time>
      </trkpt>
      <trkpt lat="40.115620" lon="-5.539170">
        <ele>451.774</ele>
        <time>2020-02-28T08:36:33Z</time>
      </trkpt>
      <trkpt lat="40.115340" lon="-5.539550">
        <ele>448.756</ele>
        <time>2020-02-28T08:36:53Z</time>
      </trkpt>
      <trkpt lat="40.114850" lon="-5.540150">
        <ele>460.321</ele>
        <time>2020-02-28T08:37:13Z</time>
      </trkpt>
      <trkpt lat="40.114820" lon="-5.540200">
        <ele>460.408</ele>
        <time>2020-02-28T08:37:33Z</time>
      </trkpt>
      <trkpt lat="40.114770" lon="-5.540260">
        <ele>460.371</ele>
        <time>2020-02-28T08:37:53Z</time>
      </trkpt>
      <trkpt lat="40.114730" lon="-5.540330">
        <ele>460.464</ele>
        <time>2020-02-28T08:38:13Z</time>
      </trkpt>
      <trkpt lat="40.114440" lon="-5.540700">
        <ele>460.599</ele>
        <time>2020-02-28T08:38:33Z</time>
      </trkpt>
      <trkpt lat="40.114030" lon="-5.541320">
        <ele>463.140</ele>
        <time>2020-02-28T08:38:53Z</time>
      </trkpt>
      <trkpt lat="40.113530" lon="-5.542190">
        <ele>461.413</ele>
        <time>2020-02-28T08:39:13Z</time>
      </trkpt>
      <trkpt lat="40.113290" lon="-5.542680">
        <ele>458.732</ele>
        <time>2020-02-28T08:39:33Z</time>
      </trkpt>
      <trkpt lat="40.113290" lon="-5.542690">
        <ele>458.743</ele>
        <time>2020-02-28T08:39:53Z</time>
      </trkpt>
      <trkpt lat="40.113280" lon="-5.542700">
        <ele>458.720</ele>
        <time>2020-02-28T08:40:13Z</time>
      </trkpt>
      <trkpt lat="40.113230" lon="-5.542830">
        <ele>458.217</ele>
        <time>2020-02-28T08:40:33Z</time>
      </trkpt>
      <trkpt lat="40.112700" lon="-5.543900">
        <ele>456.987</ele>
        <time>2020-02-28T08:40:53Z</time>
      </trkpt>
      <trkpt lat="40.112590" lon="-5.544080">
        <ele>456.015</ele>
        <time>2020-02-28T08:41:13Z</time>
      </trkpt>
      <trkpt lat="40.112400" lon="-5.544320">
        <ele>455.008</ele>
        <time>2020-02-28T08:41:33Z</time>
      </trkpt>
      <trkpt lat="40.112180" lon="-5.544550">
        <ele>455.195</ele>
        <time>2020-02-28T08:41:53Z</time>
      </trkpt>
      <trkpt lat="40.111930" lon="-5.544730">
        <ele>457.118</ele>
        <time>2020-02-28T08:42:13Z</time>
      </trkpt>
      <trkpt lat="40.110780" lon="-5.545250">
        <ele>453.423</ele>
        <time>2020-02-28T08:42:33Z</time>
      </trkpt>
      <trkpt lat="40.110630" lon="-5.545330">
        <ele>453.014</ele>
        <time>2020-02-28T08:42:53Z</time>
      </trkpt>
      <trkpt lat="40.110230" lon="-5.545490">
        <ele>448.567</ele>
        <time>2020-02-28T08:43:13Z</time>
      </trkpt>
      <trkpt lat="40.109510" lon="-5.545710">
        <ele>448.726</ele>
        <time>2020-02-28T08:43:33Z</time>
      </trkpt>
      <trkpt lat="40.107350" lon="-5.546260">
        <ele>437.057</ele>
        <time>2020-02-28T08:43:53Z</time>
      </trkpt>
      <trkpt lat="40.107090" lon="-5.546390">
        <ele>436.144</ele>
        <time>2020-02-28T08:44:13Z</time>
      </trkpt>
      <trkpt lat="40.106820" lon="-5.546570">
        <ele>434.379</ele>
        <time>2020-02-28T08:44:33Z</time>
      </trkpt>
      <trkpt lat="40.106590" lon="-5.546780">
        <ele>432.905</ele>
        <time>2020-02-28T08:44:53Z</time>
      </trkpt>
      <trkpt lat="40.106560" lon="-5.546840">
        <ele>432.925</ele>
        <time>2020-02-28T08:45:13Z</time>
      </trkpt>
      <trkpt lat="40.106510" lon="-5.546890">
        <ele>432.708</ele>
        <time>2020-02-28T08:45:33Z</time>
      </trkpt>
      <trkpt lat="40.106430" lon="-5.547000">
        <ele>432.331</ele>
        <time>2020-02-28T08:45:53Z</time>
      </trkpt>
      <trkpt lat="40.106410" lon="-5.547020">
        <ele>432.234</ele>
        <time>2020-02-28T08:46:13Z</time>
      </trkpt>
      <trkpt lat="40.106200" lon="-5.547370">
        <ele>431.519</ele>
        <time>2020-02-28T08:46:33Z</time>
      </trkpt>
      <trkpt lat="40.105980" lon="-5.547910">
        <ele>430.310</ele>
        <time>2020-02-28T08:46:53Z</time>
      </trkpt>
      <trkpt lat="40.105860" lon="-5.548420">
        <ele>427.883</ele>
        <time>2020-02-28T08:47:13Z</time>
      </trkpt>
      <trkpt lat="40.105620" lon="-5.550290">
        <ele>425.742</ele>
        <time>2020-02-28T08:47:33Z</time>
      </trkpt>
      <trkpt lat="40.105260" lon="-5.552660">
        <ele>418.943</ele>
        <time>2020-02-28T08:47:53Z</time>
      </trkpt>
      <trkpt lat="40.105250" lon="-5.553060">
        <ele>419.060</ele>
        <time>2020-02-28T08:48:13Z</time>
      </trkpt>
      <trkpt lat="40.105270" lon="-5.553210">
        <ele>418.422</ele>
        <time>2020-02-28T08:48:33Z</time>
      </trkpt>
      <trkpt lat="40.105310" lon="-5.553350">
        <ele>417.962</ele>
        <time>2020-02-28T08:48:53Z</time>
      </trkpt>
      <trkpt lat="40.105410" lon="-5.553550">
        <ele>416.108</ele>
        <time>2020-02-28T08:49:13Z</time>
      </trkpt>
      <trkpt lat="40.105760" lon="-5.553930">
        <ele>413.408</ele>
        <time>2020-02-28T08:49:33Z</time>
      </trkpt>
      <trkpt lat="40.106150" lon="-5.554310">
        <ele>411.796</ele>
        <time>2020-02-28T08:49:53Z</time>
      </trkpt>
      <trkpt lat="40.106320" lon="-5.554430">
        <ele>411.099</ele>
        <time>2020-02-28T08:50:13Z</time>
      </trkpt>
      <trkpt lat="40.106380" lon="-5.554450">
        <ele>410.974</ele>
        <time>2020-02-28T08:50:33Z</time>
      </trkpt>
      <trkpt lat="40.106430" lon="-5.554480">
        <ele>410.445</ele>
        <time>2020-02-28T08:50:53Z</time>
      </trkpt>
      <trkpt lat="40.106500" lon="-5.554500">
        <ele>410.058</ele>
        <time>2020-02-28T08:51:13Z</time>
      </trkpt>
      <trkpt lat="40.106530" lon="-5.554520">
        <ele>409.667</ele>
        <time>2020-02-28T08:51:33Z</time>
      </trkpt>
      <trkpt lat="40.106990" lon="-5.554580">
        <ele>406.228</ele>
        <time>2020-02-28T08:51:53Z</time>
      </trkpt>
      <trkpt lat="40.107310" lon="-5.554600">
        <ele>403.465</ele>
        <time>2020-02-28T08:52:13Z</time>
      </trkpt>
      <trkpt lat="40.107440" lon="-5.554630">
        <ele>402.551</ele>
        <time>2020-02-28T08:52:33Z</time>
      </trkpt>
      <trkpt lat="40.107520" lon="-5.554670">
        <ele>402.101</ele>
        <time>2020-02-28T08:52:53Z</time>
      </trkpt>
      <trkpt lat="40.107570" lon="-5.554710">
        <ele>402.411</ele>
        <time>2020-02-28T08:53:13Z</time>
      </trkpt>
      <trkpt lat="40.107630" lon="-5.554740">
        <ele>403.208</ele>
        <time>2020-02-28T08:53:33Z</time>
      </trkpt>
      <trkpt lat="40.107720" lon="-5.554820">
        <ele>404.259</ele>
        <time>2020-02-28T08:53:53Z</time>
      </trkpt>
      <trkpt lat="40.107810" lon="-5.554940">
        <ele>405.132</ele>
        <time>2020-02-28T08:54:13Z</time>
      </trkpt>
      <trkpt lat="40.107910" lon="-5.555180">
        <ele>405.917</ele>
        <time>2020-02-28T08:54:33Z</time>
      </trkpt>
      <trkpt lat="40.107920" lon="-5.555270">
        <ele>405.648</ele>
        <time>2020-02-28T08:54:53Z</time>
      </trkpt>
      <trkpt lat="40.107940" lon="-5.555360">
        <ele>405.191</ele>
        <time>2020-02-28T08:55:13Z</time>
      </trkpt>
      <trkpt lat="40.107950" lon="-5.555450">
        <ele>404.390</ele>
        <time>2020-02-28T08:55:33Z</time>
      </trkpt>
      <trkpt lat="40.107920" lon="-5.555720">
        <ele>399.941</ele>
        <time>2020-02-28T08:55:53Z</time>
      </trkpt>
      <trkpt lat="40.107900" lon="-5.555820">
        <ele>398.048</ele>
        <time>2020-02-28T08:56:13Z</time>
      </trkpt>
      <trkpt lat="40.107870" lon="-5.555910">
        <ele>397.043</ele>
        <time>2020-02-28T08:56:33Z</time>
      </trkpt>
      <trkpt lat="40.107840" lon="-5.555970">
        <ele>396.364</ele>
        <time>2020-02-28T08:56:53Z</time>
      </trkpt>
      <trkpt lat="40.107680" lon="-5.556210">
        <ele>394.610</ele>
        <time>2020-02-28T08:57:13Z</time>
      </trkpt>
      <trkpt lat="40.107570" lon="-5.556300">
        <ele>394.508</ele>
        <time>2020-02-28T08:57:33Z</time>
      </trkpt>
      <trkpt lat="40.107460" lon="-5.556360">
        <ele>394.778</ele>
        <time>2020-02-28T08:57:53Z</time>
      </trkpt>
      <trkpt lat="40.107370" lon="-5.556390">
        <ele>395.031</ele>
        <time>2020-02-28T08:58:13Z</time>
      </trkpt>
      <trkpt lat="40.107100" lon="-5.556440">
        <ele>395.566</ele>
        <time>2020-02-28T08:58:33Z</time>
      </trkpt>
      <trkpt lat="40.107070" lon="-5.556450">
        <ele>395.527</ele>
        <time>2020-02-28T08:58:53Z</time>
      </trkpt>
      <trkpt lat="40.107000" lon="-5.556460">
        <ele>395.610</ele>
        <time>2020-02-28T08:59:13Z</time>
      </trkpt>
      <trkpt lat="40.106880" lon="-5.556500">
        <ele>395.349</ele>
        <time>2020-02-28T08:59:33Z</time>
      </trkpt>
      <trkpt lat="40.106690" lon="-5.556610">
        <ele>394.830</ele>
        <time>2020-02-28T08:59:53Z</time>
      </trkpt>
      <trkpt lat="40.106540" lon="-5.556780">
        <ele>394.237</ele>
        <time>2020-02-28T09:00:13Z</time>
      </trkpt>
      <trkpt lat="40.106460" lon="-5.556920">
        <ele>394.544</ele>
        <time>2020-02-28T09:00:33Z</time>
      </trkpt>
      <trkpt lat="40.106450" lon="-5.556930">
        <ele>394.505</ele>
        <time>2020-02-28T09:00:53Z</time>
      </trkpt>
      <trkpt lat="40.105890" lon="-5.557920">
        <ele>391.015</ele>
        <time>2020-02-28T09:01:13Z</time>
      </trkpt>
      <trkpt lat="40.105750" lon="-5.558090">
        <ele>390.808</ele>
        <time>2020-02-28T09:01:33Z</time>
      </trkpt>
      <trkpt lat="40.105700" lon="-5.558140">
        <ele>391.298</ele>
        <time>2020-02-28T09:01:53Z</time>
      </trkpt>
      <trkpt lat="40.105530" lon="-5.558280">
        <ele>390.751</ele>
        <time>2020-02-28T09:02:13Z</time>
      </trkpt>
      <trkpt lat="40.104680" lon="-5.558730">
        <ele>389.286</ele>
        <time>2020-02-28T09:02:33Z</time>
      </trkpt>
      <trkpt lat="40.103640" lon="-5.559220">
        <ele>386.887</ele>
        <time>2020-02-28T09:02:53Z</time>
      </trkpt>
      <trkpt lat="40.103500" lon="-5.559310">
        <ele>387.090</ele>
        <time>2020-02-28T09:03:13Z</time>
      </trkpt>
      <trkpt lat="40.103420" lon="-5.559390">
        <ele>386.929</ele>
        <time>2020-02-28T09:03:33Z</time>
      </trkpt>
      <trkpt lat="40.103400" lon="-5.559400">
        <ele>386.650</ele>
        <time>2020-02-28T09:03:53Z</time>
      </trkpt>
      <trkpt lat="40.103310" lon="-5.559520">
        <ele>386.187</ele>
        <time>2020-02-28T09:04:13Z</time>
      </trkpt>
      <trkpt lat="40.103250" lon="-5.559630">
        <ele>385.467</ele>
        <time>2020-02-28T09:04:33Z</time>
      </trkpt>
      <trkpt lat="40.103200" lon="-5.559800">
        <ele>385.181</ele>
        <time>2020-02-28T09:04:53Z</time>
      </trkpt>
      <trkpt lat="40.103080" lon="-5.560920">
        <ele>387.419</ele>
        <time>2020-02-28T09:05:13Z</time>
      </trkpt>
      <trkpt lat="40.102950" lon="-5.561760">
        <ele>386.908</ele>
        <time>2020-02-28T09:05:33Z</time>
      </trkpt>
      <trkpt lat="40.102750" lon="-5.562390">
        <ele>384.370</ele>
        <time>2020-02-28T09:05:53Z</time>
      </trkpt>
      <trkpt lat="40.102340" lon="-5.563380">
        <ele>382.193</ele>
        <time>2020-02-28T09:06:13Z</time>
      </trkpt>
      <trkpt lat="40.102330" lon="-5.563470">
        <ele>382.088</ele>
        <time>2020-02-28T09:06:33Z</time>
      </trkpt>
      <trkpt lat="40.102310" lon="-5.563520">
        <ele>381.719</ele>
        <time>2020-02-28T09:06:53Z</time>
      </trkpt>
      <trkpt lat="40.102240" lon="-5.563890">
        <ele>380.312</ele>
        <time>2020-02-28T09:07:13Z</time>
      </trkpt>
      <trkpt lat="40.102230" lon="-5.563990">
        <ele>380.151</ele>
        <time>2020-02-28T09:07:33Z</time>
      </trkpt>
      <trkpt lat="40.102240" lon="-5.564100">
        <ele>380.282</ele>
        <time>2020-02-28T09:07:53Z</time>
      </trkpt>
      <trkpt lat="40.102280" lon="-5.564300">
        <ele>380.429</ele>
        <time>2020-02-28T09:08:13Z</time>
      </trkpt>
      <trkpt lat="40.102360" lon="-5.564460">
        <ele>380.424</ele>
        <time>2020-02-28T09:08:33Z</time>
      </trkpt>
      <trkpt lat="40.104330" lon="-5.567170">
        <ele>374.304</ele>
        <time>2020-02-28T09:08:53Z</time>
      </trkpt>
      <trkpt lat="40.106580" lon="-5.570120">
        <ele>374.014</ele>
        <time>2020-02-28T09:09:13Z</time>
      </trkpt>
      <trkpt lat="40.106610" lon="-5.570170">
        <ele>373.808</ele>
        <time>2020-02-28T09:09:33Z</time>
      </trkpt>
      <trkpt lat="40.106640" lon="-5.570200">
        <ele>373.836</ele>
        <time>2020-02-28T09:09:53Z</time>
      </trkpt>
      <trkpt lat="40.106660" lon="-5.570250">
        <ele>373.319</ele>
        <time>2020-02-28T09:10:13Z</time>
      </trkpt>
      <trkpt lat="40.106700" lon="-5.570320">
        <ele>373.484</ele>
        <time>2020-02-28T09:10:33Z</time>
      </trkpt>
      <trkpt lat="40.106730" lon="-5.570420">
        <ele>373.625</ele>
        <time>2020-02-28T09:10:53Z</time>
      </trkpt>
      <trkpt lat="40.106740" lon="-5.570500">
        <ele>373.788</ele>
        <time>2020-02-28T09:11:13Z</time>
      </trkpt>
      <trkpt lat="40.106740" lon="-5.570640">
        <ele>374.587</ele>
        <time>2020-02-28T09:11:33Z</time>
      </trkpt>
      <trkpt lat="40.106730" lon="-5.570700">
        <ele>374.998</ele>
        <time>2020-02-28T09:11:53Z</time>
      </trkpt>
      <trkpt lat="40.106700" lon="-5.570800">
        <ele>375.415</ele>
        <time>2020-02-28T09:12:13Z</time>
      </trkpt>
      <trkpt lat="40.106610" lon="-5.570980">
        <ele>374.867</ele>
        <time>2020-02-28T09:12:33Z</time>
      </trkpt>
      <trkpt lat="40.106490" lon="-5.571120">
        <ele>372.481</ele>
        <time>2020-02-28T09:12:53Z</time>
      </trkpt>
      <trkpt lat="40.106150" lon="-5.571340">
        <ele>368.119</ele>
        <time>2020-02-28T09:13:13Z</time>
      </trkpt>
      <trkpt lat="40.106000" lon="-5.571420">
        <ele>365.908</ele>
        <time>2020-02-28T09:13:33Z</time>
      </trkpt>
      <trkpt lat="40.105850" lon="-5.571580">
        <ele>364.460</ele>
        <time>2020-02-28T09:13:53Z</time>
      </trkpt>
      <trkpt lat="40.105830" lon="-5.571590">
        <ele>364.123</ele>
        <time>2020-02-28T09:14:13Z</time>
      </trkpt>
      <trkpt lat="40.105820" lon="-5.571620">
        <ele>364.388</ele>
        <time>2020-02-28T09:14:33Z</time>
      </trkpt>
      <trkpt lat="40.105710" lon="-5.571810">
        <ele>364.349</ele>
        <time>2020-02-28T09:14:53Z</time>
      </trkpt>
      <trkpt lat="40.105660" lon="-5.572080">
        <ele>364.552</ele>
        <time>2020-02-28T09:15:13Z</time>
      </trkpt>
      <trkpt lat="40.105660" lon="-5.572180">
        <ele>364.511</ele>
        <time>2020-02-28T09:15:33Z</time>
      </trkpt>
      <trkpt lat="40.105690" lon="-5.572320">
        <ele>364.922</ele>
        <time>2020-02-28T09:15:53Z</time>
      </trkpt>
      <trkpt lat="40.105710" lon="-5.572330">
        <ele>365.289</ele>
        <time>2020-02-28T09:16:13Z</time>
      </trkpt>
      <trkpt lat="40.106060" lon="-5.573290">
        <ele>364.441</ele>
        <time>2020-02-28T09:16:33Z</time>
      </trkpt>
      <trkpt lat="40.107630" lon="-5.577010">
        <ele>360.681</ele>
        <time>2020-02-28T09:16:53Z</time>
      </trkpt>
      <trkpt lat="40.107850" lon="-5.577380">
        <ele>361.509</ele>
        <time>2020-02-28T09:17:13Z</time>
      </trkpt>
      <trkpt lat="40.107860" lon="-5.577420">
        <ele>361.408</ele>
        <time>2020-02-28T09:17:33Z</time>
      </trkpt>
      <trkpt lat="40.108930" lon="-5.578850">
        <ele>362.438</ele>
        <time>2020-02-28T09:17:53Z</time>
      </trkpt>
      <trkpt lat="40.109060" lon="-5.578980">
        <ele>363.471</ele>
        <time>2020-02-28T09:18:13Z</time>
      </trkpt>
      <trkpt lat="40.109160" lon="-5.579120">
        <ele>364.036</ele>
        <time>2020-02-28T09:18:33Z</time>
      </trkpt>
      <trkpt lat="40.109370" lon="-5.579360">
        <ele>365.587</ele>
        <time>2020-02-28T09:18:53Z</time>
      </trkpt>
      <trkpt lat="40.110270" lon="-5.580280">
        <ele>365.950</ele>
        <time>2020-02-28T09:19:13Z</time>
      </trkpt>
      <trkpt lat="40.110560" lon="-5.580520">
        <ele>367.369</ele>
        <time>2020-02-28T09:19:33Z</time>
      </trkpt>
      <trkpt lat="40.110680" lon="-5.580660">
        <ele>366.830</ele>
        <time>2020-02-28T09:19:53Z</time>
      </trkpt>
      <trkpt lat="40.110690" lon="-5.580690">
        <ele>366.567</ele>
        <time>2020-02-28T09:20:13Z</time>
      </trkpt>
      <trkpt lat="40.110740" lon="-5.580770">
        <ele>366.065</ele>
        <time>2020-02-28T09:20:33Z</time>
      </trkpt>
      <trkpt lat="40.110790" lon="-5.580970">
        <ele>364.268</ele>
        <time>2020-02-28T09:20:53Z</time>
      </trkpt>
      <trkpt lat="40.110820" lon="-5.581250">
        <ele>361.414</ele>
        <time>2020-02-28T09:21:13Z</time>
      </trkpt>
      <trkpt lat="40.110820" lon="-5.581430">
        <ele>358.208</ele>
        <time>2020-02-28T09:21:33Z</time>
      </trkpt>
      <trkpt lat="40.110760" lon="-5.581960">
        <ele>352.490</ele>
        <time>2020-02-28T09:21:53Z</time>
      </trkpt>
      <trkpt lat="40.110760" lon="-5.582060">
        <ele>355.393</ele>
        <time>2020-02-28T09:22:13Z</time>
      </trkpt>
      <trkpt lat="40.110630" lon="-5.583340">
        <ele>365.628</ele>
        <time>2020-02-28T09:22:33Z</time>
      </trkpt>
      <trkpt lat="40.110630" lon="-5.583440">
        <ele>366.349</ele>
        <time>2020-02-28T09:22:53Z</time>
      </trkpt>
      <trkpt lat="40.110590" lon="-5.583680">
        <ele>367.812</ele>
        <time>2020-02-28T09:23:13Z</time>
      </trkpt>
      <trkpt lat="40.110540" lon="-5.583840">
        <ele>368.541</ele>
        <time>2020-02-28T09:23:33Z</time>
      </trkpt>
      <trkpt lat="40.110440" lon="-5.584080">
        <ele>369.932</ele>
        <time>2020-02-28T09:23:53Z</time>
      </trkpt>
      <trkpt lat="40.110340" lon="-5.584230">
        <ele>370.589</ele>
        <time>2020-02-28T09:24:13Z</time>
      </trkpt>
      <trkpt lat="40.110330" lon="-5.584260">
        <ele>370.819</ele>
        <time>2020-02-28T09:24:33Z</time>
      </trkpt>
      <trkpt lat="40.110200" lon="-5.584420">
        <ele>371.709</ele>
        <time>2020-02-28T09:24:53Z</time>
      </trkpt>
      <trkpt lat="40.109840" lon="-5.584780">
        <ele>376.119</ele>
        <time>2020-02-28T09:25:13Z</time>
      </trkpt>
      <trkpt lat="40.109760" lon="-5.584840">
        <ele>376.108</ele>
        <time>2020-02-28T09:25:33Z</time>
      </trkpt>
      <trkpt lat="40.109690" lon="-5.584910">
        <ele>376.445</ele>
        <time>2020-02-28T09:25:53Z</time>
      </trkpt>
      <trkpt lat="40.109570" lon="-5.585070">
        <ele>376.888</ele>
        <time>2020-02-28T09:26:13Z</time>
      </trkpt>
      <trkpt lat="40.109470" lon="-5.585250">
        <ele>376.343</ele>
        <time>2020-02-28T09:26:33Z</time>
      </trkpt>
      <trkpt lat="40.109370" lon="-5.585560">
        <ele>376.234</ele>
        <time>2020-02-28T09:26:53Z</time>
      </trkpt>
      <trkpt lat="40.109350" lon="-5.585670">
        <ele>376.417</ele>
        <time>2020-02-28T09:27:13Z</time>
      </trkpt>
      <trkpt lat="40.109340" lon="-5.585790">
        <ele>376.756</ele>
        <time>2020-02-28T09:27:33Z</time>
      </trkpt>
      <trkpt lat="40.109360" lon="-5.586440">
        <ele>381.137</ele>
        <time>2020-02-28T09:27:53Z</time>
      </trkpt>
      <trkpt lat="40.109390" lon="-5.586690">
        <ele>383.224</ele>
        <time>2020-02-28T09:28:13Z</time>
      </trkpt>
      <trkpt lat="40.109380" lon="-5.586830">
        <ele>384.042</ele>
        <time>2020-02-28T09:28:33Z</time>
      </trkpt>
      <trkpt lat="40.109340" lon="-5.587100">
        <ele>385.222</ele>
        <time>2020-02-28T09:28:53Z</time>
      </trkpt>
      <trkpt lat="40.109310" lon="-5.587230">
        <ele>385.614</ele>
        <time>2020-02-28T09:29:13Z</time>
      </trkpt>
      <trkpt lat="40.109220" lon="-5.587480">
        <ele>386.608</ele>
        <time>2020-02-28T09:29:33Z</time>
      </trkpt>
      <trkpt lat="40.109180" lon="-5.587550">
        <ele>386.618</ele>
        <time>2020-02-28T09:29:53Z</time>
      </trkpt>
      <trkpt lat="40.109120" lon="-5.587690">
        <ele>386.911</ele>
        <time>2020-02-28T09:30:13Z</time>
      </trkpt>
      <trkpt lat="40.109060" lon="-5.587880">
        <ele>387.226</ele>
        <time>2020-02-28T09:30:33Z</time>
      </trkpt>
      <trkpt lat="40.109040" lon="-5.587980">
        <ele>387.497</ele>
        <time>2020-02-28T09:30:53Z</time>
      </trkpt>
      <trkpt lat="40.109040" lon="-5.588070">
        <ele>387.730</ele>
        <time>2020-02-28T09:31:13Z</time>
      </trkpt>
      <trkpt lat="40.109030" lon="-5.588120">
        <ele>387.999</ele>
        <time>2020-02-28T09:31:33Z</time>
      </trkpt>
      <trkpt lat="40.109040" lon="-5.588170">
        <ele>388.310</ele>
        <time>2020-02-28T09:31:53Z</time>
      </trkpt>
      <trkpt lat="40.109040" lon="-5.588260">
        <ele>388.887</ele>
        <time>2020-02-28T09:32:13Z</time>
      </trkpt>
      <trkpt lat="40.109050" lon="-5.588350">
        <ele>389.395</ele>
        <time>2020-02-28T09:32:33Z</time>
      </trkpt>
      <trkpt lat="40.109070" lon="-5.588430">
        <ele>389.649</ele>
        <time>2020-02-28T09:32:53Z</time>
      </trkpt>
      <trkpt lat="40.109100" lon="-5.588510">
        <ele>390.023</ele>
        <time>2020-02-28T09:33:13Z</time>
      </trkpt>
      <trkpt lat="40.109100" lon="-5.588520">
        <ele>390.008</ele>
        <time>2020-02-28T09:33:33Z</time>
      </trkpt>
      <trkpt lat="40.109160" lon="-5.588640">
        <ele>390.743</ele>
        <time>2020-02-28T09:33:53Z</time>
      </trkpt>
      <trkpt lat="40.109100" lon="-5.588740">
        <ele>389.126</ele>
        <time>2020-02-28T09:34:13Z</time>
      </trkpt>
      <trkpt lat="40.109080" lon="-5.588790">
        <ele>388.581</ele>
        <time>2020-02-28T09:34:33Z</time>
      </trkpt>
      <trkpt lat="40.109070" lon="-5.588850">
        <ele>387.912</ele>
        <time>2020-02-28T09:34:53Z</time>
      </trkpt>
      <trkpt lat="40.109070" lon="-5.589240">
        <ele>386.025</ele>
        <time>2020-02-28T09:35:13Z</time>
      </trkpt>
      <trkpt lat="40.109210" lon="-5.591780">
        <ele>380.384</ele>
        <time>2020-02-28T09:35:33Z</time>
      </trkpt>
      <trkpt lat="40.109200" lon="-5.591950">
        <ele>379.525</ele>
        <time>2020-02-28T09:35:53Z</time>
      </trkpt>
      <trkpt lat="40.109160" lon="-5.592120">
        <ele>379.012</ele>
        <time>2020-02-28T09:36:13Z</time>
      </trkpt>
      <trkpt lat="40.109090" lon="-5.592270">
        <ele>378.456</ele>
        <time>2020-02-28T09:36:33Z</time>
      </trkpt>
      <trkpt lat="40.109000" lon="-5.592410">
        <ele>377.859</ele>
        <time>2020-02-28T09:36:53Z</time>
      </trkpt>
      <trkpt lat="40.108890" lon="-5.592510">
        <ele>377.114</ele>
        <time>2020-02-28T09:37:13Z</time>
      </trkpt>
      <trkpt lat="40.108850" lon="-5.592530">
        <ele>376.908</ele>
        <time>2020-02-28T09:37:33Z</time>
      </trkpt>
      <trkpt lat="40.108770" lon="-5.592590">
        <ele>376.869</ele>
        <time>2020-02-28T09:37:53Z</time>
      </trkpt>
      <trkpt lat="40.108640" lon="-5.592640">
        <ele>376.242</ele>
        <time>2020-02-28T09:38:13Z</time>
      </trkpt>
      <trkpt lat="40.108370" lon="-5.592630">
        <ele>373.867</ele>
        <time>2020-02-28T09:38:33Z</time>
      </trkpt>
      <trkpt lat="40.108330" lon="-5.592600">
        <ele>373.678</ele>
        <time>2020-02-28T09:38:53Z</time>
      </trkpt>
      <trkpt lat="40.106980" lon="-5.591960">
        <ele>368.921</ele>
        <time>2020-02-28T09:39:13Z</time>
      </trkpt>
      <trkpt lat="40.106970" lon="-5.591950">
        <ele>368.920</ele>
        <time>2020-02-28T09:39:33Z</time>
      </trkpt>
      <trkpt lat="40.106830" lon="-5.591860">
        <ele>369.571</ele>
        <time>2020-02-28T09:39:53Z</time>
      </trkpt>
      <trkpt lat="40.106790" lon="-5.591820">
        <ele>369.848</ele>
        <time>2020-02-28T09:40:13Z</time>
      </trkpt>
      <trkpt lat="40.106770" lon="-5.591810">
        <ele>369.923</ele>
        <time>2020-02-28T09:40:33Z</time>
      </trkpt>
      <trkpt lat="40.106640" lon="-5.591650">
        <ele>372.183</ele>
        <time>2020-02-28T09:40:53Z</time>
      </trkpt>
      <trkpt lat="40.106570" lon="-5.591520">
        <ele>374.811</ele>
        <time>2020-02-28T09:41:13Z</time>
      </trkpt>
      <trkpt lat="40.106560" lon="-5.591520">
        <ele>375.108</ele>
        <time>2020-02-28T09:41:33Z</time>
      </trkpt>
      <trkpt lat="40.106490" lon="-5.591360">
        <ele>377.076</ele>
        <time>2020-02-28T09:41:53Z</time>
      </trkpt>
      <trkpt lat="40.106240" lon="-5.590540">
        <ele>384.559</ele>
        <time>2020-02-28T09:42:13Z</time>
      </trkpt>
      <trkpt lat="40.106220" lon="-5.590440">
        <ele>385.314</ele>
        <time>2020-02-28T09:42:33Z</time>
      </trkpt>
      <trkpt lat="40.106210" lon="-5.590420">
        <ele>385.785</ele>
        <time>2020-02-28T09:42:53Z</time>
      </trkpt>
      <trkpt lat="40.106180" lon="-5.590280">
        <ele>386.518</ele>
        <time>2020-02-28T09:43:13Z</time>
      </trkpt>
      <trkpt lat="40.106160" lon="-5.590220">
        <ele>387.057</ele>
        <time>2020-02-28T09:43:33Z</time>
      </trkpt>
      <trkpt lat="40.106060" lon="-5.589770">
        <ele>388.318</ele>
        <time>2020-02-28T09:43:53Z</time>
      </trkpt>
      <trkpt lat="40.106020" lon="-5.589640">
        <ele>389.215</ele>
        <time>2020-02-28T09:44:13Z</time>
      </trkpt>
      <trkpt lat="40.106010" lon="-5.589540">
        <ele>389.188</ele>
        <time>2020-02-28T09:44:33Z</time>
      </trkpt>
      <trkpt lat="40.105950" lon="-5.589240">
        <ele>389.624</ele>
        <time>2020-02-28T09:44:53Z</time>
      </trkpt>
      <trkpt lat="40.105940" lon="-5.589110">
        <ele>389.126</ele>
        <time>2020-02-28T09:45:13Z</time>
      </trkpt>
      <trkpt lat="40.105930" lon="-5.589080">
        <ele>389.208</ele>
        <time>2020-02-28T09:45:33Z</time>
      </trkpt>
      <trkpt lat="40.105900" lon="-5.588550">
        <ele>387.862</ele>
        <time>2020-02-28T09:45:53Z</time>
      </trkpt>
      <trkpt lat="40.105910" lon="-5.588420">
        <ele>387.595</ele>
        <time>2020-02-28T09:46:13Z</time>
      </trkpt>
      <trkpt lat="40.105930" lon="-5.588310">
        <ele>386.910</ele>
        <time>2020-02-28T09:46:33Z</time>
      </trkpt>
      <trkpt lat="40.105930" lon="-5.588200">
        <ele>387.031</ele>
        <time>2020-02-28T09:46:53Z</time>
      </trkpt>
      <trkpt lat="40.105940" lon="-5.588150">
        <ele>386.854</ele>
        <time>2020-02-28T09:47:13Z</time>
      </trkpt>
      <trkpt lat="40.105950" lon="-5.587980">
        <ele>386.623</ele>
        <time>2020-02-28T09:47:33Z</time>
      </trkpt>
      <trkpt lat="40.105940" lon="-5.587880">
        <ele>386.924</ele>
        <time>2020-02-28T09:47:53Z</time>
      </trkpt>
      <trkpt lat="40.105940" lon="-5.587770">
        <ele>386.931</ele>
        <time>2020-02-28T09:48:13Z</time>
      </trkpt>
      <trkpt lat="40.105900" lon="-5.587450">
        <ele>387.558</ele>
        <time>2020-02-28T09:48:33Z</time>
      </trkpt>
      <trkpt lat="40.105870" lon="-5.587340">
        <ele>388.652</ele>
        <time>2020-02-28T09:48:53Z</time>
      </trkpt>
      <trkpt lat="40.105860" lon="-5.587320">
        <ele>388.917</ele>
        <time>2020-02-28T09:49:13Z</time>
      </trkpt>
      <trkpt lat="40.105810" lon="-5.587040">
        <ele>390.808</ele>
        <time>2020-02-28T09:49:33Z</time>
      </trkpt>
      <trkpt lat="40.105710" lon="-5.586650">
        <ele>394.339</ele>
        <time>2020-02-28T09:49:53Z</time>
      </trkpt>
      <trkpt lat="40.105670" lon="-5.586570">
        <ele>395.172</ele>
        <time>2020-02-28T09:50:13Z</time>
      </trkpt>
      <trkpt lat="40.105640" lon="-5.586470">
        <ele>395.317</ele>
        <time>2020-02-28T09:50:33Z</time>
      </trkpt>
      <trkpt lat="40.105420" lon="-5.585930">
        <ele>396.658</ele>
        <time>2020-02-28T09:50:53Z</time>
      </trkpt>
      <trkpt lat="40.105330" lon="-5.585760">
        <ele>397.361</ele>
        <time>2020-02-28T09:51:13Z</time>
      </trkpt>
      <trkpt lat="40.105040" lon="-5.585290">
        <ele>398.410</ele>
        <time>2020-02-28T09:51:33Z</time>
      </trkpt>
      <trkpt lat="40.104890" lon="-5.585110">
        <ele>399.471</ele>
        <time>2020-02-28T09:51:53Z</time>
      </trkpt>
      <trkpt lat="40.104700" lon="-5.584910">
        <ele>401.368</ele>
        <time>2020-02-28T09:52:13Z</time>
      </trkpt>
      <trkpt lat="40.104090" lon="-5.584400">
        <ele>405.886</ele>
        <time>2020-02-28T09:52:33Z</time>
      </trkpt>
      <trkpt lat="40.103520" lon="-5.583780">
        <ele>407.660</ele>
        <time>2020-02-28T09:52:53Z</time>
      </trkpt>
      <trkpt lat="40.103090" lon="-5.583390">
        <ele>410.926</ele>
        <time>2020-02-28T09:53:13Z</time>
      </trkpt>
      <trkpt lat="40.102910" lon="-5.583290">
        <ele>412.308</ele>
        <time>2020-02-28T09:53:33Z</time>
      </trkpt>
      <trkpt lat="40.102390" lon="-5.583090">
        <ele>416.892</ele>
        <time>2020-02-28T09:53:53Z</time>
      </trkpt>
      <trkpt lat="40.102230" lon="-5.582990">
        <ele>416.365</ele>
        <time>2020-02-28T09:54:13Z</time>
      </trkpt>
      <trkpt lat="40.102050" lon="-5.582820">
        <ele>415.660</ele>
        <time>2020-02-28T09:54:33Z</time>
      </trkpt>
      <trkpt lat="40.101570" lon="-5.582190">
        <ele>421.441</ele>
        <time>2020-02-28T09:54:53Z</time>
      </trkpt>
      <trkpt lat="40.101570" lon="-5.582180">
        <ele>421.444</ele>
        <time>2020-02-28T09:55:13Z</time>
      </trkpt>
      <trkpt lat="40.101470" lon="-5.582100">
        <ele>422.833</ele>
        <time>2020-02-28T09:55:33Z</time>
      </trkpt>
      <trkpt lat="40.101420" lon="-5.582080">
        <ele>423.664</ele>
        <time>2020-02-28T09:55:53Z</time>
      </trkpt>
      <trkpt lat="40.101330" lon="-5.582060">
        <ele>424.871</ele>
        <time>2020-02-28T09:56:13Z</time>
      </trkpt>
      <trkpt lat="40.101120" lon="-5.582070">
        <ele>427.946</ele>
        <time>2020-02-28T09:56:33Z</time>
      </trkpt>
      <trkpt lat="40.101040" lon="-5.582130">
        <ele>429.088</ele>
        <time>2020-02-28T09:56:53Z</time>
      </trkpt>
      <trkpt lat="40.100930" lon="-5.582260">
        <ele>430.916</ele>
        <time>2020-02-28T09:57:13Z</time>
      </trkpt>
      <trkpt lat="40.100920" lon="-5.582280">
        <ele>431.208</ele>
        <time>2020-02-28T09:57:33Z</time>
      </trkpt>
      <trkpt lat="40.100860" lon="-5.582480">
        <ele>433.538</ele>
        <time>2020-02-28T09:57:53Z</time>
      </trkpt>
      <trkpt lat="40.100850" lon="-5.582490">
        <ele>433.711</ele>
        <time>2020-02-28T09:58:13Z</time>
      </trkpt>
      <trkpt lat="40.100830" lon="-5.582640">
        <ele>434.666</ele>
        <time>2020-02-28T09:58:33Z</time>
      </trkpt>
      <trkpt lat="40.100850" lon="-5.582890">
        <ele>434.817</ele>
        <time>2020-02-28T09:58:53Z</time>
      </trkpt>
      <trkpt lat="40.101220" lon="-5.583930">
        <ele>435.280</ele>
        <time>2020-02-28T09:59:13Z</time>
      </trkpt>
      <trkpt lat="40.101290" lon="-5.584230">
        <ele>436.739</ele>
        <time>2020-02-28T09:59:33Z</time>
      </trkpt>
      <trkpt lat="40.101310" lon="-5.584380">
        <ele>437.150</ele>
        <time>2020-02-28T09:59:53Z</time>
      </trkpt>
      <trkpt lat="40.101330" lon="-5.584890">
        <ele>439.977</ele>
        <time>2020-02-28T10:00:13Z</time>
      </trkpt>
      <trkpt lat="40.101310" lon="-5.585130">
        <ele>441.079</ele>
        <time>2020-02-28T10:00:33Z</time>
      </trkpt>
      <trkpt lat="40.101250" lon="-5.585340">
        <ele>442.305</ele>
        <time>2020-02-28T10:00:53Z</time>
      </trkpt>
      <trkpt lat="40.100970" lon="-5.585840">
        <ele>446.025</ele>
        <time>2020-02-28T10:01:13Z</time>
      </trkpt>
      <trkpt lat="40.100900" lon="-5.585940">
        <ele>446.208</ele>
        <time>2020-02-28T10:01:33Z</time>
      </trkpt>
      <trkpt lat="40.100840" lon="-5.586130">
        <ele>446.141</ele>
        <time>2020-02-28T10:01:53Z</time>
      </trkpt>
      <trkpt lat="40.100800" lon="-5.586200">
        <ele>446.374</ele>
        <time>2020-02-28T10:02:13Z</time>
      </trkpt>
      <trkpt lat="40.100760" lon="-5.586390">
        <ele>446.749</ele>
        <time>2020-02-28T10:02:33Z</time>
      </trkpt>
      <trkpt lat="40.100770" lon="-5.586550">
        <ele>447.470</ele>
        <time>2020-02-28T10:02:53Z</time>
      </trkpt>
      <trkpt lat="40.100850" lon="-5.587070">
        <ele>449.143</ele>
        <time>2020-02-28T10:03:13Z</time>
      </trkpt>
      <trkpt lat="40.101130" lon="-5.588340">
        <ele>454.722</ele>
        <time>2020-02-28T10:03:33Z</time>
      </trkpt>
      <trkpt lat="40.101170" lon="-5.588610">
        <ele>455.183</ele>
        <time>2020-02-28T10:03:53Z</time>
      </trkpt>
      <trkpt lat="40.101580" lon="-5.589190">
        <ele>454.490</ele>
        <time>2020-02-28T10:04:13Z</time>
      </trkpt>
      <trkpt lat="40.101770" lon="-5.589650">
        <ele>456.139</ele>
        <time>2020-02-28T10:04:33Z</time>
      </trkpt>
      <trkpt lat="40.101940" lon="-5.590200">
        <ele>459.501</ele>
        <time>2020-02-28T10:04:53Z</time>
      </trkpt>
      <trkpt lat="40.102390" lon="-5.590980">
        <ele>462.221</ele>
        <time>2020-02-28T10:05:13Z</time>
      </trkpt>
      <trkpt lat="40.102480" lon="-5.591360">
        <ele>462.208</ele>
        <time>2020-02-28T10:05:33Z</time>
      </trkpt>
      <trkpt lat="40.102460" lon="-5.591640">
        <ele>463.677</ele>
        <time>2020-02-28T10:05:53Z</time>
      </trkpt>
      <trkpt lat="40.102420" lon="-5.591850">
        <ele>465.370</ele>
        <time>2020-02-28T10:06:13Z</time>
      </trkpt>
      <trkpt lat="40.102410" lon="-5.591950">
        <ele>465.935</ele>
        <time>2020-02-28T10:06:33Z</time>
      </trkpt>
      <trkpt lat="40.102330" lon="-5.592370">
        <ele>467.986</ele>
        <time>2020-02-28T10:06:53Z</time>
      </trkpt>
      <trkpt lat="40.102280" lon="-5.592510">
        <ele>469.029</ele>
        <time>2020-02-28T10:07:13Z</time>
      </trkpt>
      <trkpt lat="40.102070" lon="-5.593290">
        <ele>472.528</ele>
        <time>2020-02-28T10:07:33Z</time>
      </trkpt>
      <trkpt lat="40.101890" lon="-5.594420">
        <ele>476.199</ele>
        <time>2020-02-28T10:07:53Z</time>
      </trkpt>
      <trkpt lat="40.101880" lon="-5.594440">
        <ele>476.486</ele>
        <time>2020-02-28T10:08:13Z</time>
      </trkpt>
      <trkpt lat="40.101820" lon="-5.597760">
        <ele>479.449</ele>
        <time>2020-02-28T10:08:33Z</time>
      </trkpt>
      <trkpt lat="40.101770" lon="-5.598130">
        <ele>479.602</ele>
        <time>2020-02-28T10:08:53Z</time>
      </trkpt>
      <trkpt lat="40.101680" lon="-5.598380">
        <ele>480.022</ele>
        <time>2020-02-28T10:09:13Z</time>
      </trkpt>
      <trkpt lat="40.101620" lon="-5.598680">
        <ele>480.008</ele>
        <time>2020-02-28T10:09:33Z</time>
      </trkpt>
      <trkpt lat="40.101560" lon="-5.598800">
        <ele>479.738</ele>
        <time>2020-02-28T10:09:53Z</time>
      </trkpt>
      <trkpt lat="40.101390" lon="-5.599210">
        <ele>479.071</ele>
        <time>2020-02-28T10:10:13Z</time>
      </trkpt>
      <trkpt lat="40.100860" lon="-5.600280">
        <ele>475.266</ele>
        <time>2020-02-28T10:10:33Z</time>
      </trkpt>
      <trkpt lat="40.100820" lon="-5.600310">
        <ele>474.947</ele>
        <time>2020-02-28T10:10:53Z</time>
      </trkpt>
      <trkpt lat="40.100790" lon="-5.600360">
        <ele>474.860</ele>
        <time>2020-02-28T10:11:13Z</time>
      </trkpt>
      <trkpt lat="40.100480" lon="-5.600650">
        <ele>472.459</ele>
        <time>2020-02-28T10:11:33Z</time>
      </trkpt>
      <trkpt lat="40.100230" lon="-5.600850">
        <ele>470.860</ele>
        <time>2020-02-28T10:11:53Z</time>
      </trkpt>
      <trkpt lat="40.099880" lon="-5.601050">
        <ele>469.137</ele>
        <time>2020-02-28T10:12:13Z</time>
      </trkpt>
      <trkpt lat="40.099130" lon="-5.601570">
        <ele>465.754</ele>
        <time>2020-02-28T10:12:33Z</time>
      </trkpt>
      <trkpt lat="40.098890" lon="-5.601670">
        <ele>464.056</ele>
        <time>2020-02-28T10:12:53Z</time>
      </trkpt>
      <trkpt lat="40.098390" lon="-5.601770">
        <ele>462.011</ele>
        <time>2020-02-28T10:13:13Z</time>
      </trkpt>
      <trkpt lat="40.098040" lon="-5.601950">
        <ele>461.108</ele>
        <time>2020-02-28T10:13:33Z</time>
      </trkpt>
      <trkpt lat="40.097980" lon="-5.601990">
        <ele>461.269</ele>
        <time>2020-02-28T10:13:53Z</time>
      </trkpt>
      <trkpt lat="40.096890" lon="-5.602970">
        <ele>462.552</ele>
        <time>2020-02-28T10:14:13Z</time>
      </trkpt>
      <trkpt lat="40.096730" lon="-5.603090">
        <ele>462.547</ele>
        <time>2020-02-28T10:14:33Z</time>
      </trkpt>
      <trkpt lat="40.096690" lon="-5.603110">
        <ele>462.588</ele>
        <time>2020-02-28T10:14:53Z</time>
      </trkpt>
      <trkpt lat="40.096650" lon="-5.603140">
        <ele>462.311</ele>
        <time>2020-02-28T10:15:13Z</time>
      </trkpt>
      <trkpt lat="40.096470" lon="-5.603220">
        <ele>461.130</ele>
        <time>2020-02-28T10:15:33Z</time>
      </trkpt>
      <trkpt lat="40.095940" lon="-5.603360">
        <ele>459.021</ele>
        <time>2020-02-28T10:15:53Z</time>
      </trkpt>
      <trkpt lat="40.095800" lon="-5.603410">
        <ele>458.938</ele>
        <time>2020-02-28T10:16:13Z</time>
      </trkpt>
      <trkpt lat="40.095190" lon="-5.603570">
        <ele>456.699</ele>
        <time>2020-02-28T10:16:33Z</time>
      </trkpt>
      <trkpt lat="40.094920" lon="-5.603680">
        <ele>455.907</ele>
        <time>2020-02-28T10:16:53Z</time>
      </trkpt>
      <trkpt lat="40.094730" lon="-5.603800">
        <ele>454.727</ele>
        <time>2020-02-28T10:17:13Z</time>
      </trkpt>
      <trkpt lat="40.094730" lon="-5.603790">
        <ele>454.708</ele>
        <time>2020-02-28T10:17:33Z</time>
      </trkpt>
      <trkpt lat="40.094650" lon="-5.603710">
        <ele>455.353</ele>
        <time>2020-02-28T10:17:53Z</time>
      </trkpt>
      <trkpt lat="40.091940" lon="-5.601440">
        <ele>451.826</ele>
        <time>2020-02-28T10:18:13Z</time>
      </trkpt>
      <trkpt lat="40.091740" lon="-5.601250">
        <ele>450.771</ele>
        <time>2020-02-28T10:18:33Z</time>
      </trkpt>
      <trkpt lat="40.091180" lon="-5.600820">
        <ele>447.742</ele>
        <time>2020-02-28T10:18:53Z</time>
      </trkpt>
      <trkpt lat="40.090730" lon="-5.600550">
        <ele>444.365</ele>
        <time>2020-02-28T10:19:13Z</time>
      </trkpt>
      <trkpt lat="40.090300" lon="-5.600430">
        <ele>441.644</ele>
        <time>2020-02-28T10:19:33Z</time>
      </trkpt>
      <trkpt lat="40.089950" lon="-5.600430">
        <ele>441.615</ele>
        <time>2020-02-28T10:19:53Z</time>
      </trkpt>
      <trkpt lat="40.088440" lon="-5.600750">
        <ele>442.562</ele>
        <time>2020-02-28T10:20:13Z</time>
      </trkpt>
      <trkpt lat="40.088350" lon="-5.600750">
        <ele>442.822</ele>
        <time>2020-02-28T10:20:33Z</time>
      </trkpt>
      <trkpt lat="40.087820" lon="-5.600700">
        <ele>442.662</ele>
        <time>2020-02-28T10:20:53Z</time>
      </trkpt>
      <trkpt lat="40.086440" lon="-5.600390">
        <ele>434.808</ele>
        <time>2020-02-28T10:21:13Z</time>
      </trkpt>
      <trkpt lat="40.085710" lon="-5.600130">
        <ele>442.708</ele>
        <time>2020-02-28T10:21:33Z</time>
      </trkpt>
      <trkpt lat="40.085650" lon="-5.600100">
        <ele>442.356</ele>
        <time>2020-02-28T10:21:53Z</time>
      </trkpt>
      <trkpt lat="40.085240" lon="-5.599790">
        <ele>440.369</ele>
        <time>2020-02-28T10:22:13Z</time>
      </trkpt>
      <trkpt lat="40.084680" lon="-5.599110">
        <ele>438.024</ele>
        <time>2020-02-28T10:22:33Z</time>
      </trkpt>
      <trkpt lat="40.084680" lon="-5.599100">
        <ele>438.155</ele>
        <time>2020-02-28T10:22:53Z</time>
      </trkpt>
      <trkpt lat="40.084410" lon="-5.598690">
        <ele>437.418</ele>
        <time>2020-02-28T10:23:13Z</time>
      </trkpt>
      <trkpt lat="40.084370" lon="-5.598590">
        <ele>437.257</ele>
        <time>2020-02-28T10:23:33Z</time>
      </trkpt>
      <trkpt lat="40.083670" lon="-5.597670">
        <ele>432.358</ele>
        <time>2020-02-28T10:23:53Z</time>
      </trkpt>
      <trkpt lat="40.082970" lon="-5.596940">
        <ele>428.035</ele>
        <time>2020-02-28T10:24:13Z</time>
      </trkpt>
      <trkpt lat="40.081730" lon="-5.596110">
        <ele>427.068</ele>
        <time>2020-02-28T10:24:33Z</time>
      </trkpt>
      <trkpt lat="40.081690" lon="-5.596090">
        <ele>427.042</ele>
        <time>2020-02-28T10:24:53Z</time>
      </trkpt>
      <trkpt lat="40.081640" lon="-5.596050">
        <ele>426.926</ele>
        <time>2020-02-28T10:25:13Z</time>
      </trkpt>
      <trkpt lat="40.081370" lon="-5.595900">
        <ele>426.008</ele>
        <time>2020-02-28T10:25:33Z</time>
      </trkpt>
      <trkpt lat="40.081180" lon="-5.595820">
        <ele>426.010</ele>
        <time>2020-02-28T10:25:53Z</time>
      </trkpt>
      <trkpt lat="40.080880" lon="-5.595740">
        <ele>426.313</ele>
        <time>2020-02-28T10:26:13Z</time>
      </trkpt>
      <trkpt lat="40.080840" lon="-5.595740">
        <ele>426.378</ele>
        <time>2020-02-28T10:26:33Z</time>
      </trkpt>
      <trkpt lat="40.080680" lon="-5.595710">
        <ele>426.449</ele>
        <time>2020-02-28T10:26:53Z</time>
      </trkpt>
      <trkpt lat="40.079560" lon="-5.595610">
        <ele>422.472</ele>
        <time>2020-02-28T10:27:13Z</time>
      </trkpt>
      <trkpt lat="40.079220" lon="-5.595530">
        <ele>421.271</ele>
        <time>2020-02-28T10:27:33Z</time>
      </trkpt>
      <trkpt lat="40.079160" lon="-5.595500">
        <ele>421.032</ele>
        <time>2020-02-28T10:27:53Z</time>
      </trkpt>
      <trkpt lat="40.079110" lon="-5.595490">
        <ele>421.099</ele>
        <time>2020-02-28T10:28:13Z</time>
      </trkpt>
      <trkpt lat="40.079000" lon="-5.595440">
        <ele>421.029</ele>
        <time>2020-02-28T10:28:33Z</time>
      </trkpt>
      <trkpt lat="40.078590" lon="-5.595200">
        <ele>419.600</ele>
        <time>2020-02-28T10:28:53Z</time>
      </trkpt>
      <trkpt lat="40.078150" lon="-5.594750">
        <ele>415.820</ele>
        <time>2020-02-28T10:29:13Z</time>
      </trkpt>
      <trkpt lat="40.078100" lon="-5.594670">
        <ele>415.108</ele>
        <time>2020-02-28T10:29:33Z</time>
      </trkpt>
      <trkpt lat="40.078040" lon="-5.594600">
        <ele>414.486</ele>
        <time>2020-02-28T10:29:53Z</time>
      </trkpt>
      <trkpt lat="40.077460" lon="-5.593730">
        <ele>410.099</ele>
        <time>2020-02-28T10:30:13Z</time>
      </trkpt>
      <trkpt lat="40.077150" lon="-5.593380">
        <ele>410.074</ele>
        <time>2020-02-28T10:30:33Z</time>
      </trkpt>
      <trkpt lat="40.077020" lon="-5.593270">
        <ele>410.025</ele>
        <time>2020-02-28T10:30:53Z</time>
      </trkpt>
      <trkpt lat="40.076770" lon="-5.593100">
        <ele>408.778</ele>
        <time>2020-02-28T10:31:13Z</time>
      </trkpt>
      <trkpt lat="40.075460" lon="-5.592360">
        <ele>401.847</ele>
        <time>2020-02-28T10:31:33Z</time>
      </trkpt>
      <trkpt lat="40.074880" lon="-5.592080">
        <ele>405.478</ele>
        <time>2020-02-28T10:31:53Z</time>
      </trkpt>
      <trkpt lat="40.074470" lon="-5.592010">
        <ele>407.735</ele>
        <time>2020-02-28T10:32:13Z</time>
      </trkpt>
      <trkpt lat="40.073980" lon="-5.592080">
        <ele>409.737</ele>
        <time>2020-02-28T10:32:33Z</time>
      </trkpt>
      <trkpt lat="40.073360" lon="-5.592300">
        <ele>408.949</ele>
        <time>2020-02-28T10:32:53Z</time>
      </trkpt>
      <trkpt lat="40.073170" lon="-5.592380">
        <ele>407.313</ele>
        <time>2020-02-28T10:33:13Z</time>
      </trkpt>
      <trkpt lat="40.072810" lon="-5.592490">
        <ele>405.108</ele>
        <time>2020-02-28T10:33:33Z</time>
      </trkpt>
      <trkpt lat="40.072740" lon="-5.592500">
        <ele>405.117</ele>
        <time>2020-02-28T10:33:53Z</time>
      </trkpt>
      <trkpt lat="40.072230" lon="-5.592520">
        <ele>404.150</ele>
        <time>2020-02-28T10:34:13Z</time>
      </trkpt>
      <trkpt lat="40.072110" lon="-5.592510">
        <ele>402.455</ele>
        <time>2020-02-28T10:34:33Z</time>
      </trkpt>
      <trkpt lat="40.071280" lon="-5.592310">
        <ele>402.216</ele>
        <time>2020-02-28T10:34:53Z</time>
      </trkpt>
      <trkpt lat="40.070560" lon="-5.592010">
        <ele>405.059</ele>
        <time>2020-02-28T10:35:13Z</time>
      </trkpt>
      <trkpt lat="40.070490" lon="-5.591990">
        <ele>405.418</ele>
        <time>2020-02-28T10:35:33Z</time>
      </trkpt>
      <trkpt lat="40.070430" lon="-5.591950">
        <ele>405.929</ele>
        <time>2020-02-28T10:35:53Z</time>
      </trkpt>
      <trkpt lat="40.069960" lon="-5.591560">
        <ele>407.476</ele>
        <time>2020-02-28T10:36:13Z</time>
      </trkpt>
      <trkpt lat="40.068400" lon="-5.589600">
        <ele>395.599</ele>
        <time>2020-02-28T10:36:33Z</time>
      </trkpt>
      <trkpt lat="40.067900" lon="-5.589110">
        <ele>389.907</ele>
        <time>2020-02-28T10:36:53Z</time>
      </trkpt>
      <trkpt lat="40.067390" lon="-5.588760">
        <ele>385.827</ele>
        <time>2020-02-28T10:37:13Z</time>
      </trkpt>
      <trkpt lat="40.067050" lon="-5.588580">
        <ele>382.008</ele>
        <time>2020-02-28T10:37:33Z</time>
      </trkpt>
      <trkpt lat="40.066410" lon="-5.588330">
        <ele>378.023</ele>
        <time>2020-02-28T10:37:53Z</time>
      </trkpt>
      <trkpt lat="40.066080" lon="-5.588260">
        <ele>374.166</ele>
        <time>2020-02-28T10:38:13Z</time>
      </trkpt>
      <trkpt lat="40.063650" lon="-5.587940">
        <ele>349.721</ele>
        <time>2020-02-28T10:38:33Z</time>
      </trkpt>
      <trkpt lat="40.063300" lon="-5.587940">
        <ele>340.762</ele>
        <time>2020-02-28T10:38:53Z</time>
      </trkpt>
      <trkpt lat="40.062800" lon="-5.588000">
        <ele>340.035</ele>
        <time>2020-02-28T10:39:13Z</time>
      </trkpt>
      <trkpt lat="40.062750" lon="-5.588020">
        <ele>339.764</ele>
        <time>2020-02-28T10:39:33Z</time>
      </trkpt>
      <trkpt lat="40.062700" lon="-5.588030">
        <ele>339.315</ele>
        <time>2020-02-28T10:39:53Z</time>
      </trkpt>
      <trkpt lat="40.061930" lon="-5.588320">
        <ele>330.022</ele>
        <time>2020-02-28T10:40:13Z</time>
      </trkpt>
      <trkpt lat="40.061430" lon="-5.588630">
        <ele>328.099</ele>
        <time>2020-02-28T10:40:33Z</time>
      </trkpt>
      <trkpt lat="40.060960" lon="-5.589020">
        <ele>320.407</ele>
        <time>2020-02-28T10:40:53Z</time>
      </trkpt>
      <trkpt lat="40.060440" lon="-5.589570">
        <ele>318.727</ele>
        <time>2020-02-28T10:41:13Z</time>
      </trkpt>
      <trkpt lat="40.060010" lon="-5.590150">
        <ele>314.608</ele>
        <time>2020-02-28T10:41:33Z</time>
      </trkpt>
      <trkpt lat="40.059700" lon="-5.590770">
        <ele>310.063</ele>
        <time>2020-02-28T10:41:53Z</time>
      </trkpt>
      <trkpt lat="40.059670" lon="-5.590810">
        <ele>310.086</ele>
        <time>2020-02-28T10:42:13Z</time>
      </trkpt>
      <trkpt lat="40.059660" lon="-5.590850">
        <ele>310.021</ele>
        <time>2020-02-28T10:42:33Z</time>
      </trkpt>
      <trkpt lat="40.059390" lon="-5.591560">
        <ele>303.872</ele>
        <time>2020-02-28T10:42:53Z</time>
      </trkpt>
      <trkpt lat="40.059030" lon="-5.592890">
        <ele>307.645</ele>
        <time>2020-02-28T10:43:13Z</time>
      </trkpt>
      <trkpt lat="40.058800" lon="-5.593540">
        <ele>310.444</ele>
        <time>2020-02-28T10:43:33Z</time>
      </trkpt>
      <trkpt lat="40.058590" lon="-5.593870">
        <ele>309.915</ele>
        <time>2020-02-28T10:43:53Z</time>
      </trkpt>
      <trkpt lat="40.058390" lon="-5.594100">
        <ele>310.682</ele>
        <time>2020-02-28T10:44:13Z</time>
      </trkpt>
      <trkpt lat="40.057950" lon="-5.594410">
        <ele>310.071</ele>
        <time>2020-02-28T10:44:33Z</time>
      </trkpt>
      <trkpt lat="40.057910" lon="-5.594430">
        <ele>310.041</ele>
        <time>2020-02-28T10:44:53Z</time>
      </trkpt>
      <trkpt lat="40.057390" lon="-5.594550">
        <ele>304.315</ele>
        <time>2020-02-28T10:45:13Z</time>
      </trkpt>
      <trkpt lat="40.056380" lon="-5.594590">
        <ele>292.508</ele>
        <time>2020-02-28T10:45:33Z</time>
      </trkpt>
      <trkpt lat="40.056030" lon="-5.594710">
        <ele>293.151</ele>
        <time>2020-02-28T10:45:53Z</time>
      </trkpt>
      <trkpt lat="40.055990" lon="-5.594740">
        <ele>293.734</ele>
        <time>2020-02-28T10:46:13Z</time>
      </trkpt>
      <trkpt lat="40.055910" lon="-5.594780">
        <ele>294.729</ele>
        <time>2020-02-28T10:46:33Z</time>
      </trkpt>
      <trkpt lat="40.054750" lon="-5.595610">
        <ele>288.560</ele>
        <time>2020-02-28T10:46:53Z</time>
      </trkpt>
      <trkpt lat="40.054720" lon="-5.595620">
        <ele>288.243</ele>
        <time>2020-02-28T10:47:13Z</time>
      </trkpt>
      <trkpt lat="40.054570" lon="-5.595710">
        <ele>286.962</ele>
        <time>2020-02-28T10:47:33Z</time>
      </trkpt>
      <trkpt lat="40.054010" lon="-5.595910">
        <ele>283.483</ele>
        <time>2020-02-28T10:47:53Z</time>
      </trkpt>
      <trkpt lat="40.053800" lon="-5.595930">
        <ele>282.380</ele>
        <time>2020-02-28T10:48:13Z</time>
      </trkpt>
      <trkpt lat="40.052480" lon="-5.595840">
        <ele>280.021</ele>
        <time>2020-02-28T10:48:33Z</time>
      </trkpt>
      <trkpt lat="40.052140" lon="-5.595850">
        <ele>279.741</ele>
        <time>2020-02-28T10:48:53Z</time>
      </trkpt>
      <trkpt lat="40.052000" lon="-5.595870">
        <ele>279.205</ele>
        <time>2020-02-28T10:49:13Z</time>
      </trkpt>
      <trkpt lat="40.049040" lon="-5.596870">
        <ele>274.508</ele>
        <time>2020-02-28T10:49:33Z</time>
      </trkpt>
      <trkpt lat="40.047890" lon="-5.597360">
        <ele>273.016</ele>
        <time>2020-02-28T10:49:53Z</time>
      </trkpt>
      <trkpt lat="40.047470" lon="-5.597500">
        <ele>272.049</ele>
        <time>2020-02-28T10:50:13Z</time>
      </trkpt>
      <trkpt lat="40.047320" lon="-5.597500">
        <ele>272.074</ele>
        <time>2020-02-28T10:50:33Z</time>
      </trkpt>
      <trkpt lat="40.046270" lon="-5.597410">
        <ele>270.025</ele>
        <time>2020-02-28T10:50:53Z</time>
      </trkpt>
      <trkpt lat="40.045400" lon="-5.597240">
        <ele>267.538</ele>
        <time>2020-02-28T10:51:13Z</time>
      </trkpt>
      <trkpt lat="40.044200" lon="-5.597430">
        <ele>265.887</ele>
        <time>2020-02-28T10:51:33Z</time>
      </trkpt>
      <trkpt lat="40.042500" lon="-5.598160">
        <ele>264.088</ele>
        <time>2020-02-28T10:51:53Z</time>
      </trkpt>
      <trkpt lat="40.041810" lon="-5.598530">
        <ele>262.595</ele>
        <time>2020-02-28T10:52:13Z</time>
      </trkpt>
      <trkpt lat="40.041800" lon="-5.598540">
        <ele>262.528</ele>
        <time>2020-02-28T10:52:33Z</time>
      </trkpt>
      <trkpt lat="40.040880" lon="-5.598940">
        <ele>261.089</ele>
        <time>2020-02-28T10:52:53Z</time>
      </trkpt>
      <trkpt lat="40.040670" lon="-5.599010">
        <ele>260.417</ele>
        <time>2020-02-28T10:53:13Z</time>
      </trkpt>
      <trkpt lat="40.039920" lon="-5.599160">
        <ele>260.008</ele>
        <time>2020-02-28T10:53:33Z</time>
      </trkpt>
      <trkpt lat="40.039570" lon="-5.599180">
        <ele>260.026</ele>
        <time>2020-02-28T10:53:53Z</time>
      </trkpt>
      <trkpt lat="40.038010" lon="-5.599380">
        <ele>260.079</ele>
        <time>2020-02-28T10:54:13Z</time>
      </trkpt>
      <trkpt lat="40.037640" lon="-5.599450">
        <ele>260.044</ele>
        <time>2020-02-28T10:54:33Z</time>
      </trkpt>
      <trkpt lat="40.036610" lon="-5.599770">
        <ele>260.065</ele>
        <time>2020-02-28T10:54:53Z</time>
      </trkpt>
      <trkpt lat="40.036000" lon="-5.600060">
        <ele>260.048</ele>
        <time>2020-02-28T10:55:13Z</time>
      </trkpt>
      <trkpt lat="40.035080" lon="-5.600810">
        <ele>260.097</ele>
        <time>2020-02-28T10:55:33Z</time>
      </trkpt>
      <trkpt lat="40.034360" lon="-5.601560">
        <ele>260.038</ele>
        <time>2020-02-28T10:55:53Z</time>
      </trkpt>
      <trkpt lat="40.034110" lon="-5.602080">
        <ele>260.025</ele>
        <time>2020-02-28T10:56:13Z</time>
      </trkpt>
      <trkpt lat="40.033890" lon="-5.602690">
        <ele>260.028</ele>
        <time>2020-02-28T10:56:33Z</time>
      </trkpt>
      <trkpt lat="40.033890" lon="-5.602720">
        <ele>260.089</ele>
        <time>2020-02-28T10:56:53Z</time>
      </trkpt>
      <trkpt lat="40.033350" lon="-5.605450">
        <ele>260.017</ele>
        <time>2020-02-28T10:57:13Z</time>
      </trkpt>
      <trkpt lat="40.033350" lon="-5.605470">
        <ele>260.008</ele>
        <time>2020-02-28T10:57:33Z</time>
      </trkpt>
      <trkpt lat="40.033190" lon="-5.605870">
        <ele>260.036</ele>
        <time>2020-02-28T10:57:53Z</time>
      </trkpt>
      <trkpt lat="40.033090" lon="-5.606080">
        <ele>260.099</ele>
        <time>2020-02-28T10:58:13Z</time>
      </trkpt>
      <trkpt lat="40.032920" lon="-5.606310">
        <ele>260.024</ele>
        <time>2020-02-28T10:58:33Z</time>
      </trkpt>
      <trkpt lat="40.032850" lon="-5.606370">
        <ele>260.035</ele>
        <time>2020-02-28T10:58:53Z</time>
      </trkpt>
      <trkpt lat="40.032830" lon="-5.606380">
        <ele>260.058</ele>
        <time>2020-02-28T10:59:13Z</time>
      </trkpt>
      <trkpt lat="40.031790" lon="-5.607240">
        <ele>260.067</ele>
        <time>2020-02-28T10:59:33Z</time>
      </trkpt>
      <trkpt lat="40.031060" lon="-5.607760">
        <ele>259.838</ele>
        <time>2020-02-28T10:59:53Z</time>
      </trkpt>
      <trkpt lat="40.029370" lon="-5.609100">
        <ele>255.855</ele>
        <time>2020-02-28T11:00:13Z</time>
      </trkpt>
      <trkpt lat="40.029300" lon="-5.609170">
        <ele>255.585</ele>
        <time>2020-02-28T11:00:33Z</time>
      </trkpt>
      <trkpt lat="40.029100" lon="-5.609410">
        <ele>255.089</ele>
        <time>2020-02-28T11:00:53Z</time>
      </trkpt>
      <trkpt lat="40.028800" lon="-5.609870">
        <ele>253.817</ele>
        <time>2020-02-28T11:01:13Z</time>
      </trkpt>
      <trkpt lat="40.027670" lon="-5.612630">
        <ele>254.908</ele>
        <time>2020-02-28T11:01:33Z</time>
      </trkpt>
      <trkpt lat="40.027640" lon="-5.612730">
        <ele>254.992</ele>
        <time>2020-02-28T11:01:53Z</time>
      </trkpt>
      <trkpt lat="40.027420" lon="-5.613170">
        <ele>255.015</ele>
        <time>2020-02-28T11:02:13Z</time>
      </trkpt>
      <trkpt lat="40.027200" lon="-5.613720">
        <ele>254.990</ele>
        <time>2020-02-28T11:02:33Z</time>
      </trkpt>
      <trkpt lat="40.027210" lon="-5.613760">
        <ele>254.961</ele>
        <time>2020-02-28T11:02:53Z</time>
      </trkpt>
      <trkpt lat="40.027210" lon="-5.613780">
        <ele>254.944</ele>
        <time>2020-02-28T11:03:13Z</time>
      </trkpt>
      <trkpt lat="40.027220" lon="-5.613810">
        <ele>255.053</ele>
        <time>2020-02-28T11:03:33Z</time>
      </trkpt>
      <trkpt lat="40.027220" lon="-5.613830">
        <ele>255.024</ele>
        <time>2020-02-28T11:03:53Z</time>
      </trkpt>
      <trkpt lat="40.027210" lon="-5.613860">
        <ele>255.021</ele>
        <time>2020-02-28T11:04:13Z</time>
      </trkpt>
      <trkpt lat="40.027210" lon="-5.613880">
        <ele>255.069</ele>
        <time>2020-02-28T11:04:33Z</time>
      </trkpt>
      <trkpt lat="40.027200" lon="-5.613910">
        <ele>254.904</ele>
        <time>2020-02-28T11:04:53Z</time>
      </trkpt>
      <trkpt lat="40.027200" lon="-5.613930">
        <ele>254.924</ele>
        <time>2020-02-28T11:05:13Z</time>
      </trkpt>
      <trkpt lat="40.027160" lon="-5.614010">
        <ele>254.808</ele>
        <time>2020-02-28T11:05:33Z</time>
      </trkpt>
      <trkpt lat="40.027260" lon="-5.614330">
        <ele>255.810</ele>
        <time>2020-02-28T11:05:53Z</time>
      </trkpt>
      <trkpt lat="40.027270" lon="-5.614420">
        <ele>256.163</ele>
        <time>2020-02-28T11:06:13Z</time>
      </trkpt>
      <trkpt lat="40.030380" lon="-5.618480">
        <ele>260.098</ele>
        <time>2020-02-28T11:06:33Z</time>
      </trkpt>
      <trkpt lat="40.030400" lon="-5.618530">
        <ele>260.089</ele>
        <time>2020-02-28T11:06:53Z</time>
      </trkpt>
      <trkpt lat="40.030560" lon="-5.618780">
        <ele>260.082</ele>
        <time>2020-02-28T11:07:13Z</time>
      </trkpt>
      <trkpt lat="40.030570" lon="-5.618810">
        <ele>260.111</ele>
        <time>2020-02-28T11:07:33Z</time>
      </trkpt>
      <trkpt lat="40.030650" lon="-5.618950">
        <ele>260.512</ele>
        <time>2020-02-28T11:07:53Z</time>
      </trkpt>
      <trkpt lat="40.030670" lon="-5.619010">
        <ele>260.749</ele>
        <time>2020-02-28T11:08:13Z</time>
      </trkpt>
      <trkpt lat="40.030730" lon="-5.619140">
        <ele>261.086</ele>
        <time>2020-02-28T11:08:33Z</time>
      </trkpt>
      <trkpt lat="40.030830" lon="-5.619420">
        <ele>261.960</ele>
        <time>2020-02-28T11:08:53Z</time>
      </trkpt>
      <trkpt lat="40.030930" lon="-5.619850">
        <ele>262.626</ele>
        <time>2020-02-28T11:09:13Z</time>
      </trkpt>
      <trkpt lat="40.030960" lon="-5.620060">
        <ele>263.108</ele>
        <time>2020-02-28T11:09:33Z</time>
      </trkpt>
      <trkpt lat="40.030980" lon="-5.620340">
        <ele>263.682</ele>
        <time>2020-02-28T11:09:53Z</time>
      </trkpt>
      <trkpt lat="40.030990" lon="-5.620390">
        <ele>263.795</ele>
        <time>2020-02-28T11:10:13Z</time>
      </trkpt>
      <trkpt lat="40.030990" lon="-5.620580">
        <ele>264.170</ele>
        <time>2020-02-28T11:10:33Z</time>
      </trkpt>
      <trkpt lat="40.030300" lon="-5.633280">
        <ele>266.071</ele>
        <time>2020-02-28T11:10:53Z</time>
      </trkpt>
      <trkpt lat="40.030120" lon="-5.633980">
        <ele>266.484</ele>
        <time>2020-02-28T11:11:13Z</time>
      </trkpt>
      <trkpt lat="40.028850" lon="-5.638040">
        <ele>266.973</ele>
        <time>2020-02-28T11:11:33Z</time>
      </trkpt>
      <trkpt lat="40.028410" lon="-5.639560">
        <ele>267.384</ele>
        <time>2020-02-28T11:11:53Z</time>
      </trkpt>
      <trkpt lat="40.028180" lon="-5.640660">
        <ele>265.921</ele>
        <time>2020-02-28T11:12:13Z</time>
      </trkpt>
      <trkpt lat="40.027470" lon="-5.645090">
        <ele>260.394</ele>
        <time>2020-02-28T11:12:33Z</time>
      </trkpt>
      <trkpt lat="40.027380" lon="-5.645790">
        <ele>260.657</ele>
        <time>2020-02-28T11:12:53Z</time>
      </trkpt>
      <trkpt lat="40.027370" lon="-5.646000">
        <ele>260.522</ele>
        <time>2020-02-28T11:13:13Z</time>
      </trkpt>
      <trkpt lat="40.027430" lon="-5.646710">
        <ele>260.908</ele>
        <time>2020-02-28T11:13:33Z</time>
      </trkpt>
      <trkpt lat="40.027480" lon="-5.647000">
        <ele>261.913</ele>
        <time>2020-02-28T11:13:53Z</time>
      </trkpt>
      <trkpt lat="40.027920" lon="-5.648990">
        <ele>266.496</ele>
        <time>2020-02-28T11:14:13Z</time>
      </trkpt>
      <trkpt lat="40.028010" lon="-5.649480">
        <ele>267.271</ele>
        <time>2020-02-28T11:14:33Z</time>
      </trkpt>
      <trkpt lat="40.028030" lon="-5.649720">
        <ele>267.242</ele>
        <time>2020-02-28T11:14:53Z</time>
      </trkpt>
      <trkpt lat="40.028040" lon="-5.650280">
        <ele>268.145</ele>
        <time>2020-02-28T11:15:13Z</time>
      </trkpt>
      <trkpt lat="40.028020" lon="-5.650510">
        <ele>268.394</ele>
        <time>2020-02-28T11:15:33Z</time>
      </trkpt>
      <trkpt lat="40.028010" lon="-5.650530">
        <ele>268.325</ele>
        <time>2020-02-28T11:15:53Z</time>
      </trkpt>
      <trkpt lat="40.027990" lon="-5.650730">
        <ele>268.852</ele>
        <time>2020-02-28T11:16:13Z</time>
      </trkpt>
      <trkpt lat="40.027740" lon="-5.651900">
        <ele>274.112</ele>
        <time>2020-02-28T11:16:33Z</time>
      </trkpt>
      <trkpt lat="40.027640" lon="-5.652250">
        <ele>276.132</ele>
        <time>2020-02-28T11:16:53Z</time>
      </trkpt>
      <trkpt lat="40.027280" lon="-5.653780">
        <ele>279.905</ele>
        <time>2020-02-28T11:17:13Z</time>
      </trkpt>
      <trkpt lat="40.027010" lon="-5.655930">
        <ele>280.608</ele>
        <time>2020-02-28T11:17:33Z</time>
      </trkpt>
      <trkpt lat="40.026900" lon="-5.656510">
        <ele>280.015</ele>
        <time>2020-02-28T11:17:53Z</time>
      </trkpt>
      <trkpt lat="40.026680" lon="-5.657430">
        <ele>279.138</ele>
        <time>2020-02-28T11:18:13Z</time>
      </trkpt>
      <trkpt lat="40.025970" lon="-5.659810">
        <ele>272.563</ele>
        <time>2020-02-28T11:18:33Z</time>
      </trkpt>
      <trkpt lat="40.025920" lon="-5.659930">
        <ele>271.694</ele>
        <time>2020-02-28T11:18:53Z</time>
      </trkpt>
      <trkpt lat="40.024490" lon="-5.664680">
        <ele>270.067</ele>
        <time>2020-02-28T11:19:13Z</time>
      </trkpt>
      <trkpt lat="40.024280" lon="-5.665180">
        <ele>270.246</ele>
        <time>2020-02-28T11:19:33Z</time>
      </trkpt>
      <trkpt lat="40.024210" lon="-5.665310">
        <ele>270.017</ele>
        <time>2020-02-28T11:19:53Z</time>
      </trkpt>
      <trkpt lat="40.024180" lon="-5.665340">
        <ele>270.084</ele>
        <time>2020-02-28T11:20:13Z</time>
      </trkpt>
      <trkpt lat="40.024050" lon="-5.665560">
        <ele>271.328</ele>
        <time>2020-02-28T11:20:33Z</time>
      </trkpt>
      <trkpt lat="40.023200" lon="-5.666670">
        <ele>274.589</ele>
        <time>2020-02-28T11:20:53Z</time>
      </trkpt>
      <trkpt lat="40.023200" lon="-5.666680">
        <ele>274.517</ele>
        <time>2020-02-28T11:21:13Z</time>
      </trkpt>
      <trkpt lat="40.023010" lon="-5.666950">
        <ele>276.208</ele>
        <time>2020-02-28T11:21:33Z</time>
      </trkpt>
      <trkpt lat="40.022860" lon="-5.667200">
        <ele>277.666</ele>
        <time>2020-02-28T11:21:53Z</time>
      </trkpt>
      <trkpt lat="40.022370" lon="-5.668170">
        <ele>281.189</ele>
        <time>2020-02-28T11:22:13Z</time>
      </trkpt>
      <trkpt lat="40.022120" lon="-5.668580">
        <ele>283.364</ele>
        <time>2020-02-28T11:22:33Z</time>
      </trkpt>
      <trkpt lat="40.022060" lon="-5.668660">
        <ele>283.835</ele>
        <time>2020-02-28T11:22:53Z</time>
      </trkpt>
      <trkpt lat="40.021790" lon="-5.668960">
        <ele>285.818</ele>
        <time>2020-02-28T11:23:13Z</time>
      </trkpt>
      <trkpt lat="40.020900" lon="-5.669760">
        <ele>287.327</ele>
        <time>2020-02-28T11:23:33Z</time>
      </trkpt>
      <trkpt lat="40.020360" lon="-5.670390">
        <ele>286.638</ele>
        <time>2020-02-28T11:23:53Z</time>
      </trkpt>
      <trkpt lat="40.019350" lon="-5.671710">
        <ele>280.065</ele>
        <time>2020-02-28T11:24:13Z</time>
      </trkpt>
      <trkpt lat="40.018860" lon="-5.672400">
        <ele>282.219</ele>
        <time>2020-02-28T11:24:33Z</time>
      </trkpt>
      <trkpt lat="40.018590" lon="-5.672820">
        <ele>283.309</ele>
        <time>2020-02-28T11:24:53Z</time>
      </trkpt>
      <trkpt lat="40.018240" lon="-5.673430">
        <ele>285.619</ele>
        <time>2020-02-28T11:25:13Z</time>
      </trkpt>
      <trkpt lat="40.017640" lon="-5.674720">
        <ele>286.008</ele>
        <time>2020-02-28T11:25:33Z</time>
      </trkpt>
      <trkpt lat="40.017560" lon="-5.674930">
        <ele>286.255</ele>
        <time>2020-02-28T11:25:53Z</time>
      </trkpt>
      <trkpt lat="40.017540" lon="-5.674960">
        <ele>286.138</ele>
        <time>2020-02-28T11:26:13Z</time>
      </trkpt>
      <trkpt lat="40.017020" lon="-5.676150">
        <ele>280.053</ele>
        <time>2020-02-28T11:26:33Z</time>
      </trkpt>
      <trkpt lat="40.017020" lon="-5.676160">
        <ele>280.014</ele>
        <time>2020-02-28T11:26:53Z</time>
      </trkpt>
      <trkpt lat="40.015850" lon="-5.678930">
        <ele>280.047</ele>
        <time>2020-02-28T11:27:13Z</time>
      </trkpt>
      <trkpt lat="40.015610" lon="-5.679570">
        <ele>280.046</ele>
        <time>2020-02-28T11:27:33Z</time>
      </trkpt>
      <trkpt lat="40.015300" lon="-5.680600">
        <ele>280.087</ele>
        <time>2020-02-28T11:27:53Z</time>
      </trkpt>
      <trkpt lat="40.015060" lon="-5.681580">
        <ele>280.054</ele>
        <time>2020-02-28T11:28:13Z</time>
      </trkpt>
      <trkpt lat="40.014740" lon="-5.682570">
        <ele>278.115</ele>
        <time>2020-02-28T11:28:33Z</time>
      </trkpt>
      <trkpt lat="40.013720" lon="-5.685290">
        <ele>280.265</ele>
        <time>2020-02-28T11:28:53Z</time>
      </trkpt>
      <trkpt lat="40.013260" lon="-5.686260">
        <ele>286.711</ele>
        <time>2020-02-28T11:29:13Z</time>
      </trkpt>
      <trkpt lat="40.012910" lon="-5.686860">
        <ele>289.408</ele>
        <time>2020-02-28T11:29:33Z</time>
      </trkpt>
      <trkpt lat="40.012880" lon="-5.686930">
        <ele>289.695</ele>
        <time>2020-02-28T11:29:53Z</time>
      </trkpt>
      <trkpt lat="40.012340" lon="-5.687910">
        <ele>290.018</ele>
        <time>2020-02-28T11:30:13Z</time>
      </trkpt>
      <trkpt lat="40.012260" lon="-5.688090">
        <ele>290.093</ele>
        <time>2020-02-28T11:30:33Z</time>
      </trkpt>
      <trkpt lat="40.012200" lon="-5.688200">
        <ele>290.034</ele>
        <time>2020-02-28T11:30:53Z</time>
      </trkpt>
      <trkpt lat="40.012060" lon="-5.688570">
        <ele>289.537</ele>
        <time>2020-02-28T11:31:13Z</time>
      </trkpt>
      <trkpt lat="40.011960" lon="-5.688910">
        <ele>288.056</ele>
        <time>2020-02-28T11:31:33Z</time>
      </trkpt>
      <trkpt lat="40.011740" lon="-5.689960">
        <ele>284.587</ele>
        <time>2020-02-28T11:31:53Z</time>
      </trkpt>
      <trkpt lat="40.011580" lon="-5.690560">
        <ele>280.714</ele>
        <time>2020-02-28T11:32:13Z</time>
      </trkpt>
      <trkpt lat="40.011430" lon="-5.690950">
        <ele>280.791</ele>
        <time>2020-02-28T11:32:33Z</time>
      </trkpt>
      <trkpt lat="40.010500" lon="-5.692550">
        <ele>280.081</ele>
        <time>2020-02-28T11:32:53Z</time>
      </trkpt>
      <trkpt lat="40.009570" lon="-5.694380">
        <ele>277.619</ele>
        <time>2020-02-28T11:33:13Z</time>
      </trkpt>
      <trkpt lat="40.009400" lon="-5.694920">
        <ele>275.008</ele>
        <time>2020-02-28T11:33:33Z</time>
      </trkpt>
      <trkpt lat="40.009340" lon="-5.695230">
        <ele>275.163</ele>
        <time>2020-02-28T11:33:53Z</time>
      </trkpt>
      <trkpt lat="40.009290" lon="-5.695750">
        <ele>273.986</ele>
        <time>2020-02-28T11:34:13Z</time>
      </trkpt>
      <trkpt lat="40.009240" lon="-5.697280">
        <ele>271.251</ele>
        <time>2020-02-28T11:34:33Z</time>
      </trkpt>
      <trkpt lat="40.009170" lon="-5.697750">
        <ele>273.892</ele>
        <time>2020-02-28T11:34:53Z</time>
      </trkpt>
      <trkpt lat="40.009100" lon="-5.698030">
        <ele>276.195</ele>
        <time>2020-02-28T11:35:13Z</time>
      </trkpt>
      <trkpt lat="40.008850" lon="-5.698790">
        <ele>279.334</ele>
        <time>2020-02-28T11:35:33Z</time>
      </trkpt>
      <trkpt lat="40.008680" lon="-5.699160">
        <ele>280.715</ele>
        <time>2020-02-28T11:35:53Z</time>
      </trkpt>
      <trkpt lat="40.008470" lon="-5.699480">
        <ele>280.662</ele>
        <time>2020-02-28T11:36:13Z</time>
      </trkpt>
      <trkpt lat="40.007720" lon="-5.700320">
        <ele>279.882</ele>
        <time>2020-02-28T11:36:33Z</time>
      </trkpt>
      <trkpt lat="40.007710" lon="-5.700340">
        <ele>279.843</ele>
        <time>2020-02-28T11:36:53Z</time>
      </trkpt>
      <trkpt lat="40.007630" lon="-5.700440">
        <ele>279.517</ele>
        <time>2020-02-28T11:37:13Z</time>
      </trkpt>
      <trkpt lat="40.007590" lon="-5.700510">
        <ele>279.308</ele>
        <time>2020-02-28T11:37:33Z</time>
      </trkpt>
      <trkpt lat="40.007550" lon="-5.700560">
        <ele>279.242</ele>
        <time>2020-02-28T11:37:53Z</time>
      </trkpt>
      <trkpt lat="40.006820" lon="-5.702190">
        <ele>273.525</ele>
        <time>2020-02-28T11:38:13Z</time>
      </trkpt>
      <trkpt lat="40.006000" lon="-5.703710">
        <ele>271.470</ele>
        <time>2020-02-28T11:38:33Z</time>
      </trkpt>
      <trkpt lat="40.005670" lon="-5.704240">
        <ele>270.531</ele>
        <time>2020-02-28T11:38:53Z</time>
      </trkpt>
      <trkpt lat="40.005640" lon="-5.704270">
        <ele>270.464</ele>
        <time>2020-02-28T11:39:13Z</time>
      </trkpt>
      <trkpt lat="40.005060" lon="-5.705040">
        <ele>269.243</ele>
        <time>2020-02-28T11:39:33Z</time>
      </trkpt>
      <trkpt lat="40.005050" lon="-5.705060">
        <ele>269.254</ele>
        <time>2020-02-28T11:39:53Z</time>
      </trkpt>
      <trkpt lat="40.004220" lon="-5.706170">
        <ele>264.651</ele>
        <time>2020-02-28T11:40:13Z</time>
      </trkpt>
      <trkpt lat="40.004000" lon="-5.706560">
        <ele>264.797</ele>
        <time>2020-02-28T11:40:33Z</time>
      </trkpt>
      <trkpt lat="40.003610" lon="-5.707560">
        <ele>264.223</ele>
        <time>2020-02-28T11:40:53Z</time>
      </trkpt>
      <trkpt lat="40.003600" lon="-5.707600">
        <ele>264.325</ele>
        <time>2020-02-28T11:41:13Z</time>
      </trkpt>
      <trkpt lat="40.003070" lon="-5.709010">
        <ele>265.608</ele>
        <time>2020-02-28T11:41:33Z</time>
      </trkpt>
      <trkpt lat="40.002810" lon="-5.709870">
        <ele>265.853</ele>
        <time>2020-02-28T11:41:53Z</time>
      </trkpt>
      <trkpt lat="40.002720" lon="-5.710470">
        <ele>267.166</ele>
        <time>2020-02-28T11:42:13Z</time>
      </trkpt>
      <trkpt lat="40.002700" lon="-5.710960">
        <ele>267.471</ele>
        <time>2020-02-28T11:42:33Z</time>
      </trkpt>
      <trkpt lat="40.002720" lon="-5.711350">
        <ele>266.952</ele>
        <time>2020-02-28T11:42:53Z</time>
      </trkpt>
      <trkpt lat="40.002750" lon="-5.711450">
        <ele>266.735</ele>
        <time>2020-02-28T11:43:13Z</time>
      </trkpt>
      <trkpt lat="40.002870" lon="-5.712120">
        <ele>264.884</ele>
        <time>2020-02-28T11:43:33Z</time>
      </trkpt>
      <trkpt lat="40.003000" lon="-5.712600">
        <ele>263.475</ele>
        <time>2020-02-28T11:43:53Z</time>
      </trkpt>
      <trkpt lat="40.003240" lon="-5.713340">
        <ele>260.032</ele>
        <time>2020-02-28T11:44:13Z</time>
      </trkpt>
      <trkpt lat="40.003250" lon="-5.713410">
        <ele>259.514</ele>
        <time>2020-02-28T11:44:33Z</time>
      </trkpt>
      <trkpt lat="40.003390" lon="-5.713840">
        <ele>256.154</ele>
        <time>2020-02-28T11:44:53Z</time>
      </trkpt>
      <trkpt lat="40.003380" lon="-5.713920">
        <ele>255.709</ele>
        <time>2020-02-28T11:45:13Z</time>
      </trkpt>
      <trkpt lat="40.003420" lon="-5.714070">
        <ele>255.008</ele>
        <time>2020-02-28T11:45:33Z</time>
      </trkpt>
      <trkpt lat="40.003450" lon="-5.714140">
        <ele>254.725</ele>
        <time>2020-02-28T11:45:53Z</time>
      </trkpt>
      <trkpt lat="40.003740" lon="-5.715080">
        <ele>256.468</ele>
        <time>2020-02-28T11:46:13Z</time>
      </trkpt>
      <trkpt lat="40.004010" lon="-5.715750">
        <ele>260.173</ele>
        <time>2020-02-28T11:46:33Z</time>
      </trkpt>
      <trkpt lat="40.004020" lon="-5.715760">
        <ele>260.194</ele>
        <time>2020-02-28T11:46:53Z</time>
      </trkpt>
      <trkpt lat="40.004160" lon="-5.716060">
        <ele>260.927</ele>
        <time>2020-02-28T11:47:13Z</time>
      </trkpt>
      <trkpt lat="40.004360" lon="-5.716430">
        <ele>267.536</ele>
        <time>2020-02-28T11:47:33Z</time>
      </trkpt>
      <trkpt lat="40.004560" lon="-5.716720">
        <ele>268.617</ele>
        <time>2020-02-28T11:47:53Z</time>
      </trkpt>
      <trkpt lat="40.009740" lon="-5.722750">
        <ele>315.364</ele>
        <time>2020-02-28T11:48:13Z</time>
      </trkpt>
      <trkpt lat="40.010240" lon="-5.723230">
        <ele>318.765</ele>
        <time>2020-02-28T11:48:33Z</time>
      </trkpt>
      <trkpt lat="40.010330" lon="-5.723290">
        <ele>321.268</ele>
        <time>2020-02-28T11:48:53Z</time>
      </trkpt>
      <trkpt lat="40.010370" lon="-5.723330">
        <ele>322.314</ele>
        <time>2020-02-28T11:49:13Z</time>
      </trkpt>
      <trkpt lat="40.010600" lon="-5.723490">
        <ele>326.208</ele>
        <time>2020-02-28T11:49:33Z</time>
      </trkpt>
      <trkpt lat="40.010710" lon="-5.723580">
        <ele>325.870</ele>
        <time>2020-02-28T11:49:53Z</time>
      </trkpt>
      <trkpt lat="40.011100" lon="-5.723790">
        <ele>326.323</ele>
        <time>2020-02-28T11:50:13Z</time>
      </trkpt>
      <trkpt lat="40.011650" lon="-5.724020">
        <ele>327.548</ele>
        <time>2020-02-28T11:50:33Z</time>
      </trkpt>
      <trkpt lat="40.012000" lon="-5.724140">
        <ele>330.069</ele>
        <time>2020-02-28T11:50:53Z</time>
      </trkpt>
      <trkpt lat="40.012880" lon="-5.724390">
        <ele>335.962</ele>
        <time>2020-02-28T11:51:13Z</time>
      </trkpt>
      <trkpt lat="40.012900" lon="-5.724400">
        <ele>336.471</ele>
        <time>2020-02-28T11:51:33Z</time>
      </trkpt>
      <trkpt lat="40.016120" lon="-5.725380">
        <ele>370.452</ele>
        <time>2020-02-28T11:51:53Z</time>
      </trkpt>
      <trkpt lat="40.016250" lon="-5.725410">
        <ele>370.729</ele>
        <time>2020-02-28T11:52:13Z</time>
      </trkpt>
      <trkpt lat="40.016260" lon="-5.725420">
        <ele>370.816</ele>
        <time>2020-02-28T11:52:33Z</time>
      </trkpt>
      <trkpt lat="40.017610" lon="-5.725800">
        <ele>379.476</ele>
        <time>2020-02-28T11:52:53Z</time>
      </trkpt>
      <trkpt lat="40.017660" lon="-5.725820">
        <ele>379.613</ele>
        <time>2020-02-28T11:53:13Z</time>
      </trkpt>
      <trkpt lat="40.017760" lon="-5.725840">
        <ele>379.908</ele>
        <time>2020-02-28T11:53:33Z</time>
      </trkpt>
      <trkpt lat="40.018610" lon="-5.726170">
        <ele>383.675</ele>
        <time>2020-02-28T11:53:53Z</time>
      </trkpt>
      <trkpt lat="40.019520" lon="-5.726630">
        <ele>386.218</ele>
        <time>2020-02-28T11:54:13Z</time>
      </trkpt>
      <trkpt lat="40.019640" lon="-5.726710">
        <ele>387.763</ele>
        <time>2020-02-28T11:54:33Z</time>
      </trkpt>
      <trkpt lat="40.019770" lon="-5.726770">
        <ele>388.934</ele>
        <time>2020-02-28T11:54:53Z</time>
      </trkpt>
      <trkpt lat="40.019880" lon="-5.726850">
        <ele>389.387</ele>
        <time>2020-02-28T11:55:13Z</time>
      </trkpt>
      <trkpt lat="40.020010" lon="-5.726910">
        <ele>390.086</ele>
        <time>2020-02-28T11:55:33Z</time>
      </trkpt>
      <trkpt lat="40.020020" lon="-5.726920">
        <ele>390.197</ele>
        <time>2020-02-28T11:55:53Z</time>
      </trkpt>
      <trkpt lat="40.020360" lon="-5.727140">
        <ele>391.414</ele>
        <time>2020-02-28T11:56:13Z</time>
      </trkpt>
      <trkpt lat="40.020480" lon="-5.727200">
        <ele>391.856</ele>
        <time>2020-02-28T11:56:33Z</time>
      </trkpt>
      <trkpt lat="40.024970" lon="-5.729970">
        <ele>396.859</ele>
        <time>2020-02-28T11:56:53Z</time>
      </trkpt>
      <trkpt lat="40.025380" lon="-5.730350">
        <ele>398.514</ele>
        <time>2020-02-28T11:57:13Z</time>
      </trkpt>
      <trkpt lat="40.025450" lon="-5.730450">
        <ele>399.008</ele>
        <time>2020-02-28T11:57:33Z</time>
      </trkpt>
      <trkpt lat="40.025570" lon="-5.730590">
        <ele>400.089</ele>
        <time>2020-02-28T11:57:53Z</time>
      </trkpt>
      <trkpt lat="40.025800" lon="-5.730940">
        <ele>400.042</ele>
        <time>2020-02-28T11:58:13Z</time>
      </trkpt>
      <trkpt lat="40.025810" lon="-5.730970">
        <ele>400.077</ele>
        <time>2020-02-28T11:58:33Z</time>
      </trkpt>
      <trkpt lat="40.025950" lon="-5.731110">
        <ele>400.468</ele>
        <time>2020-02-28T11:58:53Z</time>
      </trkpt>
      <trkpt lat="40.027340" lon="-5.733550">
        <ele>408.411</ele>
        <time>2020-02-28T11:59:13Z</time>
      </trkpt>
      <trkpt lat="40.027380" lon="-5.733700">
        <ele>408.470</ele>
        <time>2020-02-28T11:59:33Z</time>
      </trkpt>
      <trkpt lat="40.027380" lon="-5.733710">
        <ele>408.441</ele>
        <time>2020-02-28T11:59:53Z</time>
      </trkpt>
      <trkpt lat="40.027600" lon="-5.734010">
        <ele>408.918</ele>
        <time>2020-02-28T12:00:13Z</time>
      </trkpt>
      <trkpt lat="40.027830" lon="-5.734260">
        <ele>409.221</ele>
        <time>2020-02-28T12:00:33Z</time>
      </trkpt>
      <trkpt lat="40.027860" lon="-5.734280">
        <ele>409.341</ele>
        <time>2020-02-28T12:00:53Z</time>
      </trkpt>
      <trkpt lat="40.027980" lon="-5.734400">
        <ele>409.705</ele>
        <time>2020-02-28T12:01:13Z</time>
      </trkpt>
      <trkpt lat="40.028510" lon="-5.734730">
        <ele>410.308</ele>
        <time>2020-02-28T12:01:33Z</time>
      </trkpt>
      <trkpt lat="40.028670" lon="-5.734800">
        <ele>411.416</ele>
        <time>2020-02-28T12:01:53Z</time>
      </trkpt>
      <trkpt lat="40.029180" lon="-5.735070">
        <ele>416.159</ele>
        <time>2020-02-28T12:02:13Z</time>
      </trkpt>
      <trkpt lat="40.029600" lon="-5.735340">
        <ele>419.174</ele>
        <time>2020-02-28T12:02:33Z</time>
      </trkpt>
      <trkpt lat="40.029650" lon="-5.735360">
        <ele>419.525</ele>
        <time>2020-02-28T12:02:53Z</time>
      </trkpt>
      <trkpt lat="40.029870" lon="-5.735540">
        <ele>420.048</ele>
        <time>2020-02-28T12:03:13Z</time>
      </trkpt>
      <trkpt lat="40.030150" lon="-5.735840">
        <ele>420.067</ele>
        <time>2020-02-28T12:03:33Z</time>
      </trkpt>
      <trkpt lat="40.030410" lon="-5.736190">
        <ele>420.318</ele>
        <time>2020-02-28T12:03:53Z</time>
      </trkpt>
      <trkpt lat="40.030580" lon="-5.736490">
        <ele>420.245</ele>
        <time>2020-02-28T12:04:13Z</time>
      </trkpt>
      <trkpt lat="40.030620" lon="-5.736580">
        <ele>420.555</ele>
        <time>2020-02-28T12:04:33Z</time>
      </trkpt>
      <trkpt lat="40.030730" lon="-5.736910">
        <ele>420.707</ele>
        <time>2020-02-28T12:04:53Z</time>
      </trkpt>
      <trkpt lat="40.030750" lon="-5.736950">
        <ele>420.717</ele>
        <time>2020-02-28T12:05:13Z</time>
      </trkpt>
      <trkpt lat="40.030960" lon="-5.737740">
        <ele>421.408</ele>
        <time>2020-02-28T12:05:33Z</time>
      </trkpt>
      <trkpt lat="40.030980" lon="-5.737790">
        <ele>421.719</ele>
        <time>2020-02-28T12:05:53Z</time>
      </trkpt>
      <trkpt lat="40.031010" lon="-5.737930">
        <ele>423.832</ele>
        <time>2020-02-28T12:06:13Z</time>
      </trkpt>
      <trkpt lat="40.031010" lon="-5.737950">
        <ele>424.167</ele>
        <time>2020-02-28T12:06:33Z</time>
      </trkpt>
      <trkpt lat="40.031150" lon="-5.738460">
        <ele>431.238</ele>
        <time>2020-02-28T12:06:53Z</time>
      </trkpt>
      <trkpt lat="40.031150" lon="-5.738470">
        <ele>431.391</ele>
        <time>2020-02-28T12:07:13Z</time>
      </trkpt>
      <trkpt lat="40.031220" lon="-5.738660">
        <ele>433.250</ele>
        <time>2020-02-28T12:07:33Z</time>
      </trkpt>
      <trkpt lat="40.031230" lon="-5.738670">
        <ele>433.381</ele>
        <time>2020-02-28T12:07:53Z</time>
      </trkpt>
      <trkpt lat="40.031240" lon="-5.738720">
        <ele>433.918</ele>
        <time>2020-02-28T12:08:13Z</time>
      </trkpt>
      <trkpt lat="40.031340" lon="-5.738960">
        <ele>436.111</ele>
        <time>2020-02-28T12:08:33Z</time>
      </trkpt>
      <trkpt lat="40.031510" lon="-5.739270">
        <ele>437.621</ele>
        <time>2020-02-28T12:08:53Z</time>
      </trkpt>
      <trkpt lat="40.031520" lon="-5.739300">
        <ele>437.803</ele>
        <time>2020-02-28T12:09:13Z</time>
      </trkpt>
      <trkpt lat="40.032200" lon="-5.740330">
        <ele>445.808</ele>
        <time>2020-02-28T12:09:33Z</time>
      </trkpt>
      <trkpt lat="40.032820" lon="-5.741170">
        <ele>449.995</ele>
        <time>2020-02-28T12:09:53Z</time>
      </trkpt>
      <trkpt lat="40.033230" lon="-5.741660">
        <ele>455.618</ele>
        <time>2020-02-28T12:10:13Z</time>
      </trkpt>
      <trkpt lat="40.033350" lon="-5.741770">
        <ele>456.473</ele>
        <time>2020-02-28T12:10:33Z</time>
      </trkpt>
      <trkpt lat="40.034140" lon="-5.742310">
        <ele>459.324</ele>
        <time>2020-02-28T12:10:53Z</time>
      </trkpt>
      <trkpt lat="40.034220" lon="-5.742290">
        <ele>459.157</ele>
        <time>2020-02-28T12:11:13Z</time>
      </trkpt>
      <trkpt lat="40.034930" lon="-5.742720">
        <ele>458.826</ele>
        <time>2020-02-28T12:11:33Z</time>
      </trkpt>
      <trkpt lat="40.035360" lon="-5.743010">
        <ele>459.987</ele>
        <time>2020-02-28T12:11:53Z</time>
      </trkpt>
      <trkpt lat="40.035490" lon="-5.743080">
        <ele>460.144</ele>
        <time>2020-02-28T12:12:13Z</time>
      </trkpt>
      <trkpt lat="40.035770" lon="-5.743270">
        <ele>460.811</ele>
        <time>2020-02-28T12:12:33Z</time>
      </trkpt>
      <trkpt lat="40.036430" lon="-5.743640">
        <ele>461.421</ele>
        <time>2020-02-28T12:12:53Z</time>
      </trkpt>
      <trkpt lat="40.036510" lon="-5.743700">
        <ele>462.103</ele>
        <time>2020-02-28T12:13:13Z</time>
      </trkpt>
      <trkpt lat="40.036550" lon="-5.743720">
        <ele>462.308</ele>
        <time>2020-02-28T12:13:33Z</time>
      </trkpt>
      <trkpt lat="40.037440" lon="-5.744010">
        <ele>464.855</ele>
        <time>2020-02-28T12:13:53Z</time>
      </trkpt>
      <trkpt lat="40.037940" lon="-5.744130">
        <ele>465.928</ele>
        <time>2020-02-28T12:14:13Z</time>
      </trkpt>
      <trkpt lat="40.038670" lon="-5.744350">
        <ele>465.793</ele>
        <time>2020-02-28T12:14:33Z</time>
      </trkpt>
      <trkpt lat="40.040940" lon="-5.744880">
        <ele>473.494</ele>
        <time>2020-02-28T12:14:53Z</time>
      </trkpt>
      <trkpt lat="40.040960" lon="-5.744890">
        <ele>473.577</ele>
        <time>2020-02-28T12:15:13Z</time>
      </trkpt>
      <trkpt lat="40.042570" lon="-5.745290">
        <ele>477.516</ele>
        <time>2020-02-28T12:15:33Z</time>
      </trkpt>
      <trkpt lat="40.042850" lon="-5.745300">
        <ele>479.237</ele>
        <time>2020-02-28T12:15:53Z</time>
      </trkpt>
      <trkpt lat="40.043030" lon="-5.745280">
        <ele>479.974</ele>
        <time>2020-02-28T12:16:13Z</time>
      </trkpt>
      <trkpt lat="40.043220" lon="-5.745240">
        <ele>480.028</ele>
        <time>2020-02-28T12:16:33Z</time>
      </trkpt>
      <trkpt lat="40.043520" lon="-5.745150">
        <ele>480.089</ele>
        <time>2020-02-28T12:16:53Z</time>
      </trkpt>
      <trkpt lat="40.043690" lon="-5.745070">
        <ele>480.017</ele>
        <time>2020-02-28T12:17:13Z</time>
      </trkpt>
      <trkpt lat="40.044600" lon="-5.744530">
        <ele>480.008</ele>
        <time>2020-02-28T12:17:33Z</time>
      </trkpt>
      <trkpt lat="40.045120" lon="-5.744260">
        <ele>480.066</ele>
        <time>2020-02-28T12:17:53Z</time>
      </trkpt>
      <trkpt lat="40.045460" lon="-5.744150">
        <ele>480.069</ele>
        <time>2020-02-28T12:18:13Z</time>
      </trkpt>
      <trkpt lat="40.046940" lon="-5.743890">
        <ele>487.094</ele>
        <time>2020-02-28T12:18:33Z</time>
      </trkpt>
      <trkpt lat="40.049700" lon="-5.743510">
        <ele>490.075</ele>
        <time>2020-02-28T12:18:53Z</time>
      </trkpt>
      <trkpt lat="40.050090" lon="-5.743520">
        <ele>491.358</ele>
        <time>2020-02-28T12:19:13Z</time>
      </trkpt>
      <trkpt lat="40.050130" lon="-5.743500">
        <ele>491.517</ele>
        <time>2020-02-28T12:19:33Z</time>
      </trkpt>
      <trkpt lat="40.050150" lon="-5.743480">
        <ele>491.598</ele>
        <time>2020-02-28T12:19:53Z</time>
      </trkpt>
      <trkpt lat="40.050350" lon="-5.743530">
        <ele>492.225</ele>
        <time>2020-02-28T12:20:13Z</time>
      </trkpt>
      <trkpt lat="40.050550" lon="-5.743610">
        <ele>493.045</ele>
        <time>2020-02-28T12:20:33Z</time>
      </trkpt>
      <trkpt lat="40.050780" lon="-5.743740">
        <ele>493.547</ele>
        <time>2020-02-28T12:20:53Z</time>
      </trkpt>
      <trkpt lat="40.050900" lon="-5.743830">
        <ele>493.811</ele>
        <time>2020-02-28T12:21:13Z</time>
      </trkpt>
      <trkpt lat="40.050960" lon="-5.743910">
        <ele>494.008</ele>
        <time>2020-02-28T12:21:33Z</time>
      </trkpt>
      <trkpt lat="40.051160" lon="-5.744130">
        <ele>494.048</ele>
        <time>2020-02-28T12:21:53Z</time>
      </trkpt>
      <trkpt lat="40.052150" lon="-5.745370">
        <ele>496.961</ele>
        <time>2020-02-28T12:22:13Z</time>
      </trkpt>
      <trkpt lat="40.052180" lon="-5.745440">
        <ele>496.956</ele>
        <time>2020-02-28T12:22:33Z</time>
      </trkpt>
      <trkpt lat="40.052340" lon="-5.745630">
        <ele>495.367</ele>
        <time>2020-02-28T12:22:53Z</time>
      </trkpt>
      <trkpt lat="40.053190" lon="-5.746530">
        <ele>499.730</ele>
        <time>2020-02-28T12:23:13Z</time>
      </trkpt>
      <trkpt lat="40.053560" lon="-5.746840">
        <ele>501.389</ele>
        <time>2020-02-28T12:23:33Z</time>
      </trkpt>
      <trkpt lat="40.053790" lon="-5.746960">
        <ele>505.290</ele>
        <time>2020-02-28T12:23:53Z</time>
      </trkpt>
      <trkpt lat="40.053940" lon="-5.747010">
        <ele>507.197</ele>
        <time>2020-02-28T12:24:13Z</time>
      </trkpt>
      <trkpt lat="40.054120" lon="-5.747090">
        <ele>508.181</ele>
        <time>2020-02-28T12:24:33Z</time>
      </trkpt>
      <trkpt lat="40.054370" lon="-5.747160">
        <ele>510.461</ele>
        <time>2020-02-28T12:24:53Z</time>
      </trkpt>
      <trkpt lat="40.054460" lon="-5.747170">
        <ele>511.217</ele>
        <time>2020-02-28T12:25:13Z</time>
      </trkpt>
      <trkpt lat="40.054710" lon="-5.747170">
        <ele>512.108</ele>
        <time>2020-02-28T12:25:33Z</time>
      </trkpt>
      <trkpt lat="40.055650" lon="-5.747250">
        <ele>516.272</ele>
        <time>2020-02-28T12:25:53Z</time>
      </trkpt>
      <trkpt lat="40.056970" lon="-5.747480">
        <ele>522.275</ele>
        <time>2020-02-28T12:26:13Z</time>
      </trkpt>
      <trkpt lat="40.057210" lon="-5.747490">
        <ele>523.930</ele>
        <time>2020-02-28T12:26:33Z</time>
      </trkpt>
      <trkpt lat="40.057250" lon="-5.747480">
        <ele>524.171</ele>
        <time>2020-02-28T12:26:53Z</time>
      </trkpt>
      <trkpt lat="40.057440" lon="-5.747630">
        <ele>524.874</ele>
        <time>2020-02-28T12:27:13Z</time>
      </trkpt>
      <trkpt lat="40.057600" lon="-5.747800">
        <ele>525.353</ele>
        <time>2020-02-28T12:27:33Z</time>
      </trkpt>
      <trkpt lat="40.057730" lon="-5.747990">
        <ele>525.784</ele>
        <time>2020-02-28T12:27:53Z</time>
      </trkpt>
      <trkpt lat="40.057840" lon="-5.748190">
        <ele>525.821</ele>
        <time>2020-02-28T12:28:13Z</time>
      </trkpt>
      <trkpt lat="40.057900" lon="-5.748330">
        <ele>525.932</ele>
        <time>2020-02-28T12:28:33Z</time>
      </trkpt>
      <trkpt lat="40.058090" lon="-5.748660">
        <ele>526.292</ele>
        <time>2020-02-28T12:28:53Z</time>
      </trkpt>
      <trkpt lat="40.058380" lon="-5.749030">
        <ele>527.811</ele>
        <time>2020-02-28T12:29:13Z</time>
      </trkpt>
      <trkpt lat="40.058860" lon="-5.749560">
        <ele>531.808</ele>
        <time>2020-02-28T12:29:33Z</time>
      </trkpt>
      <trkpt lat="40.059100" lon="-5.749760">
        <ele>534.377</ele>
        <time>2020-02-28T12:29:53Z</time>
      </trkpt>
      <trkpt lat="40.059180" lon="-5.749840">
        <ele>535.190</ele>
        <time>2020-02-28T12:30:13Z</time>
      </trkpt>
      <trkpt lat="40.059220" lon="-5.749910">
        <ele>535.455</ele>
        <time>2020-02-28T12:30:33Z</time>
      </trkpt>
      <trkpt lat="40.060290" lon="-5.751470">
        <ele>541.146</ele>
        <time>2020-02-28T12:30:53Z</time>
      </trkpt>
      <trkpt lat="40.060370" lon="-5.751820">
        <ele>542.259</ele>
        <time>2020-02-28T12:31:13Z</time>
      </trkpt>
      <trkpt lat="40.060480" lon="-5.752050">
        <ele>543.728</ele>
        <time>2020-02-28T12:31:33Z</time>
      </trkpt>
      <trkpt lat="40.060540" lon="-5.751860">
        <ele>543.699</ele>
        <time>2020-02-28T12:31:53Z</time>
      </trkpt>
      <trkpt lat="40.060550" lon="-5.751840">
        <ele>543.616</ele>
        <time>2020-02-28T12:32:13Z</time>
      </trkpt>
      <trkpt lat="40.060560" lon="-5.751830">
        <ele>543.614</ele>
        <time>2020-02-28T12:32:33Z</time>
      </trkpt>
      <trkpt lat="40.060590" lon="-5.751760">
        <ele>543.654</ele>
        <time>2020-02-28T12:32:53Z</time>
      </trkpt>
      <trkpt lat="40.060660" lon="-5.751690">
        <ele>543.809</ele>
        <time>2020-02-28T12:33:13Z</time>
      </trkpt>
      <trkpt lat="40.060670" lon="-5.751670">
        <ele>543.808</ele>
        <time>2020-02-28T12:33:33Z</time>
      </trkpt>
      <trkpt lat="40.060740" lon="-5.751630">
        <ele>544.365</ele>
        <time>2020-02-28T12:33:53Z</time>
      </trkpt>
      <trkpt lat="40.060840" lon="-5.751590">
        <ele>545.098</ele>
        <time>2020-02-28T12:34:13Z</time>
      </trkpt>
      <trkpt lat="40.061110" lon="-5.751630">
        <ele>547.063</ele>
        <time>2020-02-28T12:34:33Z</time>
      </trkpt>
      <trkpt lat="40.061410" lon="-5.751640">
        <ele>549.824</ele>
        <time>2020-02-28T12:34:53Z</time>
      </trkpt>
      <trkpt lat="40.061930" lon="-5.751700">
        <ele>551.117</ele>
        <time>2020-02-28T12:35:13Z</time>
      </trkpt>
      <trkpt lat="40.062000" lon="-5.751720">
        <ele>551.246</ele>
        <time>2020-02-28T12:35:33Z</time>
      </trkpt>
      <trkpt lat="40.062060" lon="-5.751750">
        <ele>551.387</ele>
        <time>2020-02-28T12:35:53Z</time>
      </trkpt>
      <trkpt lat="40.062190" lon="-5.751890">
        <ele>551.844</ele>
        <time>2020-02-28T12:36:13Z</time>
      </trkpt>
      <trkpt lat="40.062230" lon="-5.751950">
        <ele>552.014</ele>
        <time>2020-02-28T12:36:33Z</time>
      </trkpt>
      <trkpt lat="40.062470" lon="-5.752400">
        <ele>552.054</ele>
        <time>2020-02-28T12:36:53Z</time>
      </trkpt>
      <trkpt lat="40.062540" lon="-5.752510">
        <ele>551.109</ele>
        <time>2020-02-28T12:37:13Z</time>
      </trkpt>
      <trkpt lat="40.062990" lon="-5.753380">
        <ele>548.508</ele>
        <time>2020-02-28T12:37:33Z</time>
      </trkpt>
      <trkpt lat="40.063100" lon="-5.753640">
        <ele>548.415</ele>
        <time>2020-02-28T12:37:53Z</time>
      </trkpt>
      <trkpt lat="40.063400" lon="-5.754220">
        <ele>546.578</ele>
        <time>2020-02-28T12:38:13Z</time>
      </trkpt>
      <trkpt lat="40.063430" lon="-5.754300">
        <ele>546.363</ele>
        <time>2020-02-28T12:38:33Z</time>
      </trkpt>
      <trkpt lat="40.063490" lon="-5.754420">
        <ele>545.864</ele>
        <time>2020-02-28T12:38:53Z</time>
      </trkpt>
      <trkpt lat="40.063510" lon="-5.754440">
        <ele>545.587</ele>
        <time>2020-02-28T12:39:13Z</time>
      </trkpt>
      <trkpt lat="40.063620" lon="-5.754620">
        <ele>544.776</ele>
        <time>2020-02-28T12:39:33Z</time>
      </trkpt>
      <trkpt lat="40.063860" lon="-5.754910">
        <ele>539.667</ele>
        <time>2020-02-28T12:39:53Z</time>
      </trkpt>
      <trkpt lat="40.063970" lon="-5.754990">
        <ele>538.114</ele>
        <time>2020-02-28T12:40:13Z</time>
      </trkpt>
      <trkpt lat="40.064060" lon="-5.755040">
        <ele>537.423</ele>
        <time>2020-02-28T12:40:33Z</time>
      </trkpt>
      <trkpt lat="40.064160" lon="-5.755080">
        <ele>536.683</ele>
        <time>2020-02-28T12:40:53Z</time>
      </trkpt>
      <trkpt lat="40.064250" lon="-5.755090">
        <ele>535.411</ele>
        <time>2020-02-28T12:41:13Z</time>
      </trkpt>
      <trkpt lat="40.064380" lon="-5.755090">
        <ele>533.608</ele>
        <time>2020-02-28T12:41:33Z</time>
      </trkpt>
      <trkpt lat="40.064470" lon="-5.755080">
        <ele>532.766</ele>
        <time>2020-02-28T12:41:53Z</time>
      </trkpt>
      <trkpt lat="40.064540" lon="-5.755060">
        <ele>532.859</ele>
        <time>2020-02-28T12:42:13Z</time>
      </trkpt>
      <trkpt lat="40.064670" lon="-5.754960">
        <ele>532.674</ele>
        <time>2020-02-28T12:42:33Z</time>
      </trkpt>
      <trkpt lat="40.064820" lon="-5.754800">
        <ele>533.375</ele>
        <time>2020-02-28T12:42:53Z</time>
      </trkpt>
      <trkpt lat="40.064960" lon="-5.754500">
        <ele>533.158</ele>
        <time>2020-02-28T12:43:13Z</time>
      </trkpt>
      <trkpt lat="40.065030" lon="-5.754210">
        <ele>532.187</ele>
        <time>2020-02-28T12:43:33Z</time>
      </trkpt>
      <trkpt lat="40.065060" lon="-5.754010">
        <ele>531.388</ele>
        <time>2020-02-28T12:43:53Z</time>
      </trkpt>
      <trkpt lat="40.065180" lon="-5.753500">
        <ele>529.225</ele>
        <time>2020-02-28T12:44:13Z</time>
      </trkpt>
      <trkpt lat="40.065250" lon="-5.753330">
        <ele>528.652</ele>
        <time>2020-02-28T12:44:33Z</time>
      </trkpt>
      <trkpt lat="40.065330" lon="-5.753200">
        <ele>528.253</ele>
        <time>2020-02-28T12:44:53Z</time>
      </trkpt>
      <trkpt lat="40.065400" lon="-5.753110">
        <ele>528.008</ele>
        <time>2020-02-28T12:45:13Z</time>
      </trkpt>
      <trkpt lat="40.065610" lon="-5.752930">
        <ele>527.508</ele>
        <time>2020-02-28T12:45:33Z</time>
      </trkpt>
      <trkpt lat="40.065730" lon="-5.752860">
        <ele>526.799</ele>
        <time>2020-02-28T12:45:53Z</time>
      </trkpt>
      <trkpt lat="40.065860" lon="-5.752800">
        <ele>526.082</ele>
        <time>2020-02-28T12:46:13Z</time>
      </trkpt>
      <trkpt lat="40.066170" lon="-5.752740">
        <ele>523.127</ele>
        <time>2020-02-28T12:46:33Z</time>
      </trkpt>
      <trkpt lat="40.066330" lon="-5.752750">
        <ele>521.578</ele>
        <time>2020-02-28T12:46:53Z</time>
      </trkpt>
      <trkpt lat="40.066580" lon="-5.752800">
        <ele>520.491</ele>
        <time>2020-02-28T12:47:13Z</time>
      </trkpt>
      <trkpt lat="40.066670" lon="-5.752830">
        <ele>520.240</ele>
        <time>2020-02-28T12:47:33Z</time>
      </trkpt>
      <trkpt lat="40.066860" lon="-5.752920">
        <ele>519.131</ele>
        <time>2020-02-28T12:47:53Z</time>
      </trkpt>
      <trkpt lat="40.067220" lon="-5.753160">
        <ele>517.888</ele>
        <time>2020-02-28T12:48:13Z</time>
      </trkpt>
      <trkpt lat="40.067250" lon="-5.753190">
        <ele>517.672</ele>
        <time>2020-02-28T12:48:33Z</time>
      </trkpt>
      <trkpt lat="40.067280" lon="-5.753210">
        <ele>517.313</ele>
        <time>2020-02-28T12:48:53Z</time>
      </trkpt>
      <trkpt lat="40.067620" lon="-5.753570">
        <ele>514.914</ele>
        <time>2020-02-28T12:49:13Z</time>
      </trkpt>
      <trkpt lat="40.067700" lon="-5.753630">
        <ele>514.308</ele>
        <time>2020-02-28T12:49:33Z</time>
      </trkpt>
      <trkpt lat="40.067830" lon="-5.753710">
        <ele>513.431</ele>
        <time>2020-02-28T12:49:53Z</time>
      </trkpt>
      <trkpt lat="40.067930" lon="-5.753740">
        <ele>512.584</ele>
        <time>2020-02-28T12:50:13Z</time>
      </trkpt>
      <trkpt lat="40.067950" lon="-5.753750">
        <ele>512.339</ele>
        <time>2020-02-28T12:50:33Z</time>
      </trkpt>
      <trkpt lat="40.068060" lon="-5.753770">
        <ele>511.110</ele>
        <time>2020-02-28T12:50:53Z</time>
      </trkpt>
      <trkpt lat="40.068250" lon="-5.753740">
        <ele>510.363</ele>
        <time>2020-02-28T12:51:13Z</time>
      </trkpt>
      <trkpt lat="40.068320" lon="-5.753700">
        <ele>510.012</ele>
        <time>2020-02-28T12:51:33Z</time>
      </trkpt>
      <trkpt lat="40.068520" lon="-5.753530">
        <ele>509.023</ele>
        <time>2020-02-28T12:51:53Z</time>
      </trkpt>
      <trkpt lat="40.068650" lon="-5.753330">
        <ele>508.310</ele>
        <time>2020-02-28T12:52:13Z</time>
      </trkpt>
      <trkpt lat="40.068800" lon="-5.753430">
        <ele>509.768</ele>
        <time>2020-02-28T12:52:33Z</time>
      </trkpt>
      <trkpt lat="40.068840" lon="-5.753450">
        <ele>510.142</ele>
        <time>2020-02-28T12:52:53Z</time>
      </trkpt>
      <trkpt lat="40.069360" lon="-5.753800">
        <ele>516.326</ele>
        <time>2020-02-28T12:53:13Z</time>
      </trkpt>
      <trkpt lat="40.069640" lon="-5.753910">
        <ele>518.508</ele>
        <time>2020-02-28T12:53:33Z</time>
      </trkpt>
      <trkpt lat="40.069830" lon="-5.753960">
        <ele>519.460</ele>
        <time>2020-02-28T12:53:53Z</time>
      </trkpt>
      <trkpt lat="40.070000" lon="-5.753980">
        <ele>519.733</ele>
        <time>2020-02-28T12:54:13Z</time>
      </trkpt>
      <trkpt lat="40.070050" lon="-5.753970">
        <ele>519.928</ele>
        <time>2020-02-28T12:54:33Z</time>
      </trkpt>
      <trkpt lat="40.070100" lon="-5.753970">
        <ele>520.359</ele>
        <time>2020-02-28T12:54:53Z</time>
      </trkpt>
      <trkpt lat="40.070210" lon="-5.753950">
        <ele>521.012</ele>
        <time>2020-02-28T12:55:13Z</time>
      </trkpt>
      <trkpt lat="40.070250" lon="-5.753950">
        <ele>521.221</ele>
        <time>2020-02-28T12:55:33Z</time>
      </trkpt>
      <trkpt lat="40.070440" lon="-5.753870">
        <ele>522.762</ele>
        <time>2020-02-28T12:55:53Z</time>
      </trkpt>
      <trkpt lat="40.070550" lon="-5.753810">
        <ele>523.719</ele>
        <time>2020-02-28T12:56:13Z</time>
      </trkpt>
      <trkpt lat="40.071390" lon="-5.753270">
        <ele>529.675</ele>
        <time>2020-02-28T12:56:33Z</time>
      </trkpt>
      <trkpt lat="40.071580" lon="-5.753170">
        <ele>530.928</ele>
        <time>2020-02-28T12:56:53Z</time>
      </trkpt>
      <trkpt lat="40.071740" lon="-5.753070">
        <ele>531.920</ele>
        <time>2020-02-28T12:57:13Z</time>
      </trkpt>
      <trkpt lat="40.072060" lon="-5.752900">
        <ele>534.108</ele>
        <time>2020-02-28T12:57:33Z</time>
      </trkpt>
      <trkpt lat="40.072070" lon="-5.752890">
        <ele>534.231</ele>
        <time>2020-02-28T12:57:53Z</time>
      </trkpt>
      <trkpt lat="40.072350" lon="-5.752730">
        <ele>535.714</ele>
        <time>2020-02-28T12:58:13Z</time>
      </trkpt>
      <trkpt lat="40.072480" lon="-5.752680">
        <ele>536.519</ele>
        <time>2020-02-28T12:58:33Z</time>
      </trkpt>
      <trkpt lat="40.072550" lon="-5.752680">
        <ele>536.930</ele>
        <time>2020-02-28T12:58:53Z</time>
      </trkpt>
      <trkpt lat="40.072580" lon="-5.752690">
        <ele>537.273</ele>
        <time>2020-02-28T12:59:13Z</time>
      </trkpt>
      <trkpt lat="40.072720" lon="-5.752660">
        <ele>537.832</ele>
        <time>2020-02-28T12:59:33Z</time>
      </trkpt>
      <trkpt lat="40.072750" lon="-5.752660">
        <ele>538.073</ele>
        <time>2020-02-28T12:59:53Z</time>
      </trkpt>
      <trkpt lat="40.072790" lon="-5.752670">
        <ele>538.310</ele>
        <time>2020-02-28T13:00:13Z</time>
      </trkpt>
      <trkpt lat="40.072820" lon="-5.752670">
        <ele>538.466</ele>
        <time>2020-02-28T13:00:33Z</time>
      </trkpt>
      <trkpt lat="40.072870" lon="-5.752680">
        <ele>538.729</ele>
        <time>2020-02-28T13:00:53Z</time>
      </trkpt>
      <trkpt lat="40.072900" lon="-5.752680">
        <ele>538.921</ele>
        <time>2020-02-28T13:01:13Z</time>
      </trkpt>
      <trkpt lat="40.072940" lon="-5.752700">
        <ele>539.208</ele>
        <time>2020-02-28T13:01:33Z</time>
      </trkpt>
      <trkpt lat="40.073230" lon="-5.752930">
        <ele>540.450</ele>
        <time>2020-02-28T13:01:53Z</time>
      </trkpt>
      <trkpt lat="40.073240" lon="-5.752950">
        <ele>540.413</ele>
        <time>2020-02-28T13:02:13Z</time>
      </trkpt>
      <trkpt lat="40.073590" lon="-5.753310">
        <ele>540.998</ele>
        <time>2020-02-28T13:02:33Z</time>
      </trkpt>
      <trkpt lat="40.073730" lon="-5.753430">
        <ele>541.649</ele>
        <time>2020-02-28T13:02:53Z</time>
      </trkpt>
      <trkpt lat="40.073830" lon="-5.753500">
        <ele>542.052</ele>
        <time>2020-02-28T13:03:13Z</time>
      </trkpt>
      <trkpt lat="40.074000" lon="-5.753570">
        <ele>541.941</ele>
        <time>2020-02-28T13:03:33Z</time>
      </trkpt>
      <trkpt lat="40.074090" lon="-5.753590">
        <ele>541.442</ele>
        <time>2020-02-28T13:03:53Z</time>
      </trkpt>
      <trkpt lat="40.074180" lon="-5.753590">
        <ele>540.949</ele>
        <time>2020-02-28T13:04:13Z</time>
      </trkpt>
      <trkpt lat="40.074830" lon="-5.753510">
        <ele>539.273</ele>
        <time>2020-02-28T13:04:33Z</time>
      </trkpt>
      <trkpt lat="40.075100" lon="-5.753510">
        <ele>538.585</ele>
        <time>2020-02-28T13:04:53Z</time>
      </trkpt>
      <trkpt lat="40.075770" lon="-5.753470">
        <ele>534.913</ele>
        <time>2020-02-28T13:05:13Z</time>
      </trkpt>
      <trkpt lat="40.075960" lon="-5.753520">
        <ele>533.108</ele>
        <time>2020-02-28T13:05:33Z</time>
      </trkpt>
      <trkpt lat="40.075990" lon="-5.753540">
        <ele>532.911</ele>
        <time>2020-02-28T13:05:53Z</time>
      </trkpt>
      <trkpt lat="40.076000" lon="-5.753540">
        <ele>532.874</ele>
        <time>2020-02-28T13:06:13Z</time>
      </trkpt>
      <trkpt lat="40.076040" lon="-5.753570">
        <ele>532.669</ele>
        <time>2020-02-28T13:06:33Z</time>
      </trkpt>
      <trkpt lat="40.076130" lon="-5.753620">
        <ele>531.830</ele>
        <time>2020-02-28T13:06:53Z</time>
      </trkpt>
      <trkpt lat="40.076240" lon="-5.753720">
        <ele>530.853</ele>
        <time>2020-02-28T13:07:13Z</time>
      </trkpt>
      <trkpt lat="40.076270" lon="-5.753770">
        <ele>530.562</ele>
        <time>2020-02-28T13:07:33Z</time>
      </trkpt>
      <trkpt lat="40.076310" lon="-5.753810">
        <ele>530.143</ele>
        <time>2020-02-28T13:07:53Z</time>
      </trkpt>
      <trkpt lat="40.076360" lon="-5.753890">
        <ele>529.450</ele>
        <time>2020-02-28T13:08:13Z</time>
      </trkpt>
      <trkpt lat="40.076390" lon="-5.753980">
        <ele>529.024</ele>
        <time>2020-02-28T13:08:33Z</time>
      </trkpt>
      <trkpt lat="40.076440" lon="-5.754090">
        <ele>528.504</ele>
        <time>2020-02-28T13:08:53Z</time>
      </trkpt>
      <trkpt lat="40.076740" lon="-5.755310">
        <ele>518.714</ele>
        <time>2020-02-28T13:09:13Z</time>
      </trkpt>
      <trkpt lat="40.076980" lon="-5.756120">
        <ele>518.408</ele>
        <time>2020-02-28T13:09:33Z</time>
      </trkpt>
      <trkpt lat="40.077330" lon="-5.757150">
        <ele>508.216</ele>
        <time>2020-02-28T13:09:53Z</time>
      </trkpt>
      <trkpt lat="40.077380" lon="-5.757440">
        <ele>506.899</ele>
        <time>2020-02-28T13:10:13Z</time>
      </trkpt>
      <trkpt lat="40.077380" lon="-5.757680">
        <ele>505.944</ele>
        <time>2020-02-28T13:10:33Z</time>
      </trkpt>
      <trkpt lat="40.077230" lon="-5.758630">
        <ele>499.865</ele>
        <time>2020-02-28T13:10:53Z</time>
      </trkpt>
      <trkpt lat="40.077220" lon="-5.758660">
        <ele>499.798</ele>
        <time>2020-02-28T13:11:13Z</time>
      </trkpt>
      <trkpt lat="40.077210" lon="-5.758780">
        <ele>498.997</ele>
        <time>2020-02-28T13:11:33Z</time>
      </trkpt>
      <trkpt lat="40.077210" lon="-5.758960">
        <ele>497.658</ele>
        <time>2020-02-28T13:11:53Z</time>
      </trkpt>
      <trkpt lat="40.077250" lon="-5.759200">
        <ele>495.785</ele>
        <time>2020-02-28T13:12:13Z</time>
      </trkpt>
      <trkpt lat="40.077260" lon="-5.759220">
        <ele>495.559</ele>
        <time>2020-02-28T13:12:33Z</time>
      </trkpt>
      <trkpt lat="40.077290" lon="-5.759350">
        <ele>494.703</ele>
        <time>2020-02-28T13:12:53Z</time>
      </trkpt>
      <trkpt lat="40.077330" lon="-5.759430">
        <ele>493.923</ele>
        <time>2020-02-28T13:13:13Z</time>
      </trkpt>
      <trkpt lat="40.077330" lon="-5.759440">
        <ele>493.908</ele>
        <time>2020-02-28T13:13:33Z</time>
      </trkpt>
      <trkpt lat="40.077490" lon="-5.759840">
        <ele>490.629</ele>
        <time>2020-02-28T13:13:53Z</time>
      </trkpt>
      <trkpt lat="40.077490" lon="-5.759860">
        <ele>490.782</ele>
        <time>2020-02-28T13:14:13Z</time>
      </trkpt>
      <trkpt lat="40.077830" lon="-5.760530">
        <ele>487.667</ele>
        <time>2020-02-28T13:14:33Z</time>
      </trkpt>
      <trkpt lat="40.077960" lon="-5.760690">
        <ele>487.238</ele>
        <time>2020-02-28T13:14:53Z</time>
      </trkpt>
      <trkpt lat="40.078170" lon="-5.760810">
        <ele>486.941</ele>
        <time>2020-02-28T13:15:13Z</time>
      </trkpt>
      <trkpt lat="40.078330" lon="-5.760860">
        <ele>487.290</ele>
        <time>2020-02-28T13:15:33Z</time>
      </trkpt>
      <trkpt lat="40.078420" lon="-5.760870">
        <ele>487.611</ele>
        <time>2020-02-28T13:15:53Z</time>
      </trkpt>
      <trkpt lat="40.079390" lon="-5.760830">
        <ele>489.298</ele>
        <time>2020-02-28T13:16:13Z</time>
      </trkpt>
      <trkpt lat="40.079540" lon="-5.760840">
        <ele>488.067</ele>
        <time>2020-02-28T13:16:33Z</time>
      </trkpt>
      <trkpt lat="40.079640" lon="-5.760810">
        <ele>486.881</ele>
        <time>2020-02-28T13:16:53Z</time>
      </trkpt>
      <trkpt lat="40.079680" lon="-5.760810">
        <ele>486.419</ele>
        <time>2020-02-28T13:17:13Z</time>
      </trkpt>
      <trkpt lat="40.079770" lon="-5.760860">
        <ele>485.508</ele>
        <time>2020-02-28T13:17:33Z</time>
      </trkpt>
      <trkpt lat="40.079880" lon="-5.760970">
        <ele>484.380</ele>
        <time>2020-02-28T13:17:53Z</time>
      </trkpt>
      <trkpt lat="40.079990" lon="-5.761110">
        <ele>483.173</ele>
        <time>2020-02-28T13:18:13Z</time>
      </trkpt>
      <trkpt lat="40.079990" lon="-5.761120">
        <ele>483.218</ele>
        <time>2020-02-28T13:18:33Z</time>
      </trkpt>
      <trkpt lat="40.080240" lon="-5.761520">
        <ele>485.359</ele>
        <time>2020-02-28T13:18:53Z</time>
      </trkpt>
      <trkpt lat="40.080390" lon="-5.761670">
        <ele>484.232</ele>
        <time>2020-02-28T13:19:13Z</time>
      </trkpt>
      <trkpt lat="40.080500" lon="-5.761750">
        <ele>481.651</ele>
        <time>2020-02-28T13:19:33Z</time>
      </trkpt>
      <trkpt lat="40.080710" lon="-5.761820">
        <ele>479.282</ele>
        <time>2020-02-28T13:19:53Z</time>
      </trkpt>
      <trkpt lat="40.080820" lon="-5.761820">
        <ele>478.679</ele>
        <time>2020-02-28T13:20:13Z</time>
      </trkpt>
      <trkpt lat="40.080900" lon="-5.761810">
        <ele>480.051</ele>
        <time>2020-02-28T13:20:33Z</time>
      </trkpt>
      <trkpt lat="40.080980" lon="-5.761790">
        <ele>481.601</ele>
        <time>2020-02-28T13:20:53Z</time>
      </trkpt>
      <trkpt lat="40.081140" lon="-5.761700">
        <ele>484.511</ele>
        <time>2020-02-28T13:21:13Z</time>
      </trkpt>
      <trkpt lat="40.081220" lon="-5.761640">
        <ele>485.208</ele>
        <time>2020-02-28T13:21:33Z</time>
      </trkpt>
      <trkpt lat="40.081610" lon="-5.761210">
        <ele>485.399</ele>
        <time>2020-02-28T13:21:53Z</time>
      </trkpt>
      <trkpt lat="40.081850" lon="-5.761000">
        <ele>486.422</ele>
        <time>2020-02-28T13:22:13Z</time>
      </trkpt>
      <trkpt lat="40.082030" lon="-5.760890">
        <ele>487.557</ele>
        <time>2020-02-28T13:22:33Z</time>
      </trkpt>
      <trkpt lat="40.082260" lon="-5.760800">
        <ele>488.858</ele>
        <time>2020-02-28T13:22:53Z</time>
      </trkpt>
      <trkpt lat="40.082370" lon="-5.760780">
        <ele>489.871</ele>
        <time>2020-02-28T13:23:13Z</time>
      </trkpt>
      <trkpt lat="40.082380" lon="-5.760770">
        <ele>489.820</ele>
        <time>2020-02-28T13:23:33Z</time>
      </trkpt>
      <trkpt lat="40.082530" lon="-5.760750">
        <ele>491.631</ele>
        <time>2020-02-28T13:23:53Z</time>
      </trkpt>
      <trkpt lat="40.082770" lon="-5.760760">
        <ele>495.478</ele>
        <time>2020-02-28T13:24:13Z</time>
      </trkpt>
      <trkpt lat="40.082860" lon="-5.760780">
        <ele>495.746</ele>
        <time>2020-02-28T13:24:33Z</time>
      </trkpt>
      <trkpt lat="40.083110" lon="-5.760860">
        <ele>496.088</ele>
        <time>2020-02-28T13:24:53Z</time>
      </trkpt>
      <trkpt lat="40.083300" lon="-5.760960">
        <ele>496.016</ele>
        <time>2020-02-28T13:25:13Z</time>
      </trkpt>
      <trkpt lat="40.083360" lon="-5.760980">
        <ele>495.908</ele>
        <time>2020-02-28T13:25:33Z</time>
      </trkpt>
      <trkpt lat="40.083910" lon="-5.761280">
        <ele>496.548</ele>
        <time>2020-02-28T13:25:53Z</time>
      </trkpt>
      <trkpt lat="40.083990" lon="-5.761310">
        <ele>497.261</ele>
        <time>2020-02-28T13:26:13Z</time>
      </trkpt>
      <trkpt lat="40.085180" lon="-5.761300">
        <ele>500.456</ele>
        <time>2020-02-28T13:26:33Z</time>
      </trkpt>
      <trkpt lat="40.085330" lon="-5.761340">
        <ele>500.587</ele>
        <time>2020-02-28T13:26:53Z</time>
      </trkpt>
      <trkpt lat="40.085480" lon="-5.761420">
        <ele>500.790</ele>
        <time>2020-02-28T13:27:13Z</time>
      </trkpt>
      <trkpt lat="40.085620" lon="-5.761520">
        <ele>501.599</ele>
        <time>2020-02-28T13:27:33Z</time>
      </trkpt>
      <trkpt lat="40.085690" lon="-5.761590">
        <ele>502.150</ele>
        <time>2020-02-28T13:27:53Z</time>
      </trkpt>
      <trkpt lat="40.085790" lon="-5.761720">
        <ele>503.157</ele>
        <time>2020-02-28T13:28:13Z</time>
      </trkpt>
      <trkpt lat="40.086220" lon="-5.762200">
        <ele>506.924</ele>
        <time>2020-02-28T13:28:33Z</time>
      </trkpt>
      <trkpt lat="40.086240" lon="-5.762230">
        <ele>507.204</ele>
        <time>2020-02-28T13:28:53Z</time>
      </trkpt>
      <trkpt lat="40.086270" lon="-5.762260">
        <ele>507.514</ele>
        <time>2020-02-28T13:29:13Z</time>
      </trkpt>
      <trkpt lat="40.086290" lon="-5.762290">
        <ele>507.908</ele>
        <time>2020-02-28T13:29:33Z</time>
      </trkpt>
      <trkpt lat="40.086380" lon="-5.762380">
        <ele>508.936</ele>
        <time>2020-02-28T13:29:53Z</time>
      </trkpt>
      <trkpt lat="40.086420" lon="-5.762410">
        <ele>509.119</ele>
        <time>2020-02-28T13:30:13Z</time>
      </trkpt>
      <trkpt lat="40.086440" lon="-5.762440">
        <ele>509.414</ele>
        <time>2020-02-28T13:30:33Z</time>
      </trkpt>
      <trkpt lat="40.086530" lon="-5.762520">
        <ele>509.825</ele>
        <time>2020-02-28T13:30:53Z</time>
      </trkpt>
      <trkpt lat="40.086760" lon="-5.762690">
        <ele>510.918</ele>
        <time>2020-02-28T13:31:13Z</time>
      </trkpt>
      <trkpt lat="40.086870" lon="-5.762750">
        <ele>511.187</ele>
        <time>2020-02-28T13:31:33Z</time>
      </trkpt>
      <trkpt lat="40.086980" lon="-5.762780">
        <ele>511.058</ele>
        <time>2020-02-28T13:31:53Z</time>
      </trkpt>
      <trkpt lat="40.087290" lon="-5.762790">
        <ele>511.775</ele>
        <time>2020-02-28T13:32:13Z</time>
      </trkpt>
      <trkpt lat="40.087320" lon="-5.762780">
        <ele>511.742</ele>
        <time>2020-02-28T13:32:33Z</time>
      </trkpt>
      <trkpt lat="40.087490" lon="-5.762780">
        <ele>513.022</ele>
        <time>2020-02-28T13:32:53Z</time>
      </trkpt>
      <trkpt lat="40.087590" lon="-5.762820">
        <ele>513.614</ele>
        <time>2020-02-28T13:33:13Z</time>
      </trkpt>
      <trkpt lat="40.087650" lon="-5.762830">
        <ele>513.808</ele>
        <time>2020-02-28T13:33:33Z</time>
      </trkpt>
      <trkpt lat="40.087690" lon="-5.762860">
        <ele>514.238</ele>
        <time>2020-02-28T13:33:53Z</time>
      </trkpt>
      <trkpt lat="40.087750" lon="-5.762890">
        <ele>514.661</ele>
        <time>2020-02-28T13:34:13Z</time>
      </trkpt>
      <trkpt lat="40.087880" lon="-5.763000">
        <ele>515.196</ele>
        <time>2020-02-28T13:34:33Z</time>
      </trkpt>
      <trkpt lat="40.088270" lon="-5.763380">
        <ele>516.197</ele>
        <time>2020-02-28T13:34:53Z</time>
      </trkpt>
      <trkpt lat="40.088620" lon="-5.763800">
        <ele>516.250</ele>
        <time>2020-02-28T13:35:13Z</time>
      </trkpt>
      <trkpt lat="40.088700" lon="-5.763920">
        <ele>515.779</ele>
        <time>2020-02-28T13:35:33Z</time>
      </trkpt>
      <trkpt lat="40.088790" lon="-5.764020">
        <ele>515.050</ele>
        <time>2020-02-28T13:35:53Z</time>
      </trkpt>
      <trkpt lat="40.088860" lon="-5.764140">
        <ele>515.197</ele>
        <time>2020-02-28T13:36:13Z</time>
      </trkpt>
      <trkpt lat="40.089340" lon="-5.764800">
        <ele>520.248</ele>
        <time>2020-02-28T13:36:33Z</time>
      </trkpt>
      <trkpt lat="40.089340" lon="-5.764810">
        <ele>520.361</ele>
        <time>2020-02-28T13:36:53Z</time>
      </trkpt>
      <trkpt lat="40.089500" lon="-5.765020">
        <ele>522.817</ele>
        <time>2020-02-28T13:37:13Z</time>
      </trkpt>
      <trkpt lat="40.089570" lon="-5.765140">
        <ele>524.208</ele>
        <time>2020-02-28T13:37:33Z</time>
      </trkpt>
      <trkpt lat="40.093160" lon="-5.770230">
        <ele>544.298</ele>
        <time>2020-02-28T13:37:53Z</time>
      </trkpt>
      <trkpt lat="40.093350" lon="-5.770560">
        <ele>546.081</ele>
        <time>2020-02-28T13:38:13Z</time>
      </trkpt>
      <trkpt lat="40.093470" lon="-5.770800">
        <ele>546.826</ele>
        <time>2020-02-28T13:38:33Z</time>
      </trkpt>
      <trkpt lat="40.093480" lon="-5.770840">
        <ele>547.017</ele>
        <time>2020-02-28T13:38:53Z</time>
      </trkpt>
      <trkpt lat="40.093570" lon="-5.771040">
        <ele>547.830</ele>
        <time>2020-02-28T13:39:13Z</time>
      </trkpt>
      <trkpt lat="40.093580" lon="-5.771040">
        <ele>547.779</ele>
        <time>2020-02-28T13:39:33Z</time>
      </trkpt>
      <trkpt lat="40.093660" lon="-5.771250">
        <ele>547.460</ele>
        <time>2020-02-28T13:39:53Z</time>
      </trkpt>
      <trkpt lat="40.093930" lon="-5.771850">
        <ele>545.747</ele>
        <time>2020-02-28T13:40:13Z</time>
      </trkpt>
      <trkpt lat="40.093930" lon="-5.771860">
        <ele>545.812</ele>
        <time>2020-02-28T13:40:33Z</time>
      </trkpt>
      <trkpt lat="40.094080" lon="-5.772120">
        <ele>545.932</ele>
        <time>2020-02-28T13:40:53Z</time>
      </trkpt>
      <trkpt lat="40.094150" lon="-5.772190">
        <ele>545.805</ele>
        <time>2020-02-28T13:41:13Z</time>
      </trkpt>
      <trkpt lat="40.094210" lon="-5.772270">
        <ele>545.608</ele>
        <time>2020-02-28T13:41:33Z</time>
      </trkpt>
      <trkpt lat="40.094360" lon="-5.772370">
        <ele>544.165</ele>
        <time>2020-02-28T13:41:53Z</time>
      </trkpt>
      <trkpt lat="40.094520" lon="-5.772440">
        <ele>543.298</ele>
        <time>2020-02-28T13:42:13Z</time>
      </trkpt>
      <trkpt lat="40.094600" lon="-5.772460">
        <ele>543.193</ele>
        <time>2020-02-28T13:42:33Z</time>
      </trkpt>
      <trkpt lat="40.096270" lon="-5.772560">
        <ele>548.954</ele>
        <time>2020-02-28T13:42:53Z</time>
      </trkpt>
      <trkpt lat="40.096410" lon="-5.772580">
        <ele>549.177</ele>
        <time>2020-02-28T13:43:13Z</time>
      </trkpt>
      <trkpt lat="40.096990" lon="-5.772610">
        <ele>549.886</ele>
        <time>2020-02-28T13:43:33Z</time>
      </trkpt>
      <trkpt lat="40.097050" lon="-5.772620">
        <ele>550.357</ele>
        <time>2020-02-28T13:43:53Z</time>
      </trkpt>
      <trkpt lat="40.097720" lon="-5.772620">
        <ele>554.584</ele>
        <time>2020-02-28T13:44:13Z</time>
      </trkpt>
      <trkpt lat="40.098150" lon="-5.772660">
        <ele>556.065</ele>
        <time>2020-02-28T13:44:33Z</time>
      </trkpt>
      <trkpt lat="40.098240" lon="-5.772690">
        <ele>555.968</ele>
        <time>2020-02-28T13:44:53Z</time>
      </trkpt>
      <trkpt lat="40.098260" lon="-5.772690">
        <ele>555.914</ele>
        <time>2020-02-28T13:45:13Z</time>
      </trkpt>
      <trkpt lat="40.098410" lon="-5.772750">
        <ele>555.908</ele>
        <time>2020-02-28T13:45:33Z</time>
      </trkpt>
      <trkpt lat="40.098670" lon="-5.772890">
        <ele>556.160</ele>
        <time>2020-02-28T13:45:53Z</time>
      </trkpt>
      <trkpt lat="40.098750" lon="-5.772960">
        <ele>556.063</ele>
        <time>2020-02-28T13:46:13Z</time>
      </trkpt>
      <trkpt lat="40.098750" lon="-5.772970">
        <ele>556.058</ele>
        <time>2020-02-28T13:46:33Z</time>
      </trkpt>
      <trkpt lat="40.099400" lon="-5.773480">
        <ele>553.219</ele>
        <time>2020-02-28T13:46:53Z</time>
      </trkpt>
      <trkpt lat="40.099530" lon="-5.773600">
        <ele>552.012</ele>
        <time>2020-02-28T13:47:13Z</time>
      </trkpt>
      <trkpt lat="40.099550" lon="-5.773610">
        <ele>551.981</ele>
        <time>2020-02-28T13:47:33Z</time>
      </trkpt>
      <trkpt lat="40.099850" lon="-5.773870">
        <ele>550.082</ele>
        <time>2020-02-28T13:47:53Z</time>
      </trkpt>
      <trkpt lat="40.099860" lon="-5.773870">
        <ele>550.039</ele>
        <time>2020-02-28T13:48:13Z</time>
      </trkpt>
      <trkpt lat="40.100040" lon="-5.774030">
        <ele>549.428</ele>
        <time>2020-02-28T13:48:33Z</time>
      </trkpt>
      <trkpt lat="40.100180" lon="-5.774100">
        <ele>547.789</ele>
        <time>2020-02-28T13:48:53Z</time>
      </trkpt>
      <trkpt lat="40.100290" lon="-5.774130">
        <ele>546.617</ele>
        <time>2020-02-28T13:49:13Z</time>
      </trkpt>
      <trkpt lat="40.100330" lon="-5.774150">
        <ele>546.108</ele>
        <time>2020-02-28T13:49:33Z</time>
      </trkpt>
      <trkpt lat="40.100870" lon="-5.774270">
        <ele>544.576</ele>
        <time>2020-02-28T13:49:53Z</time>
      </trkpt>
      <trkpt lat="40.101410" lon="-5.774360">
        <ele>548.559</ele>
        <time>2020-02-28T13:50:13Z</time>
      </trkpt>
      <trkpt lat="40.101600" lon="-5.774430">
        <ele>547.564</ele>
        <time>2020-02-28T13:50:33Z</time>
      </trkpt>
      <trkpt lat="40.101730" lon="-5.774540">
        <ele>547.185</ele>
        <time>2020-02-28T13:50:53Z</time>
      </trkpt>
      <trkpt lat="40.101870" lon="-5.774700">
        <ele>545.328</ele>
        <time>2020-02-28T13:51:13Z</time>
      </trkpt>
      <trkpt lat="40.101890" lon="-5.774760">
        <ele>545.527</ele>
        <time>2020-02-28T13:51:33Z</time>
      </trkpt>
      <trkpt lat="40.101930" lon="-5.774840">
        <ele>545.288</ele>
        <time>2020-02-28T13:51:53Z</time>
      </trkpt>
      <trkpt lat="40.102380" lon="-5.776340">
        <ele>557.195</ele>
        <time>2020-02-28T13:52:13Z</time>
      </trkpt>
      <trkpt lat="40.102400" lon="-5.776380">
        <ele>557.311</ele>
        <time>2020-02-28T13:52:33Z</time>
      </trkpt>
      <trkpt lat="40.102410" lon="-5.776390">
        <ele>557.321</ele>
        <time>2020-02-28T13:52:53Z</time>
      </trkpt>
      <trkpt lat="40.102440" lon="-5.776440">
        <ele>557.803</ele>
        <time>2020-02-28T13:53:13Z</time>
      </trkpt>
      <trkpt lat="40.102580" lon="-5.776610">
        <ele>557.208</ele>
        <time>2020-02-28T13:53:33Z</time>
      </trkpt>
      <trkpt lat="40.102720" lon="-5.776690">
        <ele>553.745</ele>
        <time>2020-02-28T13:53:53Z</time>
      </trkpt>
      <trkpt lat="40.102850" lon="-5.776700">
        <ele>551.668</ele>
        <time>2020-02-28T13:54:13Z</time>
      </trkpt>
      <trkpt lat="40.103030" lon="-5.776730">
        <ele>550.983</ele>
        <time>2020-02-28T13:54:33Z</time>
      </trkpt>
      <trkpt lat="40.103750" lon="-5.776750">
        <ele>559.694</ele>
        <time>2020-02-28T13:54:53Z</time>
      </trkpt>
      <trkpt lat="40.104020" lon="-5.776790">
        <ele>560.257</ele>
        <time>2020-02-28T13:55:13Z</time>
      </trkpt>
      <trkpt lat="40.104180" lon="-5.776830">
        <ele>560.766</ele>
        <time>2020-02-28T13:55:33Z</time>
      </trkpt>
      <trkpt lat="40.104730" lon="-5.777050">
        <ele>564.497</ele>
        <time>2020-02-28T13:55:53Z</time>
      </trkpt>
      <trkpt lat="40.104770" lon="-5.777060">
        <ele>564.884</ele>
        <time>2020-02-28T13:56:13Z</time>
      </trkpt>
      <trkpt lat="40.105410" lon="-5.777340">
        <ele>570.638</ele>
        <time>2020-02-28T13:56:33Z</time>
      </trkpt>
      <trkpt lat="40.105910" lon="-5.777600">
        <ele>573.770</ele>
        <time>2020-02-28T13:56:53Z</time>
      </trkpt>
      <trkpt lat="40.106020" lon="-5.777610">
        <ele>574.317</ele>
        <time>2020-02-28T13:57:13Z</time>
      </trkpt>
      <trkpt lat="40.106090" lon="-5.777630">
        <ele>574.808</ele>
        <time>2020-02-28T13:57:33Z</time>
      </trkpt>
      <trkpt lat="40.106180" lon="-5.777630">
        <ele>575.467</ele>
        <time>2020-02-28T13:57:53Z</time>
      </trkpt>
      <trkpt lat="40.106210" lon="-5.777610">
        <ele>575.530</ele>
        <time>2020-02-28T13:58:13Z</time>
      </trkpt>
      <trkpt lat="40.106330" lon="-5.777570">
        <ele>576.135</ele>
        <time>2020-02-28T13:58:33Z</time>
      </trkpt>
      <trkpt lat="40.106710" lon="-5.777480">
        <ele>578.016</ele>
        <time>2020-02-28T13:58:53Z</time>
      </trkpt>
      <trkpt lat="40.106730" lon="-5.777470">
        <ele>578.059</ele>
        <time>2020-02-28T13:59:13Z</time>
      </trkpt>
      <trkpt lat="40.107040" lon="-5.777410">
        <ele>578.288</ele>
        <time>2020-02-28T13:59:33Z</time>
      </trkpt>
      <trkpt lat="40.107760" lon="-5.777410">
        <ele>579.679</ele>
        <time>2020-02-28T13:59:53Z</time>
      </trkpt>
      <trkpt lat="40.108020" lon="-5.777380">
        <ele>580.986</ele>
        <time>2020-02-28T14:00:13Z</time>
      </trkpt>
      <trkpt lat="40.108080" lon="-5.777380">
        <ele>581.521</ele>
        <time>2020-02-28T14:00:33Z</time>
      </trkpt>
      <trkpt lat="40.108200" lon="-5.777360">
        <ele>583.341</ele>
        <time>2020-02-28T14:00:53Z</time>
      </trkpt>
      <trkpt lat="40.108370" lon="-5.777380">
        <ele>585.805</ele>
        <time>2020-02-28T14:01:13Z</time>
      </trkpt>
      <trkpt lat="40.108570" lon="-5.777460">
        <ele>586.708</ele>
        <time>2020-02-28T14:01:33Z</time>
      </trkpt>
      <trkpt lat="40.108760" lon="-5.777560">
        <ele>587.426</ele>
        <time>2020-02-28T14:01:53Z</time>
      </trkpt>
      <trkpt lat="40.108920" lon="-5.777630">
        <ele>587.989</ele>
        <time>2020-02-28T14:02:13Z</time>
      </trkpt>
      <trkpt lat="40.108930" lon="-5.777640">
        <ele>587.954</ele>
        <time>2020-02-28T14:02:33Z</time>
      </trkpt>
      <trkpt lat="40.109240" lon="-5.777750">
        <ele>588.755</ele>
        <time>2020-02-28T14:02:53Z</time>
      </trkpt>
      <trkpt lat="40.109280" lon="-5.777780">
        <ele>589.078</ele>
        <time>2020-02-28T14:03:13Z</time>
      </trkpt>
      <trkpt lat="40.109300" lon="-5.777790">
        <ele>589.237</ele>
        <time>2020-02-28T14:03:33Z</time>
      </trkpt>
      <trkpt lat="40.109250" lon="-5.777860">
        <ele>590.568</ele>
        <time>2020-02-28T14:03:53Z</time>
      </trkpt>
      <trkpt lat="40.109250" lon="-5.777870">
        <ele>590.655</ele>
        <time>2020-02-28T14:04:13Z</time>
      </trkpt>
      <trkpt lat="40.109200" lon="-5.777940">
        <ele>591.519</ele>
        <time>2020-02-28T14:04:33Z</time>
      </trkpt>
      <trkpt lat="40.109160" lon="-5.777980">
        <ele>591.909</ele>
        <time>2020-02-28T14:04:53Z</time>
      </trkpt>
      <trkpt lat="40.109130" lon="-5.778030">
        <ele>592.619</ele>
        <time>2020-02-28T14:05:13Z</time>
      </trkpt>
      <trkpt lat="40.109080" lon="-5.778080">
        <ele>593.408</ele>
        <time>2020-02-28T14:05:33Z</time>
      </trkpt>
      <trkpt lat="40.109060" lon="-5.778110">
        <ele>593.825</ele>
        <time>2020-02-28T14:05:53Z</time>
      </trkpt>
      <trkpt lat="40.108980" lon="-5.778170">
        <ele>594.588</ele>
        <time>2020-02-28T14:06:13Z</time>
      </trkpt>
      <trkpt lat="40.108840" lon="-5.778300">
        <ele>595.583</ele>
        <time>2020-02-28T14:06:33Z</time>
      </trkpt>
      <trkpt lat="40.108840" lon="-5.778310">
        <ele>595.694</ele>
        <time>2020-02-28T14:06:53Z</time>
      </trkpt>
      <trkpt lat="40.108820" lon="-5.778320">
        <ele>595.687</ele>
        <time>2020-02-28T14:07:13Z</time>
      </trkpt>
      <trkpt lat="40.108770" lon="-5.778370">
        <ele>595.946</ele>
        <time>2020-02-28T14:07:33Z</time>
      </trkpt>
      <trkpt lat="40.108730" lon="-5.778400">
        <ele>596.027</ele>
        <time>2020-02-28T14:07:53Z</time>
      </trkpt>
      <trkpt lat="40.108690" lon="-5.778420">
        <ele>596.024</ele>
        <time>2020-02-28T14:08:13Z</time>
      </trkpt>
      <trkpt lat="40.108670" lon="-5.778440">
        <ele>596.195</ele>
        <time>2020-02-28T14:08:33Z</time>
      </trkpt>
      <trkpt lat="40.108490" lon="-5.778530">
        <ele>596.349</ele>
        <time>2020-02-28T14:08:53Z</time>
      </trkpt>
      <trkpt lat="40.108190" lon="-5.778630">
        <ele>596.723</ele>
        <time>2020-02-28T14:09:13Z</time>
      </trkpt>
      <trkpt lat="40.108170" lon="-5.778630">
        <ele>596.608</ele>
        <time>2020-02-28T14:09:33Z</time>
      </trkpt>
      <trkpt lat="40.108170" lon="-5.778640">
        <ele>596.723</ele>
        <time>2020-02-28T14:09:53Z</time>
      </trkpt>
      <trkpt lat="40.108160" lon="-5.778640">
        <ele>596.626</ele>
        <time>2020-02-28T14:10:13Z</time>
      </trkpt>
      <trkpt lat="40.108100" lon="-5.778670">
        <ele>596.841</ele>
        <time>2020-02-28T14:10:33Z</time>
      </trkpt>
      <trkpt lat="40.108090" lon="-5.778680">
        <ele>596.842</ele>
        <time>2020-02-28T14:10:53Z</time>
      </trkpt>
      <trkpt lat="40.108080" lon="-5.778710">
        <ele>597.115</ele>
        <time>2020-02-28T14:11:13Z</time>
      </trkpt>
      <trkpt lat="40.108050" lon="-5.778740">
        <ele>597.474</ele>
        <time>2020-02-28T14:11:33Z</time>
      </trkpt>
      <trkpt lat="40.108030" lon="-5.778780">
        <ele>597.755</ele>
        <time>2020-02-28T14:11:53Z</time>
      </trkpt>
      <trkpt lat="40.108030" lon="-5.778790">
        <ele>597.822</ele>
        <time>2020-02-28T14:12:13Z</time>
      </trkpt>
      <trkpt lat="40.108020" lon="-5.778810">
        <ele>598.077</ele>
        <time>2020-02-28T14:12:33Z</time>
      </trkpt>
      <trkpt lat="40.108020" lon="-5.778930">
        <ele>599.361</ele>
        <time>2020-02-28T14:12:53Z</time>
      </trkpt>
      <trkpt lat="40.108040" lon="-5.778980">
        <ele>599.927</ele>
        <time>2020-02-28T14:13:13Z</time>
      </trkpt>
      <trkpt lat="40.108040" lon="-5.779000">
        <ele>600.208</ele>
        <time>2020-02-28T14:13:33Z</time>
      </trkpt>
      <trkpt lat="40.108050" lon="-5.779020">
        <ele>600.411</ele>
        <time>2020-02-28T14:13:53Z</time>
      </trkpt>
      <trkpt lat="40.108050" lon="-5.779040">
        <ele>600.644</ele>
        <time>2020-02-28T14:14:13Z</time>
      </trkpt>
      <trkpt lat="40.108060" lon="-5.779050">
        <ele>600.799</ele>
        <time>2020-02-28T14:14:33Z</time>
      </trkpt>
      <trkpt lat="40.108060" lon="-5.779060">
        <ele>600.960</ele>
        <time>2020-02-28T14:14:53Z</time>
      </trkpt>
      <trkpt lat="40.108070" lon="-5.779070">
        <ele>601.053</ele>
        <time>2020-02-28T14:15:13Z</time>
      </trkpt>
      <trkpt lat="40.108080" lon="-5.779090">
        <ele>601.272</ele>
        <time>2020-02-28T14:15:33Z</time>
      </trkpt>
      <trkpt lat="40.108110" lon="-5.779120">
        <ele>601.723</ele>
        <time>2020-02-28T14:15:53Z</time>
      </trkpt>
      <trkpt lat="40.108120" lon="-5.779120">
        <ele>601.750</ele>
        <time>2020-02-28T14:16:13Z</time>
      </trkpt>
      <trkpt lat="40.108140" lon="-5.779130">
        <ele>601.923</ele>
        <time>2020-02-28T14:16:33Z</time>
      </trkpt>
      <trkpt lat="40.108150" lon="-5.779140">
        <ele>602.083</ele>
        <time>2020-02-28T14:16:53Z</time>
      </trkpt>
      <trkpt lat="40.108200" lon="-5.779140">
        <ele>602.211</ele>
        <time>2020-02-28T14:17:13Z</time>
      </trkpt>
      <trkpt lat="40.108230" lon="-5.779150">
        <ele>602.408</ele>
        <time>2020-02-28T14:17:33Z</time>
      </trkpt>
      <trkpt lat="40.108780" lon="-5.779140">
        <ele>608.966</ele>
        <time>2020-02-28T14:17:53Z</time>
      </trkpt>
      <trkpt lat="40.108810" lon="-5.779130">
        <ele>609.179</ele>
        <time>2020-02-28T14:18:13Z</time>
      </trkpt>
      <trkpt lat="40.108830" lon="-5.779130">
        <ele>609.444</ele>
        <time>2020-02-28T14:18:33Z</time>
      </trkpt>
      <trkpt lat="40.108860" lon="-5.779120">
        <ele>609.695</ele>
        <time>2020-02-28T14:18:53Z</time>
      </trkpt>
      <trkpt lat="40.108880" lon="-5.779120">
        <ele>609.938</ele>
        <time>2020-02-28T14:19:13Z</time>
      </trkpt>
      <trkpt lat="40.108950" lon="-5.779090">
        <ele>609.757</ele>
        <time>2020-02-28T14:19:33Z</time>
      </trkpt>
      <trkpt lat="40.108960" lon="-5.779090">
        <ele>609.798</ele>
        <time>2020-02-28T14:19:53Z</time>
      </trkpt>
      <trkpt lat="40.108980" lon="-5.779070">
        <ele>609.525</ele>
        <time>2020-02-28T14:20:13Z</time>
      </trkpt>
      <trkpt lat="40.109380" lon="-5.778820">
        <ele>609.819</ele>
        <time>2020-02-28T14:20:33Z</time>
      </trkpt>
      <trkpt lat="40.109390" lon="-5.778810">
        <ele>609.809</ele>
        <time>2020-02-28T14:20:53Z</time>
      </trkpt>
      <trkpt lat="40.109480" lon="-5.778770">
        <ele>610.119</ele>
        <time>2020-02-28T14:21:13Z</time>
      </trkpt>
      <trkpt lat="40.109510" lon="-5.778750">
        <ele>610.008</ele>
        <time>2020-02-28T14:21:33Z</time>
      </trkpt>
      <trkpt lat="40.109720" lon="-5.778730">
        <ele>611.115</ele>
        <time>2020-02-28T14:21:53Z</time>
      </trkpt>
      <trkpt lat="40.109830" lon="-5.778710">
        <ele>611.468</ele>
        <time>2020-02-28T14:22:13Z</time>
      </trkpt>
      <trkpt lat="40.110060" lon="-5.778740">
        <ele>612.443</ele>
        <time>2020-02-28T14:22:33Z</time>
      </trkpt>
      <trkpt lat="40.110110" lon="-5.778760">
        <ele>612.394</ele>
        <time>2020-02-28T14:22:53Z</time>
      </trkpt>
      <trkpt lat="40.110120" lon="-5.778760">
        <ele>612.257</ele>
        <time>2020-02-28T14:23:13Z</time>
      </trkpt>
      <trkpt lat="40.110160" lon="-5.778800">
        <ele>612.456</ele>
        <time>2020-02-28T14:23:33Z</time>
      </trkpt>
      <trkpt lat="40.110240" lon="-5.778910">
        <ele>612.557</ele>
        <time>2020-02-28T14:23:53Z</time>
      </trkpt>
      <trkpt lat="40.110300" lon="-5.779180">
        <ele>612.654</ele>
        <time>2020-02-28T14:24:13Z</time>
      </trkpt>
      <trkpt lat="40.110360" lon="-5.779850">
        <ele>615.867</ele>
        <time>2020-02-28T14:24:33Z</time>
      </trkpt>
      <trkpt lat="40.110430" lon="-5.780250">
        <ele>616.681</ele>
        <time>2020-02-28T14:24:53Z</time>
      </trkpt>
      <trkpt lat="40.110430" lon="-5.780310">
        <ele>616.719</ele>
        <time>2020-02-28T14:25:13Z</time>
      </trkpt>
      <trkpt lat="40.110440" lon="-5.780380">
        <ele>616.508</ele>
        <time>2020-02-28T14:25:33Z</time>
      </trkpt>
      <trkpt lat="40.110440" lon="-5.780490">
        <ele>616.590</ele>
        <time>2020-02-28T14:25:53Z</time>
      </trkpt>
      <trkpt lat="40.110400" lon="-5.780600">
        <ele>617.133</ele>
        <time>2020-02-28T14:26:13Z</time>
      </trkpt>
      <trkpt lat="40.110360" lon="-5.780680">
        <ele>617.818</ele>
        <time>2020-02-28T14:26:33Z</time>
      </trkpt>
      <trkpt lat="40.110310" lon="-5.780740">
        <ele>619.189</ele>
        <time>2020-02-28T14:26:53Z</time>
      </trkpt>
      <trkpt lat="40.110270" lon="-5.780770">
        <ele>620.062</ele>
        <time>2020-02-28T14:27:13Z</time>
      </trkpt>
      <trkpt lat="40.110170" lon="-5.780820">
        <ele>620.471</ele>
        <time>2020-02-28T14:27:33Z</time>
      </trkpt>
      <trkpt lat="40.110100" lon="-5.780840">
        <ele>620.622</ele>
        <time>2020-02-28T14:27:53Z</time>
      </trkpt>
      <trkpt lat="40.110060" lon="-5.780840">
        <ele>620.759</ele>
        <time>2020-02-28T14:28:13Z</time>
      </trkpt>
      <trkpt lat="40.110000" lon="-5.780830">
        <ele>621.047</ele>
        <time>2020-02-28T14:28:33Z</time>
      </trkpt>
      <trkpt lat="40.109950" lon="-5.780800">
        <ele>621.829</ele>
        <time>2020-02-28T14:28:53Z</time>
      </trkpt>
      <trkpt lat="40.109900" lon="-5.780780">
        <ele>622.521</ele>
        <time>2020-02-28T14:29:13Z</time>
      </trkpt>
      <trkpt lat="40.109890" lon="-5.780770">
        <ele>622.608</ele>
        <time>2020-02-28T14:29:33Z</time>
      </trkpt>
      <trkpt lat="40.109740" lon="-5.780710">
        <ele>624.758</ele>
        <time>2020-02-28T14:29:53Z</time>
      </trkpt>
      <trkpt lat="40.109660" lon="-5.780720">
        <ele>625.591</ele>
        <time>2020-02-28T14:30:13Z</time>
      </trkpt>
      <trkpt lat="40.109590" lon="-5.780740">
        <ele>626.136</ele>
        <time>2020-02-28T14:30:33Z</time>
      </trkpt>
      <trkpt lat="40.109550" lon="-5.780760">
        <ele>626.427</ele>
        <time>2020-02-28T14:30:53Z</time>
      </trkpt>
      <trkpt lat="40.109520" lon="-5.780800">
        <ele>626.450</ele>
        <time>2020-02-28T14:31:13Z</time>
      </trkpt>
      <trkpt lat="40.109380" lon="-5.781310">
        <ele>627.619</ele>
        <time>2020-02-28T14:31:33Z</time>
      </trkpt>
      <trkpt lat="40.109260" lon="-5.781970">
        <ele>632.850</ele>
        <time>2020-02-28T14:31:53Z</time>
      </trkpt>
      <trkpt lat="40.109260" lon="-5.782120">
        <ele>635.347</ele>
        <time>2020-02-28T14:32:13Z</time>
      </trkpt>
      <trkpt lat="40.109270" lon="-5.782160">
        <ele>635.817</ele>
        <time>2020-02-28T14:32:33Z</time>
      </trkpt>
      <trkpt lat="40.109270" lon="-5.782200">
        <ele>636.587</ele>
        <time>2020-02-28T14:32:53Z</time>
      </trkpt>
      <trkpt lat="40.109280" lon="-5.782240">
        <ele>637.415</ele>
        <time>2020-02-28T14:33:13Z</time>
      </trkpt>
      <trkpt lat="40.109340" lon="-5.782320">
        <ele>639.708</ele>
        <time>2020-02-28T14:33:33Z</time>
      </trkpt>
      <trkpt lat="40.109390" lon="-5.782330">
        <ele>639.965</ele>
        <time>2020-02-28T14:33:53Z</time>
      </trkpt>
      <trkpt lat="40.109600" lon="-5.782320">
        <ele>639.218</ele>
        <time>2020-02-28T14:34:13Z</time>
      </trkpt>
      <trkpt lat="40.109970" lon="-5.782400">
        <ele>639.833</ele>
        <time>2020-02-28T14:34:33Z</time>
      </trkpt>
      <trkpt lat="40.110310" lon="-5.782560">
        <ele>641.214</ele>
        <time>2020-02-28T14:34:53Z</time>
      </trkpt>
      <trkpt lat="40.110380" lon="-5.782630">
        <ele>642.457</ele>
        <time>2020-02-28T14:35:13Z</time>
      </trkpt>
      <trkpt lat="40.110430" lon="-5.782810">
        <ele>646.116</ele>
        <time>2020-02-28T14:35:33Z</time>
      </trkpt>
      <trkpt lat="40.110430" lon="-5.782910">
        <ele>648.117</ele>
        <time>2020-02-28T14:35:53Z</time>
      </trkpt>
      <trkpt lat="40.110410" lon="-5.782960">
        <ele>649.154</ele>
        <time>2020-02-28T14:36:13Z</time>
      </trkpt>
      <trkpt lat="40.110390" lon="-5.782990">
        <ele>649.786</ele>
        <time>2020-02-28T14:36:33Z</time>
      </trkpt>
      <trkpt lat="40.110360" lon="-5.783020">
        <ele>650.360</ele>
        <time>2020-02-28T14:36:53Z</time>
      </trkpt>
      <trkpt lat="40.110330" lon="-5.783030">
        <ele>650.526</ele>
        <time>2020-02-28T14:37:13Z</time>
      </trkpt>
      <trkpt lat="40.110280" lon="-5.783030">
        <ele>650.508</ele>
        <time>2020-02-28T14:37:33Z</time>
      </trkpt>
      <trkpt lat="40.110210" lon="-5.783010">
        <ele>651.092</ele>
        <time>2020-02-28T14:37:53Z</time>
      </trkpt>
      <trkpt lat="40.110200" lon="-5.783000">
        <ele>651.045</ele>
        <time>2020-02-28T14:38:13Z</time>
      </trkpt>
      <trkpt lat="40.110130" lon="-5.782980">
        <ele>651.520</ele>
        <time>2020-02-28T14:38:33Z</time>
      </trkpt>
      <trkpt lat="40.110030" lon="-5.782920">
        <ele>652.171</ele>
        <time>2020-02-28T14:38:53Z</time>
      </trkpt>
      <trkpt lat="40.109880" lon="-5.782800">
        <ele>653.174</ele>
        <time>2020-02-28T14:39:13Z</time>
      </trkpt>
      <trkpt lat="40.109790" lon="-5.782750">
        <ele>653.213</ele>
        <time>2020-02-28T14:39:33Z</time>
      </trkpt>
      <trkpt lat="40.109740" lon="-5.782730">
        <ele>653.464</ele>
        <time>2020-02-28T14:39:53Z</time>
      </trkpt>
      <trkpt lat="40.109600" lon="-5.782740">
        <ele>653.911</ele>
        <time>2020-02-28T14:40:13Z</time>
      </trkpt>
      <trkpt lat="40.109340" lon="-5.782870">
        <ele>657.364</ele>
        <time>2020-02-28T14:40:33Z</time>
      </trkpt>
      <trkpt lat="40.109190" lon="-5.782900">
        <ele>658.106</ele>
        <time>2020-02-28T14:40:53Z</time>
      </trkpt>
      <trkpt lat="40.108980" lon="-5.782890">
        <ele>658.916</ele>
        <time>2020-02-28T14:41:13Z</time>
      </trkpt>
      <trkpt lat="40.108450" lon="-5.782780">
        <ele>658.608</ele>
        <time>2020-02-28T14:41:33Z</time>
      </trkpt>
      <trkpt lat="40.108230" lon="-5.782780">
        <ele>659.020</ele>
        <time>2020-02-28T14:41:53Z</time>
      </trkpt>
      <trkpt lat="40.107760" lon="-5.782850">
        <ele>660.463</ele>
        <time>2020-02-28T14:42:13Z</time>
      </trkpt>
      <trkpt lat="40.107720" lon="-5.782850">
        <ele>660.798</ele>
        <time>2020-02-28T14:42:33Z</time>
      </trkpt>
      <trkpt lat="40.107580" lon="-5.782870">
        <ele>661.879</ele>
        <time>2020-02-28T14:42:53Z</time>
      </trkpt>
      <trkpt lat="40.107510" lon="-5.782870">
        <ele>662.352</ele>
        <time>2020-02-28T14:43:13Z</time>
      </trkpt>
      <trkpt lat="40.107200" lon="-5.782900">
        <ele>663.751</ele>
        <time>2020-02-28T14:43:33Z</time>
      </trkpt>
      <trkpt lat="40.107120" lon="-5.782920">
        <ele>663.782</ele>
        <time>2020-02-28T14:43:53Z</time>
      </trkpt>
      <trkpt lat="40.107060" lon="-5.782960">
        <ele>663.939</ele>
        <time>2020-02-28T14:44:13Z</time>
      </trkpt>
      <trkpt lat="40.107040" lon="-5.782980">
        <ele>664.068</ele>
        <time>2020-02-28T14:44:33Z</time>
      </trkpt>
      <trkpt lat="40.107030" lon="-5.783010">
        <ele>664.242</ele>
        <time>2020-02-28T14:44:53Z</time>
      </trkpt>
      <trkpt lat="40.107030" lon="-5.783080">
        <ele>665.026</ele>
        <time>2020-02-28T14:45:13Z</time>
      </trkpt>
      <trkpt lat="40.107080" lon="-5.783170">
        <ele>666.808</ele>
        <time>2020-02-28T14:45:33Z</time>
      </trkpt>
      <trkpt lat="40.107140" lon="-5.783220">
        <ele>668.260</ele>
        <time>2020-02-28T14:45:53Z</time>
      </trkpt>
      <trkpt lat="40.107220" lon="-5.783260">
        <ele>669.753</ele>
        <time>2020-02-28T14:46:13Z</time>
      </trkpt>
      <trkpt lat="40.107290" lon="-5.783280">
        <ele>669.828</ele>
        <time>2020-02-28T14:46:33Z</time>
      </trkpt>
      <trkpt lat="40.107300" lon="-5.783290">
        <ele>669.969</ele>
        <time>2020-02-28T14:46:53Z</time>
      </trkpt>
      <trkpt lat="40.107430" lon="-5.783340">
        <ele>670.482</ele>
        <time>2020-02-28T14:47:13Z</time>
      </trkpt>
      <trkpt lat="40.107580" lon="-5.783380">
        <ele>671.321</ele>
        <time>2020-02-28T14:47:33Z</time>
      </trkpt>
      <trkpt lat="40.107810" lon="-5.783470">
        <ele>674.082</ele>
        <time>2020-02-28T14:47:53Z</time>
      </trkpt>
      <trkpt lat="40.108000" lon="-5.783500">
        <ele>675.189</ele>
        <time>2020-02-28T14:48:13Z</time>
      </trkpt>
      <trkpt lat="40.108520" lon="-5.783510">
        <ele>675.427</ele>
        <time>2020-02-28T14:48:33Z</time>
      </trkpt>
      <trkpt lat="40.108540" lon="-5.783520">
        <ele>675.568</ele>
        <time>2020-02-28T14:48:53Z</time>
      </trkpt>
      <trkpt lat="40.108620" lon="-5.783540">
        <ele>675.714</ele>
        <time>2020-02-28T14:49:13Z</time>
      </trkpt>
      <trkpt lat="40.108740" lon="-5.783600">
        <ele>676.308</ele>
        <time>2020-02-28T14:49:33Z</time>
      </trkpt>
      <trkpt lat="40.108870" lon="-5.783680">
        <ele>677.616</ele>
        <time>2020-02-28T14:49:53Z</time>
      </trkpt>
      <trkpt lat="40.108880" lon="-5.783690">
        <ele>677.799</ele>
        <time>2020-02-28T14:50:13Z</time>
      </trkpt>
      <trkpt lat="40.109150" lon="-5.783840">
        <ele>679.184</ele>
        <time>2020-02-28T14:50:33Z</time>
      </trkpt>
      <trkpt lat="40.109360" lon="-5.783930">
        <ele>680.435</ele>
        <time>2020-02-28T14:50:53Z</time>
      </trkpt>
      <trkpt lat="40.109400" lon="-5.783980">
        <ele>681.728</ele>
        <time>2020-02-28T14:51:13Z</time>
      </trkpt>
      <trkpt lat="40.109420" lon="-5.784020">
        <ele>682.837</ele>
        <time>2020-02-28T14:51:33Z</time>
      </trkpt>
      <trkpt lat="40.109430" lon="-5.784070">
        <ele>684.238</ele>
        <time>2020-02-28T14:51:53Z</time>
      </trkpt>
      <trkpt lat="40.109420" lon="-5.784150">
        <ele>686.565</ele>
        <time>2020-02-28T14:52:13Z</time>
      </trkpt>
      <trkpt lat="40.109390" lon="-5.784210">
        <ele>688.065</ele>
        <time>2020-02-28T14:52:33Z</time>
      </trkpt>
      <trkpt lat="40.109360" lon="-5.784230">
        <ele>688.568</ele>
        <time>2020-02-28T14:52:53Z</time>
      </trkpt>
      <trkpt lat="40.109320" lon="-5.784240">
        <ele>688.614</ele>
        <time>2020-02-28T14:53:13Z</time>
      </trkpt>
      <trkpt lat="40.109280" lon="-5.784240">
        <ele>688.508</ele>
        <time>2020-02-28T14:53:33Z</time>
      </trkpt>
      <trkpt lat="40.109260" lon="-5.784230">
        <ele>688.330</ele>
        <time>2020-02-28T14:53:53Z</time>
      </trkpt>
      <trkpt lat="40.109090" lon="-5.784200">
        <ele>688.553</ele>
        <time>2020-02-28T14:54:13Z</time>
      </trkpt>
      <trkpt lat="40.108930" lon="-5.784200">
        <ele>690.368</ele>
        <time>2020-02-28T14:54:33Z</time>
      </trkpt>
      <trkpt lat="40.108840" lon="-5.784190">
        <ele>690.959</ele>
        <time>2020-02-28T14:54:53Z</time>
      </trkpt>
      <trkpt lat="40.108490" lon="-5.784270">
        <ele>694.232</ele>
        <time>2020-02-28T14:55:13Z</time>
      </trkpt>
      <trkpt lat="40.108220" lon="-5.784380">
        <ele>695.381</ele>
        <time>2020-02-28T14:55:33Z</time>
      </trkpt>
      <trkpt lat="40.108190" lon="-5.784400">
        <ele>695.582</ele>
        <time>2020-02-28T14:55:53Z</time>
      </trkpt>
      <trkpt lat="40.108060" lon="-5.784460">
        <ele>695.399</ele>
        <time>2020-02-28T14:56:13Z</time>
      </trkpt>
      <trkpt lat="40.108050" lon="-5.784460">
        <ele>695.252</ele>
        <time>2020-02-28T14:56:33Z</time>
      </trkpt>
      <trkpt lat="40.107950" lon="-5.784550">
        <ele>695.353</ele>
        <time>2020-02-28T14:56:53Z</time>
      </trkpt>
      <trkpt lat="40.107870" lon="-5.784650">
        <ele>695.208</ele>
        <time>2020-02-28T14:57:13Z</time>
      </trkpt>
      <trkpt lat="40.107830" lon="-5.784750">
        <ele>695.408</ele>
        <time>2020-02-28T14:57:33Z</time>
      </trkpt>
      <trkpt lat="40.107770" lon="-5.784980">
        <ele>696.639</ele>
        <time>2020-02-28T14:57:53Z</time>
      </trkpt>
      <trkpt lat="40.107770" lon="-5.785020">
        <ele>696.992</ele>
        <time>2020-02-28T14:58:13Z</time>
      </trkpt>
      <trkpt lat="40.107710" lon="-5.785400">
        <ele>697.537</ele>
        <time>2020-02-28T14:58:33Z</time>
      </trkpt>
      <trkpt lat="40.107640" lon="-5.785680">
        <ele>698.368</ele>
        <time>2020-02-28T14:58:53Z</time>
      </trkpt>
      <trkpt lat="40.107570" lon="-5.785790">
        <ele>698.651</ele>
        <time>2020-02-28T14:59:13Z</time>
      </trkpt>
      <trkpt lat="40.107460" lon="-5.785900">
        <ele>699.530</ele>
        <time>2020-02-28T14:59:33Z</time>
      </trkpt>
      <trkpt lat="40.107360" lon="-5.785950">
        <ele>701.131</ele>
        <time>2020-02-28T14:59:53Z</time>
      </trkpt>
      <trkpt lat="40.107340" lon="-5.785950">
        <ele>701.388</ele>
        <time>2020-02-28T15:00:13Z</time>
      </trkpt>
      <trkpt lat="40.107320" lon="-5.785960">
        <ele>701.671</ele>
        <time>2020-02-28T15:00:33Z</time>
      </trkpt>
      <trkpt lat="40.107260" lon="-5.785970">
        <ele>702.241</ele>
        <time>2020-02-28T15:00:53Z</time>
      </trkpt>
      <trkpt lat="40.107130" lon="-5.785960">
        <ele>702.915</ele>
        <time>2020-02-28T15:01:13Z</time>
      </trkpt>
      <trkpt lat="40.106980" lon="-5.785970">
        <ele>704.208</ele>
        <time>2020-02-28T15:01:33Z</time>
      </trkpt>
      <trkpt lat="40.106800" lon="-5.785960">
        <ele>705.891</ele>
        <time>2020-02-28T15:01:53Z</time>
      </trkpt>
      <trkpt lat="40.106360" lon="-5.785850">
        <ele>707.814</ele>
        <time>2020-02-28T15:02:13Z</time>
      </trkpt>
      <trkpt lat="40.106120" lon="-5.785720">
        <ele>708.489</ele>
        <time>2020-02-28T15:02:33Z</time>
      </trkpt>
      <trkpt lat="40.106040" lon="-5.785710">
        <ele>707.450</ele>
        <time>2020-02-28T15:02:53Z</time>
      </trkpt>
      <trkpt lat="40.106000" lon="-5.785730">
        <ele>707.223</ele>
        <time>2020-02-28T15:03:13Z</time>
      </trkpt>
      <trkpt lat="40.105960" lon="-5.785760">
        <ele>707.152</ele>
        <time>2020-02-28T15:03:33Z</time>
      </trkpt>
      <trkpt lat="40.105930" lon="-5.785900">
        <ele>708.583</ele>
        <time>2020-02-28T15:03:53Z</time>
      </trkpt>
      <trkpt lat="40.105930" lon="-5.785950">
        <ele>709.090</ele>
        <time>2020-02-28T15:04:13Z</time>
      </trkpt>
      <trkpt lat="40.105960" lon="-5.786030">
        <ele>710.738</ele>
        <time>2020-02-28T15:04:33Z</time>
      </trkpt>
      <trkpt lat="40.105990" lon="-5.786070">
        <ele>712.070</ele>
        <time>2020-02-28T15:04:53Z</time>
      </trkpt>
      <trkpt lat="40.106070" lon="-5.786130">
        <ele>715.117</ele>
        <time>2020-02-28T15:05:13Z</time>
      </trkpt>
      <trkpt lat="40.106240" lon="-5.786180">
        <ele>716.308</ele>
        <time>2020-02-28T15:05:33Z</time>
      </trkpt>
      <trkpt lat="40.106330" lon="-5.786240">
        <ele>717.077</ele>
        <time>2020-02-28T15:05:53Z</time>
      </trkpt>
      <trkpt lat="40.106410" lon="-5.786270">
        <ele>717.290</ele>
        <time>2020-02-28T15:06:13Z</time>
      </trkpt>
      <trkpt lat="40.106540" lon="-5.786370">
        <ele>717.595</ele>
        <time>2020-02-28T15:06:33Z</time>
      </trkpt>
      <trkpt lat="40.106740" lon="-5.786560">
        <ele>718.966</ele>
        <time>2020-02-28T15:06:53Z</time>
      </trkpt>
      <trkpt lat="40.106770" lon="-5.786580">
        <ele>719.089</ele>
        <time>2020-02-28T15:07:13Z</time>
      </trkpt>
      <trkpt lat="40.107010" lon="-5.786870">
        <ele>723.288</ele>
        <time>2020-02-28T15:07:33Z</time>
      </trkpt>
      <trkpt lat="40.107200" lon="-5.787060">
        <ele>726.669</ele>
        <time>2020-02-28T15:07:53Z</time>
      </trkpt>
      <trkpt lat="40.107430" lon="-5.787240">
        <ele>727.526</ele>
        <time>2020-02-28T15:08:13Z</time>
      </trkpt>
      <trkpt lat="40.107460" lon="-5.787250">
        <ele>727.357</ele>
        <time>2020-02-28T15:08:33Z</time>
      </trkpt>
      <trkpt lat="40.107570" lon="-5.787250">
        <ele>727.700</ele>
        <time>2020-02-28T15:08:53Z</time>
      </trkpt>
      <trkpt lat="40.107640" lon="-5.787220">
        <ele>728.020</ele>
        <time>2020-02-28T15:09:13Z</time>
      </trkpt>
      <trkpt lat="40.107710" lon="-5.787200">
        <ele>728.508</ele>
        <time>2020-02-28T15:09:33Z</time>
      </trkpt>
      <trkpt lat="40.107850" lon="-5.787120">
        <ele>729.439</ele>
        <time>2020-02-28T15:09:53Z</time>
      </trkpt>
      <trkpt lat="40.107980" lon="-5.787020">
        <ele>730.262</ele>
        <time>2020-02-28T15:10:13Z</time>
      </trkpt>
      <trkpt lat="40.108410" lon="-5.786520">
        <ele>731.777</ele>
        <time>2020-02-28T15:10:33Z</time>
      </trkpt>
      <trkpt lat="40.108520" lon="-5.786450">
        <ele>733.438</ele>
        <time>2020-02-28T15:10:53Z</time>
      </trkpt>
      <trkpt lat="40.108700" lon="-5.786400">
        <ele>735.611</ele>
        <time>2020-02-28T15:11:13Z</time>
      </trkpt>
      <trkpt lat="40.108810" lon="-5.786390">
        <ele>735.760</ele>
        <time>2020-02-28T15:11:33Z</time>
      </trkpt>
      <trkpt lat="40.108860" lon="-5.786400">
        <ele>736.271</ele>
        <time>2020-02-28T15:11:53Z</time>
      </trkpt>
      <trkpt lat="40.108940" lon="-5.786430">
        <ele>736.878</ele>
        <time>2020-02-28T15:12:13Z</time>
      </trkpt>
      <trkpt lat="40.109050" lon="-5.786490">
        <ele>737.518</ele>
        <time>2020-02-28T15:12:33Z</time>
      </trkpt>
      <trkpt lat="40.109060" lon="-5.786490">
        <ele>737.598</ele>
        <time>2020-02-28T15:12:53Z</time>
      </trkpt>
      <trkpt lat="40.109110" lon="-5.786530">
        <ele>738.117</ele>
        <time>2020-02-28T15:13:13Z</time>
      </trkpt>
      <trkpt lat="40.109350" lon="-5.786640">
        <ele>738.408</ele>
        <time>2020-02-28T15:13:33Z</time>
      </trkpt>
      <trkpt lat="40.109380" lon="-5.786640">
        <ele>738.155</ele>
        <time>2020-02-28T15:13:53Z</time>
      </trkpt>
      <trkpt lat="40.109520" lon="-5.786680">
        <ele>738.488</ele>
        <time>2020-02-28T15:14:13Z</time>
      </trkpt>
      <trkpt lat="40.109830" lon="-5.786710">
        <ele>738.823</ele>
        <time>2020-02-28T15:14:33Z</time>
      </trkpt>
      <trkpt lat="40.110420" lon="-5.786970">
        <ele>743.214</ele>
        <time>2020-02-28T15:14:53Z</time>
      </trkpt>
      <trkpt lat="40.110430" lon="-5.786980">
        <ele>743.547</ele>
        <time>2020-02-28T15:15:13Z</time>
      </trkpt>
      <trkpt lat="40.110590" lon="-5.787080">
        <ele>745.456</ele>
        <time>2020-02-28T15:15:33Z</time>
      </trkpt>
      <trkpt lat="40.110670" lon="-5.787160">
        <ele>746.027</ele>
        <time>2020-02-28T15:15:53Z</time>
      </trkpt>
      <trkpt lat="40.110770" lon="-5.787280">
        <ele>746.634</ele>
        <time>2020-02-28T15:16:13Z</time>
      </trkpt>
      <trkpt lat="40.110870" lon="-5.787430">
        <ele>747.438</ele>
        <time>2020-02-28T15:16:33Z</time>
      </trkpt>
      <trkpt lat="40.110950" lon="-5.787590">
        <ele>748.370</ele>
        <time>2020-02-28T15:16:53Z</time>
      </trkpt>
      <trkpt lat="40.111120" lon="-5.788010">
        <ele>750.917</ele>
        <time>2020-02-28T15:17:13Z</time>
      </trkpt>
      <trkpt lat="40.111150" lon="-5.788110">
        <ele>751.808</ele>
        <time>2020-02-28T15:17:33Z</time>
      </trkpt>
      <trkpt lat="40.111560" lon="-5.789130">
        <ele>754.657</ele>
        <time>2020-02-28T15:17:53Z</time>
      </trkpt>
      <trkpt lat="40.111780" lon="-5.789930">
        <ele>757.920</ele>
        <time>2020-02-28T15:18:13Z</time>
      </trkpt>
      <trkpt lat="40.111780" lon="-5.789940">
        <ele>758.195</ele>
        <time>2020-02-28T15:18:33Z</time>
      </trkpt>
      <trkpt lat="40.111970" lon="-5.790520">
        <ele>759.876</ele>
        <time>2020-02-28T15:18:53Z</time>
      </trkpt>
      <trkpt lat="40.112070" lon="-5.791030">
        <ele>760.759</ele>
        <time>2020-02-28T15:19:13Z</time>
      </trkpt>
      <trkpt lat="40.112110" lon="-5.791640">
        <ele>765.068</ele>
        <time>2020-02-28T15:19:33Z</time>
      </trkpt>
      <trkpt lat="40.112110" lon="-5.792110">
        <ele>769.989</ele>
        <time>2020-02-28T15:19:53Z</time>
      </trkpt>
      <trkpt lat="40.112180" lon="-5.792880">
        <ele>775.426</ele>
        <time>2020-02-28T15:20:13Z</time>
      </trkpt>
      <trkpt lat="40.112250" lon="-5.793280">
        <ele>777.218</ele>
        <time>2020-02-28T15:20:33Z</time>
      </trkpt>
      <trkpt lat="40.112290" lon="-5.793620">
        <ele>779.498</ele>
        <time>2020-02-28T15:20:53Z</time>
      </trkpt>
      <trkpt lat="40.112290" lon="-5.793670">
        <ele>780.017</ele>
        <time>2020-02-28T15:21:13Z</time>
      </trkpt>
      <trkpt lat="40.112320" lon="-5.793860">
        <ele>781.108</ele>
        <time>2020-02-28T15:21:33Z</time>
      </trkpt>
      <trkpt lat="40.112410" lon="-5.794240">
        <ele>783.455</ele>
        <time>2020-02-28T15:21:53Z</time>
      </trkpt>
      <trkpt lat="40.112750" lon="-5.795200">
        <ele>784.318</ele>
        <time>2020-02-28T15:22:13Z</time>
      </trkpt>
      <trkpt lat="40.112850" lon="-5.795590">
        <ele>784.993</ele>
        <time>2020-02-28T15:22:33Z</time>
      </trkpt>
      <trkpt lat="40.112890" lon="-5.795820">
        <ele>785.764</ele>
        <time>2020-02-28T15:22:53Z</time>
      </trkpt>
      <trkpt lat="40.112960" lon="-5.796070">
        <ele>785.247</ele>
        <time>2020-02-28T15:23:13Z</time>
      </trkpt>
      <trkpt lat="40.113000" lon="-5.796270">
        <ele>784.956</ele>
        <time>2020-02-28T15:23:33Z</time>
      </trkpt>
      <trkpt lat="40.112940" lon="-5.797010">
        <ele>791.257</ele>
        <time>2020-02-28T15:23:53Z</time>
      </trkpt>
      <trkpt lat="40.112860" lon="-5.797440">
        <ele>794.514</ele>
        <time>2020-02-28T15:24:13Z</time>
      </trkpt>
      <trkpt lat="40.112860" lon="-5.797470">
        <ele>794.378</ele>
        <time>2020-02-28T15:24:33Z</time>
      </trkpt>
      <trkpt lat="40.112800" lon="-5.797800">
        <ele>797.133</ele>
        <time>2020-02-28T15:24:53Z</time>
      </trkpt>
      <trkpt lat="40.112800" lon="-5.798230">
        <ele>799.026</ele>
        <time>2020-02-28T15:25:13Z</time>
      </trkpt>
      <trkpt lat="40.112780" lon="-5.798470">
        <ele>799.908</ele>
        <time>2020-02-28T15:25:33Z</time>
      </trkpt>
      <trkpt lat="40.112760" lon="-5.798510">
        <ele>800.751</ele>
        <time>2020-02-28T15:25:53Z</time>
      </trkpt>
      <trkpt lat="40.112740" lon="-5.798520">
        <ele>801.544</ele>
        <time>2020-02-28T15:26:13Z</time>
      </trkpt>
      <trkpt lat="40.112730" lon="-5.798530">
        <ele>802.019</ele>
        <time>2020-02-28T15:26:33Z</time>
      </trkpt>
      <trkpt lat="40.112710" lon="-5.798540">
        <ele>802.890</ele>
        <time>2020-02-28T15:26:53Z</time>
      </trkpt>
      <trkpt lat="40.112680" lon="-5.798540">
        <ele>804.043</ele>
        <time>2020-02-28T15:27:13Z</time>
      </trkpt>
      <trkpt lat="40.112630" lon="-5.798520">
        <ele>806.012</ele>
        <time>2020-02-28T15:27:33Z</time>
      </trkpt>
      <trkpt lat="40.112620" lon="-5.798500">
        <ele>806.413</ele>
        <time>2020-02-28T15:27:53Z</time>
      </trkpt>
      <trkpt lat="40.112610" lon="-5.798490">
        <ele>806.710</ele>
        <time>2020-02-28T15:28:13Z</time>
      </trkpt>
      <trkpt lat="40.112600" lon="-5.798470">
        <ele>807.069</ele>
        <time>2020-02-28T15:28:33Z</time>
      </trkpt>
      <trkpt lat="40.112580" lon="-5.798360">
        <ele>807.304</ele>
        <time>2020-02-28T15:28:53Z</time>
      </trkpt>
      <trkpt lat="40.112570" lon="-5.798240">
        <ele>807.524</ele>
        <time>2020-02-28T15:29:13Z</time>
      </trkpt>
      <trkpt lat="40.112570" lon="-5.797360">
        <ele>807.208</ele>
        <time>2020-02-28T15:29:33Z</time>
      </trkpt>
      <trkpt lat="40.112520" lon="-5.797030">
        <ele>809.370</ele>
        <time>2020-02-28T15:29:53Z</time>
      </trkpt>
      <trkpt lat="40.112270" lon="-5.796350">
        <ele>814.043</ele>
        <time>2020-02-28T15:30:13Z</time>
      </trkpt>
      <trkpt lat="40.112070" lon="-5.795930">
        <ele>816.018</ele>
        <time>2020-02-28T15:30:33Z</time>
      </trkpt>
      <trkpt lat="40.111550" lon="-5.794690">
        <ele>817.029</ele>
        <time>2020-02-28T15:30:53Z</time>
      </trkpt>
      <trkpt lat="40.111180" lon="-5.793630">
        <ele>821.932</ele>
        <time>2020-02-28T15:31:13Z</time>
      </trkpt>
      <trkpt lat="40.111180" lon="-5.793620">
        <ele>821.821</ele>
        <time>2020-02-28T15:31:33Z</time>
      </trkpt>
      <trkpt lat="40.110830" lon="-5.792200">
        <ele>828.042</ele>
        <time>2020-02-28T15:31:53Z</time>
      </trkpt>
      <trkpt lat="40.110740" lon="-5.791740">
        <ele>829.939</ele>
        <time>2020-02-28T15:32:13Z</time>
      </trkpt>
      <trkpt lat="40.110690" lon="-5.791610">
        <ele>831.035</ele>
        <time>2020-02-28T15:32:33Z</time>
      </trkpt>
      <trkpt lat="40.110590" lon="-5.791410">
        <ele>832.886</ele>
        <time>2020-02-28T15:32:53Z</time>
      </trkpt>
      <trkpt lat="40.110470" lon="-5.791270">
        <ele>834.914</ele>
        <time>2020-02-28T15:33:13Z</time>
      </trkpt>
      <trkpt lat="40.110450" lon="-5.791260">
        <ele>835.208</ele>
        <time>2020-02-28T15:33:33Z</time>
      </trkpt>
      <trkpt lat="40.110390" lon="-5.791210">
        <ele>835.997</ele>
        <time>2020-02-28T15:33:53Z</time>
      </trkpt>
      <trkpt lat="40.109890" lon="-5.790880">
        <ele>841.020</ele>
        <time>2020-02-28T15:34:13Z</time>
      </trkpt>
      <trkpt lat="40.109610" lon="-5.790750">
        <ele>842.245</ele>
        <time>2020-02-28T15:34:33Z</time>
      </trkpt>
      <trkpt lat="40.109350" lon="-5.790730">
        <ele>843.266</ele>
        <time>2020-02-28T15:34:53Z</time>
      </trkpt>
      <trkpt lat="40.109280" lon="-5.790740">
        <ele>843.729</ele>
        <time>2020-02-28T15:35:13Z</time>
      </trkpt>
      <trkpt lat="40.109070" lon="-5.790740">
        <ele>843.928</ele>
        <time>2020-02-28T15:35:33Z</time>
      </trkpt>
      <trkpt lat="40.108900" lon="-5.790760">
        <ele>844.469</ele>
        <time>2020-02-28T15:35:53Z</time>
      </trkpt>
      <trkpt lat="40.108750" lon="-5.790830">
        <ele>845.926</ele>
        <time>2020-02-28T15:36:13Z</time>
      </trkpt>
      <trkpt lat="40.108100" lon="-5.791220">
        <ele>850.245</ele>
        <time>2020-02-28T15:36:33Z</time>
      </trkpt>
      <trkpt lat="40.107970" lon="-5.791320">
        <ele>851.247</ele>
        <time>2020-02-28T15:36:53Z</time>
      </trkpt>
      <trkpt lat="40.107950" lon="-5.791350">
        <ele>851.611</ele>
        <time>2020-02-28T15:37:13Z</time>
      </trkpt>
      <trkpt lat="40.107870" lon="-5.791440">
        <ele>852.108</ele>
        <time>2020-02-28T15:37:33Z</time>
      </trkpt>
      <trkpt lat="40.107840" lon="-5.791540">
        <ele>852.948</ele>
        <time>2020-02-28T15:37:53Z</time>
      </trkpt>
      <trkpt lat="40.107840" lon="-5.791570">
        <ele>853.371</ele>
        <time>2020-02-28T15:38:13Z</time>
      </trkpt>
      <trkpt lat="40.107850" lon="-5.791610">
        <ele>854.046</ele>
        <time>2020-02-28T15:38:33Z</time>
      </trkpt>
      <trkpt lat="40.107880" lon="-5.791670">
        <ele>855.637</ele>
        <time>2020-02-28T15:38:53Z</time>
      </trkpt>
      <trkpt lat="40.107900" lon="-5.791690">
        <ele>856.390</ele>
        <time>2020-02-28T15:39:13Z</time>
      </trkpt>
      <trkpt lat="40.107930" lon="-5.791700">
        <ele>857.249</ele>
        <time>2020-02-28T15:39:33Z</time>
      </trkpt>
      <trkpt lat="40.107940" lon="-5.791700">
        <ele>857.410</ele>
        <time>2020-02-28T15:39:53Z</time>
      </trkpt>
      <trkpt lat="40.107950" lon="-5.791710">
        <ele>857.817</ele>
        <time>2020-02-28T15:40:13Z</time>
      </trkpt>
      <trkpt lat="40.107980" lon="-5.791700">
        <ele>858.547</ele>
        <time>2020-02-28T15:40:33Z</time>
      </trkpt>
      <trkpt lat="40.108130" lon="-5.791600">
        <ele>860.729</ele>
        <time>2020-02-28T15:40:53Z</time>
      </trkpt>
      <trkpt lat="40.108610" lon="-5.791360">
        <ele>862.821</ele>
        <time>2020-02-28T15:41:13Z</time>
      </trkpt>
      <trkpt lat="40.108690" lon="-5.791330">
        <ele>863.308</ele>
        <time>2020-02-28T15:41:33Z</time>
      </trkpt>
      <trkpt lat="40.108780" lon="-5.791310">
        <ele>864.458</ele>
        <time>2020-02-28T15:41:53Z</time>
      </trkpt>
      <trkpt lat="40.108960" lon="-5.791250">
        <ele>864.681</ele>
        <time>2020-02-28T15:42:13Z</time>
      </trkpt>
      <trkpt lat="40.109030" lon="-5.791250">
        <ele>864.256</ele>
        <time>2020-02-28T15:42:33Z</time>
      </trkpt>
      <trkpt lat="40.109070" lon="-5.791260">
        <ele>864.267</ele>
        <time>2020-02-28T15:42:53Z</time>
      </trkpt>
      <trkpt lat="40.109130" lon="-5.791290">
        <ele>864.550</ele>
        <time>2020-02-28T15:43:13Z</time>
      </trkpt>
      <trkpt lat="40.109270" lon="-5.791400">
        <ele>865.189</ele>
        <time>2020-02-28T15:43:33Z</time>
      </trkpt>
      <trkpt lat="40.109500" lon="-5.791640">
        <ele>865.490</ele>
        <time>2020-02-28T15:43:53Z</time>
      </trkpt>
      <trkpt lat="40.109550" lon="-5.791720">
        <ele>865.387</ele>
        <time>2020-02-28T15:44:13Z</time>
      </trkpt>
      <trkpt lat="40.109600" lon="-5.791780">
        <ele>864.963</ele>
        <time>2020-02-28T15:44:33Z</time>
      </trkpt>
      <trkpt lat="40.109670" lon="-5.791900">
        <ele>864.644</ele>
        <time>2020-02-28T15:44:53Z</time>
      </trkpt>
      <trkpt lat="40.109810" lon="-5.792270">
        <ele>865.218</ele>
        <time>2020-02-28T15:45:13Z</time>
      </trkpt>
      <trkpt lat="40.109880" lon="-5.792550">
        <ele>865.908</ele>
        <time>2020-02-28T15:45:33Z</time>
      </trkpt>
      <trkpt lat="40.110030" lon="-5.793650">
        <ele>871.270</ele>
        <time>2020-02-28T15:45:53Z</time>
      </trkpt>
      <trkpt lat="40.110030" lon="-5.793700">
        <ele>871.863</ele>
        <time>2020-02-28T15:46:13Z</time>
      </trkpt>
      <trkpt lat="40.110310" lon="-5.795390">
        <ele>877.438</ele>
        <time>2020-02-28T15:46:33Z</time>
      </trkpt>
      <trkpt lat="40.110320" lon="-5.795770">
        <ele>879.299</ele>
        <time>2020-02-28T15:46:53Z</time>
      </trkpt>
      <trkpt lat="40.110300" lon="-5.796010">
        <ele>881.512</ele>
        <time>2020-02-28T15:47:13Z</time>
      </trkpt>
      <trkpt lat="40.110210" lon="-5.796470">
        <ele>887.431</ele>
        <time>2020-02-28T15:47:33Z</time>
      </trkpt>
      <trkpt lat="40.110200" lon="-5.796580">
        <ele>888.592</ele>
        <time>2020-02-28T15:47:53Z</time>
      </trkpt>
      <trkpt lat="40.110210" lon="-5.796970">
        <ele>890.169</ele>
        <time>2020-02-28T15:48:13Z</time>
      </trkpt>
      <trkpt lat="40.110240" lon="-5.797180">
        <ele>890.469</ele>
        <time>2020-02-28T15:48:33Z</time>
      </trkpt>
      <trkpt lat="40.110340" lon="-5.797540">
        <ele>890.004</ele>
        <time>2020-02-28T15:48:53Z</time>
      </trkpt>
      <trkpt lat="40.110420" lon="-5.797740">
        <ele>889.724</ele>
        <time>2020-02-28T15:49:13Z</time>
      </trkpt>
      <trkpt lat="40.110430" lon="-5.797830">
        <ele>890.608</ele>
        <time>2020-02-28T15:49:33Z</time>
      </trkpt>
      <trkpt lat="40.110480" lon="-5.798050">
        <ele>891.550</ele>
        <time>2020-02-28T15:49:53Z</time>
      </trkpt>
      <trkpt lat="40.110510" lon="-5.798520">
        <ele>892.993</ele>
        <time>2020-02-28T15:50:13Z</time>
      </trkpt>
      <trkpt lat="40.110520" lon="-5.798540">
        <ele>892.558</ele>
        <time>2020-02-28T15:50:33Z</time>
      </trkpt>
      <trkpt lat="40.110530" lon="-5.798990">
        <ele>893.819</ele>
        <time>2020-02-28T15:50:53Z</time>
      </trkpt>
      <trkpt lat="40.110510" lon="-5.799520">
        <ele>896.982</ele>
        <time>2020-02-28T15:51:13Z</time>
      </trkpt>
      <trkpt lat="40.110440" lon="-5.800430">
        <ele>901.541</ele>
        <time>2020-02-28T15:51:33Z</time>
      </trkpt>
      <trkpt lat="40.110400" lon="-5.800700">
        <ele>902.592</ele>
        <time>2020-02-28T15:51:53Z</time>
      </trkpt>
      <trkpt lat="40.110380" lon="-5.800780">
        <ele>903.159</ele>
        <time>2020-02-28T15:52:13Z</time>
      </trkpt>
      <trkpt lat="40.110360" lon="-5.800810">
        <ele>903.778</ele>
        <time>2020-02-28T15:52:33Z</time>
      </trkpt>
      <trkpt lat="40.110340" lon="-5.800830">
        <ele>904.233</ele>
        <time>2020-02-28T15:52:53Z</time>
      </trkpt>
      <trkpt lat="40.110310" lon="-5.800850">
        <ele>905.226</ele>
        <time>2020-02-28T15:53:13Z</time>
      </trkpt>
      <trkpt lat="40.110260" lon="-5.800860">
        <ele>907.108</ele>
        <time>2020-02-28T15:53:33Z</time>
      </trkpt>
      <trkpt lat="40.110230" lon="-5.800840">
        <ele>908.511</ele>
        <time>2020-02-28T15:53:53Z</time>
      </trkpt>
      <trkpt lat="40.110180" lon="-5.800780">
        <ele>910.944</ele>
        <time>2020-02-28T15:54:13Z</time>
      </trkpt>
      <trkpt lat="40.110170" lon="-5.800700">
        <ele>911.249</ele>
        <time>2020-02-28T15:54:33Z</time>
      </trkpt>
      <trkpt lat="40.110190" lon="-5.800550">
        <ele>910.260</ele>
        <time>2020-02-28T15:54:53Z</time>
      </trkpt>
      <trkpt lat="40.110210" lon="-5.800220">
        <ele>911.613</ele>
        <time>2020-02-28T15:55:13Z</time>
      </trkpt>
      <trkpt lat="40.110200" lon="-5.799870">
        <ele>912.832</ele>
        <time>2020-02-28T15:55:33Z</time>
      </trkpt>
      <trkpt lat="40.109970" lon="-5.798550">
        <ele>921.153</ele>
        <time>2020-02-28T15:55:53Z</time>
      </trkpt>
      <trkpt lat="40.109810" lon="-5.798040">
        <ele>923.240</ele>
        <time>2020-02-28T15:56:13Z</time>
      </trkpt>
      <trkpt lat="40.109710" lon="-5.797810">
        <ele>923.836</ele>
        <time>2020-02-28T15:56:33Z</time>
      </trkpt>
      <trkpt lat="40.109650" lon="-5.797640">
        <ele>924.517</ele>
        <time>2020-02-28T15:56:53Z</time>
      </trkpt>
      <trkpt lat="40.109640" lon="-5.797630">
        <ele>924.718</ele>
        <time>2020-02-28T15:57:13Z</time>
      </trkpt>
      <trkpt lat="40.109460" lon="-5.797300">
        <ele>927.308</ele>
        <time>2020-02-28T15:57:33Z</time>
      </trkpt>
      <trkpt lat="40.109350" lon="-5.797030">
        <ele>928.917</ele>
        <time>2020-02-28T15:57:53Z</time>
      </trkpt>
      <trkpt lat="40.109230" lon="-5.796630">
        <ele>928.290</ele>
        <time>2020-02-28T15:58:13Z</time>
      </trkpt>
      <trkpt lat="40.109210" lon="-5.796600">
        <ele>928.635</ele>
        <time>2020-02-28T15:58:33Z</time>
      </trkpt>
      <trkpt lat="40.109210" lon="-5.796590">
        <ele>928.556</ele>
        <time>2020-02-28T15:58:53Z</time>
      </trkpt>
      <trkpt lat="40.108950" lon="-5.795980">
        <ele>932.779</ele>
        <time>2020-02-28T15:59:13Z</time>
      </trkpt>
      <trkpt lat="40.108740" lon="-5.795640">
        <ele>934.168</ele>
        <time>2020-02-28T15:59:33Z</time>
      </trkpt>
      <trkpt lat="40.108720" lon="-5.795620">
        <ele>934.279</ele>
        <time>2020-02-28T15:59:53Z</time>
      </trkpt>
      <trkpt lat="40.108670" lon="-5.795550">
        <ele>934.336</ele>
        <time>2020-02-28T16:00:13Z</time>
      </trkpt>
      <trkpt lat="40.108620" lon="-5.795530">
        <ele>934.758</ele>
        <time>2020-02-28T16:00:33Z</time>
      </trkpt>
      <trkpt lat="40.108570" lon="-5.795520">
        <ele>934.852</ele>
        <time>2020-02-28T16:00:53Z</time>
      </trkpt>
      <trkpt lat="40.108520" lon="-5.795530">
        <ele>934.817</ele>
        <time>2020-02-28T16:01:13Z</time>
      </trkpt>
      <trkpt lat="40.108470" lon="-5.795560">
        <ele>935.008</ele>
        <time>2020-02-28T16:01:33Z</time>
      </trkpt>
      <trkpt lat="40.108410" lon="-5.795620">
        <ele>935.559</ele>
        <time>2020-02-28T16:01:53Z</time>
      </trkpt>
      <trkpt lat="40.108310" lon="-5.795750">
        <ele>936.142</ele>
        <time>2020-02-28T16:02:13Z</time>
      </trkpt>
      <trkpt lat="40.108240" lon="-5.795920">
        <ele>936.297</ele>
        <time>2020-02-28T16:02:33Z</time>
      </trkpt>
      <trkpt lat="40.108230" lon="-5.795990">
        <ele>936.498</ele>
        <time>2020-02-28T16:02:53Z</time>
      </trkpt>
      <trkpt lat="40.108230" lon="-5.796070">
        <ele>936.971</ele>
        <time>2020-02-28T16:03:13Z</time>
      </trkpt>
      <trkpt lat="40.108240" lon="-5.796130">
        <ele>937.540</ele>
        <time>2020-02-28T16:03:33Z</time>
      </trkpt>
      <trkpt lat="40.108370" lon="-5.796470">
        <ele>941.671</ele>
        <time>2020-02-28T16:03:53Z</time>
      </trkpt>
      <trkpt lat="40.108990" lon="-5.797870">
        <ele>950.858</ele>
        <time>2020-02-28T16:04:13Z</time>
      </trkpt>
      <trkpt lat="40.109010" lon="-5.797900">
        <ele>950.712</ele>
        <time>2020-02-28T16:04:33Z</time>
      </trkpt>
      <trkpt lat="40.109110" lon="-5.798190">
        <ele>951.532</ele>
        <time>2020-02-28T16:04:53Z</time>
      </trkpt>
      <trkpt lat="40.109140" lon="-5.798350">
        <ele>951.805</ele>
        <time>2020-02-28T16:05:13Z</time>
      </trkpt>
      <trkpt lat="40.109170" lon="-5.798770">
        <ele>952.408</ele>
        <time>2020-02-28T16:05:33Z</time>
      </trkpt>
      <trkpt lat="40.109180" lon="-5.798800">
        <ele>952.295</ele>
        <time>2020-02-28T16:05:53Z</time>
      </trkpt>
      <trkpt lat="40.109170" lon="-5.799950">
        <ele>956.728</ele>
        <time>2020-02-28T16:06:13Z</time>
      </trkpt>
      <trkpt lat="40.109160" lon="-5.800040">
        <ele>957.233</ele>
        <time>2020-02-28T16:06:33Z</time>
      </trkpt>
      <trkpt lat="40.109160" lon="-5.800180">
        <ele>957.254</ele>
        <time>2020-02-28T16:06:53Z</time>
      </trkpt>
      <trkpt lat="40.109150" lon="-5.800190">
        <ele>957.637</ele>
        <time>2020-02-28T16:07:13Z</time>
      </trkpt>
      <trkpt lat="40.109030" lon="-5.801170">
        <ele>963.466</ele>
        <time>2020-02-28T16:07:33Z</time>
      </trkpt>
      <trkpt lat="40.109010" lon="-5.801580">
        <ele>967.047</ele>
        <time>2020-02-28T16:07:53Z</time>
      </trkpt>
      <trkpt lat="40.109110" lon="-5.802040">
        <ele>967.114</ele>
        <time>2020-02-28T16:08:13Z</time>
      </trkpt>
      <trkpt lat="40.109270" lon="-5.802560">
        <ele>966.758</ele>
        <time>2020-02-28T16:08:33Z</time>
      </trkpt>
      <trkpt lat="40.109280" lon="-5.802860">
        <ele>967.652</ele>
        <time>2020-02-28T16:08:53Z</time>
      </trkpt>
      <trkpt lat="40.109260" lon="-5.803130">
        <ele>968.417</ele>
        <time>2020-02-28T16:09:13Z</time>
      </trkpt>
      <trkpt lat="40.109110" lon="-5.804330">
        <ele>972.408</ele>
        <time>2020-02-28T16:09:33Z</time>
      </trkpt>
      <trkpt lat="40.109100" lon="-5.804360">
        <ele>972.739</ele>
        <time>2020-02-28T16:09:53Z</time>
      </trkpt>
      <trkpt lat="40.109010" lon="-5.805200">
        <ele>978.522</ele>
        <time>2020-02-28T16:10:13Z</time>
      </trkpt>
      <trkpt lat="40.108990" lon="-5.805550">
        <ele>985.127</ele>
        <time>2020-02-28T16:10:33Z</time>
      </trkpt>
      <trkpt lat="40.109000" lon="-5.805580">
        <ele>985.338</ele>
        <time>2020-02-28T16:10:53Z</time>
      </trkpt>
      <trkpt lat="40.109060" lon="-5.805660">
        <ele>985.421</ele>
        <time>2020-02-28T16:11:13Z</time>
      </trkpt>
      <trkpt lat="40.109130" lon="-5.805700">
        <ele>985.190</ele>
        <time>2020-02-28T16:11:33Z</time>
      </trkpt>
      <trkpt lat="40.109170" lon="-5.805710">
        <ele>984.951</ele>
        <time>2020-02-28T16:11:53Z</time>
      </trkpt>
      <trkpt lat="40.109200" lon="-5.805710">
        <ele>985.628</ele>
        <time>2020-02-28T16:12:13Z</time>
      </trkpt>
      <trkpt lat="40.109690" lon="-5.805510">
        <ele>990.354</ele>
        <time>2020-02-28T16:12:33Z</time>
      </trkpt>
      <trkpt lat="40.109860" lon="-5.805470">
        <ele>992.056</ele>
        <time>2020-02-28T16:12:53Z</time>
      </trkpt>
      <trkpt lat="40.110010" lon="-5.805450">
        <ele>993.611</ele>
        <time>2020-02-28T16:13:13Z</time>
      </trkpt>
      <trkpt lat="40.110130" lon="-5.805470">
        <ele>994.208</ele>
        <time>2020-02-28T16:13:33Z</time>
      </trkpt>
      <trkpt lat="40.110150" lon="-5.805480">
        <ele>994.649</ele>
        <time>2020-02-28T16:13:53Z</time>
      </trkpt>
      <trkpt lat="40.110290" lon="-5.805520">
        <ele>995.782</ele>
        <time>2020-02-28T16:14:13Z</time>
      </trkpt>
      <trkpt lat="40.110300" lon="-5.805520">
        <ele>995.787</ele>
        <time>2020-02-28T16:14:33Z</time>
      </trkpt>
      <trkpt lat="40.110430" lon="-5.805560">
        <ele>996.068</ele>
        <time>2020-02-28T16:14:53Z</time>
      </trkpt>
      <trkpt lat="40.110810" lon="-5.805770">
        <ele>998.131</ele>
        <time>2020-02-28T16:15:13Z</time>
      </trkpt>
      <trkpt lat="40.110820" lon="-5.805780">
        <ele>998.290</ele>
        <time>2020-02-28T16:15:33Z</time>
      </trkpt>
      <trkpt lat="40.111030" lon="-5.805830">
        <ele>998.911</ele>
        <time>2020-02-28T16:15:53Z</time>
      </trkpt>
      <trkpt lat="40.111120" lon="-5.805810">
        <ele>998.988</ele>
        <time>2020-02-28T16:16:13Z</time>
      </trkpt>
      <trkpt lat="40.111160" lon="-5.805790">
        <ele>999.499</ele>
        <time>2020-02-28T16:16:33Z</time>
      </trkpt>
      <trkpt lat="40.111170" lon="-5.805790">
        <ele>999.607</ele>
        <time>2020-02-28T16:16:53Z</time>
      </trkpt>
      <trkpt lat="40.111230" lon="-5.805740">
        <ele>999.927</ele>
        <time>2020-02-28T16:17:13Z</time>
      </trkpt>
      <trkpt lat="40.111300" lon="-5.805660">
        <ele>999.708</ele>
        <time>2020-02-28T16:17:33Z</time>
      </trkpt>
      <trkpt lat="40.111460" lon="-5.805510">
        <ele>999.093</ele>
        <time>2020-02-28T16:17:53Z</time>
      </trkpt>
      <trkpt lat="40.111600" lon="-5.805400">
        <ele>998.786</ele>
        <time>2020-02-28T16:18:13Z</time>
      </trkpt>
      <trkpt lat="40.111700" lon="-5.805370">
        <ele>998.971</ele>
        <time>2020-02-28T16:18:33Z</time>
      </trkpt>
      <trkpt lat="40.111780" lon="-5.805360">
        <ele>998.452</ele>
        <time>2020-02-28T16:18:53Z</time>
      </trkpt>
      <trkpt lat="40.111870" lon="-5.805390">
        <ele>998.745</ele>
        <time>2020-02-28T16:19:13Z</time>
      </trkpt>
      <trkpt lat="40.111920" lon="-5.805420">
        <ele>999.294</ele>
        <time>2020-02-28T16:19:33Z</time>
      </trkpt>
      <trkpt lat="40.111940" lon="-5.805450">
        <ele>999.795</ele>
        <time>2020-02-28T16:19:53Z</time>
      </trkpt>
      <trkpt lat="40.111960" lon="-5.805470">
        <ele>999.672</ele>
        <time>2020-02-28T16:20:13Z</time>
      </trkpt>
      <trkpt lat="40.112020" lon="-5.805570">
        <ele>999.578</ele>
        <time>2020-02-28T16:20:33Z</time>
      </trkpt>
      <trkpt lat="40.112090" lon="-5.805810">
        <ele>1001.433</ele>
        <time>2020-02-28T16:20:53Z</time>
      </trkpt>
      <trkpt lat="40.112200" lon="-5.806400">
        <ele>1005.726</ele>
        <time>2020-02-28T16:21:13Z</time>
      </trkpt>
      <trkpt lat="40.112290" lon="-5.806770">
        <ele>1006.708</ele>
        <time>2020-02-28T16:21:33Z</time>
      </trkpt>
      <trkpt lat="40.112300" lon="-5.806840">
        <ele>1007.491</ele>
        <time>2020-02-28T16:21:53Z</time>
      </trkpt>
      <trkpt lat="40.112340" lon="-5.807000">
        <ele>1009.584</ele>
        <time>2020-02-28T16:22:13Z</time>
      </trkpt>
      <trkpt lat="40.112350" lon="-5.807000">
        <ele>1009.489</ele>
        <time>2020-02-28T16:22:33Z</time>
      </trkpt>
      <trkpt lat="40.112420" lon="-5.807170">
        <ele>1011.710</ele>
        <time>2020-02-28T16:22:53Z</time>
      </trkpt>
      <trkpt lat="40.112590" lon="-5.807480">
        <ele>1014.983</ele>
        <time>2020-02-28T16:23:13Z</time>
      </trkpt>
      <trkpt lat="40.112750" lon="-5.807690">
        <ele>1016.182</ele>
        <time>2020-02-28T16:23:33Z</time>
      </trkpt>
      <trkpt lat="40.112940" lon="-5.807860">
        <ele>1016.833</ele>
        <time>2020-02-28T16:23:53Z</time>
      </trkpt>
      <trkpt lat="40.113190" lon="-5.808200">
        <ele>1018.680</ele>
        <time>2020-02-28T16:24:13Z</time>
      </trkpt>
      <trkpt lat="40.113420" lon="-5.808590">
        <ele>1016.548</ele>
        <time>2020-02-28T16:24:33Z</time>
      </trkpt>
      <trkpt lat="40.113680" lon="-5.809130">
        <ele>1018.461</ele>
        <time>2020-02-28T16:24:53Z</time>
      </trkpt>
      <trkpt lat="40.113690" lon="-5.809170">
        <ele>1018.817</ele>
        <time>2020-02-28T16:25:13Z</time>
      </trkpt>
      <trkpt lat="40.113860" lon="-5.809590">
        <ele>1019.208</ele>
        <time>2020-02-28T16:25:33Z</time>
      </trkpt>
      <trkpt lat="40.114350" lon="-5.810980">
        <ele>1030.298</ele>
        <time>2020-02-28T16:25:53Z</time>
      </trkpt>
      <trkpt lat="40.114370" lon="-5.811000">
        <ele>1030.381</ele>
        <time>2020-02-28T16:26:13Z</time>
      </trkpt>
      <trkpt lat="40.114440" lon="-5.811040">
        <ele>1029.616</ele>
        <time>2020-02-28T16:26:33Z</time>
      </trkpt>
      <trkpt lat="40.114470" lon="-5.811040">
        <ele>1030.227</ele>
        <time>2020-02-28T16:26:53Z</time>
      </trkpt>
      <trkpt lat="40.114530" lon="-5.811030">
        <ele>1031.670</ele>
        <time>2020-02-28T16:27:13Z</time>
      </trkpt>
      <trkpt lat="40.114590" lon="-5.810990">
        <ele>1032.059</ele>
        <time>2020-02-28T16:27:33Z</time>
      </trkpt>
      <trkpt lat="40.114600" lon="-5.810990">
        <ele>1032.280</ele>
        <time>2020-02-28T16:27:53Z</time>
      </trkpt>
      <trkpt lat="40.114700" lon="-5.810900">
        <ele>1031.237</ele>
        <time>2020-02-28T16:28:13Z</time>
      </trkpt>
      <trkpt lat="40.114960" lon="-5.810600">
        <ele>1036.782</ele>
        <time>2020-02-28T16:28:33Z</time>
      </trkpt>
      <trkpt lat="40.115020" lon="-5.810460">
        <ele>1037.143</ele>
        <time>2020-02-28T16:28:53Z</time>
      </trkpt>
      <trkpt lat="40.115070" lon="-5.810230">
        <ele>1037.117</ele>
        <time>2020-02-28T16:29:13Z</time>
      </trkpt>
      <trkpt lat="40.115190" lon="-5.809880">
        <ele>1037.508</ele>
        <time>2020-02-28T16:29:33Z</time>
      </trkpt>
      <trkpt lat="40.115190" lon="-5.809870">
        <ele>1037.442</ele>
        <time>2020-02-28T16:29:53Z</time>
      </trkpt>
      <trkpt lat="40.115510" lon="-5.809130">
        <ele>1040.395</ele>
        <time>2020-02-28T16:30:13Z</time>
      </trkpt>
      <trkpt lat="40.115970" lon="-5.808240">
        <ele>1046.260</ele>
        <time>2020-02-28T16:30:33Z</time>
      </trkpt>
      <trkpt lat="40.116120" lon="-5.807860">
        <ele>1045.081</ele>
        <time>2020-02-28T16:30:53Z</time>
      </trkpt>
      <trkpt lat="40.116270" lon="-5.807570">
        <ele>1047.344</ele>
        <time>2020-02-28T16:31:13Z</time>
      </trkpt>
      <trkpt lat="40.116420" lon="-5.807380">
        <ele>1049.773</ele>
        <time>2020-02-28T16:31:33Z</time>
      </trkpt>
      <trkpt lat="40.116470" lon="-5.807330">
        <ele>1050.114</ele>
        <time>2020-02-28T16:31:53Z</time>
      </trkpt>
      <trkpt lat="40.117240" lon="-5.806390">
        <ele>1050.361</ele>
        <time>2020-02-28T16:32:13Z</time>
      </trkpt>
      <trkpt lat="40.117290" lon="-5.806360">
        <ele>1050.283</ele>
        <time>2020-02-28T16:32:33Z</time>
      </trkpt>
      <trkpt lat="40.117370" lon="-5.806330">
        <ele>1050.625</ele>
        <time>2020-02-28T16:32:53Z</time>
      </trkpt>
      <trkpt lat="40.117520" lon="-5.806320">
        <ele>1052.317</ele>
        <time>2020-02-28T16:33:13Z</time>
      </trkpt>
      <trkpt lat="40.117670" lon="-5.806350">
        <ele>1053.208</ele>
        <time>2020-02-28T16:33:33Z</time>
      </trkpt>
      <trkpt lat="40.117790" lon="-5.806390">
        <ele>1054.192</ele>
        <time>2020-02-28T16:33:53Z</time>
      </trkpt>
      <trkpt lat="40.117850" lon="-5.806400">
        <ele>1054.575</ele>
        <time>2020-02-28T16:34:13Z</time>
      </trkpt>
      <trkpt lat="40.117980" lon="-5.806400">
        <ele>1054.950</ele>
        <time>2020-02-28T16:34:33Z</time>
      </trkpt>
      <trkpt lat="40.118390" lon="-5.806320">
        <ele>1056.311</ele>
        <time>2020-02-28T16:34:53Z</time>
      </trkpt>
      <trkpt lat="40.118470" lon="-5.806320">
        <ele>1055.274</ele>
        <time>2020-02-28T16:35:13Z</time>
      </trkpt>
      <trkpt lat="40.118520" lon="-5.806340">
        <ele>1055.073</ele>
        <time>2020-02-28T16:35:33Z</time>
      </trkpt>
      <trkpt lat="40.118570" lon="-5.806370">
        <ele>1055.124</ele>
        <time>2020-02-28T16:35:53Z</time>
      </trkpt>
      <trkpt lat="40.118640" lon="-5.806440">
        <ele>1056.371</ele>
        <time>2020-02-28T16:36:13Z</time>
      </trkpt>
      <trkpt lat="40.118650" lon="-5.806460">
        <ele>1056.871</ele>
        <time>2020-02-28T16:36:33Z</time>
      </trkpt>
      <trkpt lat="40.118680" lon="-5.806500">
        <ele>1057.741</ele>
        <time>2020-02-28T16:36:53Z</time>
      </trkpt>
      <trkpt lat="40.118770" lon="-5.806670">
        <ele>1060.915</ele>
        <time>2020-02-28T16:37:13Z</time>
      </trkpt>
      <trkpt lat="40.118810" lon="-5.806690">
        <ele>1061.208</ele>
        <time>2020-02-28T16:37:33Z</time>
      </trkpt>
      <trkpt lat="40.118890" lon="-5.806710">
        <ele>1061.291</ele>
        <time>2020-02-28T16:37:53Z</time>
      </trkpt>
      <trkpt lat="40.118930" lon="-5.806710">
        <ele>1062.214</ele>
        <time>2020-02-28T16:38:13Z</time>
      </trkpt>
      <trkpt lat="40.119050" lon="-5.806650">
        <ele>1063.399</ele>
        <time>2020-02-28T16:38:33Z</time>
      </trkpt>
      <trkpt lat="40.119090" lon="-5.806620">
        <ele>1063.870</ele>
        <time>2020-02-28T16:38:53Z</time>
      </trkpt>
      <trkpt lat="40.119130" lon="-5.806580">
        <ele>1064.113</ele>
        <time>2020-02-28T16:39:13Z</time>
      </trkpt>
      <trkpt lat="40.119440" lon="-5.806500">
        <ele>1065.422</ele>
        <time>2020-02-28T16:39:33Z</time>
      </trkpt>
      <trkpt lat="40.119510" lon="-5.806470">
        <ele>1066.543</ele>
        <time>2020-02-28T16:39:53Z</time>
      </trkpt>
      <trkpt lat="40.119570" lon="-5.806430">
        <ele>1067.420</ele>
        <time>2020-02-28T16:40:13Z</time>
      </trkpt>
      <trkpt lat="40.119600" lon="-5.806400">
        <ele>1067.734</ele>
        <time>2020-02-28T16:40:33Z</time>
      </trkpt>
      <trkpt lat="40.119610" lon="-5.806380">
        <ele>1067.655</ele>
        <time>2020-02-28T16:40:53Z</time>
      </trkpt>
      <trkpt lat="40.119650" lon="-5.806330">
        <ele>1068.010</ele>
        <time>2020-02-28T16:41:13Z</time>
      </trkpt>
      <trkpt lat="40.119740" lon="-5.806100">
        <ele>1067.508</ele>
        <time>2020-02-28T16:41:33Z</time>
      </trkpt>
      <trkpt lat="40.119840" lon="-5.805970">
        <ele>1068.097</ele>
        <time>2020-02-28T16:41:53Z</time>
      </trkpt>
      <trkpt lat="40.120000" lon="-5.805870">
        <ele>1069.530</ele>
        <time>2020-02-28T16:42:13Z</time>
      </trkpt>
      <trkpt lat="40.120110" lon="-5.805820">
        <ele>1070.965</ele>
        <time>2020-02-28T16:42:33Z</time>
      </trkpt>
      <trkpt lat="40.120160" lon="-5.805780">
        <ele>1071.696</ele>
        <time>2020-02-28T16:42:53Z</time>
      </trkpt>
      <trkpt lat="40.120240" lon="-5.805640">
        <ele>1071.429</ele>
        <time>2020-02-28T16:43:13Z</time>
      </trkpt>
      <trkpt lat="40.120280" lon="-5.805520">
        <ele>1070.598</ele>
        <time>2020-02-28T16:43:33Z</time>
      </trkpt>
      <trkpt lat="40.120300" lon="-5.805490">
        <ele>1070.479</ele>
        <time>2020-02-28T16:43:53Z</time>
      </trkpt>
      <trkpt lat="40.120330" lon="-5.805470">
        <ele>1070.646</ele>
        <time>2020-02-28T16:44:13Z</time>
      </trkpt>
      <trkpt lat="40.120380" lon="-5.805490">
        <ele>1071.659</ele>
        <time>2020-02-28T16:44:33Z</time>
      </trkpt>
      <trkpt lat="40.120400" lon="-5.805520">
        <ele>1072.303</ele>
        <time>2020-02-28T16:44:53Z</time>
      </trkpt>
      <trkpt lat="40.120420" lon="-5.805540">
        <ele>1072.923</ele>
        <time>2020-02-28T16:45:13Z</time>
      </trkpt>
      <trkpt lat="40.120430" lon="-5.805570">
        <ele>1073.408</ele>
        <time>2020-02-28T16:45:33Z</time>
      </trkpt>
      <trkpt lat="40.120430" lon="-5.805650">
        <ele>1074.589</ele>
        <time>2020-02-28T16:45:53Z</time>
      </trkpt>
      <trkpt lat="40.120420" lon="-5.805670">
        <ele>1074.732</ele>
        <time>2020-02-28T16:46:13Z</time>
      </trkpt>
      <trkpt lat="40.120410" lon="-5.805710">
        <ele>1075.217</ele>
        <time>2020-02-28T16:46:33Z</time>
      </trkpt>
      <trkpt lat="40.120370" lon="-5.805750">
        <ele>1075.448</ele>
        <time>2020-02-28T16:46:53Z</time>
      </trkpt>
      <trkpt lat="40.120300" lon="-5.805840">
        <ele>1076.391</ele>
        <time>2020-02-28T16:47:13Z</time>
      </trkpt>
      <trkpt lat="40.120020" lon="-5.806100">
        <ele>1078.770</ele>
        <time>2020-02-28T16:47:33Z</time>
      </trkpt>
      <trkpt lat="40.119890" lon="-5.806260">
        <ele>1077.091</ele>
        <time>2020-02-28T16:47:53Z</time>
      </trkpt>
      <trkpt lat="40.119780" lon="-5.806560">
        <ele>1076.558</ele>
        <time>2020-02-28T16:48:13Z</time>
      </trkpt>
      <trkpt lat="40.119720" lon="-5.806800">
        <ele>1077.478</ele>
        <time>2020-02-28T16:48:33Z</time>
      </trkpt>
      <trkpt lat="40.119670" lon="-5.806910">
        <ele>1078.633</ele>
        <time>2020-02-28T16:48:53Z</time>
      </trkpt>
      <trkpt lat="40.119600" lon="-5.806990">
        <ele>1079.026</ele>
        <time>2020-02-28T16:49:13Z</time>
      </trkpt>
      <trkpt lat="40.119530" lon="-5.807040">
        <ele>1079.108</ele>
        <time>2020-02-28T16:49:33Z</time>
      </trkpt>
      <trkpt lat="40.119530" lon="-5.807050">
        <ele>1079.381</ele>
        <time>2020-02-28T16:49:53Z</time>
      </trkpt>
      <trkpt lat="40.119440" lon="-5.807080">
        <ele>1078.924</ele>
        <time>2020-02-28T16:50:13Z</time>
      </trkpt>
      <trkpt lat="40.119260" lon="-5.807170">
        <ele>1081.369</ele>
        <time>2020-02-28T16:50:33Z</time>
      </trkpt>
      <trkpt lat="40.118850" lon="-5.807410">
        <ele>1085.840</ele>
        <time>2020-02-28T16:50:53Z</time>
      </trkpt>
      <trkpt lat="40.118590" lon="-5.807640">
        <ele>1085.863</ele>
        <time>2020-02-28T16:51:13Z</time>
      </trkpt>
      <trkpt lat="40.118540" lon="-5.807670">
        <ele>1085.872</ele>
        <time>2020-02-28T16:51:33Z</time>
      </trkpt>
      <trkpt lat="40.118480" lon="-5.807680">
        <ele>1085.583</ele>
        <time>2020-02-28T16:51:53Z</time>
      </trkpt>
      <trkpt lat="40.118380" lon="-5.807660">
        <ele>1084.360</ele>
        <time>2020-02-28T16:52:13Z</time>
      </trkpt>
      <trkpt lat="40.118340" lon="-5.807620">
        <ele>1083.239</ele>
        <time>2020-02-28T16:52:33Z</time>
      </trkpt>
      <trkpt lat="40.118260" lon="-5.807560">
        <ele>1083.501</ele>
        <time>2020-02-28T16:52:53Z</time>
      </trkpt>
      <trkpt lat="40.118150" lon="-5.807520">
        <ele>1084.721</ele>
        <time>2020-02-28T16:53:13Z</time>
      </trkpt>
      <trkpt lat="40.118080" lon="-5.807530">
        <ele>1086.208</ele>
        <time>2020-02-28T16:53:33Z</time>
      </trkpt>
      <trkpt lat="40.118060" lon="-5.807550">
        <ele>1087.047</ele>
        <time>2020-02-28T16:53:53Z</time>
      </trkpt>
      <trkpt lat="40.117900" lon="-5.807660">
        <ele>1089.510</ele>
        <time>2020-02-28T16:54:13Z</time>
      </trkpt>
      <trkpt lat="40.117870" lon="-5.807690">
        <ele>1090.195</ele>
        <time>2020-02-28T16:54:33Z</time>
      </trkpt>
      <trkpt lat="40.117730" lon="-5.807750">
        <ele>1091.216</ele>
        <time>2020-02-28T16:54:53Z</time>
      </trkpt>
      <trkpt lat="40.117380" lon="-5.807850">
        <ele>1091.859</ele>
        <time>2020-02-28T16:55:13Z</time>
      </trkpt>
      <trkpt lat="40.117290" lon="-5.807900">
        <ele>1092.148</ele>
        <time>2020-02-28T16:55:33Z</time>
      </trkpt>
      <trkpt lat="40.117250" lon="-5.807940">
        <ele>1092.599</ele>
        <time>2020-02-28T16:55:53Z</time>
      </trkpt>
      <trkpt lat="40.117240" lon="-5.807980">
        <ele>1093.076</ele>
        <time>2020-02-28T16:56:13Z</time>
      </trkpt>
      <trkpt lat="40.117210" lon="-5.808040">
        <ele>1093.696</ele>
        <time>2020-02-28T16:56:33Z</time>
      </trkpt>
      <trkpt lat="40.117210" lon="-5.808090">
        <ele>1094.431</ele>
        <time>2020-02-28T16:56:53Z</time>
      </trkpt>
      <trkpt lat="40.117230" lon="-5.808170">
        <ele>1096.124</ele>
        <time>2020-02-28T16:57:13Z</time>
      </trkpt>
      <trkpt lat="40.117250" lon="-5.808190">
        <ele>1096.608</ele>
        <time>2020-02-28T16:57:33Z</time>
      </trkpt>
      <trkpt lat="40.117260" lon="-5.808190">
        <ele>1096.743</ele>
        <time>2020-02-28T16:57:53Z</time>
      </trkpt>
      <trkpt lat="40.117320" lon="-5.808210">
        <ele>1097.546</ele>
        <time>2020-02-28T16:58:13Z</time>
      </trkpt>
      <trkpt lat="40.117400" lon="-5.808210">
        <ele>1098.161</ele>
        <time>2020-02-28T16:58:33Z</time>
      </trkpt>
      <trkpt lat="40.117840" lon="-5.808110">
        <ele>1098.712</ele>
        <time>2020-02-28T16:58:53Z</time>
      </trkpt>
      <trkpt lat="40.117930" lon="-5.808110">
        <ele>1098.515</ele>
        <time>2020-02-28T16:59:13Z</time>
      </trkpt>
      <trkpt lat="40.118000" lon="-5.808130">
        <ele>1099.074</ele>
        <time>2020-02-28T16:59:33Z</time>
      </trkpt>
      <trkpt lat="40.118070" lon="-5.808170">
        <ele>1099.625</ele>
        <time>2020-02-28T16:59:53Z</time>
      </trkpt>
      <trkpt lat="40.118260" lon="-5.808370">
        <ele>1100.542</ele>
        <time>2020-02-28T17:00:13Z</time>
      </trkpt>
      <trkpt lat="40.118260" lon="-5.808380">
        <ele>1100.867</ele>
        <time>2020-02-28T17:00:33Z</time>
      </trkpt>
      <trkpt lat="40.118390" lon="-5.808530">
        <ele>1102.281</ele>
        <time>2020-02-28T17:00:53Z</time>
      </trkpt>
      <trkpt lat="40.118470" lon="-5.808600">
        <ele>1103.819</ele>
        <time>2020-02-28T17:01:13Z</time>
      </trkpt>
      <trkpt lat="40.118580" lon="-5.808620">
        <ele>1104.208</ele>
        <time>2020-02-28T17:01:33Z</time>
      </trkpt>
      <trkpt lat="40.118630" lon="-5.808610">
        <ele>1104.560</ele>
        <time>2020-02-28T17:01:53Z</time>
      </trkpt>
      <trkpt lat="40.118680" lon="-5.808590">
        <ele>1105.283</ele>
        <time>2020-02-28T17:02:13Z</time>
      </trkpt>
      <trkpt lat="40.118890" lon="-5.808470">
        <ele>1106.998</ele>
        <time>2020-02-28T17:02:33Z</time>
      </trkpt>
      <trkpt lat="40.118900" lon="-5.808470">
        <ele>1107.069</ele>
        <time>2020-02-28T17:02:53Z</time>
      </trkpt>
      <trkpt lat="40.119070" lon="-5.808420">
        <ele>1105.912</ele>
        <time>2020-02-28T17:03:13Z</time>
      </trkpt>
      <trkpt lat="40.119170" lon="-5.808420">
        <ele>1106.211</ele>
        <time>2020-02-28T17:03:33Z</time>
      </trkpt>
      <trkpt lat="40.119210" lon="-5.808430">
        <ele>1106.232</ele>
        <time>2020-02-28T17:03:53Z</time>
      </trkpt>
      <trkpt lat="40.119240" lon="-5.808450">
        <ele>1106.559</ele>
        <time>2020-02-28T17:04:13Z</time>
      </trkpt>
      <trkpt lat="40.119250" lon="-5.808450">
        <ele>1106.483</ele>
        <time>2020-02-28T17:04:33Z</time>
      </trkpt>
      <trkpt lat="40.119350" lon="-5.808520">
        <ele>1107.225</ele>
        <time>2020-02-28T17:04:53Z</time>
      </trkpt>
      <trkpt lat="40.119510" lon="-5.808600">
        <ele>1109.217</ele>
        <time>2020-02-28T17:05:13Z</time>
      </trkpt>
      <trkpt lat="40.119540" lon="-5.808600">
        <ele>1109.808</ele>
        <time>2020-02-28T17:05:33Z</time>
      </trkpt>
      <trkpt lat="40.119580" lon="-5.808590">
        <ele>1110.422</ele>
        <time>2020-02-28T17:05:53Z</time>
      </trkpt>
      <trkpt lat="40.119650" lon="-5.808550">
        <ele>1110.925</ele>
        <time>2020-02-28T17:06:13Z</time>
      </trkpt>
      <trkpt lat="40.119740" lon="-5.808470">
        <ele>1110.570</ele>
        <time>2020-02-28T17:06:33Z</time>
      </trkpt>
      <trkpt lat="40.119770" lon="-5.808450">
        <ele>1111.011</ele>
        <time>2020-02-28T17:06:53Z</time>
      </trkpt>
      <trkpt lat="40.119890" lon="-5.808320">
        <ele>1111.164</ele>
        <time>2020-02-28T17:07:13Z</time>
      </trkpt>
      <trkpt lat="40.120300" lon="-5.808110">
        <ele>1115.363</ele>
        <time>2020-02-28T17:07:33Z</time>
      </trkpt>
      <trkpt lat="40.120360" lon="-5.808070">
        <ele>1115.564</ele>
        <time>2020-02-28T17:07:53Z</time>
      </trkpt>
      <trkpt lat="40.120370" lon="-5.808050">
        <ele>1115.351</ele>
        <time>2020-02-28T17:08:13Z</time>
      </trkpt>
      <trkpt lat="40.120510" lon="-5.807900">
        <ele>1115.655</ele>
        <time>2020-02-28T17:08:33Z</time>
      </trkpt>
      <trkpt lat="40.120570" lon="-5.807820">
        <ele>1115.807</ele>
        <time>2020-02-28T17:08:53Z</time>
      </trkpt>
      <trkpt lat="40.120650" lon="-5.807690">
        <ele>1115.717</ele>
        <time>2020-02-28T17:09:13Z</time>
      </trkpt>
      <trkpt lat="40.120910" lon="-5.807370">
        <ele>1115.808</ele>
        <time>2020-02-28T17:09:33Z</time>
      </trkpt>
      <trkpt lat="40.121110" lon="-5.807160">
        <ele>1115.939</ele>
        <time>2020-02-28T17:09:53Z</time>
      </trkpt>
      <trkpt lat="40.121440" lon="-5.806850">
        <ele>1117.272</ele>
        <time>2020-02-28T17:10:13Z</time>
      </trkpt>
      <trkpt lat="40.121520" lon="-5.806810">
        <ele>1117.377</ele>
        <time>2020-02-28T17:10:33Z</time>
      </trkpt>
      <trkpt lat="40.121600" lon="-5.806800">
        <ele>1117.838</ele>
        <time>2020-02-28T17:10:53Z</time>
      </trkpt>
      <trkpt lat="40.121960" lon="-5.806810">
        <ele>1119.971</ele>
        <time>2020-02-28T17:11:13Z</time>
      </trkpt>
      <trkpt lat="40.122070" lon="-5.806790">
        <ele>1120.820</ele>
        <time>2020-02-28T17:11:33Z</time>
      </trkpt>
      <trkpt lat="40.122140" lon="-5.806760">
        <ele>1120.841</ele>
        <time>2020-02-28T17:11:53Z</time>
      </trkpt>
      <trkpt lat="40.122190" lon="-5.806730">
        <ele>1120.678</ele>
        <time>2020-02-28T17:12:13Z</time>
      </trkpt>
      <trkpt lat="40.122310" lon="-5.806600">
        <ele>1121.058</ele>
        <time>2020-02-28T17:12:33Z</time>
      </trkpt>
      <trkpt lat="40.122340" lon="-5.806580">
        <ele>1121.752</ele>
        <time>2020-02-28T17:12:53Z</time>
      </trkpt>
      <trkpt lat="40.122640" lon="-5.806210">
        <ele>1123.417</ele>
        <time>2020-02-28T17:13:13Z</time>
      </trkpt>
      <trkpt lat="40.122780" lon="-5.806080">
        <ele>1122.908</ele>
        <time>2020-02-28T17:13:33Z</time>
      </trkpt>
      <trkpt lat="40.122840" lon="-5.806060">
        <ele>1122.889</ele>
        <time>2020-02-28T17:13:53Z</time>
      </trkpt>
      <trkpt lat="40.122980" lon="-5.806060">
        <ele>1124.232</ele>
        <time>2020-02-28T17:14:13Z</time>
      </trkpt>
      <trkpt lat="40.123060" lon="-5.806050">
        <ele>1124.697</ele>
        <time>2020-02-28T17:14:33Z</time>
      </trkpt>
      <trkpt lat="40.123120" lon="-5.806050">
        <ele>1125.458</ele>
        <time>2020-02-28T17:14:53Z</time>
      </trkpt>
      <trkpt lat="40.124080" lon="-5.805840">
        <ele>1133.191</ele>
        <time>2020-02-28T17:15:13Z</time>
      </trkpt>
      <trkpt lat="40.124130" lon="-5.805820">
        <ele>1133.780</ele>
        <time>2020-02-28T17:15:33Z</time>
      </trkpt>
      <trkpt lat="40.124140" lon="-5.805820">
        <ele>1134.031</ele>
        <time>2020-02-28T17:15:53Z</time>
      </trkpt>
      <trkpt lat="40.124240" lon="-5.805710">
        <ele>1133.728</ele>
        <time>2020-02-28T17:16:13Z</time>
      </trkpt>
      <trkpt lat="40.124340" lon="-5.805500">
        <ele>1133.976</ele>
        <time>2020-02-28T17:16:33Z</time>
      </trkpt>
      <trkpt lat="40.124400" lon="-5.805240">
        <ele>1135.190</ele>
        <time>2020-02-28T17:16:53Z</time>
      </trkpt>
      <trkpt lat="40.124410" lon="-5.805010">
        <ele>1135.619</ele>
        <time>2020-02-28T17:17:13Z</time>
      </trkpt>
      <trkpt lat="40.124370" lon="-5.804720">
        <ele>1134.608</ele>
        <time>2020-02-28T17:17:33Z</time>
      </trkpt>
      <trkpt lat="40.124360" lon="-5.804440">
        <ele>1134.041</ele>
        <time>2020-02-28T17:17:53Z</time>
      </trkpt>
      <trkpt lat="40.124380" lon="-5.804320">
        <ele>1134.464</ele>
        <time>2020-02-28T17:18:13Z</time>
      </trkpt>
      <trkpt lat="40.124390" lon="-5.804310">
        <ele>1134.769</ele>
        <time>2020-02-28T17:18:33Z</time>
      </trkpt>
      <trkpt lat="40.124420" lon="-5.804210">
        <ele>1135.490</ele>
        <time>2020-02-28T17:18:53Z</time>
      </trkpt>
      <trkpt lat="40.124470" lon="-5.804100">
        <ele>1135.973</ele>
        <time>2020-02-28T17:19:13Z</time>
      </trkpt>
      <trkpt lat="40.124690" lon="-5.803730">
        <ele>1138.982</ele>
        <time>2020-02-28T17:19:33Z</time>
      </trkpt>
      <trkpt lat="40.124730" lon="-5.803620">
        <ele>1139.373</ele>
        <time>2020-02-28T17:19:53Z</time>
      </trkpt>
      <trkpt lat="40.124750" lon="-5.803520">
        <ele>1140.070</ele>
        <time>2020-02-28T17:20:13Z</time>
      </trkpt>
      <trkpt lat="40.124780" lon="-5.802820">
        <ele>1143.476</ele>
        <time>2020-02-28T17:20:33Z</time>
      </trkpt>
      <trkpt lat="40.124790" lon="-5.802800">
        <ele>1143.690</ele>
        <time>2020-02-28T17:20:53Z</time>
      </trkpt>
      <trkpt lat="40.124830" lon="-5.802580">
        <ele>1143.319</ele>
        <time>2020-02-28T17:21:13Z</time>
      </trkpt>
      <trkpt lat="40.124920" lon="-5.802290">
        <ele>1144.308</ele>
        <time>2020-02-28T17:21:33Z</time>
      </trkpt>
      <trkpt lat="40.125000" lon="-5.802130">
        <ele>1145.071</ele>
        <time>2020-02-28T17:21:53Z</time>
      </trkpt>
      <trkpt lat="40.125220" lon="-5.801900">
        <ele>1146.224</ele>
        <time>2020-02-28T17:22:13Z</time>
      </trkpt>
      <trkpt lat="40.125290" lon="-5.801840">
        <ele>1146.539</ele>
        <time>2020-02-28T17:22:33Z</time>
      </trkpt>
      <trkpt lat="40.125420" lon="-5.801800">
        <ele>1147.210</ele>
        <time>2020-02-28T17:22:53Z</time>
      </trkpt>
      <trkpt lat="40.125490" lon="-5.801800">
        <ele>1148.033</ele>
        <time>2020-02-28T17:23:13Z</time>
      </trkpt>
      <trkpt lat="40.125630" lon="-5.801850">
        <ele>1149.312</ele>
        <time>2020-02-28T17:23:33Z</time>
      </trkpt>
      <trkpt lat="40.125660" lon="-5.801870">
        <ele>1149.523</ele>
        <time>2020-02-28T17:23:53Z</time>
      </trkpt>
      <trkpt lat="40.125880" lon="-5.802120">
        <ele>1152.830</ele>
        <time>2020-02-28T17:24:13Z</time>
      </trkpt>
      <trkpt lat="40.125890" lon="-5.802120">
        <ele>1152.846</ele>
        <time>2020-02-28T17:24:33Z</time>
      </trkpt>
      <trkpt lat="40.125910" lon="-5.802130">
        <ele>1153.088</ele>
        <time>2020-02-28T17:24:53Z</time>
      </trkpt>
      <trkpt lat="40.125950" lon="-5.802130">
        <ele>1153.216</ele>
        <time>2020-02-28T17:25:13Z</time>
      </trkpt>
      <trkpt lat="40.125980" lon="-5.802110">
        <ele>1153.108</ele>
        <time>2020-02-28T17:25:33Z</time>
      </trkpt>
      <trkpt lat="40.126100" lon="-5.802000">
        <ele>1152.548</ele>
        <time>2020-02-28T17:25:53Z</time>
      </trkpt>
      <trkpt lat="40.126330" lon="-5.801670">
        <ele>1154.661</ele>
        <time>2020-02-28T17:26:13Z</time>
      </trkpt>
      <trkpt lat="40.126730" lon="-5.800980">
        <ele>1156.666</ele>
        <time>2020-02-28T17:26:33Z</time>
      </trkpt>
      <trkpt lat="40.126750" lon="-5.800930">
        <ele>1156.737</ele>
        <time>2020-02-28T17:26:53Z</time>
      </trkpt>
      <trkpt lat="40.126880" lon="-5.800120">
        <ele>1154.670</ele>
        <time>2020-02-28T17:27:13Z</time>
      </trkpt>
      <trkpt lat="40.126980" lon="-5.799910">
        <ele>1155.879</ele>
        <time>2020-02-28T17:27:33Z</time>
      </trkpt>
      <trkpt lat="40.127040" lon="-5.799830">
        <ele>1156.210</ele>
        <time>2020-02-28T17:27:53Z</time>
      </trkpt>
      <trkpt lat="40.127110" lon="-5.799760">
        <ele>1157.027</ele>
        <time>2020-02-28T17:28:13Z</time>
      </trkpt>
      <trkpt lat="40.127160" lon="-5.799730">
        <ele>1157.736</ele>
        <time>2020-02-28T17:28:33Z</time>
      </trkpt>
      <trkpt lat="40.127230" lon="-5.799700">
        <ele>1158.817</ele>
        <time>2020-02-28T17:28:53Z</time>
      </trkpt>
      <trkpt lat="40.127300" lon="-5.799700">
        <ele>1159.818</ele>
        <time>2020-02-28T17:29:13Z</time>
      </trkpt>
      <trkpt lat="40.127330" lon="-5.799710">
        <ele>1160.408</ele>
        <time>2020-02-28T17:29:33Z</time>
      </trkpt>
      <trkpt lat="40.127430" lon="-5.799780">
        <ele>1162.877</ele>
        <time>2020-02-28T17:29:53Z</time>
      </trkpt>
      <trkpt lat="40.127470" lon="-5.799870">
        <ele>1164.610</ele>
        <time>2020-02-28T17:30:13Z</time>
      </trkpt>
      <trkpt lat="40.127480" lon="-5.799880">
        <ele>1164.915</ele>
        <time>2020-02-28T17:30:33Z</time>
      </trkpt>
      <trkpt lat="40.127480" lon="-5.799930">
        <ele>1165.726</ele>
        <time>2020-02-28T17:30:53Z</time>
      </trkpt>
      <trkpt lat="40.127460" lon="-5.800050">
        <ele>1166.899</ele>
        <time>2020-02-28T17:31:13Z</time>
      </trkpt>
      <trkpt lat="40.127390" lon="-5.800180">
        <ele>1166.778</ele>
        <time>2020-02-28T17:31:33Z</time>
      </trkpt>
      <trkpt lat="40.127000" lon="-5.801110">
        <ele>1167.849</ele>
        <time>2020-02-28T17:31:53Z</time>
      </trkpt>
      <trkpt lat="40.127000" lon="-5.801120">
        <ele>1167.976</ele>
        <time>2020-02-28T17:32:13Z</time>
      </trkpt>
      <trkpt lat="40.126900" lon="-5.801310">
        <ele>1168.162</ele>
        <time>2020-02-28T17:32:33Z</time>
      </trkpt>
      <trkpt lat="40.126780" lon="-5.801480">
        <ele>1166.583</ele>
        <time>2020-02-28T17:32:53Z</time>
      </trkpt>
      <trkpt lat="40.126720" lon="-5.801620">
        <ele>1167.111</ele>
        <time>2020-02-28T17:33:13Z</time>
      </trkpt>
      <trkpt lat="40.126670" lon="-5.801800">
        <ele>1168.508</ele>
        <time>2020-02-28T17:33:33Z</time>
      </trkpt>
      <trkpt lat="40.126660" lon="-5.801920">
        <ele>1170.390</ele>
        <time>2020-02-28T17:33:53Z</time>
      </trkpt>
      <trkpt lat="40.126640" lon="-5.802020">
        <ele>1170.883</ele>
        <time>2020-02-28T17:34:13Z</time>
      </trkpt>
      <trkpt lat="40.126630" lon="-5.802150">
        <ele>1171.848</ele>
        <time>2020-02-28T17:34:33Z</time>
      </trkpt>
      <trkpt lat="40.126630" lon="-5.802390">
        <ele>1171.199</ele>
        <time>2020-02-28T17:34:53Z</time>
      </trkpt>
      <trkpt lat="40.126700" lon="-5.802610">
        <ele>1171.582</ele>
        <time>2020-02-28T17:35:13Z</time>
      </trkpt>
      <trkpt lat="40.126800" lon="-5.802800">
        <ele>1172.841</ele>
        <time>2020-02-28T17:35:33Z</time>
      </trkpt>
      <trkpt lat="40.126890" lon="-5.802900">
        <ele>1173.882</ele>
        <time>2020-02-28T17:35:53Z</time>
      </trkpt>
      <trkpt lat="40.126980" lon="-5.803020">
        <ele>1174.439</ele>
        <time>2020-02-28T17:36:13Z</time>
      </trkpt>
      <trkpt lat="40.127050" lon="-5.803140">
        <ele>1176.162</ele>
        <time>2020-02-28T17:36:33Z</time>
      </trkpt>
      <trkpt lat="40.127060" lon="-5.803150">
        <ele>1176.483</ele>
        <time>2020-02-28T17:36:53Z</time>
      </trkpt>
      <trkpt lat="40.127150" lon="-5.803340">
        <ele>1178.511</ele>
        <time>2020-02-28T17:37:13Z</time>
      </trkpt>
      <trkpt lat="40.127150" lon="-5.803360">
        <ele>1178.708</ele>
        <time>2020-02-28T17:37:33Z</time>
      </trkpt>
      <trkpt lat="40.127160" lon="-5.803400">
        <ele>1179.220</ele>
        <time>2020-02-28T17:37:53Z</time>
      </trkpt>
      <trkpt lat="40.127160" lon="-5.803440">
        <ele>1179.533</ele>
        <time>2020-02-28T17:38:13Z</time>
      </trkpt>
      <trkpt lat="40.127150" lon="-5.803480">
        <ele>1179.628</ele>
        <time>2020-02-28T17:38:33Z</time>
      </trkpt>
      <trkpt lat="40.127130" lon="-5.803520">
        <ele>1179.659</ele>
        <time>2020-02-28T17:38:53Z</time>
      </trkpt>
      <trkpt lat="40.127100" lon="-5.803560">
        <ele>1179.442</ele>
        <time>2020-02-28T17:39:13Z</time>
      </trkpt>
      <trkpt lat="40.126960" lon="-5.803640">
        <ele>1177.671</ele>
        <time>2020-02-28T17:39:33Z</time>
      </trkpt>
      <trkpt lat="40.126950" lon="-5.803650">
        <ele>1177.592</ele>
        <time>2020-02-28T17:39:53Z</time>
      </trkpt>
      <trkpt lat="40.126790" lon="-5.803730">
        <ele>1178.249</ele>
        <time>2020-02-28T17:40:13Z</time>
      </trkpt>
      <trkpt lat="40.126780" lon="-5.803750">
        <ele>1178.524</ele>
        <time>2020-02-28T17:40:33Z</time>
      </trkpt>
      <trkpt lat="40.126770" lon="-5.803760">
        <ele>1178.704</ele>
        <time>2020-02-28T17:40:53Z</time>
      </trkpt>
      <trkpt lat="40.126750" lon="-5.803810">
        <ele>1179.514</ele>
        <time>2020-02-28T17:41:13Z</time>
      </trkpt>
      <trkpt lat="40.126280" lon="-5.804620">
        <ele>1186.008</ele>
        <time>2020-02-28T17:41:33Z</time>
      </trkpt>
      <trkpt lat="40.126170" lon="-5.804900">
        <ele>1187.886</ele>
        <time>2020-02-28T17:41:53Z</time>
      </trkpt>
      <trkpt lat="40.126010" lon="-5.805540">
        <ele>1190.319</ele>
        <time>2020-02-28T17:42:13Z</time>
      </trkpt>
      <trkpt lat="40.126010" lon="-5.805580">
        <ele>1190.784</ele>
        <time>2020-02-28T17:42:33Z</time>
      </trkpt>
      <trkpt lat="40.126000" lon="-5.805640">
        <ele>1191.145</ele>
        <time>2020-02-28T17:42:53Z</time>
      </trkpt>
      <trkpt lat="40.126000" lon="-5.805690">
        <ele>1191.728</ele>
        <time>2020-02-28T17:43:13Z</time>
      </trkpt>
      <trkpt lat="40.126020" lon="-5.805760">
        <ele>1192.977</ele>
        <time>2020-02-28T17:43:33Z</time>
      </trkpt>
      <trkpt lat="40.126050" lon="-5.805820">
        <ele>1194.368</ele>
        <time>2020-02-28T17:43:53Z</time>
      </trkpt>
      <trkpt lat="40.126100" lon="-5.805860">
        <ele>1195.955</ele>
        <time>2020-02-28T17:44:13Z</time>
      </trkpt>
      <trkpt lat="40.126160" lon="-5.805870">
        <ele>1197.074</ele>
        <time>2020-02-28T17:44:33Z</time>
      </trkpt>
      <trkpt lat="40.126200" lon="-5.805870">
        <ele>1197.556</ele>
        <time>2020-02-28T17:44:53Z</time>
      </trkpt>
      <trkpt lat="40.126250" lon="-5.805860">
        <ele>1198.221</ele>
        <time>2020-02-28T17:45:13Z</time>
      </trkpt>
      <trkpt lat="40.126350" lon="-5.805800">
        <ele>1199.208</ele>
        <time>2020-02-28T17:45:33Z</time>
      </trkpt>
      <trkpt lat="40.126770" lon="-5.805390">
        <ele>1201.791</ele>
        <time>2020-02-28T17:45:53Z</time>
      </trkpt>
      <trkpt lat="40.126890" lon="-5.805290">
        <ele>1203.154</ele>
        <time>2020-02-28T17:46:13Z</time>
      </trkpt>
      <trkpt lat="40.127000" lon="-5.805220">
        <ele>1203.779</ele>
        <time>2020-02-28T17:46:33Z</time>
      </trkpt>
      <trkpt lat="40.127090" lon="-5.805190">
        <ele>1203.920</ele>
        <time>2020-02-28T17:46:53Z</time>
      </trkpt>
      <trkpt lat="40.127130" lon="-5.805190">
        <ele>1204.253</ele>
        <time>2020-02-28T17:47:13Z</time>
      </trkpt>
      <trkpt lat="40.127180" lon="-5.805180">
        <ele>1204.392</ele>
        <time>2020-02-28T17:47:33Z</time>
      </trkpt>
      <trkpt lat="40.127650" lon="-5.805360">
        <ele>1209.623</ele>
        <time>2020-02-28T17:47:53Z</time>
      </trkpt>
      <trkpt lat="40.127770" lon="-5.805360">
        <ele>1211.010</ele>
        <time>2020-02-28T17:48:13Z</time>
      </trkpt>
      <trkpt lat="40.127830" lon="-5.805340">
        <ele>1212.371</ele>
        <time>2020-02-28T17:48:33Z</time>
      </trkpt>
      <trkpt lat="40.127890" lon="-5.805280">
        <ele>1213.141</ele>
        <time>2020-02-28T17:48:53Z</time>
      </trkpt>
      <trkpt lat="40.127940" lon="-5.805200">
        <ele>1214.015</ele>
        <time>2020-02-28T17:49:13Z</time>
      </trkpt>
      <trkpt lat="40.127980" lon="-5.805090">
        <ele>1214.608</ele>
        <time>2020-02-28T17:49:33Z</time>
      </trkpt>
      <trkpt lat="40.128010" lon="-5.804900">
        <ele>1214.261</ele>
        <time>2020-02-28T17:49:53Z</time>
      </trkpt>
      <trkpt lat="40.128140" lon="-5.804330">
        <ele>1214.124</ele>
        <time>2020-02-28T17:50:13Z</time>
      </trkpt>
      <trkpt lat="40.128270" lon="-5.803980">
        <ele>1213.589</ele>
        <time>2020-02-28T17:50:33Z</time>
      </trkpt>
      <trkpt lat="40.128450" lon="-5.803720">
        <ele>1213.930</ele>
        <time>2020-02-28T17:50:53Z</time>
      </trkpt>
      <trkpt lat="40.128510" lon="-5.803670">
        <ele>1214.573</ele>
        <time>2020-02-28T17:51:13Z</time>
      </trkpt>
      <trkpt lat="40.128550" lon="-5.803650">
        <ele>1215.112</ele>
        <time>2020-02-28T17:51:33Z</time>
      </trkpt>
      <trkpt lat="40.128610" lon="-5.803630">
        <ele>1216.063</ele>
        <time>2020-02-28T17:51:53Z</time>
      </trkpt>
      <trkpt lat="40.128700" lon="-5.803660">
        <ele>1217.590</ele>
        <time>2020-02-28T17:52:13Z</time>
      </trkpt>
      <trkpt lat="40.128740" lon="-5.803690">
        <ele>1218.179</ele>
        <time>2020-02-28T17:52:33Z</time>
      </trkpt>
      <trkpt lat="40.128770" lon="-5.803740">
        <ele>1218.805</ele>
        <time>2020-02-28T17:52:53Z</time>
      </trkpt>
      <trkpt lat="40.128800" lon="-5.803830">
        <ele>1219.525</ele>
        <time>2020-02-28T17:53:13Z</time>
      </trkpt>
      <trkpt lat="40.128810" lon="-5.803930">
        <ele>1220.208</ele>
        <time>2020-02-28T17:53:33Z</time>
      </trkpt>
      <trkpt lat="40.128790" lon="-5.804140">
        <ele>1221.631</ele>
        <time>2020-02-28T17:53:53Z</time>
      </trkpt>
      <trkpt lat="40.128690" lon="-5.804730">
        <ele>1222.884</ele>
        <time>2020-02-28T17:54:13Z</time>
      </trkpt>
      <trkpt lat="40.128640" lon="-5.804880">
        <ele>1223.239</ele>
        <time>2020-02-28T17:54:33Z</time>
      </trkpt>
      <trkpt lat="40.128510" lon="-5.805090">
        <ele>1223.240</ele>
        <time>2020-02-28T17:54:53Z</time>
      </trkpt>
      <trkpt lat="40.128190" lon="-5.805480">
        <ele>1222.643</ele>
        <time>2020-02-28T17:55:13Z</time>
      </trkpt>
      <trkpt lat="40.127820" lon="-5.805870">
        <ele>1223.142</ele>
        <time>2020-02-28T17:55:33Z</time>
      </trkpt>
      <trkpt lat="40.127730" lon="-5.805990">
        <ele>1223.873</ele>
        <time>2020-02-28T17:55:53Z</time>
      </trkpt>
      <trkpt lat="40.127720" lon="-5.806020">
        <ele>1224.190</ele>
        <time>2020-02-28T17:56:13Z</time>
      </trkpt>
      <trkpt lat="40.127650" lon="-5.806140">
        <ele>1224.793</ele>
        <time>2020-02-28T17:56:33Z</time>
      </trkpt>
      <trkpt lat="40.127580" lon="-5.806340">
        <ele>1225.765</ele>
        <time>2020-02-28T17:56:53Z</time>
      </trkpt>
      <trkpt lat="40.127310" lon="-5.807360">
        <ele>1229.321</ele>
        <time>2020-02-28T17:57:13Z</time>
      </trkpt>
      <trkpt lat="40.127300" lon="-5.807630">
        <ele>1232.308</ele>
        <time>2020-02-28T17:57:33Z</time>
      </trkpt>
      <trkpt lat="40.127290" lon="-5.807670">
        <ele>1232.573</ele>
        <time>2020-02-28T17:57:53Z</time>
      </trkpt>
      <trkpt lat="40.127290" lon="-5.807700">
        <ele>1232.926</ele>
        <time>2020-02-28T17:58:13Z</time>
      </trkpt>
      <trkpt lat="40.127260" lon="-5.807810">
        <ele>1233.761</ele>
        <time>2020-02-28T17:58:33Z</time>
      </trkpt>
      <trkpt lat="40.127240" lon="-5.807850">
        <ele>1233.872</ele>
        <time>2020-02-28T17:58:53Z</time>
      </trkpt>
      <trkpt lat="40.126890" lon="-5.808380">
        <ele>1235.115</ele>
        <time>2020-02-28T17:59:13Z</time>
      </trkpt>
      <trkpt lat="40.126680" lon="-5.808800">
        <ele>1236.754</ele>
        <time>2020-02-28T17:59:33Z</time>
      </trkpt>
      <trkpt lat="40.125640" lon="-5.811680">
        <ele>1248.955</ele>
        <time>2020-02-28T17:59:53Z</time>
      </trkpt>
      <trkpt lat="40.125640" lon="-5.811690">
        <ele>1249.012</ele>
        <time>2020-02-28T18:00:13Z</time>
      </trkpt>
      <trkpt lat="40.125500" lon="-5.812130">
        <ele>1249.832</ele>
        <time>2020-02-28T18:00:33Z</time>
      </trkpt>
      <trkpt lat="40.125450" lon="-5.812350">
        <ele>1250.792</ele>
        <time>2020-02-28T18:00:53Z</time>
      </trkpt>
      <trkpt lat="40.125420" lon="-5.812640">
        <ele>1251.611</ele>
        <time>2020-02-28T18:01:13Z</time>
      </trkpt>
      <trkpt lat="40.125440" lon="-5.813090">
        <ele>1254.408</ele>
        <time>2020-02-28T18:01:33Z</time>
      </trkpt>
      <trkpt lat="40.125450" lon="-5.813150">
        <ele>1255.117</ele>
        <time>2020-02-28T18:01:53Z</time>
      </trkpt>
      <trkpt lat="40.125450" lon="-5.813290">
        <ele>1256.350</ele>
        <time>2020-02-28T18:02:13Z</time>
      </trkpt>
      <trkpt lat="40.125440" lon="-5.813300">
        <ele>1256.225</ele>
        <time>2020-02-28T18:02:33Z</time>
      </trkpt>
      <trkpt lat="40.125420" lon="-5.813400">
        <ele>1256.816</ele>
        <time>2020-02-28T18:02:53Z</time>
      </trkpt>
      <trkpt lat="40.125390" lon="-5.813490">
        <ele>1257.289</ele>
        <time>2020-02-28T18:03:13Z</time>
      </trkpt>
      <trkpt lat="40.124970" lon="-5.813970">
        <ele>1257.848</ele>
        <time>2020-02-28T18:03:33Z</time>
      </trkpt>
      <trkpt lat="40.124880" lon="-5.814100">
        <ele>1258.649</ele>
        <time>2020-02-28T18:03:53Z</time>
      </trkpt>
      <trkpt lat="40.124800" lon="-5.814390">
        <ele>1260.246</ele>
        <time>2020-02-28T18:04:13Z</time>
      </trkpt>
      <trkpt lat="40.124760" lon="-5.815310">
        <ele>1262.976</ele>
        <time>2020-02-28T18:04:33Z</time>
      </trkpt>
      <trkpt lat="40.124740" lon="-5.815440">
        <ele>1263.090</ele>
        <time>2020-02-28T18:04:53Z</time>
      </trkpt>
      <trkpt lat="40.124730" lon="-5.815710">
        <ele>1263.719</ele>
        <time>2020-02-28T18:05:13Z</time>
      </trkpt>
      <trkpt lat="40.124710" lon="-5.815800">
        <ele>1264.008</ele>
        <time>2020-02-28T18:05:33Z</time>
      </trkpt>
      <trkpt lat="40.124690" lon="-5.816060">
        <ele>1265.041</ele>
        <time>2020-02-28T18:05:53Z</time>
      </trkpt>
      <trkpt lat="40.124430" lon="-5.817760">
        <ele>1270.254</ele>
        <time>2020-02-28T18:06:13Z</time>
      </trkpt>
      <trkpt lat="40.124330" lon="-5.818160">
        <ele>1268.189</ele>
        <time>2020-02-28T18:06:33Z</time>
      </trkpt>
      <trkpt lat="40.123610" lon="-5.819860">
        <ele>1260.030</ele>
        <time>2020-02-28T18:06:53Z</time>
      </trkpt>
      <trkpt lat="40.121930" lon="-5.823560">
        <ele>1261.733</ele>
        <time>2020-02-28T18:07:13Z</time>
      </trkpt>
      <trkpt lat="40.121710" lon="-5.824140">
        <ele>1263.332</ele>
        <time>2020-02-28T18:07:33Z</time>
      </trkpt>
      <trkpt lat="40.121660" lon="-5.824350">
        <ele>1263.473</ele>
        <time>2020-02-28T18:07:53Z</time>
      </trkpt>
      <trkpt lat="40.121650" lon="-5.824490">
        <ele>1263.190</ele>
        <time>2020-02-28T18:08:13Z</time>
      </trkpt>
      <trkpt lat="40.121660" lon="-5.824630">
        <ele>1262.474</ele>
        <time>2020-02-28T18:08:33Z</time>
      </trkpt>
      <trkpt lat="40.121920" lon="-5.826510">
        <ele>1268.656</ele>
        <time>2020-02-28T18:08:53Z</time>
      </trkpt>
      <trkpt lat="40.121940" lon="-5.826600">
        <ele>1268.821</ele>
        <time>2020-02-28T18:09:13Z</time>
      </trkpt>
      <trkpt lat="40.121960" lon="-5.826960">
        <ele>1266.708</ele>
        <time>2020-02-28T18:09:33Z</time>
      </trkpt>
      <trkpt lat="40.121950" lon="-5.827220">
        <ele>1265.931</ele>
        <time>2020-02-28T18:09:53Z</time>
      </trkpt>
      <trkpt lat="40.121920" lon="-5.827460">
        <ele>1265.564</ele>
        <time>2020-02-28T18:10:13Z</time>
      </trkpt>
      <trkpt lat="40.121840" lon="-5.827770">
        <ele>1264.969</ele>
        <time>2020-02-28T18:10:33Z</time>
      </trkpt>
      <trkpt lat="40.121520" lon="-5.828670">
        <ele>1265.830</ele>
        <time>2020-02-28T18:10:53Z</time>
      </trkpt>
      <trkpt lat="40.121100" lon="-5.829400">
        <ele>1260.083</ele>
        <time>2020-02-28T18:11:13Z</time>
      </trkpt>
      <trkpt lat="40.118170" lon="-5.833380">
        <ele>1245.982</ele>
        <time>2020-02-28T18:11:33Z</time>
      </trkpt>
      <trkpt lat="40.118140" lon="-5.833400">
        <ele>1245.863</ele>
        <time>2020-02-28T18:11:53Z</time>
      </trkpt>
      <trkpt lat="40.117860" lon="-5.833700">
        <ele>1244.820</ele>
        <time>2020-02-28T18:12:13Z</time>
      </trkpt>
      <trkpt lat="40.117260" lon="-5.834270">
        <ele>1242.625</ele>
        <time>2020-02-28T18:12:33Z</time>
      </trkpt>
      <trkpt lat="40.116630" lon="-5.834920">
        <ele>1239.926</ele>
        <time>2020-02-28T18:12:53Z</time>
      </trkpt>
      <trkpt lat="40.115950" lon="-5.835760">
        <ele>1236.308</ele>
        <time>2020-02-28T18:13:13Z</time>
      </trkpt>
      <trkpt lat="40.115780" lon="-5.836040">
        <ele>1233.708</ele>
        <time>2020-02-28T18:13:33Z</time>
      </trkpt>
      <trkpt lat="40.115690" lon="-5.836260">
        <ele>1233.056</ele>
        <time>2020-02-28T18:13:53Z</time>
      </trkpt>
      <trkpt lat="40.115590" lon="-5.836570">
        <ele>1232.269</ele>
        <time>2020-02-28T18:14:13Z</time>
      </trkpt>
      <trkpt lat="40.115590" lon="-5.836610">
        <ele>1232.334</ele>
        <time>2020-02-28T18:14:33Z</time>
      </trkpt>
      <trkpt lat="40.115520" lon="-5.836900">
        <ele>1230.845</ele>
        <time>2020-02-28T18:14:53Z</time>
      </trkpt>
      <trkpt lat="40.115420" lon="-5.837880">
        <ele>1224.838</ele>
        <time>2020-02-28T18:15:13Z</time>
      </trkpt>
      <trkpt lat="40.115400" lon="-5.838710">
        <ele>1222.227</ele>
        <time>2020-02-28T18:15:33Z</time>
      </trkpt>
      <trkpt lat="40.115410" lon="-5.839030">
        <ele>1221.758</ele>
        <time>2020-02-28T18:15:53Z</time>
      </trkpt>
      <trkpt lat="40.115390" lon="-5.839300">
        <ele>1221.055</ele>
        <time>2020-02-28T18:16:13Z</time>
      </trkpt>
      <trkpt lat="40.115350" lon="-5.839480">
        <ele>1220.488</ele>
        <time>2020-02-28T18:16:33Z</time>
      </trkpt>
      <trkpt lat="40.114420" lon="-5.842310">
        <ele>1205.424</ele>
        <time>2020-02-28T18:16:53Z</time>
      </trkpt>
      <trkpt lat="40.114370" lon="-5.842710">
        <ele>1203.426</ele>
        <time>2020-02-28T18:17:13Z</time>
      </trkpt>
      <trkpt lat="40.114370" lon="-5.842910">
        <ele>1202.508</ele>
        <time>2020-02-28T18:17:33Z</time>
      </trkpt>
      <trkpt lat="40.114390" lon="-5.843210">
        <ele>1201.262</ele>
        <time>2020-02-28T18:17:53Z</time>
      </trkpt>
      <trkpt lat="40.114460" lon="-5.843560">
        <ele>1200.275</ele>
        <time>2020-02-28T18:18:13Z</time>
      </trkpt>
      <trkpt lat="40.114480" lon="-5.843600">
        <ele>1200.240</ele>
        <time>2020-02-28T18:18:33Z</time>
      </trkpt>
      <trkpt lat="40.114480" lon="-5.843630">
        <ele>1200.091</ele>
        <time>2020-02-28T18:18:53Z</time>
      </trkpt>
      <trkpt lat="40.114600" lon="-5.843800">
        <ele>1199.214</ele>
        <time>2020-02-28T18:19:13Z</time>
      </trkpt>
      <trkpt lat="40.114760" lon="-5.843960">
        <ele>1198.463</ele>
        <time>2020-02-28T18:19:33Z</time>
      </trkpt>
      <trkpt lat="40.114880" lon="-5.844050">
        <ele>1197.314</ele>
        <time>2020-02-28T18:19:53Z</time>
      </trkpt>
      <trkpt lat="40.114940" lon="-5.844080">
        <ele>1196.861</ele>
        <time>2020-02-28T18:20:13Z</time>
      </trkpt>
      <trkpt lat="40.114960" lon="-5.844100">
        <ele>1196.622</ele>
        <time>2020-02-28T18:20:33Z</time>
      </trkpt>
      <trkpt lat="40.115040" lon="-5.844100">
        <ele>1195.462</ele>
        <time>2020-02-28T18:20:53Z</time>
      </trkpt>
      <trkpt lat="40.115160" lon="-5.844050">
        <ele>1192.708</ele>
        <time>2020-02-28T18:21:13Z</time>
      </trkpt>
      <trkpt lat="40.115560" lon="-5.843810">
        <ele>1190.208</ele>
        <time>2020-02-28T18:21:33Z</time>
      </trkpt>
      <trkpt lat="40.115630" lon="-5.843820">
        <ele>1190.756</ele>
        <time>2020-02-28T18:21:53Z</time>
      </trkpt>
      <trkpt lat="40.115660" lon="-5.843840">
        <ele>1190.769</ele>
        <time>2020-02-28T18:22:13Z</time>
      </trkpt>
      <trkpt lat="40.115670" lon="-5.843840">
        <ele>1190.854</ele>
        <time>2020-02-28T18:22:33Z</time>
      </trkpt>
      <trkpt lat="40.115710" lon="-5.843870">
        <ele>1190.925</ele>
        <time>2020-02-28T18:22:53Z</time>
      </trkpt>
      <trkpt lat="40.115810" lon="-5.843970">
        <ele>1190.948</ele>
        <time>2020-02-28T18:23:13Z</time>
      </trkpt>
      <trkpt lat="40.115900" lon="-5.844110">
        <ele>1190.397</ele>
        <time>2020-02-28T18:23:33Z</time>
      </trkpt>
      <trkpt lat="40.116390" lon="-5.845100">
        <ele>1188.368</ele>
        <time>2020-02-28T18:23:53Z</time>
      </trkpt>
      <trkpt lat="40.116500" lon="-5.845360">
        <ele>1187.125</ele>
        <time>2020-02-28T18:24:13Z</time>
      </trkpt>
      <trkpt lat="40.116580" lon="-5.845470">
        <ele>1187.075</ele>
        <time>2020-02-28T18:24:33Z</time>
      </trkpt>
      <trkpt lat="40.116710" lon="-5.845700">
        <ele>1186.628</ele>
        <time>2020-02-28T18:24:53Z</time>
      </trkpt>
      <trkpt lat="40.116750" lon="-5.845880">
        <ele>1186.120</ele>
        <time>2020-02-28T18:25:13Z</time>
      </trkpt>
      <trkpt lat="40.116850" lon="-5.846080">
        <ele>1185.808</ele>
        <time>2020-02-28T18:25:33Z</time>
      </trkpt>
      <trkpt lat="40.116980" lon="-5.846390">
        <ele>1184.911</ele>
        <time>2020-02-28T18:25:53Z</time>
      </trkpt>
      <trkpt lat="40.117110" lon="-5.846640">
        <ele>1183.134</ele>
        <time>2020-02-28T18:26:13Z</time>
      </trkpt>
      <trkpt lat="40.117310" lon="-5.847320">
        <ele>1179.999</ele>
        <time>2020-02-28T18:26:33Z</time>
      </trkpt>
      <trkpt lat="40.117540" lon="-5.847990">
        <ele>1178.140</ele>
        <time>2020-02-28T18:26:53Z</time>
      </trkpt>
      <trkpt lat="40.117630" lon="-5.848300">
        <ele>1178.583</ele>
        <time>2020-02-28T18:27:13Z</time>
      </trkpt>
      <trkpt lat="40.117670" lon="-5.848570">
        <ele>1178.322</ele>
        <time>2020-02-28T18:27:33Z</time>
      </trkpt>
      <trkpt lat="40.117670" lon="-5.848680">
        <ele>1177.893</ele>
        <time>2020-02-28T18:27:53Z</time>
      </trkpt>
      <trkpt lat="40.117550" lon="-5.849390">
        <ele>1174.270</ele>
        <time>2020-02-28T18:28:13Z</time>
      </trkpt>
      <trkpt lat="40.117580" lon="-5.849660">
        <ele>1172.786</ele>
        <time>2020-02-28T18:28:33Z</time>
      </trkpt>
      <trkpt lat="40.117590" lon="-5.849680">
        <ele>1172.660</ele>
        <time>2020-02-28T18:28:53Z</time>
      </trkpt>
      <trkpt lat="40.118100" lon="-5.851490">
        <ele>1164.826</ele>
        <time>2020-02-28T18:29:13Z</time>
      </trkpt>
      <trkpt lat="40.118370" lon="-5.851980">
        <ele>1163.008</ele>
        <time>2020-02-28T18:29:33Z</time>
      </trkpt>
      <trkpt lat="40.118470" lon="-5.852110">
        <ele>1162.522</ele>
        <time>2020-02-28T18:29:53Z</time>
      </trkpt>
      <trkpt lat="40.118910" lon="-5.852800">
        <ele>1157.725</ele>
        <time>2020-02-28T18:30:13Z</time>
      </trkpt>
      <trkpt lat="40.118960" lon="-5.852850">
        <ele>1157.010</ele>
        <time>2020-02-28T18:30:33Z</time>
      </trkpt>
      <trkpt lat="40.118990" lon="-5.852870">
        <ele>1156.871</ele>
        <time>2020-02-28T18:30:53Z</time>
      </trkpt>
      <trkpt lat="40.119010" lon="-5.852890">
        <ele>1156.574</ele>
        <time>2020-02-28T18:31:13Z</time>
      </trkpt>
      <trkpt lat="40.119020" lon="-5.852890">
        <ele>1156.523</ele>
        <time>2020-02-28T18:31:33Z</time>
      </trkpt>
      <trkpt lat="40.119060" lon="-5.852910">
        <ele>1156.274</ele>
        <time>2020-02-28T18:31:53Z</time>
      </trkpt>
      <trkpt lat="40.119100" lon="-5.852920">
        <ele>1156.111</ele>
        <time>2020-02-28T18:32:13Z</time>
      </trkpt>
      <trkpt lat="40.119680" lon="-5.852920">
        <ele>1155.599</ele>
        <time>2020-02-28T18:32:33Z</time>
      </trkpt>
      <trkpt lat="40.119790" lon="-5.852910">
        <ele>1155.607</ele>
        <time>2020-02-28T18:32:53Z</time>
      </trkpt>
      <trkpt lat="40.120020" lon="-5.852910">
        <ele>1155.527</ele>
        <time>2020-02-28T18:33:13Z</time>
      </trkpt>
      <trkpt lat="40.120120" lon="-5.852890">
        <ele>1155.108</ele>
        <time>2020-02-28T18:33:33Z</time>
      </trkpt>
      <trkpt lat="40.120570" lon="-5.852710">
        <ele>1151.953</ele>
        <time>2020-02-28T18:33:53Z</time>
      </trkpt>
      <trkpt lat="40.120670" lon="-5.852690">
        <ele>1151.726</ele>
        <time>2020-02-28T18:34:13Z</time>
      </trkpt>
      <trkpt lat="40.120810" lon="-5.852710">
        <ele>1150.651</ele>
        <time>2020-02-28T18:34:33Z</time>
      </trkpt>
      <trkpt lat="40.121370" lon="-5.852880">
        <ele>1142.482</ele>
        <time>2020-02-28T18:34:53Z</time>
      </trkpt>
      <trkpt lat="40.121650" lon="-5.852940">
        <ele>1139.855</ele>
        <time>2020-02-28T18:35:13Z</time>
      </trkpt>
      <trkpt lat="40.121790" lon="-5.852920">
        <ele>1139.314</ele>
        <time>2020-02-28T18:35:33Z</time>
      </trkpt>
      <trkpt lat="40.121900" lon="-5.852880">
        <ele>1139.565</ele>
        <time>2020-02-28T18:35:53Z</time>
      </trkpt>
      <trkpt lat="40.121910" lon="-5.852880">
        <ele>1139.422</ele>
        <time>2020-02-28T18:36:13Z</time>
      </trkpt>
      <trkpt lat="40.122900" lon="-5.852580">
        <ele>1133.146</ele>
        <time>2020-02-28T18:36:33Z</time>
      </trkpt>
      <trkpt lat="40.123120" lon="-5.852540">
        <ele>1132.188</ele>
        <time>2020-02-28T18:36:53Z</time>
      </trkpt>
      <trkpt lat="40.123140" lon="-5.852550">
        <ele>1131.916</ele>
        <time>2020-02-28T18:37:13Z</time>
      </trkpt>
      <trkpt lat="40.123200" lon="-5.852550">
        <ele>1131.408</ele>
        <time>2020-02-28T18:37:33Z</time>
      </trkpt>
      <trkpt lat="40.123290" lon="-5.852600">
        <ele>1130.248</ele>
        <time>2020-02-28T18:37:53Z</time>
      </trkpt>
      <trkpt lat="40.123380" lon="-5.852710">
        <ele>1128.151</ele>
        <time>2020-02-28T18:38:13Z</time>
      </trkpt>
      <trkpt lat="40.123430" lon="-5.852800">
        <ele>1126.876</ele>
        <time>2020-02-28T18:38:33Z</time>
      </trkpt>
      <trkpt lat="40.123480" lon="-5.852950">
        <ele>1125.567</ele>
        <time>2020-02-28T18:38:53Z</time>
      </trkpt>
      <trkpt lat="40.123490" lon="-5.853110">
        <ele>1124.560</ele>
        <time>2020-02-28T18:39:13Z</time>
      </trkpt>
      <trkpt lat="40.123480" lon="-5.853290">
        <ele>1123.399</ele>
        <time>2020-02-28T18:39:33Z</time>
      </trkpt>
      <trkpt lat="40.123410" lon="-5.853470">
        <ele>1122.660</ele>
        <time>2020-02-28T18:39:53Z</time>
      </trkpt>
      <trkpt lat="40.123130" lon="-5.853830">
        <ele>1119.817</ele>
        <time>2020-02-28T18:40:13Z</time>
      </trkpt>
      <trkpt lat="40.122770" lon="-5.854240">
        <ele>1116.568</ele>
        <time>2020-02-28T18:40:33Z</time>
      </trkpt>
      <trkpt lat="40.122480" lon="-5.854620">
        <ele>1113.742</ele>
        <time>2020-02-28T18:40:53Z</time>
      </trkpt>
      <trkpt lat="40.122400" lon="-5.854760">
        <ele>1112.426</ele>
        <time>2020-02-28T18:41:13Z</time>
      </trkpt>
      <trkpt lat="40.122350" lon="-5.854910">
        <ele>1111.108</ele>
        <time>2020-02-28T18:41:33Z</time>
      </trkpt>
      <trkpt lat="40.121980" lon="-5.857210">
        <ele>1098.980</ele>
        <time>2020-02-28T18:41:53Z</time>
      </trkpt>
      <trkpt lat="40.121940" lon="-5.857390">
        <ele>1097.893</ele>
        <time>2020-02-28T18:42:13Z</time>
      </trkpt>
      <trkpt lat="40.121860" lon="-5.858080">
        <ele>1092.718</ele>
        <time>2020-02-28T18:42:33Z</time>
      </trkpt>
      <trkpt lat="40.121570" lon="-5.859880">
        <ele>1082.499</ele>
        <time>2020-02-28T18:42:53Z</time>
      </trkpt>
      <trkpt lat="40.121490" lon="-5.860180">
        <ele>1080.172</ele>
        <time>2020-02-28T18:43:13Z</time>
      </trkpt>
      <trkpt lat="40.121400" lon="-5.860400">
        <ele>1078.641</ele>
        <time>2020-02-28T18:43:33Z</time>
      </trkpt>
      <trkpt lat="40.121280" lon="-5.860570">
        <ele>1078.122</ele>
        <time>2020-02-28T18:43:53Z</time>
      </trkpt>
      <trkpt lat="40.120720" lon="-5.861020">
        <ele>1077.379</ele>
        <time>2020-02-28T18:44:13Z</time>
      </trkpt>
      <trkpt lat="40.118820" lon="-5.862450">
        <ele>1056.566</ele>
        <time>2020-02-28T18:44:33Z</time>
      </trkpt>
      <trkpt lat="40.117540" lon="-5.863650">
        <ele>1049.429</ele>
        <time>2020-02-28T18:44:53Z</time>
      </trkpt>
      <trkpt lat="40.117470" lon="-5.863750">
        <ele>1048.521</ele>
        <time>2020-02-28T18:45:13Z</time>
      </trkpt>
      <trkpt lat="40.117440" lon="-5.863850">
        <ele>1047.408</ele>
        <time>2020-02-28T18:45:33Z</time>
      </trkpt>
      <trkpt lat="40.117440" lon="-5.863910">
        <ele>1046.840</ele>
        <time>2020-02-28T18:45:53Z</time>
      </trkpt>
      <trkpt lat="40.117450" lon="-5.863960">
        <ele>1046.473</ele>
        <time>2020-02-28T18:46:13Z</time>
      </trkpt>
      <trkpt lat="40.117450" lon="-5.864020">
        <ele>1045.968</ele>
        <time>2020-02-28T18:46:33Z</time>
      </trkpt>
      <trkpt lat="40.117460" lon="-5.864070">
        <ele>1045.559</ele>
        <time>2020-02-28T18:46:53Z</time>
      </trkpt>
      <trkpt lat="40.117520" lon="-5.864220">
        <ele>1044.172</ele>
        <time>2020-02-28T18:47:13Z</time>
      </trkpt>
      <trkpt lat="40.117550" lon="-5.864260">
        <ele>1043.461</ele>
        <time>2020-02-28T18:47:33Z</time>
      </trkpt>
      <trkpt lat="40.117580" lon="-5.864280">
        <ele>1042.922</ele>
        <time>2020-02-28T18:47:53Z</time>
      </trkpt>
      <trkpt lat="40.117590" lon="-5.864280">
        <ele>1042.929</ele>
        <time>2020-02-28T18:48:13Z</time>
      </trkpt>
      <trkpt lat="40.117640" lon="-5.864300">
        <ele>1042.399</ele>
        <time>2020-02-28T18:48:33Z</time>
      </trkpt>
      <trkpt lat="40.117700" lon="-5.864290">
        <ele>1042.107</ele>
        <time>2020-02-28T18:48:53Z</time>
      </trkpt>
      <trkpt lat="40.117740" lon="-5.864290">
        <ele>1041.927</ele>
        <time>2020-02-28T18:49:13Z</time>
      </trkpt>
      <trkpt lat="40.117850" lon="-5.864220">
        <ele>1041.608</ele>
        <time>2020-02-28T18:49:33Z</time>
      </trkpt>
      <trkpt lat="40.118370" lon="-5.863750">
        <ele>1040.833</ele>
        <time>2020-02-28T18:49:53Z</time>
      </trkpt>
      <trkpt lat="40.118470" lon="-5.863680">
        <ele>1041.116</ele>
        <time>2020-02-28T18:50:13Z</time>
      </trkpt>
      <trkpt lat="40.118510" lon="-5.863660">
        <ele>1041.151</ele>
        <time>2020-02-28T18:50:33Z</time>
      </trkpt>
      <trkpt lat="40.118550" lon="-5.863630">
        <ele>1041.212</ele>
        <time>2020-02-28T18:50:53Z</time>
      </trkpt>
      <trkpt lat="40.118580" lon="-5.863620">
        <ele>1041.145</ele>
        <time>2020-02-28T18:51:13Z</time>
      </trkpt>
      <trkpt lat="40.118720" lon="-5.863620">
        <ele>1040.544</ele>
        <time>2020-02-28T18:51:33Z</time>
      </trkpt>
      <trkpt lat="40.118850" lon="-5.863650">
        <ele>1039.645</ele>
        <time>2020-02-28T18:51:53Z</time>
      </trkpt>
      <trkpt lat="40.118870" lon="-5.863670">
        <ele>1039.222</ele>
        <time>2020-02-28T18:52:13Z</time>
      </trkpt>
      <trkpt lat="40.119020" lon="-5.863760">
        <ele>1037.673</ele>
        <time>2020-02-28T18:52:33Z</time>
      </trkpt>
      <trkpt lat="40.119030" lon="-5.863770">
        <ele>1037.585</ele>
        <time>2020-02-28T18:52:53Z</time>
      </trkpt>
      <trkpt lat="40.120160" lon="-5.864480">
        <ele>1031.113</ele>
        <time>2020-02-28T18:53:13Z</time>
      </trkpt>
      <trkpt lat="40.120610" lon="-5.864680">
        <ele>1028.608</ele>
        <time>2020-02-28T18:53:33Z</time>
      </trkpt>
      <trkpt lat="40.121120" lon="-5.864840">
        <ele>1024.831</ele>
        <time>2020-02-28T18:53:53Z</time>
      </trkpt>
      <trkpt lat="40.121240" lon="-5.864860">
        <ele>1023.694</ele>
        <time>2020-02-28T18:54:13Z</time>
      </trkpt>
      <trkpt lat="40.121440" lon="-5.864850">
        <ele>1022.139</ele>
        <time>2020-02-28T18:54:33Z</time>
      </trkpt>
      <trkpt lat="40.121730" lon="-5.864770">
        <ele>1019.860</ele>
        <time>2020-02-28T18:54:53Z</time>
      </trkpt>
      <trkpt lat="40.122240" lon="-5.864540">
        <ele>1014.393</ele>
        <time>2020-02-28T18:55:13Z</time>
      </trkpt>
      <trkpt lat="40.122590" lon="-5.864320">
        <ele>1012.122</ele>
        <time>2020-02-28T18:55:33Z</time>
      </trkpt>
      <trkpt lat="40.123490" lon="-5.863600">
        <ele>1004.653</ele>
        <time>2020-02-28T18:55:53Z</time>
      </trkpt>
      <trkpt lat="40.123950" lon="-5.863140">
        <ele>999.760</ele>
        <time>2020-02-28T18:56:13Z</time>
      </trkpt>
      <trkpt lat="40.125240" lon="-5.862080">
        <ele>990.198</ele>
        <time>2020-02-28T18:56:33Z</time>
      </trkpt>
      <trkpt lat="40.125590" lon="-5.861700">
        <ele>988.415</ele>
        <time>2020-02-28T18:56:53Z</time>
      </trkpt>
      <trkpt lat="40.125620" lon="-5.861680">
        <ele>987.926</ele>
        <time>2020-02-28T18:57:13Z</time>
      </trkpt>
      <trkpt lat="40.126290" lon="-5.860800">
        <ele>981.708</ele>
        <time>2020-02-28T18:57:33Z</time>
      </trkpt>
      <trkpt lat="40.126570" lon="-5.860270">
        <ele>980.933</ele>
        <time>2020-02-28T18:57:53Z</time>
      </trkpt>
      <trkpt lat="40.126670" lon="-5.860000">
        <ele>979.956</ele>
        <time>2020-02-28T18:58:13Z</time>
      </trkpt>
      <trkpt lat="40.126730" lon="-5.859750">
        <ele>980.011</ele>
        <time>2020-02-28T18:58:33Z</time>
      </trkpt>
      <trkpt lat="40.126800" lon="-5.859240">
        <ele>982.732</ele>
        <time>2020-02-28T18:58:53Z</time>
      </trkpt>
      <trkpt lat="40.127060" lon="-5.858710">
        <ele>976.345</ele>
        <time>2020-02-28T18:59:13Z</time>
      </trkpt>
      <trkpt lat="40.127380" lon="-5.858140">
        <ele>972.814</ele>
        <time>2020-02-28T18:59:33Z</time>
      </trkpt>
      <trkpt lat="40.127390" lon="-5.858110">
        <ele>972.985</ele>
        <time>2020-02-28T18:59:53Z</time>
      </trkpt>
      <trkpt lat="40.128240" lon="-5.856910">
        <ele>964.552</ele>
        <time>2020-02-28T19:00:13Z</time>
      </trkpt>
      <trkpt lat="40.128290" lon="-5.856860">
        <ele>963.486</ele>
        <time>2020-02-28T19:00:33Z</time>
      </trkpt>
      <trkpt lat="40.128310" lon="-5.856830">
        <ele>963.060</ele>
        <time>2020-02-28T19:00:53Z</time>
      </trkpt>
      <trkpt lat="40.128380" lon="-5.856790">
        <ele>962.126</ele>
        <time>2020-02-28T19:01:13Z</time>
      </trkpt>
      <trkpt lat="40.128440" lon="-5.856790">
        <ele>961.608</ele>
        <time>2020-02-28T19:01:33Z</time>
      </trkpt>
      <trkpt lat="40.128440" lon="-5.856780">
        <ele>961.612</ele>
        <time>2020-02-28T19:01:53Z</time>
      </trkpt>
      <trkpt lat="40.128450" lon="-5.856790">
        <ele>961.515</ele>
        <time>2020-02-28T19:02:13Z</time>
      </trkpt>
      <trkpt lat="40.128480" lon="-5.856790">
        <ele>961.250</ele>
        <time>2020-02-28T19:02:33Z</time>
      </trkpt>
      <trkpt lat="40.128500" lon="-5.856800">
        <ele>961.011</ele>
        <time>2020-02-28T19:02:53Z</time>
      </trkpt>
      <trkpt lat="40.128510" lon="-5.856800">
        <ele>960.914</ele>
        <time>2020-02-28T19:03:13Z</time>
      </trkpt>
      <trkpt lat="40.128530" lon="-5.856830">
        <ele>960.773</ele>
        <time>2020-02-28T19:03:33Z</time>
      </trkpt>
      <trkpt lat="40.128570" lon="-5.856870">
        <ele>960.394</ele>
        <time>2020-02-28T19:03:53Z</time>
      </trkpt>
      <trkpt lat="40.128580" lon="-5.856890">
        <ele>960.271</ele>
        <time>2020-02-28T19:04:13Z</time>
      </trkpt>
      <trkpt lat="40.128580" lon="-5.856900">
        <ele>960.222</ele>
        <time>2020-02-28T19:04:33Z</time>
      </trkpt>
      <trkpt lat="40.128590" lon="-5.856920">
        <ele>960.262</ele>
        <time>2020-02-28T19:04:53Z</time>
      </trkpt>
      <trkpt lat="40.128600" lon="-5.856960">
        <ele>960.108</ele>
        <time>2020-02-28T19:05:13Z</time>
      </trkpt>
      <trkpt lat="40.128600" lon="-5.857030">
        <ele>960.108</ele>
        <time>2020-02-28T19:05:33Z</time>
      </trkpt>
      <trkpt lat="40.128590" lon="-5.857100">
        <ele>960.116</ele>
        <time>2020-02-28T19:05:53Z</time>
      </trkpt>
      <trkpt lat="40.128580" lon="-5.857130">
        <ele>960.149</ele>
        <time>2020-02-28T19:06:13Z</time>
      </trkpt>
      <trkpt lat="40.128580" lon="-5.857140">
        <ele>960.184</ele>
        <time>2020-02-28T19:06:33Z</time>
      </trkpt>
      <trkpt lat="40.128510" lon="-5.857340">
        <ele>959.035</ele>
        <time>2020-02-28T19:06:53Z</time>
      </trkpt>
      <trkpt lat="40.128510" lon="-5.857360">
        <ele>958.788</ele>
        <time>2020-02-28T19:07:13Z</time>
      </trkpt>
      <trkpt lat="40.128490" lon="-5.857440">
        <ele>958.097</ele>
        <time>2020-02-28T19:07:33Z</time>
      </trkpt>
      <trkpt lat="40.128390" lon="-5.857650">
        <ele>956.578</ele>
        <time>2020-02-28T19:07:53Z</time>
      </trkpt>
      <trkpt lat="40.127760" lon="-5.858650">
        <ele>952.915</ele>
        <time>2020-02-28T19:08:13Z</time>
      </trkpt>
      <trkpt lat="40.127750" lon="-5.858680">
        <ele>952.858</ele>
        <time>2020-02-28T19:08:33Z</time>
      </trkpt>
      <trkpt lat="40.127700" lon="-5.858770">
        <ele>952.852</ele>
        <time>2020-02-28T19:08:53Z</time>
      </trkpt>
      <trkpt lat="40.127560" lon="-5.859080">
        <ele>952.817</ele>
        <time>2020-02-28T19:09:13Z</time>
      </trkpt>
      <trkpt lat="40.127450" lon="-5.859380">
        <ele>953.508</ele>
        <time>2020-02-28T19:09:33Z</time>
      </trkpt>
      <trkpt lat="40.127450" lon="-5.859420">
        <ele>953.389</ele>
        <time>2020-02-28T19:09:53Z</time>
      </trkpt>
      <trkpt lat="40.127440" lon="-5.859490">
        <ele>953.532</ele>
        <time>2020-02-28T19:10:13Z</time>
      </trkpt>
      <trkpt lat="40.127460" lon="-5.859720">
        <ele>951.997</ele>
        <time>2020-02-28T19:10:33Z</time>
      </trkpt>
      <trkpt lat="40.127470" lon="-5.859750">
        <ele>951.268</ele>
        <time>2020-02-28T19:10:53Z</time>
      </trkpt>
      <trkpt lat="40.127550" lon="-5.860180">
        <ele>946.181</ele>
        <time>2020-02-28T19:11:13Z</time>
      </trkpt>
      <trkpt lat="40.127550" lon="-5.860210">
        <ele>946.050</ele>
        <time>2020-02-28T19:11:33Z</time>
      </trkpt>
      <trkpt lat="40.127580" lon="-5.860330">
        <ele>944.521</ele>
        <time>2020-02-28T19:11:53Z</time>
      </trkpt>
      <trkpt lat="40.127600" lon="-5.860540">
        <ele>942.028</ele>
        <time>2020-02-28T19:12:13Z</time>
      </trkpt>
      <trkpt lat="40.127600" lon="-5.860670">
        <ele>940.241</ele>
        <time>2020-02-28T19:12:33Z</time>
      </trkpt>
      <trkpt lat="40.127590" lon="-5.860770">
        <ele>939.081</ele>
        <time>2020-02-28T19:12:53Z</time>
      </trkpt>
      <trkpt lat="40.127560" lon="-5.860880">
        <ele>938.209</ele>
        <time>2020-02-28T19:13:13Z</time>
      </trkpt>
      <trkpt lat="40.127470" lon="-5.861090">
        <ele>937.408</ele>
        <time>2020-02-28T19:13:33Z</time>
      </trkpt>
      <trkpt lat="40.127220" lon="-5.861460">
        <ele>936.378</ele>
        <time>2020-02-28T19:13:53Z</time>
      </trkpt>
      <trkpt lat="40.127130" lon="-5.861620">
        <ele>935.921</ele>
        <time>2020-02-28T19:14:13Z</time>
      </trkpt>
      <trkpt lat="40.127120" lon="-5.861650">
        <ele>935.546</ele>
        <time>2020-02-28T19:14:33Z</time>
      </trkpt>
      <trkpt lat="40.127090" lon="-5.861690">
        <ele>935.697</ele>
        <time>2020-02-28T19:14:53Z</time>
      </trkpt>
      <trkpt lat="40.127040" lon="-5.861820">
        <ele>934.250</ele>
        <time>2020-02-28T19:15:13Z</time>
      </trkpt>
      <trkpt lat="40.127020" lon="-5.861850">
        <ele>934.279</ele>
        <time>2020-02-28T19:15:33Z</time>
      </trkpt>
      <trkpt lat="40.126950" lon="-5.862020">
        <ele>933.150</ele>
        <time>2020-02-28T19:15:53Z</time>
      </trkpt>
      <trkpt lat="40.126940" lon="-5.862060">
        <ele>932.757</ele>
        <time>2020-02-28T19:16:13Z</time>
      </trkpt>
      <trkpt lat="40.126930" lon="-5.862060">
        <ele>933.272</ele>
        <time>2020-02-28T19:16:33Z</time>
      </trkpt>
      <trkpt lat="40.126610" lon="-5.862850">
        <ele>929.013</ele>
        <time>2020-02-28T19:16:53Z</time>
      </trkpt>
      <trkpt lat="40.126600" lon="-5.862890">
        <ele>928.714</ele>
        <time>2020-02-28T19:17:13Z</time>
      </trkpt>
      <trkpt lat="40.126440" lon="-5.863270">
        <ele>926.008</ele>
        <time>2020-02-28T19:17:33Z</time>
      </trkpt>
      <trkpt lat="40.126340" lon="-5.863460">
        <ele>924.721</ele>
        <time>2020-02-28T19:17:53Z</time>
      </trkpt>
      <trkpt lat="40.126180" lon="-5.863650">
        <ele>924.934</ele>
        <time>2020-02-28T19:18:13Z</time>
      </trkpt>
      <trkpt lat="40.126180" lon="-5.863660">
        <ele>924.669</ele>
        <time>2020-02-28T19:18:33Z</time>
      </trkpt>
      <trkpt lat="40.126060" lon="-5.863760">
        <ele>924.530</ele>
        <time>2020-02-28T19:18:53Z</time>
      </trkpt>
      <trkpt lat="40.126040" lon="-5.863790">
        <ele>924.013</ele>
        <time>2020-02-28T19:19:13Z</time>
      </trkpt>
      <trkpt lat="40.125640" lon="-5.864020">
        <ele>924.992</ele>
        <time>2020-02-28T19:19:33Z</time>
      </trkpt>
      <trkpt lat="40.125550" lon="-5.864130">
        <ele>924.123</ele>
        <time>2020-02-28T19:19:53Z</time>
      </trkpt>
      <trkpt lat="40.125380" lon="-5.864530">
        <ele>919.530</ele>
        <time>2020-02-28T19:20:13Z</time>
      </trkpt>
      <trkpt lat="40.125070" lon="-5.865040">
        <ele>916.157</ele>
        <time>2020-02-28T19:20:33Z</time>
      </trkpt>
      <trkpt lat="40.125040" lon="-5.865070">
        <ele>916.200</ele>
        <time>2020-02-28T19:20:53Z</time>
      </trkpt>
      <trkpt lat="40.125040" lon="-5.865080">
        <ele>916.020</ele>
        <time>2020-02-28T19:21:13Z</time>
      </trkpt>
      <trkpt lat="40.124680" lon="-5.865610">
        <ele>916.308</ele>
        <time>2020-02-28T19:21:33Z</time>
      </trkpt>
      <trkpt lat="40.124680" lon="-5.865620">
        <ele>916.129</ele>
        <time>2020-02-28T19:21:53Z</time>
      </trkpt>
      <trkpt lat="40.124480" lon="-5.866160">
        <ele>913.552</ele>
        <time>2020-02-28T19:22:13Z</time>
      </trkpt>
      <trkpt lat="40.124270" lon="-5.866550">
        <ele>911.997</ele>
        <time>2020-02-28T19:22:33Z</time>
      </trkpt>
      <trkpt lat="40.124170" lon="-5.866780">
        <ele>911.298</ele>
        <time>2020-02-28T19:22:53Z</time>
      </trkpt>
      <trkpt lat="40.124030" lon="-5.867160">
        <ele>911.771</ele>
        <time>2020-02-28T19:23:13Z</time>
      </trkpt>
      <trkpt lat="40.124020" lon="-5.867320">
        <ele>910.320</ele>
        <time>2020-02-28T19:23:33Z</time>
      </trkpt>
      <trkpt lat="40.124090" lon="-5.867740">
        <ele>904.661</ele>
        <time>2020-02-28T19:23:53Z</time>
      </trkpt>
      <trkpt lat="40.124090" lon="-5.867970">
        <ele>903.228</ele>
        <time>2020-02-28T19:24:13Z</time>
      </trkpt>
      <trkpt lat="40.124030" lon="-5.868120">
        <ele>903.165</ele>
        <time>2020-02-28T19:24:33Z</time>
      </trkpt>
      <trkpt lat="40.123920" lon="-5.868270">
        <ele>902.768</ele>
        <time>2020-02-28T19:24:53Z</time>
      </trkpt>
      <trkpt lat="40.123760" lon="-5.868430">
        <ele>900.814</ele>
        <time>2020-02-28T19:25:13Z</time>
      </trkpt>
      <trkpt lat="40.123710" lon="-5.868470">
        <ele>900.308</ele>
        <time>2020-02-28T19:25:33Z</time>
      </trkpt>
      <trkpt lat="40.123230" lon="-5.868940">
        <ele>894.950</ele>
        <time>2020-02-28T19:25:53Z</time>
      </trkpt>
      <trkpt lat="40.122980" lon="-5.869230">
        <ele>892.993</ele>
        <time>2020-02-28T19:26:13Z</time>
      </trkpt>
      <trkpt lat="40.122800" lon="-5.869490">
        <ele>891.238</ele>
        <time>2020-02-28T19:26:33Z</time>
      </trkpt>
      <trkpt lat="40.122670" lon="-5.869600">
        <ele>890.449</ele>
        <time>2020-02-28T19:26:53Z</time>
      </trkpt>
      <trkpt lat="40.122520" lon="-5.869620">
        <ele>891.012</ele>
        <time>2020-02-28T19:27:13Z</time>
      </trkpt>
      <trkpt lat="40.122470" lon="-5.869610">
        <ele>890.981</ele>
        <time>2020-02-28T19:27:33Z</time>
      </trkpt>
      <trkpt lat="40.122340" lon="-5.869600">
        <ele>889.832</ele>
        <time>2020-02-28T19:27:53Z</time>
      </trkpt>
      <trkpt lat="40.122180" lon="-5.869630">
        <ele>888.679</ele>
        <time>2020-02-28T19:28:13Z</time>
      </trkpt>
      <trkpt lat="40.121950" lon="-5.869840">
        <ele>886.321</ele>
        <time>2020-02-28T19:28:33Z</time>
      </trkpt>
      <trkpt lat="40.121710" lon="-5.870140">
        <ele>884.541</ele>
        <time>2020-02-28T19:28:53Z</time>
      </trkpt>
      <trkpt lat="40.121700" lon="-5.870160">
        <ele>884.305</ele>
        <time>2020-02-28T19:29:13Z</time>
      </trkpt>
      <trkpt lat="40.121550" lon="-5.870340">
        <ele>882.108</ele>
        <time>2020-02-28T19:29:33Z</time>
      </trkpt>
      <trkpt lat="40.120990" lon="-5.871090">
        <ele>874.716</ele>
        <time>2020-02-28T19:29:53Z</time>
      </trkpt>
      <trkpt lat="40.120910" lon="-5.871240">
        <ele>873.379</ele>
        <time>2020-02-28T19:30:13Z</time>
      </trkpt>
      <trkpt lat="40.120900" lon="-5.871410">
        <ele>872.164</ele>
        <time>2020-02-28T19:30:33Z</time>
      </trkpt>
      <trkpt lat="40.120950" lon="-5.871550">
        <ele>871.355</ele>
        <time>2020-02-28T19:30:53Z</time>
      </trkpt>
      <trkpt lat="40.121030" lon="-5.871630">
        <ele>871.018</ele>
        <time>2020-02-28T19:31:13Z</time>
      </trkpt>
      <trkpt lat="40.121130" lon="-5.871640">
        <ele>870.647</ele>
        <time>2020-02-28T19:31:33Z</time>
      </trkpt>
      <trkpt lat="40.121170" lon="-5.871620">
        <ele>869.598</ele>
        <time>2020-02-28T19:31:53Z</time>
      </trkpt>
      <trkpt lat="40.121240" lon="-5.871570">
        <ele>867.795</ele>
        <time>2020-02-28T19:32:13Z</time>
      </trkpt>
      <trkpt lat="40.121450" lon="-5.871350">
        <ele>864.593</ele>
        <time>2020-02-28T19:32:33Z</time>
      </trkpt>
      <trkpt lat="40.121780" lon="-5.870860">
        <ele>864.765</ele>
        <time>2020-02-28T19:32:53Z</time>
      </trkpt>
      <trkpt lat="40.121910" lon="-5.870750">
        <ele>864.321</ele>
        <time>2020-02-28T19:33:13Z</time>
      </trkpt>
      <trkpt lat="40.122010" lon="-5.870740">
        <ele>864.208</ele>
        <time>2020-02-28T19:33:33Z</time>
      </trkpt>
      <trkpt lat="40.122120" lon="-5.870820">
        <ele>863.583</ele>
        <time>2020-02-28T19:33:53Z</time>
      </trkpt>
      <trkpt lat="40.122230" lon="-5.870970">
        <ele>861.186</ele>
        <time>2020-02-28T19:34:13Z</time>
      </trkpt>
      <trkpt lat="40.122360" lon="-5.871090">
        <ele>859.911</ele>
        <time>2020-02-28T19:34:33Z</time>
      </trkpt>
      <trkpt lat="40.122680" lon="-5.871210">
        <ele>857.272</ele>
        <time>2020-02-28T19:34:53Z</time>
      </trkpt>
      <trkpt lat="40.122740" lon="-5.871240">
        <ele>856.355</ele>
        <time>2020-02-28T19:35:13Z</time>
      </trkpt>
      <trkpt lat="40.122860" lon="-5.871240">
        <ele>855.314</ele>
        <time>2020-02-28T19:35:33Z</time>
      </trkpt>
      <trkpt lat="40.122980" lon="-5.871170">
        <ele>855.145</ele>
        <time>2020-02-28T19:35:53Z</time>
      </trkpt>
      <trkpt lat="40.123250" lon="-5.870940">
        <ele>855.322</ele>
        <time>2020-02-28T19:36:13Z</time>
      </trkpt>
      <trkpt lat="40.123600" lon="-5.870720">
        <ele>853.264</ele>
        <time>2020-02-28T19:36:33Z</time>
      </trkpt>
      <trkpt lat="40.123820" lon="-5.870650">
        <ele>851.506</ele>
        <time>2020-02-28T19:36:53Z</time>
      </trkpt>
      <trkpt lat="40.123920" lon="-5.870640">
        <ele>850.416</ele>
        <time>2020-02-28T19:37:13Z</time>
      </trkpt>
      <trkpt lat="40.123990" lon="-5.870620">
        <ele>849.708</ele>
        <time>2020-02-28T19:37:33Z</time>
      </trkpt>
      <trkpt lat="40.124100" lon="-5.870650">
        <ele>847.330</ele>
        <time>2020-02-28T19:37:53Z</time>
      </trkpt>
      <trkpt lat="40.124400" lon="-5.870770">
        <ele>843.983</ele>
        <time>2020-02-28T19:38:13Z</time>
      </trkpt>
      <trkpt lat="40.124600" lon="-5.870810">
        <ele>842.838</ele>
        <time>2020-02-28T19:38:33Z</time>
      </trkpt>
      <trkpt lat="40.124800" lon="-5.870780">
        <ele>842.259</ele>
        <time>2020-02-28T19:38:53Z</time>
      </trkpt>
      <trkpt lat="40.125150" lon="-5.870670">
        <ele>839.472</ele>
        <time>2020-02-28T19:39:13Z</time>
      </trkpt>
      <trkpt lat="40.125160" lon="-5.870670">
        <ele>839.221</ele>
        <time>2020-02-28T19:39:33Z</time>
      </trkpt>
      <trkpt lat="40.125290" lon="-5.870630">
        <ele>837.812</ele>
        <time>2020-02-28T19:39:53Z</time>
      </trkpt>
      <trkpt lat="40.125450" lon="-5.870540">
        <ele>836.799</ele>
        <time>2020-02-28T19:40:13Z</time>
      </trkpt>
      <trkpt lat="40.125880" lon="-5.870020">
        <ele>835.672</ele>
        <time>2020-02-28T19:40:33Z</time>
      </trkpt>
      <trkpt lat="40.125970" lon="-5.869820">
        <ele>834.213</ele>
        <time>2020-02-28T19:40:53Z</time>
      </trkpt>
      <trkpt lat="40.125970" lon="-5.869800">
        <ele>834.314</ele>
        <time>2020-02-28T19:41:13Z</time>
      </trkpt>
      <trkpt lat="40.126100" lon="-5.869150">
        <ele>830.508</ele>
        <time>2020-02-28T19:41:33Z</time>
      </trkpt>
      <trkpt lat="40.126110" lon="-5.868850">
        <ele>831.271</ele>
        <time>2020-02-28T19:41:53Z</time>
      </trkpt>
      <trkpt lat="40.126170" lon="-5.868620">
        <ele>829.464</ele>
        <time>2020-02-28T19:42:13Z</time>
      </trkpt>
      <trkpt lat="40.126250" lon="-5.868420">
        <ele>827.419</ele>
        <time>2020-02-28T19:42:33Z</time>
      </trkpt>
      <trkpt lat="40.126500" lon="-5.867960">
        <ele>822.950</ele>
        <time>2020-02-28T19:42:53Z</time>
      </trkpt>
      <trkpt lat="40.126590" lon="-5.867730">
        <ele>821.973</ele>
        <time>2020-02-28T19:43:13Z</time>
      </trkpt>
      <trkpt lat="40.126700" lon="-5.867230">
        <ele>822.082</ele>
        <time>2020-02-28T19:43:33Z</time>
      </trkpt>
      <trkpt lat="40.126710" lon="-5.867210">
        <ele>821.673</ele>
        <time>2020-02-28T19:43:53Z</time>
      </trkpt>
      <trkpt lat="40.126760" lon="-5.867050">
        <ele>820.580</ele>
        <time>2020-02-28T19:44:13Z</time>
      </trkpt>
      <trkpt lat="40.127040" lon="-5.866630">
        <ele>814.561</ele>
        <time>2020-02-28T19:44:33Z</time>
      </trkpt>
      <trkpt lat="40.127400" lon="-5.866140">
        <ele>812.421</ele>
        <time>2020-02-28T19:44:53Z</time>
      </trkpt>
      <trkpt lat="40.127800" lon="-5.865650">
        <ele>813.113</ele>
        <time>2020-02-28T19:45:13Z</time>
      </trkpt>
      <trkpt lat="40.128520" lon="-5.864610">
        <ele>804.008</ele>
        <time>2020-02-28T19:45:33Z</time>
      </trkpt>
      <trkpt lat="40.128530" lon="-5.864580">
        <ele>804.270</ele>
        <time>2020-02-28T19:45:53Z</time>
      </trkpt>
      <trkpt lat="40.128650" lon="-5.864460">
        <ele>801.443</ele>
        <time>2020-02-28T19:46:13Z</time>
      </trkpt>
      <trkpt lat="40.128810" lon="-5.864360">
        <ele>799.538</ele>
        <time>2020-02-28T19:46:33Z</time>
      </trkpt>
      <trkpt lat="40.128820" lon="-5.864360">
        <ele>799.279</ele>
        <time>2020-02-28T19:46:53Z</time>
      </trkpt>
      <trkpt lat="40.129280" lon="-5.864070">
        <ele>795.392</ele>
        <time>2020-02-28T19:47:13Z</time>
      </trkpt>
      <trkpt lat="40.129300" lon="-5.864040">
        <ele>795.031</ele>
        <time>2020-02-28T19:47:33Z</time>
      </trkpt>
      <trkpt lat="40.129350" lon="-5.863990">
        <ele>793.922</ele>
        <time>2020-02-28T19:47:53Z</time>
      </trkpt>
      <trkpt lat="40.129420" lon="-5.863870">
        <ele>793.159</ele>
        <time>2020-02-28T19:48:13Z</time>
      </trkpt>
      <trkpt lat="40.129460" lon="-5.863750">
        <ele>793.492</ele>
        <time>2020-02-28T19:48:33Z</time>
      </trkpt>
      <trkpt lat="40.129460" lon="-5.863610">
        <ele>795.573</ele>
        <time>2020-02-28T19:48:53Z</time>
      </trkpt>
      <trkpt lat="40.129510" lon="-5.863470">
        <ele>795.520</ele>
        <time>2020-02-28T19:49:13Z</time>
      </trkpt>
      <trkpt lat="40.129530" lon="-5.863430">
        <ele>795.508</ele>
        <time>2020-02-28T19:49:33Z</time>
      </trkpt>
      <trkpt lat="40.129560" lon="-5.863400">
        <ele>795.133</ele>
        <time>2020-02-28T19:49:53Z</time>
      </trkpt>
      <trkpt lat="40.130020" lon="-5.863200">
        <ele>788.686</ele>
        <time>2020-02-28T19:50:13Z</time>
      </trkpt>
      <trkpt lat="40.130140" lon="-5.863080">
        <ele>786.061</ele>
        <time>2020-02-28T19:50:33Z</time>
      </trkpt>
      <trkpt lat="40.130250" lon="-5.862830">
        <ele>783.292</ele>
        <time>2020-02-28T19:50:53Z</time>
      </trkpt>
      <trkpt lat="40.130250" lon="-5.862820">
        <ele>783.335</ele>
        <time>2020-02-28T19:51:13Z</time>
      </trkpt>
      <trkpt lat="40.130340" lon="-5.862540">
        <ele>783.224</ele>
        <time>2020-02-28T19:51:33Z</time>
      </trkpt>
      <trkpt lat="40.130380" lon="-5.862490">
        <ele>783.255</ele>
        <time>2020-02-28T19:51:53Z</time>
      </trkpt>
      <trkpt lat="40.130440" lon="-5.862440">
        <ele>783.732</ele>
        <time>2020-02-28T19:52:13Z</time>
      </trkpt>
      <trkpt lat="40.130550" lon="-5.862420">
        <ele>782.023</ele>
        <time>2020-02-28T19:52:33Z</time>
      </trkpt>
      <trkpt lat="40.130620" lon="-5.862430">
        <ele>780.883</ele>
        <time>2020-02-28T19:52:53Z</time>
      </trkpt>
      <trkpt lat="40.130690" lon="-5.862430">
        <ele>780.111</ele>
        <time>2020-02-28T19:53:13Z</time>
      </trkpt>
      <trkpt lat="40.131070" lon="-5.862350">
        <ele>775.808</ele>
        <time>2020-02-28T19:53:33Z</time>
      </trkpt>
      <trkpt lat="40.131250" lon="-5.862330">
        <ele>773.216</ele>
        <time>2020-02-28T19:53:53Z</time>
      </trkpt>
      <trkpt lat="40.131440" lon="-5.862200">
        <ele>772.859</ele>
        <time>2020-02-28T19:54:13Z</time>
      </trkpt>
      <trkpt lat="40.131600" lon="-5.862060">
        <ele>772.854</ele>
        <time>2020-02-28T19:54:33Z</time>
      </trkpt>
      <trkpt lat="40.131730" lon="-5.861900">
        <ele>772.125</ele>
        <time>2020-02-28T19:54:53Z</time>
      </trkpt>
      <trkpt lat="40.131750" lon="-5.861860">
        <ele>772.138</ele>
        <time>2020-02-28T19:55:13Z</time>
      </trkpt>
      <trkpt lat="40.132020" lon="-5.861450">
        <ele>771.237</ele>
        <time>2020-02-28T19:55:33Z</time>
      </trkpt>
      <trkpt lat="40.132240" lon="-5.861230">
        <ele>768.978</ele>
        <time>2020-02-28T19:55:53Z</time>
      </trkpt>
      <trkpt lat="40.132260" lon="-5.861200">
        <ele>768.915</ele>
        <time>2020-02-28T19:56:13Z</time>
      </trkpt>
      <trkpt lat="40.132870" lon="-5.860640">
        <ele>765.522</ele>
        <time>2020-02-28T19:56:33Z</time>
      </trkpt>
      <trkpt lat="40.133210" lon="-5.860380">
        <ele>763.762</ele>
        <time>2020-02-28T19:56:53Z</time>
      </trkpt>
      <trkpt lat="40.133280" lon="-5.860350">
        <ele>763.008</ele>
        <time>2020-02-28T19:57:13Z</time>
      </trkpt>
      <trkpt lat="40.133340" lon="-5.860350">
        <ele>762.208</ele>
        <time>2020-02-28T19:57:33Z</time>
      </trkpt>
      <trkpt lat="40.133370" lon="-5.860360">
        <ele>761.836</ele>
        <time>2020-02-28T19:57:53Z</time>
      </trkpt>
      <trkpt lat="40.133390" lon="-5.860360">
        <ele>761.649</ele>
        <time>2020-02-28T19:58:13Z</time>
      </trkpt>
      <trkpt lat="40.133450" lon="-5.860400">
        <ele>760.684</ele>
        <time>2020-02-28T19:58:33Z</time>
      </trkpt>
      <trkpt lat="40.133480" lon="-5.860440">
        <ele>760.035</ele>
        <time>2020-02-28T19:58:53Z</time>
      </trkpt>
      <trkpt lat="40.133520" lon="-5.860530">
        <ele>758.958</ele>
        <time>2020-02-28T19:59:13Z</time>
      </trkpt>
      <trkpt lat="40.133540" lon="-5.860650">
        <ele>757.547</ele>
        <time>2020-02-28T19:59:33Z</time>
      </trkpt>
      <trkpt lat="40.133550" lon="-5.860680">
        <ele>757.188</ele>
        <time>2020-02-28T19:59:53Z</time>
      </trkpt>
      <trkpt lat="40.133550" lon="-5.860760">
        <ele>756.245</ele>
        <time>2020-02-28T20:00:13Z</time>
      </trkpt>
      <trkpt lat="40.133540" lon="-5.860810">
        <ele>755.836</ele>
        <time>2020-02-28T20:00:33Z</time>
      </trkpt>
      <trkpt lat="40.133500" lon="-5.860930">
        <ele>755.017</ele>
        <time>2020-02-28T20:00:53Z</time>
      </trkpt>
      <trkpt lat="40.133400" lon="-5.861090">
        <ele>754.018</ele>
        <time>2020-02-28T20:01:13Z</time>
      </trkpt>
      <trkpt lat="40.133380" lon="-5.861100">
        <ele>753.908</ele>
        <time>2020-02-28T20:01:33Z</time>
      </trkpt>
      <trkpt lat="40.132970" lon="-5.861510">
        <ele>751.577</ele>
        <time>2020-02-28T20:01:53Z</time>
      </trkpt>
      <trkpt lat="40.132850" lon="-5.861680">
        <ele>750.890</ele>
        <time>2020-02-28T20:02:13Z</time>
      </trkpt>
      <trkpt lat="40.132840" lon="-5.861680">
        <ele>750.955</ele>
        <time>2020-02-28T20:02:33Z</time>
      </trkpt>
      <trkpt lat="40.132480" lon="-5.862460">
        <ele>746.166</ele>
        <time>2020-02-28T20:02:53Z</time>
      </trkpt>
      <trkpt lat="40.132230" lon="-5.862930">
        <ele>741.039</ele>
        <time>2020-02-28T20:03:13Z</time>
      </trkpt>
      <trkpt lat="40.132180" lon="-5.863000">
        <ele>740.548</ele>
        <time>2020-02-28T20:03:33Z</time>
      </trkpt>
      <trkpt lat="40.132120" lon="-5.863060">
        <ele>740.549</ele>
        <time>2020-02-28T20:03:53Z</time>
      </trkpt>
      <trkpt lat="40.131610" lon="-5.863470">
        <ele>737.646</ele>
        <time>2020-02-28T20:04:13Z</time>
      </trkpt>
      <trkpt lat="40.131390" lon="-5.863690">
        <ele>737.129</ele>
        <time>2020-02-28T20:04:33Z</time>
      </trkpt>
      <trkpt lat="40.131370" lon="-5.863700">
        <ele>737.700</ele>
        <time>2020-02-28T20:04:53Z</time>
      </trkpt>
      <trkpt lat="40.131320" lon="-5.863820">
        <ele>738.020</ele>
        <time>2020-02-28T20:05:13Z</time>
      </trkpt>
      <trkpt lat="40.131300" lon="-5.863890">
        <ele>737.908</ele>
        <time>2020-02-28T20:05:33Z</time>
      </trkpt>
      <trkpt lat="40.131250" lon="-5.864310">
        <ele>735.046</ele>
        <time>2020-02-28T20:05:53Z</time>
      </trkpt>
      <trkpt lat="40.131230" lon="-5.864930">
        <ele>726.869</ele>
        <time>2020-02-28T20:06:13Z</time>
      </trkpt>
      <trkpt lat="40.131170" lon="-5.865100">
        <ele>725.984</ele>
        <time>2020-02-28T20:06:33Z</time>
      </trkpt>
      <trkpt lat="40.131090" lon="-5.865250">
        <ele>725.145</ele>
        <time>2020-02-28T20:06:53Z</time>
      </trkpt>
      <trkpt lat="40.130950" lon="-5.865390">
        <ele>724.488</ele>
        <time>2020-02-28T20:07:13Z</time>
      </trkpt>
      <trkpt lat="40.130780" lon="-5.865460">
        <ele>725.877</ele>
        <time>2020-02-28T20:07:33Z</time>
      </trkpt>
      <trkpt lat="40.130760" lon="-5.865460">
        <ele>726.298</ele>
        <time>2020-02-28T20:07:53Z</time>
      </trkpt>
      <trkpt lat="40.130620" lon="-5.865570">
        <ele>727.135</ele>
        <time>2020-02-28T20:08:13Z</time>
      </trkpt>
      <trkpt lat="40.130540" lon="-5.865690">
        <ele>726.945</ele>
        <time>2020-02-28T20:08:33Z</time>
      </trkpt>
      <trkpt lat="40.130410" lon="-5.866140">
        <ele>721.947</ele>
        <time>2020-02-28T20:08:53Z</time>
      </trkpt>
      <trkpt lat="40.130330" lon="-5.866330">
        <ele>719.211</ele>
        <time>2020-02-28T20:09:13Z</time>
      </trkpt>
      <trkpt lat="40.130100" lon="-5.866650">
        <ele>720.108</ele>
        <time>2020-02-28T20:09:33Z</time>
      </trkpt>
      <trkpt lat="40.130000" lon="-5.866880">
        <ele>722.048</ele>
        <time>2020-02-28T20:09:53Z</time>
      </trkpt>
      <trkpt lat="40.130000" lon="-5.866970">
        <ele>722.481</ele>
        <time>2020-02-28T20:10:13Z</time>
      </trkpt>
      <trkpt lat="40.130020" lon="-5.867080">
        <ele>723.526</ele>
        <time>2020-02-28T20:10:33Z</time>
      </trkpt>
      <trkpt lat="40.130220" lon="-5.867400">
        <ele>721.957</ele>
        <time>2020-02-28T20:10:53Z</time>
      </trkpt>
      <trkpt lat="40.130610" lon="-5.867900">
        <ele>718.970</ele>
        <time>2020-02-28T20:11:13Z</time>
      </trkpt>
      <trkpt lat="40.130610" lon="-5.867910">
        <ele>719.059</ele>
        <time>2020-02-28T20:11:33Z</time>
      </trkpt>
      <trkpt lat="40.130790" lon="-5.868210">
        <ele>716.960</ele>
        <time>2020-02-28T20:11:53Z</time>
      </trkpt>
      <trkpt lat="40.130980" lon="-5.868580">
        <ele>712.197</ele>
        <time>2020-02-28T20:12:13Z</time>
      </trkpt>
      <trkpt lat="40.130980" lon="-5.868710">
        <ele>710.421</ele>
        <time>2020-02-28T20:12:33Z</time>
      </trkpt>
      <trkpt lat="40.130930" lon="-5.868870">
        <ele>709.241</ele>
        <time>2020-02-28T20:12:53Z</time>
      </trkpt>
      <trkpt lat="40.130800" lon="-5.869090">
        <ele>710.205</ele>
        <time>2020-02-28T20:13:13Z</time>
      </trkpt>
      <trkpt lat="40.130680" lon="-5.869460">
        <ele>708.608</ele>
        <time>2020-02-28T20:13:33Z</time>
      </trkpt>
      <trkpt lat="40.130650" lon="-5.869820">
        <ele>704.746</ele>
        <time>2020-02-28T20:13:53Z</time>
      </trkpt>
      <trkpt lat="40.130570" lon="-5.869960">
        <ele>703.589</ele>
        <time>2020-02-28T20:14:13Z</time>
      </trkpt>
      <trkpt lat="40.130450" lon="-5.870080">
        <ele>703.364</ele>
        <time>2020-02-28T20:14:33Z</time>
      </trkpt>
      <trkpt lat="40.130170" lon="-5.870300">
        <ele>704.555</ele>
        <time>2020-02-28T20:14:53Z</time>
      </trkpt>
      <trkpt lat="40.130100" lon="-5.870440">
        <ele>705.158</ele>
        <time>2020-02-28T20:15:13Z</time>
      </trkpt>
      <trkpt lat="40.130070" lon="-5.870600">
        <ele>704.867</ele>
        <time>2020-02-28T20:15:33Z</time>
      </trkpt>
      <trkpt lat="40.130150" lon="-5.871520">
        <ele>700.268</ele>
        <time>2020-02-28T20:15:53Z</time>
      </trkpt>
      <trkpt lat="40.130180" lon="-5.871650">
        <ele>699.815</ele>
        <time>2020-02-28T20:16:13Z</time>
      </trkpt>
      <trkpt lat="40.130450" lon="-5.872360">
        <ele>694.556</ele>
        <time>2020-02-28T20:16:33Z</time>
      </trkpt>
      <trkpt lat="40.130510" lon="-5.872580">
        <ele>693.359</ele>
        <time>2020-02-28T20:16:53Z</time>
      </trkpt>
      <trkpt lat="40.130600" lon="-5.873030">
        <ele>691.914</ele>
        <time>2020-02-28T20:17:13Z</time>
      </trkpt>
      <trkpt lat="40.130700" lon="-5.873170">
        <ele>690.708</ele>
        <time>2020-02-28T20:17:33Z</time>
      </trkpt>
      <trkpt lat="40.131250" lon="-5.873700">
        <ele>683.039</ele>
        <time>2020-02-28T20:17:53Z</time>
      </trkpt>
      <trkpt lat="40.131290" lon="-5.873790">
        <ele>682.022</ele>
        <time>2020-02-28T20:18:13Z</time>
      </trkpt>
      <trkpt lat="40.131320" lon="-5.874020">
        <ele>680.567</ele>
        <time>2020-02-28T20:18:33Z</time>
      </trkpt>
      <trkpt lat="40.131320" lon="-5.874300">
        <ele>680.338</ele>
        <time>2020-02-28T20:18:53Z</time>
      </trkpt>
      <trkpt lat="40.131370" lon="-5.874520">
        <ele>679.771</ele>
        <time>2020-02-28T20:19:13Z</time>
      </trkpt>
      <trkpt lat="40.131430" lon="-5.874630">
        <ele>679.150</ele>
        <time>2020-02-28T20:19:33Z</time>
      </trkpt>
      <trkpt lat="40.131440" lon="-5.874630">
        <ele>678.981</ele>
        <time>2020-02-28T20:19:53Z</time>
      </trkpt>
      <trkpt lat="40.131880" lon="-5.875350">
        <ele>672.418</ele>
        <time>2020-02-28T20:20:13Z</time>
      </trkpt>
      <trkpt lat="40.132020" lon="-5.875660">
        <ele>669.916</ele>
        <time>2020-02-28T20:20:33Z</time>
      </trkpt>
      <trkpt lat="40.132060" lon="-5.875840">
        <ele>669.576</ele>
        <time>2020-02-28T20:20:53Z</time>
      </trkpt>
      <trkpt lat="40.132080" lon="-5.876300">
        <ele>665.713</ele>
        <time>2020-02-28T20:21:13Z</time>
      </trkpt>
      <trkpt lat="40.132050" lon="-5.876490">
        <ele>663.408</ele>
        <time>2020-02-28T20:21:33Z</time>
      </trkpt>
      <trkpt lat="40.131960" lon="-5.876770">
        <ele>659.955</ele>
        <time>2020-02-28T20:21:53Z</time>
      </trkpt>
      <trkpt lat="40.131900" lon="-5.876920">
        <ele>658.168</ele>
        <time>2020-02-28T20:22:13Z</time>
      </trkpt>
      <trkpt lat="40.131890" lon="-5.876930">
        <ele>658.113</ele>
        <time>2020-02-28T20:22:33Z</time>
      </trkpt>
      <trkpt lat="40.131870" lon="-5.876940">
        <ele>658.294</ele>
        <time>2020-02-28T20:22:53Z</time>
      </trkpt>
      <trkpt lat="40.131860" lon="-5.876950">
        <ele>658.117</ele>
        <time>2020-02-28T20:23:13Z</time>
      </trkpt>
      <trkpt lat="40.131580" lon="-5.877080">
        <ele>659.216</ele>
        <time>2020-02-28T20:23:33Z</time>
      </trkpt>
      <trkpt lat="40.131520" lon="-5.877130">
        <ele>658.947</ele>
        <time>2020-02-28T20:23:53Z</time>
      </trkpt>
      <trkpt lat="40.131420" lon="-5.877300">
        <ele>657.234</ele>
        <time>2020-02-28T20:24:13Z</time>
      </trkpt>
      <trkpt lat="40.131170" lon="-5.877840">
        <ele>651.186</ele>
        <time>2020-02-28T20:24:33Z</time>
      </trkpt>
      <trkpt lat="40.130530" lon="-5.878830">
        <ele>649.460</ele>
        <time>2020-02-28T20:24:53Z</time>
      </trkpt>
      <trkpt lat="40.130490" lon="-5.878920">
        <ele>649.126</ele>
        <time>2020-02-28T20:25:13Z</time>
      </trkpt>
      <trkpt lat="40.130480" lon="-5.878980">
        <ele>648.608</ele>
        <time>2020-02-28T20:25:33Z</time>
      </trkpt>
      <trkpt lat="40.130480" lon="-5.879040">
        <ele>648.082</ele>
        <time>2020-02-28T20:25:53Z</time>
      </trkpt>
      <trkpt lat="40.130490" lon="-5.879090">
        <ele>647.285</ele>
        <time>2020-02-28T20:26:13Z</time>
      </trkpt>
      <trkpt lat="40.130540" lon="-5.879170">
        <ele>645.320</ele>
        <time>2020-02-28T20:26:33Z</time>
      </trkpt>
      <trkpt lat="40.130600" lon="-5.879220">
        <ele>643.631</ele>
        <time>2020-02-28T20:26:53Z</time>
      </trkpt>
      <trkpt lat="40.130670" lon="-5.879240">
        <ele>642.024</ele>
        <time>2020-02-28T20:27:13Z</time>
      </trkpt>
      <trkpt lat="40.130720" lon="-5.879230">
        <ele>641.253</ele>
        <time>2020-02-28T20:27:33Z</time>
      </trkpt>
      <trkpt lat="40.130770" lon="-5.879200">
        <ele>640.784</ele>
        <time>2020-02-28T20:27:53Z</time>
      </trkpt>
      <trkpt lat="40.130820" lon="-5.879120">
        <ele>640.761</ele>
        <time>2020-02-28T20:28:13Z</time>
      </trkpt>
      <trkpt lat="40.131000" lon="-5.878900">
        <ele>641.093</ele>
        <time>2020-02-28T20:28:33Z</time>
      </trkpt>
      <trkpt lat="40.131090" lon="-5.878770">
        <ele>641.565</ele>
        <time>2020-02-28T20:28:53Z</time>
      </trkpt>
      <trkpt lat="40.131140" lon="-5.878740">
        <ele>641.121</ele>
        <time>2020-02-28T20:29:13Z</time>
      </trkpt>
      <trkpt lat="40.131190" lon="-5.878730">
        <ele>640.308</ele>
        <time>2020-02-28T20:29:33Z</time>
      </trkpt>
      <trkpt lat="40.131220" lon="-5.878730">
        <ele>639.833</ele>
        <time>2020-02-28T20:29:53Z</time>
      </trkpt>
      <trkpt lat="40.131250" lon="-5.878720">
        <ele>639.326</ele>
        <time>2020-02-28T20:30:13Z</time>
      </trkpt>
      <trkpt lat="40.131320" lon="-5.878750">
        <ele>637.741</ele>
        <time>2020-02-28T20:30:33Z</time>
      </trkpt>
      <trkpt lat="40.131400" lon="-5.878840">
        <ele>635.552</ele>
        <time>2020-02-28T20:30:53Z</time>
      </trkpt>
      <trkpt lat="40.131430" lon="-5.878990">
        <ele>633.825</ele>
        <time>2020-02-28T20:31:13Z</time>
      </trkpt>
      <trkpt lat="40.131430" lon="-5.879050">
        <ele>633.224</ele>
        <time>2020-02-28T20:31:33Z</time>
      </trkpt>
      <trkpt lat="40.131380" lon="-5.879220">
        <ele>631.525</ele>
        <time>2020-02-28T20:31:53Z</time>
      </trkpt>
      <trkpt lat="40.131280" lon="-5.879380">
        <ele>630.332</ele>
        <time>2020-02-28T20:32:13Z</time>
      </trkpt>
      <trkpt lat="40.130940" lon="-5.879720">
        <ele>629.593</ele>
        <time>2020-02-28T20:32:33Z</time>
      </trkpt>
      <trkpt lat="40.130680" lon="-5.880040">
        <ele>630.465</ele>
        <time>2020-02-28T20:32:53Z</time>
      </trkpt>
      <trkpt lat="40.130560" lon="-5.880310">
        <ele>629.421</ele>
        <time>2020-02-28T20:33:13Z</time>
      </trkpt>
      <trkpt lat="40.130490" lon="-5.880530">
        <ele>627.608</ele>
        <time>2020-02-28T20:33:33Z</time>
      </trkpt>
      <trkpt lat="40.130390" lon="-5.880770">
        <ele>626.253</ele>
        <time>2020-02-28T20:33:53Z</time>
      </trkpt>
      <trkpt lat="40.130180" lon="-5.881030">
        <ele>625.736</ele>
        <time>2020-02-28T20:34:13Z</time>
      </trkpt>
      <trkpt lat="40.130060" lon="-5.881120">
        <ele>625.571</ele>
        <time>2020-02-28T20:34:33Z</time>
      </trkpt>
      <trkpt lat="40.129990" lon="-5.881190">
        <ele>625.222</ele>
        <time>2020-02-28T20:34:53Z</time>
      </trkpt>
      <trkpt lat="40.129920" lon="-5.881290">
        <ele>624.565</ele>
        <time>2020-02-28T20:35:13Z</time>
      </trkpt>
      <trkpt lat="40.129900" lon="-5.881370">
        <ele>623.664</ele>
        <time>2020-02-28T20:35:33Z</time>
      </trkpt>
      <trkpt lat="40.129890" lon="-5.881530">
        <ele>621.685</ele>
        <time>2020-02-28T20:35:53Z</time>
      </trkpt>
      <trkpt lat="40.129930" lon="-5.881630">
        <ele>620.082</ele>
        <time>2020-02-28T20:36:13Z</time>
      </trkpt>
      <trkpt lat="40.130030" lon="-5.881720">
        <ele>618.172</ele>
        <time>2020-02-28T20:36:33Z</time>
      </trkpt>
      <trkpt lat="40.130090" lon="-5.881740">
        <ele>617.113</ele>
        <time>2020-02-28T20:36:53Z</time>
      </trkpt>
      <trkpt lat="40.130130" lon="-5.881730">
        <ele>616.814</ele>
        <time>2020-02-28T20:37:13Z</time>
      </trkpt>
      <trkpt lat="40.130190" lon="-5.881730">
        <ele>616.108</ele>
        <time>2020-02-28T20:37:33Z</time>
      </trkpt>
      <trkpt lat="40.130260" lon="-5.881700">
        <ele>615.781</ele>
        <time>2020-02-28T20:37:53Z</time>
      </trkpt>
      <trkpt lat="40.130460" lon="-5.881560">
        <ele>614.964</ele>
        <time>2020-02-28T20:38:13Z</time>
      </trkpt>
      <trkpt lat="40.131120" lon="-5.880810">
        <ele>614.189</ele>
        <time>2020-02-28T20:38:33Z</time>
      </trkpt>
      <trkpt lat="40.131290" lon="-5.880710">
        <ele>611.840</ele>
        <time>2020-02-28T20:38:53Z</time>
      </trkpt>
      <trkpt lat="40.131420" lon="-5.880670">
        <ele>609.953</ele>
        <time>2020-02-28T20:39:13Z</time>
      </trkpt>
      <trkpt lat="40.131500" lon="-5.880630">
        <ele>609.232</ele>
        <time>2020-02-28T20:39:33Z</time>
      </trkpt>
      <trkpt lat="40.131600" lon="-5.880540">
        <ele>609.523</ele>
        <time>2020-02-28T20:39:53Z</time>
      </trkpt>
      <trkpt lat="40.131690" lon="-5.880410">
        <ele>610.440</ele>
        <time>2020-02-28T20:40:13Z</time>
      </trkpt>
      <trkpt lat="40.131860" lon="-5.880100">
        <ele>612.593</ele>
        <time>2020-02-28T20:40:33Z</time>
      </trkpt>
      <trkpt lat="40.131910" lon="-5.880040">
        <ele>612.865</ele>
        <time>2020-02-28T20:40:53Z</time>
      </trkpt>
      <trkpt lat="40.132100" lon="-5.879860">
        <ele>611.221</ele>
        <time>2020-02-28T20:41:13Z</time>
      </trkpt>
      <trkpt lat="40.132300" lon="-5.879730">
        <ele>608.408</ele>
        <time>2020-02-28T20:41:33Z</time>
      </trkpt>
      <trkpt lat="40.132450" lon="-5.879540">
        <ele>609.493</ele>
        <time>2020-02-28T20:41:53Z</time>
      </trkpt>
      <trkpt lat="40.132470" lon="-5.879470">
        <ele>610.346</ele>
        <time>2020-02-28T20:42:13Z</time>
      </trkpt>
      <trkpt lat="40.132540" lon="-5.879390">
        <ele>610.961</ele>
        <time>2020-02-28T20:42:33Z</time>
      </trkpt>
      <trkpt lat="40.132600" lon="-5.879380">
        <ele>610.672</ele>
        <time>2020-02-28T20:42:53Z</time>
      </trkpt>
      <trkpt lat="40.132680" lon="-5.879410">
        <ele>609.485</ele>
        <time>2020-02-28T20:43:13Z</time>
      </trkpt>
      <trkpt lat="40.132770" lon="-5.879500">
        <ele>607.114</ele>
        <time>2020-02-28T20:43:33Z</time>
      </trkpt>
      <trkpt lat="40.132890" lon="-5.879600">
        <ele>605.065</ele>
        <time>2020-02-28T20:43:53Z</time>
      </trkpt>
      <trkpt lat="40.133140" lon="-5.879860">
        <ele>599.842</ele>
        <time>2020-02-28T20:44:13Z</time>
      </trkpt>
      <trkpt lat="40.133440" lon="-5.880120">
        <ele>597.413</ele>
        <time>2020-02-28T20:44:33Z</time>
      </trkpt>
      <trkpt lat="40.133730" lon="-5.879430">
        <ele>601.243</ele>
        <time>2020-02-28T20:44:53Z</time>
      </trkpt>
      <trkpt lat="40.133560" lon="-5.879200">
        <ele>604.307</ele>
        <time>2020-02-28T20:45:13Z</time>
      </trkpt>
      <trkpt lat="40.133410" lon="-5.879090">
        <ele>606.908</ele>
        <time>2020-02-28T20:45:33Z</time>
      </trkpt>
      <trkpt lat="40.133310" lon="-5.879060">
        <ele>608.695</ele>
        <time>2020-02-28T20:45:53Z</time>
      </trkpt>
      <trkpt lat="40.133270" lon="-5.878930">
        <ele>610.718</ele>
        <time>2020-02-28T20:46:13Z</time>
      </trkpt>
      <trkpt lat="40.133230" lon="-5.878680">
        <ele>613.493</ele>
        <time>2020-02-28T20:46:33Z</time>
      </trkpt>
      <trkpt lat="40.133260" lon="-5.878390">
        <ele>615.154</ele>
        <time>2020-02-28T20:46:53Z</time>
      </trkpt>
      <trkpt lat="40.133260" lon="-5.878160">
        <ele>617.057</ele>
        <time>2020-02-28T20:47:13Z</time>
      </trkpt>
      <trkpt lat="40.133280" lon="-5.878120">
        <ele>616.836</ele>
        <time>2020-02-28T20:47:33Z</time>
      </trkpt>
      <trkpt lat="40.133790" lon="-5.876630">
        <ele>607.527</ele>
        <time>2020-02-28T20:47:53Z</time>
      </trkpt>
      <trkpt lat="40.133820" lon="-5.876030">
        <ele>609.334</ele>
        <time>2020-02-28T20:48:13Z</time>
      </trkpt>
      <trkpt lat="40.134050" lon="-5.875080">
        <ele>603.026</ele>
        <time>2020-02-28T20:48:33Z</time>
      </trkpt>
      <trkpt lat="40.134130" lon="-5.874930">
        <ele>601.947</ele>
        <time>2020-02-28T20:48:53Z</time>
      </trkpt>
      <trkpt lat="40.134450" lon="-5.874600">
        <ele>596.411</ele>
        <time>2020-02-28T20:49:13Z</time>
      </trkpt>
      <trkpt lat="40.134510" lon="-5.874430">
        <ele>597.708</ele>
        <time>2020-02-28T20:49:33Z</time>
      </trkpt>
      <trkpt lat="40.134630" lon="-5.873060">
        <ele>597.046</ele>
        <time>2020-02-28T20:49:53Z</time>
      </trkpt>
      <trkpt lat="40.134460" lon="-5.872430">
        <ele>595.549</ele>
        <time>2020-02-28T20:50:13Z</time>
      </trkpt>
      <trkpt lat="40.134490" lon="-5.872310">
        <ele>592.724</ele>
        <time>2020-02-28T20:50:33Z</time>
      </trkpt>
      <trkpt lat="40.134580" lon="-5.872250">
        <ele>587.535</ele>
        <time>2020-02-28T20:50:53Z</time>
      </trkpt>
      <trkpt lat="40.134700" lon="-5.872250">
        <ele>581.588</ele>
        <time>2020-02-28T20:51:13Z</time>
      </trkpt>
      <trkpt lat="40.134780" lon="-5.872290">
        <ele>581.957</ele>
        <time>2020-02-28T20:51:33Z</time>
      </trkpt>
      <trkpt lat="40.134970" lon="-5.872580">
        <ele>578.748</ele>
        <time>2020-02-28T20:51:53Z</time>
      </trkpt>
      <trkpt lat="40.135200" lon="-5.872810">
        <ele>574.475</ele>
        <time>2020-02-28T20:52:13Z</time>
      </trkpt>
      <trkpt lat="40.135260" lon="-5.872860">
        <ele>573.181</ele>
        <time>2020-02-28T20:52:33Z</time>
      </trkpt>
      <trkpt lat="40.135750" lon="-5.872900">
        <ele>573.361</ele>
        <time>2020-02-28T20:52:53Z</time>
      </trkpt>
      <trkpt lat="40.136220" lon="-5.873160">
        <ele>582.517</ele>
        <time>2020-02-28T20:53:13Z</time>
      </trkpt>
      <trkpt lat="40.136220" lon="-5.873170">
        <ele>582.508</ele>
        <time>2020-02-28T20:53:33Z</time>
      </trkpt>
      <trkpt lat="40.136270" lon="-5.873270">
        <ele>583.332</ele>
        <time>2020-02-28T20:53:53Z</time>
      </trkpt>
      <trkpt lat="40.136300" lon="-5.874100">
        <ele>576.595</ele>
        <time>2020-02-28T20:54:13Z</time>
      </trkpt>
      <trkpt lat="40.136310" lon="-5.874130">
        <ele>576.620</ele>
        <time>2020-02-28T20:54:33Z</time>
      </trkpt>
      <trkpt lat="40.136340" lon="-5.874330">
        <ele>574.021</ele>
        <time>2020-02-28T20:54:53Z</time>
      </trkpt>
      <trkpt lat="40.136360" lon="-5.874390">
        <ele>573.724</ele>
        <time>2020-02-28T20:55:13Z</time>
      </trkpt>
      <trkpt lat="40.136530" lon="-5.874720">
        <ele>575.223</ele>
        <time>2020-02-28T20:55:33Z</time>
      </trkpt>
      <trkpt lat="40.136550" lon="-5.874740">
        <ele>575.854</ele>
        <time>2020-02-28T20:55:53Z</time>
      </trkpt>
      <trkpt lat="40.136820" lon="-5.875690">
        <ele>573.861</ele>
        <time>2020-02-28T20:56:13Z</time>
      </trkpt>
      <trkpt lat="40.137520" lon="-5.876460">
        <ele>572.132</ele>
        <time>2020-02-28T20:56:33Z</time>
      </trkpt>
      <trkpt lat="40.137650" lon="-5.876540">
        <ele>571.692</ele>
        <time>2020-02-28T20:56:53Z</time>
      </trkpt>
      <trkpt lat="40.137940" lon="-5.876590">
        <ele>574.111</ele>
        <time>2020-02-28T20:57:13Z</time>
      </trkpt>
      <trkpt lat="40.137950" lon="-5.876600">
        <ele>573.908</ele>
        <time>2020-02-28T20:57:33Z</time>
      </trkpt>
      <trkpt lat="40.138160" lon="-5.876730">
        <ele>571.387</ele>
        <time>2020-02-28T20:57:53Z</time>
      </trkpt>
      <trkpt lat="40.138250" lon="-5.876740">
        <ele>571.130</ele>
        <time>2020-02-28T20:58:13Z</time>
      </trkpt>
      <trkpt lat="40.138670" lon="-5.876610">
        <ele>567.985</ele>
        <time>2020-02-28T20:58:33Z</time>
      </trkpt>
      <trkpt lat="40.139260" lon="-5.876160">
        <ele>556.866</ele>
        <time>2020-02-28T20:58:53Z</time>
      </trkpt>
      <trkpt lat="40.139450" lon="-5.875950">
        <ele>553.649</ele>
        <time>2020-02-28T20:59:13Z</time>
      </trkpt>
      <trkpt lat="40.139610" lon="-5.875720">
        <ele>551.518</ele>
        <time>2020-02-28T20:59:33Z</time>
      </trkpt>
      <trkpt lat="40.139910" lon="-5.875190">
        <ele>548.619</ele>
        <time>2020-02-28T20:59:53Z</time>
      </trkpt>
      <trkpt lat="40.140110" lon="-5.874980">
        <ele>544.946</ele>
        <time>2020-02-28T21:00:13Z</time>
      </trkpt>
      <trkpt lat="40.140680" lon="-5.874590">
        <ele>536.448</ele>
        <time>2020-02-28T21:00:33Z</time>
      </trkpt>
      <trkpt lat="40.140820" lon="-5.874440">
        <ele>535.461</ele>
        <time>2020-02-28T21:00:53Z</time>
      </trkpt>
      <trkpt lat="40.141300" lon="-5.873770">
        <ele>534.317</ele>
        <time>2020-02-28T21:01:13Z</time>
      </trkpt>
      <trkpt lat="40.141820" lon="-5.873530">
        <ele>521.108</ele>
        <time>2020-02-28T21:01:33Z</time>
      </trkpt>
      <trkpt lat="40.141940" lon="-5.873420">
        <ele>519.298</ele>
        <time>2020-02-28T21:01:53Z</time>
      </trkpt>
      <trkpt lat="40.142080" lon="-5.873220">
        <ele>516.171</ele>
        <time>2020-02-28T21:02:13Z</time>
      </trkpt>
      <trkpt lat="40.142130" lon="-5.873120">
        <ele>515.636</ele>
        <time>2020-02-28T21:02:33Z</time>
      </trkpt>
      <trkpt lat="40.142240" lon="-5.872940">
        <ele>513.987</ele>
        <time>2020-02-28T21:02:53Z</time>
      </trkpt>
      <trkpt lat="40.142320" lon="-5.872850">
        <ele>511.820</ele>
        <time>2020-02-28T21:03:13Z</time>
      </trkpt>
      <trkpt lat="40.142700" lon="-5.872580">
        <ele>502.999</ele>
        <time>2020-02-28T21:03:33Z</time>
      </trkpt>
      <trkpt lat="40.142840" lon="-5.872420">
        <ele>500.660</ele>
        <time>2020-02-28T21:03:53Z</time>
      </trkpt>
      <trkpt lat="40.143140" lon="-5.871840">
        <ele>498.317</ele>
        <time>2020-02-28T21:04:13Z</time>
      </trkpt>
      <trkpt lat="40.143200" lon="-5.872800">
        <ele>493.217</ele>
        <time>2020-02-28T21:04:33Z</time>
      </trkpt>
      <trkpt lat="40.143310" lon="-5.873710">
        <ele>482.087</ele>
        <time>2020-02-28T21:04:53Z</time>
      </trkpt>
      <trkpt lat="40.143300" lon="-5.873960">
        <ele>480.315</ele>
        <time>2020-02-28T21:05:13Z</time>
      </trkpt>
      <trkpt lat="40.143150" lon="-5.874550">
        <ele>477.608</ele>
        <time>2020-02-28T21:05:33Z</time>
      </trkpt>
      <trkpt lat="40.142970" lon="-5.875020">
        <ele>475.375</ele>
        <time>2020-02-28T21:05:53Z</time>
      </trkpt>
      <trkpt lat="40.142370" lon="-5.876130">
        <ele>474.128</ele>
        <time>2020-02-28T21:06:13Z</time>
      </trkpt>
      <trkpt lat="40.142340" lon="-5.876200">
        <ele>473.983</ele>
        <time>2020-02-28T21:06:33Z</time>
      </trkpt>
      <trkpt lat="40.142300" lon="-5.876340">
        <ele>473.194</ele>
        <time>2020-02-28T21:06:53Z</time>
      </trkpt>
      <trkpt lat="40.142250" lon="-5.876610">
        <ele>470.567</ele>
        <time>2020-02-28T21:07:13Z</time>
      </trkpt>
      <trkpt lat="40.142220" lon="-5.876880">
        <ele>469.396</ele>
        <time>2020-02-28T21:07:33Z</time>
      </trkpt>
      <trkpt lat="40.142250" lon="-5.877110">
        <ele>467.867</ele>
        <time>2020-02-28T21:07:53Z</time>
      </trkpt>
      <trkpt lat="40.142440" lon="-5.877740">
        <ele>462.034</ele>
        <time>2020-02-28T21:08:13Z</time>
      </trkpt>
      <trkpt lat="40.142490" lon="-5.877960">
        <ele>459.069</ele>
        <time>2020-02-28T21:08:33Z</time>
      </trkpt>
      <trkpt lat="40.142510" lon="-5.878250">
        <ele>456.504</ele>
        <time>2020-02-28T21:08:53Z</time>
      </trkpt>
      <trkpt lat="40.142480" lon="-5.878700">
        <ele>453.424</ele>
        <time>2020-02-28T21:09:13Z</time>
      </trkpt>
      <trkpt lat="40.142390" lon="-5.879280">
        <ele>450.108</ele>
        <time>2020-02-28T21:09:33Z</time>
      </trkpt>
      <trkpt lat="40.142400" lon="-5.879410">
        <ele>449.740</ele>
        <time>2020-02-28T21:09:53Z</time>
      </trkpt>
      <trkpt lat="40.142460" lon="-5.879590">
        <ele>449.973</ele>
        <time>2020-02-28T21:10:13Z</time>
      </trkpt>
      <trkpt lat="40.142490" lon="-5.879640">
        <ele>450.048</ele>
        <time>2020-02-28T21:10:33Z</time>
      </trkpt>
      <trkpt lat="40.142580" lon="-5.879620">
        <ele>450.299</ele>
        <time>2020-02-28T21:10:53Z</time>
      </trkpt>
      <trkpt lat="40.142630" lon="-5.879620">
        <ele>450.372</ele>
        <time>2020-02-28T21:11:13Z</time>
      </trkpt>
      <trkpt lat="40.142680" lon="-5.879600">
        <ele>450.471</ele>
        <time>2020-02-28T21:11:33Z</time>
      </trkpt>
      <trkpt lat="40.144070" lon="-5.878080">
        <ele>452.762</ele>
        <time>2020-02-28T21:11:53Z</time>
      </trkpt>
      <trkpt lat="40.144330" lon="-5.877760">
        <ele>451.749</ele>
        <time>2020-02-28T21:12:13Z</time>
      </trkpt>
      <trkpt lat="40.145760" lon="-5.875620">
        <ele>449.529</ele>
        <time>2020-02-28T21:12:33Z</time>
      </trkpt>
      <trkpt lat="40.145860" lon="-5.875510">
        <ele>448.100</ele>
        <time>2020-02-28T21:12:53Z</time>
      </trkpt>
      <trkpt lat="40.145960" lon="-5.875360">
        <ele>447.820</ele>
        <time>2020-02-28T21:13:13Z</time>
      </trkpt>
      <trkpt lat="40.146010" lon="-5.875260">
        <ele>447.908</ele>
        <time>2020-02-28T21:13:33Z</time>
      </trkpt>
      <trkpt lat="40.146110" lon="-5.875110">
        <ele>447.416</ele>
        <time>2020-02-28T21:13:53Z</time>
      </trkpt>
      <trkpt lat="40.146430" lon="-5.874480">
        <ele>446.559</ele>
        <time>2020-02-28T21:14:13Z</time>
      </trkpt>
      <trkpt lat="40.147420" lon="-5.871500">
        <ele>444.924</ele>
        <time>2020-02-28T21:14:33Z</time>
      </trkpt>
      <trkpt lat="40.147600" lon="-5.871030">
        <ele>441.125</ele>
        <time>2020-02-28T21:14:53Z</time>
      </trkpt>
      <trkpt lat="40.147760" lon="-5.870720">
        <ele>439.248</ele>
        <time>2020-02-28T21:15:13Z</time>
      </trkpt>
      <trkpt lat="40.147870" lon="-5.870550">
        <ele>441.467</ele>
        <time>2020-02-28T21:15:33Z</time>
      </trkpt>
      <trkpt lat="40.148040" lon="-5.870330">
        <ele>445.528</ele>
        <time>2020-02-28T21:15:53Z</time>
      </trkpt>
      <trkpt lat="40.148280" lon="-5.870060">
        <ele>448.525</ele>
        <time>2020-02-28T21:16:13Z</time>
      </trkpt>
      <trkpt lat="40.148710" lon="-5.869630">
        <ele>451.376</ele>
        <time>2020-02-28T21:16:33Z</time>
      </trkpt>
      <trkpt lat="40.149020" lon="-5.869270">
        <ele>452.290</ele>
        <time>2020-02-28T21:16:53Z</time>
      </trkpt>
      <trkpt lat="40.149190" lon="-5.869000">
        <ele>452.419</ele>
        <time>2020-02-28T21:17:13Z</time>
      </trkpt>
      <trkpt lat="40.149310" lon="-5.868770">
        <ele>452.308</ele>
        <time>2020-02-28T21:17:33Z</time>
      </trkpt>
      <trkpt lat="40.149500" lon="-5.868310">
        <ele>452.081</ele>
        <time>2020-02-28T21:17:53Z</time>
      </trkpt>
      <trkpt lat="40.149820" lon="-5.867330">
        <ele>452.164</ele>
        <time>2020-02-28T21:18:13Z</time>
      </trkpt>
      <trkpt lat="40.150030" lon="-5.866830">
        <ele>448.149</ele>
        <time>2020-02-28T21:18:33Z</time>
      </trkpt>
      <trkpt lat="40.150110" lon="-5.866670">
        <ele>446.020</ele>
        <time>2020-02-28T21:18:53Z</time>
      </trkpt>
      <trkpt lat="40.150270" lon="-5.866420">
        <ele>443.183</ele>
        <time>2020-02-28T21:19:13Z</time>
      </trkpt>
      <trkpt lat="40.150620" lon="-5.866000">
        <ele>441.822</ele>
        <time>2020-02-28T21:19:33Z</time>
      </trkpt>
      <trkpt lat="40.151900" lon="-5.864710">
        <ele>445.833</ele>
        <time>2020-02-28T21:19:53Z</time>
      </trkpt>
      <trkpt lat="40.152290" lon="-5.864250">
        <ele>446.440</ele>
        <time>2020-02-28T21:20:13Z</time>
      </trkpt>
      <trkpt lat="40.152300" lon="-5.864230">
        <ele>446.534</ele>
        <time>2020-02-28T21:20:33Z</time>
      </trkpt>
      <trkpt lat="40.153170" lon="-5.863030">
        <ele>448.055</ele>
        <time>2020-02-28T21:20:53Z</time>
      </trkpt>
      <trkpt lat="40.154050" lon="-5.861710">
        <ele>447.910</ele>
        <time>2020-02-28T21:21:13Z</time>
      </trkpt>
      <trkpt lat="40.154330" lon="-5.861420">
        <ele>447.308</ele>
        <time>2020-02-28T21:21:33Z</time>
      </trkpt>
      <trkpt lat="40.154460" lon="-5.861320">
        <ele>447.517</ele>
        <time>2020-02-28T21:21:53Z</time>
      </trkpt>
      <trkpt lat="40.154710" lon="-5.861180">
        <ele>447.850</ele>
        <time>2020-02-28T21:22:13Z</time>
      </trkpt>
      <trkpt lat="40.154890" lon="-5.861110">
        <ele>448.015</ele>
        <time>2020-02-28T21:22:33Z</time>
      </trkpt>
      <trkpt lat="40.155530" lon="-5.860980">
        <ele>448.996</ele>
        <time>2020-02-28T21:22:53Z</time>
      </trkpt>
      <trkpt lat="40.155560" lon="-5.860980">
        <ele>448.939</ele>
        <time>2020-02-28T21:23:13Z</time>
      </trkpt>
      <trkpt lat="40.155810" lon="-5.860940">
        <ele>448.788</ele>
        <time>2020-02-28T21:23:33Z</time>
      </trkpt>
      <trkpt lat="40.156020" lon="-5.860890">
        <ele>448.759</ele>
        <time>2020-02-28T21:23:53Z</time>
      </trkpt>
      <trkpt lat="40.156170" lon="-5.860840">
        <ele>449.086</ele>
        <time>2020-02-28T21:24:13Z</time>
      </trkpt>
      <trkpt lat="40.156300" lon="-5.860770">
        <ele>449.575</ele>
        <time>2020-02-28T21:24:33Z</time>
      </trkpt>
      <trkpt lat="40.156450" lon="-5.860660">
        <ele>450.628</ele>
        <time>2020-02-28T21:24:53Z</time>
      </trkpt>
      <trkpt lat="40.156450" lon="-5.860650">
        <ele>450.620</ele>
        <time>2020-02-28T21:25:13Z</time>
      </trkpt>
      <trkpt lat="40.156640" lon="-5.860470">
        <ele>452.208</ele>
        <time>2020-02-28T21:25:33Z</time>
      </trkpt>
      <trkpt lat="40.156740" lon="-5.860360">
        <ele>452.431</ele>
        <time>2020-02-28T21:25:53Z</time>
      </trkpt>
      <trkpt lat="40.156920" lon="-5.860100">
        <ele>452.864</ele>
        <time>2020-02-28T21:26:13Z</time>
      </trkpt>
      <trkpt lat="40.157060" lon="-5.859830">
        <ele>453.029</ele>
        <time>2020-02-28T21:26:33Z</time>
      </trkpt>
      <trkpt lat="40.157590" lon="-5.858630">
        <ele>454.260</ele>
        <time>2020-02-28T21:26:53Z</time>
      </trkpt>
      <trkpt lat="40.157600" lon="-5.858620">
        <ele>454.233</ele>
        <time>2020-02-28T21:27:13Z</time>
      </trkpt>
      <trkpt lat="40.157810" lon="-5.858030">
        <ele>455.782</ele>
        <time>2020-02-28T21:27:33Z</time>
      </trkpt>
      <trkpt lat="40.157960" lon="-5.857450">
        <ele>456.023</ele>
        <time>2020-02-28T21:27:53Z</time>
      </trkpt>
      <trkpt lat="40.158050" lon="-5.856970">
        <ele>458.020</ele>
        <time>2020-02-28T21:28:13Z</time>
      </trkpt>
      <trkpt lat="40.158130" lon="-5.856750">
        <ele>457.523</ele>
        <time>2020-02-28T21:28:33Z</time>
      </trkpt>
      <trkpt lat="40.158200" lon="-5.856610">
        <ele>457.583</ele>
        <time>2020-02-28T21:28:53Z</time>
      </trkpt>
      <trkpt lat="40.158320" lon="-5.856430">
        <ele>456.611</ele>
        <time>2020-02-28T21:29:13Z</time>
      </trkpt>
      <trkpt lat="40.158400" lon="-5.856330">
        <ele>456.108</ele>
        <time>2020-02-28T21:29:33Z</time>
      </trkpt>
      <trkpt lat="40.158730" lon="-5.856030">
        <ele>455.116</ele>
        <time>2020-02-28T21:29:53Z</time>
      </trkpt>
      <trkpt lat="40.160570" lon="-5.854610">
        <ele>452.189</ele>
        <time>2020-02-28T21:30:13Z</time>
      </trkpt>
      <trkpt lat="40.160780" lon="-5.854410">
        <ele>452.554</ele>
        <time>2020-02-28T21:30:33Z</time>
      </trkpt>
      <trkpt lat="40.161200" lon="-5.853940">
        <ele>451.395</ele>
        <time>2020-02-28T21:30:53Z</time>
      </trkpt>
      <trkpt lat="40.163050" lon="-5.851670">
        <ele>439.138</ele>
        <time>2020-02-28T21:31:13Z</time>
      </trkpt>
      <trkpt lat="40.163360" lon="-5.851240">
        <ele>440.477</ele>
        <time>2020-02-28T21:31:33Z</time>
      </trkpt>
      <trkpt lat="40.163430" lon="-5.851120">
        <ele>440.928</ele>
        <time>2020-02-28T21:31:53Z</time>
      </trkpt>
      <trkpt lat="40.163540" lon="-5.850860">
        <ele>441.615</ele>
        <time>2020-02-28T21:32:13Z</time>
      </trkpt>
      <trkpt lat="40.163680" lon="-5.850400">
        <ele>442.789</ele>
        <time>2020-02-28T21:32:33Z</time>
      </trkpt>
      <trkpt lat="40.163860" lon="-5.849690">
        <ele>446.306</ele>
        <time>2020-02-28T21:32:53Z</time>
      </trkpt>
      <trkpt lat="40.163970" lon="-5.849390">
        <ele>447.026</ele>
        <time>2020-02-28T21:33:13Z</time>
      </trkpt>
      <trkpt lat="40.164140" lon="-5.849070">
        <ele>447.908</ele>
        <time>2020-02-28T21:33:33Z</time>
      </trkpt>
      <trkpt lat="40.164210" lon="-5.848970">
        <ele>448.162</ele>
        <time>2020-02-28T21:33:53Z</time>
      </trkpt>
      <trkpt lat="40.164450" lon="-5.848690">
        <ele>448.465</ele>
        <time>2020-02-28T21:34:13Z</time>
      </trkpt>
      <trkpt lat="40.164650" lon="-5.848510">
        <ele>447.640</ele>
        <time>2020-02-28T21:34:33Z</time>
      </trkpt>
      <trkpt lat="40.166370" lon="-5.847100">
        <ele>448.091</ele>
        <time>2020-02-28T21:34:53Z</time>
      </trkpt>
      <trkpt lat="40.166430" lon="-5.847060">
        <ele>447.994</ele>
        <time>2020-02-28T21:35:13Z</time>
      </trkpt>
      <trkpt lat="40.166810" lon="-5.846720">
        <ele>447.743</ele>
        <time>2020-02-28T21:35:33Z</time>
      </trkpt>
      <trkpt lat="40.167080" lon="-5.846390">
        <ele>447.514</ele>
        <time>2020-02-28T21:35:53Z</time>
      </trkpt>
      <trkpt lat="40.167270" lon="-5.846060">
        <ele>447.391</ele>
        <time>2020-02-28T21:36:13Z</time>
      </trkpt>
      <trkpt lat="40.167460" lon="-5.845550">
        <ele>445.855</ele>
        <time>2020-02-28T21:36:33Z</time>
      </trkpt>
      <trkpt lat="40.167920" lon="-5.843740">
        <ele>445.007</ele>
        <time>2020-02-28T21:36:53Z</time>
      </trkpt>
      <trkpt lat="40.168050" lon="-5.843320">
        <ele>446.117</ele>
        <time>2020-02-28T21:37:13Z</time>
      </trkpt>
      <trkpt lat="40.168270" lon="-5.842790">
        <ele>446.408</ele>
        <time>2020-02-28T21:37:33Z</time>
      </trkpt>
      <trkpt lat="40.168460" lon="-5.842430">
        <ele>448.069</ele>
        <time>2020-02-28T21:37:53Z</time>
      </trkpt>
      <trkpt lat="40.168630" lon="-5.842170">
        <ele>449.282</ele>
        <time>2020-02-28T21:38:13Z</time>
      </trkpt>
      <trkpt lat="40.168900" lon="-5.841820">
        <ele>449.817</ele>
        <time>2020-02-28T21:38:33Z</time>
      </trkpt>
      <trkpt lat="40.169290" lon="-5.841430">
        <ele>450.768</ele>
        <time>2020-02-28T21:38:53Z</time>
      </trkpt>
      <trkpt lat="40.169510" lon="-5.841240">
        <ele>451.421</ele>
        <time>2020-02-28T21:39:13Z</time>
      </trkpt>
      <trkpt lat="40.169680" lon="-5.841120">
        <ele>452.150</ele>
        <time>2020-02-28T21:39:33Z</time>
      </trkpt>
      <trkpt lat="40.169940" lon="-5.840970">
        <ele>451.411</ele>
        <time>2020-02-28T21:39:53Z</time>
      </trkpt>
      <trkpt lat="40.170160" lon="-5.840870">
        <ele>451.778</ele>
        <time>2020-02-28T21:40:13Z</time>
      </trkpt>
      <trkpt lat="40.170610" lon="-5.840750">
        <ele>451.492</ele>
        <time>2020-02-28T21:40:33Z</time>
      </trkpt>
      <trkpt lat="40.170910" lon="-5.840710">
        <ele>451.273</ele>
        <time>2020-02-28T21:40:53Z</time>
      </trkpt>
      <trkpt lat="40.173050" lon="-5.840660">
        <ele>450.620</ele>
        <time>2020-02-28T21:41:13Z</time>
      </trkpt>
      <trkpt lat="40.173160" lon="-5.840630">
        <ele>450.408</ele>
        <time>2020-02-28T21:41:33Z</time>
      </trkpt>
      <trkpt lat="40.173240" lon="-5.840570">
        <ele>450.853</ele>
        <time>2020-02-28T21:41:53Z</time>
      </trkpt>
      <trkpt lat="40.173340" lon="-5.840460">
        <ele>451.316</ele>
        <time>2020-02-28T21:42:13Z</time>
      </trkpt>
      <trkpt lat="40.174400" lon="-5.838820">
        <ele>453.341</ele>
        <time>2020-02-28T21:42:33Z</time>
      </trkpt>
      <trkpt lat="40.174460" lon="-5.838690">
        <ele>453.312</ele>
        <time>2020-02-28T21:42:53Z</time>
      </trkpt>
      <trkpt lat="40.174540" lon="-5.838450">
        <ele>453.515</ele>
        <time>2020-02-28T21:43:13Z</time>
      </trkpt>
      <trkpt lat="40.174850" lon="-5.836760">
        <ele>456.554</ele>
        <time>2020-02-28T21:43:33Z</time>
      </trkpt>
      <trkpt lat="40.174910" lon="-5.835990">
        <ele>459.875</ele>
        <time>2020-02-28T21:43:53Z</time>
      </trkpt>
      <trkpt lat="40.174930" lon="-5.835870">
        <ele>460.382</ele>
        <time>2020-02-28T21:44:13Z</time>
      </trkpt>
      <trkpt lat="40.174930" lon="-5.835550">
        <ele>462.031</ele>
        <time>2020-02-28T21:44:33Z</time>
      </trkpt>
      <trkpt lat="40.174900" lon="-5.835330">
        <ele>463.561</ele>
        <time>2020-02-28T21:44:53Z</time>
      </trkpt>
      <trkpt lat="40.174600" lon="-5.834240">
        <ele>464.107</ele>
        <time>2020-02-28T21:45:13Z</time>
      </trkpt>
      <trkpt lat="40.174570" lon="-5.834000">
        <ele>462.608</ele>
        <time>2020-02-28T21:45:33Z</time>
      </trkpt>
      <trkpt lat="40.174580" lon="-5.833800">
        <ele>460.477</ele>
        <time>2020-02-28T21:45:53Z</time>
      </trkpt>
      <trkpt lat="40.174660" lon="-5.833580">
        <ele>458.310</ele>
        <time>2020-02-28T21:46:13Z</time>
      </trkpt>
      <trkpt lat="40.175270" lon="-5.832790">
        <ele>455.075</ele>
        <time>2020-02-28T21:46:33Z</time>
      </trkpt>
      <trkpt lat="40.176460" lon="-5.831340">
        <ele>456.296</ele>
        <time>2020-02-28T21:46:53Z</time>
      </trkpt>
      <trkpt lat="40.176770" lon="-5.830910">
        <ele>457.739</ele>
        <time>2020-02-28T21:47:13Z</time>
      </trkpt>
      <trkpt lat="40.177970" lon="-5.829470">
        <ele>464.518</ele>
        <time>2020-02-28T21:47:33Z</time>
      </trkpt>
      <trkpt lat="40.178600" lon="-5.828620">
        <ele>467.069</ele>
        <time>2020-02-28T21:47:53Z</time>
      </trkpt>
      <trkpt lat="40.179170" lon="-5.827930">
        <ele>466.886</ele>
        <time>2020-02-28T21:48:13Z</time>
      </trkpt>
      <trkpt lat="40.179300" lon="-5.827720">
        <ele>463.577</ele>
        <time>2020-02-28T21:48:33Z</time>
      </trkpt>
      <trkpt lat="40.179360" lon="-5.827600">
        <ele>463.261</ele>
        <time>2020-02-28T21:48:53Z</time>
      </trkpt>
      <trkpt lat="40.179380" lon="-5.827530">
        <ele>463.727</ele>
        <time>2020-02-28T21:49:13Z</time>
      </trkpt>
      <trkpt lat="40.179410" lon="-5.827470">
        <ele>463.408</ele>
        <time>2020-02-28T21:49:33Z</time>
      </trkpt>
      <trkpt lat="40.179420" lon="-5.827410">
        <ele>464.111</ele>
        <time>2020-02-28T21:49:53Z</time>
      </trkpt>
      <trkpt lat="40.179450" lon="-5.827350">
        <ele>463.624</ele>
        <time>2020-02-28T21:50:13Z</time>
      </trkpt>
      <trkpt lat="40.179480" lon="-5.827240">
        <ele>464.649</ele>
        <time>2020-02-28T21:50:33Z</time>
      </trkpt>
      <trkpt lat="40.179540" lon="-5.827100">
        <ele>464.920</ele>
        <time>2020-02-28T21:50:53Z</time>
      </trkpt>
      <trkpt lat="40.179540" lon="-5.827090">
        <ele>465.193</ele>
        <time>2020-02-28T21:51:13Z</time>
      </trkpt>
      <trkpt lat="40.179680" lon="-5.826860">
        <ele>462.842</ele>
        <time>2020-02-28T21:51:33Z</time>
      </trkpt>
      <trkpt lat="40.179730" lon="-5.826810">
        <ele>461.863</ele>
        <time>2020-02-28T21:51:53Z</time>
      </trkpt>
      <trkpt lat="40.179740" lon="-5.826790">
        <ele>462.070</ele>
        <time>2020-02-28T21:52:13Z</time>
      </trkpt>
      <trkpt lat="40.179760" lon="-5.826780">
        <ele>461.855</ele>
        <time>2020-02-28T21:52:33Z</time>
      </trkpt>
      <trkpt lat="40.179780" lon="-5.826740">
        <ele>462.107</ele>
        <time>2020-02-28T21:52:53Z</time>
      </trkpt>
      <trkpt lat="40.179830" lon="-5.826690">
        <ele>461.617</ele>
        <time>2020-02-28T21:53:13Z</time>
      </trkpt>
      <trkpt lat="40.179850" lon="-5.826650">
        <ele>461.808</ele>
        <time>2020-02-28T21:53:33Z</time>
      </trkpt>
      <trkpt lat="40.179950" lon="-5.826540">
        <ele>461.719</ele>
        <time>2020-02-28T21:53:53Z</time>
      </trkpt>
      <trkpt lat="40.179990" lon="-5.826480">
        <ele>462.032</ele>
        <time>2020-02-28T21:54:13Z</time>
      </trkpt>
      <trkpt lat="40.180060" lon="-5.826410">
        <ele>462.357</ele>
        <time>2020-02-28T21:54:33Z</time>
      </trkpt>
      <trkpt lat="40.180070" lon="-5.826390">
        <ele>462.528</ele>
        <time>2020-02-28T21:54:53Z</time>
      </trkpt>
      <trkpt lat="40.180110" lon="-5.826350">
        <ele>462.661</ele>
        <time>2020-02-28T21:55:13Z</time>
      </trkpt>
      <trkpt lat="40.180140" lon="-5.826310">
        <ele>462.860</ele>
        <time>2020-02-28T21:55:33Z</time>
      </trkpt>
      <trkpt lat="40.180160" lon="-5.826270">
        <ele>463.281</ele>
        <time>2020-02-28T21:55:53Z</time>
      </trkpt>
      <trkpt lat="40.180220" lon="-5.826210">
        <ele>462.598</ele>
        <time>2020-02-28T21:56:13Z</time>
      </trkpt>
      <trkpt lat="40.180240" lon="-5.826180">
        <ele>462.338</ele>
        <time>2020-02-28T21:56:33Z</time>
      </trkpt>
      <trkpt lat="40.180260" lon="-5.826160">
        <ele>461.970</ele>
        <time>2020-02-28T21:56:53Z</time>
      </trkpt>
      <trkpt lat="40.180270" lon="-5.826140">
        <ele>461.917</ele>
        <time>2020-02-28T21:57:13Z</time>
      </trkpt>
      <trkpt lat="40.180350" lon="-5.826060">
        <ele>462.208</ele>
        <time>2020-02-28T21:57:33Z</time>
      </trkpt>
      <trkpt lat="40.180390" lon="-5.826030">
        <ele>462.267</ele>
        <time>2020-02-28T21:57:53Z</time>
      </trkpt>
      <trkpt lat="40.180400" lon="-5.826010">
        <ele>462.550</ele>
        <time>2020-02-28T21:58:13Z</time>
      </trkpt>
      <trkpt lat="40.180450" lon="-5.825960">
        <ele>462.595</ele>
        <time>2020-02-28T21:58:33Z</time>
      </trkpt>
      <trkpt lat="40.180470" lon="-5.825930">
        <ele>462.696</ele>
        <time>2020-02-28T21:58:53Z</time>
      </trkpt>
      <trkpt lat="40.180570" lon="-5.825830">
        <ele>461.979</ele>
        <time>2020-02-28T21:59:13Z</time>
      </trkpt>
      <trkpt lat="40.180590" lon="-5.825800">
        <ele>462.618</ele>
        <time>2020-02-28T21:59:33Z</time>
      </trkpt>
      <trkpt lat="40.180730" lon="-5.825650">
        <ele>462.839</ele>
        <time>2020-02-28T21:59:53Z</time>
      </trkpt>
      <trkpt lat="40.180770" lon="-5.825590">
        <ele>462.336</ele>
        <time>2020-02-28T22:00:13Z</time>
      </trkpt>
      <trkpt lat="40.180790" lon="-5.825570">
        <ele>461.712</ele>
        <time>2020-02-28T22:00:33Z</time>
      </trkpt>
      <trkpt lat="40.180830" lon="-5.825510">
        <ele>461.532</ele>
        <time>2020-02-28T22:00:53Z</time>
      </trkpt>
      <trkpt lat="40.180850" lon="-5.825490">
        <ele>461.705</ele>
        <time>2020-02-28T22:01:13Z</time>
      </trkpt>
      <trkpt lat="40.180910" lon="-5.825360">
        <ele>463.708</ele>
        <time>2020-02-28T22:01:33Z</time>
      </trkpt>
      <trkpt lat="40.180920" lon="-5.825350">
        <ele>463.795</ele>
        <time>2020-02-28T22:01:53Z</time>
      </trkpt>
      <trkpt lat="40.180960" lon="-5.825260">
        <ele>464.328</ele>
        <time>2020-02-28T22:02:13Z</time>
      </trkpt>
      <trkpt lat="40.180980" lon="-5.825240">
        <ele>464.113</ele>
        <time>2020-02-28T22:02:33Z</time>
      </trkpt>
      <trkpt lat="40.181010" lon="-5.825180">
        <ele>464.494</ele>
        <time>2020-02-28T22:02:53Z</time>
      </trkpt>
      <trkpt lat="40.181030" lon="-5.825160">
        <ele>464.257</ele>
        <time>2020-02-28T22:03:13Z</time>
      </trkpt>
      <trkpt lat="40.181050" lon="-5.825130">
        <ele>464.286</ele>
        <time>2020-02-28T22:03:33Z</time>
      </trkpt>
      <trkpt lat="40.181120" lon="-5.825060">
        <ele>463.667</ele>
        <time>2020-02-28T22:03:53Z</time>
      </trkpt>
      <trkpt lat="40.181160" lon="-5.825030">
        <ele>463.684</ele>
        <time>2020-02-28T22:04:13Z</time>
      </trkpt>
      <trkpt lat="40.181550" lon="-5.824800">
        <ele>464.961</ele>
        <time>2020-02-28T22:04:33Z</time>
      </trkpt>
      <trkpt lat="40.181560" lon="-5.824790">
        <ele>465.121</ele>
        <time>2020-02-28T22:04:53Z</time>
      </trkpt>
      <trkpt lat="40.181580" lon="-5.824780">
        <ele>465.113</ele>
        <time>2020-02-28T22:05:13Z</time>
      </trkpt>
      <trkpt lat="40.181600" lon="-5.824760">
        <ele>465.308</ele>
        <time>2020-02-28T22:05:33Z</time>
      </trkpt>
      <trkpt lat="40.181630" lon="-5.824750">
        <ele>465.070</ele>
        <time>2020-02-28T22:05:53Z</time>
      </trkpt>
      <trkpt lat="40.181650" lon="-5.824730">
        <ele>465.193</ele>
        <time>2020-02-28T22:06:13Z</time>
      </trkpt>
      <trkpt lat="40.181670" lon="-5.824720">
        <ele>465.148</ele>
        <time>2020-02-28T22:06:33Z</time>
      </trkpt>
      <trkpt lat="40.181680" lon="-5.824710">
        <ele>465.399</ele>
        <time>2020-02-28T22:06:53Z</time>
      </trkpt>
      <trkpt lat="40.181700" lon="-5.824710">
        <ele>465.112</ele>
        <time>2020-02-28T22:07:13Z</time>
      </trkpt>
      <trkpt lat="40.181720" lon="-5.824690">
        <ele>465.641</ele>
        <time>2020-02-28T22:07:33Z</time>
      </trkpt>
      <trkpt lat="40.181730" lon="-5.824690">
        <ele>465.512</ele>
        <time>2020-02-28T22:07:53Z</time>
      </trkpt>
      <trkpt lat="40.181740" lon="-5.824680">
        <ele>465.719</ele>
        <time>2020-02-28T22:08:13Z</time>
      </trkpt>
      <trkpt lat="40.181760" lon="-5.824670">
        <ele>465.782</ele>
        <time>2020-02-28T22:08:33Z</time>
      </trkpt>
      <trkpt lat="40.181790" lon="-5.824640">
        <ele>466.343</ele>
        <time>2020-02-28T22:08:53Z</time>
      </trkpt>
      <trkpt lat="40.181800" lon="-5.824640">
        <ele>466.117</ele>
        <time>2020-02-28T22:09:13Z</time>
      </trkpt>
      <trkpt lat="40.181810" lon="-5.824630">
        <ele>466.208</ele>
        <time>2020-02-28T22:09:33Z</time>
      </trkpt>
      <trkpt lat="40.181820" lon="-5.824630">
        <ele>466.122</ele>
        <time>2020-02-28T22:09:53Z</time>
      </trkpt>
      <trkpt lat="40.181840" lon="-5.824620">
        <ele>466.095</ele>
        <time>2020-02-28T22:10:13Z</time>
      </trkpt>
      <trkpt lat="40.181850" lon="-5.824600">
        <ele>466.420</ele>
        <time>2020-02-28T22:10:33Z</time>
      </trkpt>
      <trkpt lat="40.181870" lon="-5.824590">
        <ele>466.341</ele>
        <time>2020-02-28T22:10:53Z</time>
      </trkpt>
      <trkpt lat="40.181880" lon="-5.824580">
        <ele>466.494</ele>
        <time>2020-02-28T22:11:13Z</time>
      </trkpt>
      <trkpt lat="40.181890" lon="-5.824580">
        <ele>466.283</ele>
        <time>2020-02-28T22:11:33Z</time>
      </trkpt>
      <trkpt lat="40.181900" lon="-5.824570">
        <ele>466.224</ele>
        <time>2020-02-28T22:11:53Z</time>
      </trkpt>
      <trkpt lat="40.181920" lon="-5.824560">
        <ele>466.091</ele>
        <time>2020-02-28T22:12:13Z</time>
      </trkpt>
      <trkpt lat="40.181940" lon="-5.824540">
        <ele>466.081</ele>
        <time>2020-02-28T22:12:33Z</time>
      </trkpt>
      <trkpt lat="40.181960" lon="-5.824530">
        <ele>466.061</ele>
        <time>2020-02-28T22:12:53Z</time>
      </trkpt>
      <trkpt lat="40.181970" lon="-5.824520">
        <ele>466.117</ele>
        <time>2020-02-28T22:13:13Z</time>
      </trkpt>
      <trkpt lat="40.181990" lon="-5.824510">
        <ele>466.208</ele>
        <time>2020-02-28T22:13:33Z</time>
      </trkpt>
      <trkpt lat="40.182020" lon="-5.824480">
        <ele>466.542</ele>
        <time>2020-02-28T22:13:53Z</time>
      </trkpt>
      <trkpt lat="40.182040" lon="-5.824470">
        <ele>466.565</ele>
        <time>2020-02-28T22:14:13Z</time>
      </trkpt>
      <trkpt lat="40.182110" lon="-5.824400">
        <ele>467.110</ele>
        <time>2020-02-28T22:14:33Z</time>
      </trkpt>
      <trkpt lat="40.182130" lon="-5.824390">
        <ele>467.061</ele>
        <time>2020-02-28T22:14:53Z</time>
      </trkpt>
      <trkpt lat="40.182140" lon="-5.824380">
        <ele>467.144</ele>
        <time>2020-02-28T22:15:13Z</time>
      </trkpt>
      <trkpt lat="40.182140" lon="-5.824370">
        <ele>467.283</ele>
        <time>2020-02-28T22:15:33Z</time>
      </trkpt>
      <trkpt lat="40.182150" lon="-5.824370">
        <ele>467.174</ele>
        <time>2020-02-28T22:15:53Z</time>
      </trkpt>
      <trkpt lat="40.182160" lon="-5.824350">
        <ele>467.291</ele>
        <time>2020-02-28T22:16:13Z</time>
      </trkpt>
      <trkpt lat="40.182180" lon="-5.824340">
        <ele>467.018</ele>
        <time>2020-02-28T22:16:33Z</time>
      </trkpt>
      <trkpt lat="40.182310" lon="-5.824210">
        <ele>466.998</ele>
        <time>2020-02-28T22:16:53Z</time>
      </trkpt>
      <trkpt lat="40.182320" lon="-5.824190">
        <ele>467.017</ele>
        <time>2020-02-28T22:17:13Z</time>
      </trkpt>
      <trkpt lat="40.182340" lon="-5.824180">
        <ele>467.008</ele>
        <time>2020-02-28T22:17:33Z</time>
      </trkpt>
      <trkpt lat="40.182360" lon="-5.824160">
        <ele>467.255</ele>
        <time>2020-02-28T22:17:53Z</time>
      </trkpt>
      <trkpt lat="40.182370" lon="-5.824140">
        <ele>467.648</ele>
        <time>2020-02-28T22:18:13Z</time>
      </trkpt>
      <trkpt lat="40.182400" lon="-5.824120">
        <ele>467.723</ele>
        <time>2020-02-28T22:18:33Z</time>
      </trkpt>
      <trkpt lat="40.182490" lon="-5.824030">
        <ele>467.234</ele>
        <time>2020-02-28T22:18:53Z</time>
      </trkpt>
      <trkpt lat="40.182590" lon="-5.823900">
        <ele>467.397</ele>
        <time>2020-02-28T22:19:13Z</time>
      </trkpt>
      <trkpt lat="40.182600" lon="-5.823900">
        <ele>467.216</ele>
        <time>2020-02-28T22:19:33Z</time>
      </trkpt>
      <trkpt lat="40.182620" lon="-5.823880">
        <ele>467.397</ele>
        <time>2020-02-28T22:19:53Z</time>
      </trkpt>
      <trkpt lat="40.182710" lon="-5.823750">
        <ele>468.364</ele>
        <time>2020-02-28T22:20:13Z</time>
      </trkpt>
      <trkpt lat="40.182750" lon="-5.823710">
        <ele>467.969</ele>
        <time>2020-02-28T22:20:33Z</time>
      </trkpt>
      <trkpt lat="40.183160" lon="-5.823050">
        <ele>468.004</ele>
        <time>2020-02-28T22:20:53Z</time>
      </trkpt>
      <trkpt lat="40.183250" lon="-5.822850">
        <ele>470.424</ele>
        <time>2020-02-28T22:21:13Z</time>
      </trkpt>
      <trkpt lat="40.183280" lon="-5.822800">
        <ele>470.008</ele>
        <time>2020-02-28T22:21:33Z</time>
      </trkpt>
      <trkpt lat="40.183370" lon="-5.822590">
        <ele>468.220</ele>
        <time>2020-02-28T22:21:53Z</time>
      </trkpt>
      <trkpt lat="40.183400" lon="-5.822490">
        <ele>468.153</ele>
        <time>2020-02-28T22:22:13Z</time>
      </trkpt>
      <trkpt lat="40.183450" lon="-5.822370">
        <ele>467.828</ele>
        <time>2020-02-28T22:22:33Z</time>
      </trkpt>
      <trkpt lat="40.183560" lon="-5.821980">
        <ele>467.819</ele>
        <time>2020-02-28T22:22:53Z</time>
      </trkpt>
      <trkpt lat="40.183650" lon="-5.821510">
        <ele>467.872</ele>
        <time>2020-02-28T22:23:13Z</time>
      </trkpt>
      <trkpt lat="40.183660" lon="-5.821370">
        <ele>467.981</ele>
        <time>2020-02-28T22:23:33Z</time>
      </trkpt>
      <trkpt lat="40.183670" lon="-5.821350">
        <ele>467.962</ele>
        <time>2020-02-28T22:23:53Z</time>
      </trkpt>
      <trkpt lat="40.183670" lon="-5.821260">
        <ele>468.389</ele>
        <time>2020-02-28T22:24:13Z</time>
      </trkpt>
      <trkpt lat="40.183680" lon="-5.821240">
        <ele>468.311</ele>
        <time>2020-02-28T22:24:33Z</time>
      </trkpt>
      <trkpt lat="40.183680" lon="-5.821150">
        <ele>468.621</ele>
        <time>2020-02-28T22:24:53Z</time>
      </trkpt>
      <trkpt lat="40.183690" lon="-5.821130">
        <ele>468.603</ele>
        <time>2020-02-28T22:25:13Z</time>
      </trkpt>
      <trkpt lat="40.183690" lon="-5.820960">
        <ele>469.508</ele>
        <time>2020-02-28T22:25:33Z</time>
      </trkpt>
      <trkpt lat="40.183700" lon="-5.820930">
        <ele>469.615</ele>
        <time>2020-02-28T22:25:53Z</time>
      </trkpt>
      <trkpt lat="40.183700" lon="-5.820570">
        <ele>472.388</ele>
        <time>2020-02-28T22:26:13Z</time>
      </trkpt>
      <trkpt lat="40.183690" lon="-5.820550">
        <ele>472.653</ele>
        <time>2020-02-28T22:26:33Z</time>
      </trkpt>
      <trkpt lat="40.183690" lon="-5.820370">
        <ele>474.294</ele>
        <time>2020-02-28T22:26:53Z</time>
      </trkpt>
      <trkpt lat="40.183680" lon="-5.820360">
        <ele>474.517</ele>
        <time>2020-02-28T22:27:13Z</time>
      </trkpt>
      <trkpt lat="40.183680" lon="-5.820240">
        <ele>475.436</ele>
        <time>2020-02-28T22:27:33Z</time>
      </trkpt>
      <trkpt lat="40.183670" lon="-5.820230">
        <ele>475.777</ele>
        <time>2020-02-28T22:27:53Z</time>
      </trkpt>
      <trkpt lat="40.183670" lon="-5.820140">
        <ele>476.184</ele>
        <time>2020-02-28T22:28:13Z</time>
      </trkpt>
      <trkpt lat="40.183660" lon="-5.820130">
        <ele>476.492</ele>
        <time>2020-02-28T22:28:33Z</time>
      </trkpt>
      <trkpt lat="40.183660" lon="-5.820060">
        <ele>476.773</ele>
        <time>2020-02-28T22:28:53Z</time>
      </trkpt>
      <trkpt lat="40.183650" lon="-5.820050">
        <ele>477.020</ele>
        <time>2020-02-28T22:29:13Z</time>
      </trkpt>
      <trkpt lat="40.183650" lon="-5.819990">
        <ele>477.108</ele>
        <time>2020-02-28T22:29:33Z</time>
      </trkpt>
      <trkpt lat="40.183640" lon="-5.819970">
        <ele>477.393</ele>
        <time>2020-02-28T22:29:53Z</time>
      </trkpt>
      <trkpt lat="40.183640" lon="-5.819930">
        <ele>477.136</ele>
        <time>2020-02-28T22:30:13Z</time>
      </trkpt>
      <trkpt lat="40.183630" lon="-5.819900">
        <ele>477.311</ele>
        <time>2020-02-28T22:30:33Z</time>
      </trkpt>
      <trkpt lat="40.183630" lon="-5.819850">
        <ele>477.122</ele>
        <time>2020-02-28T22:30:53Z</time>
      </trkpt>
      <trkpt lat="40.183620" lon="-5.819840">
        <ele>477.265</ele>
        <time>2020-02-28T22:31:13Z</time>
      </trkpt>
      <trkpt lat="40.183620" lon="-5.819770">
        <ele>477.054</ele>
        <time>2020-02-28T22:31:33Z</time>
      </trkpt>
      <trkpt lat="40.183610" lon="-5.819760">
        <ele>477.265</ele>
        <time>2020-02-28T22:31:53Z</time>
      </trkpt>
      <trkpt lat="40.183610" lon="-5.819710">
        <ele>477.062</ele>
        <time>2020-02-28T22:32:13Z</time>
      </trkpt>
      <trkpt lat="40.183600" lon="-5.819690">
        <ele>477.033</ele>
        <time>2020-02-28T22:32:33Z</time>
      </trkpt>
      <trkpt lat="40.183600" lon="-5.819650">
        <ele>476.923</ele>
        <time>2020-02-28T22:32:53Z</time>
      </trkpt>
      <trkpt lat="40.183590" lon="-5.819630">
        <ele>477.015</ele>
        <time>2020-02-28T22:33:13Z</time>
      </trkpt>
      <trkpt lat="40.183590" lon="-5.819590">
        <ele>476.808</ele>
        <time>2020-02-28T22:33:33Z</time>
      </trkpt>
      <trkpt lat="40.183580" lon="-5.819570">
        <ele>476.947</ele>
        <time>2020-02-28T22:33:53Z</time>
      </trkpt>
      <trkpt lat="40.183580" lon="-5.819530">
        <ele>476.820</ele>
        <time>2020-02-28T22:34:13Z</time>
      </trkpt>
      <trkpt lat="40.183570" lon="-5.819520">
        <ele>476.935</ele>
        <time>2020-02-28T22:34:33Z</time>
      </trkpt>
      <trkpt lat="40.183570" lon="-5.819460">
        <ele>476.696</ele>
        <time>2020-02-28T22:34:53Z</time>
      </trkpt>
      <trkpt lat="40.183560" lon="-5.819440">
        <ele>476.759</ele>
        <time>2020-02-28T22:35:13Z</time>
      </trkpt>
      <trkpt lat="40.183560" lon="-5.819420">
        <ele>476.688</ele>
        <time>2020-02-28T22:35:33Z</time>
      </trkpt>
      <trkpt lat="40.183550" lon="-5.819400">
        <ele>476.739</ele>
        <time>2020-02-28T22:35:53Z</time>
      </trkpt>
      <trkpt lat="40.183550" lon="-5.819350">
        <ele>476.596</ele>
        <time>2020-02-28T22:36:13Z</time>
      </trkpt>
      <trkpt lat="40.183540" lon="-5.819320">
        <ele>476.512</ele>
        <time>2020-02-28T22:36:33Z</time>
      </trkpt>
      <trkpt lat="40.183540" lon="-5.819280">
        <ele>476.332</ele>
        <time>2020-02-28T22:36:53Z</time>
      </trkpt>
      <trkpt lat="40.183530" lon="-5.819260">
        <ele>476.305</ele>
        <time>2020-02-28T22:37:13Z</time>
      </trkpt>
      <trkpt lat="40.183530" lon="-5.819220">
        <ele>476.108</ele>
        <time>2020-02-28T22:37:33Z</time>
      </trkpt>
      <trkpt lat="40.183520" lon="-5.819200">
        <ele>476.115</ele>
        <time>2020-02-28T22:37:53Z</time>
      </trkpt>
      <trkpt lat="40.183520" lon="-5.819140">
        <ele>475.988</ele>
        <time>2020-02-28T22:38:13Z</time>
      </trkpt>
      <trkpt lat="40.183510" lon="-5.819120">
        <ele>475.963</ele>
        <time>2020-02-28T22:38:33Z</time>
      </trkpt>
      <trkpt lat="40.183510" lon="-5.819080">
        <ele>475.854</ele>
        <time>2020-02-28T22:38:53Z</time>
      </trkpt>
      <trkpt lat="40.183500" lon="-5.819040">
        <ele>475.797</ele>
        <time>2020-02-28T22:39:13Z</time>
      </trkpt>
      <trkpt lat="40.183500" lon="-5.818940">
        <ele>475.476</ele>
        <time>2020-02-28T22:39:33Z</time>
      </trkpt>
      <trkpt lat="40.183490" lon="-5.818920">
        <ele>475.417</ele>
        <time>2020-02-28T22:39:53Z</time>
      </trkpt>
      <trkpt lat="40.183490" lon="-5.818460">
        <ele>474.584</ele>
        <time>2020-02-28T22:40:13Z</time>
      </trkpt>
      <trkpt lat="40.183500" lon="-5.818440">
        <ele>474.414</ele>
        <time>2020-02-28T22:40:33Z</time>
      </trkpt>
      <trkpt lat="40.183500" lon="-5.818350">
        <ele>474.654</ele>
        <time>2020-02-28T22:40:53Z</time>
      </trkpt>
      <trkpt lat="40.183510" lon="-5.818330">
        <ele>474.509</ele>
        <time>2020-02-28T22:41:13Z</time>
      </trkpt>
      <trkpt lat="40.183510" lon="-5.818260">
        <ele>474.708</ele>
        <time>2020-02-28T22:41:33Z</time>
      </trkpt>
      <trkpt lat="40.183520" lon="-5.818250">
        <ele>474.615</ele>
        <time>2020-02-28T22:41:53Z</time>
      </trkpt>
      <trkpt lat="40.183520" lon="-5.818200">
        <ele>474.878</ele>
        <time>2020-02-28T22:42:13Z</time>
      </trkpt>
      <trkpt lat="40.183530" lon="-5.818170">
        <ele>474.833</ele>
        <time>2020-02-28T22:42:33Z</time>
      </trkpt>
      <trkpt lat="40.183530" lon="-5.818150">
        <ele>474.814</ele>
        <time>2020-02-28T22:42:53Z</time>
      </trkpt>
      <trkpt lat="40.183540" lon="-5.818120">
        <ele>474.887</ele>
        <time>2020-02-28T22:43:13Z</time>
      </trkpt>
      <trkpt lat="40.183540" lon="-5.818090">
        <ele>474.976</ele>
        <time>2020-02-28T22:43:33Z</time>
      </trkpt>
      <trkpt lat="40.183550" lon="-5.818080">
        <ele>474.897</ele>
        <time>2020-02-28T22:43:53Z</time>
      </trkpt>
      <trkpt lat="40.183550" lon="-5.818050">
        <ele>474.974</ele>
        <time>2020-02-28T22:44:13Z</time>
      </trkpt>
      <trkpt lat="40.183560" lon="-5.818030">
        <ele>475.035</ele>
        <time>2020-02-28T22:44:33Z</time>
      </trkpt>
      <trkpt lat="40.183560" lon="-5.818000">
        <ele>475.386</ele>
        <time>2020-02-28T22:44:53Z</time>
      </trkpt>
      <trkpt lat="40.183570" lon="-5.817980">
        <ele>475.414</ele>
        <time>2020-02-28T22:45:13Z</time>
      </trkpt>
      <trkpt lat="40.183570" lon="-5.817950">
        <ele>475.708</ele>
        <time>2020-02-28T22:45:33Z</time>
      </trkpt>
      <trkpt lat="40.183580" lon="-5.817940">
        <ele>475.797</ele>
        <time>2020-02-28T22:45:53Z</time>
      </trkpt>
      <trkpt lat="40.183580" lon="-5.817920">
        <ele>475.960</ele>
        <time>2020-02-28T22:46:13Z</time>
      </trkpt>
      <trkpt lat="40.183600" lon="-5.817870">
        <ele>476.215</ele>
        <time>2020-02-28T22:46:33Z</time>
      </trkpt>
      <trkpt lat="40.183600" lon="-5.817850">
        <ele>476.426</ele>
        <time>2020-02-28T22:46:53Z</time>
      </trkpt>
      <trkpt lat="40.183610" lon="-5.817830">
        <ele>476.559</ele>
        <time>2020-02-28T22:47:13Z</time>
      </trkpt>
      <trkpt lat="40.183610" lon="-5.817810">
        <ele>476.758</ele>
        <time>2020-02-28T22:47:33Z</time>
      </trkpt>
      <trkpt lat="40.183620" lon="-5.817790">
        <ele>476.769</ele>
        <time>2020-02-28T22:47:53Z</time>
      </trkpt>
      <trkpt lat="40.183620" lon="-5.817780">
        <ele>476.826</ele>
        <time>2020-02-28T22:48:13Z</time>
      </trkpt>
      <trkpt lat="40.183630" lon="-5.817760">
        <ele>476.983</ele>
        <time>2020-02-28T22:48:33Z</time>
      </trkpt>
      <trkpt lat="40.183630" lon="-5.817750">
        <ele>477.025</ele>
        <time>2020-02-28T22:48:53Z</time>
      </trkpt>
      <trkpt lat="40.183640" lon="-5.817740">
        <ele>477.017</ele>
        <time>2020-02-28T22:49:13Z</time>
      </trkpt>
      <trkpt lat="40.183640" lon="-5.817730">
        <ele>477.108</ele>
        <time>2020-02-28T22:49:33Z</time>
      </trkpt>
      <trkpt lat="40.183650" lon="-5.817710">
        <ele>477.242</ele>
        <time>2020-02-28T22:49:53Z</time>
      </trkpt>
      <trkpt lat="40.183650" lon="-5.817690">
        <ele>477.465</ele>
        <time>2020-02-28T22:50:13Z</time>
      </trkpt>
      <trkpt lat="40.183680" lon="-5.817630">
        <ele>477.670</ele>
        <time>2020-02-28T22:50:33Z</time>
      </trkpt>
      <trkpt lat="40.183680" lon="-5.817610">
        <ele>477.851</ele>
        <time>2020-02-28T22:50:53Z</time>
      </trkpt>
      <trkpt lat="40.183690" lon="-5.817590">
        <ele>477.924</ele>
        <time>2020-02-28T22:51:13Z</time>
      </trkpt>
      <trkpt lat="40.183690" lon="-5.817580">
        <ele>478.033</ele>
        <time>2020-02-28T22:51:33Z</time>
      </trkpt>
      <trkpt lat="40.183700" lon="-5.817570">
        <ele>478.084</ele>
        <time>2020-02-28T22:51:53Z</time>
      </trkpt>
      <trkpt lat="40.183700" lon="-5.817560">
        <ele>478.121</ele>
        <time>2020-02-28T22:52:13Z</time>
      </trkpt>
      <trkpt lat="40.183710" lon="-5.817550">
        <ele>478.092</ele>
        <time>2020-02-28T22:52:33Z</time>
      </trkpt>
      <trkpt lat="40.183710" lon="-5.817530">
        <ele>478.373</ele>
        <time>2020-02-28T22:52:53Z</time>
      </trkpt>
      <trkpt lat="40.183720" lon="-5.817510">
        <ele>478.320</ele>
        <time>2020-02-28T22:53:13Z</time>
      </trkpt>
      <trkpt lat="40.183730" lon="-5.817500">
        <ele>478.308</ele>
        <time>2020-02-28T22:53:33Z</time>
      </trkpt>
      <trkpt lat="40.183730" lon="-5.817490">
        <ele>478.493</ele>
        <time>2020-02-28T22:53:53Z</time>
      </trkpt>
      <trkpt lat="40.183800" lon="-5.817360">
        <ele>478.676</ele>
        <time>2020-02-28T22:54:13Z</time>
      </trkpt>
      <trkpt lat="40.183810" lon="-5.817330">
        <ele>478.851</ele>
        <time>2020-02-28T22:54:33Z</time>
      </trkpt>
      <trkpt lat="40.183820" lon="-5.817320">
        <ele>478.812</ele>
        <time>2020-02-28T22:54:53Z</time>
      </trkpt>
      <trkpt lat="40.183830" lon="-5.817300">
        <ele>478.925</ele>
        <time>2020-02-28T22:55:13Z</time>
      </trkpt>
      <trkpt lat="40.183840" lon="-5.817290">
        <ele>478.814</ele>
        <time>2020-02-28T22:55:33Z</time>
      </trkpt>
      <trkpt lat="40.183840" lon="-5.817270">
        <ele>479.055</ele>
        <time>2020-02-28T22:55:53Z</time>
      </trkpt>
      <trkpt lat="40.183860" lon="-5.817250">
        <ele>479.052</ele>
        <time>2020-02-28T22:56:13Z</time>
      </trkpt>
      <trkpt lat="40.183860" lon="-5.817240">
        <ele>479.149</ele>
        <time>2020-02-28T22:56:33Z</time>
      </trkpt>
      <trkpt lat="40.183880" lon="-5.817220">
        <ele>479.102</ele>
        <time>2020-02-28T22:56:53Z</time>
      </trkpt>
      <trkpt lat="40.183900" lon="-5.817170">
        <ele>479.122</ele>
        <time>2020-02-28T22:57:13Z</time>
      </trkpt>
      <trkpt lat="40.183920" lon="-5.817160">
        <ele>478.608</ele>
        <time>2020-02-28T22:57:33Z</time>
      </trkpt>
      <trkpt lat="40.183950" lon="-5.817100">
        <ele>478.478</ele>
        <time>2020-02-28T22:57:53Z</time>
      </trkpt>
      <trkpt lat="40.183960" lon="-5.817090">
        <ele>478.361</ele>
        <time>2020-02-28T22:58:13Z</time>
      </trkpt>
      <trkpt lat="40.183970" lon="-5.817070">
        <ele>478.296</ele>
        <time>2020-02-28T22:58:33Z</time>
      </trkpt>
      <trkpt lat="40.183990" lon="-5.817050">
        <ele>478.047</ele>
        <time>2020-02-28T22:58:53Z</time>
      </trkpt>
      <trkpt lat="40.184000" lon="-5.817030">
        <ele>478.030</ele>
        <time>2020-02-28T22:59:13Z</time>
      </trkpt>
      <trkpt lat="40.184020" lon="-5.817010">
        <ele>477.869</ele>
        <time>2020-02-28T22:59:33Z</time>
      </trkpt>
      <trkpt lat="40.184030" lon="-5.816990">
        <ele>477.930</ele>
        <time>2020-02-28T22:59:53Z</time>
      </trkpt>
      <trkpt lat="40.184040" lon="-5.816980">
        <ele>477.817</ele>
        <time>2020-02-28T23:00:13Z</time>
      </trkpt>
      <trkpt lat="40.184050" lon="-5.816960">
        <ele>477.932</ele>
        <time>2020-02-28T23:00:33Z</time>
      </trkpt>
      <trkpt lat="40.184090" lon="-5.816920">
        <ele>477.792</ele>
        <time>2020-02-28T23:00:53Z</time>
      </trkpt>
      <trkpt lat="40.184100" lon="-5.816900">
        <ele>477.911</ele>
        <time>2020-02-28T23:01:13Z</time>
      </trkpt>
      <trkpt lat="40.184190" lon="-5.816810">
        <ele>478.308</ele>
        <time>2020-02-28T23:01:33Z</time>
      </trkpt>
      <trkpt lat="40.184210" lon="-5.816800">
        <ele>478.477</ele>
        <time>2020-02-28T23:01:53Z</time>
      </trkpt>
      <trkpt lat="40.184220" lon="-5.816780">
        <ele>478.710</ele>
        <time>2020-02-28T23:02:13Z</time>
      </trkpt>
      <trkpt lat="40.184260" lon="-5.816740">
        <ele>479.345</ele>
        <time>2020-02-28T23:02:33Z</time>
      </trkpt>
      <trkpt lat="40.184280" lon="-5.816730">
        <ele>479.466</ele>
        <time>2020-02-28T23:02:53Z</time>
      </trkpt>
      <trkpt lat="40.184320" lon="-5.816690">
        <ele>480.099</ele>
        <time>2020-02-28T23:03:13Z</time>
      </trkpt>
      <trkpt lat="40.184340" lon="-5.816680">
        <ele>480.138</ele>
        <time>2020-02-28T23:03:33Z</time>
      </trkpt>
      <trkpt lat="40.184350" lon="-5.816660">
        <ele>480.449</ele>
        <time>2020-02-28T23:03:53Z</time>
      </trkpt>
      <trkpt lat="40.184370" lon="-5.816650">
        <ele>480.436</ele>
        <time>2020-02-28T23:04:13Z</time>
      </trkpt>
      <trkpt lat="40.184390" lon="-5.816630">
        <ele>480.546</ele>
        <time>2020-02-28T23:04:33Z</time>
      </trkpt>
      <trkpt lat="40.184400" lon="-5.816630">
        <ele>480.488</ele>
        <time>2020-02-28T23:04:53Z</time>
      </trkpt>
      <trkpt lat="40.184430" lon="-5.816600">
        <ele>480.516</ele>
        <time>2020-02-28T23:05:13Z</time>
      </trkpt>
      <trkpt lat="40.184450" lon="-5.816590">
        <ele>480.608</ele>
        <time>2020-02-28T23:05:33Z</time>
      </trkpt>
      <trkpt lat="40.184500" lon="-5.816550">
        <ele>480.818</ele>
        <time>2020-02-28T23:05:53Z</time>
      </trkpt>
      <trkpt lat="40.184680" lon="-5.816450">
        <ele>481.691</ele>
        <time>2020-02-28T23:06:13Z</time>
      </trkpt>
      <trkpt lat="40.184720" lon="-5.816440">
        <ele>481.696</ele>
        <time>2020-02-28T23:06:33Z</time>
      </trkpt>
      <trkpt lat="40.184730" lon="-5.816430">
        <ele>481.767</ele>
        <time>2020-02-28T23:06:53Z</time>
      </trkpt>
      <trkpt lat="40.184840" lon="-5.816380">
        <ele>481.780</ele>
        <time>2020-02-28T23:07:13Z</time>
      </trkpt>
      <trkpt lat="40.184880" lon="-5.816370">
        <ele>481.629</ele>
        <time>2020-02-28T23:07:33Z</time>
      </trkpt>
      <trkpt lat="40.184900" lon="-5.816360">
        <ele>481.680</ele>
        <time>2020-02-28T23:07:53Z</time>
      </trkpt>
      <trkpt lat="40.184910" lon="-5.816360">
        <ele>481.677</ele>
        <time>2020-02-28T23:08:13Z</time>
      </trkpt>
      <trkpt lat="40.185230" lon="-5.816240">
        <ele>482.216</ele>
        <time>2020-02-28T23:08:33Z</time>
      </trkpt>
      <trkpt lat="40.185240" lon="-5.816240">
        <ele>482.176</ele>
        <time>2020-02-28T23:08:53Z</time>
      </trkpt>
      <trkpt lat="40.185280" lon="-5.816220">
        <ele>482.213</ele>
        <time>2020-02-28T23:09:13Z</time>
      </trkpt>
      <trkpt lat="40.185330" lon="-5.816210">
        <ele>482.508</ele>
        <time>2020-02-28T23:09:33Z</time>
      </trkpt>
      <trkpt lat="40.185360" lon="-5.816190">
        <ele>482.785</ele>
        <time>2020-02-28T23:09:53Z</time>
      </trkpt>
      <trkpt lat="40.185700" lon="-5.816070">
        <ele>484.868</ele>
        <time>2020-02-28T23:10:13Z</time>
      </trkpt>
      <trkpt lat="40.185710" lon="-5.816070">
        <ele>484.953</ele>
        <time>2020-02-28T23:10:33Z</time>
      </trkpt>
      <trkpt lat="40.185890" lon="-5.816000">
        <ele>485.824</ele>
        <time>2020-02-28T23:10:53Z</time>
      </trkpt>
      <trkpt lat="40.185910" lon="-5.816000">
        <ele>485.887</ele>
        <time>2020-02-28T23:11:13Z</time>
      </trkpt>
      <trkpt lat="40.185940" lon="-5.815980">
        <ele>485.956</ele>
        <time>2020-02-28T23:11:33Z</time>
      </trkpt>
      <trkpt lat="40.185980" lon="-5.815970">
        <ele>486.037</ele>
        <time>2020-02-28T23:11:53Z</time>
      </trkpt>
      <trkpt lat="40.186370" lon="-5.815770">
        <ele>487.514</ele>
        <time>2020-02-28T23:12:13Z</time>
      </trkpt>
      <trkpt lat="40.186400" lon="-5.815740">
        <ele>487.693</ele>
        <time>2020-02-28T23:12:33Z</time>
      </trkpt>
      <trkpt lat="40.186450" lon="-5.815720">
        <ele>487.665</ele>
        <time>2020-02-28T23:12:53Z</time>
      </trkpt>
      <trkpt lat="40.186480" lon="-5.815690">
        <ele>487.721</ele>
        <time>2020-02-28T23:13:13Z</time>
      </trkpt>
      <trkpt lat="40.186600" lon="-5.815610">
        <ele>487.808</ele>
        <time>2020-02-28T23:13:33Z</time>
      </trkpt>
      <trkpt lat="40.186630" lon="-5.815580">
        <ele>488.053</ele>
        <time>2020-02-28T23:13:53Z</time>
      </trkpt>
      <trkpt lat="40.186660" lon="-5.815560">
        <ele>488.046</ele>
        <time>2020-02-28T23:14:13Z</time>
      </trkpt>
      <trkpt lat="40.186840" lon="-5.815380">
        <ele>487.671</ele>
        <time>2020-02-28T23:14:33Z</time>
      </trkpt>
      <trkpt lat="40.186860" lon="-5.815370">
        <ele>487.572</ele>
        <time>2020-02-28T23:14:53Z</time>
      </trkpt>
      <trkpt lat="40.186870" lon="-5.815360">
        <ele>487.425</ele>
        <time>2020-02-28T23:15:13Z</time>
      </trkpt>
      <trkpt lat="40.186870" lon="-5.815350">
        <ele>487.554</ele>
        <time>2020-02-28T23:15:33Z</time>
      </trkpt>
      <trkpt lat="40.186900" lon="-5.815320">
        <ele>487.315</ele>
        <time>2020-02-28T23:15:53Z</time>
      </trkpt>
      <trkpt lat="40.186910" lon="-5.815300">
        <ele>487.362</ele>
        <time>2020-02-28T23:16:13Z</time>
      </trkpt>
      <trkpt lat="40.186930" lon="-5.815290">
        <ele>487.157</ele>
        <time>2020-02-28T23:16:33Z</time>
      </trkpt>
      <trkpt lat="40.186940" lon="-5.815280">
        <ele>487.000</ele>
        <time>2020-02-28T23:16:53Z</time>
      </trkpt>
      <trkpt lat="40.186950" lon="-5.815260">
        <ele>487.120</ele>
        <time>2020-02-28T23:17:13Z</time>
      </trkpt>
      <trkpt lat="40.186980" lon="-5.815230">
        <ele>487.408</ele>
        <time>2020-02-28T23:17:33Z</time>
      </trkpt>
      <trkpt lat="40.187000" lon="-5.815200">
        <ele>487.629</ele>
        <time>2020-02-28T23:17:53Z</time>
      </trkpt>
      <trkpt lat="40.187040" lon="-5.815160">
        <ele>488.062</ele>
        <time>2020-02-28T23:18:13Z</time>
      </trkpt>
      <trkpt lat="40.187240" lon="-5.814900">
        <ele>490.387</ele>
        <time>2020-02-28T23:18:33Z</time>
      </trkpt>
      <trkpt lat="40.187310" lon="-5.814790">
        <ele>490.528</ele>
        <time>2020-02-28T23:18:53Z</time>
      </trkpt>
      <trkpt lat="40.187430" lon="-5.814460">
        <ele>490.571</ele>
        <time>2020-02-28T23:19:13Z</time>
      </trkpt>
      <trkpt lat="40.187510" lon="-5.814280">
        <ele>490.540</ele>
        <time>2020-02-28T23:19:33Z</time>
      </trkpt>
      <trkpt lat="40.187620" lon="-5.814100">
        <ele>492.151</ele>
        <time>2020-02-28T23:19:53Z</time>
      </trkpt>
      <trkpt lat="40.188380" lon="-5.813250">
        <ele>498.848</ele>
        <time>2020-02-28T23:20:13Z</time>
      </trkpt>
      <trkpt lat="40.188420" lon="-5.813190">
        <ele>497.757</ele>
        <time>2020-02-28T23:20:33Z</time>
      </trkpt>
      <trkpt lat="40.188480" lon="-5.813030">
        <ele>497.200</ele>
        <time>2020-02-28T23:20:53Z</time>
      </trkpt>
      <trkpt lat="40.188500" lon="-5.812930">
        <ele>498.820</ele>
        <time>2020-02-28T23:21:13Z</time>
      </trkpt>
      <trkpt lat="40.188520" lon="-5.812630">
        <ele>503.408</ele>
        <time>2020-02-28T23:21:33Z</time>
      </trkpt>
      <trkpt lat="40.188550" lon="-5.812410">
        <ele>504.489</ele>
        <time>2020-02-28T23:21:53Z</time>
      </trkpt>
      <trkpt lat="40.188600" lon="-5.812190">
        <ele>504.532</ele>
        <time>2020-02-28T23:22:13Z</time>
      </trkpt>
      <trkpt lat="40.188650" lon="-5.812080">
        <ele>503.667</ele>
        <time>2020-02-28T23:22:33Z</time>
      </trkpt>
      <trkpt lat="40.188670" lon="-5.811980">
        <ele>504.318</ele>
        <time>2020-02-28T23:22:53Z</time>
      </trkpt>
      <trkpt lat="40.188670" lon="-5.811940">
        <ele>504.721</ele>
        <time>2020-02-28T23:23:13Z</time>
      </trkpt>
      <trkpt lat="40.188650" lon="-5.811830">
        <ele>505.240</ele>
        <time>2020-02-28T23:23:33Z</time>
      </trkpt>
      <trkpt lat="40.188600" lon="-5.811720">
        <ele>506.171</ele>
        <time>2020-02-28T23:23:53Z</time>
      </trkpt>
      <trkpt lat="40.188570" lon="-5.811680">
        <ele>506.548</ele>
        <time>2020-02-28T23:24:13Z</time>
      </trkpt>
      <trkpt lat="40.188500" lon="-5.811620">
        <ele>506.536</ele>
        <time>2020-02-28T23:24:33Z</time>
      </trkpt>
      <trkpt lat="40.188320" lon="-5.811540">
        <ele>507.017</ele>
        <time>2020-02-28T23:24:53Z</time>
      </trkpt>
      <trkpt lat="40.188240" lon="-5.811520">
        <ele>508.218</ele>
        <time>2020-02-28T23:25:13Z</time>
      </trkpt>
      <trkpt lat="40.188220" lon="-5.811520">
        <ele>508.608</ele>
        <time>2020-02-28T23:25:33Z</time>
      </trkpt>
      <trkpt lat="40.188150" lon="-5.811500">
        <ele>509.417</ele>
        <time>2020-02-28T23:25:53Z</time>
      </trkpt>
      <trkpt lat="40.188080" lon="-5.811460">
        <ele>509.650</ele>
        <time>2020-02-28T23:26:13Z</time>
      </trkpt>
      <trkpt lat="40.188040" lon="-5.811420">
        <ele>509.195</ele>
        <time>2020-02-28T23:26:33Z</time>
      </trkpt>
      <trkpt lat="40.188000" lon="-5.811360">
        <ele>508.396</ele>
        <time>2020-02-28T23:26:53Z</time>
      </trkpt>
      <trkpt lat="40.187960" lon="-5.811280">
        <ele>508.029</ele>
        <time>2020-02-28T23:27:13Z</time>
      </trkpt>
      <trkpt lat="40.187850" lon="-5.810870">
        <ele>507.348</ele>
        <time>2020-02-28T23:27:33Z</time>
      </trkpt>
      <trkpt lat="40.187830" lon="-5.810680">
        <ele>507.569</ele>
        <time>2020-02-28T23:27:53Z</time>
      </trkpt>
      <trkpt lat="40.187840" lon="-5.810270">
        <ele>506.666</ele>
        <time>2020-02-28T23:28:13Z</time>
      </trkpt>
      <trkpt lat="40.187860" lon="-5.810140">
        <ele>506.488</ele>
        <time>2020-02-28T23:28:33Z</time>
      </trkpt>
      <trkpt lat="40.187940" lon="-5.809840">
        <ele>505.824</ele>
        <time>2020-02-28T23:28:53Z</time>
      </trkpt>
      <trkpt lat="40.188180" lon="-5.809110">
        <ele>503.226</ele>
        <time>2020-02-28T23:29:13Z</time>
      </trkpt>
      <trkpt lat="40.188750" lon="-5.807960">
        <ele>503.008</ele>
        <time>2020-02-28T23:29:33Z</time>
      </trkpt>
      <trkpt lat="40.188990" lon="-5.807580">
        <ele>502.732</ele>
        <time>2020-02-28T23:29:53Z</time>
      </trkpt>
      <trkpt lat="40.189210" lon="-5.807290">
        <ele>504.085</ele>
        <time>2020-02-28T23:30:13Z</time>
      </trkpt>
      <trkpt lat="40.189390" lon="-5.807090">
        <ele>502.760</ele>
        <time>2020-02-28T23:30:33Z</time>
      </trkpt>
      <trkpt lat="40.189530" lon="-5.806900">
        <ele>502.441</ele>
        <time>2020-02-28T23:30:53Z</time>
      </trkpt>
      <trkpt lat="40.190140" lon="-5.806200">
        <ele>503.594</ele>
        <time>2020-02-28T23:31:13Z</time>
      </trkpt>
      <trkpt lat="40.190230" lon="-5.806140">
        <ele>503.253</ele>
        <time>2020-02-28T23:31:33Z</time>
      </trkpt>
      <trkpt lat="40.190290" lon="-5.806110">
        <ele>503.074</ele>
        <time>2020-02-28T23:31:53Z</time>
      </trkpt>
      <trkpt lat="40.190330" lon="-5.806100">
        <ele>502.981</ele>
        <time>2020-02-28T23:32:13Z</time>
      </trkpt>
      <trkpt lat="40.190380" lon="-5.806100">
        <ele>502.711</ele>
        <time>2020-02-28T23:32:33Z</time>
      </trkpt>
      <trkpt lat="40.190400" lon="-5.806110">
        <ele>502.621</ele>
        <time>2020-02-28T23:32:53Z</time>
      </trkpt>
      <trkpt lat="40.190500" lon="-5.806130">
        <ele>502.103</ele>
        <time>2020-02-28T23:33:13Z</time>
      </trkpt>
      <trkpt lat="40.190640" lon="-5.806180">
        <ele>501.508</ele>
        <time>2020-02-28T23:33:33Z</time>
      </trkpt>
      <trkpt lat="40.191690" lon="-5.806680">
        <ele>502.025</ele>
        <time>2020-02-28T23:33:53Z</time>
      </trkpt>
      <trkpt lat="40.191890" lon="-5.806790">
        <ele>501.918</ele>
        <time>2020-02-28T23:34:13Z</time>
      </trkpt>
      <trkpt lat="40.192090" lon="-5.806870">
        <ele>502.133</ele>
        <time>2020-02-28T23:34:33Z</time>
      </trkpt>
      <trkpt lat="40.192480" lon="-5.807070">
        <ele>501.764</ele>
        <time>2020-02-28T23:34:53Z</time>
      </trkpt>
      <trkpt lat="40.192600" lon="-5.807150">
        <ele>501.667</ele>
        <time>2020-02-28T23:35:13Z</time>
      </trkpt>
      <trkpt lat="40.192810" lon="-5.807410">
        <ele>501.626</ele>
        <time>2020-02-28T23:35:33Z</time>
      </trkpt>
      <trkpt lat="40.193430" lon="-5.808410">
        <ele>497.927</ele>
        <time>2020-02-28T23:35:53Z</time>
      </trkpt>
      <trkpt lat="40.193540" lon="-5.808560">
        <ele>495.044</ele>
        <time>2020-02-28T23:36:13Z</time>
      </trkpt>
      <trkpt lat="40.193580" lon="-5.808580">
        <ele>494.734</ele>
        <time>2020-02-28T23:36:33Z</time>
      </trkpt>
      <trkpt lat="40.193620" lon="-5.808590">
        <ele>494.455</ele>
        <time>2020-02-28T23:36:53Z</time>
      </trkpt>
      <trkpt lat="40.193690" lon="-5.808590">
        <ele>493.210</ele>
        <time>2020-02-28T23:37:13Z</time>
      </trkpt>
      <trkpt lat="40.193700" lon="-5.808580">
        <ele>493.308</ele>
        <time>2020-02-28T23:37:33Z</time>
      </trkpt>
      <trkpt lat="40.193780" lon="-5.808530">
        <ele>493.747</ele>
        <time>2020-02-28T23:37:53Z</time>
      </trkpt>
      <trkpt lat="40.195440" lon="-5.806940">
        <ele>503.050</ele>
        <time>2020-02-28T23:38:13Z</time>
      </trkpt>
      <trkpt lat="40.195740" lon="-5.806680">
        <ele>502.915</ele>
        <time>2020-02-28T23:38:33Z</time>
      </trkpt>
      <trkpt lat="40.195750" lon="-5.806680">
        <ele>502.696</ele>
        <time>2020-02-28T23:38:53Z</time>
      </trkpt>
      <trkpt lat="40.195830" lon="-5.806610">
        <ele>502.189</ele>
        <time>2020-02-28T23:39:13Z</time>
      </trkpt>
      <trkpt lat="40.195870" lon="-5.806590">
        <ele>501.778</ele>
        <time>2020-02-28T23:39:33Z</time>
      </trkpt>
      <trkpt lat="40.195930" lon="-5.806570">
        <ele>500.439</ele>
        <time>2020-02-28T23:39:53Z</time>
      </trkpt>
      <trkpt lat="40.196210" lon="-5.806920">
        <ele>500.856</ele>
        <time>2020-02-28T23:40:13Z</time>
      </trkpt>
      <trkpt lat="40.196250" lon="-5.806950">
        <ele>503.781</ele>
        <time>2020-02-28T23:40:33Z</time>
      </trkpt>
      <trkpt lat="40.196300" lon="-5.806970">
        <ele>507.261</ele>
        <time>2020-02-28T23:40:53Z</time>
      </trkpt>
      <trkpt lat="40.196350" lon="-5.806970">
        <ele>509.917</ele>
        <time>2020-02-28T23:41:13Z</time>
      </trkpt>
      <trkpt lat="40.196430" lon="-5.806930">
        <ele>511.608</ele>
        <time>2020-02-28T23:41:33Z</time>
      </trkpt>
      <trkpt lat="40.196610" lon="-5.806730">
        <ele>509.972</ele>
        <time>2020-02-28T23:41:53Z</time>
      </trkpt>
      <trkpt lat="40.197080" lon="-5.806070">
        <ele>510.115</ele>
        <time>2020-02-28T23:42:13Z</time>
      </trkpt>
      <trkpt lat="40.197290" lon="-5.805820">
        <ele>509.260</ele>
        <time>2020-02-28T23:42:33Z</time>
      </trkpt>
      <trkpt lat="40.197420" lon="-5.805690">
        <ele>510.331</ele>
        <time>2020-02-28T23:42:53Z</time>
      </trkpt>
      <trkpt lat="40.197880" lon="-5.805130">
        <ele>506.274</ele>
        <time>2020-02-28T23:43:13Z</time>
      </trkpt>
      <trkpt lat="40.197950" lon="-5.805030">
        <ele>505.693</ele>
        <time>2020-02-28T23:43:33Z</time>
      </trkpt>
      <trkpt lat="40.197960" lon="-5.805030">
        <ele>505.884</ele>
        <time>2020-02-28T23:43:53Z</time>
      </trkpt>
      <trkpt lat="40.198180" lon="-5.804690">
        <ele>508.321</ele>
        <time>2020-02-28T23:44:13Z</time>
      </trkpt>
      <trkpt lat="40.198400" lon="-5.804300">
        <ele>509.197</ele>
        <time>2020-02-28T23:44:33Z</time>
      </trkpt>
      <trkpt lat="40.198730" lon="-5.803630">
        <ele>507.923</ele>
        <time>2020-02-28T23:44:53Z</time>
      </trkpt>
      <trkpt lat="40.198930" lon="-5.803140">
        <ele>508.625</ele>
        <time>2020-02-28T23:45:13Z</time>
      </trkpt>
      <trkpt lat="40.199300" lon="-5.801930">
        <ele>514.808</ele>
        <time>2020-02-28T23:45:33Z</time>
      </trkpt>
      <trkpt lat="40.199540" lon="-5.800500">
        <ele>515.393</ele>
        <time>2020-02-28T23:45:53Z</time>
      </trkpt>
      <trkpt lat="40.199640" lon="-5.800170">
        <ele>516.526</ele>
        <time>2020-02-28T23:46:13Z</time>
      </trkpt>
      <trkpt lat="40.199700" lon="-5.800030">
        <ele>517.621</ele>
        <time>2020-02-28T23:46:33Z</time>
      </trkpt>
      <trkpt lat="40.199790" lon="-5.799870">
        <ele>519.452</ele>
        <time>2020-02-28T23:46:53Z</time>
      </trkpt>
      <trkpt lat="40.200190" lon="-5.799370">
        <ele>519.555</ele>
        <time>2020-02-28T23:47:13Z</time>
      </trkpt>
      <trkpt lat="40.200290" lon="-5.799170">
        <ele>519.184</ele>
        <time>2020-02-28T23:47:33Z</time>
      </trkpt>
      <trkpt lat="40.200380" lon="-5.798890">
        <ele>519.455</ele>
        <time>2020-02-28T23:47:53Z</time>
      </trkpt>
      <trkpt lat="40.200440" lon="-5.798600">
        <ele>519.092</ele>
        <time>2020-02-28T23:48:13Z</time>
      </trkpt>
      <trkpt lat="40.200720" lon="-5.797720">
        <ele>518.914</ele>
        <time>2020-02-28T23:48:33Z</time>
      </trkpt>
      <trkpt lat="40.203710" lon="-5.789110">
        <ele>530.054</ele>
        <time>2020-02-28T23:48:53Z</time>
      </trkpt>
      <trkpt lat="40.204530" lon="-5.787300">
        <ele>534.609</ele>
        <time>2020-02-28T23:49:13Z</time>
      </trkpt>
      <trkpt lat="40.204630" lon="-5.787130">
        <ele>534.208</ele>
        <time>2020-02-28T23:49:33Z</time>
      </trkpt>
      <trkpt lat="40.206900" lon="-5.784060">
        <ele>538.315</ele>
        <time>2020-02-28T23:49:53Z</time>
      </trkpt>
      <trkpt lat="40.206910" lon="-5.784030">
        <ele>538.398</ele>
        <time>2020-02-28T23:50:13Z</time>
      </trkpt>
      <trkpt lat="40.206970" lon="-5.783940">
        <ele>538.393</ele>
        <time>2020-02-28T23:50:33Z</time>
      </trkpt>
      <trkpt lat="40.207030" lon="-5.783780">
        <ele>538.314</ele>
        <time>2020-02-28T23:50:53Z</time>
      </trkpt>
      <trkpt lat="40.207050" lon="-5.783690">
        <ele>538.417</ele>
        <time>2020-02-28T23:51:13Z</time>
      </trkpt>
      <trkpt lat="40.207360" lon="-5.781260">
        <ele>541.046</ele>
        <time>2020-02-28T23:51:33Z</time>
      </trkpt>
      <trkpt lat="40.207430" lon="-5.781060">
        <ele>542.317</ele>
        <time>2020-02-28T23:51:53Z</time>
      </trkpt>
      <trkpt lat="40.207500" lon="-5.780900">
        <ele>543.094</ele>
        <time>2020-02-28T23:52:13Z</time>
      </trkpt>
      <trkpt lat="40.207600" lon="-5.780330">
        <ele>544.771</ele>
        <time>2020-02-28T23:52:33Z</time>
      </trkpt>
      <trkpt lat="40.207620" lon="-5.780020">
        <ele>544.941</ele>
        <time>2020-02-28T23:52:53Z</time>
      </trkpt>
      <trkpt lat="40.207590" lon="-5.779990">
        <ele>544.615</ele>
        <time>2020-02-28T23:53:13Z</time>
      </trkpt>
      <trkpt lat="40.207530" lon="-5.779890">
        <ele>544.208</ele>
        <time>2020-02-28T23:53:33Z</time>
      </trkpt>
      <trkpt lat="40.207510" lon="-5.779840">
        <ele>544.141</ele>
        <time>2020-02-28T23:53:53Z</time>
      </trkpt>
      <trkpt lat="40.207490" lon="-5.779750">
        <ele>543.954</ele>
        <time>2020-02-28T23:54:13Z</time>
      </trkpt>
      <trkpt lat="40.207490" lon="-5.779660">
        <ele>543.749</ele>
        <time>2020-02-28T23:54:33Z</time>
      </trkpt>
      <trkpt lat="40.207520" lon="-5.779530">
        <ele>543.580</ele>
        <time>2020-02-28T23:54:53Z</time>
      </trkpt>
      <trkpt lat="40.207540" lon="-5.779490">
        <ele>543.513</ele>
        <time>2020-02-28T23:55:13Z</time>
      </trkpt>
      <trkpt lat="40.207590" lon="-5.779420">
        <ele>543.612</ele>
        <time>2020-02-28T23:55:33Z</time>
      </trkpt>
      <trkpt lat="40.207600" lon="-5.779420">
        <ele>543.713</ele>
        <time>2020-02-28T23:55:53Z</time>
      </trkpt>
      <trkpt lat="40.207650" lon="-5.779370">
        <ele>544.020</ele>
        <time>2020-02-28T23:56:13Z</time>
      </trkpt>
      <trkpt lat="40.207680" lon="-5.779350">
        <ele>544.282</ele>
        <time>2020-02-28T23:56:33Z</time>
      </trkpt>
      <trkpt lat="40.207720" lon="-5.779340">
        <ele>544.543</ele>
        <time>2020-02-28T23:56:53Z</time>
      </trkpt>
      <trkpt lat="40.207850" lon="-5.779340">
        <ele>545.617</ele>
        <time>2020-02-28T23:57:13Z</time>
      </trkpt>
      <trkpt lat="40.207870" lon="-5.779350">
        <ele>545.808</ele>
        <time>2020-02-28T23:57:33Z</time>
      </trkpt>
      <trkpt lat="40.207890" lon="-5.779370">
        <ele>545.942</ele>
        <time>2020-02-28T23:57:53Z</time>
      </trkpt>
      <trkpt lat="40.207920" lon="-5.779390">
        <ele>546.195</ele>
        <time>2020-02-28T23:58:13Z</time>
      </trkpt>
      <trkpt lat="40.207970" lon="-5.779440">
        <ele>546.440</ele>
        <time>2020-02-28T23:58:33Z</time>
      </trkpt>
      <trkpt lat="40.208030" lon="-5.779560">
        <ele>546.961</ele>
        <time>2020-02-28T23:58:53Z</time>
      </trkpt>
      <trkpt lat="40.208060" lon="-5.779680">
        <ele>547.084</ele>
        <time>2020-02-28T23:59:13Z</time>
      </trkpt>
      <trkpt lat="40.208370" lon="-5.779730">
        <ele>549.353</ele>
        <time>2020-02-28T23:59:33Z</time>
      </trkpt>
      <trkpt lat="40.209230" lon="-5.780040">
        <ele>558.784</ele>
        <time>2020-02-28T23:59:53Z</time>
      </trkpt>
      <trkpt lat="40.209270" lon="-5.780040">
        <ele>559.121</ele>
        <time>2020-02-29T00:00:13Z</time>
      </trkpt>
      <trkpt lat="40.209310" lon="-5.780050">
        <ele>559.681</ele>
        <time>2020-02-29T00:00:33Z</time>
      </trkpt>
      <trkpt lat="40.209340" lon="-5.780050">
        <ele>559.961</ele>
        <time>2020-02-29T00:00:53Z</time>
      </trkpt>
      <trkpt lat="40.209410" lon="-5.780020">
        <ele>560.117</ele>
        <time>2020-02-29T00:01:13Z</time>
      </trkpt>
      <trkpt lat="40.210370" lon="-5.779320">
        <ele>571.608</ele>
        <time>2020-02-29T00:01:33Z</time>
      </trkpt>
      <trkpt lat="40.210950" lon="-5.779070">
        <ele>578.792</ele>
        <time>2020-02-29T00:01:53Z</time>
      </trkpt>
      <trkpt lat="40.211230" lon="-5.778980">
        <ele>579.785</ele>
        <time>2020-02-29T00:02:13Z</time>
      </trkpt>
      <trkpt lat="40.211450" lon="-5.778940">
        <ele>579.880</ele>
        <time>2020-02-29T00:02:33Z</time>
      </trkpt>
      <trkpt lat="40.211690" lon="-5.778950">
        <ele>581.931</ele>
        <time>2020-02-29T00:02:53Z</time>
      </trkpt>
      <trkpt lat="40.212020" lon="-5.779010">
        <ele>584.624</ele>
        <time>2020-02-29T00:03:13Z</time>
      </trkpt>
      <trkpt lat="40.212170" lon="-5.779010">
        <ele>584.923</ele>
        <time>2020-02-29T00:03:33Z</time>
      </trkpt>
      <trkpt lat="40.212290" lon="-5.778970">
        <ele>585.064</ele>
        <time>2020-02-29T00:03:53Z</time>
      </trkpt>
      <trkpt lat="40.212370" lon="-5.778920">
        <ele>584.981</ele>
        <time>2020-02-29T00:04:13Z</time>
      </trkpt>
      <trkpt lat="40.212570" lon="-5.778760">
        <ele>583.596</ele>
        <time>2020-02-29T00:04:33Z</time>
      </trkpt>
      <trkpt lat="40.212610" lon="-5.778740">
        <ele>583.731</ele>
        <time>2020-02-29T00:04:53Z</time>
      </trkpt>
      <trkpt lat="40.212640" lon="-5.778740">
        <ele>584.224</ele>
        <time>2020-02-29T00:05:13Z</time>
      </trkpt>
      <trkpt lat="40.212670" lon="-5.778730">
        <ele>584.508</ele>
        <time>2020-02-29T00:05:33Z</time>
      </trkpt>
      <trkpt lat="40.212750" lon="-5.778730">
        <ele>585.933</ele>
        <time>2020-02-29T00:05:53Z</time>
      </trkpt>
      <trkpt lat="40.213010" lon="-5.778780">
        <ele>587.546</ele>
        <time>2020-02-29T00:06:13Z</time>
      </trkpt>
      <trkpt lat="40.213210" lon="-5.778840">
        <ele>588.081</ele>
        <time>2020-02-29T00:06:33Z</time>
      </trkpt>
      <trkpt lat="40.213390" lon="-5.778930">
        <ele>588.442</ele>
        <time>2020-02-29T00:06:53Z</time>
      </trkpt>
      <trkpt lat="40.213480" lon="-5.779000">
        <ele>588.975</ele>
        <time>2020-02-29T00:07:13Z</time>
      </trkpt>
      <trkpt lat="40.213680" lon="-5.779200">
        <ele>591.334</ele>
        <time>2020-02-29T00:07:33Z</time>
      </trkpt>
      <trkpt lat="40.213790" lon="-5.779340">
        <ele>595.775</ele>
        <time>2020-02-29T00:07:53Z</time>
      </trkpt>
      <trkpt lat="40.213830" lon="-5.779410">
        <ele>597.142</ele>
        <time>2020-02-29T00:08:13Z</time>
      </trkpt>
      <trkpt lat="40.213910" lon="-5.779520">
        <ele>599.788</ele>
        <time>2020-02-29T00:08:33Z</time>
      </trkpt>
      <trkpt lat="40.213920" lon="-5.779540">
        <ele>600.624</ele>
        <time>2020-02-29T00:08:53Z</time>
      </trkpt>
      <trkpt lat="40.213940" lon="-5.779560">
        <ele>601.326</ele>
        <time>2020-02-29T00:09:13Z</time>
      </trkpt>
      <trkpt lat="40.214000" lon="-5.779600">
        <ele>602.108</ele>
        <time>2020-02-29T00:09:33Z</time>
      </trkpt>
      <trkpt lat="40.214020" lon="-5.779600">
        <ele>601.752</ele>
        <time>2020-02-29T00:09:53Z</time>
      </trkpt>
      <trkpt lat="40.214120" lon="-5.779650">
        <ele>601.925</ele>
        <time>2020-02-29T00:10:13Z</time>
      </trkpt>
      <trkpt lat="40.214210" lon="-5.779670">
        <ele>601.160</ele>
        <time>2020-02-29T00:10:33Z</time>
      </trkpt>
      <trkpt lat="40.214310" lon="-5.779710">
        <ele>601.431</ele>
        <time>2020-02-29T00:10:53Z</time>
      </trkpt>
      <trkpt lat="40.214420" lon="-5.779770">
        <ele>602.414</ele>
        <time>2020-02-29T00:11:13Z</time>
      </trkpt>
      <trkpt lat="40.214590" lon="-5.779930">
        <ele>604.133</ele>
        <time>2020-02-29T00:11:33Z</time>
      </trkpt>
      <trkpt lat="40.214880" lon="-5.780270">
        <ele>606.244</ele>
        <time>2020-02-29T00:11:53Z</time>
      </trkpt>
      <trkpt lat="40.215090" lon="-5.780560">
        <ele>607.761</ele>
        <time>2020-02-29T00:12:13Z</time>
      </trkpt>
      <trkpt lat="40.215250" lon="-5.780820">
        <ele>613.598</ele>
        <time>2020-02-29T00:12:33Z</time>
      </trkpt>
      <trkpt lat="40.215340" lon="-5.780930">
        <ele>617.615</ele>
        <time>2020-02-29T00:12:53Z</time>
      </trkpt>
      <trkpt lat="40.215460" lon="-5.781020">
        <ele>619.526</ele>
        <time>2020-02-29T00:13:13Z</time>
      </trkpt>
      <trkpt lat="40.215470" lon="-5.781020">
        <ele>619.208</ele>
        <time>2020-02-29T00:13:33Z</time>
      </trkpt>
      <trkpt lat="40.215520" lon="-5.781050">
        <ele>618.953</ele>
        <time>2020-02-29T00:13:53Z</time>
      </trkpt>
      <trkpt lat="40.215580" lon="-5.781070">
        <ele>618.336</ele>
        <time>2020-02-29T00:14:13Z</time>
      </trkpt>
      <trkpt lat="40.215640" lon="-5.781070">
        <ele>618.381</ele>
        <time>2020-02-29T00:14:33Z</time>
      </trkpt>
      <trkpt lat="40.215660" lon="-5.781080">
        <ele>618.712</ele>
        <time>2020-02-29T00:14:53Z</time>
      </trkpt>
      <trkpt lat="40.215740" lon="-5.781080">
        <ele>618.665</ele>
        <time>2020-02-29T00:15:13Z</time>
      </trkpt>
      <trkpt lat="40.215820" lon="-5.781090">
        <ele>619.014</ele>
        <time>2020-02-29T00:15:33Z</time>
      </trkpt>
      <trkpt lat="40.216360" lon="-5.781110">
        <ele>619.045</ele>
        <time>2020-02-29T00:15:53Z</time>
      </trkpt>
      <trkpt lat="40.216710" lon="-5.781180">
        <ele>618.632</ele>
        <time>2020-02-29T00:16:13Z</time>
      </trkpt>
      <trkpt lat="40.216800" lon="-5.781210">
        <ele>618.525</ele>
        <time>2020-02-29T00:16:33Z</time>
      </trkpt>
      <trkpt lat="40.217140" lon="-5.781290">
        <ele>618.726</ele>
        <time>2020-02-29T00:16:53Z</time>
      </trkpt>
      <trkpt lat="40.217230" lon="-5.781290">
        <ele>618.908</ele>
        <time>2020-02-29T00:17:13Z</time>
      </trkpt>
      <trkpt lat="40.217330" lon="-5.781270">
        <ele>622.708</ele>
        <time>2020-02-29T00:17:33Z</time>
      </trkpt>
      <trkpt lat="40.217390" lon="-5.781250">
        <ele>624.686</ele>
        <time>2020-02-29T00:17:53Z</time>
      </trkpt>
      <trkpt lat="40.217690" lon="-5.781030">
        <ele>626.379</ele>
        <time>2020-02-29T00:18:13Z</time>
      </trkpt>
      <trkpt lat="40.217800" lon="-5.780970">
        <ele>626.664</ele>
        <time>2020-02-29T00:18:33Z</time>
      </trkpt>
      <trkpt lat="40.217910" lon="-5.780930">
        <ele>625.965</ele>
        <time>2020-02-29T00:18:53Z</time>
      </trkpt>
      <trkpt lat="40.218020" lon="-5.780930">
        <ele>626.328</ele>
        <time>2020-02-29T00:19:13Z</time>
      </trkpt>
      <trkpt lat="40.218120" lon="-5.780950">
        <ele>625.447</ele>
        <time>2020-02-29T00:19:33Z</time>
      </trkpt>
      <trkpt lat="40.218170" lon="-5.780980">
        <ele>625.068</ele>
        <time>2020-02-29T00:19:53Z</time>
      </trkpt>
      <trkpt lat="40.218240" lon="-5.781070">
        <ele>625.715</ele>
        <time>2020-02-29T00:20:13Z</time>
      </trkpt>
      <trkpt lat="40.218540" lon="-5.781630">
        <ele>630.715</ele>
        <time>2020-02-29T00:20:33Z</time>
      </trkpt>
      <trkpt lat="40.218540" lon="-5.781640">
        <ele>630.965</ele>
        <time>2020-02-29T00:20:53Z</time>
      </trkpt>
      <trkpt lat="40.218900" lon="-5.782270">
        <ele>633.611</ele>
        <time>2020-02-29T00:21:13Z</time>
      </trkpt>
      <trkpt lat="40.219480" lon="-5.783140">
        <ele>634.308</ele>
        <time>2020-02-29T00:21:33Z</time>
      </trkpt>
      <trkpt lat="40.219580" lon="-5.783320">
        <ele>634.975</ele>
        <time>2020-02-29T00:21:53Z</time>
      </trkpt>
      <trkpt lat="40.219610" lon="-5.783400">
        <ele>635.448</ele>
        <time>2020-02-29T00:22:13Z</time>
      </trkpt>
      <trkpt lat="40.219610" lon="-5.783430">
        <ele>635.763</ele>
        <time>2020-02-29T00:22:33Z</time>
      </trkpt>
      <trkpt lat="40.219620" lon="-5.783460">
        <ele>635.934</ele>
        <time>2020-02-29T00:22:53Z</time>
      </trkpt>
      <trkpt lat="40.219620" lon="-5.783500">
        <ele>636.347</ele>
        <time>2020-02-29T00:23:13Z</time>
      </trkpt>
      <trkpt lat="40.219590" lon="-5.783600">
        <ele>637.416</ele>
        <time>2020-02-29T00:23:33Z</time>
      </trkpt>
      <trkpt lat="40.219590" lon="-5.783610">
        <ele>637.547</ele>
        <time>2020-02-29T00:23:53Z</time>
      </trkpt>
      <trkpt lat="40.219550" lon="-5.783680">
        <ele>638.484</ele>
        <time>2020-02-29T00:24:13Z</time>
      </trkpt>
      <trkpt lat="40.219530" lon="-5.783700">
        <ele>638.857</ele>
        <time>2020-02-29T00:24:33Z</time>
      </trkpt>
      <trkpt lat="40.219490" lon="-5.783720">
        <ele>639.300</ele>
        <time>2020-02-29T00:24:53Z</time>
      </trkpt>
      <trkpt lat="40.219440" lon="-5.783720">
        <ele>639.820</ele>
        <time>2020-02-29T00:25:13Z</time>
      </trkpt>
      <trkpt lat="40.219380" lon="-5.783690">
        <ele>642.408</ele>
        <time>2020-02-29T00:25:33Z</time>
      </trkpt>
      <trkpt lat="40.219360" lon="-5.783670">
        <ele>643.169</ele>
        <time>2020-02-29T00:25:53Z</time>
      </trkpt>
      <trkpt lat="40.219310" lon="-5.783600">
        <ele>644.662</ele>
        <time>2020-02-29T00:26:13Z</time>
      </trkpt>
      <trkpt lat="40.219310" lon="-5.783580">
        <ele>644.227</ele>
        <time>2020-02-29T00:26:33Z</time>
      </trkpt>
      <trkpt lat="40.219280" lon="-5.783530">
        <ele>644.568</ele>
        <time>2020-02-29T00:26:53Z</time>
      </trkpt>
      <trkpt lat="40.219140" lon="-5.783140">
        <ele>641.551</ele>
        <time>2020-02-29T00:27:13Z</time>
      </trkpt>
      <trkpt lat="40.218950" lon="-5.782770">
        <ele>647.210</ele>
        <time>2020-02-29T00:27:33Z</time>
      </trkpt>
      <trkpt lat="40.218720" lon="-5.782400">
        <ele>647.071</ele>
        <time>2020-02-29T00:27:53Z</time>
      </trkpt>
      <trkpt lat="40.218590" lon="-5.782240">
        <ele>647.298</ele>
        <time>2020-02-29T00:28:13Z</time>
      </trkpt>
      <trkpt lat="40.218590" lon="-5.782230">
        <ele>646.822</ele>
        <time>2020-02-29T00:28:33Z</time>
      </trkpt>
      <trkpt lat="40.218180" lon="-5.781690">
        <ele>650.862</ele>
        <time>2020-02-29T00:28:53Z</time>
      </trkpt>
      <trkpt lat="40.218070" lon="-5.781590">
        <ele>651.008</ele>
        <time>2020-02-29T00:29:13Z</time>
      </trkpt>
      <trkpt lat="40.217990" lon="-5.781570">
        <ele>650.708</ele>
        <time>2020-02-29T00:29:33Z</time>
      </trkpt>
      <trkpt lat="40.217960" lon="-5.781580">
        <ele>651.046</ele>
        <time>2020-02-29T00:29:53Z</time>
      </trkpt>
      <trkpt lat="40.217940" lon="-5.781580">
        <ele>650.939</ele>
        <time>2020-02-29T00:30:13Z</time>
      </trkpt>
      <trkpt lat="40.217900" lon="-5.781600">
        <ele>651.414</ele>
        <time>2020-02-29T00:30:33Z</time>
      </trkpt>
      <trkpt lat="40.217880" lon="-5.781620">
        <ele>652.045</ele>
        <time>2020-02-29T00:30:53Z</time>
      </trkpt>
      <trkpt lat="40.217860" lon="-5.781630">
        <ele>652.278</ele>
        <time>2020-02-29T00:31:13Z</time>
      </trkpt>
      <trkpt lat="40.217830" lon="-5.781660">
        <ele>653.087</ele>
        <time>2020-02-29T00:31:33Z</time>
      </trkpt>
      <trkpt lat="40.217640" lon="-5.781980">
        <ele>657.618</ele>
        <time>2020-02-29T00:31:53Z</time>
      </trkpt>
      <trkpt lat="40.217500" lon="-5.782270">
        <ele>660.965</ele>
        <time>2020-02-29T00:32:13Z</time>
      </trkpt>
      <trkpt lat="40.217430" lon="-5.782490">
        <ele>661.017</ele>
        <time>2020-02-29T00:32:33Z</time>
      </trkpt>
      <trkpt lat="40.217340" lon="-5.782880">
        <ele>665.987</ele>
        <time>2020-02-29T00:32:53Z</time>
      </trkpt>
      <trkpt lat="40.217290" lon="-5.783020">
        <ele>666.615</ele>
        <time>2020-02-29T00:33:13Z</time>
      </trkpt>
      <trkpt lat="40.217190" lon="-5.783210">
        <ele>667.608</ele>
        <time>2020-02-29T00:33:33Z</time>
      </trkpt>
      <trkpt lat="40.217070" lon="-5.783390">
        <ele>668.975</ele>
        <time>2020-02-29T00:33:53Z</time>
      </trkpt>
      <trkpt lat="40.216950" lon="-5.783530">
        <ele>669.428</ele>
        <time>2020-02-29T00:34:13Z</time>
      </trkpt>
      <trkpt lat="40.216750" lon="-5.783650">
        <ele>671.623</ele>
        <time>2020-02-29T00:34:33Z</time>
      </trkpt>
      <trkpt lat="40.216600" lon="-5.783710">
        <ele>672.744</ele>
        <time>2020-02-29T00:34:53Z</time>
      </trkpt>
      <trkpt lat="40.216530" lon="-5.783720">
        <ele>673.517</ele>
        <time>2020-02-29T00:35:13Z</time>
      </trkpt>
      <trkpt lat="40.216410" lon="-5.783720">
        <ele>674.776</ele>
        <time>2020-02-29T00:35:33Z</time>
      </trkpt>
      <trkpt lat="40.216300" lon="-5.783700">
        <ele>676.347</ele>
        <time>2020-02-29T00:35:53Z</time>
      </trkpt>
      <trkpt lat="40.216250" lon="-5.783680">
        <ele>676.964</ele>
        <time>2020-02-29T00:36:13Z</time>
      </trkpt>
      <trkpt lat="40.216190" lon="-5.783670">
        <ele>677.872</ele>
        <time>2020-02-29T00:36:33Z</time>
      </trkpt>
      <trkpt lat="40.216030" lon="-5.783580">
        <ele>679.513</ele>
        <time>2020-02-29T00:36:53Z</time>
      </trkpt>
      <trkpt lat="40.216030" lon="-5.783570">
        <ele>679.214</ele>
        <time>2020-02-29T00:37:13Z</time>
      </trkpt>
      <trkpt lat="40.215960" lon="-5.783520">
        <ele>679.908</ele>
        <time>2020-02-29T00:37:33Z</time>
      </trkpt>
      <trkpt lat="40.215800" lon="-5.783360">
        <ele>682.041</ele>
        <time>2020-02-29T00:37:53Z</time>
      </trkpt>
      <trkpt lat="40.215750" lon="-5.783290">
        <ele>683.444</ele>
        <time>2020-02-29T00:38:13Z</time>
      </trkpt>
      <trkpt lat="40.215750" lon="-5.783280">
        <ele>683.149</ele>
        <time>2020-02-29T00:38:33Z</time>
      </trkpt>
      <trkpt lat="40.215520" lon="-5.782820">
        <ele>682.420</ele>
        <time>2020-02-29T00:38:53Z</time>
      </trkpt>
      <trkpt lat="40.215450" lon="-5.782710">
        <ele>683.753</ele>
        <time>2020-02-29T00:39:13Z</time>
      </trkpt>
      <trkpt lat="40.215310" lon="-5.782550">
        <ele>686.972</ele>
        <time>2020-02-29T00:39:33Z</time>
      </trkpt>
      <trkpt lat="40.215000" lon="-5.782310">
        <ele>689.213</ele>
        <time>2020-02-29T00:39:53Z</time>
      </trkpt>
      <trkpt lat="40.214970" lon="-5.782300">
        <ele>689.450</ele>
        <time>2020-02-29T00:40:13Z</time>
      </trkpt>
      <trkpt lat="40.214850" lon="-5.782220">
        <ele>688.698</ele>
        <time>2020-02-29T00:40:33Z</time>
      </trkpt>
      <trkpt lat="40.214740" lon="-5.782170">
        <ele>689.415</ele>
        <time>2020-02-29T00:40:53Z</time>
      </trkpt>
      <trkpt lat="40.214490" lon="-5.782090">
        <ele>693.926</ele>
        <time>2020-02-29T00:41:13Z</time>
      </trkpt>
      <trkpt lat="40.214440" lon="-5.782080">
        <ele>694.908</ele>
        <time>2020-02-29T00:41:33Z</time>
      </trkpt>
      <trkpt lat="40.214400" lon="-5.782080">
        <ele>694.773</ele>
        <time>2020-02-29T00:41:53Z</time>
      </trkpt>
      <trkpt lat="40.214310" lon="-5.782100">
        <ele>694.616</ele>
        <time>2020-02-29T00:42:13Z</time>
      </trkpt>
      <trkpt lat="40.214250" lon="-5.782130">
        <ele>694.851</ele>
        <time>2020-02-29T00:42:33Z</time>
      </trkpt>
      <trkpt lat="40.214200" lon="-5.782180">
        <ele>695.572</ele>
        <time>2020-02-29T00:42:53Z</time>
      </trkpt>
      <trkpt lat="40.214180" lon="-5.782210">
        <ele>695.915</ele>
        <time>2020-02-29T00:43:13Z</time>
      </trkpt>
      <trkpt lat="40.214160" lon="-5.782230">
        <ele>696.024</ele>
        <time>2020-02-29T00:43:33Z</time>
      </trkpt>
      <trkpt lat="40.213980" lon="-5.782640">
        <ele>702.075</ele>
        <time>2020-02-29T00:43:53Z</time>
      </trkpt>
      <trkpt lat="40.213480" lon="-5.783620">
        <ele>716.332</ele>
        <time>2020-02-29T00:44:13Z</time>
      </trkpt>
      <trkpt lat="40.213270" lon="-5.783980">
        <ele>717.056</ele>
        <time>2020-02-29T00:44:33Z</time>
      </trkpt>
      <trkpt lat="40.213260" lon="-5.783990">
        <ele>716.759</ele>
        <time>2020-02-29T00:44:53Z</time>
      </trkpt>
      <trkpt lat="40.213180" lon="-5.784170">
        <ele>716.014</ele>
        <time>2020-02-29T00:45:13Z</time>
      </trkpt>
      <trkpt lat="40.213080" lon="-5.784470">
        <ele>715.308</ele>
        <time>2020-02-29T00:45:33Z</time>
      </trkpt>
      <trkpt lat="40.212970" lon="-5.785140">
        <ele>718.129</ele>
        <time>2020-02-29T00:45:53Z</time>
      </trkpt>
      <trkpt lat="40.212930" lon="-5.785560">
        <ele>722.812</ele>
        <time>2020-02-29T00:46:13Z</time>
      </trkpt>
      <trkpt lat="40.212950" lon="-5.786040">
        <ele>726.827</ele>
        <time>2020-02-29T00:46:33Z</time>
      </trkpt>
      <trkpt lat="40.212920" lon="-5.787210">
        <ele>734.068</ele>
        <time>2020-02-29T00:46:53Z</time>
      </trkpt>
      <trkpt lat="40.212850" lon="-5.787680">
        <ele>735.951</ele>
        <time>2020-02-29T00:47:13Z</time>
      </trkpt>
      <trkpt lat="40.212620" lon="-5.788710">
        <ele>741.710</ele>
        <time>2020-02-29T00:47:33Z</time>
      </trkpt>
      <trkpt lat="40.212590" lon="-5.788900">
        <ele>743.151</ele>
        <time>2020-02-29T00:47:53Z</time>
      </trkpt>
      <trkpt lat="40.212510" lon="-5.789980">
        <ele>752.168</ele>
        <time>2020-02-29T00:48:13Z</time>
      </trkpt>
      <trkpt lat="40.212500" lon="-5.790010">
        <ele>752.192</ele>
        <time>2020-02-29T00:48:33Z</time>
      </trkpt>
      <trkpt lat="40.212460" lon="-5.790440">
        <ele>756.273</ele>
        <time>2020-02-29T00:48:53Z</time>
      </trkpt>
      <trkpt lat="40.212430" lon="-5.790610">
        <ele>758.020</ele>
        <time>2020-02-29T00:49:13Z</time>
      </trkpt>
      <trkpt lat="40.212410" lon="-5.790670">
        <ele>758.508</ele>
        <time>2020-02-29T00:49:33Z</time>
      </trkpt>
      <trkpt lat="40.212410" lon="-5.790690">
        <ele>758.813</ele>
        <time>2020-02-29T00:49:53Z</time>
      </trkpt>
      <trkpt lat="40.212320" lon="-5.790870">
        <ele>759.676</ele>
        <time>2020-02-29T00:50:13Z</time>
      </trkpt>
      <trkpt lat="40.212310" lon="-5.790880">
        <ele>759.531</ele>
        <time>2020-02-29T00:50:33Z</time>
      </trkpt>
      <trkpt lat="40.212270" lon="-5.790950">
        <ele>759.932</ele>
        <time>2020-02-29T00:50:53Z</time>
      </trkpt>
      <trkpt lat="40.211990" lon="-5.791260">
        <ele>761.295</ele>
        <time>2020-02-29T00:51:13Z</time>
      </trkpt>
      <trkpt lat="40.211790" lon="-5.791450">
        <ele>760.764</ele>
        <time>2020-02-29T00:51:33Z</time>
      </trkpt>
      <trkpt lat="40.211570" lon="-5.791710">
        <ele>758.895</ele>
        <time>2020-02-29T00:51:53Z</time>
      </trkpt>
      <trkpt lat="40.211490" lon="-5.791870">
        <ele>759.372</ele>
        <time>2020-02-29T00:52:13Z</time>
      </trkpt>
      <trkpt lat="40.211410" lon="-5.792120">
        <ele>760.318</ele>
        <time>2020-02-29T00:52:33Z</time>
      </trkpt>
      <trkpt lat="40.211400" lon="-5.792230">
        <ele>761.398</ele>
        <time>2020-02-29T00:52:53Z</time>
      </trkpt>
      <trkpt lat="40.211400" lon="-5.792450">
        <ele>762.817</ele>
        <time>2020-02-29T00:53:13Z</time>
      </trkpt>
      <trkpt lat="40.211410" lon="-5.792490">
        <ele>763.208</ele>
        <time>2020-02-29T00:53:33Z</time>
      </trkpt>
      <trkpt lat="40.211410" lon="-5.792560">
        <ele>763.145</ele>
        <time>2020-02-29T00:53:53Z</time>
      </trkpt>
      <trkpt lat="40.211420" lon="-5.792640">
        <ele>762.968</ele>
        <time>2020-02-29T00:54:13Z</time>
      </trkpt>
      <trkpt lat="40.211470" lon="-5.792760">
        <ele>763.023</ele>
        <time>2020-02-29T00:54:33Z</time>
      </trkpt>
      <trkpt lat="40.211530" lon="-5.792830">
        <ele>763.484</ele>
        <time>2020-02-29T00:54:53Z</time>
      </trkpt>
      <trkpt lat="40.211580" lon="-5.792870">
        <ele>763.827</ele>
        <time>2020-02-29T00:55:13Z</time>
      </trkpt>
      <trkpt lat="40.211710" lon="-5.793020">
        <ele>764.966</ele>
        <time>2020-02-29T00:55:33Z</time>
      </trkpt>
      <trkpt lat="40.211720" lon="-5.793020">
        <ele>765.147</ele>
        <time>2020-02-29T00:55:53Z</time>
      </trkpt>
      <trkpt lat="40.212190" lon="-5.793680">
        <ele>764.774</ele>
        <time>2020-02-29T00:56:13Z</time>
      </trkpt>
      <trkpt lat="40.212280" lon="-5.793770">
        <ele>763.498</ele>
        <time>2020-02-29T00:56:33Z</time>
      </trkpt>
      <trkpt lat="40.212330" lon="-5.793790">
        <ele>763.215</ele>
        <time>2020-02-29T00:56:53Z</time>
      </trkpt>
      <trkpt lat="40.212400" lon="-5.793790">
        <ele>763.626</ele>
        <time>2020-02-29T00:57:13Z</time>
      </trkpt>
      <trkpt lat="40.212500" lon="-5.793760">
        <ele>765.208</ele>
        <time>2020-02-29T00:57:33Z</time>
      </trkpt>
      <trkpt lat="40.212570" lon="-5.793720">
        <ele>766.413</ele>
        <time>2020-02-29T00:57:53Z</time>
      </trkpt>
      <trkpt lat="40.212630" lon="-5.793640">
        <ele>769.096</ele>
        <time>2020-02-29T00:58:13Z</time>
      </trkpt>
      <trkpt lat="40.212970" lon="-5.793040">
        <ele>778.221</ele>
        <time>2020-02-29T00:58:33Z</time>
      </trkpt>
      <trkpt lat="40.213110" lon="-5.792830">
        <ele>781.292</ele>
        <time>2020-02-29T00:58:53Z</time>
      </trkpt>
      <trkpt lat="40.213180" lon="-5.792760">
        <ele>782.395</ele>
        <time>2020-02-29T00:59:13Z</time>
      </trkpt>
      <trkpt lat="40.213250" lon="-5.792710">
        <ele>783.184</ele>
        <time>2020-02-29T00:59:33Z</time>
      </trkpt>
      <trkpt lat="40.213350" lon="-5.792670">
        <ele>784.175</ele>
        <time>2020-02-29T00:59:53Z</time>
      </trkpt>
      <trkpt lat="40.213460" lon="-5.792670">
        <ele>785.052</ele>
        <time>2020-02-29T01:00:13Z</time>
      </trkpt>
      <trkpt lat="40.213560" lon="-5.792680">
        <ele>785.713</ele>
        <time>2020-02-29T01:00:33Z</time>
      </trkpt>
      <trkpt lat="40.213680" lon="-5.792710">
        <ele>786.943</ele>
        <time>2020-02-29T01:00:53Z</time>
      </trkpt>
      <trkpt lat="40.213710" lon="-5.792710">
        <ele>787.507</ele>
        <time>2020-02-29T01:01:13Z</time>
      </trkpt>
      <trkpt lat="40.214060" lon="-5.792820">
        <ele>789.508</ele>
        <time>2020-02-29T01:01:33Z</time>
      </trkpt>
      <trkpt lat="40.214250" lon="-5.792840">
        <ele>791.215</ele>
        <time>2020-02-29T01:01:53Z</time>
      </trkpt>
      <trkpt lat="40.214550" lon="-5.792830">
        <ele>798.448</ele>
        <time>2020-02-29T01:02:13Z</time>
      </trkpt>
      <trkpt lat="40.214630" lon="-5.792850">
        <ele>801.123</ele>
        <time>2020-02-29T01:02:33Z</time>
      </trkpt>
      <trkpt lat="40.214700" lon="-5.792910">
        <ele>803.754</ele>
        <time>2020-02-29T01:02:53Z</time>
      </trkpt>
      <trkpt lat="40.214720" lon="-5.792950">
        <ele>804.567</ele>
        <time>2020-02-29T01:03:13Z</time>
      </trkpt>
      <trkpt lat="40.214740" lon="-5.792970">
        <ele>805.346</ele>
        <time>2020-02-29T01:03:33Z</time>
      </trkpt>
      <trkpt lat="40.214740" lon="-5.792990">
        <ele>805.497</ele>
        <time>2020-02-29T01:03:53Z</time>
      </trkpt>
      <trkpt lat="40.214770" lon="-5.793050">
        <ele>806.564</ele>
        <time>2020-02-29T01:04:13Z</time>
      </trkpt>
      <trkpt lat="40.214830" lon="-5.793250">
        <ele>809.346</ele>
        <time>2020-02-29T01:04:33Z</time>
      </trkpt>
      <trkpt lat="40.214840" lon="-5.793340">
        <ele>810.188</ele>
        <time>2020-02-29T01:04:53Z</time>
      </trkpt>
      <trkpt lat="40.214860" lon="-5.793420">
        <ele>811.716</ele>
        <time>2020-02-29T01:05:13Z</time>
      </trkpt>
      <trkpt lat="40.214870" lon="-5.793690">
        <ele>814.608</ele>
        <time>2020-02-29T01:05:33Z</time>
      </trkpt>
      <trkpt lat="40.214820" lon="-5.794180">
        <ele>817.728</ele>
        <time>2020-02-29T01:05:53Z</time>
      </trkpt>
      <trkpt lat="40.214720" lon="-5.794810">
        <ele>816.551</ele>
        <time>2020-02-29T01:06:13Z</time>
      </trkpt>
      <trkpt lat="40.214690" lon="-5.795100">
        <ele>817.296</ele>
        <time>2020-02-29T01:06:33Z</time>
      </trkpt>
      <trkpt lat="40.214690" lon="-5.795280">
        <ele>818.557</ele>
        <time>2020-02-29T01:06:53Z</time>
      </trkpt>
      <trkpt lat="40.214710" lon="-5.795510">
        <ele>821.190</ele>
        <time>2020-02-29T01:07:13Z</time>
      </trkpt>
      <trkpt lat="40.214780" lon="-5.795840">
        <ele>828.679</ele>
        <time>2020-02-29T01:07:33Z</time>
      </trkpt>
      <trkpt lat="40.214790" lon="-5.795930">
        <ele>830.120</ele>
        <time>2020-02-29T01:07:53Z</time>
      </trkpt>
      <trkpt lat="40.214790" lon="-5.796150">
        <ele>832.917</ele>
        <time>2020-02-29T01:08:13Z</time>
      </trkpt>
      <trkpt lat="40.214780" lon="-5.796210">
        <ele>833.787</ele>
        <time>2020-02-29T01:08:33Z</time>
      </trkpt>
      <trkpt lat="40.214530" lon="-5.797070">
        <ele>834.842</ele>
        <time>2020-02-29T01:08:53Z</time>
      </trkpt>
      <trkpt lat="40.214450" lon="-5.797420">
        <ele>835.826</ele>
        <time>2020-02-29T01:09:13Z</time>
      </trkpt>
      <trkpt lat="40.214280" lon="-5.799150">
        <ele>845.308</ele>
        <time>2020-02-29T01:09:33Z</time>
      </trkpt>
      <trkpt lat="40.214260" lon="-5.799700">
        <ele>853.122</ele>
        <time>2020-02-29T01:09:53Z</time>
      </trkpt>
      <trkpt lat="40.214230" lon="-5.799950">
        <ele>856.855</ele>
        <time>2020-02-29T01:10:13Z</time>
      </trkpt>
      <trkpt lat="40.214170" lon="-5.800100">
        <ele>858.360</ele>
        <time>2020-02-29T01:10:33Z</time>
      </trkpt>
      <trkpt lat="40.214040" lon="-5.800270">
        <ele>858.621</ele>
        <time>2020-02-29T01:10:53Z</time>
      </trkpt>
      <trkpt lat="40.213990" lon="-5.800320">
        <ele>859.014</ele>
        <time>2020-02-29T01:11:13Z</time>
      </trkpt>
      <trkpt lat="40.213410" lon="-5.800790">
        <ele>863.953</ele>
        <time>2020-02-29T01:11:33Z</time>
      </trkpt>
      <trkpt lat="40.213340" lon="-5.800870">
        <ele>865.284</ele>
        <time>2020-02-29T01:11:53Z</time>
      </trkpt>
      <trkpt lat="40.213300" lon="-5.800930">
        <ele>866.141</ele>
        <time>2020-02-29T01:12:13Z</time>
      </trkpt>
      <trkpt lat="40.213240" lon="-5.801070">
        <ele>868.666</ele>
        <time>2020-02-29T01:12:33Z</time>
      </trkpt>
      <trkpt lat="40.213190" lon="-5.801220">
        <ele>870.329</ele>
        <time>2020-02-29T01:12:53Z</time>
      </trkpt>
      <trkpt lat="40.213060" lon="-5.801840">
        <ele>875.121</ele>
        <time>2020-02-29T01:13:13Z</time>
      </trkpt>
      <trkpt lat="40.213030" lon="-5.802150">
        <ele>877.608</ele>
        <time>2020-02-29T01:13:33Z</time>
      </trkpt>
      <trkpt lat="40.213030" lon="-5.802280">
        <ele>877.240</ele>
        <time>2020-02-29T01:13:53Z</time>
      </trkpt>
      <trkpt lat="40.213060" lon="-5.802540">
        <ele>872.833</ele>
        <time>2020-02-29T01:14:13Z</time>
      </trkpt>
      <trkpt lat="40.213090" lon="-5.802630">
        <ele>870.718</ele>
        <time>2020-02-29T01:14:33Z</time>
      </trkpt>
      <trkpt lat="40.213110" lon="-5.802660">
        <ele>870.299</ele>
        <time>2020-02-29T01:14:53Z</time>
      </trkpt>
      <trkpt lat="40.213140" lon="-5.802690">
        <ele>870.022</ele>
        <time>2020-02-29T01:15:13Z</time>
      </trkpt>
      <trkpt lat="40.213500" lon="-5.802840">
        <ele>874.971</ele>
        <time>2020-02-29T01:15:33Z</time>
      </trkpt>
      <trkpt lat="40.213550" lon="-5.802870">
        <ele>876.132</ele>
        <time>2020-02-29T01:15:53Z</time>
      </trkpt>
      <trkpt lat="40.213650" lon="-5.802910">
        <ele>878.959</ele>
        <time>2020-02-29T01:16:13Z</time>
      </trkpt>
      <trkpt lat="40.213740" lon="-5.802970">
        <ele>881.175</ele>
        <time>2020-02-29T01:16:33Z</time>
      </trkpt>
      <trkpt lat="40.213760" lon="-5.802990">
        <ele>881.628</ele>
        <time>2020-02-29T01:16:53Z</time>
      </trkpt>
      <trkpt lat="40.213800" lon="-5.803060">
        <ele>882.620</ele>
        <time>2020-02-29T01:17:13Z</time>
      </trkpt>
      <trkpt lat="40.213800" lon="-5.803170">
        <ele>884.908</ele>
        <time>2020-02-29T01:17:33Z</time>
      </trkpt>
      <trkpt lat="40.213780" lon="-5.803280">
        <ele>886.721</ele>
        <time>2020-02-29T01:17:53Z</time>
      </trkpt>
      <trkpt lat="40.213770" lon="-5.803300">
        <ele>886.884</ele>
        <time>2020-02-29T01:18:13Z</time>
      </trkpt>
      <trkpt lat="40.213740" lon="-5.803400">
        <ele>888.289</ele>
        <time>2020-02-29T01:18:33Z</time>
      </trkpt>
      <trkpt lat="40.213530" lon="-5.803860">
        <ele>896.940</ele>
        <time>2020-02-29T01:18:53Z</time>
      </trkpt>
      <trkpt lat="40.213500" lon="-5.803910">
        <ele>897.373</ele>
        <time>2020-02-29T01:19:13Z</time>
      </trkpt>
      <trkpt lat="40.213340" lon="-5.804250">
        <ele>897.182</ele>
        <time>2020-02-29T01:19:33Z</time>
      </trkpt>
      <trkpt lat="40.213150" lon="-5.804570">
        <ele>897.673</ele>
        <time>2020-02-29T01:19:53Z</time>
      </trkpt>
      <trkpt lat="40.213090" lon="-5.804700">
        <ele>897.560</ele>
        <time>2020-02-29T01:20:13Z</time>
      </trkpt>
      <trkpt lat="40.213040" lon="-5.804870">
        <ele>897.397</ele>
        <time>2020-02-29T01:20:33Z</time>
      </trkpt>
      <trkpt lat="40.212840" lon="-5.805810">
        <ele>904.923</ele>
        <time>2020-02-29T01:20:53Z</time>
      </trkpt>
      <trkpt lat="40.212700" lon="-5.806340">
        <ele>906.425</ele>
        <time>2020-02-29T01:21:13Z</time>
      </trkpt>
      <trkpt lat="40.212630" lon="-5.806680">
        <ele>908.008</ele>
        <time>2020-02-29T01:21:33Z</time>
      </trkpt>
      <trkpt lat="40.212590" lon="-5.807170">
        <ele>915.423</ele>
        <time>2020-02-29T01:21:53Z</time>
      </trkpt>
      <trkpt lat="40.212510" lon="-5.807470">
        <ele>917.026</ele>
        <time>2020-02-29T01:22:13Z</time>
      </trkpt>
      <trkpt lat="40.212380" lon="-5.807830">
        <ele>925.461</ele>
        <time>2020-02-29T01:22:33Z</time>
      </trkpt>
      <trkpt lat="40.212320" lon="-5.807920">
        <ele>926.762</ele>
        <time>2020-02-29T01:22:53Z</time>
      </trkpt>
      <trkpt lat="40.212270" lon="-5.807980">
        <ele>927.765</ele>
        <time>2020-02-29T01:23:13Z</time>
      </trkpt>
      <trkpt lat="40.212250" lon="-5.807990">
        <ele>927.574</ele>
        <time>2020-02-29T01:23:33Z</time>
      </trkpt>
      <trkpt lat="40.212220" lon="-5.808020">
        <ele>928.275</ele>
        <time>2020-02-29T01:23:53Z</time>
      </trkpt>
      <trkpt lat="40.212140" lon="-5.808060">
        <ele>928.412</ele>
        <time>2020-02-29T01:24:13Z</time>
      </trkpt>
      <trkpt lat="40.212000" lon="-5.808110">
        <ele>927.945</ele>
        <time>2020-02-29T01:24:33Z</time>
      </trkpt>
      <trkpt lat="40.211850" lon="-5.808200">
        <ele>927.347</ele>
        <time>2020-02-29T01:24:53Z</time>
      </trkpt>
      <trkpt lat="40.211770" lon="-5.808290">
        <ele>927.511</ele>
        <time>2020-02-29T01:25:13Z</time>
      </trkpt>
      <trkpt lat="40.211540" lon="-5.808710">
        <ele>934.408</ele>
        <time>2020-02-29T01:25:33Z</time>
      </trkpt>
      <trkpt lat="40.211500" lon="-5.808740">
        <ele>935.568</ele>
        <time>2020-02-29T01:25:53Z</time>
      </trkpt>
      <trkpt lat="40.211460" lon="-5.808780">
        <ele>937.341</ele>
        <time>2020-02-29T01:26:13Z</time>
      </trkpt>
      <trkpt lat="40.211420" lon="-5.808800">
        <ele>938.046</ele>
        <time>2020-02-29T01:26:33Z</time>
      </trkpt>
      <trkpt lat="40.211320" lon="-5.808820">
        <ele>938.177</ele>
        <time>2020-02-29T01:26:53Z</time>
      </trkpt>
      <trkpt lat="40.211230" lon="-5.808820">
        <ele>937.240</ele>
        <time>2020-02-29T01:27:13Z</time>
      </trkpt>
      <trkpt lat="40.210870" lon="-5.808870">
        <ele>935.879</ele>
        <time>2020-02-29T01:27:33Z</time>
      </trkpt>
      <trkpt lat="40.210810" lon="-5.808900">
        <ele>935.990</ele>
        <time>2020-02-29T01:27:53Z</time>
      </trkpt>
      <trkpt lat="40.210740" lon="-5.808950">
        <ele>936.177</ele>
        <time>2020-02-29T01:28:13Z</time>
      </trkpt>
      <trkpt lat="40.210640" lon="-5.809040">
        <ele>936.619</ele>
        <time>2020-02-29T01:28:33Z</time>
      </trkpt>
      <trkpt lat="40.210220" lon="-5.809500">
        <ele>941.009</ele>
        <time>2020-02-29T01:28:53Z</time>
      </trkpt>
      <trkpt lat="40.210200" lon="-5.809530">
        <ele>941.119</ele>
        <time>2020-02-29T01:29:13Z</time>
      </trkpt>
      <trkpt lat="40.210190" lon="-5.809560">
        <ele>941.308</ele>
        <time>2020-02-29T01:29:33Z</time>
      </trkpt>
      <trkpt lat="40.210160" lon="-5.809610">
        <ele>941.565</ele>
        <time>2020-02-29T01:29:53Z</time>
      </trkpt>
      <trkpt lat="40.210160" lon="-5.809690">
        <ele>942.488</ele>
        <time>2020-02-29T01:30:13Z</time>
      </trkpt>
      <trkpt lat="40.210170" lon="-5.809740">
        <ele>943.093</ele>
        <time>2020-02-29T01:30:33Z</time>
      </trkpt>
      <trkpt lat="40.210190" lon="-5.809780">
        <ele>943.544</ele>
        <time>2020-02-29T01:30:53Z</time>
      </trkpt>
      <trkpt lat="40.210240" lon="-5.809830">
        <ele>944.637</ele>
        <time>2020-02-29T01:31:13Z</time>
      </trkpt>
      <trkpt lat="40.210290" lon="-5.809860">
        <ele>945.786</ele>
        <time>2020-02-29T01:31:33Z</time>
      </trkpt>
      <trkpt lat="40.210400" lon="-5.809860">
        <ele>947.237</ele>
        <time>2020-02-29T01:31:53Z</time>
      </trkpt>
      <trkpt lat="40.210430" lon="-5.809850">
        <ele>947.544</ele>
        <time>2020-02-29T01:32:13Z</time>
      </trkpt>
      <trkpt lat="40.210480" lon="-5.809820">
        <ele>947.831</ele>
        <time>2020-02-29T01:32:33Z</time>
      </trkpt>
      <trkpt lat="40.210490" lon="-5.809810">
        <ele>947.761</ele>
        <time>2020-02-29T01:32:53Z</time>
      </trkpt>
      <trkpt lat="40.210510" lon="-5.809800">
        <ele>947.807</ele>
        <time>2020-02-29T01:33:13Z</time>
      </trkpt>
      <trkpt lat="40.210630" lon="-5.809680">
        <ele>949.508</ele>
        <time>2020-02-29T01:33:33Z</time>
      </trkpt>
      <trkpt lat="40.211020" lon="-5.809340">
        <ele>952.447</ele>
        <time>2020-02-29T01:33:53Z</time>
      </trkpt>
      <trkpt lat="40.211150" lon="-5.809260">
        <ele>953.330</ele>
        <time>2020-02-29T01:34:13Z</time>
      </trkpt>
      <trkpt lat="40.211240" lon="-5.809230">
        <ele>955.015</ele>
        <time>2020-02-29T01:34:33Z</time>
      </trkpt>
      <trkpt lat="40.211260" lon="-5.809230">
        <ele>955.726</ele>
        <time>2020-02-29T01:34:53Z</time>
      </trkpt>
      <trkpt lat="40.211280" lon="-5.809220">
        <ele>955.979</ele>
        <time>2020-02-29T01:35:13Z</time>
      </trkpt>
      <trkpt lat="40.211590" lon="-5.809220">
        <ele>960.768</ele>
        <time>2020-02-29T01:35:33Z</time>
      </trkpt>
      <trkpt lat="40.211810" lon="-5.809120">
        <ele>964.099</ele>
        <time>2020-02-29T01:35:53Z</time>
      </trkpt>
      <trkpt lat="40.212050" lon="-5.808940">
        <ele>967.476</ele>
        <time>2020-02-29T01:36:13Z</time>
      </trkpt>
      <trkpt lat="40.212110" lon="-5.808910">
        <ele>967.638</ele>
        <time>2020-02-29T01:36:33Z</time>
      </trkpt>
      <trkpt lat="40.212250" lon="-5.808860">
        <ele>968.070</ele>
        <time>2020-02-29T01:36:53Z</time>
      </trkpt>
      <trkpt lat="40.212280" lon="-5.808870">
        <ele>968.317</ele>
        <time>2020-02-29T01:37:13Z</time>
      </trkpt>
      <trkpt lat="40.212490" lon="-5.808870">
        <ele>968.508</ele>
        <time>2020-02-29T01:37:33Z</time>
      </trkpt>
      <trkpt lat="40.212640" lon="-5.808830">
        <ele>969.867</ele>
        <time>2020-02-29T01:37:53Z</time>
      </trkpt>
      <trkpt lat="40.212650" lon="-5.808830">
        <ele>970.030</ele>
        <time>2020-02-29T01:38:13Z</time>
      </trkpt>
      <trkpt lat="40.212730" lon="-5.808780">
        <ele>970.085</ele>
        <time>2020-02-29T01:38:33Z</time>
      </trkpt>
      <trkpt lat="40.212790" lon="-5.808720">
        <ele>969.986</ele>
        <time>2020-02-29T01:38:53Z</time>
      </trkpt>
      <trkpt lat="40.212790" lon="-5.808710">
        <ele>969.619</ele>
        <time>2020-02-29T01:39:13Z</time>
      </trkpt>
      <trkpt lat="40.212820" lon="-5.808680">
        <ele>970.578</ele>
        <time>2020-02-29T01:39:33Z</time>
      </trkpt>
      <trkpt lat="40.213200" lon="-5.807940">
        <ele>978.289</ele>
        <time>2020-02-29T01:39:53Z</time>
      </trkpt>
      <trkpt lat="40.213380" lon="-5.807650">
        <ele>980.556</ele>
        <time>2020-02-29T01:40:13Z</time>
      </trkpt>
      <trkpt lat="40.213420" lon="-5.807560">
        <ele>980.182</ele>
        <time>2020-02-29T01:40:33Z</time>
      </trkpt>
      <trkpt lat="40.213420" lon="-5.807550">
        <ele>979.843</ele>
        <time>2020-02-29T01:40:53Z</time>
      </trkpt>
      <trkpt lat="40.213470" lon="-5.807450">
        <ele>980.517</ele>
        <time>2020-02-29T01:41:13Z</time>
      </trkpt>
      <trkpt lat="40.213530" lon="-5.807240">
        <ele>981.408</ele>
        <time>2020-02-29T01:41:33Z</time>
      </trkpt>
      <trkpt lat="40.213550" lon="-5.807030">
        <ele>980.462</ele>
        <time>2020-02-29T01:41:53Z</time>
      </trkpt>
      <trkpt lat="40.213570" lon="-5.806940">
        <ele>980.865</ele>
        <time>2020-02-29T01:42:13Z</time>
      </trkpt>
      <trkpt lat="40.213590" lon="-5.806900">
        <ele>981.920</ele>
        <time>2020-02-29T01:42:33Z</time>
      </trkpt>
      <trkpt lat="40.213600" lon="-5.806850">
        <ele>982.191</ele>
        <time>2020-02-29T01:42:53Z</time>
      </trkpt>
      <trkpt lat="40.213930" lon="-5.806350">
        <ele>987.534</ele>
        <time>2020-02-29T01:43:13Z</time>
      </trkpt>
      <trkpt lat="40.214110" lon="-5.806040">
        <ele>985.463</ele>
        <time>2020-02-29T01:43:33Z</time>
      </trkpt>
      <trkpt lat="40.214350" lon="-5.805690">
        <ele>981.824</ele>
        <time>2020-02-29T01:43:53Z</time>
      </trkpt>
      <trkpt lat="40.214390" lon="-5.805650">
        <ele>981.891</ele>
        <time>2020-02-29T01:44:13Z</time>
      </trkpt>
      <trkpt lat="40.214420" lon="-5.805650">
        <ele>982.757</ele>
        <time>2020-02-29T01:44:33Z</time>
      </trkpt>
      <trkpt lat="40.214450" lon="-5.805640">
        <ele>983.200</ele>
        <time>2020-02-29T01:44:53Z</time>
      </trkpt>
      <trkpt lat="40.214470" lon="-5.805640">
        <ele>983.620</ele>
        <time>2020-02-29T01:45:13Z</time>
      </trkpt>
      <trkpt lat="40.214490" lon="-5.805650">
        <ele>984.308</ele>
        <time>2020-02-29T01:45:33Z</time>
      </trkpt>
      <trkpt lat="40.214510" lon="-5.805650">
        <ele>984.799</ele>
        <time>2020-02-29T01:45:53Z</time>
      </trkpt>
      <trkpt lat="40.214530" lon="-5.805660">
        <ele>985.462</ele>
        <time>2020-02-29T01:46:13Z</time>
      </trkpt>
      <trkpt lat="40.214540" lon="-5.805670">
        <ele>985.937</ele>
        <time>2020-02-29T01:46:33Z</time>
      </trkpt>
      <trkpt lat="40.214570" lon="-5.805680">
        <ele>986.858</ele>
        <time>2020-02-29T01:46:53Z</time>
      </trkpt>
      <trkpt lat="40.214610" lon="-5.805720">
        <ele>988.891</ele>
        <time>2020-02-29T01:47:13Z</time>
      </trkpt>
      <trkpt lat="40.214630" lon="-5.805800">
        <ele>991.720</ele>
        <time>2020-02-29T01:47:33Z</time>
      </trkpt>
      <trkpt lat="40.214630" lon="-5.805820">
        <ele>992.311</ele>
        <time>2020-02-29T01:47:53Z</time>
      </trkpt>
      <trkpt lat="40.214640" lon="-5.805840">
        <ele>993.238</ele>
        <time>2020-02-29T01:48:13Z</time>
      </trkpt>
      <trkpt lat="40.214640" lon="-5.805860">
        <ele>993.984</ele>
        <time>2020-02-29T01:48:33Z</time>
      </trkpt>
      <trkpt lat="40.214630" lon="-5.805870">
        <ele>994.007</ele>
        <time>2020-02-29T01:48:53Z</time>
      </trkpt>
      <trkpt lat="40.214630" lon="-5.805890">
        <ele>994.617</ele>
        <time>2020-02-29T01:49:13Z</time>
      </trkpt>
      <trkpt lat="40.214620" lon="-5.805900">
        <ele>994.708</ele>
        <time>2020-02-29T01:49:33Z</time>
      </trkpt>
      <trkpt lat="40.214610" lon="-5.805920">
        <ele>995.292</ele>
        <time>2020-02-29T01:49:53Z</time>
      </trkpt>
      <trkpt lat="40.214580" lon="-5.805950">
        <ele>995.445</ele>
        <time>2020-02-29T01:50:13Z</time>
      </trkpt>
      <trkpt lat="40.214500" lon="-5.806060">
        <ele>996.950</ele>
        <time>2020-02-29T01:50:33Z</time>
      </trkpt>
      <trkpt lat="40.214300" lon="-5.806290">
        <ele>997.331</ele>
        <time>2020-02-29T01:50:53Z</time>
      </trkpt>
      <trkpt lat="40.214070" lon="-5.806620">
        <ele>998.134</ele>
        <time>2020-02-29T01:51:13Z</time>
      </trkpt>
      <trkpt lat="40.213990" lon="-5.806780">
        <ele>998.593</ele>
        <time>2020-02-29T01:51:33Z</time>
      </trkpt>
      <trkpt lat="40.213900" lon="-5.807030">
        <ele>998.864</ele>
        <time>2020-02-29T01:51:53Z</time>
      </trkpt>
      <trkpt lat="40.213850" lon="-5.807210">
        <ele>998.961</ele>
        <time>2020-02-29T01:52:13Z</time>
      </trkpt>
      <trkpt lat="40.213820" lon="-5.807400">
        <ele>1000.484</ele>
        <time>2020-02-29T01:52:33Z</time>
      </trkpt>
      <trkpt lat="40.213820" lon="-5.807540">
        <ele>1002.707</ele>
        <time>2020-02-29T01:52:53Z</time>
      </trkpt>
      <trkpt lat="40.213770" lon="-5.807730">
        <ele>1003.517</ele>
        <time>2020-02-29T01:53:13Z</time>
      </trkpt>
      <trkpt lat="40.213450" lon="-5.808350">
        <ele>1006.708</ele>
        <time>2020-02-29T01:53:33Z</time>
      </trkpt>
      <trkpt lat="40.213390" lon="-5.808580">
        <ele>1006.362</ele>
        <time>2020-02-29T01:53:53Z</time>
      </trkpt>
      <trkpt lat="40.213370" lon="-5.808830">
        <ele>1010.575</ele>
        <time>2020-02-29T01:54:13Z</time>
      </trkpt>
      <trkpt lat="40.213390" lon="-5.809010">
        <ele>1014.580</ele>
        <time>2020-02-29T01:54:33Z</time>
      </trkpt>
      <trkpt lat="40.213390" lon="-5.809210">
        <ele>1017.261</ele>
        <time>2020-02-29T01:54:53Z</time>
      </trkpt>
      <trkpt lat="40.213380" lon="-5.809320">
        <ele>1018.354</ele>
        <time>2020-02-29T01:55:13Z</time>
      </trkpt>
      <trkpt lat="40.213360" lon="-5.809420">
        <ele>1018.873</ele>
        <time>2020-02-29T01:55:33Z</time>
      </trkpt>
      <trkpt lat="40.213260" lon="-5.809590">
        <ele>1020.624</ele>
        <time>2020-02-29T01:55:53Z</time>
      </trkpt>
      <trkpt lat="40.213200" lon="-5.809660">
        <ele>1021.781</ele>
        <time>2020-02-29T01:56:13Z</time>
      </trkpt>
      <trkpt lat="40.212520" lon="-5.810240">
        <ele>1026.617</ele>
        <time>2020-02-29T01:56:33Z</time>
      </trkpt>
      <trkpt lat="40.212410" lon="-5.810380">
        <ele>1026.087</ele>
        <time>2020-02-29T01:56:53Z</time>
      </trkpt>
      <trkpt lat="40.212370" lon="-5.810450">
        <ele>1026.015</ele>
        <time>2020-02-29T01:57:13Z</time>
      </trkpt>
      <trkpt lat="40.212310" lon="-5.810590">
        <ele>1026.708</ele>
        <time>2020-02-29T01:57:33Z</time>
      </trkpt>
      <trkpt lat="40.212270" lon="-5.810730">
        <ele>1027.835</ele>
        <time>2020-02-29T01:57:53Z</time>
      </trkpt>
      <trkpt lat="40.212200" lon="-5.811150">
        <ele>1030.738</ele>
        <time>2020-02-29T01:58:13Z</time>
      </trkpt>
      <trkpt lat="40.212170" lon="-5.811510">
        <ele>1033.533</ele>
        <time>2020-02-29T01:58:33Z</time>
      </trkpt>
      <trkpt lat="40.211870" lon="-5.813800">
        <ele>1049.034</ele>
        <time>2020-02-29T01:58:53Z</time>
      </trkpt>
      <trkpt lat="40.211830" lon="-5.813950">
        <ele>1050.127</ele>
        <time>2020-02-29T01:59:13Z</time>
      </trkpt>
      <trkpt lat="40.211640" lon="-5.814460">
        <ele>1051.326</ele>
        <time>2020-02-29T01:59:33Z</time>
      </trkpt>
      <trkpt lat="40.211600" lon="-5.814530">
        <ele>1050.827</ele>
        <time>2020-02-29T01:59:53Z</time>
      </trkpt>
      <trkpt lat="40.211590" lon="-5.814580">
        <ele>1051.064</ele>
        <time>2020-02-29T02:00:13Z</time>
      </trkpt>
      <trkpt lat="40.211590" lon="-5.814630">
        <ele>1051.595</ele>
        <time>2020-02-29T02:00:33Z</time>
      </trkpt>
      <trkpt lat="40.211580" lon="-5.814650">
        <ele>1051.449</ele>
        <time>2020-02-29T02:00:53Z</time>
      </trkpt>
      <trkpt lat="40.211580" lon="-5.814720">
        <ele>1052.223</ele>
        <time>2020-02-29T02:01:13Z</time>
      </trkpt>
      <trkpt lat="40.211630" lon="-5.814990">
        <ele>1051.508</ele>
        <time>2020-02-29T02:01:33Z</time>
      </trkpt>
      <trkpt lat="40.211750" lon="-5.815200">
        <ele>1051.393</ele>
        <time>2020-02-29T02:01:53Z</time>
      </trkpt>
      <trkpt lat="40.211810" lon="-5.815270">
        <ele>1051.846</ele>
        <time>2020-02-29T02:02:13Z</time>
      </trkpt>
      <trkpt lat="40.211820" lon="-5.815300">
        <ele>1051.371</ele>
        <time>2020-02-29T02:02:33Z</time>
      </trkpt>
      <trkpt lat="40.212140" lon="-5.815560">
        <ele>1054.882</ele>
        <time>2020-02-29T02:02:53Z</time>
      </trkpt>
      <trkpt lat="40.212190" lon="-5.815620">
        <ele>1054.835</ele>
        <time>2020-02-29T02:03:13Z</time>
      </trkpt>
      <trkpt lat="40.212650" lon="-5.816340">
        <ele>1061.864</ele>
        <time>2020-02-29T02:03:33Z</time>
      </trkpt>
      <trkpt lat="40.212720" lon="-5.816410">
        <ele>1063.455</ele>
        <time>2020-02-29T02:03:53Z</time>
      </trkpt>
      <trkpt lat="40.212820" lon="-5.816470">
        <ele>1065.832</ele>
        <time>2020-02-29T02:04:13Z</time>
      </trkpt>
      <trkpt lat="40.212870" lon="-5.816510">
        <ele>1066.444</ele>
        <time>2020-02-29T02:04:33Z</time>
      </trkpt>
      <trkpt lat="40.212960" lon="-5.816600">
        <ele>1067.405</ele>
        <time>2020-02-29T02:04:53Z</time>
      </trkpt>
      <trkpt lat="40.212990" lon="-5.816640">
        <ele>1067.715</ele>
        <time>2020-02-29T02:05:13Z</time>
      </trkpt>
      <trkpt lat="40.213010" lon="-5.816680">
        <ele>1067.708</ele>
        <time>2020-02-29T02:05:33Z</time>
      </trkpt>
      <trkpt lat="40.213210" lon="-5.817390">
        <ele>1070.098</ele>
        <time>2020-02-29T02:05:53Z</time>
      </trkpt>
      <trkpt lat="40.213290" lon="-5.817610">
        <ele>1069.591</ele>
        <time>2020-02-29T02:06:13Z</time>
      </trkpt>
      <trkpt lat="40.213350" lon="-5.817740">
        <ele>1069.366</ele>
        <time>2020-02-29T02:06:33Z</time>
      </trkpt>
      <trkpt lat="40.213350" lon="-5.817750">
        <ele>1069.167</ele>
        <time>2020-02-29T02:06:53Z</time>
      </trkpt>
      <trkpt lat="40.213400" lon="-5.817830">
        <ele>1068.980</ele>
        <time>2020-02-29T02:07:13Z</time>
      </trkpt>
      <trkpt lat="40.213470" lon="-5.817910">
        <ele>1069.159</ele>
        <time>2020-02-29T02:07:33Z</time>
      </trkpt>
      <trkpt lat="40.213780" lon="-5.818160">
        <ele>1070.860</ele>
        <time>2020-02-29T02:07:53Z</time>
      </trkpt>
      <trkpt lat="40.214410" lon="-5.818610">
        <ele>1080.827</ele>
        <time>2020-02-29T02:08:13Z</time>
      </trkpt>
      <trkpt lat="40.214440" lon="-5.818640">
        <ele>1081.176</ele>
        <time>2020-02-29T02:08:33Z</time>
      </trkpt>
      <trkpt lat="40.214890" lon="-5.818940">
        <ele>1086.690</ele>
        <time>2020-02-29T02:08:53Z</time>
      </trkpt>
      <trkpt lat="40.214890" lon="-5.818950">
        <ele>1086.319</ele>
        <time>2020-02-29T02:09:13Z</time>
      </trkpt>
      <trkpt lat="40.214950" lon="-5.818990">
        <ele>1086.308</ele>
        <time>2020-02-29T02:09:33Z</time>
      </trkpt>
      <trkpt lat="40.215060" lon="-5.819020">
        <ele>1086.331</ele>
        <time>2020-02-29T02:09:53Z</time>
      </trkpt>
      <trkpt lat="40.215080" lon="-5.819030">
        <ele>1085.974</ele>
        <time>2020-02-29T02:10:13Z</time>
      </trkpt>
      <trkpt lat="40.215120" lon="-5.819030">
        <ele>1085.979</ele>
        <time>2020-02-29T02:10:33Z</time>
      </trkpt>
      <trkpt lat="40.215230" lon="-5.819010">
        <ele>1086.670</ele>
        <time>2020-02-29T02:10:53Z</time>
      </trkpt>
      <trkpt lat="40.215440" lon="-5.818950">
        <ele>1089.453</ele>
        <time>2020-02-29T02:11:13Z</time>
      </trkpt>
      <trkpt lat="40.215510" lon="-5.818920">
        <ele>1090.392</ele>
        <time>2020-02-29T02:11:33Z</time>
      </trkpt>
      <trkpt lat="40.215570" lon="-5.818870">
        <ele>1091.993</ele>
        <time>2020-02-29T02:11:53Z</time>
      </trkpt>
      <trkpt lat="40.215590" lon="-5.818830">
        <ele>1093.370</ele>
        <time>2020-02-29T02:12:13Z</time>
      </trkpt>
      <trkpt lat="40.215610" lon="-5.818760">
        <ele>1095.365</ele>
        <time>2020-02-29T02:12:33Z</time>
      </trkpt>
      <trkpt lat="40.215620" lon="-5.818690">
        <ele>1096.968</ele>
        <time>2020-02-29T02:12:53Z</time>
      </trkpt>
      <trkpt lat="40.215610" lon="-5.818650">
        <ele>1097.414</ele>
        <time>2020-02-29T02:13:13Z</time>
      </trkpt>
      <trkpt lat="40.215570" lon="-5.818560">
        <ele>1098.208</ele>
        <time>2020-02-29T02:13:33Z</time>
      </trkpt>
      <trkpt lat="40.215470" lon="-5.818480">
        <ele>1099.820</ele>
        <time>2020-02-29T02:13:53Z</time>
      </trkpt>
      <trkpt lat="40.215420" lon="-5.818460">
        <ele>1100.523</ele>
        <time>2020-02-29T02:14:13Z</time>
      </trkpt>
      <trkpt lat="40.215090" lon="-5.818440">
        <ele>1101.058</ele>
        <time>2020-02-29T02:14:33Z</time>
      </trkpt>
      <trkpt lat="40.214970" lon="-5.818410">
        <ele>1100.939</ele>
        <time>2020-02-29T02:14:53Z</time>
      </trkpt>
      <trkpt lat="40.214910" lon="-5.818380">
        <ele>1100.712</ele>
        <time>2020-02-29T02:15:13Z</time>
      </trkpt>
      <trkpt lat="40.214810" lon="-5.818300">
        <ele>1101.581</ele>
        <time>2020-02-29T02:15:33Z</time>
      </trkpt>
      <trkpt lat="40.214210" lon="-5.817670">
        <ele>1102.222</ele>
        <time>2020-02-29T02:15:53Z</time>
      </trkpt>
      <trkpt lat="40.214140" lon="-5.817580">
        <ele>1102.289</ele>
        <time>2020-02-29T02:16:13Z</time>
      </trkpt>
      <trkpt lat="40.214090" lon="-5.817490">
        <ele>1102.887</ele>
        <time>2020-02-29T02:16:33Z</time>
      </trkpt>
      <trkpt lat="40.214010" lon="-5.817280">
        <ele>1104.342</ele>
        <time>2020-02-29T02:16:53Z</time>
      </trkpt>
      <trkpt lat="40.213930" lon="-5.816760">
        <ele>1109.526</ele>
        <time>2020-02-29T02:17:13Z</time>
      </trkpt>
      <trkpt lat="40.213920" lon="-5.816490">
        <ele>1111.008</ele>
        <time>2020-02-29T02:17:33Z</time>
      </trkpt>
      <trkpt lat="40.213940" lon="-5.816350">
        <ele>1111.952</ele>
        <time>2020-02-29T02:17:53Z</time>
      </trkpt>
      <trkpt lat="40.214040" lon="-5.816050">
        <ele>1114.755</ele>
        <time>2020-02-29T02:18:13Z</time>
      </trkpt>
      <trkpt lat="40.214120" lon="-5.815870">
        <ele>1116.210</ele>
        <time>2020-02-29T02:18:33Z</time>
      </trkpt>
      <trkpt lat="40.214170" lon="-5.815790">
        <ele>1117.041</ele>
        <time>2020-02-29T02:18:53Z</time>
      </trkpt>
      <trkpt lat="40.214220" lon="-5.815730">
        <ele>1117.824</ele>
        <time>2020-02-29T02:19:13Z</time>
      </trkpt>
      <trkpt lat="40.214450" lon="-5.815590">
        <ele>1121.163</ele>
        <time>2020-02-29T02:19:33Z</time>
      </trkpt>
      <trkpt lat="40.214550" lon="-5.815490">
        <ele>1122.834</ele>
        <time>2020-02-29T02:19:53Z</time>
      </trkpt>
      <trkpt lat="40.214580" lon="-5.815430">
        <ele>1123.411</ele>
        <time>2020-02-29T02:20:13Z</time>
      </trkpt>
      <trkpt lat="40.214640" lon="-5.815260">
        <ele>1124.964</ele>
        <time>2020-02-29T02:20:33Z</time>
      </trkpt>
      <trkpt lat="40.214660" lon="-5.815180">
        <ele>1125.406</ele>
        <time>2020-02-29T02:20:53Z</time>
      </trkpt>
      <trkpt lat="40.214700" lon="-5.814530">
        <ele>1128.216</ele>
        <time>2020-02-29T02:21:13Z</time>
      </trkpt>
      <trkpt lat="40.214760" lon="-5.814160">
        <ele>1130.108</ele>
        <time>2020-02-29T02:21:33Z</time>
      </trkpt>
      <trkpt lat="40.214810" lon="-5.814040">
        <ele>1130.860</ele>
        <time>2020-02-29T02:21:53Z</time>
      </trkpt>
      <trkpt lat="40.214870" lon="-5.813930">
        <ele>1131.533</ele>
        <time>2020-02-29T02:22:13Z</time>
      </trkpt>
      <trkpt lat="40.214960" lon="-5.813800">
        <ele>1132.548</ele>
        <time>2020-02-29T02:22:33Z</time>
      </trkpt>
      <trkpt lat="40.215400" lon="-5.813330">
        <ele>1136.259</ele>
        <time>2020-02-29T02:22:53Z</time>
      </trkpt>
      <trkpt lat="40.215680" lon="-5.812940">
        <ele>1135.152</ele>
        <time>2020-02-29T02:23:13Z</time>
      </trkpt>
      <trkpt lat="40.215870" lon="-5.812750">
        <ele>1136.041</ele>
        <time>2020-02-29T02:23:33Z</time>
      </trkpt>
      <trkpt lat="40.216070" lon="-5.812620">
        <ele>1136.822</ele>
        <time>2020-02-29T02:23:53Z</time>
      </trkpt>
      <trkpt lat="40.216150" lon="-5.812580">
        <ele>1137.269</ele>
        <time>2020-02-29T02:24:13Z</time>
      </trkpt>
      <trkpt lat="40.216260" lon="-5.812580">
        <ele>1138.288</ele>
        <time>2020-02-29T02:24:33Z</time>
      </trkpt>
      <trkpt lat="40.216260" lon="-5.812590">
        <ele>1138.224</ele>
        <time>2020-02-29T02:24:53Z</time>
      </trkpt>
      <trkpt lat="40.216280" lon="-5.812590">
        <ele>1138.426</ele>
        <time>2020-02-29T02:25:13Z</time>
      </trkpt>
      <trkpt lat="40.216310" lon="-5.812610">
        <ele>1138.808</ele>
        <time>2020-02-29T02:25:33Z</time>
      </trkpt>
      <trkpt lat="40.216360" lon="-5.812660">
        <ele>1139.472</ele>
        <time>2020-02-29T02:25:53Z</time>
      </trkpt>
      <trkpt lat="40.216360" lon="-5.812690">
        <ele>1139.575</ele>
        <time>2020-02-29T02:26:13Z</time>
      </trkpt>
      <trkpt lat="40.216370" lon="-5.812720">
        <ele>1139.730</ele>
        <time>2020-02-29T02:26:33Z</time>
      </trkpt>
      <trkpt lat="40.216380" lon="-5.812720">
        <ele>1139.791</ele>
        <time>2020-02-29T02:26:53Z</time>
      </trkpt>
      <trkpt lat="40.216380" lon="-5.812750">
        <ele>1139.924</ele>
        <time>2020-02-29T02:27:13Z</time>
      </trkpt>
      <trkpt lat="40.216390" lon="-5.812810">
        <ele>1140.753</ele>
        <time>2020-02-29T02:27:33Z</time>
      </trkpt>
      <trkpt lat="40.216390" lon="-5.812880">
        <ele>1142.234</ele>
        <time>2020-02-29T02:27:53Z</time>
      </trkpt>
      <trkpt lat="40.216380" lon="-5.812910">
        <ele>1142.851</ele>
        <time>2020-02-29T02:28:13Z</time>
      </trkpt>
      <trkpt lat="40.216320" lon="-5.813020">
        <ele>1144.694</ele>
        <time>2020-02-29T02:28:33Z</time>
      </trkpt>
      <trkpt lat="40.216230" lon="-5.813100">
        <ele>1145.257</ele>
        <time>2020-02-29T02:28:53Z</time>
      </trkpt>
      <trkpt lat="40.216220" lon="-5.813100">
        <ele>1145.122</ele>
        <time>2020-02-29T02:29:13Z</time>
      </trkpt>
      <trkpt lat="40.216180" lon="-5.813130">
        <ele>1145.208</ele>
        <time>2020-02-29T02:29:33Z</time>
      </trkpt>
      <trkpt lat="40.215990" lon="-5.813240">
        <ele>1144.693</ele>
        <time>2020-02-29T02:29:53Z</time>
      </trkpt>
      <trkpt lat="40.215910" lon="-5.813310">
        <ele>1144.786</ele>
        <time>2020-02-29T02:30:13Z</time>
      </trkpt>
      <trkpt lat="40.215630" lon="-5.813610">
        <ele>1145.361</ele>
        <time>2020-02-29T02:30:33Z</time>
      </trkpt>
      <trkpt lat="40.215620" lon="-5.813610">
        <ele>1145.152</ele>
        <time>2020-02-29T02:30:53Z</time>
      </trkpt>
      <trkpt lat="40.215430" lon="-5.813880">
        <ele>1145.335</ele>
        <time>2020-02-29T02:31:13Z</time>
      </trkpt>
      <trkpt lat="40.215400" lon="-5.813950">
        <ele>1145.024</ele>
        <time>2020-02-29T02:31:33Z</time>
      </trkpt>
      <trkpt lat="40.215390" lon="-5.813960">
        <ele>1144.835</ele>
        <time>2020-02-29T02:31:53Z</time>
      </trkpt>
      <trkpt lat="40.215350" lon="-5.814070">
        <ele>1144.792</ele>
        <time>2020-02-29T02:32:13Z</time>
      </trkpt>
      <trkpt lat="40.215350" lon="-5.814130">
        <ele>1145.278</ele>
        <time>2020-02-29T02:32:33Z</time>
      </trkpt>
      <trkpt lat="40.215340" lon="-5.814180">
        <ele>1145.333</ele>
        <time>2020-02-29T02:32:53Z</time>
      </trkpt>
      <trkpt lat="40.215340" lon="-5.814200">
        <ele>1145.226</ele>
        <time>2020-02-29T02:33:13Z</time>
      </trkpt>
      <trkpt lat="40.215350" lon="-5.814250">
        <ele>1145.308</ele>
        <time>2020-02-29T02:33:33Z</time>
      </trkpt>
      <trkpt lat="40.215350" lon="-5.814290">
        <ele>1145.181</ele>
        <time>2020-02-29T02:33:53Z</time>
      </trkpt>
      <trkpt lat="40.215370" lon="-5.814390">
        <ele>1145.214</ele>
        <time>2020-02-29T02:34:13Z</time>
      </trkpt>
      <trkpt lat="40.215390" lon="-5.814430">
        <ele>1145.529</ele>
        <time>2020-02-29T02:34:33Z</time>
      </trkpt>
      <trkpt lat="40.215410" lon="-5.814490">
        <ele>1145.750</ele>
        <time>2020-02-29T02:34:53Z</time>
      </trkpt>
      <trkpt lat="40.215450" lon="-5.814570">
        <ele>1146.343</ele>
        <time>2020-02-29T02:35:13Z</time>
      </trkpt>
      <trkpt lat="40.215870" lon="-5.815640">
        <ele>1150.742</ele>
        <time>2020-02-29T02:35:33Z</time>
      </trkpt>
      <trkpt lat="40.215890" lon="-5.815660">
        <ele>1150.813</ele>
        <time>2020-02-29T02:35:53Z</time>
      </trkpt>
      <trkpt lat="40.215910" lon="-5.815670">
        <ele>1150.990</ele>
        <time>2020-02-29T02:36:13Z</time>
      </trkpt>
      <trkpt lat="40.215950" lon="-5.815710">
        <ele>1150.994</ele>
        <time>2020-02-29T02:36:33Z</time>
      </trkpt>
      <trkpt lat="40.216020" lon="-5.815740">
        <ele>1151.257</ele>
        <time>2020-02-29T02:36:53Z</time>
      </trkpt>
      <trkpt lat="40.216080" lon="-5.815740">
        <ele>1151.722</ele>
        <time>2020-02-29T02:37:13Z</time>
      </trkpt>
      <trkpt lat="40.216130" lon="-5.815720">
        <ele>1152.408</ele>
        <time>2020-02-29T02:37:33Z</time>
      </trkpt>
      <trkpt lat="40.216170" lon="-5.815690">
        <ele>1153.223</ele>
        <time>2020-02-29T02:37:53Z</time>
      </trkpt>
      <trkpt lat="40.216200" lon="-5.815630">
        <ele>1154.266</ele>
        <time>2020-02-29T02:38:13Z</time>
      </trkpt>
      <trkpt lat="40.216230" lon="-5.815500">
        <ele>1155.671</ele>
        <time>2020-02-29T02:38:33Z</time>
      </trkpt>
      <trkpt lat="40.216220" lon="-5.815360">
        <ele>1156.212</ele>
        <time>2020-02-29T02:38:53Z</time>
      </trkpt>
      <trkpt lat="40.216130" lon="-5.814900">
        <ele>1156.665</ele>
        <time>2020-02-29T02:39:13Z</time>
      </trkpt>
      <trkpt lat="40.216130" lon="-5.814630">
        <ele>1157.664</ele>
        <time>2020-02-29T02:39:33Z</time>
      </trkpt>
      <trkpt lat="40.216140" lon="-5.814510">
        <ele>1158.355</ele>
        <time>2020-02-29T02:39:53Z</time>
      </trkpt>
      <trkpt lat="40.216180" lon="-5.814380">
        <ele>1159.752</ele>
        <time>2020-02-29T02:40:13Z</time>
      </trkpt>
      <trkpt lat="40.216200" lon="-5.814280">
        <ele>1160.553</ele>
        <time>2020-02-29T02:40:33Z</time>
      </trkpt>
      <trkpt lat="40.216290" lon="-5.814110">
        <ele>1162.404</ele>
        <time>2020-02-29T02:40:53Z</time>
      </trkpt>
      <trkpt lat="40.216320" lon="-5.814070">
        <ele>1162.714</ele>
        <time>2020-02-29T02:41:13Z</time>
      </trkpt>
      <trkpt lat="40.216470" lon="-5.813920">
        <ele>1165.008</ele>
        <time>2020-02-29T02:41:33Z</time>
      </trkpt>
      <trkpt lat="40.216570" lon="-5.813840">
        <ele>1166.249</ele>
        <time>2020-02-29T02:41:53Z</time>
      </trkpt>
      <trkpt lat="40.216610" lon="-5.813820">
        <ele>1166.662</ele>
        <time>2020-02-29T02:42:13Z</time>
      </trkpt>
      <trkpt lat="40.216800" lon="-5.813780">
        <ele>1168.117</ele>
        <time>2020-02-29T02:42:33Z</time>
      </trkpt>
      <trkpt lat="40.216840" lon="-5.813780">
        <ele>1168.488</ele>
        <time>2020-02-29T02:42:53Z</time>
      </trkpt>
      <trkpt lat="40.216980" lon="-5.813800">
        <ele>1169.841</ele>
        <time>2020-02-29T02:43:13Z</time>
      </trkpt>
      <trkpt lat="40.217170" lon="-5.813860">
        <ele>1172.070</ele>
        <time>2020-02-29T02:43:33Z</time>
      </trkpt>
      <trkpt lat="40.217340" lon="-5.813860">
        <ele>1174.021</ele>
        <time>2020-02-29T02:43:53Z</time>
      </trkpt>
      <trkpt lat="40.217470" lon="-5.813840">
        <ele>1175.878</ele>
        <time>2020-02-29T02:44:13Z</time>
      </trkpt>
      <trkpt lat="40.217620" lon="-5.813760">
        <ele>1176.465</ele>
        <time>2020-02-29T02:44:33Z</time>
      </trkpt>
      <trkpt lat="40.217710" lon="-5.813690">
        <ele>1176.468</ele>
        <time>2020-02-29T02:44:53Z</time>
      </trkpt>
      <trkpt lat="40.217810" lon="-5.813570">
        <ele>1176.014</ele>
        <time>2020-02-29T02:45:13Z</time>
      </trkpt>
      <trkpt lat="40.218090" lon="-5.813280">
        <ele>1177.908</ele>
        <time>2020-02-29T02:45:33Z</time>
      </trkpt>
      <trkpt lat="40.218200" lon="-5.813200">
        <ele>1178.940</ele>
        <time>2020-02-29T02:45:53Z</time>
      </trkpt>
      <trkpt lat="40.218390" lon="-5.813110">
        <ele>1181.263</ele>
        <time>2020-02-29T02:46:13Z</time>
      </trkpt>
      <trkpt lat="40.218500" lon="-5.813110">
        <ele>1182.578</ele>
        <time>2020-02-29T02:46:33Z</time>
      </trkpt>
      <trkpt lat="40.218610" lon="-5.813130">
        <ele>1184.179</ele>
        <time>2020-02-29T02:46:53Z</time>
      </trkpt>
      <trkpt lat="40.218640" lon="-5.813130">
        <ele>1184.192</ele>
        <time>2020-02-29T02:47:13Z</time>
      </trkpt>
      <trkpt lat="40.218780" lon="-5.813160">
        <ele>1184.791</ele>
        <time>2020-02-29T02:47:33Z</time>
      </trkpt>
      <trkpt lat="40.218870" lon="-5.813190">
        <ele>1185.412</ele>
        <time>2020-02-29T02:47:53Z</time>
      </trkpt>
      <trkpt lat="40.218980" lon="-5.813240">
        <ele>1186.129</ele>
        <time>2020-02-29T02:48:13Z</time>
      </trkpt>
      <trkpt lat="40.219060" lon="-5.813290">
        <ele>1186.798</ele>
        <time>2020-02-29T02:48:33Z</time>
      </trkpt>
      <trkpt lat="40.219190" lon="-5.813440">
        <ele>1188.515</ele>
        <time>2020-02-29T02:48:53Z</time>
      </trkpt>
      <trkpt lat="40.219570" lon="-5.814070">
        <ele>1196.626</ele>
        <time>2020-02-29T02:49:13Z</time>
      </trkpt>
      <trkpt lat="40.220080" lon="-5.814800">
        <ele>1201.608</ele>
        <time>2020-02-29T02:49:33Z</time>
      </trkpt>
      <trkpt lat="40.220150" lon="-5.814860">
        <ele>1202.383</ele>
        <time>2020-02-29T02:49:53Z</time>
      </trkpt>
      <trkpt lat="40.220150" lon="-5.814870">
        <ele>1202.436</ele>
        <time>2020-02-29T02:50:13Z</time>
      </trkpt>
      <trkpt lat="40.220220" lon="-5.814900">
        <ele>1202.821</ele>
        <time>2020-02-29T02:50:33Z</time>
      </trkpt>
      <trkpt lat="40.220250" lon="-5.814900">
        <ele>1202.982</ele>
        <time>2020-02-29T02:50:53Z</time>
      </trkpt>
      <trkpt lat="40.220290" lon="-5.814910">
        <ele>1203.245</ele>
        <time>2020-02-29T02:51:13Z</time>
      </trkpt>
      <trkpt lat="40.220380" lon="-5.814900">
        <ele>1204.824</ele>
        <time>2020-02-29T02:51:33Z</time>
      </trkpt>
      <trkpt lat="40.220410" lon="-5.814890">
        <ele>1205.255</ele>
        <time>2020-02-29T02:51:53Z</time>
      </trkpt>
      <trkpt lat="40.220490" lon="-5.814810">
        <ele>1205.882</ele>
        <time>2020-02-29T02:52:13Z</time>
      </trkpt>
      <trkpt lat="40.220610" lon="-5.814650">
        <ele>1207.064</ele>
        <time>2020-02-29T02:52:33Z</time>
      </trkpt>
      <trkpt lat="40.220750" lon="-5.814410">
        <ele>1207.606</ele>
        <time>2020-02-29T02:52:53Z</time>
      </trkpt>
      <trkpt lat="40.220790" lon="-5.814320">
        <ele>1207.616</ele>
        <time>2020-02-29T02:53:13Z</time>
      </trkpt>
      <trkpt lat="40.220870" lon="-5.814190">
        <ele>1209.108</ele>
        <time>2020-02-29T02:53:33Z</time>
      </trkpt>
      <trkpt lat="40.221020" lon="-5.814010">
        <ele>1211.740</ele>
        <time>2020-02-29T02:53:53Z</time>
      </trkpt>
      <trkpt lat="40.221100" lon="-5.813820">
        <ele>1209.543</ele>
        <time>2020-02-29T02:54:13Z</time>
      </trkpt>
      <trkpt lat="40.221200" lon="-5.813500">
        <ele>1213.878</ele>
        <time>2020-02-29T02:54:33Z</time>
      </trkpt>
      <trkpt lat="40.221200" lon="-5.813440">
        <ele>1213.889</ele>
        <time>2020-02-29T02:54:53Z</time>
      </trkpt>
      <trkpt lat="40.221220" lon="-5.813250">
        <ele>1214.292</ele>
        <time>2020-02-29T02:55:13Z</time>
      </trkpt>
      <trkpt lat="40.221410" lon="-5.812700">
        <ele>1216.691</ele>
        <time>2020-02-29T02:55:33Z</time>
      </trkpt>
      <trkpt lat="40.221450" lon="-5.812610">
        <ele>1216.572</ele>
        <time>2020-02-29T02:55:53Z</time>
      </trkpt>
      <trkpt lat="40.221480" lon="-5.812510">
        <ele>1216.149</ele>
        <time>2020-02-29T02:56:13Z</time>
      </trkpt>
      <trkpt lat="40.221540" lon="-5.812410">
        <ele>1217.336</ele>
        <time>2020-02-29T02:56:33Z</time>
      </trkpt>
      <trkpt lat="40.221540" lon="-5.812400">
        <ele>1217.317</ele>
        <time>2020-02-29T02:56:53Z</time>
      </trkpt>
      <trkpt lat="40.221570" lon="-5.812370">
        <ele>1217.918</ele>
        <time>2020-02-29T02:57:13Z</time>
      </trkpt>
      <trkpt lat="40.221620" lon="-5.812350">
        <ele>1219.008</ele>
        <time>2020-02-29T02:57:33Z</time>
      </trkpt>
      <trkpt lat="40.221660" lon="-5.812350">
        <ele>1219.987</ele>
        <time>2020-02-29T02:57:53Z</time>
      </trkpt>
      <trkpt lat="40.221690" lon="-5.812360">
        <ele>1220.490</ele>
        <time>2020-02-29T02:58:13Z</time>
      </trkpt>
      <trkpt lat="40.221700" lon="-5.812370">
        <ele>1220.655</ele>
        <time>2020-02-29T02:58:33Z</time>
      </trkpt>
      <trkpt lat="40.221730" lon="-5.812380">
        <ele>1221.256</ele>
        <time>2020-02-29T02:58:53Z</time>
      </trkpt>
      <trkpt lat="40.221770" lon="-5.812440">
        <ele>1222.389</ele>
        <time>2020-02-29T02:59:13Z</time>
      </trkpt>
      <trkpt lat="40.221770" lon="-5.812450">
        <ele>1222.318</ele>
        <time>2020-02-29T02:59:33Z</time>
      </trkpt>
      <trkpt lat="40.221790" lon="-5.812490">
        <ele>1223.059</ele>
        <time>2020-02-29T02:59:53Z</time>
      </trkpt>
      <trkpt lat="40.221800" lon="-5.812550">
        <ele>1224.016</ele>
        <time>2020-02-29T03:00:13Z</time>
      </trkpt>
      <trkpt lat="40.221790" lon="-5.812700">
        <ele>1225.677</ele>
        <time>2020-02-29T03:00:33Z</time>
      </trkpt>
      <trkpt lat="40.221770" lon="-5.812780">
        <ele>1226.061</ele>
        <time>2020-02-29T03:00:53Z</time>
      </trkpt>
      <trkpt lat="40.221770" lon="-5.812800">
        <ele>1226.327</ele>
        <time>2020-02-29T03:01:13Z</time>
      </trkpt>
      <trkpt lat="40.221200" lon="-5.814550">
        <ele>1230.208</ele>
        <time>2020-02-29T03:01:33Z</time>
      </trkpt>
      <trkpt lat="40.221000" lon="-5.815770">
        <ele>1234.471</ele>
        <time>2020-02-29T03:01:53Z</time>
      </trkpt>
      <trkpt lat="40.221000" lon="-5.815900">
        <ele>1235.044</ele>
        <time>2020-02-29T03:02:13Z</time>
      </trkpt>
      <trkpt lat="40.221060" lon="-5.816120">
        <ele>1237.539</ele>
        <time>2020-02-29T03:02:33Z</time>
      </trkpt>
      <trkpt lat="40.221400" lon="-5.816720">
        <ele>1241.740</ele>
        <time>2020-02-29T03:02:53Z</time>
      </trkpt>
      <trkpt lat="40.221490" lon="-5.816910">
        <ele>1241.953</ele>
        <time>2020-02-29T03:03:13Z</time>
      </trkpt>
      <trkpt lat="40.221550" lon="-5.817100">
        <ele>1242.212</ele>
        <time>2020-02-29T03:03:33Z</time>
      </trkpt>
      <trkpt lat="40.221560" lon="-5.817120">
        <ele>1242.373</ele>
        <time>2020-02-29T03:03:53Z</time>
      </trkpt>
      <trkpt lat="40.221640" lon="-5.817460">
        <ele>1241.710</ele>
        <time>2020-02-29T03:04:13Z</time>
      </trkpt>
      <trkpt lat="40.222070" lon="-5.818570">
        <ele>1252.019</ele>
        <time>2020-02-29T03:04:33Z</time>
      </trkpt>
      <trkpt lat="40.222230" lon="-5.818900">
        <ele>1254.309</ele>
        <time>2020-02-29T03:04:53Z</time>
      </trkpt>
      <trkpt lat="40.222500" lon="-5.819290">
        <ele>1260.819</ele>
        <time>2020-02-29T03:05:13Z</time>
      </trkpt>
      <trkpt lat="40.222520" lon="-5.819330">
        <ele>1260.508</ele>
        <time>2020-02-29T03:05:33Z</time>
      </trkpt>
      <trkpt lat="40.222730" lon="-5.819640">
        <ele>1260.795</ele>
        <time>2020-02-29T03:05:53Z</time>
      </trkpt>
      <trkpt lat="40.222860" lon="-5.819870">
        <ele>1262.448</ele>
        <time>2020-02-29T03:06:13Z</time>
      </trkpt>
      <trkpt lat="40.222980" lon="-5.820120">
        <ele>1264.023</ele>
        <time>2020-02-29T03:06:33Z</time>
      </trkpt>
      <trkpt lat="40.223040" lon="-5.820280">
        <ele>1264.664</ele>
        <time>2020-02-29T03:06:53Z</time>
      </trkpt>
      <trkpt lat="40.223050" lon="-5.820280">
        <ele>1264.867</ele>
        <time>2020-02-29T03:07:13Z</time>
      </trkpt>
      <trkpt lat="40.223180" lon="-5.820900">
        <ele>1268.976</ele>
        <time>2020-02-29T03:07:33Z</time>
      </trkpt>
      <trkpt lat="40.223200" lon="-5.820960">
        <ele>1269.357</ele>
        <time>2020-02-29T03:07:53Z</time>
      </trkpt>
      <trkpt lat="40.223250" lon="-5.821240">
        <ele>1269.544</ele>
        <time>2020-02-29T03:08:13Z</time>
      </trkpt>
      <trkpt lat="40.223410" lon="-5.821860">
        <ele>1273.893</ele>
        <time>2020-02-29T03:08:33Z</time>
      </trkpt>
      <trkpt lat="40.223420" lon="-5.821870">
        <ele>1274.165</ele>
        <time>2020-02-29T03:08:53Z</time>
      </trkpt>
      <trkpt lat="40.223460" lon="-5.822090">
        <ele>1275.721</ele>
        <time>2020-02-29T03:09:13Z</time>
      </trkpt>
      <trkpt lat="40.223480" lon="-5.822150">
        <ele>1276.508</ele>
        <time>2020-02-29T03:09:33Z</time>
      </trkpt>
      <trkpt lat="40.223500" lon="-5.822300">
        <ele>1278.173</ele>
        <time>2020-02-29T03:09:53Z</time>
      </trkpt>
      <trkpt lat="40.223500" lon="-5.822380">
        <ele>1279.046</ele>
        <time>2020-02-29T03:10:13Z</time>
      </trkpt>
      <trkpt lat="40.223410" lon="-5.822890">
        <ele>1281.861</ele>
        <time>2020-02-29T03:10:33Z</time>
      </trkpt>
      <trkpt lat="40.223370" lon="-5.823330">
        <ele>1283.842</ele>
        <time>2020-02-29T03:10:53Z</time>
      </trkpt>
      <trkpt lat="40.223390" lon="-5.823680">
        <ele>1285.225</ele>
        <time>2020-02-29T03:11:13Z</time>
      </trkpt>
      <trkpt lat="40.223400" lon="-5.823710">
        <ele>1285.594</ele>
        <time>2020-02-29T03:11:33Z</time>
      </trkpt>
      <trkpt lat="40.223410" lon="-5.823780">
        <ele>1285.775</ele>
        <time>2020-02-29T03:11:53Z</time>
      </trkpt>
      <trkpt lat="40.223450" lon="-5.823940">
        <ele>1287.082</ele>
        <time>2020-02-29T03:12:13Z</time>
      </trkpt>
      <trkpt lat="40.223470" lon="-5.823990">
        <ele>1287.789</ele>
        <time>2020-02-29T03:12:33Z</time>
      </trkpt>
      <trkpt lat="40.223510" lon="-5.824140">
        <ele>1289.106</ele>
        <time>2020-02-29T03:12:53Z</time>
      </trkpt>
      <trkpt lat="40.223530" lon="-5.824310">
        <ele>1290.826</ele>
        <time>2020-02-29T03:13:13Z</time>
      </trkpt>
      <trkpt lat="40.223530" lon="-5.824510">
        <ele>1292.408</ele>
        <time>2020-02-29T03:13:33Z</time>
      </trkpt>
      <trkpt lat="40.223420" lon="-5.825070">
        <ele>1294.762</ele>
        <time>2020-02-29T03:13:53Z</time>
      </trkpt>
      <trkpt lat="40.223280" lon="-5.826380">
        <ele>1301.465</ele>
        <time>2020-02-29T03:14:13Z</time>
      </trkpt>
      <trkpt lat="40.223280" lon="-5.826470">
        <ele>1301.080</ele>
        <time>2020-02-29T03:14:33Z</time>
      </trkpt>
      <trkpt lat="40.223340" lon="-5.826700">
        <ele>1302.181</ele>
        <time>2020-02-29T03:14:53Z</time>
      </trkpt>
      <trkpt lat="40.223350" lon="-5.826710">
        <ele>1302.364</ele>
        <time>2020-02-29T03:15:13Z</time>
      </trkpt>
      <trkpt lat="40.223390" lon="-5.826820">
        <ele>1302.953</ele>
        <time>2020-02-29T03:15:33Z</time>
      </trkpt>
      <trkpt lat="40.223430" lon="-5.826890">
        <ele>1303.434</ele>
        <time>2020-02-29T03:15:53Z</time>
      </trkpt>
      <trkpt lat="40.223680" lon="-5.827190">
        <ele>1307.221</ele>
        <time>2020-02-29T03:16:13Z</time>
      </trkpt>
      <trkpt lat="40.223690" lon="-5.827230">
        <ele>1307.293</ele>
        <time>2020-02-29T03:16:33Z</time>
      </trkpt>
      <trkpt lat="40.223700" lon="-5.827240">
        <ele>1307.465</ele>
        <time>2020-02-29T03:16:53Z</time>
      </trkpt>
      <trkpt lat="40.223840" lon="-5.827760">
        <ele>1309.821</ele>
        <time>2020-02-29T03:17:13Z</time>
      </trkpt>
      <trkpt lat="40.223980" lon="-5.828090">
        <ele>1312.708</ele>
        <time>2020-02-29T03:17:33Z</time>
      </trkpt>
      <trkpt lat="40.224020" lon="-5.828230">
        <ele>1314.133</ele>
        <time>2020-02-29T03:17:53Z</time>
      </trkpt>
      <trkpt lat="40.224030" lon="-5.828300">
        <ele>1314.536</ele>
        <time>2020-02-29T03:18:13Z</time>
      </trkpt>
      <trkpt lat="40.224030" lon="-5.828370">
        <ele>1315.121</ele>
        <time>2020-02-29T03:18:33Z</time>
      </trkpt>
      <trkpt lat="40.224020" lon="-5.828450">
        <ele>1315.992</ele>
        <time>2020-02-29T03:18:53Z</time>
      </trkpt>
      <trkpt lat="40.223840" lon="-5.829200">
        <ele>1318.735</ele>
        <time>2020-02-29T03:19:13Z</time>
      </trkpt>
      <trkpt lat="40.223840" lon="-5.829220">
        <ele>1319.134</ele>
        <time>2020-02-29T03:19:33Z</time>
      </trkpt>
      <trkpt lat="40.223710" lon="-5.829950">
        <ele>1323.725</ele>
        <time>2020-02-29T03:19:53Z</time>
      </trkpt>
      <trkpt lat="40.223670" lon="-5.830270">
        <ele>1325.922</ele>
        <time>2020-02-29T03:20:13Z</time>
      </trkpt>
      <trkpt lat="40.223650" lon="-5.830680">
        <ele>1329.187</ele>
        <time>2020-02-29T03:20:33Z</time>
      </trkpt>
      <trkpt lat="40.223660" lon="-5.830920">
        <ele>1332.142</ele>
        <time>2020-02-29T03:20:53Z</time>
      </trkpt>
      <trkpt lat="40.223650" lon="-5.831060">
        <ele>1333.726</ele>
        <time>2020-02-29T03:21:13Z</time>
      </trkpt>
      <trkpt lat="40.223640" lon="-5.831080">
        <ele>1333.608</ele>
        <time>2020-02-29T03:21:33Z</time>
      </trkpt>
      <trkpt lat="40.223620" lon="-5.831190">
        <ele>1334.582</ele>
        <time>2020-02-29T03:21:53Z</time>
      </trkpt>
      <trkpt lat="40.223100" lon="-5.832820">
        <ele>1342.615</ele>
        <time>2020-02-29T03:22:13Z</time>
      </trkpt>
      <trkpt lat="40.222810" lon="-5.833420">
        <ele>1344.060</ele>
        <time>2020-02-29T03:22:33Z</time>
      </trkpt>
      <trkpt lat="40.222800" lon="-5.833430">
        <ele>1343.881</ele>
        <time>2020-02-29T03:22:53Z</time>
      </trkpt>
      <trkpt lat="40.222720" lon="-5.833620">
        <ele>1345.194</ele>
        <time>2020-02-29T03:23:13Z</time>
      </trkpt>
      <trkpt lat="40.222720" lon="-5.833640">
        <ele>1345.243</ele>
        <time>2020-02-29T03:23:33Z</time>
      </trkpt>
      <trkpt lat="40.222700" lon="-5.833730">
        <ele>1346.054</ele>
        <time>2020-02-29T03:23:53Z</time>
      </trkpt>
      <trkpt lat="40.222700" lon="-5.833920">
        <ele>1347.531</ele>
        <time>2020-02-29T03:24:13Z</time>
      </trkpt>
      <trkpt lat="40.222720" lon="-5.834030">
        <ele>1348.444</ele>
        <time>2020-02-29T03:24:33Z</time>
      </trkpt>
      <trkpt lat="40.222760" lon="-5.834120">
        <ele>1349.405</ele>
        <time>2020-02-29T03:24:53Z</time>
      </trkpt>
      <trkpt lat="40.222910" lon="-5.834280">
        <ele>1350.115</ele>
        <time>2020-02-29T03:25:13Z</time>
      </trkpt>
      <trkpt lat="40.224280" lon="-5.835120">
        <ele>1358.408</ele>
        <time>2020-02-29T03:25:33Z</time>
      </trkpt>
      <trkpt lat="40.224500" lon="-5.835230">
        <ele>1361.968</ele>
        <time>2020-02-29T03:25:53Z</time>
      </trkpt>
      <trkpt lat="40.224880" lon="-5.835340">
        <ele>1362.931</ele>
        <time>2020-02-29T03:26:13Z</time>
      </trkpt>
      <trkpt lat="40.225020" lon="-5.835340">
        <ele>1363.416</ele>
        <time>2020-02-29T03:26:33Z</time>
      </trkpt>
      <trkpt lat="40.225030" lon="-5.835350">
        <ele>1363.267</ele>
        <time>2020-02-29T03:26:53Z</time>
      </trkpt>
      <trkpt lat="40.225250" lon="-5.835360">
        <ele>1362.790</ele>
        <time>2020-02-29T03:27:13Z</time>
      </trkpt>
      <trkpt lat="40.225430" lon="-5.835320">
        <ele>1363.169</ele>
        <time>2020-02-29T03:27:33Z</time>
      </trkpt>
      <trkpt lat="40.225610" lon="-5.835260">
        <ele>1364.140</ele>
        <time>2020-02-29T03:27:53Z</time>
      </trkpt>
      <trkpt lat="40.225740" lon="-5.835200">
        <ele>1365.567</ele>
        <time>2020-02-29T03:28:13Z</time>
      </trkpt>
      <trkpt lat="40.225900" lon="-5.835110">
        <ele>1368.117</ele>
        <time>2020-02-29T03:28:33Z</time>
      </trkpt>
      <trkpt lat="40.225930" lon="-5.835100">
        <ele>1368.287</ele>
        <time>2020-02-29T03:28:53Z</time>
      </trkpt>
      <trkpt lat="40.226400" lon="-5.834830">
        <ele>1373.715</ele>
        <time>2020-02-29T03:29:13Z</time>
      </trkpt>
      <trkpt lat="40.226410" lon="-5.834830">
        <ele>1373.608</ele>
        <time>2020-02-29T03:29:33Z</time>
      </trkpt>
      <trkpt lat="40.226510" lon="-5.834780">
        <ele>1375.125</ele>
        <time>2020-02-29T03:29:53Z</time>
      </trkpt>
      <trkpt lat="40.227960" lon="-5.834520">
        <ele>1384.098</ele>
        <time>2020-02-29T03:30:13Z</time>
      </trkpt>
      <trkpt lat="40.228000" lon="-5.834520">
        <ele>1384.483</ele>
        <time>2020-02-29T03:30:33Z</time>
      </trkpt>
      <trkpt lat="40.228050" lon="-5.834510">
        <ele>1385.174</ele>
        <time>2020-02-29T03:30:53Z</time>
      </trkpt>
      <trkpt lat="40.228100" lon="-5.834510">
        <ele>1386.557</ele>
        <time>2020-02-29T03:31:13Z</time>
      </trkpt>
      <trkpt lat="40.228180" lon="-5.834550">
        <ele>1388.146</ele>
        <time>2020-02-29T03:31:33Z</time>
      </trkpt>
      <trkpt lat="40.228220" lon="-5.834580">
        <ele>1389.077</ele>
        <time>2020-02-29T03:31:53Z</time>
      </trkpt>
      <trkpt lat="40.228270" lon="-5.834640">
        <ele>1390.034</ele>
        <time>2020-02-29T03:32:13Z</time>
      </trkpt>
      <trkpt lat="40.228300" lon="-5.834710">
        <ele>1390.619</ele>
        <time>2020-02-29T03:32:33Z</time>
      </trkpt>
      <trkpt lat="40.228310" lon="-5.834720">
        <ele>1390.909</ele>
        <time>2020-02-29T03:32:53Z</time>
      </trkpt>
      <trkpt lat="40.228420" lon="-5.835020">
        <ele>1394.219</ele>
        <time>2020-02-29T03:33:13Z</time>
      </trkpt>
      <trkpt lat="40.228650" lon="-5.835530">
        <ele>1395.208</ele>
        <time>2020-02-29T03:33:33Z</time>
      </trkpt>
      <trkpt lat="40.228870" lon="-5.835900">
        <ele>1398.585</ele>
        <time>2020-02-29T03:33:53Z</time>
      </trkpt>
      <trkpt lat="40.228900" lon="-5.835990">
        <ele>1399.998</ele>
        <time>2020-02-29T03:34:13Z</time>
      </trkpt>
      <trkpt lat="40.228910" lon="-5.836190">
        <ele>1403.013</ele>
        <time>2020-02-29T03:34:33Z</time>
      </trkpt>
      <trkpt lat="40.228890" lon="-5.836280">
        <ele>1404.944</ele>
        <time>2020-02-29T03:34:53Z</time>
      </trkpt>
      <trkpt lat="40.228860" lon="-5.836350">
        <ele>1405.597</ele>
        <time>2020-02-29T03:35:13Z</time>
      </trkpt>
      <trkpt lat="40.228660" lon="-5.836570">
        <ele>1401.796</ele>
        <time>2020-02-29T03:35:33Z</time>
      </trkpt>
      <trkpt lat="40.228610" lon="-5.836650">
        <ele>1400.617</ele>
        <time>2020-02-29T03:35:53Z</time>
      </trkpt>
      <trkpt lat="40.228550" lon="-5.836890">
        <ele>1402.244</ele>
        <time>2020-02-29T03:36:13Z</time>
      </trkpt>
      <trkpt lat="40.228530" lon="-5.837140">
        <ele>1402.027</ele>
        <time>2020-02-29T03:36:33Z</time>
      </trkpt>
      <trkpt lat="40.228520" lon="-5.837190">
        <ele>1401.468</ele>
        <time>2020-02-29T03:36:53Z</time>
      </trkpt>
      <trkpt lat="40.228540" lon="-5.837370">
        <ele>1402.914</ele>
        <time>2020-02-29T03:37:13Z</time>
      </trkpt>
      <trkpt lat="40.228550" lon="-5.837390">
        <ele>1403.508</ele>
        <time>2020-02-29T03:37:33Z</time>
      </trkpt>
      <trkpt lat="40.228560" lon="-5.837680">
        <ele>1405.066</ele>
        <time>2020-02-29T03:37:53Z</time>
      </trkpt>
      <trkpt lat="40.228550" lon="-5.837840">
        <ele>1405.439</ele>
        <time>2020-02-29T03:38:13Z</time>
      </trkpt>
      <trkpt lat="40.228460" lon="-5.838540">
        <ele>1407.954</ele>
        <time>2020-02-29T03:38:33Z</time>
      </trkpt>
      <trkpt lat="40.228450" lon="-5.838560">
        <ele>1407.765</ele>
        <time>2020-02-29T03:38:53Z</time>
      </trkpt>
      <trkpt lat="40.228440" lon="-5.838660">
        <ele>1409.068</ele>
        <time>2020-02-29T03:39:13Z</time>
      </trkpt>
      <trkpt lat="40.228410" lon="-5.838730">
        <ele>1409.257</ele>
        <time>2020-02-29T03:39:33Z</time>
      </trkpt>
      <trkpt lat="40.228340" lon="-5.838810">
        <ele>1407.678</ele>
        <time>2020-02-29T03:39:53Z</time>
      </trkpt>
      <trkpt lat="40.228060" lon="-5.839010">
        <ele>1407.415</ele>
        <time>2020-02-29T03:40:13Z</time>
      </trkpt>
      <trkpt lat="40.227690" lon="-5.839170">
        <ele>1403.068</ele>
        <time>2020-02-29T03:40:33Z</time>
      </trkpt>
      <trkpt lat="40.227050" lon="-5.840140">
        <ele>1395.442</ele>
        <time>2020-02-29T03:40:53Z</time>
      </trkpt>
      <trkpt lat="40.226990" lon="-5.840270">
        <ele>1394.926</ele>
        <time>2020-02-29T03:41:13Z</time>
      </trkpt>
      <trkpt lat="40.226970" lon="-5.840330">
        <ele>1394.708</ele>
        <time>2020-02-29T03:41:33Z</time>
      </trkpt>
      <trkpt lat="40.226940" lon="-5.840390">
        <ele>1394.020</ele>
        <time>2020-02-29T03:41:53Z</time>
      </trkpt>
      <trkpt lat="40.226800" lon="-5.841280">
        <ele>1392.363</ele>
        <time>2020-02-29T03:42:13Z</time>
      </trkpt>
      <trkpt lat="40.226790" lon="-5.841450">
        <ele>1391.828</ele>
        <time>2020-02-29T03:42:33Z</time>
      </trkpt>
      <trkpt lat="40.226830" lon="-5.841890">
        <ele>1389.959</ele>
        <time>2020-02-29T03:42:53Z</time>
      </trkpt>
      <trkpt lat="40.226920" lon="-5.842490">
        <ele>1389.992</ele>
        <time>2020-02-29T03:43:13Z</time>
      </trkpt>
      <trkpt lat="40.227050" lon="-5.843170">
        <ele>1390.651</ele>
        <time>2020-02-29T03:43:33Z</time>
      </trkpt>
      <trkpt lat="40.227110" lon="-5.843390">
        <ele>1390.032</ele>
        <time>2020-02-29T03:43:53Z</time>
      </trkpt>
      <trkpt lat="40.227200" lon="-5.843600">
        <ele>1391.859</ele>
        <time>2020-02-29T03:44:13Z</time>
      </trkpt>
      <trkpt lat="40.227220" lon="-5.843670">
        <ele>1392.249</ele>
        <time>2020-02-29T03:44:33Z</time>
      </trkpt>
      <trkpt lat="40.227650" lon="-5.844400">
        <ele>1394.302</ele>
        <time>2020-02-29T03:44:53Z</time>
      </trkpt>
      <trkpt lat="40.227860" lon="-5.844710">
        <ele>1395.122</ele>
        <time>2020-02-29T03:45:13Z</time>
      </trkpt>
      <trkpt lat="40.228230" lon="-5.845150">
        <ele>1401.408</ele>
        <time>2020-02-29T03:45:33Z</time>
      </trkpt>
      <trkpt lat="40.228270" lon="-5.845240">
        <ele>1401.618</ele>
        <time>2020-02-29T03:45:53Z</time>
      </trkpt>
      <trkpt lat="40.228290" lon="-5.845310">
        <ele>1402.471</ele>
        <time>2020-02-29T03:46:13Z</time>
      </trkpt>
      <trkpt lat="40.228300" lon="-5.845420">
        <ele>1404.946</ele>
        <time>2020-02-29T03:46:33Z</time>
      </trkpt>
      <trkpt lat="40.228250" lon="-5.845550">
        <ele>1405.037</ele>
        <time>2020-02-29T03:46:53Z</time>
      </trkpt>
      <trkpt lat="40.228050" lon="-5.845810">
        <ele>1403.120</ele>
        <time>2020-02-29T03:47:13Z</time>
      </trkpt>
      <trkpt lat="40.227930" lon="-5.845930">
        <ele>1403.269</ele>
        <time>2020-02-29T03:47:33Z</time>
      </trkpt>
      <trkpt lat="40.227840" lon="-5.845980">
        <ele>1402.910</ele>
        <time>2020-02-29T03:47:53Z</time>
      </trkpt>
      <trkpt lat="40.227230" lon="-5.846170">
        <ele>1397.737</ele>
        <time>2020-02-29T03:48:13Z</time>
      </trkpt>
      <trkpt lat="40.227120" lon="-5.846230">
        <ele>1396.132</ele>
        <time>2020-02-29T03:48:33Z</time>
      </trkpt>
      <trkpt lat="40.226630" lon="-5.846750">
        <ele>1388.992</ele>
        <time>2020-02-29T03:48:53Z</time>
      </trkpt>
      <trkpt lat="40.226560" lon="-5.846850">
        <ele>1386.911</ele>
        <time>2020-02-29T03:49:13Z</time>
      </trkpt>
      <trkpt lat="40.226500" lon="-5.846970">
        <ele>1385.308</ele>
        <time>2020-02-29T03:49:33Z</time>
      </trkpt>
      <trkpt lat="40.226490" lon="-5.847110">
        <ele>1385.617</ele>
        <time>2020-02-29T03:49:53Z</time>
      </trkpt>
      <trkpt lat="40.226530" lon="-5.847930">
        <ele>1384.420</ele>
        <time>2020-02-29T03:50:13Z</time>
      </trkpt>
      <trkpt lat="40.226520" lon="-5.848030">
        <ele>1384.695</ele>
        <time>2020-02-29T03:50:33Z</time>
      </trkpt>
      <trkpt lat="40.226510" lon="-5.848050">
        <ele>1384.596</ele>
        <time>2020-02-29T03:50:53Z</time>
      </trkpt>
      <trkpt lat="40.226500" lon="-5.848110">
        <ele>1385.289</ele>
        <time>2020-02-29T03:51:13Z</time>
      </trkpt>
      <trkpt lat="40.226430" lon="-5.848210">
        <ele>1386.148</ele>
        <time>2020-02-29T03:51:33Z</time>
      </trkpt>
      <trkpt lat="40.226360" lon="-5.848270">
        <ele>1387.489</ele>
        <time>2020-02-29T03:51:53Z</time>
      </trkpt>
      <trkpt lat="40.226300" lon="-5.848300">
        <ele>1388.666</ele>
        <time>2020-02-29T03:52:13Z</time>
      </trkpt>
      <trkpt lat="40.225800" lon="-5.848320">
        <ele>1391.217</ele>
        <time>2020-02-29T03:52:33Z</time>
      </trkpt>
      <trkpt lat="40.225720" lon="-5.848290">
        <ele>1391.687</ele>
        <time>2020-02-29T03:52:53Z</time>
      </trkpt>
      <trkpt lat="40.225710" lon="-5.848280">
        <ele>1391.515</ele>
        <time>2020-02-29T03:53:13Z</time>
      </trkpt>
      <trkpt lat="40.225660" lon="-5.848250">
        <ele>1391.408</ele>
        <time>2020-02-29T03:53:33Z</time>
      </trkpt>
      <trkpt lat="40.225220" lon="-5.847820">
        <ele>1386.975</ele>
        <time>2020-02-29T03:53:53Z</time>
      </trkpt>
      <trkpt lat="40.224480" lon="-5.847340">
        <ele>1383.118</ele>
        <time>2020-02-29T03:54:13Z</time>
      </trkpt>
      <trkpt lat="40.224470" lon="-5.847340">
        <ele>1383.433</ele>
        <time>2020-02-29T03:54:33Z</time>
      </trkpt>
      <trkpt lat="40.224380" lon="-5.847290">
        <ele>1383.344</ele>
        <time>2020-02-29T03:54:53Z</time>
      </trkpt>
      <trkpt lat="40.224280" lon="-5.847200">
        <ele>1382.477</ele>
        <time>2020-02-29T03:55:13Z</time>
      </trkpt>
      <trkpt lat="40.223560" lon="-5.846410">
        <ele>1375.346</ele>
        <time>2020-02-29T03:55:33Z</time>
      </trkpt>
      <trkpt lat="40.223450" lon="-5.846310">
        <ele>1374.457</ele>
        <time>2020-02-29T03:55:53Z</time>
      </trkpt>
      <trkpt lat="40.223350" lon="-5.846240">
        <ele>1374.534</ele>
        <time>2020-02-29T03:56:13Z</time>
      </trkpt>
      <trkpt lat="40.223310" lon="-5.846230">
        <ele>1374.897</ele>
        <time>2020-02-29T03:56:33Z</time>
      </trkpt>
      <trkpt lat="40.222970" lon="-5.846100">
        <ele>1375.023</ele>
        <time>2020-02-29T03:56:53Z</time>
      </trkpt>
      <trkpt lat="40.222790" lon="-5.846060">
        <ele>1374.325</ele>
        <time>2020-02-29T03:57:13Z</time>
      </trkpt>
      <trkpt lat="40.222740" lon="-5.846040">
        <ele>1373.608</ele>
        <time>2020-02-29T03:57:33Z</time>
      </trkpt>
      <trkpt lat="40.222610" lon="-5.846030">
        <ele>1372.823</ele>
        <time>2020-02-29T03:57:53Z</time>
      </trkpt>
      <trkpt lat="40.222560" lon="-5.846020">
        <ele>1372.366</ele>
        <time>2020-02-29T03:58:13Z</time>
      </trkpt>
      <trkpt lat="40.222460" lon="-5.846050">
        <ele>1372.211</ele>
        <time>2020-02-29T03:58:33Z</time>
      </trkpt>
      <trkpt lat="40.222320" lon="-5.846110">
        <ele>1371.122</ele>
        <time>2020-02-29T03:58:53Z</time>
      </trkpt>
      <trkpt lat="40.222230" lon="-5.846180">
        <ele>1371.225</ele>
        <time>2020-02-29T03:59:13Z</time>
      </trkpt>
      <trkpt lat="40.222090" lon="-5.846330">
        <ele>1370.254</ele>
        <time>2020-02-29T03:59:33Z</time>
      </trkpt>
      <trkpt lat="40.221800" lon="-5.846780">
        <ele>1372.175</ele>
        <time>2020-02-29T03:59:53Z</time>
      </trkpt>
      <trkpt lat="40.221710" lon="-5.846900">
        <ele>1371.122</ele>
        <time>2020-02-29T04:00:13Z</time>
      </trkpt>
      <trkpt lat="40.221640" lon="-5.846970">
        <ele>1370.786</ele>
        <time>2020-02-29T04:00:33Z</time>
      </trkpt>
      <trkpt lat="40.221640" lon="-5.846980">
        <ele>1371.260</ele>
        <time>2020-02-29T04:00:53Z</time>
      </trkpt>
      <trkpt lat="40.221030" lon="-5.847470">
        <ele>1371.526</ele>
        <time>2020-02-29T04:01:13Z</time>
      </trkpt>
      <trkpt lat="40.220890" lon="-5.847560">
        <ele>1373.008</ele>
        <time>2020-02-29T04:01:33Z</time>
      </trkpt>
      <trkpt lat="40.220810" lon="-5.847580">
        <ele>1372.332</ele>
        <time>2020-02-29T04:01:53Z</time>
      </trkpt>
      <trkpt lat="40.220500" lon="-5.847620">
        <ele>1367.525</ele>
        <time>2020-02-29T04:02:13Z</time>
      </trkpt>
      <trkpt lat="40.220400" lon="-5.847660">
        <ele>1366.610</ele>
        <time>2020-02-29T04:02:33Z</time>
      </trkpt>
      <trkpt lat="40.220340" lon="-5.847710">
        <ele>1366.431</ele>
        <time>2020-02-29T04:02:53Z</time>
      </trkpt>
      <trkpt lat="40.220180" lon="-5.847890">
        <ele>1365.544</ele>
        <time>2020-02-29T04:03:13Z</time>
      </trkpt>
      <trkpt lat="40.220030" lon="-5.848100">
        <ele>1363.593</ele>
        <time>2020-02-29T04:03:33Z</time>
      </trkpt>
      <trkpt lat="40.219980" lon="-5.848230">
        <ele>1363.174</ele>
        <time>2020-02-29T04:03:53Z</time>
      </trkpt>
      <trkpt lat="40.219940" lon="-5.848430">
        <ele>1362.471</ele>
        <time>2020-02-29T04:04:13Z</time>
      </trkpt>
      <trkpt lat="40.219940" lon="-5.848640">
        <ele>1362.499</ele>
        <time>2020-02-29T04:04:33Z</time>
      </trkpt>
      <trkpt lat="40.219950" lon="-5.848690">
        <ele>1362.807</ele>
        <time>2020-02-29T04:04:53Z</time>
      </trkpt>
      <trkpt lat="40.219990" lon="-5.849160">
        <ele>1364.527</ele>
        <time>2020-02-29T04:05:13Z</time>
      </trkpt>
      <trkpt lat="40.220330" lon="-5.850680">
        <ele>1371.008</ele>
        <time>2020-02-29T04:05:33Z</time>
      </trkpt>
      <trkpt lat="40.220480" lon="-5.851180">
        <ele>1372.523</ele>
        <time>2020-02-29T04:05:53Z</time>
      </trkpt>
      <trkpt lat="40.220480" lon="-5.851190">
        <ele>1372.326</ele>
        <time>2020-02-29T04:06:13Z</time>
      </trkpt>
      <trkpt lat="40.220630" lon="-5.851530">
        <ele>1375.041</ele>
        <time>2020-02-29T04:06:33Z</time>
      </trkpt>
      <trkpt lat="40.220730" lon="-5.851680">
        <ele>1375.992</ele>
        <time>2020-02-29T04:06:53Z</time>
      </trkpt>
      <trkpt lat="40.220830" lon="-5.851800">
        <ele>1376.515</ele>
        <time>2020-02-29T04:07:13Z</time>
      </trkpt>
      <trkpt lat="40.220920" lon="-5.851880">
        <ele>1377.924</ele>
        <time>2020-02-29T04:07:33Z</time>
      </trkpt>
      <trkpt lat="40.221170" lon="-5.852160">
        <ele>1382.425</ele>
        <time>2020-02-29T04:07:53Z</time>
      </trkpt>
      <trkpt lat="40.221190" lon="-5.852210">
        <ele>1382.192</ele>
        <time>2020-02-29T04:08:13Z</time>
      </trkpt>
      <trkpt lat="40.221300" lon="-5.852400">
        <ele>1382.768</ele>
        <time>2020-02-29T04:08:33Z</time>
      </trkpt>
      <trkpt lat="40.221320" lon="-5.852420">
        <ele>1383.342</ele>
        <time>2020-02-29T04:08:53Z</time>
      </trkpt>
      <trkpt lat="40.221550" lon="-5.853020">
        <ele>1385.626</ele>
        <time>2020-02-29T04:09:13Z</time>
      </trkpt>
      <trkpt lat="40.221560" lon="-5.853060">
        <ele>1385.408</ele>
        <time>2020-02-29T04:09:33Z</time>
      </trkpt>
      <trkpt lat="40.221740" lon="-5.853530">
        <ele>1387.640</ele>
        <time>2020-02-29T04:09:53Z</time>
      </trkpt>
      <trkpt lat="40.221750" lon="-5.853720">
        <ele>1390.753</ele>
        <time>2020-02-29T04:10:13Z</time>
      </trkpt>
      <trkpt lat="40.221740" lon="-5.853800">
        <ele>1392.498</ele>
        <time>2020-02-29T04:10:33Z</time>
      </trkpt>
      <trkpt lat="40.221720" lon="-5.853870">
        <ele>1393.499</ele>
        <time>2020-02-29T04:10:53Z</time>
      </trkpt>
      <trkpt lat="40.221680" lon="-5.853930">
        <ele>1393.772</ele>
        <time>2020-02-29T04:11:13Z</time>
      </trkpt>
      <trkpt lat="40.221580" lon="-5.854030">
        <ele>1392.951</ele>
        <time>2020-02-29T04:11:33Z</time>
      </trkpt>
      <trkpt lat="40.221570" lon="-5.854050">
        <ele>1393.232</ele>
        <time>2020-02-29T04:11:53Z</time>
      </trkpt>
      <trkpt lat="40.221410" lon="-5.854220">
        <ele>1392.779</ele>
        <time>2020-02-29T04:12:13Z</time>
      </trkpt>
      <trkpt lat="40.221320" lon="-5.854390">
        <ele>1391.512</ele>
        <time>2020-02-29T04:12:33Z</time>
      </trkpt>
      <trkpt lat="40.221240" lon="-5.854940">
        <ele>1391.432</ele>
        <time>2020-02-29T04:12:53Z</time>
      </trkpt>
      <trkpt lat="40.221250" lon="-5.855250">
        <ele>1390.705</ele>
        <time>2020-02-29T04:13:13Z</time>
      </trkpt>
      <trkpt lat="40.221270" lon="-5.855400">
        <ele>1390.808</ele>
        <time>2020-02-29T04:13:33Z</time>
      </trkpt>
      <trkpt lat="40.221500" lon="-5.856200">
        <ele>1394.265</ele>
        <time>2020-02-29T04:13:53Z</time>
      </trkpt>
      <trkpt lat="40.221560" lon="-5.856460">
        <ele>1395.468</ele>
        <time>2020-02-29T04:14:13Z</time>
      </trkpt>
      <trkpt lat="40.221580" lon="-5.856900">
        <ele>1397.343</ele>
        <time>2020-02-29T04:14:33Z</time>
      </trkpt>
      <trkpt lat="40.221530" lon="-5.857360">
        <ele>1400.814</ele>
        <time>2020-02-29T04:14:53Z</time>
      </trkpt>
      <trkpt lat="40.221520" lon="-5.857390">
        <ele>1400.417</ele>
        <time>2020-02-29T04:15:13Z</time>
      </trkpt>
      <trkpt lat="40.221540" lon="-5.857600">
        <ele>1399.376</ele>
        <time>2020-02-29T04:15:33Z</time>
      </trkpt>
      <trkpt lat="40.222090" lon="-5.858960">
        <ele>1409.757</ele>
        <time>2020-02-29T04:15:53Z</time>
      </trkpt>
      <trkpt lat="40.222140" lon="-5.859130">
        <ele>1410.994</ele>
        <time>2020-02-29T04:16:13Z</time>
      </trkpt>
      <trkpt lat="40.222160" lon="-5.859250">
        <ele>1411.539</ele>
        <time>2020-02-29T04:16:33Z</time>
      </trkpt>
      <trkpt lat="40.222150" lon="-5.859360">
        <ele>1411.001</ele>
        <time>2020-02-29T04:16:53Z</time>
      </trkpt>
      <trkpt lat="40.222040" lon="-5.859890">
        <ele>1412.421</ele>
        <time>2020-02-29T04:17:13Z</time>
      </trkpt>
      <trkpt lat="40.222030" lon="-5.859990">
        <ele>1412.408</ele>
        <time>2020-02-29T04:17:33Z</time>
      </trkpt>
      <trkpt lat="40.222030" lon="-5.860130">
        <ele>1412.137</ele>
        <time>2020-02-29T04:17:53Z</time>
      </trkpt>
      <trkpt lat="40.222130" lon="-5.860680">
        <ele>1413.870</ele>
        <time>2020-02-29T04:18:13Z</time>
      </trkpt>
      <trkpt lat="40.222150" lon="-5.860900">
        <ele>1413.125</ele>
        <time>2020-02-29T04:18:33Z</time>
      </trkpt>
      <trkpt lat="40.222170" lon="-5.861000">
        <ele>1413.456</ele>
        <time>2020-02-29T04:18:53Z</time>
      </trkpt>
      <trkpt lat="40.222160" lon="-5.861180">
        <ele>1411.689</ele>
        <time>2020-02-29T04:19:13Z</time>
      </trkpt>
      <trkpt lat="40.222190" lon="-5.861450">
        <ele>1411.148</ele>
        <time>2020-02-29T04:19:33Z</time>
      </trkpt>
      <trkpt lat="40.222240" lon="-5.861630">
        <ele>1412.639</ele>
        <time>2020-02-29T04:19:53Z</time>
      </trkpt>
      <trkpt lat="40.222350" lon="-5.861870">
        <ele>1417.976</ele>
        <time>2020-02-29T04:20:13Z</time>
      </trkpt>
      <trkpt lat="40.222420" lon="-5.861970">
        <ele>1419.683</ele>
        <time>2020-02-29T04:20:33Z</time>
      </trkpt>
      <trkpt lat="40.222610" lon="-5.862170">
        <ele>1419.625</ele>
        <time>2020-02-29T04:20:53Z</time>
      </trkpt>
      <trkpt lat="40.222700" lon="-5.862250">
        <ele>1420.917</ele>
        <time>2020-02-29T04:21:13Z</time>
      </trkpt>
      <trkpt lat="40.222840" lon="-5.862430">
        <ele>1423.508</ele>
        <time>2020-02-29T04:21:33Z</time>
      </trkpt>
      <trkpt lat="40.222930" lon="-5.862580">
        <ele>1423.452</ele>
        <time>2020-02-29T04:21:53Z</time>
      </trkpt>
      <trkpt lat="40.223070" lon="-5.863060">
        <ele>1423.015</ele>
        <time>2020-02-29T04:22:13Z</time>
      </trkpt>
      <trkpt lat="40.223070" lon="-5.863070">
        <ele>1422.940</ele>
        <time>2020-02-29T04:22:33Z</time>
      </trkpt>
      <trkpt lat="40.223100" lon="-5.863170">
        <ele>1424.611</ele>
        <time>2020-02-29T04:22:53Z</time>
      </trkpt>
      <trkpt lat="40.223110" lon="-5.863280">
        <ele>1424.964</ele>
        <time>2020-02-29T04:23:13Z</time>
      </trkpt>
      <trkpt lat="40.223120" lon="-5.863310">
        <ele>1425.543</ele>
        <time>2020-02-29T04:23:33Z</time>
      </trkpt>
      <trkpt lat="40.223110" lon="-5.863450">
        <ele>1426.084</ele>
        <time>2020-02-29T04:23:53Z</time>
      </trkpt>
      <trkpt lat="40.223020" lon="-5.863970">
        <ele>1425.271</ele>
        <time>2020-02-29T04:24:13Z</time>
      </trkpt>
      <trkpt lat="40.223010" lon="-5.863990">
        <ele>1425.074</ele>
        <time>2020-02-29T04:24:33Z</time>
      </trkpt>
      <trkpt lat="40.222950" lon="-5.864380">
        <ele>1426.856</ele>
        <time>2020-02-29T04:24:53Z</time>
      </trkpt>
      <trkpt lat="40.222900" lon="-5.864610">
        <ele>1429.121</ele>
        <time>2020-02-29T04:25:13Z</time>
      </trkpt>
      <trkpt lat="40.222880" lon="-5.864670">
        <ele>1429.808</ele>
        <time>2020-02-29T04:25:33Z</time>
      </trkpt>
      <trkpt lat="40.222810" lon="-5.864790">
        <ele>1430.731</ele>
        <time>2020-02-29T04:25:53Z</time>
      </trkpt>
      <trkpt lat="40.222520" lon="-5.865140">
        <ele>1429.584</ele>
        <time>2020-02-29T04:26:13Z</time>
      </trkpt>
      <trkpt lat="40.222400" lon="-5.865320">
        <ele>1427.249</ele>
        <time>2020-02-29T04:26:33Z</time>
      </trkpt>
      <trkpt lat="40.222340" lon="-5.865430">
        <ele>1426.080</ele>
        <time>2020-02-29T04:26:53Z</time>
      </trkpt>
      <trkpt lat="40.221990" lon="-5.866890">
        <ele>1423.083</ele>
        <time>2020-02-29T04:27:13Z</time>
      </trkpt>
      <trkpt lat="40.221870" lon="-5.867760">
        <ele>1423.182</ele>
        <time>2020-02-29T04:27:33Z</time>
      </trkpt>
      <trkpt lat="40.221860" lon="-5.868960">
        <ele>1425.823</ele>
        <time>2020-02-29T04:27:53Z</time>
      </trkpt>
      <trkpt lat="40.221920" lon="-5.869360">
        <ele>1426.740</ele>
        <time>2020-02-29T04:28:13Z</time>
      </trkpt>
      <trkpt lat="40.222290" lon="-5.870270">
        <ele>1431.861</ele>
        <time>2020-02-29T04:28:33Z</time>
      </trkpt>
      <trkpt lat="40.222370" lon="-5.870530">
        <ele>1430.121</ele>
        <time>2020-02-29T04:28:53Z</time>
      </trkpt>
      <trkpt lat="40.222370" lon="-5.870610">
        <ele>1430.513</ele>
        <time>2020-02-29T04:29:13Z</time>
      </trkpt>
      <trkpt lat="40.222340" lon="-5.870780">
        <ele>1432.208</ele>
        <time>2020-02-29T04:29:33Z</time>
      </trkpt>
      <trkpt lat="40.222300" lon="-5.870860">
        <ele>1432.660</ele>
        <time>2020-02-29T04:29:53Z</time>
      </trkpt>
      <trkpt lat="40.222160" lon="-5.871040">
        <ele>1433.973</ele>
        <time>2020-02-29T04:30:13Z</time>
      </trkpt>
      <trkpt lat="40.221930" lon="-5.871290">
        <ele>1431.098</ele>
        <time>2020-02-29T04:30:33Z</time>
      </trkpt>
      <trkpt lat="40.221890" lon="-5.871360">
        <ele>1431.029</ele>
        <time>2020-02-29T04:30:53Z</time>
      </trkpt>
      <trkpt lat="40.221840" lon="-5.871490">
        <ele>1430.942</ele>
        <time>2020-02-29T04:31:13Z</time>
      </trkpt>
      <trkpt lat="40.221850" lon="-5.871760">
        <ele>1430.731</ele>
        <time>2020-02-29T04:31:33Z</time>
      </trkpt>
      <trkpt lat="40.221890" lon="-5.871880">
        <ele>1430.462</ele>
        <time>2020-02-29T04:31:53Z</time>
      </trkpt>
      <trkpt lat="40.221930" lon="-5.871940">
        <ele>1430.169</ele>
        <time>2020-02-29T04:32:13Z</time>
      </trkpt>
      <trkpt lat="40.221960" lon="-5.871970">
        <ele>1429.978</ele>
        <time>2020-02-29T04:32:33Z</time>
      </trkpt>
      <trkpt lat="40.222030" lon="-5.872020">
        <ele>1429.633</ele>
        <time>2020-02-29T04:32:53Z</time>
      </trkpt>
      <trkpt lat="40.222560" lon="-5.872200">
        <ele>1429.126</ele>
        <time>2020-02-29T04:33:13Z</time>
      </trkpt>
      <trkpt lat="40.223200" lon="-5.872610">
        <ele>1426.908</ele>
        <time>2020-02-29T04:33:33Z</time>
      </trkpt>
      <trkpt lat="40.223260" lon="-5.872660">
        <ele>1426.331</ele>
        <time>2020-02-29T04:33:53Z</time>
      </trkpt>
      <trkpt lat="40.224220" lon="-5.873250">
        <ele>1423.184</ele>
        <time>2020-02-29T04:34:13Z</time>
      </trkpt>
      <trkpt lat="40.224350" lon="-5.873390">
        <ele>1421.339</ele>
        <time>2020-02-29T04:34:33Z</time>
      </trkpt>
      <trkpt lat="40.224450" lon="-5.873540">
        <ele>1419.380</ele>
        <time>2020-02-29T04:34:53Z</time>
      </trkpt>
      <trkpt lat="40.224940" lon="-5.874510">
        <ele>1411.133</ele>
        <time>2020-02-29T04:35:13Z</time>
      </trkpt>
      <trkpt lat="40.224940" lon="-5.874520">
        <ele>1410.752</ele>
        <time>2020-02-29T04:35:33Z</time>
      </trkpt>
      <trkpt lat="40.225070" lon="-5.874720">
        <ele>1409.813</ele>
        <time>2020-02-29T04:35:53Z</time>
      </trkpt>
      <trkpt lat="40.225250" lon="-5.874940">
        <ele>1409.160</ele>
        <time>2020-02-29T04:36:13Z</time>
      </trkpt>
      <trkpt lat="40.225450" lon="-5.875110">
        <ele>1405.579</ele>
        <time>2020-02-29T04:36:33Z</time>
      </trkpt>
      <trkpt lat="40.225480" lon="-5.875120">
        <ele>1405.505</ele>
        <time>2020-02-29T04:36:53Z</time>
      </trkpt>
      <trkpt lat="40.225580" lon="-5.875180">
        <ele>1404.225</ele>
        <time>2020-02-29T04:37:13Z</time>
      </trkpt>
      <trkpt lat="40.225690" lon="-5.875220">
        <ele>1403.108</ele>
        <time>2020-02-29T04:37:33Z</time>
      </trkpt>
      <trkpt lat="40.225780" lon="-5.875240">
        <ele>1402.481</ele>
        <time>2020-02-29T04:37:53Z</time>
      </trkpt>
      <trkpt lat="40.225820" lon="-5.875240">
        <ele>1402.554</ele>
        <time>2020-02-29T04:38:13Z</time>
      </trkpt>
      <trkpt lat="40.225940" lon="-5.875200">
        <ele>1400.919</ele>
        <time>2020-02-29T04:38:33Z</time>
      </trkpt>
      <trkpt lat="40.226020" lon="-5.875160">
        <ele>1400.590</ele>
        <time>2020-02-29T04:38:53Z</time>
      </trkpt>
      <trkpt lat="40.226230" lon="-5.874970">
        <ele>1401.983</ele>
        <time>2020-02-29T04:39:13Z</time>
      </trkpt>
      <trkpt lat="40.226510" lon="-5.874640">
        <ele>1399.732</ele>
        <time>2020-02-29T04:39:33Z</time>
      </trkpt>
      <trkpt lat="40.226560" lon="-5.874600">
        <ele>1398.223</ele>
        <time>2020-02-29T04:39:53Z</time>
      </trkpt>
      <trkpt lat="40.226610" lon="-5.874580">
        <ele>1396.230</ele>
        <time>2020-02-29T04:40:13Z</time>
      </trkpt>
      <trkpt lat="40.226710" lon="-5.874570">
        <ele>1394.086</ele>
        <time>2020-02-29T04:40:33Z</time>
      </trkpt>
      <trkpt lat="40.227280" lon="-5.874660">
        <ele>1396.660</ele>
        <time>2020-02-29T04:40:53Z</time>
      </trkpt>
      <trkpt lat="40.227460" lon="-5.874740">
        <ele>1395.826</ele>
        <time>2020-02-29T04:41:13Z</time>
      </trkpt>
      <trkpt lat="40.227910" lon="-5.875220">
        <ele>1394.308</ele>
        <time>2020-02-29T04:41:33Z</time>
      </trkpt>
      <trkpt lat="40.228040" lon="-5.875380">
        <ele>1395.562</ele>
        <time>2020-02-29T04:41:53Z</time>
      </trkpt>
      <trkpt lat="40.228060" lon="-5.875420">
        <ele>1395.635</ele>
        <time>2020-02-29T04:42:13Z</time>
      </trkpt>
      <trkpt lat="40.228100" lon="-5.875470">
        <ele>1396.060</ele>
        <time>2020-02-29T04:42:33Z</time>
      </trkpt>
      <trkpt lat="40.228180" lon="-5.875650">
        <ele>1394.921</ele>
        <time>2020-02-29T04:42:53Z</time>
      </trkpt>
      <trkpt lat="40.228470" lon="-5.876200">
        <ele>1391.994</ele>
        <time>2020-02-29T04:43:13Z</time>
      </trkpt>
      <trkpt lat="40.228470" lon="-5.876210">
        <ele>1391.693</ele>
        <time>2020-02-29T04:43:33Z</time>
      </trkpt>
      <trkpt lat="40.228640" lon="-5.876460">
        <ele>1389.514</ele>
        <time>2020-02-29T04:43:53Z</time>
      </trkpt>
      <trkpt lat="40.229430" lon="-5.877200">
        <ele>1382.411</ele>
        <time>2020-02-29T04:44:13Z</time>
      </trkpt>
      <trkpt lat="40.229630" lon="-5.877340">
        <ele>1380.092</ele>
        <time>2020-02-29T04:44:33Z</time>
      </trkpt>
      <trkpt lat="40.229780" lon="-5.877400">
        <ele>1379.973</ele>
        <time>2020-02-29T04:44:53Z</time>
      </trkpt>
      <trkpt lat="40.229980" lon="-5.877500">
        <ele>1379.620</ele>
        <time>2020-02-29T04:45:13Z</time>
      </trkpt>
      <trkpt lat="40.230130" lon="-5.877560">
        <ele>1378.508</ele>
        <time>2020-02-29T04:45:33Z</time>
      </trkpt>
      <trkpt lat="40.230260" lon="-5.877650">
        <ele>1376.943</ele>
        <time>2020-02-29T04:45:53Z</time>
      </trkpt>
      <trkpt lat="40.230430" lon="-5.877790">
        <ele>1374.976</ele>
        <time>2020-02-29T04:46:13Z</time>
      </trkpt>
      <trkpt lat="40.230550" lon="-5.877910">
        <ele>1374.551</ele>
        <time>2020-02-29T04:46:33Z</time>
      </trkpt>
      <trkpt lat="40.230630" lon="-5.877970">
        <ele>1374.842</ele>
        <time>2020-02-29T04:46:53Z</time>
      </trkpt>
      <trkpt lat="40.230740" lon="-5.878020">
        <ele>1375.555</ele>
        <time>2020-02-29T04:47:13Z</time>
      </trkpt>
      <trkpt lat="40.230910" lon="-5.878080">
        <ele>1376.434</ele>
        <time>2020-02-29T04:47:33Z</time>
      </trkpt>
      <trkpt lat="40.230970" lon="-5.878110">
        <ele>1376.555</ele>
        <time>2020-02-29T04:47:53Z</time>
      </trkpt>
      <trkpt lat="40.231070" lon="-5.878200">
        <ele>1376.062</ele>
        <time>2020-02-29T04:48:13Z</time>
      </trkpt>
      <trkpt lat="40.231080" lon="-5.878220">
        <ele>1375.796</ele>
        <time>2020-02-29T04:48:33Z</time>
      </trkpt>
      <trkpt lat="40.231090" lon="-5.878270">
        <ele>1374.931</ele>
        <time>2020-02-29T04:48:53Z</time>
      </trkpt>
      <trkpt lat="40.231090" lon="-5.878360">
        <ele>1373.224</ele>
        <time>2020-02-29T04:49:13Z</time>
      </trkpt>
      <trkpt lat="40.231070" lon="-5.878400">
        <ele>1372.008</ele>
        <time>2020-02-29T04:49:33Z</time>
      </trkpt>
      <trkpt lat="40.231030" lon="-5.878440">
        <ele>1370.463</ele>
        <time>2020-02-29T04:49:53Z</time>
      </trkpt>
      <trkpt lat="40.231000" lon="-5.878460">
        <ele>1369.396</ele>
        <time>2020-02-29T04:50:13Z</time>
      </trkpt>
      <trkpt lat="40.230950" lon="-5.878460">
        <ele>1368.561</ele>
        <time>2020-02-29T04:50:33Z</time>
      </trkpt>
      <trkpt lat="40.230890" lon="-5.878450">
        <ele>1367.812</ele>
        <time>2020-02-29T04:50:53Z</time>
      </trkpt>
      <trkpt lat="40.230890" lon="-5.878440">
        <ele>1368.165</ele>
        <time>2020-02-29T04:51:13Z</time>
      </trkpt>
      <trkpt lat="40.230820" lon="-5.878410">
        <ele>1367.854</ele>
        <time>2020-02-29T04:51:33Z</time>
      </trkpt>
      <trkpt lat="40.230350" lon="-5.878070">
        <ele>1364.855</ele>
        <time>2020-02-29T04:51:53Z</time>
      </trkpt>
      <trkpt lat="40.230240" lon="-5.878010">
        <ele>1363.852</ele>
        <time>2020-02-29T04:52:13Z</time>
      </trkpt>
      <trkpt lat="40.230080" lon="-5.877970">
        <ele>1361.871</ele>
        <time>2020-02-29T04:52:33Z</time>
      </trkpt>
      <trkpt lat="40.229360" lon="-5.877840">
        <ele>1356.741</ele>
        <time>2020-02-29T04:52:53Z</time>
      </trkpt>
      <trkpt lat="40.228940" lon="-5.877660">
        <ele>1354.815</ele>
        <time>2020-02-29T04:53:13Z</time>
      </trkpt>
      <trkpt lat="40.228610" lon="-5.877450">
        <ele>1353.408</ele>
        <time>2020-02-29T04:53:33Z</time>
      </trkpt>
      <trkpt lat="40.228080" lon="-5.877020">
        <ele>1348.011</ele>
        <time>2020-02-29T04:53:53Z</time>
      </trkpt>
      <trkpt lat="40.227790" lon="-5.876710">
        <ele>1348.554</ele>
        <time>2020-02-29T04:54:13Z</time>
      </trkpt>
      <trkpt lat="40.227410" lon="-5.876230">
        <ele>1345.219</ele>
        <time>2020-02-29T04:54:33Z</time>
      </trkpt>
      <trkpt lat="40.227200" lon="-5.876090">
        <ele>1340.540</ele>
        <time>2020-02-29T04:54:53Z</time>
      </trkpt>
      <trkpt lat="40.227100" lon="-5.876060">
        <ele>1340.413</ele>
        <time>2020-02-29T04:55:13Z</time>
      </trkpt>
      <trkpt lat="40.227060" lon="-5.876060">
        <ele>1340.092</ele>
        <time>2020-02-29T04:55:33Z</time>
      </trkpt>
      <trkpt lat="40.227010" lon="-5.876070">
        <ele>1339.163</ele>
        <time>2020-02-29T04:55:53Z</time>
      </trkpt>
      <trkpt lat="40.226920" lon="-5.876100">
        <ele>1338.140</ele>
        <time>2020-02-29T04:56:13Z</time>
      </trkpt>
      <trkpt lat="40.226810" lon="-5.876220">
        <ele>1336.699</ele>
        <time>2020-02-29T04:56:33Z</time>
      </trkpt>
      <trkpt lat="40.226330" lon="-5.876680">
        <ele>1335.507</ele>
        <time>2020-02-29T04:56:53Z</time>
      </trkpt>
      <trkpt lat="40.225910" lon="-5.877040">
        <ele>1332.127</ele>
        <time>2020-02-29T04:57:13Z</time>
      </trkpt>
      <trkpt lat="40.225670" lon="-5.877200">
        <ele>1330.708</ele>
        <time>2020-02-29T04:57:33Z</time>
      </trkpt>
      <trkpt lat="40.225490" lon="-5.877280">
        <ele>1329.593</ele>
        <time>2020-02-29T04:57:53Z</time>
      </trkpt>
      <trkpt lat="40.225440" lon="-5.877320">
        <ele>1328.646</ele>
        <time>2020-02-29T04:58:13Z</time>
      </trkpt>
      <trkpt lat="40.225400" lon="-5.877340">
        <ele>1328.061</ele>
        <time>2020-02-29T04:58:33Z</time>
      </trkpt>
      <trkpt lat="40.225340" lon="-5.877420">
        <ele>1326.442</ele>
        <time>2020-02-29T04:58:53Z</time>
      </trkpt>
      <trkpt lat="40.225330" lon="-5.877450">
        <ele>1325.925</ele>
        <time>2020-02-29T04:59:13Z</time>
      </trkpt>
      <trkpt lat="40.225320" lon="-5.877510">
        <ele>1325.044</ele>
        <time>2020-02-29T04:59:33Z</time>
      </trkpt>
      <trkpt lat="40.225320" lon="-5.877560">
        <ele>1324.335</ele>
        <time>2020-02-29T04:59:53Z</time>
      </trkpt>
      <trkpt lat="40.225330" lon="-5.877580">
        <ele>1324.072</ele>
        <time>2020-02-29T05:00:13Z</time>
      </trkpt>
      <trkpt lat="40.225330" lon="-5.877590">
        <ele>1323.991</ele>
        <time>2020-02-29T05:00:33Z</time>
      </trkpt>
      <trkpt lat="40.225350" lon="-5.877620">
        <ele>1323.581</ele>
        <time>2020-02-29T05:00:53Z</time>
      </trkpt>
      <trkpt lat="40.225380" lon="-5.877650">
        <ele>1323.219</ele>
        <time>2020-02-29T05:01:13Z</time>
      </trkpt>
      <trkpt lat="40.225420" lon="-5.877670">
        <ele>1323.108</ele>
        <time>2020-02-29T05:01:33Z</time>
      </trkpt>
      <trkpt lat="40.225470" lon="-5.877680">
        <ele>1323.123</ele>
        <time>2020-02-29T05:01:53Z</time>
      </trkpt>
      <trkpt lat="40.225470" lon="-5.877690">
        <ele>1323.066</ele>
        <time>2020-02-29T05:02:13Z</time>
      </trkpt>
      <trkpt lat="40.225550" lon="-5.877690">
        <ele>1323.271</ele>
        <time>2020-02-29T05:02:33Z</time>
      </trkpt>
      <trkpt lat="40.225600" lon="-5.877670">
        <ele>1323.132</ele>
        <time>2020-02-29T05:02:53Z</time>
      </trkpt>
      <trkpt lat="40.225780" lon="-5.877510">
        <ele>1324.215</ele>
        <time>2020-02-29T05:03:13Z</time>
      </trkpt>
      <trkpt lat="40.226110" lon="-5.877120">
        <ele>1325.034</ele>
        <time>2020-02-29T05:03:33Z</time>
      </trkpt>
      <trkpt lat="40.226200" lon="-5.877060">
        <ele>1323.755</ele>
        <time>2020-02-29T05:03:53Z</time>
      </trkpt>
      <trkpt lat="40.226480" lon="-5.876830">
        <ele>1324.642</ele>
        <time>2020-02-29T05:04:13Z</time>
      </trkpt>
      <trkpt lat="40.226880" lon="-5.876560">
        <ele>1321.649</ele>
        <time>2020-02-29T05:04:33Z</time>
      </trkpt>
      <trkpt lat="40.226960" lon="-5.876540">
        <ele>1320.902</ele>
        <time>2020-02-29T05:04:53Z</time>
      </trkpt>
      <trkpt lat="40.227020" lon="-5.876540">
        <ele>1322.222</ele>
        <time>2020-02-29T05:05:13Z</time>
      </trkpt>
      <trkpt lat="40.227080" lon="-5.876560">
        <ele>1323.008</ele>
        <time>2020-02-29T05:05:33Z</time>
      </trkpt>
      <trkpt lat="40.227160" lon="-5.876610">
        <ele>1323.648</ele>
        <time>2020-02-29T05:05:53Z</time>
      </trkpt>
      <trkpt lat="40.227180" lon="-5.876630">
        <ele>1323.761</ele>
        <time>2020-02-29T05:06:13Z</time>
      </trkpt>
      <trkpt lat="40.227470" lon="-5.877200">
        <ele>1317.316</ele>
        <time>2020-02-29T05:06:33Z</time>
      </trkpt>
      <trkpt lat="40.227480" lon="-5.877230">
        <ele>1316.917</ele>
        <time>2020-02-29T05:06:53Z</time>
      </trkpt>
      <trkpt lat="40.227710" lon="-5.877670">
        <ele>1313.740</ele>
        <time>2020-02-29T05:07:13Z</time>
      </trkpt>
      <trkpt lat="40.227790" lon="-5.877770">
        <ele>1313.759</ele>
        <time>2020-02-29T05:07:33Z</time>
      </trkpt>
      <trkpt lat="40.228350" lon="-5.878660">
        <ele>1307.250</ele>
        <time>2020-02-29T05:07:53Z</time>
      </trkpt>
      <trkpt lat="40.228490" lon="-5.878830">
        <ele>1306.637</ele>
        <time>2020-02-29T05:08:13Z</time>
      </trkpt>
      <trkpt lat="40.228730" lon="-5.879050">
        <ele>1304.611</ele>
        <time>2020-02-29T05:08:33Z</time>
      </trkpt>
      <trkpt lat="40.228790" lon="-5.879090">
        <ele>1303.921</ele>
        <time>2020-02-29T05:08:53Z</time>
      </trkpt>
      <trkpt lat="40.228830" lon="-5.879130">
        <ele>1302.803</ele>
        <time>2020-02-29T05:09:13Z</time>
      </trkpt>
      <trkpt lat="40.229330" lon="-5.879300">
        <ele>1296.908</ele>
        <time>2020-02-29T05:09:33Z</time>
      </trkpt>
      <trkpt lat="40.229490" lon="-5.879330">
        <ele>1296.335</ele>
        <time>2020-02-29T05:09:53Z</time>
      </trkpt>
      <trkpt lat="40.229590" lon="-5.879360">
        <ele>1296.898</ele>
        <time>2020-02-29T05:10:13Z</time>
      </trkpt>
      <trkpt lat="40.229660" lon="-5.879390">
        <ele>1296.693</ele>
        <time>2020-02-29T05:10:33Z</time>
      </trkpt>
      <trkpt lat="40.229810" lon="-5.879520">
        <ele>1295.844</ele>
        <time>2020-02-29T05:10:53Z</time>
      </trkpt>
      <trkpt lat="40.230080" lon="-5.879820">
        <ele>1295.957</ele>
        <time>2020-02-29T05:11:13Z</time>
      </trkpt>
      <trkpt lat="40.230200" lon="-5.879990">
        <ele>1295.616</ele>
        <time>2020-02-29T05:11:33Z</time>
      </trkpt>
      <trkpt lat="40.230310" lon="-5.880190">
        <ele>1296.267</ele>
        <time>2020-02-29T05:11:53Z</time>
      </trkpt>
      <trkpt lat="40.230340" lon="-5.880270">
        <ele>1295.894</ele>
        <time>2020-02-29T05:12:13Z</time>
      </trkpt>
      <trkpt lat="40.230370" lon="-5.880400">
        <ele>1295.439</ele>
        <time>2020-02-29T05:12:33Z</time>
      </trkpt>
      <trkpt lat="40.230400" lon="-5.880800">
        <ele>1294.201</ele>
        <time>2020-02-29T05:12:53Z</time>
      </trkpt>
      <trkpt lat="40.230330" lon="-5.881110">
        <ele>1291.321</ele>
        <time>2020-02-29T05:13:13Z</time>
      </trkpt>
      <trkpt lat="40.230300" lon="-5.881330">
        <ele>1287.708</ele>
        <time>2020-02-29T05:13:33Z</time>
      </trkpt>
      <trkpt lat="40.230290" lon="-5.881350">
        <ele>1287.057</ele>
        <time>2020-02-29T05:13:53Z</time>
      </trkpt>
      <trkpt lat="40.230320" lon="-5.881680">
        <ele>1283.460</ele>
        <time>2020-02-29T05:14:13Z</time>
      </trkpt>
      <trkpt lat="40.230360" lon="-5.881760">
        <ele>1283.745</ele>
        <time>2020-02-29T05:14:33Z</time>
      </trkpt>
      <trkpt lat="40.230440" lon="-5.881880">
        <ele>1283.696</ele>
        <time>2020-02-29T05:14:53Z</time>
      </trkpt>
      <trkpt lat="40.230580" lon="-5.882020">
        <ele>1281.329</ele>
        <time>2020-02-29T05:15:13Z</time>
      </trkpt>
      <trkpt lat="40.230700" lon="-5.882080">
        <ele>1279.148</ele>
        <time>2020-02-29T05:15:33Z</time>
      </trkpt>
      <trkpt lat="40.230800" lon="-5.882100">
        <ele>1278.499</ele>
        <time>2020-02-29T05:15:53Z</time>
      </trkpt>
      <trkpt lat="40.231020" lon="-5.882100">
        <ele>1276.786</ele>
        <time>2020-02-29T05:16:13Z</time>
      </trkpt>
      <trkpt lat="40.231380" lon="-5.882050">
        <ele>1277.275</ele>
        <time>2020-02-29T05:16:33Z</time>
      </trkpt>
      <trkpt lat="40.231480" lon="-5.882060">
        <ele>1277.328</ele>
        <time>2020-02-29T05:16:53Z</time>
      </trkpt>
      <trkpt lat="40.231550" lon="-5.882080">
        <ele>1277.020</ele>
        <time>2020-02-29T05:17:13Z</time>
      </trkpt>
      <trkpt lat="40.231670" lon="-5.882130">
        <ele>1276.108</ele>
        <time>2020-02-29T05:17:33Z</time>
      </trkpt>
      <trkpt lat="40.231790" lon="-5.882210">
        <ele>1276.461</ele>
        <time>2020-02-29T05:17:53Z</time>
      </trkpt>
      <trkpt lat="40.231940" lon="-5.882350">
        <ele>1277.634</ele>
        <time>2020-02-29T05:18:13Z</time>
      </trkpt>
      <trkpt lat="40.231990" lon="-5.882440">
        <ele>1277.489</ele>
        <time>2020-02-29T05:18:33Z</time>
      </trkpt>
      <trkpt lat="40.231990" lon="-5.882450">
        <ele>1277.260</ele>
        <time>2020-02-29T05:18:53Z</time>
      </trkpt>
      <trkpt lat="40.232070" lon="-5.882640">
        <ele>1275.843</ele>
        <time>2020-02-29T05:19:13Z</time>
      </trkpt>
      <trkpt lat="40.232070" lon="-5.882660">
        <ele>1275.432</ele>
        <time>2020-02-29T05:19:33Z</time>
      </trkpt>
      <trkpt lat="40.232130" lon="-5.882830">
        <ele>1274.193</ele>
        <time>2020-02-29T05:19:53Z</time>
      </trkpt>
      <trkpt lat="40.232210" lon="-5.882990">
        <ele>1273.820</ele>
        <time>2020-02-29T05:20:13Z</time>
      </trkpt>
      <trkpt lat="40.232260" lon="-5.883060">
        <ele>1273.956</ele>
        <time>2020-02-29T05:20:33Z</time>
      </trkpt>
      <trkpt lat="40.232480" lon="-5.883430">
        <ele>1273.059</ele>
        <time>2020-02-29T05:20:53Z</time>
      </trkpt>
      <trkpt lat="40.232680" lon="-5.883710">
        <ele>1270.414</ele>
        <time>2020-02-29T05:21:13Z</time>
      </trkpt>
      <trkpt lat="40.232740" lon="-5.883760">
        <ele>1269.908</ele>
        <time>2020-02-29T05:21:33Z</time>
      </trkpt>
      <trkpt lat="40.232820" lon="-5.883810">
        <ele>1269.789</ele>
        <time>2020-02-29T05:21:53Z</time>
      </trkpt>
      <trkpt lat="40.234480" lon="-5.884340">
        <ele>1255.522</ele>
        <time>2020-02-29T05:22:13Z</time>
      </trkpt>
      <trkpt lat="40.234590" lon="-5.884400">
        <ele>1255.897</ele>
        <time>2020-02-29T05:22:33Z</time>
      </trkpt>
      <trkpt lat="40.234640" lon="-5.884440">
        <ele>1255.118</ele>
        <time>2020-02-29T05:22:53Z</time>
      </trkpt>
      <trkpt lat="40.234750" lon="-5.884550">
        <ele>1255.321</ele>
        <time>2020-02-29T05:23:13Z</time>
      </trkpt>
      <trkpt lat="40.235130" lon="-5.885120">
        <ele>1253.610</ele>
        <time>2020-02-29T05:23:33Z</time>
      </trkpt>
      <trkpt lat="40.235140" lon="-5.885120">
        <ele>1253.751</ele>
        <time>2020-02-29T05:23:53Z</time>
      </trkpt>
      <trkpt lat="40.235180" lon="-5.885160">
        <ele>1252.518</ele>
        <time>2020-02-29T05:24:13Z</time>
      </trkpt>
      <trkpt lat="40.235200" lon="-5.885170">
        <ele>1252.233</ele>
        <time>2020-02-29T05:24:33Z</time>
      </trkpt>
      <trkpt lat="40.235790" lon="-5.885130">
        <ele>1249.723</ele>
        <time>2020-02-29T05:24:53Z</time>
      </trkpt>
      <trkpt lat="40.235900" lon="-5.885150">
        <ele>1248.815</ele>
        <time>2020-02-29T05:25:13Z</time>
      </trkpt>
      <trkpt lat="40.236090" lon="-5.885220">
        <ele>1246.008</ele>
        <time>2020-02-29T05:25:33Z</time>
      </trkpt>
      <trkpt lat="40.236400" lon="-5.885310">
        <ele>1243.997</ele>
        <time>2020-02-29T05:25:53Z</time>
      </trkpt>
      <trkpt lat="40.236490" lon="-5.885360">
        <ele>1244.410</ele>
        <time>2020-02-29T05:26:13Z</time>
      </trkpt>
      <trkpt lat="40.236610" lon="-5.885450">
        <ele>1244.115</ele>
        <time>2020-02-29T05:26:33Z</time>
      </trkpt>
      <trkpt lat="40.236820" lon="-5.885680">
        <ele>1242.746</ele>
        <time>2020-02-29T05:26:53Z</time>
      </trkpt>
      <trkpt lat="40.236920" lon="-5.885840">
        <ele>1241.699</ele>
        <time>2020-02-29T05:27:13Z</time>
      </trkpt>
      <trkpt lat="40.237120" lon="-5.886370">
        <ele>1235.938</ele>
        <time>2020-02-29T05:27:33Z</time>
      </trkpt>
      <trkpt lat="40.237150" lon="-5.886500">
        <ele>1233.549</ele>
        <time>2020-02-29T05:27:53Z</time>
      </trkpt>
      <trkpt lat="40.237190" lon="-5.886580">
        <ele>1232.976</ele>
        <time>2020-02-29T05:28:13Z</time>
      </trkpt>
      <trkpt lat="40.237390" lon="-5.886860">
        <ele>1231.935</ele>
        <time>2020-02-29T05:28:33Z</time>
      </trkpt>
      <trkpt lat="40.237420" lon="-5.886920">
        <ele>1231.186</ele>
        <time>2020-02-29T05:28:53Z</time>
      </trkpt>
      <trkpt lat="40.237520" lon="-5.887020">
        <ele>1231.114</ele>
        <time>2020-02-29T05:29:13Z</time>
      </trkpt>
      <trkpt lat="40.237640" lon="-5.887170">
        <ele>1230.008</ele>
        <time>2020-02-29T05:29:33Z</time>
      </trkpt>
      <trkpt lat="40.237800" lon="-5.887320">
        <ele>1231.127</ele>
        <time>2020-02-29T05:29:53Z</time>
      </trkpt>
      <trkpt lat="40.237850" lon="-5.887380">
        <ele>1230.960</ele>
        <time>2020-02-29T05:30:13Z</time>
      </trkpt>
      <trkpt lat="40.237940" lon="-5.887520">
        <ele>1230.345</ele>
        <time>2020-02-29T05:30:33Z</time>
      </trkpt>
      <trkpt lat="40.238240" lon="-5.888390">
        <ele>1223.616</ele>
        <time>2020-02-29T05:30:53Z</time>
      </trkpt>
      <trkpt lat="40.238310" lon="-5.888540">
        <ele>1221.989</ele>
        <time>2020-02-29T05:31:13Z</time>
      </trkpt>
      <trkpt lat="40.238310" lon="-5.888550">
        <ele>1221.638</ele>
        <time>2020-02-29T05:31:33Z</time>
      </trkpt>
      <trkpt lat="40.238600" lon="-5.888940">
        <ele>1218.569</ele>
        <time>2020-02-29T05:31:53Z</time>
      </trkpt>
      <trkpt lat="40.238700" lon="-5.889030">
        <ele>1216.246</ele>
        <time>2020-02-29T05:32:13Z</time>
      </trkpt>
      <trkpt lat="40.238760" lon="-5.889100">
        <ele>1214.348</ele>
        <time>2020-02-29T05:32:33Z</time>
      </trkpt>
      <trkpt lat="40.238860" lon="-5.889150">
        <ele>1214.161</ele>
        <time>2020-02-29T05:32:53Z</time>
      </trkpt>
      <trkpt lat="40.239150" lon="-5.889340">
        <ele>1212.517</ele>
        <time>2020-02-29T05:33:13Z</time>
      </trkpt>
      <trkpt lat="40.239180" lon="-5.889350">
        <ele>1212.508</ele>
        <time>2020-02-29T05:33:33Z</time>
      </trkpt>
      <trkpt lat="40.239580" lon="-5.889570">
        <ele>1207.188</ele>
        <time>2020-02-29T05:33:53Z</time>
      </trkpt>
      <trkpt lat="40.240040" lon="-5.889670">
        <ele>1206.381</ele>
        <time>2020-02-29T05:34:13Z</time>
      </trkpt>
      <trkpt lat="40.240060" lon="-5.889680">
        <ele>1205.986</ele>
        <time>2020-02-29T05:34:33Z</time>
      </trkpt>
      <trkpt lat="40.240120" lon="-5.889680">
        <ele>1205.267</ele>
        <time>2020-02-29T05:34:53Z</time>
      </trkpt>
      <trkpt lat="40.240170" lon="-5.889660">
        <ele>1204.850</ele>
        <time>2020-02-29T05:35:13Z</time>
      </trkpt>
      <trkpt lat="40.240220" lon="-5.889630">
        <ele>1204.419</ele>
        <time>2020-02-29T05:35:33Z</time>
      </trkpt>
      <trkpt lat="40.240300" lon="-5.889540">
        <ele>1204.080</ele>
        <time>2020-02-29T05:35:53Z</time>
      </trkpt>
      <trkpt lat="40.240350" lon="-5.889420">
        <ele>1203.787</ele>
        <time>2020-02-29T05:36:13Z</time>
      </trkpt>
      <trkpt lat="40.240610" lon="-5.888210">
        <ele>1197.741</ele>
        <time>2020-02-29T05:36:33Z</time>
      </trkpt>
      <trkpt lat="40.240630" lon="-5.888060">
        <ele>1196.681</ele>
        <time>2020-02-29T05:36:53Z</time>
      </trkpt>
      <trkpt lat="40.240630" lon="-5.888000">
        <ele>1196.609</ele>
        <time>2020-02-29T05:37:13Z</time>
      </trkpt>
      <trkpt lat="40.240610" lon="-5.887900">
        <ele>1197.208</ele>
        <time>2020-02-29T05:37:33Z</time>
      </trkpt>
      <trkpt lat="40.240560" lon="-5.887750">
        <ele>1198.658</ele>
        <time>2020-02-29T05:37:53Z</time>
      </trkpt>
      <trkpt lat="40.240560" lon="-5.887670">
        <ele>1197.771</ele>
        <time>2020-02-29T05:38:13Z</time>
      </trkpt>
      <trkpt lat="40.240580" lon="-5.887580">
        <ele>1196.396</ele>
        <time>2020-02-29T05:38:33Z</time>
      </trkpt>
      <trkpt lat="40.240590" lon="-5.887560">
        <ele>1195.857</ele>
        <time>2020-02-29T05:38:53Z</time>
      </trkpt>
      <trkpt lat="40.240620" lon="-5.887530">
        <ele>1194.940</ele>
        <time>2020-02-29T05:39:13Z</time>
      </trkpt>
      <trkpt lat="40.240660" lon="-5.887510">
        <ele>1193.819</ele>
        <time>2020-02-29T05:39:33Z</time>
      </trkpt>
      <trkpt lat="40.240710" lon="-5.887510">
        <ele>1192.740</ele>
        <time>2020-02-29T05:39:53Z</time>
      </trkpt>
      <trkpt lat="40.240740" lon="-5.887520">
        <ele>1192.147</ele>
        <time>2020-02-29T05:40:13Z</time>
      </trkpt>
      <trkpt lat="40.240790" lon="-5.887570">
        <ele>1191.173</ele>
        <time>2020-02-29T05:40:33Z</time>
      </trkpt>
      <trkpt lat="40.240820" lon="-5.887620">
        <ele>1190.385</ele>
        <time>2020-02-29T05:40:53Z</time>
      </trkpt>
      <trkpt lat="40.240820" lon="-5.887640">
        <ele>1190.413</ele>
        <time>2020-02-29T05:41:13Z</time>
      </trkpt>
      <trkpt lat="40.240830" lon="-5.887680">
        <ele>1190.108</ele>
        <time>2020-02-29T05:41:33Z</time>
      </trkpt>
      <trkpt lat="40.240840" lon="-5.887800">
        <ele>1189.611</ele>
        <time>2020-02-29T05:41:53Z</time>
      </trkpt>
      <trkpt lat="40.240830" lon="-5.888650">
        <ele>1189.124</ele>
        <time>2020-02-29T05:42:13Z</time>
      </trkpt>
      <trkpt lat="40.240840" lon="-5.888810">
        <ele>1188.779</ele>
        <time>2020-02-29T05:42:33Z</time>
      </trkpt>
      <trkpt lat="40.240880" lon="-5.889020">
        <ele>1187.850</ele>
        <time>2020-02-29T05:42:53Z</time>
      </trkpt>
      <trkpt lat="40.240880" lon="-5.889040">
        <ele>1187.943</ele>
        <time>2020-02-29T05:43:13Z</time>
      </trkpt>
      <trkpt lat="40.240950" lon="-5.889250">
        <ele>1186.192</ele>
        <time>2020-02-29T05:43:33Z</time>
      </trkpt>
      <trkpt lat="40.240950" lon="-5.889270">
        <ele>1186.263</ele>
        <time>2020-02-29T05:43:53Z</time>
      </trkpt>
      <trkpt lat="40.241530" lon="-5.890730">
        <ele>1177.290</ele>
        <time>2020-02-29T05:44:13Z</time>
      </trkpt>
      <trkpt lat="40.241660" lon="-5.891160">
        <ele>1171.179</ele>
        <time>2020-02-29T05:44:33Z</time>
      </trkpt>
      <trkpt lat="40.241680" lon="-5.891290">
        <ele>1170.005</ele>
        <time>2020-02-29T05:44:53Z</time>
      </trkpt>
      <trkpt lat="40.241680" lon="-5.891400">
        <ele>1169.525</ele>
        <time>2020-02-29T05:45:13Z</time>
      </trkpt>
      <trkpt lat="40.241650" lon="-5.891690">
        <ele>1166.308</ele>
        <time>2020-02-29T05:45:33Z</time>
      </trkpt>
      <trkpt lat="40.241580" lon="-5.891970">
        <ele>1164.731</ele>
        <time>2020-02-29T05:45:53Z</time>
      </trkpt>
      <trkpt lat="40.241550" lon="-5.892030">
        <ele>1164.334</ele>
        <time>2020-02-29T05:46:13Z</time>
      </trkpt>
      <trkpt lat="40.241470" lon="-5.892140">
        <ele>1163.619</ele>
        <time>2020-02-29T05:46:33Z</time>
      </trkpt>
      <trkpt lat="40.241370" lon="-5.892250">
        <ele>1162.390</ele>
        <time>2020-02-29T05:46:53Z</time>
      </trkpt>
      <trkpt lat="40.241310" lon="-5.892290">
        <ele>1161.543</ele>
        <time>2020-02-29T05:47:13Z</time>
      </trkpt>
      <trkpt lat="40.241250" lon="-5.892320">
        <ele>1161.042</ele>
        <time>2020-02-29T05:47:33Z</time>
      </trkpt>
      <trkpt lat="40.241150" lon="-5.892330">
        <ele>1161.493</ele>
        <time>2020-02-29T05:47:53Z</time>
      </trkpt>
      <trkpt lat="40.241070" lon="-5.892320">
        <ele>1161.540</ele>
        <time>2020-02-29T05:48:13Z</time>
      </trkpt>
      <trkpt lat="40.241010" lon="-5.892320">
        <ele>1160.592</ele>
        <time>2020-02-29T05:48:33Z</time>
      </trkpt>
      <trkpt lat="40.240810" lon="-5.892280">
        <ele>1159.073</ele>
        <time>2020-02-29T05:48:53Z</time>
      </trkpt>
      <trkpt lat="40.240770" lon="-5.892260">
        <ele>1159.020</ele>
        <time>2020-02-29T05:49:13Z</time>
      </trkpt>
      <trkpt lat="40.240710" lon="-5.892240">
        <ele>1158.608</ele>
        <time>2020-02-29T05:49:33Z</time>
      </trkpt>
      <trkpt lat="40.240380" lon="-5.892090">
        <ele>1156.543</ele>
        <time>2020-02-29T05:49:53Z</time>
      </trkpt>
      <trkpt lat="40.239970" lon="-5.891930">
        <ele>1152.486</ele>
        <time>2020-02-29T05:50:13Z</time>
      </trkpt>
      <trkpt lat="40.239880" lon="-5.891880">
        <ele>1150.951</ele>
        <time>2020-02-29T05:50:33Z</time>
      </trkpt>
      <trkpt lat="40.239860" lon="-5.891880">
        <ele>1150.122</ele>
        <time>2020-02-29T05:50:53Z</time>
      </trkpt>
      <trkpt lat="40.239790" lon="-5.891820">
        <ele>1150.035</ele>
        <time>2020-02-29T05:51:13Z</time>
      </trkpt>
      <trkpt lat="40.238940" lon="-5.890910">
        <ele>1145.654</ele>
        <time>2020-02-29T05:51:33Z</time>
      </trkpt>
      <trkpt lat="40.238870" lon="-5.890870">
        <ele>1144.825</ele>
        <time>2020-02-29T05:51:53Z</time>
      </trkpt>
      <trkpt lat="40.238870" lon="-5.890860">
        <ele>1145.172</ele>
        <time>2020-02-29T05:52:13Z</time>
      </trkpt>
      <trkpt lat="40.238380" lon="-5.890660">
        <ele>1140.137</ele>
        <time>2020-02-29T05:52:33Z</time>
      </trkpt>
      <trkpt lat="40.238110" lon="-5.890510">
        <ele>1137.049</ele>
        <time>2020-02-29T05:52:53Z</time>
      </trkpt>
      <trkpt lat="40.237880" lon="-5.890320">
        <ele>1136.013</ele>
        <time>2020-02-29T05:53:13Z</time>
      </trkpt>
      <trkpt lat="40.237500" lon="-5.890040">
        <ele>1132.808</ele>
        <time>2020-02-29T05:53:33Z</time>
      </trkpt>
      <trkpt lat="40.237240" lon="-5.889910">
        <ele>1129.867</ele>
        <time>2020-02-29T05:53:53Z</time>
      </trkpt>
      <trkpt lat="40.237230" lon="-5.889910">
        <ele>1129.570</ele>
        <time>2020-02-29T05:54:13Z</time>
      </trkpt>
      <trkpt lat="40.237050" lon="-5.889800">
        <ele>1127.675</ele>
        <time>2020-02-29T05:54:33Z</time>
      </trkpt>
      <trkpt lat="40.236940" lon="-5.889660">
        <ele>1128.636</ele>
        <time>2020-02-29T05:54:53Z</time>
      </trkpt>
      <trkpt lat="40.236700" lon="-5.889310">
        <ele>1128.739</ele>
        <time>2020-02-29T05:55:13Z</time>
      </trkpt>
      <trkpt lat="40.236400" lon="-5.888920">
        <ele>1128.898</ele>
        <time>2020-02-29T05:55:33Z</time>
      </trkpt>
      <trkpt lat="40.236350" lon="-5.888880">
        <ele>1128.459</ele>
        <time>2020-02-29T05:55:53Z</time>
      </trkpt>
      <trkpt lat="40.236310" lon="-5.888870">
        <ele>1127.896</ele>
        <time>2020-02-29T05:56:13Z</time>
      </trkpt>
      <trkpt lat="40.236280" lon="-5.888870">
        <ele>1127.166</ele>
        <time>2020-02-29T05:56:33Z</time>
      </trkpt>
      <trkpt lat="40.236240" lon="-5.888880">
        <ele>1126.029</ele>
        <time>2020-02-29T05:56:53Z</time>
      </trkpt>
      <trkpt lat="40.236210" lon="-5.888910">
        <ele>1124.721</ele>
        <time>2020-02-29T05:57:13Z</time>
      </trkpt>
      <trkpt lat="40.236190" lon="-5.888920">
        <ele>1124.008</ele>
        <time>2020-02-29T05:57:33Z</time>
      </trkpt>
      <trkpt lat="40.236170" lon="-5.889010">
        <ele>1121.740</ele>
        <time>2020-02-29T05:57:53Z</time>
      </trkpt>
      <trkpt lat="40.236180" lon="-5.889050">
        <ele>1121.063</ele>
        <time>2020-02-29T05:58:13Z</time>
      </trkpt>
      <trkpt lat="40.236210" lon="-5.889120">
        <ele>1120.198</ele>
        <time>2020-02-29T05:58:33Z</time>
      </trkpt>
      <trkpt lat="40.236230" lon="-5.889150">
        <ele>1119.939</ele>
        <time>2020-02-29T05:58:53Z</time>
      </trkpt>
      <trkpt lat="40.236290" lon="-5.889200">
        <ele>1119.932</ele>
        <time>2020-02-29T05:59:13Z</time>
      </trkpt>
      <trkpt lat="40.236440" lon="-5.889260">
        <ele>1122.241</ele>
        <time>2020-02-29T05:59:33Z</time>
      </trkpt>
      <trkpt lat="40.236490" lon="-5.889300">
        <ele>1122.682</ele>
        <time>2020-02-29T05:59:53Z</time>
      </trkpt>
      <trkpt lat="40.236620" lon="-5.889450">
        <ele>1121.799</ele>
        <time>2020-02-29T06:00:13Z</time>
      </trkpt>
      <trkpt lat="40.236800" lon="-5.889870">
        <ele>1117.337</ele>
        <time>2020-02-29T06:00:33Z</time>
      </trkpt>
      <trkpt lat="40.236900" lon="-5.890010">
        <ele>1115.849</ele>
        <time>2020-02-29T06:00:53Z</time>
      </trkpt>
      <trkpt lat="40.237130" lon="-5.890270">
        <ele>1115.613</ele>
        <time>2020-02-29T06:01:13Z</time>
      </trkpt>
      <trkpt lat="40.237490" lon="-5.890780">
        <ele>1112.008</ele>
        <time>2020-02-29T06:01:33Z</time>
      </trkpt>
      <trkpt lat="40.238110" lon="-5.891840">
        <ele>1108.747</ele>
        <time>2020-02-29T06:01:53Z</time>
      </trkpt>
      <trkpt lat="40.238310" lon="-5.892390">
        <ele>1102.770</ele>
        <time>2020-02-29T06:02:13Z</time>
      </trkpt>
      <trkpt lat="40.238320" lon="-5.892400">
        <ele>1102.865</ele>
        <time>2020-02-29T06:02:33Z</time>
      </trkpt>
      <trkpt lat="40.238360" lon="-5.892470">
        <ele>1101.356</ele>
        <time>2020-02-29T06:02:53Z</time>
      </trkpt>
      <trkpt lat="40.238400" lon="-5.892510">
        <ele>1100.319</ele>
        <time>2020-02-29T06:03:13Z</time>
      </trkpt>
      <trkpt lat="40.238440" lon="-5.892540">
        <ele>1099.438</ele>
        <time>2020-02-29T06:03:33Z</time>
      </trkpt>
      <trkpt lat="40.238450" lon="-5.892540">
        <ele>1099.569</ele>
        <time>2020-02-29T06:03:53Z</time>
      </trkpt>
      <trkpt lat="40.238490" lon="-5.892570">
        <ele>1098.566</ele>
        <time>2020-02-29T06:04:13Z</time>
      </trkpt>
      <trkpt lat="40.238600" lon="-5.892600">
        <ele>1098.291</ele>
        <time>2020-02-29T06:04:33Z</time>
      </trkpt>
      <trkpt lat="40.238620" lon="-5.892610">
        <ele>1097.981</ele>
        <time>2020-02-29T06:04:53Z</time>
      </trkpt>
      <trkpt lat="40.238800" lon="-5.892630">
        <ele>1098.319</ele>
        <time>2020-02-29T06:05:13Z</time>
      </trkpt>
      <trkpt lat="40.238860" lon="-5.892630">
        <ele>1098.708</ele>
        <time>2020-02-29T06:05:33Z</time>
      </trkpt>
      <trkpt lat="40.238980" lon="-5.892660">
        <ele>1099.383</ele>
        <time>2020-02-29T06:05:53Z</time>
      </trkpt>
      <trkpt lat="40.239050" lon="-5.892700">
        <ele>1099.316</ele>
        <time>2020-02-29T06:06:13Z</time>
      </trkpt>
      <trkpt lat="40.239130" lon="-5.892780">
        <ele>1098.951</ele>
        <time>2020-02-29T06:06:33Z</time>
      </trkpt>
      <trkpt lat="40.239250" lon="-5.892950">
        <ele>1096.232</ele>
        <time>2020-02-29T06:06:53Z</time>
      </trkpt>
      <trkpt lat="40.239270" lon="-5.892970">
        <ele>1096.185</ele>
        <time>2020-02-29T06:07:13Z</time>
      </trkpt>
      <trkpt lat="40.239460" lon="-5.893320">
        <ele>1091.194</ele>
        <time>2020-02-29T06:07:33Z</time>
      </trkpt>
      <trkpt lat="40.239460" lon="-5.893330">
        <ele>1090.815</ele>
        <time>2020-02-29T06:07:53Z</time>
      </trkpt>
      <trkpt lat="40.239990" lon="-5.894290">
        <ele>1084.292</ele>
        <time>2020-02-29T06:08:13Z</time>
      </trkpt>
      <trkpt lat="40.240080" lon="-5.894480">
        <ele>1082.587</ele>
        <time>2020-02-29T06:08:33Z</time>
      </trkpt>
      <trkpt lat="40.240090" lon="-5.894490">
        <ele>1082.742</ele>
        <time>2020-02-29T06:08:53Z</time>
      </trkpt>
      <trkpt lat="40.240130" lon="-5.894630">
        <ele>1082.726</ele>
        <time>2020-02-29T06:09:13Z</time>
      </trkpt>
      <trkpt lat="40.240140" lon="-5.894690">
        <ele>1082.408</ele>
        <time>2020-02-29T06:09:33Z</time>
      </trkpt>
      <trkpt lat="40.240140" lon="-5.894770">
        <ele>1081.422</ele>
        <time>2020-02-29T06:09:53Z</time>
      </trkpt>
      <trkpt lat="40.240080" lon="-5.895140">
        <ele>1075.165</ele>
        <time>2020-02-29T06:10:13Z</time>
      </trkpt>
      <trkpt lat="40.240070" lon="-5.895170">
        <ele>1074.430</ele>
        <time>2020-02-29T06:10:33Z</time>
      </trkpt>
      <trkpt lat="40.240070" lon="-5.895280">
        <ele>1073.241</ele>
        <time>2020-02-29T06:10:53Z</time>
      </trkpt>
      <trkpt lat="40.240080" lon="-5.895330">
        <ele>1072.164</ele>
        <time>2020-02-29T06:11:13Z</time>
      </trkpt>
      <trkpt lat="40.240100" lon="-5.895380">
        <ele>1071.283</ele>
        <time>2020-02-29T06:11:33Z</time>
      </trkpt>
      <trkpt lat="40.240130" lon="-5.895420">
        <ele>1070.784</ele>
        <time>2020-02-29T06:11:53Z</time>
      </trkpt>
      <trkpt lat="40.240210" lon="-5.895470">
        <ele>1070.581</ele>
        <time>2020-02-29T06:12:13Z</time>
      </trkpt>
      <trkpt lat="40.240270" lon="-5.895490">
        <ele>1070.791</ele>
        <time>2020-02-29T06:12:33Z</time>
      </trkpt>
      <trkpt lat="40.240290" lon="-5.895490">
        <ele>1070.881</ele>
        <time>2020-02-29T06:12:53Z</time>
      </trkpt>
      <trkpt lat="40.240510" lon="-5.895530">
        <ele>1069.019</ele>
        <time>2020-02-29T06:13:13Z</time>
      </trkpt>
      <trkpt lat="40.240640" lon="-5.895510">
        <ele>1069.708</ele>
        <time>2020-02-29T06:13:33Z</time>
      </trkpt>
      <trkpt lat="40.240780" lon="-5.895540">
        <ele>1068.563</ele>
        <time>2020-02-29T06:13:53Z</time>
      </trkpt>
      <trkpt lat="40.240820" lon="-5.895540">
        <ele>1068.536</ele>
        <time>2020-02-29T06:14:13Z</time>
      </trkpt>
      <trkpt lat="40.240970" lon="-5.895620">
        <ele>1067.881</ele>
        <time>2020-02-29T06:14:33Z</time>
      </trkpt>
      <trkpt lat="40.241140" lon="-5.895750">
        <ele>1066.222</ele>
        <time>2020-02-29T06:14:53Z</time>
      </trkpt>
      <trkpt lat="40.241690" lon="-5.896240">
        <ele>1062.135</ele>
        <time>2020-02-29T06:15:13Z</time>
      </trkpt>
      <trkpt lat="40.241780" lon="-5.896370">
        <ele>1061.824</ele>
        <time>2020-02-29T06:15:33Z</time>
      </trkpt>
      <trkpt lat="40.241810" lon="-5.896440">
        <ele>1061.445</ele>
        <time>2020-02-29T06:15:53Z</time>
      </trkpt>
      <trkpt lat="40.241880" lon="-5.896780">
        <ele>1059.152</ele>
        <time>2020-02-29T06:16:13Z</time>
      </trkpt>
      <trkpt lat="40.241900" lon="-5.897000">
        <ele>1058.499</ele>
        <time>2020-02-29T06:16:33Z</time>
      </trkpt>
      <trkpt lat="40.241830" lon="-5.897630">
        <ele>1055.707</ele>
        <time>2020-02-29T06:16:53Z</time>
      </trkpt>
      <trkpt lat="40.241690" lon="-5.898550">
        <ele>1046.927</ele>
        <time>2020-02-29T06:17:13Z</time>
      </trkpt>
      <trkpt lat="40.241690" lon="-5.898740">
        <ele>1044.108</ele>
        <time>2020-02-29T06:17:33Z</time>
      </trkpt>
      <trkpt lat="40.241730" lon="-5.898850">
        <ele>1043.633</ele>
        <time>2020-02-29T06:17:53Z</time>
      </trkpt>
      <trkpt lat="40.241830" lon="-5.898970">
        <ele>1044.526</ele>
        <time>2020-02-29T06:18:13Z</time>
      </trkpt>
      <trkpt lat="40.241840" lon="-5.898990">
        <ele>1044.491</ele>
        <time>2020-02-29T06:18:33Z</time>
      </trkpt>
      <trkpt lat="40.241880" lon="-5.899020">
        <ele>1045.062</ele>
        <time>2020-02-29T06:18:53Z</time>
      </trkpt>
      <trkpt lat="40.241920" lon="-5.899060">
        <ele>1045.335</ele>
        <time>2020-02-29T06:19:13Z</time>
      </trkpt>
      <trkpt lat="40.241940" lon="-5.899070">
        <ele>1045.684</ele>
        <time>2020-02-29T06:19:33Z</time>
      </trkpt>
      <trkpt lat="40.241950" lon="-5.899090">
        <ele>1045.465</ele>
        <time>2020-02-29T06:19:53Z</time>
      </trkpt>
      <trkpt lat="40.241960" lon="-5.899100">
        <ele>1045.232</ele>
        <time>2020-02-29T06:20:13Z</time>
      </trkpt>
      <trkpt lat="40.241970" lon="-5.899120">
        <ele>1044.944</ele>
        <time>2020-02-29T06:20:33Z</time>
      </trkpt>
      <trkpt lat="40.241980" lon="-5.899130">
        <ele>1044.705</ele>
        <time>2020-02-29T06:20:53Z</time>
      </trkpt>
      <trkpt lat="40.241980" lon="-5.899150">
        <ele>1044.315</ele>
        <time>2020-02-29T06:21:13Z</time>
      </trkpt>
      <trkpt lat="40.241990" lon="-5.899160">
        <ele>1044.108</ele>
        <time>2020-02-29T06:21:33Z</time>
      </trkpt>
      <trkpt lat="40.241990" lon="-5.899240">
        <ele>1042.418</ele>
        <time>2020-02-29T06:21:53Z</time>
      </trkpt>
      <trkpt lat="40.241980" lon="-5.899250">
        <ele>1042.281</ele>
        <time>2020-02-29T06:22:13Z</time>
      </trkpt>
      <trkpt lat="40.241960" lon="-5.899300">
        <ele>1041.156</ele>
        <time>2020-02-29T06:22:33Z</time>
      </trkpt>
      <trkpt lat="40.241950" lon="-5.899310">
        <ele>1040.967</ele>
        <time>2020-02-29T06:22:53Z</time>
      </trkpt>
      <trkpt lat="40.241950" lon="-5.899320">
        <ele>1040.740</ele>
        <time>2020-02-29T06:23:13Z</time>
      </trkpt>
      <trkpt lat="40.241930" lon="-5.899330">
        <ele>1040.379</ele>
        <time>2020-02-29T06:23:33Z</time>
      </trkpt>
      <trkpt lat="40.241860" lon="-5.899330">
        <ele>1039.280</ele>
        <time>2020-02-29T06:23:53Z</time>
      </trkpt>
      <trkpt lat="40.241830" lon="-5.899320">
        <ele>1038.927</ele>
        <time>2020-02-29T06:24:13Z</time>
      </trkpt>
      <trkpt lat="40.241780" lon="-5.899270">
        <ele>1038.933</ele>
        <time>2020-02-29T06:24:33Z</time>
      </trkpt>
      <trkpt lat="40.241750" lon="-5.899250">
        <ele>1038.623</ele>
        <time>2020-02-29T06:24:53Z</time>
      </trkpt>
      <trkpt lat="40.241640" lon="-5.899090">
        <ele>1038.215</ele>
        <time>2020-02-29T06:25:13Z</time>
      </trkpt>
      <trkpt lat="40.241590" lon="-5.898990">
        <ele>1038.008</ele>
        <time>2020-02-29T06:25:33Z</time>
      </trkpt>
      <trkpt lat="40.241570" lon="-5.898900">
        <ele>1038.437</ele>
        <time>2020-02-29T06:25:53Z</time>
      </trkpt>
      <trkpt lat="40.241560" lon="-5.898880">
        <ele>1038.440</ele>
        <time>2020-02-29T06:26:13Z</time>
      </trkpt>
      <trkpt lat="40.241520" lon="-5.898560">
        <ele>1040.745</ele>
        <time>2020-02-29T06:26:33Z</time>
      </trkpt>
      <trkpt lat="40.241590" lon="-5.897500">
        <ele>1046.216</ele>
        <time>2020-02-29T06:26:53Z</time>
      </trkpt>
      <trkpt lat="40.241580" lon="-5.897450">
        <ele>1045.999</ele>
        <time>2020-02-29T06:27:13Z</time>
      </trkpt>
      <trkpt lat="40.241550" lon="-5.897370">
        <ele>1044.868</ele>
        <time>2020-02-29T06:27:33Z</time>
      </trkpt>
      <trkpt lat="40.241500" lon="-5.897340">
        <ele>1043.049</ele>
        <time>2020-02-29T06:27:53Z</time>
      </trkpt>
      <trkpt lat="40.241450" lon="-5.897340">
        <ele>1041.286</ele>
        <time>2020-02-29T06:28:13Z</time>
      </trkpt>
      <trkpt lat="40.241420" lon="-5.897360">
        <ele>1040.131</ele>
        <time>2020-02-29T06:28:33Z</time>
      </trkpt>
      <trkpt lat="40.241380" lon="-5.897400">
        <ele>1038.761</ele>
        <time>2020-02-29T06:28:53Z</time>
      </trkpt>
      <trkpt lat="40.241360" lon="-5.897440">
        <ele>1037.807</ele>
        <time>2020-02-29T06:29:13Z</time>
      </trkpt>
      <trkpt lat="40.241360" lon="-5.897470">
        <ele>1037.808</ele>
        <time>2020-02-29T06:29:33Z</time>
      </trkpt>
      <trkpt lat="40.241350" lon="-5.897510">
        <ele>1037.337</ele>
        <time>2020-02-29T06:29:53Z</time>
      </trkpt>
      <trkpt lat="40.241350" lon="-5.897540">
        <ele>1037.180</ele>
        <time>2020-02-29T06:30:13Z</time>
      </trkpt>
      <trkpt lat="40.241360" lon="-5.897590">
        <ele>1037.425</ele>
        <time>2020-02-29T06:30:33Z</time>
      </trkpt>
      <trkpt lat="40.241360" lon="-5.897610">
        <ele>1037.386</ele>
        <time>2020-02-29T06:30:53Z</time>
      </trkpt>
      <trkpt lat="40.241370" lon="-5.897660">
        <ele>1037.519</ele>
        <time>2020-02-29T06:31:13Z</time>
      </trkpt>
      <trkpt lat="40.241370" lon="-5.897710">
        <ele>1037.328</ele>
        <time>2020-02-29T06:31:33Z</time>
      </trkpt>
      <trkpt lat="40.241380" lon="-5.897770">
        <ele>1037.629</ele>
        <time>2020-02-29T06:31:53Z</time>
      </trkpt>
      <trkpt lat="40.241350" lon="-5.898120">
        <ele>1036.136</ele>
        <time>2020-02-29T06:32:13Z</time>
      </trkpt>
      <trkpt lat="40.241250" lon="-5.898560">
        <ele>1029.928</ele>
        <time>2020-02-29T06:32:33Z</time>
      </trkpt>
      <trkpt lat="40.241250" lon="-5.898870">
        <ele>1027.689</ele>
        <time>2020-02-29T06:32:53Z</time>
      </trkpt>
      <trkpt lat="40.241300" lon="-5.899340">
        <ele>1025.517</ele>
        <time>2020-02-29T06:33:13Z</time>
      </trkpt>
      <trkpt lat="40.241340" lon="-5.899560">
        <ele>1023.808</ele>
        <time>2020-02-29T06:33:33Z</time>
      </trkpt>
      <trkpt lat="40.241490" lon="-5.899950">
        <ele>1019.526</ele>
        <time>2020-02-29T06:33:53Z</time>
      </trkpt>
      <trkpt lat="40.241560" lon="-5.900050">
        <ele>1018.629</ele>
        <time>2020-02-29T06:34:13Z</time>
      </trkpt>
      <trkpt lat="40.241630" lon="-5.900120">
        <ele>1018.174</ele>
        <time>2020-02-29T06:34:33Z</time>
      </trkpt>
      <trkpt lat="40.241690" lon="-5.900150">
        <ele>1018.295</ele>
        <time>2020-02-29T06:34:53Z</time>
      </trkpt>
      <trkpt lat="40.241820" lon="-5.900190">
        <ele>1017.418</ele>
        <time>2020-02-29T06:35:13Z</time>
      </trkpt>
      <trkpt lat="40.242500" lon="-5.900300">
        <ele>1014.277</ele>
        <time>2020-02-29T06:35:33Z</time>
      </trkpt>
      <trkpt lat="40.242730" lon="-5.900300">
        <ele>1014.258</ele>
        <time>2020-02-29T06:35:53Z</time>
      </trkpt>
      <trkpt lat="40.242960" lon="-5.900280">
        <ele>1011.675</ele>
        <time>2020-02-29T06:36:13Z</time>
      </trkpt>
      <trkpt lat="40.243050" lon="-5.900240">
        <ele>1011.264</ele>
        <time>2020-02-29T06:36:33Z</time>
      </trkpt>
      <trkpt lat="40.243160" lon="-5.900140">
        <ele>1011.706</ele>
        <time>2020-02-29T06:36:53Z</time>
      </trkpt>
      <trkpt lat="40.243280" lon="-5.900000">
        <ele>1012.316</ele>
        <time>2020-02-29T06:37:13Z</time>
      </trkpt>
      <trkpt lat="40.243440" lon="-5.899780">
        <ele>1011.608</ele>
        <time>2020-02-29T06:37:33Z</time>
      </trkpt>
      <trkpt lat="40.243640" lon="-5.899460">
        <ele>1010.010</ele>
        <time>2020-02-29T06:37:53Z</time>
      </trkpt>
      <trkpt lat="40.243840" lon="-5.899050">
        <ele>1006.723</ele>
        <time>2020-02-29T06:38:13Z</time>
      </trkpt>
      <trkpt lat="40.243950" lon="-5.898750">
        <ele>1005.488</ele>
        <time>2020-02-29T06:38:33Z</time>
      </trkpt>
      <trkpt lat="40.244000" lon="-5.898540">
        <ele>1005.049</ele>
        <time>2020-02-29T06:38:53Z</time>
      </trkpt>
      <trkpt lat="40.244070" lon="-5.898060">
        <ele>1003.152</ele>
        <time>2020-02-29T06:39:13Z</time>
      </trkpt>
      <trkpt lat="40.244080" lon="-5.898050">
        <ele>1002.891</ele>
        <time>2020-02-29T06:39:33Z</time>
      </trkpt>
      <trkpt lat="40.244160" lon="-5.897390">
        <ele>999.372</ele>
        <time>2020-02-29T06:39:53Z</time>
      </trkpt>
      <trkpt lat="40.244170" lon="-5.897360">
        <ele>998.949</ele>
        <time>2020-02-29T06:40:13Z</time>
      </trkpt>
      <trkpt lat="40.244340" lon="-5.895730">
        <ele>994.999</ele>
        <time>2020-02-29T06:40:33Z</time>
      </trkpt>
      <trkpt lat="40.244400" lon="-5.895450">
        <ele>993.707</ele>
        <time>2020-02-29T06:40:53Z</time>
      </trkpt>
      <trkpt lat="40.244480" lon="-5.895180">
        <ele>990.427</ele>
        <time>2020-02-29T06:41:13Z</time>
      </trkpt>
      <trkpt lat="40.244760" lon="-5.894460">
        <ele>982.308</ele>
        <time>2020-02-29T06:41:33Z</time>
      </trkpt>
      <trkpt lat="40.244760" lon="-5.894440">
        <ele>982.623</ele>
        <time>2020-02-29T06:41:53Z</time>
      </trkpt>
      <trkpt lat="40.244830" lon="-5.894220">
        <ele>983.026</ele>
        <time>2020-02-29T06:42:13Z</time>
      </trkpt>
      <trkpt lat="40.244850" lon="-5.894190">
        <ele>982.671</ele>
        <time>2020-02-29T06:42:33Z</time>
      </trkpt>
      <trkpt lat="40.244930" lon="-5.893890">
        <ele>983.052</ele>
        <time>2020-02-29T06:42:53Z</time>
      </trkpt>
      <trkpt lat="40.244980" lon="-5.893770">
        <ele>983.035</ele>
        <time>2020-02-29T06:43:13Z</time>
      </trkpt>
      <trkpt lat="40.245050" lon="-5.893670">
        <ele>982.164</ele>
        <time>2020-02-29T06:43:33Z</time>
      </trkpt>
      <trkpt lat="40.245320" lon="-5.893420">
        <ele>977.655</ele>
        <time>2020-02-29T06:43:53Z</time>
      </trkpt>
      <trkpt lat="40.245510" lon="-5.893160">
        <ele>977.012</ele>
        <time>2020-02-29T06:44:13Z</time>
      </trkpt>
      <trkpt lat="40.245570" lon="-5.893060">
        <ele>977.256</ele>
        <time>2020-02-29T06:44:33Z</time>
      </trkpt>
      <trkpt lat="40.245630" lon="-5.892990">
        <ele>975.959</ele>
        <time>2020-02-29T06:44:53Z</time>
      </trkpt>
      <trkpt lat="40.245770" lon="-5.892780">
        <ele>974.114</ele>
        <time>2020-02-29T06:45:13Z</time>
      </trkpt>
      <trkpt lat="40.246020" lon="-5.892500">
        <ele>970.608</ele>
        <time>2020-02-29T06:45:33Z</time>
      </trkpt>
      <trkpt lat="40.246020" lon="-5.892490">
        <ele>971.059</ele>
        <time>2020-02-29T06:45:53Z</time>
      </trkpt>
      <trkpt lat="40.246400" lon="-5.892010">
        <ele>964.292</ele>
        <time>2020-02-29T06:46:13Z</time>
      </trkpt>
      <trkpt lat="40.246550" lon="-5.891780">
        <ele>963.697</ele>
        <time>2020-02-29T06:46:33Z</time>
      </trkpt>
      <trkpt lat="40.246630" lon="-5.891610">
        <ele>962.428</ele>
        <time>2020-02-29T06:46:53Z</time>
      </trkpt>
      <trkpt lat="40.246670" lon="-5.891470">
        <ele>961.321</ele>
        <time>2020-02-29T06:47:13Z</time>
      </trkpt>
      <trkpt lat="40.246680" lon="-5.891410">
        <ele>961.490</ele>
        <time>2020-02-29T06:47:33Z</time>
      </trkpt>
      <trkpt lat="40.246680" lon="-5.891350">
        <ele>961.851</ele>
        <time>2020-02-29T06:47:53Z</time>
      </trkpt>
      <trkpt lat="40.246700" lon="-5.891180">
        <ele>962.388</ele>
        <time>2020-02-29T06:48:13Z</time>
      </trkpt>
      <trkpt lat="40.246700" lon="-5.891120">
        <ele>962.759</ele>
        <time>2020-02-29T06:48:33Z</time>
      </trkpt>
      <trkpt lat="40.246740" lon="-5.890780">
        <ele>963.203</ele>
        <time>2020-02-29T06:48:53Z</time>
      </trkpt>
      <trkpt lat="40.246790" lon="-5.890610">
        <ele>961.823</ele>
        <time>2020-02-29T06:49:13Z</time>
      </trkpt>
      <trkpt lat="40.246960" lon="-5.890150">
        <ele>960.108</ele>
        <time>2020-02-29T06:49:33Z</time>
      </trkpt>
      <trkpt lat="40.247000" lon="-5.890080">
        <ele>959.269</ele>
        <time>2020-02-29T06:49:53Z</time>
      </trkpt>
      <trkpt lat="40.247080" lon="-5.889900">
        <ele>958.112</ele>
        <time>2020-02-29T06:50:13Z</time>
      </trkpt>
      <trkpt lat="40.247250" lon="-5.889600">
        <ele>954.617</ele>
        <time>2020-02-29T06:50:33Z</time>
      </trkpt>
      <trkpt lat="40.247520" lon="-5.889210">
        <ele>948.578</ele>
        <time>2020-02-29T06:50:53Z</time>
      </trkpt>
      <trkpt lat="40.247760" lon="-5.888730">
        <ele>945.291</ele>
        <time>2020-02-29T06:51:13Z</time>
      </trkpt>
      <trkpt lat="40.248000" lon="-5.888130">
        <ele>940.070</ele>
        <time>2020-02-29T06:51:33Z</time>
      </trkpt>
      <trkpt lat="40.248100" lon="-5.887780">
        <ele>937.771</ele>
        <time>2020-02-29T06:51:53Z</time>
      </trkpt>
      <trkpt lat="40.248150" lon="-5.887550">
        <ele>936.398</ele>
        <time>2020-02-29T06:52:13Z</time>
      </trkpt>
      <trkpt lat="40.248170" lon="-5.887320">
        <ele>936.087</ele>
        <time>2020-02-29T06:52:33Z</time>
      </trkpt>
      <trkpt lat="40.248140" lon="-5.886840">
        <ele>933.942</ele>
        <time>2020-02-29T06:52:53Z</time>
      </trkpt>
      <trkpt lat="40.248080" lon="-5.886620">
        <ele>933.726</ele>
        <time>2020-02-29T06:53:13Z</time>
      </trkpt>
      <trkpt lat="40.247960" lon="-5.886300">
        <ele>931.508</ele>
        <time>2020-02-29T06:53:33Z</time>
      </trkpt>
      <trkpt lat="40.247880" lon="-5.886210">
        <ele>931.362</ele>
        <time>2020-02-29T06:53:53Z</time>
      </trkpt>
      <trkpt lat="40.247810" lon="-5.886150">
        <ele>930.925</ele>
        <time>2020-02-29T06:54:13Z</time>
      </trkpt>
      <trkpt lat="40.247740" lon="-5.886110">
        <ele>930.240</ele>
        <time>2020-02-29T06:54:33Z</time>
      </trkpt>
      <trkpt lat="40.247650" lon="-5.886080">
        <ele>930.041</ele>
        <time>2020-02-29T06:54:53Z</time>
      </trkpt>
      <trkpt lat="40.247560" lon="-5.886080">
        <ele>930.694</ele>
        <time>2020-02-29T06:55:13Z</time>
      </trkpt>
      <trkpt lat="40.247490" lon="-5.886070">
        <ele>930.663</ele>
        <time>2020-02-29T06:55:33Z</time>
      </trkpt>
      <trkpt lat="40.247380" lon="-5.886070">
        <ele>930.484</ele>
        <time>2020-02-29T06:55:53Z</time>
      </trkpt>
      <trkpt lat="40.247200" lon="-5.886050">
        <ele>929.591</ele>
        <time>2020-02-29T06:56:13Z</time>
      </trkpt>
      <trkpt lat="40.247040" lon="-5.885980">
        <ele>927.783</ele>
        <time>2020-02-29T06:56:33Z</time>
      </trkpt>
      <trkpt lat="40.246950" lon="-5.885890">
        <ele>925.425</ele>
        <time>2020-02-29T06:56:53Z</time>
      </trkpt>
      <trkpt lat="40.246900" lon="-5.885810">
        <ele>924.417</ele>
        <time>2020-02-29T06:57:13Z</time>
      </trkpt>
      <trkpt lat="40.246890" lon="-5.885800">
        <ele>924.408</ele>
        <time>2020-02-29T06:57:33Z</time>
      </trkpt>
      <trkpt lat="40.246850" lon="-5.885730">
        <ele>924.282</ele>
        <time>2020-02-29T06:57:53Z</time>
      </trkpt>
      <trkpt lat="40.246830" lon="-5.885630">
        <ele>923.585</ele>
        <time>2020-02-29T06:58:13Z</time>
      </trkpt>
      <trkpt lat="40.246830" lon="-5.885470">
        <ele>922.280</ele>
        <time>2020-02-29T06:58:33Z</time>
      </trkpt>
      <trkpt lat="40.246850" lon="-5.885230">
        <ele>920.511</ele>
        <time>2020-02-29T06:58:53Z</time>
      </trkpt>
      <trkpt lat="40.246860" lon="-5.884260">
        <ele>918.994</ele>
        <time>2020-02-29T06:59:13Z</time>
      </trkpt>
      <trkpt lat="40.246830" lon="-5.883660">
        <ele>917.693</ele>
        <time>2020-02-29T06:59:33Z</time>
      </trkpt>
      <trkpt lat="40.246780" lon="-5.883380">
        <ele>917.184</ele>
        <time>2020-02-29T06:59:53Z</time>
      </trkpt>
      <trkpt lat="40.246740" lon="-5.883270">
        <ele>917.071</ele>
        <time>2020-02-29T07:00:13Z</time>
      </trkpt>
      <trkpt lat="40.246740" lon="-5.883240">
        <ele>916.675</ele>
        <time>2020-02-29T07:00:33Z</time>
      </trkpt>
      <trkpt lat="40.246610" lon="-5.882950">
        <ele>915.028</ele>
        <time>2020-02-29T07:00:53Z</time>
      </trkpt>
      <trkpt lat="40.246570" lon="-5.882890">
        <ele>914.220</ele>
        <time>2020-02-29T07:01:13Z</time>
      </trkpt>
      <trkpt lat="40.246510" lon="-5.882840">
        <ele>913.708</ele>
        <time>2020-02-29T07:01:33Z</time>
      </trkpt>
      <trkpt lat="40.246450" lon="-5.882830">
        <ele>914.271</ele>
        <time>2020-02-29T07:01:53Z</time>
      </trkpt>
      <trkpt lat="40.246140" lon="-5.882850">
        <ele>918.584</ele>
        <time>2020-02-29T07:02:13Z</time>
      </trkpt>
      <trkpt lat="40.246000" lon="-5.882840">
        <ele>919.389</ele>
        <time>2020-02-29T07:02:33Z</time>
      </trkpt>
      <trkpt lat="40.245930" lon="-5.882820">
        <ele>919.020</ele>
        <time>2020-02-29T07:02:53Z</time>
      </trkpt>
      <trkpt lat="40.245890" lon="-5.882780">
        <ele>917.743</ele>
        <time>2020-02-29T07:03:13Z</time>
      </trkpt>
      <trkpt lat="40.245870" lon="-5.882730">
        <ele>917.162</ele>
        <time>2020-02-29T07:03:33Z</time>
      </trkpt>
      <trkpt lat="40.245860" lon="-5.882670">
        <ele>916.543</ele>
        <time>2020-02-29T07:03:53Z</time>
      </trkpt>
      <trkpt lat="40.245860" lon="-5.882590">
        <ele>915.570</ele>
        <time>2020-02-29T07:04:13Z</time>
      </trkpt>
      <trkpt lat="40.245880" lon="-5.882520">
        <ele>914.327</ele>
        <time>2020-02-29T07:04:33Z</time>
      </trkpt>
      <trkpt lat="40.246300" lon="-5.882060">
        <ele>904.568</ele>
        <time>2020-02-29T07:04:53Z</time>
      </trkpt>
      <trkpt lat="40.246340" lon="-5.882000">
        <ele>903.514</ele>
        <time>2020-02-29T07:05:13Z</time>
      </trkpt>
      <trkpt lat="40.246380" lon="-5.881920">
        <ele>902.808</ele>
        <time>2020-02-29T07:05:33Z</time>
      </trkpt>
      <trkpt lat="40.246500" lon="-5.881610">
        <ele>904.686</ele>
        <time>2020-02-29T07:05:53Z</time>
      </trkpt>
      <trkpt lat="40.246550" lon="-5.881440">
        <ele>904.699</ele>
        <time>2020-02-29T07:06:13Z</time>
      </trkpt>
      <trkpt lat="40.246590" lon="-5.880920">
        <ele>903.094</ele>
        <time>2020-02-29T07:06:33Z</time>
      </trkpt>
      <trkpt lat="40.246600" lon="-5.879760">
        <ele>898.045</ele>
        <time>2020-02-29T07:06:53Z</time>
      </trkpt>
      <trkpt lat="40.246700" lon="-5.879420">
        <ele>896.558</ele>
        <time>2020-02-29T07:07:13Z</time>
      </trkpt>
      <trkpt lat="40.246750" lon="-5.879290">
        <ele>896.417</ele>
        <time>2020-02-29T07:07:33Z</time>
      </trkpt>
      <trkpt lat="40.246810" lon="-5.879170">
        <ele>896.488</ele>
        <time>2020-02-29T07:07:53Z</time>
      </trkpt>
      <trkpt lat="40.246940" lon="-5.879010">
        <ele>896.215</ele>
        <time>2020-02-29T07:08:13Z</time>
      </trkpt>
      <trkpt lat="40.247000" lon="-5.878970">
        <ele>895.474</ele>
        <time>2020-02-29T07:08:33Z</time>
      </trkpt>
      <trkpt lat="40.247020" lon="-5.878950">
        <ele>895.356</ele>
        <time>2020-02-29T07:08:53Z</time>
      </trkpt>
      <trkpt lat="40.247130" lon="-5.878920">
        <ele>893.921</ele>
        <time>2020-02-29T07:09:13Z</time>
      </trkpt>
      <trkpt lat="40.247250" lon="-5.878940">
        <ele>892.308</ele>
        <time>2020-02-29T07:09:33Z</time>
      </trkpt>
      <trkpt lat="40.247350" lon="-5.878970">
        <ele>892.551</ele>
        <time>2020-02-29T07:09:53Z</time>
      </trkpt>
      <trkpt lat="40.247810" lon="-5.879320">
        <ele>884.794</ele>
        <time>2020-02-29T07:10:13Z</time>
      </trkpt>
      <trkpt lat="40.248010" lon="-5.879510">
        <ele>881.579</ele>
        <time>2020-02-29T07:10:33Z</time>
      </trkpt>
      <trkpt lat="40.248740" lon="-5.880390">
        <ele>871.880</ele>
        <time>2020-02-29T07:10:53Z</time>
      </trkpt>
      <trkpt lat="40.249040" lon="-5.880700">
        <ele>868.853</ele>
        <time>2020-02-29T07:11:13Z</time>
      </trkpt>
      <trkpt lat="40.249200" lon="-5.880820">
        <ele>867.842</ele>
        <time>2020-02-29T07:11:33Z</time>
      </trkpt>
      <trkpt lat="40.249210" lon="-5.880820">
        <ele>867.963</ele>
        <time>2020-02-29T07:11:53Z</time>
      </trkpt>
      <trkpt lat="40.249320" lon="-5.880870">
        <ele>866.990</ele>
        <time>2020-02-29T07:12:13Z</time>
      </trkpt>
      <trkpt lat="40.249720" lon="-5.880990">
        <ele>865.682</ele>
        <time>2020-02-29T07:12:33Z</time>
      </trkpt>
      <trkpt lat="40.249890" lon="-5.881060">
        <ele>864.543</ele>
        <time>2020-02-29T07:12:53Z</time>
      </trkpt>
      <trkpt lat="40.249930" lon="-5.881070">
        <ele>864.617</ele>
        <time>2020-02-29T07:13:13Z</time>
      </trkpt>
      <trkpt lat="40.250030" lon="-5.881130">
        <ele>864.108</ele>
        <time>2020-02-29T07:13:33Z</time>
      </trkpt>
      <trkpt lat="40.250170" lon="-5.881260">
        <ele>863.792</ele>
        <time>2020-02-29T07:13:53Z</time>
      </trkpt>
      <trkpt lat="40.250290" lon="-5.881430">
        <ele>861.825</ele>
        <time>2020-02-29T07:14:13Z</time>
      </trkpt>
      <trkpt lat="40.250460" lon="-5.881620">
        <ele>859.150</ele>
        <time>2020-02-29T07:14:33Z</time>
      </trkpt>
      <trkpt lat="40.250570" lon="-5.881680">
        <ele>859.651</ele>
        <time>2020-02-29T07:14:53Z</time>
      </trkpt>
      <trkpt lat="40.250770" lon="-5.881720">
        <ele>858.324</ele>
        <time>2020-02-29T07:15:13Z</time>
      </trkpt>
      <trkpt lat="40.250820" lon="-5.881720">
        <ele>858.363</ele>
        <time>2020-02-29T07:15:33Z</time>
      </trkpt>
      <trkpt lat="40.250970" lon="-5.881690">
        <ele>857.354</ele>
        <time>2020-02-29T07:15:53Z</time>
      </trkpt>
      <trkpt lat="40.250990" lon="-5.881690">
        <ele>857.091</ele>
        <time>2020-02-29T07:16:13Z</time>
      </trkpt>
      <trkpt lat="40.251160" lon="-5.881630">
        <ele>856.055</ele>
        <time>2020-02-29T07:16:33Z</time>
      </trkpt>
      <trkpt lat="40.251170" lon="-5.881630">
        <ele>855.807</ele>
        <time>2020-02-29T07:16:53Z</time>
      </trkpt>
      <trkpt lat="40.251470" lon="-5.881460">
        <ele>855.117</ele>
        <time>2020-02-29T07:17:13Z</time>
      </trkpt>
      <trkpt lat="40.251490" lon="-5.881440">
        <ele>855.308</ele>
        <time>2020-02-29T07:17:33Z</time>
      </trkpt>
      <trkpt lat="40.252170" lon="-5.881060">
        <ele>849.719</ele>
        <time>2020-02-29T07:17:53Z</time>
      </trkpt>
      <trkpt lat="40.252490" lon="-5.880920">
        <ele>848.212</ele>
        <time>2020-02-29T07:18:13Z</time>
      </trkpt>
      <trkpt lat="40.253050" lon="-5.880590">
        <ele>840.227</ele>
        <time>2020-02-29T07:18:33Z</time>
      </trkpt>
      <trkpt lat="40.253090" lon="-5.880540">
        <ele>839.118</ele>
        <time>2020-02-29T07:18:53Z</time>
      </trkpt>
      <trkpt lat="40.253110" lon="-5.880490">
        <ele>838.521</ele>
        <time>2020-02-29T07:19:13Z</time>
      </trkpt>
      <trkpt lat="40.253120" lon="-5.880480">
        <ele>838.290</ele>
        <time>2020-02-29T07:19:33Z</time>
      </trkpt>
      <trkpt lat="40.253140" lon="-5.880380">
        <ele>837.381</ele>
        <time>2020-02-29T07:19:53Z</time>
      </trkpt>
      <trkpt lat="40.253150" lon="-5.880220">
        <ele>835.828</ele>
        <time>2020-02-29T07:20:13Z</time>
      </trkpt>
      <trkpt lat="40.253110" lon="-5.880060">
        <ele>835.258</ele>
        <time>2020-02-29T07:20:33Z</time>
      </trkpt>
      <trkpt lat="40.253090" lon="-5.880030">
        <ele>835.852</ele>
        <time>2020-02-29T07:20:53Z</time>
      </trkpt>
      <trkpt lat="40.253010" lon="-5.879820">
        <ele>836.617</ele>
        <time>2020-02-29T07:21:13Z</time>
      </trkpt>
      <trkpt lat="40.252910" lon="-5.879620">
        <ele>838.808</ele>
        <time>2020-02-29T07:21:33Z</time>
      </trkpt>
      <trkpt lat="40.252830" lon="-5.879420">
        <ele>838.459</ele>
        <time>2020-02-29T07:21:53Z</time>
      </trkpt>
      <trkpt lat="40.252830" lon="-5.879410">
        <ele>838.282</ele>
        <time>2020-02-29T07:22:13Z</time>
      </trkpt>
      <trkpt lat="40.252790" lon="-5.879280">
        <ele>837.717</ele>
        <time>2020-02-29T07:22:33Z</time>
      </trkpt>
      <trkpt lat="40.252780" lon="-5.879190">
        <ele>836.438</ele>
        <time>2020-02-29T07:22:53Z</time>
      </trkpt>
      <trkpt lat="40.252790" lon="-5.879110">
        <ele>834.951</ele>
        <time>2020-02-29T07:23:13Z</time>
      </trkpt>
      <trkpt lat="40.252820" lon="-5.879030">
        <ele>832.840</ele>
        <time>2020-02-29T07:23:33Z</time>
      </trkpt>
      <trkpt lat="40.252860" lon="-5.878990">
        <ele>830.611</ele>
        <time>2020-02-29T07:23:53Z</time>
      </trkpt>
      <trkpt lat="40.252920" lon="-5.878960">
        <ele>827.748</ele>
        <time>2020-02-29T07:24:13Z</time>
      </trkpt>
      <trkpt lat="40.253060" lon="-5.878920">
        <ele>821.753</ele>
        <time>2020-02-29T07:24:33Z</time>
      </trkpt>
      <trkpt lat="40.253200" lon="-5.878930">
        <ele>821.804</ele>
        <time>2020-02-29T07:24:53Z</time>
      </trkpt>
      <trkpt lat="40.253740" lon="-5.878900">
        <ele>822.114</ele>
        <time>2020-02-29T07:25:13Z</time>
      </trkpt>
      <trkpt lat="40.253920" lon="-5.878860">
        <ele>823.108</ele>
        <time>2020-02-29T07:25:33Z</time>
      </trkpt>
      <trkpt lat="40.254100" lon="-5.878790">
        <ele>825.919</ele>
        <time>2020-02-29T07:25:53Z</time>
      </trkpt>
      <trkpt lat="40.254280" lon="-5.878750">
        <ele>827.542</ele>
        <time>2020-02-29T07:26:13Z</time>
      </trkpt>
      <trkpt lat="40.254460" lon="-5.878750">
        <ele>827.527</ele>
        <time>2020-02-29T07:26:33Z</time>
      </trkpt>
      <trkpt lat="40.254550" lon="-5.878780">
        <ele>826.558</ele>
        <time>2020-02-29T07:26:53Z</time>
      </trkpt>
      <trkpt lat="40.254590" lon="-5.878830">
        <ele>824.951</ele>
        <time>2020-02-29T07:27:13Z</time>
      </trkpt>
      <trkpt lat="40.254620" lon="-5.878910">
        <ele>822.520</ele>
        <time>2020-02-29T07:27:33Z</time>
      </trkpt>
      <trkpt lat="40.254720" lon="-5.879550">
        <ele>809.331</ele>
        <time>2020-02-29T07:27:53Z</time>
      </trkpt>
      <trkpt lat="40.254740" lon="-5.879600">
        <ele>808.248</ele>
        <time>2020-02-29T07:28:13Z</time>
      </trkpt>
      <trkpt lat="40.254790" lon="-5.879680">
        <ele>806.887</ele>
        <time>2020-02-29T07:28:33Z</time>
      </trkpt>
      <trkpt lat="40.254940" lon="-5.879820">
        <ele>804.842</ele>
        <time>2020-02-29T07:28:53Z</time>
      </trkpt>
      <trkpt lat="40.255320" lon="-5.880030">
        <ele>806.026</ele>
        <time>2020-02-29T07:29:13Z</time>
      </trkpt>
      <trkpt lat="40.255440" lon="-5.880120">
        <ele>805.708</ele>
        <time>2020-02-29T07:29:33Z</time>
      </trkpt>
      <trkpt lat="40.255700" lon="-5.880440">
        <ele>801.392</ele>
        <time>2020-02-29T07:29:53Z</time>
      </trkpt>
      <trkpt lat="40.255780" lon="-5.880470">
        <ele>801.335</ele>
        <time>2020-02-29T07:30:13Z</time>
      </trkpt>
      <trkpt lat="40.255840" lon="-5.880480">
        <ele>801.590</ele>
        <time>2020-02-29T07:30:33Z</time>
      </trkpt>
      <trkpt lat="40.255890" lon="-5.880460">
        <ele>801.191</ele>
        <time>2020-02-29T07:30:53Z</time>
      </trkpt>
      <trkpt lat="40.255910" lon="-5.880430">
        <ele>801.534</ele>
        <time>2020-02-29T07:31:13Z</time>
      </trkpt>
      <trkpt lat="40.255920" lon="-5.880430">
        <ele>801.343</ele>
        <time>2020-02-29T07:31:33Z</time>
      </trkpt>
      <trkpt lat="40.256050" lon="-5.880010">
        <ele>807.764</ele>
        <time>2020-02-29T07:31:53Z</time>
      </trkpt>
      <trkpt lat="40.256120" lon="-5.879900">
        <ele>808.361</ele>
        <time>2020-02-29T07:32:13Z</time>
      </trkpt>
      <trkpt lat="40.256180" lon="-5.879830">
        <ele>808.369</ele>
        <time>2020-02-29T07:32:33Z</time>
      </trkpt>
      <trkpt lat="40.256190" lon="-5.879830">
        <ele>808.104</ele>
        <time>2020-02-29T07:32:53Z</time>
      </trkpt>
      <trkpt lat="40.256370" lon="-5.879740">
        <ele>806.924</ele>
        <time>2020-02-29T07:33:13Z</time>
      </trkpt>
      <trkpt lat="40.256640" lon="-5.879560">
        <ele>803.608</ele>
        <time>2020-02-29T07:33:33Z</time>
      </trkpt>
      <trkpt lat="40.257240" lon="-5.879080">
        <ele>794.910</ele>
        <time>2020-02-29T07:33:53Z</time>
      </trkpt>
      <trkpt lat="40.257320" lon="-5.878980">
        <ele>793.893</ele>
        <time>2020-02-29T07:34:13Z</time>
      </trkpt>
      <trkpt lat="40.257370" lon="-5.878900">
        <ele>793.528</ele>
        <time>2020-02-29T07:34:33Z</time>
      </trkpt>
      <trkpt lat="40.257390" lon="-5.878840">
        <ele>793.199</ele>
        <time>2020-02-29T07:34:53Z</time>
      </trkpt>
      <trkpt lat="40.257460" lon="-5.878430">
        <ele>792.032</ele>
        <time>2020-02-29T07:35:13Z</time>
      </trkpt>
      <trkpt lat="40.257460" lon="-5.878150">
        <ele>795.111</ele>
        <time>2020-02-29T07:35:33Z</time>
      </trkpt>
      <trkpt lat="40.257440" lon="-5.877920">
        <ele>798.652</ele>
        <time>2020-02-29T07:35:53Z</time>
      </trkpt>
      <trkpt lat="40.257440" lon="-5.877700">
        <ele>800.769</ele>
        <time>2020-02-29T07:36:13Z</time>
      </trkpt>
      <trkpt lat="40.257480" lon="-5.877460">
        <ele>801.072</ele>
        <time>2020-02-29T07:36:33Z</time>
      </trkpt>
      <trkpt lat="40.257490" lon="-5.877450">
        <ele>800.613</ele>
        <time>2020-02-29T07:36:53Z</time>
      </trkpt>
      <trkpt lat="40.257550" lon="-5.877270">
        <ele>798.814</ele>
        <time>2020-02-29T07:37:13Z</time>
      </trkpt>
      <trkpt lat="40.257570" lon="-5.877240">
        <ele>798.208</ele>
        <time>2020-02-29T07:37:33Z</time>
      </trkpt>
      <trkpt lat="40.257730" lon="-5.876910">
        <ele>793.781</ele>
        <time>2020-02-29T07:37:53Z</time>
      </trkpt>
      <trkpt lat="40.258040" lon="-5.876430">
        <ele>789.064</ele>
        <time>2020-02-29T07:38:13Z</time>
      </trkpt>
      <trkpt lat="40.258170" lon="-5.876160">
        <ele>785.259</ele>
        <time>2020-02-29T07:38:33Z</time>
      </trkpt>
      <trkpt lat="40.258250" lon="-5.875920">
        <ele>783.510</ele>
        <time>2020-02-29T07:38:53Z</time>
      </trkpt>
      <trkpt lat="40.258310" lon="-5.875580">
        <ele>782.813</ele>
        <time>2020-02-29T07:39:13Z</time>
      </trkpt>
      <trkpt lat="40.258310" lon="-5.875410">
        <ele>782.442</ele>
        <time>2020-02-29T07:39:33Z</time>
      </trkpt>
      <trkpt lat="40.258230" lon="-5.874710">
        <ele>783.053</ele>
        <time>2020-02-29T07:39:53Z</time>
      </trkpt>
      <trkpt lat="40.258240" lon="-5.874470">
        <ele>781.810</ele>
        <time>2020-02-29T07:40:13Z</time>
      </trkpt>
      <trkpt lat="40.258350" lon="-5.873780">
        <ele>777.895</ele>
        <time>2020-02-29T07:40:33Z</time>
      </trkpt>
      <trkpt lat="40.258490" lon="-5.873350">
        <ele>774.349</ele>
        <time>2020-02-29T07:40:53Z</time>
      </trkpt>
      <trkpt lat="40.258570" lon="-5.873180">
        <ele>773.523</ele>
        <time>2020-02-29T07:41:13Z</time>
      </trkpt>
      <trkpt lat="40.258650" lon="-5.873060">
        <ele>772.708</ele>
        <time>2020-02-29T07:41:33Z</time>
      </trkpt>
      <trkpt lat="40.258730" lon="-5.872960">
        <ele>771.483</ele>
        <time>2020-02-29T07:41:53Z</time>
      </trkpt>
      <trkpt lat="40.258810" lon="-5.872900">
        <ele>769.476</ele>
        <time>2020-02-29T07:42:13Z</time>
      </trkpt>
      <trkpt lat="40.258930" lon="-5.872620">
        <ele>767.931</ele>
        <time>2020-02-29T07:42:33Z</time>
      </trkpt>
      <trkpt lat="40.258930" lon="-5.872570">
        <ele>768.252</ele>
        <time>2020-02-29T07:42:53Z</time>
      </trkpt>
      <trkpt lat="40.258950" lon="-5.872480">
        <ele>768.115</ele>
        <time>2020-02-29T07:43:13Z</time>
      </trkpt>
      <trkpt lat="40.258950" lon="-5.871760">
        <ele>768.754</ele>
        <time>2020-02-29T07:43:33Z</time>
      </trkpt>
      <trkpt lat="40.258920" lon="-5.871170">
        <ele>766.395</ele>
        <time>2020-02-29T07:43:53Z</time>
      </trkpt>
      <trkpt lat="40.258890" lon="-5.870970">
        <ele>765.472</ele>
        <time>2020-02-29T07:44:13Z</time>
      </trkpt>
      <trkpt lat="40.258810" lon="-5.870640">
        <ele>765.747</ele>
        <time>2020-02-29T07:44:33Z</time>
      </trkpt>
      <trkpt lat="40.258600" lon="-5.870110">
        <ele>766.029</ele>
        <time>2020-02-29T07:44:53Z</time>
      </trkpt>
      <trkpt lat="40.258600" lon="-5.870100">
        <ele>765.821</ele>
        <time>2020-02-29T07:45:13Z</time>
      </trkpt>
      <trkpt lat="40.258420" lon="-5.869720">
        <ele>766.208</ele>
        <time>2020-02-29T07:45:33Z</time>
      </trkpt>
      <trkpt lat="40.258420" lon="-5.869710">
        <ele>766.158</ele>
        <time>2020-02-29T07:45:53Z</time>
      </trkpt>
      <trkpt lat="40.258380" lon="-5.869600">
        <ele>766.761</ele>
        <time>2020-02-29T07:46:13Z</time>
      </trkpt>
      <trkpt lat="40.258370" lon="-5.869490">
        <ele>766.266</ele>
        <time>2020-02-29T07:46:33Z</time>
      </trkpt>
      <trkpt lat="40.258380" lon="-5.869430">
        <ele>765.997</ele>
        <time>2020-02-29T07:46:53Z</time>
      </trkpt>
      <trkpt lat="40.258400" lon="-5.869390">
        <ele>765.810</ele>
        <time>2020-02-29T07:47:13Z</time>
      </trkpt>
      <trkpt lat="40.258440" lon="-5.869340">
        <ele>765.379</ele>
        <time>2020-02-29T07:47:33Z</time>
      </trkpt>
      <trkpt lat="40.258490" lon="-5.869330">
        <ele>763.960</ele>
        <time>2020-02-29T07:47:53Z</time>
      </trkpt>
      <trkpt lat="40.258540" lon="-5.869330">
        <ele>762.497</ele>
        <time>2020-02-29T07:48:13Z</time>
      </trkpt>
      <trkpt lat="40.258680" lon="-5.869400">
        <ele>758.987</ele>
        <time>2020-02-29T07:48:33Z</time>
      </trkpt>
      <trkpt lat="40.258870" lon="-5.869460">
        <ele>755.942</ele>
        <time>2020-02-29T07:48:53Z</time>
      </trkpt>
      <trkpt lat="40.259020" lon="-5.869480">
        <ele>754.426</ele>
        <time>2020-02-29T07:49:13Z</time>
      </trkpt>
      <trkpt lat="40.259070" lon="-5.869480">
        <ele>754.008</ele>
        <time>2020-02-29T07:49:33Z</time>
      </trkpt>
      <trkpt lat="40.259130" lon="-5.869470">
        <ele>753.762</ele>
        <time>2020-02-29T07:49:53Z</time>
      </trkpt>
      <trkpt lat="40.259240" lon="-5.869420">
        <ele>753.035</ele>
        <time>2020-02-29T07:50:13Z</time>
      </trkpt>
      <trkpt lat="40.259400" lon="-5.869310">
        <ele>751.520</ele>
        <time>2020-02-29T07:50:33Z</time>
      </trkpt>
      <trkpt lat="40.259550" lon="-5.869140">
        <ele>750.821</ele>
        <time>2020-02-29T07:50:53Z</time>
      </trkpt>
      <trkpt lat="40.259750" lon="-5.868850">
        <ele>749.594</ele>
        <time>2020-02-29T07:51:13Z</time>
      </trkpt>
      <trkpt lat="40.259830" lon="-5.868670">
        <ele>748.663</ele>
        <time>2020-02-29T07:51:33Z</time>
      </trkpt>
      <trkpt lat="40.259830" lon="-5.868640">
        <ele>748.874</ele>
        <time>2020-02-29T07:51:53Z</time>
      </trkpt>
      <trkpt lat="40.260030" lon="-5.867980">
        <ele>746.661</ele>
        <time>2020-02-29T07:52:13Z</time>
      </trkpt>
      <trkpt lat="40.260120" lon="-5.867750">
        <ele>746.252</ele>
        <time>2020-02-29T07:52:33Z</time>
      </trkpt>
      <trkpt lat="40.260210" lon="-5.867600">
        <ele>746.353</ele>
        <time>2020-02-29T07:52:53Z</time>
      </trkpt>
      <trkpt lat="40.260730" lon="-5.866960">
        <ele>742.008</ele>
        <time>2020-02-29T07:53:13Z</time>
      </trkpt>
      <trkpt lat="40.260960" lon="-5.866620">
        <ele>739.608</ele>
        <time>2020-02-29T07:53:33Z</time>
      </trkpt>
      <trkpt lat="40.261160" lon="-5.866240">
        <ele>740.769</ele>
        <time>2020-02-29T07:53:53Z</time>
      </trkpt>
      <trkpt lat="40.261250" lon="-5.866150">
        <ele>740.472</ele>
        <time>2020-02-29T07:54:13Z</time>
      </trkpt>
      <trkpt lat="40.261350" lon="-5.866110">
        <ele>739.687</ele>
        <time>2020-02-29T07:54:33Z</time>
      </trkpt>
      <trkpt lat="40.261410" lon="-5.866110">
        <ele>738.658</ele>
        <time>2020-02-29T07:54:53Z</time>
      </trkpt>
      <trkpt lat="40.261480" lon="-5.866130">
        <ele>737.071</ele>
        <time>2020-02-29T07:55:13Z</time>
      </trkpt>
      <trkpt lat="40.261550" lon="-5.866170">
        <ele>735.130</ele>
        <time>2020-02-29T07:55:33Z</time>
      </trkpt>
      <trkpt lat="40.262170" lon="-5.866690">
        <ele>729.061</ele>
        <time>2020-02-29T07:55:53Z</time>
      </trkpt>
      <trkpt lat="40.262310" lon="-5.866830">
        <ele>727.498</ele>
        <time>2020-02-29T07:56:13Z</time>
      </trkpt>
      <trkpt lat="40.262320" lon="-5.866830">
        <ele>727.496</ele>
        <time>2020-02-29T07:56:33Z</time>
      </trkpt>
      <trkpt lat="40.262460" lon="-5.866920">
        <ele>726.331</ele>
        <time>2020-02-29T07:56:53Z</time>
      </trkpt>
      <trkpt lat="40.262470" lon="-5.866930">
        <ele>726.224</ele>
        <time>2020-02-29T07:57:13Z</time>
      </trkpt>
      <trkpt lat="40.262640" lon="-5.867030">
        <ele>725.308</ele>
        <time>2020-02-29T07:57:33Z</time>
      </trkpt>
      <trkpt lat="40.262660" lon="-5.867050">
        <ele>725.183</ele>
        <time>2020-02-29T07:57:53Z</time>
      </trkpt>
      <trkpt lat="40.262800" lon="-5.867130">
        <ele>724.386</ele>
        <time>2020-02-29T07:58:13Z</time>
      </trkpt>
      <trkpt lat="40.262840" lon="-5.867160">
        <ele>723.971</ele>
        <time>2020-02-29T07:58:33Z</time>
      </trkpt>
      <trkpt lat="40.263070" lon="-5.867230">
        <ele>722.972</ele>
        <time>2020-02-29T07:58:53Z</time>
      </trkpt>
      <trkpt lat="40.263500" lon="-5.867330">
        <ele>720.785</ele>
        <time>2020-02-29T07:59:13Z</time>
      </trkpt>
      <trkpt lat="40.263670" lon="-5.867320">
        <ele>720.224</ele>
        <time>2020-02-29T07:59:33Z</time>
      </trkpt>
      <trkpt lat="40.263810" lon="-5.867290">
        <ele>719.845</ele>
        <time>2020-02-29T07:59:53Z</time>
      </trkpt>
      <trkpt lat="40.263850" lon="-5.867250">
        <ele>720.012</ele>
        <time>2020-02-29T08:00:13Z</time>
      </trkpt>
      <trkpt lat="40.263880" lon="-5.867230">
        <ele>720.078</ele>
        <time>2020-02-29T08:00:33Z</time>
      </trkpt>
      <trkpt lat="40.263930" lon="-5.867160">
        <ele>719.733</ele>
        <time>2020-02-29T08:00:53Z</time>
      </trkpt>
      <trkpt lat="40.263960" lon="-5.867100">
        <ele>719.626</ele>
        <time>2020-02-29T08:01:13Z</time>
      </trkpt>
      <trkpt lat="40.263960" lon="-5.867070">
        <ele>719.608</ele>
        <time>2020-02-29T08:01:33Z</time>
      </trkpt>
      <trkpt lat="40.263980" lon="-5.866990">
        <ele>719.661</ele>
        <time>2020-02-29T08:01:53Z</time>
      </trkpt>
      <trkpt lat="40.263990" lon="-5.866600">
        <ele>718.734</ele>
        <time>2020-02-29T08:02:13Z</time>
      </trkpt>
      <trkpt lat="40.264010" lon="-5.866420">
        <ele>717.949</ele>
        <time>2020-02-29T08:02:33Z</time>
      </trkpt>
      <trkpt lat="40.264050" lon="-5.866240">
        <ele>718.240</ele>
        <time>2020-02-29T08:02:53Z</time>
      </trkpt>
      <trkpt lat="40.264110" lon="-5.866120">
        <ele>718.083</ele>
        <time>2020-02-29T08:03:13Z</time>
      </trkpt>
      <trkpt lat="40.264160" lon="-5.866040">
        <ele>717.662</ele>
        <time>2020-02-29T08:03:33Z</time>
      </trkpt>
      <trkpt lat="40.264210" lon="-5.865980">
        <ele>717.313</ele>
        <time>2020-02-29T08:03:53Z</time>
      </trkpt>
      <trkpt lat="40.264350" lon="-5.865890">
        <ele>716.080</ele>
        <time>2020-02-29T08:04:13Z</time>
      </trkpt>
      <trkpt lat="40.264500" lon="-5.865810">
        <ele>714.857</ele>
        <time>2020-02-29T08:04:33Z</time>
      </trkpt>
      <trkpt lat="40.265210" lon="-5.865370">
        <ele>712.900</ele>
        <time>2020-02-29T08:04:53Z</time>
      </trkpt>
      <trkpt lat="40.265460" lon="-5.865270">
        <ele>711.120</ele>
        <time>2020-02-29T08:05:13Z</time>
      </trkpt>
      <trkpt lat="40.265690" lon="-5.865160">
        <ele>709.908</ele>
        <time>2020-02-29T08:05:33Z</time>
      </trkpt>
      <trkpt lat="40.265840" lon="-5.865070">
        <ele>709.479</ele>
        <time>2020-02-29T08:05:53Z</time>
      </trkpt>
      <trkpt lat="40.265990" lon="-5.864940">
        <ele>708.142</ele>
        <time>2020-02-29T08:06:13Z</time>
      </trkpt>
      <trkpt lat="40.266110" lon="-5.864790">
        <ele>707.557</ele>
        <time>2020-02-29T08:06:33Z</time>
      </trkpt>
      <trkpt lat="40.266220" lon="-5.864610">
        <ele>707.148</ele>
        <time>2020-02-29T08:06:53Z</time>
      </trkpt>
      <trkpt lat="40.266310" lon="-5.864390">
        <ele>706.611</ele>
        <time>2020-02-29T08:07:13Z</time>
      </trkpt>
      <trkpt lat="40.266380" lon="-5.864010">
        <ele>705.630</ele>
        <time>2020-02-29T08:07:33Z</time>
      </trkpt>
      <trkpt lat="40.266400" lon="-5.863780">
        <ele>703.521</ele>
        <time>2020-02-29T08:07:53Z</time>
      </trkpt>
      <trkpt lat="40.266390" lon="-5.863510">
        <ele>701.658</ele>
        <time>2020-02-29T08:08:13Z</time>
      </trkpt>
      <trkpt lat="40.266360" lon="-5.863230">
        <ele>700.766</ele>
        <time>2020-02-29T08:08:33Z</time>
      </trkpt>
      <trkpt lat="40.266250" lon="-5.862860">
        <ele>699.229</ele>
        <time>2020-02-29T08:08:53Z</time>
      </trkpt>
      <trkpt lat="40.266060" lon="-5.862340">
        <ele>700.121</ele>
        <time>2020-02-29T08:09:13Z</time>
      </trkpt>
      <trkpt lat="40.266050" lon="-5.862240">
        <ele>699.708</ele>
        <time>2020-02-29T08:09:33Z</time>
      </trkpt>
      <trkpt lat="40.266050" lon="-5.862140">
        <ele>698.810</ele>
        <time>2020-02-29T08:09:53Z</time>
      </trkpt>
      <trkpt lat="40.266070" lon="-5.862090">
        <ele>697.833</ele>
        <time>2020-02-29T08:10:13Z</time>
      </trkpt>
      <trkpt lat="40.266120" lon="-5.862010">
        <ele>695.598</ele>
        <time>2020-02-29T08:10:33Z</time>
      </trkpt>
      <trkpt lat="40.266330" lon="-5.861790">
        <ele>694.839</ele>
        <time>2020-02-29T08:10:53Z</time>
      </trkpt>
      <trkpt lat="40.266450" lon="-5.861750">
        <ele>695.742</ele>
        <time>2020-02-29T08:11:13Z</time>
      </trkpt>
      <trkpt lat="40.266480" lon="-5.861750">
        <ele>695.951</ele>
        <time>2020-02-29T08:11:33Z</time>
      </trkpt>
      <trkpt lat="40.266500" lon="-5.861760">
        <ele>695.952</ele>
        <time>2020-02-29T08:11:53Z</time>
      </trkpt>
      <trkpt lat="40.266510" lon="-5.861770">
        <ele>695.929</ele>
        <time>2020-02-29T08:12:13Z</time>
      </trkpt>
      <trkpt lat="40.266530" lon="-5.861780">
        <ele>695.946</ele>
        <time>2020-02-29T08:12:33Z</time>
      </trkpt>
      <trkpt lat="40.266550" lon="-5.861800">
        <ele>695.888</ele>
        <time>2020-02-29T08:12:53Z</time>
      </trkpt>
      <trkpt lat="40.266560" lon="-5.861820">
        <ele>695.716</ele>
        <time>2020-02-29T08:13:13Z</time>
      </trkpt>
      <trkpt lat="40.266580" lon="-5.861830">
        <ele>695.808</ele>
        <time>2020-02-29T08:13:33Z</time>
      </trkpt>
      <trkpt lat="40.266800" lon="-5.862410">
        <ele>692.198</ele>
        <time>2020-02-29T08:13:53Z</time>
      </trkpt>
      <trkpt lat="40.266830" lon="-5.862440">
        <ele>692.211</ele>
        <time>2020-02-29T08:14:13Z</time>
      </trkpt>
      <trkpt lat="40.266840" lon="-5.862470">
        <ele>692.126</ele>
        <time>2020-02-29T08:14:33Z</time>
      </trkpt>
      <trkpt lat="40.267090" lon="-5.862710">
        <ele>691.587</ele>
        <time>2020-02-29T08:14:53Z</time>
      </trkpt>
      <trkpt lat="40.267430" lon="-5.862980">
        <ele>689.050</ele>
        <time>2020-02-29T08:15:13Z</time>
      </trkpt>
      <trkpt lat="40.267480" lon="-5.863030">
        <ele>688.379</ele>
        <time>2020-02-29T08:15:33Z</time>
      </trkpt>
      <trkpt lat="40.267580" lon="-5.863090">
        <ele>688.130</ele>
        <time>2020-02-29T08:15:53Z</time>
      </trkpt>
      <trkpt lat="40.267630" lon="-5.863110">
        <ele>688.287</ele>
        <time>2020-02-29T08:16:13Z</time>
      </trkpt>
      <trkpt lat="40.268150" lon="-5.863190">
        <ele>686.236</ele>
        <time>2020-02-29T08:16:33Z</time>
      </trkpt>
      <trkpt lat="40.268330" lon="-5.863240">
        <ele>684.417</ele>
        <time>2020-02-29T08:16:53Z</time>
      </trkpt>
      <trkpt lat="40.268400" lon="-5.863290">
        <ele>683.718</ele>
        <time>2020-02-29T08:17:13Z</time>
      </trkpt>
      <trkpt lat="40.268510" lon="-5.863460">
        <ele>682.308</ele>
        <time>2020-02-29T08:17:33Z</time>
      </trkpt>
      <trkpt lat="40.268650" lon="-5.863570">
        <ele>681.367</ele>
        <time>2020-02-29T08:17:53Z</time>
      </trkpt>
      <trkpt lat="40.268850" lon="-5.863630">
        <ele>681.920</ele>
        <time>2020-02-29T08:18:13Z</time>
      </trkpt>
      <trkpt lat="40.268910" lon="-5.863670">
        <ele>681.985</ele>
        <time>2020-02-29T08:18:33Z</time>
      </trkpt>
      <trkpt lat="40.268930" lon="-5.863690">
        <ele>681.996</ele>
        <time>2020-02-29T08:18:53Z</time>
      </trkpt>
      <trkpt lat="40.268980" lon="-5.863770">
        <ele>681.719</ele>
        <time>2020-02-29T08:19:13Z</time>
      </trkpt>
      <trkpt lat="40.269030" lon="-5.863890">
        <ele>681.568</ele>
        <time>2020-02-29T08:19:33Z</time>
      </trkpt>
      <trkpt lat="40.269090" lon="-5.864130">
        <ele>680.489</ele>
        <time>2020-02-29T08:19:53Z</time>
      </trkpt>
      <trkpt lat="40.269150" lon="-5.864260">
        <ele>680.046</ele>
        <time>2020-02-29T08:20:13Z</time>
      </trkpt>
      <trkpt lat="40.269290" lon="-5.864470">
        <ele>678.625</ele>
        <time>2020-02-29T08:20:33Z</time>
      </trkpt>
      <trkpt lat="40.270220" lon="-5.865610">
        <ele>670.026</ele>
        <time>2020-02-29T08:20:53Z</time>
      </trkpt>
      <trkpt lat="40.270610" lon="-5.865400">
        <ele>669.208</ele>
        <time>2020-02-29T08:21:13Z</time>
      </trkpt>
      <trkpt lat="40.270820" lon="-5.865260">
        <ele>668.208</ele>
        <time>2020-02-29T08:21:33Z</time>
      </trkpt>
      <trkpt lat="40.271050" lon="-5.865140">
        <ele>665.476</ele>
        <time>2020-02-29T08:21:53Z</time>
      </trkpt>
      <trkpt lat="40.271640" lon="-5.864720">
        <ele>662.239</ele>
        <time>2020-02-29T08:22:13Z</time>
      </trkpt>
      <trkpt lat="40.272010" lon="-5.864530">
        <ele>661.324</ele>
        <time>2020-02-29T08:22:33Z</time>
      </trkpt>
      <trkpt lat="40.271710" lon="-5.867530">
        <ele>654.655</ele>
        <time>2020-02-29T08:22:53Z</time>
      </trkpt>
      <trkpt lat="40.271700" lon="-5.867570">
        <ele>654.458</ele>
        <time>2020-02-29T08:23:13Z</time>
      </trkpt>
      <trkpt lat="40.271670" lon="-5.867810">
        <ele>652.947</ele>
        <time>2020-02-29T08:23:33Z</time>
      </trkpt>
      <trkpt lat="40.271560" lon="-5.868320">
        <ele>651.838</ele>
        <time>2020-02-29T08:23:53Z</time>
      </trkpt>
      <trkpt lat="40.271130" lon="-5.869850">
        <ele>650.025</ele>
        <time>2020-02-29T08:24:13Z</time>
      </trkpt>
      <trkpt lat="40.271020" lon="-5.870360">
        <ele>649.715</ele>
        <time>2020-02-29T08:24:33Z</time>
      </trkpt>
      <trkpt lat="40.270710" lon="-5.871430">
        <ele>645.865</ele>
        <time>2020-02-29T08:24:53Z</time>
      </trkpt>
      <trkpt lat="40.270560" lon="-5.872140">
        <ele>639.511</ele>
        <time>2020-02-29T08:25:13Z</time>
      </trkpt>
      <trkpt lat="40.270400" lon="-5.873640">
        <ele>633.108</ele>
        <time>2020-02-29T08:25:33Z</time>
      </trkpt>
      <trkpt lat="40.270260" lon="-5.874390">
        <ele>620.675</ele>
        <time>2020-02-29T08:25:53Z</time>
      </trkpt>
      <trkpt lat="40.269980" lon="-5.875400">
        <ele>620.138</ele>
        <time>2020-02-29T08:26:13Z</time>
      </trkpt>
      <trkpt lat="40.269850" lon="-5.875730">
        <ele>620.773</ele>
        <time>2020-02-29T08:26:33Z</time>
      </trkpt>
      <trkpt lat="40.269580" lon="-5.876330">
        <ele>620.754</ele>
        <time>2020-02-29T08:26:53Z</time>
      </trkpt>
      <trkpt lat="40.269560" lon="-5.876360">
        <ele>620.787</ele>
        <time>2020-02-29T08:27:13Z</time>
      </trkpt>
      <trkpt lat="40.269340" lon="-5.876830">
        <ele>619.896</ele>
        <time>2020-02-29T08:27:33Z</time>
      </trkpt>
      <trkpt lat="40.269190" lon="-5.877280">
        <ele>618.767</ele>
        <time>2020-02-29T08:27:53Z</time>
      </trkpt>
      <trkpt lat="40.269140" lon="-5.877600">
        <ele>617.734</ele>
        <time>2020-02-29T08:28:13Z</time>
      </trkpt>
      <trkpt lat="40.269140" lon="-5.877950">
        <ele>616.531</ele>
        <time>2020-02-29T08:28:33Z</time>
      </trkpt>
      <trkpt lat="40.269220" lon="-5.878680">
        <ele>613.861</ele>
        <time>2020-02-29T08:28:53Z</time>
      </trkpt>
      <trkpt lat="40.269220" lon="-5.878740">
        <ele>613.507</ele>
        <time>2020-02-29T08:29:13Z</time>
      </trkpt>
      <trkpt lat="40.270470" lon="-5.888180">
        <ele>593.608</ele>
        <time>2020-02-29T08:29:33Z</time>
      </trkpt>
      <trkpt lat="40.270530" lon="-5.888870">
        <ele>591.147</ele>
        <time>2020-02-29T08:29:53Z</time>
      </trkpt>
      <trkpt lat="40.270520" lon="-5.889220">
        <ele>590.030</ele>
        <time>2020-02-29T08:30:13Z</time>
      </trkpt>
      <trkpt lat="40.270510" lon="-5.889240">
        <ele>589.955</ele>
        <time>2020-02-29T08:30:33Z</time>
      </trkpt>
      <trkpt lat="40.270480" lon="-5.889450">
        <ele>589.426</ele>
        <time>2020-02-29T08:30:53Z</time>
      </trkpt>
      <trkpt lat="40.270410" lon="-5.889690">
        <ele>586.899</ele>
        <time>2020-02-29T08:31:13Z</time>
      </trkpt>
      <trkpt lat="40.270270" lon="-5.889990">
        <ele>584.128</ele>
        <time>2020-02-29T08:31:33Z</time>
      </trkpt>
      <trkpt lat="40.270170" lon="-5.890150">
        <ele>583.359</ele>
        <time>2020-02-29T08:31:53Z</time>
      </trkpt>
      <trkpt lat="40.269860" lon="-5.890560">
        <ele>580.526</ele>
        <time>2020-02-29T08:32:13Z</time>
      </trkpt>
      <trkpt lat="40.269780" lon="-5.890650">
        <ele>580.225</ele>
        <time>2020-02-29T08:32:33Z</time>
      </trkpt>
      <trkpt lat="40.269500" lon="-5.891090">
        <ele>582.426</ele>
        <time>2020-02-29T08:32:53Z</time>
      </trkpt>
      <trkpt lat="40.269370" lon="-5.891350">
        <ele>585.008</ele>
        <time>2020-02-29T08:33:13Z</time>
      </trkpt>
      <trkpt lat="40.269320" lon="-5.891500">
        <ele>585.808</ele>
        <time>2020-02-29T08:33:33Z</time>
      </trkpt>
      <trkpt lat="40.269270" lon="-5.891720">
        <ele>586.766</ele>
        <time>2020-02-29T08:33:53Z</time>
      </trkpt>
      <trkpt lat="40.269250" lon="-5.891760">
        <ele>586.999</ele>
        <time>2020-02-29T08:34:13Z</time>
      </trkpt>
      <trkpt lat="40.269120" lon="-5.892690">
        <ele>588.624</ele>
        <time>2020-02-29T08:34:33Z</time>
      </trkpt>
      <trkpt lat="40.269080" lon="-5.893110">
        <ele>587.845</ele>
        <time>2020-02-29T08:34:53Z</time>
      </trkpt>
      <trkpt lat="40.269050" lon="-5.893300">
        <ele>587.878</ele>
        <time>2020-02-29T08:35:13Z</time>
      </trkpt>
      <trkpt lat="40.268110" lon="-5.902470">
        <ele>563.777</ele>
        <time>2020-02-29T08:35:33Z</time>
      </trkpt>
      <trkpt lat="40.268040" lon="-5.902890">
        <ele>562.928</ele>
        <time>2020-02-29T08:35:53Z</time>
      </trkpt>
      <trkpt lat="40.267890" lon="-5.903450">
        <ele>560.125</ele>
        <time>2020-02-29T08:36:13Z</time>
      </trkpt>
      <trkpt lat="40.267620" lon="-5.904240">
        <ele>555.361</ele>
        <time>2020-02-29T08:36:33Z</time>
      </trkpt>
      <trkpt lat="40.267560" lon="-5.904630">
        <ele>554.521</ele>
        <time>2020-02-29T08:36:53Z</time>
      </trkpt>
      <trkpt lat="40.267550" lon="-5.904780">
        <ele>554.213</ele>
        <time>2020-02-29T08:37:13Z</time>
      </trkpt>
      <trkpt lat="40.267530" lon="-5.904900">
        <ele>554.008</ele>
        <time>2020-02-29T08:37:33Z</time>
      </trkpt>
      <trkpt lat="40.267530" lon="-5.905030">
        <ele>553.680</ele>
        <time>2020-02-29T08:37:53Z</time>
      </trkpt>
      <trkpt lat="40.267310" lon="-5.908180">
        <ele>551.153</ele>
        <time>2020-02-29T08:38:13Z</time>
      </trkpt>
      <trkpt lat="40.267310" lon="-5.908290">
        <ele>550.828</ele>
        <time>2020-02-29T08:38:33Z</time>
      </trkpt>
      <trkpt lat="40.267150" lon="-5.910330">
        <ele>545.219</ele>
        <time>2020-02-29T08:38:53Z</time>
      </trkpt>
      <trkpt lat="40.267260" lon="-5.910560">
        <ele>544.942</ele>
        <time>2020-02-29T08:39:13Z</time>
      </trkpt>
      <trkpt lat="40.266950" lon="-5.911240">
        <ele>543.541</ele>
        <time>2020-02-29T08:39:33Z</time>
      </trkpt>
      <trkpt lat="40.266820" lon="-5.911470">
        <ele>542.742</ele>
        <time>2020-02-29T08:39:53Z</time>
      </trkpt>
      <trkpt lat="40.266630" lon="-5.911760">
        <ele>541.839</ele>
        <time>2020-02-29T08:40:13Z</time>
      </trkpt>
      <trkpt lat="40.266140" lon="-5.912320">
        <ele>540.684</ele>
        <time>2020-02-29T08:40:33Z</time>
      </trkpt>
      <trkpt lat="40.265760" lon="-5.912820">
        <ele>541.207</ele>
        <time>2020-02-29T08:40:53Z</time>
      </trkpt>
      <trkpt lat="40.265760" lon="-5.912830">
        <ele>541.117</ele>
        <time>2020-02-29T08:41:13Z</time>
      </trkpt>
      <trkpt lat="40.265610" lon="-5.913100">
        <ele>541.508</ele>
        <time>2020-02-29T08:41:33Z</time>
      </trkpt>
      <trkpt lat="40.265460" lon="-5.913420">
        <ele>541.692</ele>
        <time>2020-02-29T08:41:53Z</time>
      </trkpt>
      <trkpt lat="40.265380" lon="-5.913560">
        <ele>541.725</ele>
        <time>2020-02-29T08:42:13Z</time>
      </trkpt>
      <trkpt lat="40.265220" lon="-5.913760">
        <ele>542.340</ele>
        <time>2020-02-29T08:42:33Z</time>
      </trkpt>
      <trkpt lat="40.265220" lon="-5.913780">
        <ele>542.361</ele>
        <time>2020-02-29T08:42:53Z</time>
      </trkpt>
      <trkpt lat="40.265070" lon="-5.913930">
        <ele>542.674</ele>
        <time>2020-02-29T08:43:13Z</time>
      </trkpt>
      <trkpt lat="40.264800" lon="-5.914100">
        <ele>543.033</ele>
        <time>2020-02-29T08:43:33Z</time>
      </trkpt>
      <trkpt lat="40.264690" lon="-5.914150">
        <ele>543.294</ele>
        <time>2020-02-29T08:43:53Z</time>
      </trkpt>
      <trkpt lat="40.264590" lon="-5.914180">
        <ele>543.521</ele>
        <time>2020-02-29T08:44:13Z</time>
      </trkpt>
      <trkpt lat="40.264460" lon="-5.914200">
        <ele>543.942</ele>
        <time>2020-02-29T08:44:33Z</time>
      </trkpt>
      <trkpt lat="40.264310" lon="-5.914200">
        <ele>545.022</ele>
        <time>2020-02-29T08:44:53Z</time>
      </trkpt>
      <trkpt lat="40.263900" lon="-5.914150">
        <ele>546.114</ele>
        <time>2020-02-29T08:45:13Z</time>
      </trkpt>
      <trkpt lat="40.263850" lon="-5.914180">
        <ele>546.108</ele>
        <time>2020-02-29T08:45:33Z</time>
      </trkpt>
      <trkpt lat="40.263680" lon="-5.914210">
        <ele>546.698</ele>
        <time>2020-02-29T08:45:53Z</time>
      </trkpt>
      <trkpt lat="40.263680" lon="-5.914220">
        <ele>546.621</ele>
        <time>2020-02-29T08:46:13Z</time>
      </trkpt>
      <trkpt lat="40.263660" lon="-5.914240">
        <ele>546.696</ele>
        <time>2020-02-29T08:46:33Z</time>
      </trkpt>
      <trkpt lat="40.263650" lon="-5.914260">
        <ele>546.647</ele>
        <time>2020-02-29T08:46:53Z</time>
      </trkpt>
      <trkpt lat="40.263630" lon="-5.914270">
        <ele>546.650</ele>
        <time>2020-02-29T08:47:13Z</time>
      </trkpt>
      <trkpt lat="40.263640" lon="-5.914580">
        <ele>545.519</ele>
        <time>2020-02-29T08:47:33Z</time>
      </trkpt>
      <trkpt lat="40.263940" lon="-5.915690">
        <ele>542.250</ele>
        <time>2020-02-29T08:47:53Z</time>
      </trkpt>
      <trkpt lat="40.263960" lon="-5.915800">
        <ele>542.347</ele>
        <time>2020-02-29T08:48:13Z</time>
      </trkpt>
      <trkpt lat="40.264020" lon="-5.916020">
        <ele>541.863</ele>
        <time>2020-02-29T08:48:33Z</time>
      </trkpt>
      <trkpt lat="40.264110" lon="-5.916220">
        <ele>541.444</ele>
        <time>2020-02-29T08:48:53Z</time>
      </trkpt>
      <trkpt lat="40.264180" lon="-5.916500">
        <ele>540.918</ele>
        <time>2020-02-29T08:49:13Z</time>
      </trkpt>
      <trkpt lat="40.264200" lon="-5.916500">
        <ele>540.708</ele>
        <time>2020-02-29T08:49:33Z</time>
      </trkpt>
      <trkpt lat="40.264210" lon="-5.916510">
        <ele>540.650</ele>
        <time>2020-02-29T08:49:53Z</time>
      </trkpt>
      <trkpt lat="40.264230" lon="-5.916510">
        <ele>540.463</ele>
        <time>2020-02-29T08:50:13Z</time>
      </trkpt>
      <trkpt lat="40.264250" lon="-5.916520">
        <ele>540.328</ele>
        <time>2020-02-29T08:50:33Z</time>
      </trkpt>
      <trkpt lat="40.264260" lon="-5.916520">
        <ele>540.259</ele>
        <time>2020-02-29T08:50:53Z</time>
      </trkpt>
      <trkpt lat="40.264280" lon="-5.916530">
        <ele>540.022</ele>
        <time>2020-02-29T08:51:13Z</time>
      </trkpt>
      <trkpt lat="40.264330" lon="-5.916580">
        <ele>539.461</ele>
        <time>2020-02-29T08:51:33Z</time>
      </trkpt>
      <trkpt lat="40.264360" lon="-5.916630">
        <ele>539.082</ele>
        <time>2020-02-29T08:51:53Z</time>
      </trkpt>
      <trkpt lat="40.264380" lon="-5.916680">
        <ele>538.649</ele>
        <time>2020-02-29T08:52:13Z</time>
      </trkpt>
      <trkpt lat="40.264380" lon="-5.916720">
        <ele>538.592</ele>
        <time>2020-02-29T08:52:33Z</time>
      </trkpt>
      <trkpt lat="40.264390" lon="-5.916740">
        <ele>538.373</ele>
        <time>2020-02-29T08:52:53Z</time>
      </trkpt>
      <trkpt lat="40.264390" lon="-5.916790">
        <ele>538.120</ele>
        <time>2020-02-29T08:53:13Z</time>
      </trkpt>
      <trkpt lat="40.264380" lon="-5.916810">
        <ele>538.208</ele>
        <time>2020-02-29T08:53:33Z</time>
      </trkpt>
      <trkpt lat="40.264380" lon="-5.916830">
        <ele>538.133</ele>
        <time>2020-02-29T08:53:53Z</time>
      </trkpt>
      <trkpt lat="40.264370" lon="-5.916850">
        <ele>538.166</ele>
        <time>2020-02-29T08:54:13Z</time>
      </trkpt>
      <trkpt lat="40.264370" lon="-5.916870">
        <ele>538.121</ele>
        <time>2020-02-29T08:54:33Z</time>
      </trkpt>
      <trkpt lat="40.264360" lon="-5.916890">
        <ele>538.172</ele>
        <time>2020-02-29T08:54:53Z</time>
      </trkpt>
      <trkpt lat="40.264350" lon="-5.916900">
        <ele>538.225</ele>
        <time>2020-02-29T08:55:13Z</time>
      </trkpt>
      <trkpt lat="40.264350" lon="-5.916920">
        <ele>538.144</ele>
        <time>2020-02-29T08:55:33Z</time>
      </trkpt>
      <trkpt lat="40.264320" lon="-5.916950">
        <ele>538.375</ele>
        <time>2020-02-29T08:55:53Z</time>
      </trkpt>
      <trkpt lat="40.264320" lon="-5.916960">
        <ele>538.352</ele>
        <time>2020-02-29T08:56:13Z</time>
      </trkpt>
      <trkpt lat="40.264300" lon="-5.916980">
        <ele>538.547</ele>
        <time>2020-02-29T08:56:33Z</time>
      </trkpt>
      <trkpt lat="40.264280" lon="-5.916990">
        <ele>538.729</ele>
        <time>2020-02-29T08:56:53Z</time>
      </trkpt>
      <trkpt lat="40.264270" lon="-5.917000">
        <ele>538.821</ele>
        <time>2020-02-29T08:57:13Z</time>
      </trkpt>
      <trkpt lat="40.264250" lon="-5.917000">
        <ele>539.008</ele>
        <time>2020-02-29T08:57:33Z</time>
      </trkpt>
      <trkpt lat="40.264230" lon="-5.917010">
        <ele>539.358</ele>
        <time>2020-02-29T08:57:53Z</time>
      </trkpt>
      <trkpt lat="40.264220" lon="-5.917010">
        <ele>539.491</ele>
        <time>2020-02-29T08:58:13Z</time>
      </trkpt>
      <trkpt lat="40.264200" lon="-5.917020">
        <ele>539.666</ele>
        <time>2020-02-29T08:58:33Z</time>
      </trkpt>
      <trkpt lat="40.264180" lon="-5.917020">
        <ele>539.857</ele>
        <time>2020-02-29T08:58:53Z</time>
      </trkpt>
      <trkpt lat="40.264170" lon="-5.917010">
        <ele>540.080</ele>
        <time>2020-02-29T08:59:13Z</time>
      </trkpt>
      <trkpt lat="40.264140" lon="-5.917010">
        <ele>539.879</ele>
        <time>2020-02-29T08:59:33Z</time>
      </trkpt>
      <trkpt lat="40.264040" lon="-5.917250">
        <ele>538.410</ele>
        <time>2020-02-29T08:59:53Z</time>
      </trkpt>
      <trkpt lat="40.263980" lon="-5.917350">
        <ele>537.497</ele>
        <time>2020-02-29T09:00:13Z</time>
      </trkpt>
      <trkpt lat="40.261640" lon="-5.923150">
        <ele>521.813</ele>
        <time>2020-02-29T09:00:33Z</time>
      </trkpt>
      <trkpt lat="40.261590" lon="-5.923330">
        <ele>521.343</ele>
        <time>2020-02-29T09:00:53Z</time>
      </trkpt>
      <trkpt lat="40.261170" lon="-5.925280">
        <ele>521.407</ele>
        <time>2020-02-29T09:01:13Z</time>
      </trkpt>
      <trkpt lat="40.260920" lon="-5.925920">
        <ele>522.408</ele>
        <time>2020-02-29T09:01:33Z</time>
      </trkpt>
      <trkpt lat="40.259980" lon="-5.930370">
        <ele>521.125</ele>
        <time>2020-02-29T09:01:53Z</time>
      </trkpt>
      <trkpt lat="40.259870" lon="-5.930790">
        <ele>521.568</ele>
        <time>2020-02-29T09:02:13Z</time>
      </trkpt>
      <trkpt lat="40.259720" lon="-5.931650">
        <ele>522.123</ele>
        <time>2020-02-29T09:02:33Z</time>
      </trkpt>
      <trkpt lat="40.259510" lon="-5.932560">
        <ele>523.524</ele>
        <time>2020-02-29T09:02:53Z</time>
      </trkpt>
      <trkpt lat="40.259350" lon="-5.932960">
        <ele>524.097</ele>
        <time>2020-02-29T09:03:13Z</time>
      </trkpt>
      <trkpt lat="40.258310" lon="-5.934680">
        <ele>527.396</ele>
        <time>2020-02-29T09:03:33Z</time>
      </trkpt>
      <trkpt lat="40.257580" lon="-5.935800">
        <ele>528.837</ele>
        <time>2020-02-29T09:03:53Z</time>
      </trkpt>
      <trkpt lat="40.257360" lon="-5.936170">
        <ele>529.444</ele>
        <time>2020-02-29T09:04:13Z</time>
      </trkpt>
      <trkpt lat="40.258140" lon="-5.938550">
        <ele>519.888</ele>
        <time>2020-02-29T09:04:33Z</time>
      </trkpt>
      <trkpt lat="40.258870" lon="-5.940460">
        <ele>511.424</ele>
        <time>2020-02-29T09:04:53Z</time>
      </trkpt>
      <trkpt lat="40.259080" lon="-5.941150">
        <ele>508.226</ele>
        <time>2020-02-29T09:05:13Z</time>
      </trkpt>
      <trkpt lat="40.259940" lon="-5.944950">
        <ele>496.408</ele>
        <time>2020-02-29T09:05:33Z</time>
      </trkpt>
      <trkpt lat="40.260280" lon="-5.946130">
        <ele>492.942</ele>
        <time>2020-02-29T09:05:53Z</time>
      </trkpt>
      <trkpt lat="40.260620" lon="-5.947530">
        <ele>487.055</ele>
        <time>2020-02-29T09:06:13Z</time>
      </trkpt>
      <trkpt lat="40.260860" lon="-5.949250">
        <ele>483.940</ele>
        <time>2020-02-29T09:06:33Z</time>
      </trkpt>
      <trkpt lat="40.261070" lon="-5.952270">
        <ele>482.161</ele>
        <time>2020-02-29T09:06:53Z</time>
      </trkpt>
      <trkpt lat="40.261060" lon="-5.952640">
        <ele>482.094</ele>
        <time>2020-02-29T09:07:13Z</time>
      </trkpt>
      <trkpt lat="40.260820" lon="-5.955470">
        <ele>481.093</ele>
        <time>2020-02-29T09:07:33Z</time>
      </trkpt>
      <trkpt lat="40.260850" lon="-5.957640">
        <ele>480.064</ele>
        <time>2020-02-29T09:07:53Z</time>
      </trkpt>
      <trkpt lat="40.261010" lon="-5.958700">
        <ele>478.481</ele>
        <time>2020-02-29T09:08:13Z</time>
      </trkpt>
      <trkpt lat="40.261050" lon="-5.959090">
        <ele>478.044</ele>
        <time>2020-02-29T09:08:33Z</time>
      </trkpt>
      <trkpt lat="40.261050" lon="-5.959530">
        <ele>477.205</ele>
        <time>2020-02-29T09:08:53Z</time>
      </trkpt>
      <trkpt lat="40.261040" lon="-5.959560">
        <ele>477.115</ele>
        <time>2020-02-29T09:09:13Z</time>
      </trkpt>
      <trkpt lat="40.261010" lon="-5.959800">
        <ele>476.808</ele>
        <time>2020-02-29T09:09:33Z</time>
      </trkpt>
      <trkpt lat="40.261010" lon="-5.959850">
        <ele>476.748</ele>
        <time>2020-02-29T09:09:53Z</time>
      </trkpt>
      <trkpt lat="40.260800" lon="-5.960630">
        <ele>476.921</ele>
        <time>2020-02-29T09:10:13Z</time>
      </trkpt>
      <trkpt lat="40.259810" lon="-5.963730">
        <ele>471.396</ele>
        <time>2020-02-29T09:10:33Z</time>
      </trkpt>
      <trkpt lat="40.259650" lon="-5.964330">
        <ele>470.747</ele>
        <time>2020-02-29T09:10:53Z</time>
      </trkpt>
      <trkpt lat="40.259420" lon="-5.965600">
        <ele>470.060</ele>
        <time>2020-02-29T09:11:13Z</time>
      </trkpt>
      <trkpt lat="40.259190" lon="-5.967380">
        <ele>469.529</ele>
        <time>2020-02-29T09:11:33Z</time>
      </trkpt>
      <trkpt lat="40.259200" lon="-5.969050">
        <ele>470.060</ele>
        <time>2020-02-29T09:11:53Z</time>
      </trkpt>
      <trkpt lat="40.259210" lon="-5.969120">
        <ele>470.017</ele>
        <time>2020-02-29T09:12:13Z</time>
      </trkpt>
      <trkpt lat="40.259270" lon="-5.970580">
        <ele>470.054</ele>
        <time>2020-02-29T09:12:33Z</time>
      </trkpt>
      <trkpt lat="40.259370" lon="-5.971890">
        <ele>470.056</ele>
        <time>2020-02-29T09:12:53Z</time>
      </trkpt>
      <trkpt lat="40.259410" lon="-5.972820">
        <ele>469.111</ele>
        <time>2020-02-29T09:13:13Z</time>
      </trkpt>
      <trkpt lat="40.259520" lon="-5.974320">
        <ele>465.408</ele>
        <time>2020-02-29T09:13:33Z</time>
      </trkpt>
      <trkpt lat="40.259650" lon="-5.975070">
        <ele>461.329</ele>
        <time>2020-02-29T09:13:53Z</time>
      </trkpt>
      <trkpt lat="40.259690" lon="-5.975200">
        <ele>460.532</ele>
        <time>2020-02-29T09:14:13Z</time>
      </trkpt>
      <trkpt lat="40.259820" lon="-5.976070">
        <ele>457.317</ele>
        <time>2020-02-29T09:14:33Z</time>
      </trkpt>
      <trkpt lat="40.259850" lon="-5.976180">
        <ele>456.898</ele>
        <time>2020-02-29T09:14:53Z</time>
      </trkpt>
      <trkpt lat="40.259880" lon="-5.976350">
        <ele>456.071</ele>
        <time>2020-02-29T09:15:13Z</time>
      </trkpt>
      <trkpt lat="40.259960" lon="-5.976650">
        <ele>455.230</ele>
        <time>2020-02-29T09:15:33Z</time>
      </trkpt>
      <trkpt lat="40.260380" lon="-5.977650">
        <ele>451.321</ele>
        <time>2020-02-29T09:15:53Z</time>
      </trkpt>
      <trkpt lat="40.260430" lon="-5.977730">
        <ele>450.978</ele>
        <time>2020-02-29T09:16:13Z</time>
      </trkpt>
      <trkpt lat="40.260490" lon="-5.977900">
        <ele>450.447</ele>
        <time>2020-02-29T09:16:33Z</time>
      </trkpt>
      <trkpt lat="40.260640" lon="-5.978230">
        <ele>449.529</ele>
        <time>2020-02-29T09:16:53Z</time>
      </trkpt>
      <trkpt lat="40.262020" lon="-5.981640">
        <ele>439.821</ele>
        <time>2020-02-29T09:17:13Z</time>
      </trkpt>
      <trkpt lat="40.262020" lon="-5.981660">
        <ele>439.708</ele>
        <time>2020-02-29T09:17:33Z</time>
      </trkpt>
      <trkpt lat="40.262190" lon="-5.982060">
        <ele>440.128</ele>
        <time>2020-02-29T09:17:53Z</time>
      </trkpt>
      <trkpt lat="40.262190" lon="-5.982070">
        <ele>440.261</ele>
        <time>2020-02-29T09:18:13Z</time>
      </trkpt>
      <trkpt lat="40.266650" lon="-5.993060">
        <ele>455.956</ele>
        <time>2020-02-29T09:18:33Z</time>
      </trkpt>
      <trkpt lat="40.266770" lon="-5.993550">
        <ele>455.547</ele>
        <time>2020-02-29T09:18:53Z</time>
      </trkpt>
      <trkpt lat="40.266790" lon="-5.993780">
        <ele>455.460</ele>
        <time>2020-02-29T09:19:13Z</time>
      </trkpt>
      <trkpt lat="40.266790" lon="-5.994140">
        <ele>454.579</ele>
        <time>2020-02-29T09:19:33Z</time>
      </trkpt>
      <trkpt lat="40.266890" lon="-5.994090">
        <ele>455.190</ele>
        <time>2020-02-29T09:19:53Z</time>
      </trkpt>
      <trkpt lat="40.266960" lon="-5.994040">
        <ele>455.527</ele>
        <time>2020-02-29T09:20:13Z</time>
      </trkpt>
      <trkpt lat="40.267060" lon="-5.993940">
        <ele>456.299</ele>
        <time>2020-02-29T09:20:33Z</time>
      </trkpt>
      <trkpt lat="40.269150" lon="-5.991570">
        <ele>462.607</ele>
        <time>2020-02-29T09:20:53Z</time>
      </trkpt>
      <trkpt lat="40.269430" lon="-5.991140">
        <ele>465.827</ele>
        <time>2020-02-29T09:21:13Z</time>
      </trkpt>
      <trkpt lat="40.270300" lon="-5.989310">
        <ele>470.108</ele>
        <time>2020-02-29T09:21:33Z</time>
      </trkpt>
      <trkpt lat="40.270470" lon="-5.989040">
        <ele>470.053</ele>
        <time>2020-02-29T09:21:53Z</time>
      </trkpt>
      <trkpt lat="40.270570" lon="-5.988930">
        <ele>470.246</ele>
        <time>2020-02-29T09:22:13Z</time>
      </trkpt>
      <trkpt lat="40.270720" lon="-5.988730">
        <ele>471.171</ele>
        <time>2020-02-29T09:22:33Z</time>
      </trkpt>
      <trkpt lat="40.271100" lon="-5.988370">
        <ele>477.622</ele>
        <time>2020-02-29T09:22:53Z</time>
      </trkpt>
      <trkpt lat="40.273420" lon="-5.986420">
        <ele>489.375</ele>
        <time>2020-02-29T09:23:13Z</time>
      </trkpt>
      <trkpt lat="40.273800" lon="-5.986060">
        <ele>491.564</ele>
        <time>2020-02-29T09:23:33Z</time>
      </trkpt>
      <trkpt lat="40.274050" lon="-5.985760">
        <ele>492.355</ele>
        <time>2020-02-29T09:23:53Z</time>
      </trkpt>
      <trkpt lat="40.274060" lon="-5.985760">
        <ele>492.462</ele>
        <time>2020-02-29T09:24:13Z</time>
      </trkpt>
      <trkpt lat="40.274100" lon="-5.985700">
        <ele>492.332</ele>
        <time>2020-02-29T09:24:33Z</time>
      </trkpt>
      <trkpt lat="40.275190" lon="-5.984440">
        <ele>499.792</ele>
        <time>2020-02-29T09:24:53Z</time>
      </trkpt>
      <trkpt lat="40.275440" lon="-5.984180">
        <ele>502.211</ele>
        <time>2020-02-29T09:25:13Z</time>
      </trkpt>
      <trkpt lat="40.277070" lon="-5.983100">
        <ele>500.608</ele>
        <time>2020-02-29T09:25:33Z</time>
      </trkpt>
      <trkpt lat="40.277250" lon="-5.982960">
        <ele>500.127</ele>
        <time>2020-02-29T09:25:53Z</time>
      </trkpt>
      <trkpt lat="40.277360" lon="-5.982820">
        <ele>500.530</ele>
        <time>2020-02-29T09:26:13Z</time>
      </trkpt>
      <trkpt lat="40.277410" lon="-5.982770">
        <ele>500.735</ele>
        <time>2020-02-29T09:26:33Z</time>
      </trkpt>
      <trkpt lat="40.279100" lon="-5.980430">
        <ele>518.766</ele>
        <time>2020-02-29T09:26:53Z</time>
      </trkpt>
      <trkpt lat="40.281130" lon="-5.977430">
        <ele>500.949</ele>
        <time>2020-02-29T09:27:13Z</time>
      </trkpt>
      <trkpt lat="40.281220" lon="-5.977240">
        <ele>500.938</ele>
        <time>2020-02-29T09:27:33Z</time>
      </trkpt>
      <trkpt lat="40.281270" lon="-5.976910">
        <ele>504.299</ele>
        <time>2020-02-29T09:27:53Z</time>
      </trkpt>
      <trkpt lat="40.281330" lon="-5.976800">
        <ele>506.156</ele>
        <time>2020-02-29T09:28:13Z</time>
      </trkpt>
      <trkpt lat="40.281450" lon="-5.976710">
        <ele>508.073</ele>
        <time>2020-02-29T09:28:33Z</time>
      </trkpt>
      <trkpt lat="40.281530" lon="-5.976680">
        <ele>508.985</ele>
        <time>2020-02-29T09:28:53Z</time>
      </trkpt>
      <trkpt lat="40.281630" lon="-5.976690">
        <ele>509.513</ele>
        <time>2020-02-29T09:29:13Z</time>
      </trkpt>
      <trkpt lat="40.281780" lon="-5.976740">
        <ele>510.408</ele>
        <time>2020-02-29T09:29:33Z</time>
      </trkpt>
      <trkpt lat="40.282440" lon="-5.977040">
        <ele>517.741</ele>
        <time>2020-02-29T09:29:53Z</time>
      </trkpt>
      <trkpt lat="40.282490" lon="-5.977040">
        <ele>518.464</ele>
        <time>2020-02-29T09:30:13Z</time>
      </trkpt>
      <trkpt lat="40.282520" lon="-5.977010">
        <ele>519.749</ele>
        <time>2020-02-29T09:30:33Z</time>
      </trkpt>
      <trkpt lat="40.282540" lon="-5.977000">
        <ele>520.340</ele>
        <time>2020-02-29T09:30:53Z</time>
      </trkpt>
      <trkpt lat="40.282540" lon="-5.976960">
        <ele>521.393</ele>
        <time>2020-02-29T09:31:13Z</time>
      </trkpt>
      <trkpt lat="40.282520" lon="-5.976900">
        <ele>522.542</ele>
        <time>2020-02-29T09:31:33Z</time>
      </trkpt>
      <trkpt lat="40.282420" lon="-5.976710">
        <ele>524.793</ele>
        <time>2020-02-29T09:31:53Z</time>
      </trkpt>
      <trkpt lat="40.282370" lon="-5.976560">
        <ele>525.220</ele>
        <time>2020-02-29T09:32:13Z</time>
      </trkpt>
      <trkpt lat="40.282340" lon="-5.976250">
        <ele>527.038</ele>
        <time>2020-02-29T09:32:33Z</time>
      </trkpt>
      <trkpt lat="40.282360" lon="-5.976150">
        <ele>528.670</ele>
        <time>2020-02-29T09:32:53Z</time>
      </trkpt>
      <trkpt lat="40.282370" lon="-5.976140">
        <ele>529.117</ele>
        <time>2020-02-29T09:33:13Z</time>
      </trkpt>
      <trkpt lat="40.282470" lon="-5.975740">
        <ele>535.308</ele>
        <time>2020-02-29T09:33:33Z</time>
      </trkpt>
      <trkpt lat="40.282640" lon="-5.975350">
        <ele>540.067</ele>
        <time>2020-02-29T09:33:53Z</time>
      </trkpt>
      <trkpt lat="40.282700" lon="-5.975140">
        <ele>540.510</ele>
        <time>2020-02-29T09:34:13Z</time>
      </trkpt>
      <trkpt lat="40.282720" lon="-5.974980">
        <ele>540.395</ele>
        <time>2020-02-29T09:34:33Z</time>
      </trkpt>
      <trkpt lat="40.282720" lon="-5.974830">
        <ele>541.566</ele>
        <time>2020-02-29T09:34:53Z</time>
      </trkpt>
      <trkpt lat="40.282710" lon="-5.974790">
        <ele>541.759</ele>
        <time>2020-02-29T09:35:13Z</time>
      </trkpt>
      <trkpt lat="40.282700" lon="-5.974640">
        <ele>542.848</ele>
        <time>2020-02-29T09:35:33Z</time>
      </trkpt>
      <trkpt lat="40.282710" lon="-5.974600">
        <ele>543.319</ele>
        <time>2020-02-29T09:35:53Z</time>
      </trkpt>
      <trkpt lat="40.282710" lon="-5.974560">
        <ele>543.656</ele>
        <time>2020-02-29T09:36:13Z</time>
      </trkpt>
      <trkpt lat="40.282730" lon="-5.974460">
        <ele>544.522</ele>
        <time>2020-02-29T09:36:33Z</time>
      </trkpt>
      <trkpt lat="40.282760" lon="-5.974410">
        <ele>545.062</ele>
        <time>2020-02-29T09:36:53Z</time>
      </trkpt>
      <trkpt lat="40.282780" lon="-5.974390">
        <ele>545.208</ele>
        <time>2020-02-29T09:37:13Z</time>
      </trkpt>
      <trkpt lat="40.282880" lon="-5.974240">
        <ele>546.908</ele>
        <time>2020-02-29T09:37:33Z</time>
      </trkpt>
      <trkpt lat="40.282910" lon="-5.974220">
        <ele>547.326</ele>
        <time>2020-02-29T09:37:53Z</time>
      </trkpt>
      <trkpt lat="40.282980" lon="-5.974140">
        <ele>548.219</ele>
        <time>2020-02-29T09:38:13Z</time>
      </trkpt>
      <trkpt lat="40.283100" lon="-5.974060">
        <ele>548.994</ele>
        <time>2020-02-29T09:38:33Z</time>
      </trkpt>
      <trkpt lat="40.283220" lon="-5.974000">
        <ele>548.345</ele>
        <time>2020-02-29T09:38:53Z</time>
      </trkpt>
      <trkpt lat="40.284010" lon="-5.973790">
        <ele>544.368</ele>
        <time>2020-02-29T09:39:13Z</time>
      </trkpt>
      <trkpt lat="40.285230" lon="-5.973520">
        <ele>536.077</ele>
        <time>2020-02-29T09:39:33Z</time>
      </trkpt>
      <trkpt lat="40.285650" lon="-5.973380">
        <ele>532.128</ele>
        <time>2020-02-29T09:39:53Z</time>
      </trkpt>
      <trkpt lat="40.286880" lon="-5.972830">
        <ele>531.865</ele>
        <time>2020-02-29T09:40:13Z</time>
      </trkpt>
      <trkpt lat="40.287450" lon="-5.972600">
        <ele>530.592</ele>
        <time>2020-02-29T09:40:33Z</time>
      </trkpt>
      <trkpt lat="40.287460" lon="-5.972590">
        <ele>530.573</ele>
        <time>2020-02-29T09:40:53Z</time>
      </trkpt>
      <trkpt lat="40.289000" lon="-5.971920">
        <ele>520.720</ele>
        <time>2020-02-29T09:41:13Z</time>
      </trkpt>
      <trkpt lat="40.289250" lon="-5.971740">
        <ele>518.608</ele>
        <time>2020-02-29T09:41:33Z</time>
      </trkpt>
      <trkpt lat="40.289270" lon="-5.971730">
        <ele>518.653</ele>
        <time>2020-02-29T09:41:53Z</time>
      </trkpt>
      <trkpt lat="40.289420" lon="-5.971550">
        <ele>518.966</ele>
        <time>2020-02-29T09:42:13Z</time>
      </trkpt>
      <trkpt lat="40.289590" lon="-5.971300">
        <ele>519.531</ele>
        <time>2020-02-29T09:42:33Z</time>
      </trkpt>
      <trkpt lat="40.289790" lon="-5.970810">
        <ele>520.092</ele>
        <time>2020-02-29T09:42:53Z</time>
      </trkpt>
      <trkpt lat="40.289800" lon="-5.970750">
        <ele>520.015</ele>
        <time>2020-02-29T09:43:13Z</time>
      </trkpt>
      <trkpt lat="40.289800" lon="-5.970690">
        <ele>520.054</ele>
        <time>2020-02-29T09:43:33Z</time>
      </trkpt>
      <trkpt lat="40.289790" lon="-5.970620">
        <ele>520.065</ele>
        <time>2020-02-29T09:43:53Z</time>
      </trkpt>
      <trkpt lat="40.289740" lon="-5.970470">
        <ele>520.192</ele>
        <time>2020-02-29T09:44:13Z</time>
      </trkpt>
      <trkpt lat="40.289740" lon="-5.970410">
        <ele>520.134</ele>
        <time>2020-02-29T09:44:33Z</time>
      </trkpt>
      <trkpt lat="40.289760" lon="-5.970370">
        <ele>520.355</ele>
        <time>2020-02-29T09:44:53Z</time>
      </trkpt>
      <trkpt lat="40.289770" lon="-5.970360">
        <ele>520.410</ele>
        <time>2020-02-29T09:45:13Z</time>
      </trkpt>
      <trkpt lat="40.289780" lon="-5.970360">
        <ele>520.408</ele>
        <time>2020-02-29T09:45:33Z</time>
      </trkpt>
      <trkpt lat="40.289800" lon="-5.970350">
        <ele>520.667</ele>
        <time>2020-02-29T09:45:53Z</time>
      </trkpt>
      <trkpt lat="40.290060" lon="-5.970300">
        <ele>523.240</ele>
        <time>2020-02-29T09:46:13Z</time>
      </trkpt>
      <trkpt lat="40.290800" lon="-5.970100">
        <ele>530.675</ele>
        <time>2020-02-29T09:46:33Z</time>
      </trkpt>
      <trkpt lat="40.291410" lon="-5.970060">
        <ele>537.416</ele>
        <time>2020-02-29T09:46:53Z</time>
      </trkpt>
      <trkpt lat="40.292520" lon="-5.969910">
        <ele>548.199</ele>
        <time>2020-02-29T09:47:13Z</time>
      </trkpt>
      <trkpt lat="40.292860" lon="-5.969840">
        <ele>551.278</ele>
        <time>2020-02-29T09:47:33Z</time>
      </trkpt>
      <trkpt lat="40.292950" lon="-5.969800">
        <ele>551.759</ele>
        <time>2020-02-29T09:47:53Z</time>
      </trkpt>
      <trkpt lat="40.293340" lon="-5.969530">
        <ele>555.586</ele>
        <time>2020-02-29T09:48:13Z</time>
      </trkpt>
      <trkpt lat="40.293570" lon="-5.969410">
        <ele>559.678</ele>
        <time>2020-02-29T09:48:33Z</time>
      </trkpt>
      <trkpt lat="40.293890" lon="-5.969340">
        <ele>562.633</ele>
        <time>2020-02-29T09:48:53Z</time>
      </trkpt>
      <trkpt lat="40.294180" lon="-5.969210">
        <ele>566.126</ele>
        <time>2020-02-29T09:49:13Z</time>
      </trkpt>
      <trkpt lat="40.294180" lon="-5.969200">
        <ele>566.308</ele>
        <time>2020-02-29T09:49:33Z</time>
      </trkpt>
      <trkpt lat="40.294390" lon="-5.969130">
        <ele>568.671</ele>
        <time>2020-02-29T09:49:53Z</time>
      </trkpt>
      <trkpt lat="40.294590" lon="-5.969140">
        <ele>570.694</ele>
        <time>2020-02-29T09:50:13Z</time>
      </trkpt>
      <trkpt lat="40.294810" lon="-5.969170">
        <ele>572.919</ele>
        <time>2020-02-29T09:50:33Z</time>
      </trkpt>
      <trkpt lat="40.295380" lon="-5.969310">
        <ele>576.770</ele>
        <time>2020-02-29T09:50:53Z</time>
      </trkpt>
      <trkpt lat="40.296160" lon="-5.969430">
        <ele>584.893</ele>
        <time>2020-02-29T09:51:13Z</time>
      </trkpt>
      <trkpt lat="40.296300" lon="-5.969430">
        <ele>586.332</ele>
        <time>2020-02-29T09:51:33Z</time>
      </trkpt>
      <trkpt lat="40.296480" lon="-5.969370">
        <ele>588.923</ele>
        <time>2020-02-29T09:51:53Z</time>
      </trkpt>
      <trkpt lat="40.296630" lon="-5.969300">
        <ele>590.910</ele>
        <time>2020-02-29T09:52:13Z</time>
      </trkpt>
      <trkpt lat="40.296980" lon="-5.969030">
        <ele>595.381</ele>
        <time>2020-02-29T09:52:33Z</time>
      </trkpt>
      <trkpt lat="40.297110" lon="-5.968910">
        <ele>597.961</ele>
        <time>2020-02-29T09:52:53Z</time>
      </trkpt>
      <trkpt lat="40.297120" lon="-5.968910">
        <ele>598.017</ele>
        <time>2020-02-29T09:53:13Z</time>
      </trkpt>
      <trkpt lat="40.297240" lon="-5.968830">
        <ele>599.908</ele>
        <time>2020-02-29T09:53:33Z</time>
      </trkpt>
      <trkpt lat="40.297390" lon="-5.968790">
        <ele>602.362</ele>
        <time>2020-02-29T09:53:53Z</time>
      </trkpt>
      <trkpt lat="40.297760" lon="-5.968800">
        <ele>606.195</ele>
        <time>2020-02-29T09:54:13Z</time>
      </trkpt>
      <trkpt lat="40.298100" lon="-5.968840">
        <ele>608.550</ele>
        <time>2020-02-29T09:54:33Z</time>
      </trkpt>
      <trkpt lat="40.298600" lon="-5.968980">
        <ele>610.051</ele>
        <time>2020-02-29T09:54:53Z</time>
      </trkpt>
      <trkpt lat="40.298710" lon="-5.969020">
        <ele>610.074</ele>
        <time>2020-02-29T09:55:13Z</time>
      </trkpt>
      <trkpt lat="40.299160" lon="-5.969060">
        <ele>610.013</ele>
        <time>2020-02-29T09:55:33Z</time>
      </trkpt>
      <trkpt lat="40.299570" lon="-5.969050">
        <ele>610.094</ele>
        <time>2020-02-29T09:55:53Z</time>
      </trkpt>
      <trkpt lat="40.299770" lon="-5.969010">
        <ele>610.231</ele>
        <time>2020-02-29T09:56:13Z</time>
      </trkpt>
      <trkpt lat="40.300740" lon="-5.969170">
        <ele>617.018</ele>
        <time>2020-02-29T09:56:33Z</time>
      </trkpt>
      <trkpt lat="40.301070" lon="-5.969240">
        <ele>619.798</ele>
        <time>2020-02-29T09:56:53Z</time>
      </trkpt>
      <trkpt lat="40.301320" lon="-5.969270">
        <ele>620.017</ele>
        <time>2020-02-29T09:57:13Z</time>
      </trkpt>
      <trkpt lat="40.301430" lon="-5.969300">
        <ele>620.208</ele>
        <time>2020-02-29T09:57:33Z</time>
      </trkpt>
      <trkpt lat="40.301570" lon="-5.969360">
        <ele>621.195</ele>
        <time>2020-02-29T09:57:53Z</time>
      </trkpt>
      <trkpt lat="40.301590" lon="-5.969380">
        <ele>621.388</ele>
        <time>2020-02-29T09:58:13Z</time>
      </trkpt>
      <trkpt lat="40.301610" lon="-5.969390">
        <ele>621.423</ele>
        <time>2020-02-29T09:58:33Z</time>
      </trkpt>
      <trkpt lat="40.301960" lon="-5.969820">
        <ele>625.954</ele>
        <time>2020-02-29T09:58:53Z</time>
      </trkpt>
      <trkpt lat="40.302020" lon="-5.969920">
        <ele>627.587</ele>
        <time>2020-02-29T09:59:13Z</time>
      </trkpt>
      <trkpt lat="40.302060" lon="-5.970010">
        <ele>628.746</ele>
        <time>2020-02-29T09:59:33Z</time>
      </trkpt>
      <trkpt lat="40.302090" lon="-5.970120">
        <ele>629.597</ele>
        <time>2020-02-29T09:59:53Z</time>
      </trkpt>
      <trkpt lat="40.302100" lon="-5.970250">
        <ele>630.134</ele>
        <time>2020-02-29T10:00:13Z</time>
      </trkpt>
      <trkpt lat="40.302140" lon="-5.970400">
        <ele>631.462</ele>
        <time>2020-02-29T10:00:33Z</time>
      </trkpt>
      <trkpt lat="40.302150" lon="-5.970410">
        <ele>631.683</ele>
        <time>2020-02-29T10:00:53Z</time>
      </trkpt>
      <trkpt lat="40.302300" lon="-5.970670">
        <ele>634.511</ele>
        <time>2020-02-29T10:01:13Z</time>
      </trkpt>
      <trkpt lat="40.302500" lon="-5.970940">
        <ele>638.008</ele>
        <time>2020-02-29T10:01:33Z</time>
      </trkpt>
      <trkpt lat="40.302690" lon="-5.971270">
        <ele>641.180</ele>
        <time>2020-02-29T10:01:53Z</time>
      </trkpt>
      <trkpt lat="40.302700" lon="-5.971300">
        <ele>641.443</ele>
        <time>2020-02-29T10:02:13Z</time>
      </trkpt>
      <trkpt lat="40.302700" lon="-5.971320">
        <ele>641.448</ele>
        <time>2020-02-29T10:02:33Z</time>
      </trkpt>
      <trkpt lat="40.302720" lon="-5.971370">
        <ele>641.949</ele>
        <time>2020-02-29T10:02:53Z</time>
      </trkpt>
      <trkpt lat="40.302760" lon="-5.971680">
        <ele>643.662</ele>
        <time>2020-02-29T10:03:13Z</time>
      </trkpt>
      <trkpt lat="40.302780" lon="-5.971740">
        <ele>644.061</ele>
        <time>2020-02-29T10:03:33Z</time>
      </trkpt>
      <trkpt lat="40.302800" lon="-5.971760">
        <ele>644.422</ele>
        <time>2020-02-29T10:03:53Z</time>
      </trkpt>
      <trkpt lat="40.302820" lon="-5.971770">
        <ele>644.879</ele>
        <time>2020-02-29T10:04:13Z</time>
      </trkpt>
      <trkpt lat="40.302850" lon="-5.971770">
        <ele>645.476</ele>
        <time>2020-02-29T10:04:33Z</time>
      </trkpt>
      <trkpt lat="40.302920" lon="-5.971720">
        <ele>646.790</ele>
        <time>2020-02-29T10:04:53Z</time>
      </trkpt>
      <trkpt lat="40.303020" lon="-5.971630">
        <ele>648.219</ele>
        <time>2020-02-29T10:05:13Z</time>
      </trkpt>
      <trkpt lat="40.303230" lon="-5.971380">
        <ele>649.808</ele>
        <time>2020-02-29T10:05:33Z</time>
      </trkpt>
      <trkpt lat="40.303460" lon="-5.971000">
        <ele>651.141</ele>
        <time>2020-02-29T10:05:53Z</time>
      </trkpt>
      <trkpt lat="40.303470" lon="-5.971000">
        <ele>651.394</ele>
        <time>2020-02-29T10:06:13Z</time>
      </trkpt>
      <trkpt lat="40.303790" lon="-5.970490">
        <ele>656.539</ele>
        <time>2020-02-29T10:06:33Z</time>
      </trkpt>
      <trkpt lat="40.303920" lon="-5.970330">
        <ele>658.070</ele>
        <time>2020-02-29T10:06:53Z</time>
      </trkpt>
      <trkpt lat="40.304070" lon="-5.970210">
        <ele>658.853</ele>
        <time>2020-02-29T10:07:13Z</time>
      </trkpt>
      <trkpt lat="40.304290" lon="-5.970120">
        <ele>661.232</ele>
        <time>2020-02-29T10:07:33Z</time>
      </trkpt>
      <trkpt lat="40.304610" lon="-5.970070">
        <ele>663.343</ele>
        <time>2020-02-29T10:07:53Z</time>
      </trkpt>
      <trkpt lat="40.304630" lon="-5.970090">
        <ele>663.820</ele>
        <time>2020-02-29T10:08:13Z</time>
      </trkpt>
      <trkpt lat="40.304680" lon="-5.970110">
        <ele>664.613</ele>
        <time>2020-02-29T10:08:33Z</time>
      </trkpt>
      <trkpt lat="40.304950" lon="-5.970300">
        <ele>667.743</ele>
        <time>2020-02-29T10:08:53Z</time>
      </trkpt>
      <trkpt lat="40.305900" lon="-5.971150">
        <ele>675.407</ele>
        <time>2020-02-29T10:09:13Z</time>
      </trkpt>
      <trkpt lat="40.305960" lon="-5.971190">
        <ele>675.808</ele>
        <time>2020-02-29T10:09:33Z</time>
      </trkpt>
      <trkpt lat="40.306000" lon="-5.971200">
        <ele>675.855</ele>
        <time>2020-02-29T10:09:53Z</time>
      </trkpt>
      <trkpt lat="40.306010" lon="-5.971210">
        <ele>675.928</ele>
        <time>2020-02-29T10:10:13Z</time>
      </trkpt>
      <trkpt lat="40.306130" lon="-5.971190">
        <ele>675.553</ele>
        <time>2020-02-29T10:10:33Z</time>
      </trkpt>
      <trkpt lat="40.306250" lon="-5.971150">
        <ele>677.174</ele>
        <time>2020-02-29T10:10:53Z</time>
      </trkpt>
      <trkpt lat="40.306420" lon="-5.971120">
        <ele>679.627</ele>
        <time>2020-02-29T10:11:13Z</time>
      </trkpt>
      <trkpt lat="40.306760" lon="-5.971140">
        <ele>684.286</ele>
        <time>2020-02-29T10:11:33Z</time>
      </trkpt>
      <trkpt lat="40.306890" lon="-5.971110">
        <ele>684.637</ele>
        <time>2020-02-29T10:11:53Z</time>
      </trkpt>
      <trkpt lat="40.306980" lon="-5.971100">
        <ele>685.214</ele>
        <time>2020-02-29T10:12:13Z</time>
      </trkpt>
      <trkpt lat="40.307110" lon="-5.971010">
        <ele>685.639</ele>
        <time>2020-02-29T10:12:33Z</time>
      </trkpt>
      <trkpt lat="40.307150" lon="-5.970950">
        <ele>685.601</ele>
        <time>2020-02-29T10:12:53Z</time>
      </trkpt>
      <trkpt lat="40.307170" lon="-5.970900">
        <ele>685.521</ele>
        <time>2020-02-29T10:13:13Z</time>
      </trkpt>
      <trkpt lat="40.307170" lon="-5.970840">
        <ele>684.908</ele>
        <time>2020-02-29T10:13:33Z</time>
      </trkpt>
      <trkpt lat="40.307160" lon="-5.970790">
        <ele>685.087</ele>
        <time>2020-02-29T10:13:53Z</time>
      </trkpt>
      <trkpt lat="40.307140" lon="-5.970740">
        <ele>684.990</ele>
        <time>2020-02-29T10:14:13Z</time>
      </trkpt>
      <trkpt lat="40.307090" lon="-5.970680">
        <ele>684.295</ele>
        <time>2020-02-29T10:14:33Z</time>
      </trkpt>
      <trkpt lat="40.306990" lon="-5.970630">
        <ele>682.446</ele>
        <time>2020-02-29T10:14:53Z</time>
      </trkpt>
      <trkpt lat="40.306690" lon="-5.970380">
        <ele>683.459</ele>
        <time>2020-02-29T10:15:13Z</time>
      </trkpt>
      <trkpt lat="40.306490" lon="-5.970170">
        <ele>683.118</ele>
        <time>2020-02-29T10:15:33Z</time>
      </trkpt>
      <trkpt lat="40.306470" lon="-5.970160">
        <ele>682.989</ele>
        <time>2020-02-29T10:15:53Z</time>
      </trkpt>
      <trkpt lat="40.306450" lon="-5.970120">
        <ele>683.276</ele>
        <time>2020-02-29T10:16:13Z</time>
      </trkpt>
      <trkpt lat="40.306430" lon="-5.970050">
        <ele>684.025</ele>
        <time>2020-02-29T10:16:33Z</time>
      </trkpt>
      <trkpt lat="40.306430" lon="-5.969960">
        <ele>685.626</ele>
        <time>2020-02-29T10:16:53Z</time>
      </trkpt>
      <trkpt lat="40.306460" lon="-5.969910">
        <ele>687.208</ele>
        <time>2020-02-29T10:17:13Z</time>
      </trkpt>
      <trkpt lat="40.306490" lon="-5.969890">
        <ele>688.208</ele>
        <time>2020-02-29T10:17:33Z</time>
      </trkpt>
      <trkpt lat="40.306530" lon="-5.969890">
        <ele>689.056</ele>
        <time>2020-02-29T10:17:53Z</time>
      </trkpt>
      <trkpt lat="40.306590" lon="-5.969900">
        <ele>690.159</ele>
        <time>2020-02-29T10:18:13Z</time>
      </trkpt>
      <trkpt lat="40.306750" lon="-5.970000">
        <ele>691.254</ele>
        <time>2020-02-29T10:18:33Z</time>
      </trkpt>
      <trkpt lat="40.306760" lon="-5.970010">
        <ele>691.285</ele>
        <time>2020-02-29T10:18:53Z</time>
      </trkpt>
      <trkpt lat="40.306910" lon="-5.970110">
        <ele>691.298</ele>
        <time>2020-02-29T10:19:13Z</time>
      </trkpt>
      <trkpt lat="40.306920" lon="-5.970120">
        <ele>691.137</ele>
        <time>2020-02-29T10:19:33Z</time>
      </trkpt>
      <trkpt lat="40.307130" lon="-5.970200">
        <ele>692.878</ele>
        <time>2020-02-29T10:19:53Z</time>
      </trkpt>
      <trkpt lat="40.307400" lon="-5.970250">
        <ele>695.075</ele>
        <time>2020-02-29T10:20:13Z</time>
      </trkpt>
      <trkpt lat="40.307910" lon="-5.970250">
        <ele>698.992</ele>
        <time>2020-02-29T10:20:33Z</time>
      </trkpt>
      <trkpt lat="40.308200" lon="-5.970150">
        <ele>702.473</ele>
        <time>2020-02-29T10:20:53Z</time>
      </trkpt>
      <trkpt lat="40.308630" lon="-5.969870">
        <ele>705.820</ele>
        <time>2020-02-29T10:21:13Z</time>
      </trkpt>
      <trkpt lat="40.308770" lon="-5.969740">
        <ele>709.508</ele>
        <time>2020-02-29T10:21:33Z</time>
      </trkpt>
      <trkpt lat="40.308780" lon="-5.969740">
        <ele>709.593</ele>
        <time>2020-02-29T10:21:53Z</time>
      </trkpt>
      <trkpt lat="40.308900" lon="-5.969660">
        <ele>710.516</ele>
        <time>2020-02-29T10:22:13Z</time>
      </trkpt>
      <trkpt lat="40.309030" lon="-5.969640">
        <ele>710.681</ele>
        <time>2020-02-29T10:22:33Z</time>
      </trkpt>
      <trkpt lat="40.309140" lon="-5.969660">
        <ele>710.742</ele>
        <time>2020-02-29T10:22:53Z</time>
      </trkpt>
      <trkpt lat="40.309170" lon="-5.969660">
        <ele>710.865</ele>
        <time>2020-02-29T10:23:13Z</time>
      </trkpt>
      <trkpt lat="40.309880" lon="-5.969930">
        <ele>722.054</ele>
        <time>2020-02-29T10:23:33Z</time>
      </trkpt>
      <trkpt lat="40.310540" lon="-5.970050">
        <ele>730.895</ele>
        <time>2020-02-29T10:23:53Z</time>
      </trkpt>
      <trkpt lat="40.310570" lon="-5.970050">
        <ele>731.052</ele>
        <time>2020-02-29T10:24:13Z</time>
      </trkpt>
      <trkpt lat="40.310720" lon="-5.970100">
        <ele>732.616</ele>
        <time>2020-02-29T10:24:33Z</time>
      </trkpt>
      <trkpt lat="40.310770" lon="-5.970130">
        <ele>733.576</ele>
        <time>2020-02-29T10:24:53Z</time>
      </trkpt>
      <trkpt lat="40.310800" lon="-5.970170">
        <ele>734.513</ele>
        <time>2020-02-29T10:25:13Z</time>
      </trkpt>
      <trkpt lat="40.310810" lon="-5.970210">
        <ele>735.408</ele>
        <time>2020-02-29T10:25:33Z</time>
      </trkpt>
      <trkpt lat="40.310800" lon="-5.970250">
        <ele>736.275</ele>
        <time>2020-02-29T10:25:53Z</time>
      </trkpt>
      <trkpt lat="40.310800" lon="-5.970270">
        <ele>736.648</ele>
        <time>2020-02-29T10:26:13Z</time>
      </trkpt>
      <trkpt lat="40.310790" lon="-5.970280">
        <ele>736.833</ele>
        <time>2020-02-29T10:26:33Z</time>
      </trkpt>
      <trkpt lat="40.310780" lon="-5.970310">
        <ele>737.754</ele>
        <time>2020-02-29T10:26:53Z</time>
      </trkpt>
      <trkpt lat="40.310740" lon="-5.970350">
        <ele>738.677</ele>
        <time>2020-02-29T10:27:13Z</time>
      </trkpt>
      <trkpt lat="40.310540" lon="-5.970500">
        <ele>738.096</ele>
        <time>2020-02-29T10:27:33Z</time>
      </trkpt>
      <trkpt lat="40.310470" lon="-5.970590">
        <ele>738.257</ele>
        <time>2020-02-29T10:27:53Z</time>
      </trkpt>
      <trkpt lat="40.310400" lon="-5.970700">
        <ele>737.824</ele>
        <time>2020-02-29T10:28:13Z</time>
      </trkpt>
      <trkpt lat="40.310360" lon="-5.970910">
        <ele>737.583</ele>
        <time>2020-02-29T10:28:33Z</time>
      </trkpt>
      <trkpt lat="40.310360" lon="-5.971010">
        <ele>737.825</ele>
        <time>2020-02-29T10:28:53Z</time>
      </trkpt>
      <trkpt lat="40.310380" lon="-5.971150">
        <ele>739.117</ele>
        <time>2020-02-29T10:29:13Z</time>
      </trkpt>
      <trkpt lat="40.310440" lon="-5.971410">
        <ele>742.108</ele>
        <time>2020-02-29T10:29:33Z</time>
      </trkpt>
      <trkpt lat="40.310700" lon="-5.972310">
        <ele>749.962</ele>
        <time>2020-02-29T10:29:53Z</time>
      </trkpt>
      <trkpt lat="40.310990" lon="-5.972790">
        <ele>758.665</ele>
        <time>2020-02-29T10:30:13Z</time>
      </trkpt>
      <trkpt lat="40.311360" lon="-5.973240">
        <ele>761.460</ele>
        <time>2020-02-29T10:30:33Z</time>
      </trkpt>
      <trkpt lat="40.311430" lon="-5.973270">
        <ele>762.861</ele>
        <time>2020-02-29T10:30:53Z</time>
      </trkpt>
      <trkpt lat="40.311450" lon="-5.973270">
        <ele>763.574</ele>
        <time>2020-02-29T10:31:13Z</time>
      </trkpt>
      <trkpt lat="40.311470" lon="-5.973250">
        <ele>764.923</ele>
        <time>2020-02-29T10:31:33Z</time>
      </trkpt>
      <trkpt lat="40.311480" lon="-5.973230">
        <ele>765.824</ele>
        <time>2020-02-29T10:31:53Z</time>
      </trkpt>
      <trkpt lat="40.311490" lon="-5.973190">
        <ele>767.421</ele>
        <time>2020-02-29T10:32:13Z</time>
      </trkpt>
      <trkpt lat="40.311490" lon="-5.973130">
        <ele>769.321</ele>
        <time>2020-02-29T10:32:33Z</time>
      </trkpt>
      <trkpt lat="40.311460" lon="-5.973070">
        <ele>770.341</ele>
        <time>2020-02-29T10:32:53Z</time>
      </trkpt>
      <trkpt lat="40.311310" lon="-5.972870">
        <ele>769.805</ele>
        <time>2020-02-29T10:33:13Z</time>
      </trkpt>
      <trkpt lat="40.311200" lon="-5.972610">
        <ele>770.508</ele>
        <time>2020-02-29T10:33:33Z</time>
      </trkpt>
      <trkpt lat="40.311160" lon="-5.972350">
        <ele>771.746</ele>
        <time>2020-02-29T10:33:53Z</time>
      </trkpt>
      <trkpt lat="40.311180" lon="-5.972070">
        <ele>772.489</ele>
        <time>2020-02-29T10:34:13Z</time>
      </trkpt>
      <trkpt lat="40.311210" lon="-5.971970">
        <ele>772.384</ele>
        <time>2020-02-29T10:34:33Z</time>
      </trkpt>
      <trkpt lat="40.311260" lon="-5.971900">
        <ele>772.045</ele>
        <time>2020-02-29T10:34:53Z</time>
      </trkpt>
      <trkpt lat="40.311330" lon="-5.971830">
        <ele>771.648</ele>
        <time>2020-02-29T10:35:13Z</time>
      </trkpt>
      <trkpt lat="40.311390" lon="-5.971790">
        <ele>771.237</ele>
        <time>2020-02-29T10:35:33Z</time>
      </trkpt>
      <trkpt lat="40.311490" lon="-5.971760">
        <ele>772.498</ele>
        <time>2020-02-29T10:35:53Z</time>
      </trkpt>
      <trkpt lat="40.311740" lon="-5.971760">
        <ele>776.245</ele>
        <time>2020-02-29T10:36:13Z</time>
      </trkpt>
      <trkpt lat="40.311930" lon="-5.971810">
        <ele>779.476</ele>
        <time>2020-02-29T10:36:33Z</time>
      </trkpt>
      <trkpt lat="40.312180" lon="-5.971940">
        <ele>784.590</ele>
        <time>2020-02-29T10:36:53Z</time>
      </trkpt>
      <trkpt lat="40.312380" lon="-5.972080">
        <ele>789.419</ele>
        <time>2020-02-29T10:37:13Z</time>
      </trkpt>
      <trkpt lat="40.312410" lon="-5.972130">
        <ele>791.008</ele>
        <time>2020-02-29T10:37:33Z</time>
      </trkpt>
      <trkpt lat="40.312410" lon="-5.972180">
        <ele>792.381</ele>
        <time>2020-02-29T10:37:53Z</time>
      </trkpt>
      <trkpt lat="40.312400" lon="-5.972200">
        <ele>792.634</ele>
        <time>2020-02-29T10:38:13Z</time>
      </trkpt>
      <trkpt lat="40.312370" lon="-5.972220">
        <ele>792.699</ele>
        <time>2020-02-29T10:38:33Z</time>
      </trkpt>
      <trkpt lat="40.312160" lon="-5.972260">
        <ele>789.980</ele>
        <time>2020-02-29T10:38:53Z</time>
      </trkpt>
      <trkpt lat="40.312110" lon="-5.972280">
        <ele>789.743</ele>
        <time>2020-02-29T10:39:13Z</time>
      </trkpt>
      <trkpt lat="40.312080" lon="-5.972320">
        <ele>789.972</ele>
        <time>2020-02-29T10:39:33Z</time>
      </trkpt>
      <trkpt lat="40.312080" lon="-5.972380">
        <ele>790.473</ele>
        <time>2020-02-29T10:39:53Z</time>
      </trkpt>
      <trkpt lat="40.312100" lon="-5.972440">
        <ele>791.060</ele>
        <time>2020-02-29T10:40:13Z</time>
      </trkpt>
      <trkpt lat="40.312160" lon="-5.972570">
        <ele>792.113</ele>
        <time>2020-02-29T10:40:33Z</time>
      </trkpt>
      <trkpt lat="40.312330" lon="-5.972870">
        <ele>796.843</ele>
        <time>2020-02-29T10:40:53Z</time>
      </trkpt>
      <trkpt lat="40.312750" lon="-5.973490">
        <ele>802.507</ele>
        <time>2020-02-29T10:41:13Z</time>
      </trkpt>
      <trkpt lat="40.312770" lon="-5.973530">
        <ele>802.608</ele>
        <time>2020-02-29T10:41:33Z</time>
      </trkpt>
      <trkpt lat="40.313140" lon="-5.973950">
        <ele>810.295</ele>
        <time>2020-02-29T10:41:53Z</time>
      </trkpt>
      <trkpt lat="40.313160" lon="-5.973980">
        <ele>810.288</ele>
        <time>2020-02-29T10:42:13Z</time>
      </trkpt>
      <trkpt lat="40.313190" lon="-5.974000">
        <ele>810.873</ele>
        <time>2020-02-29T10:42:33Z</time>
      </trkpt>
      <trkpt lat="40.313240" lon="-5.974010">
        <ele>812.044</ele>
        <time>2020-02-29T10:42:53Z</time>
      </trkpt>
      <trkpt lat="40.313280" lon="-5.974000">
        <ele>813.377</ele>
        <time>2020-02-29T10:43:13Z</time>
      </trkpt>
      <trkpt lat="40.313300" lon="-5.973960">
        <ele>814.346</ele>
        <time>2020-02-29T10:43:33Z</time>
      </trkpt>
      <trkpt lat="40.313320" lon="-5.973850">
        <ele>815.957</ele>
        <time>2020-02-29T10:43:53Z</time>
      </trkpt>
      <trkpt lat="40.313320" lon="-5.973750">
        <ele>816.744</ele>
        <time>2020-02-29T10:44:13Z</time>
      </trkpt>
      <trkpt lat="40.313350" lon="-5.973590">
        <ele>818.295</ele>
        <time>2020-02-29T10:44:33Z</time>
      </trkpt>
      <trkpt lat="40.313380" lon="-5.973520">
        <ele>818.349</ele>
        <time>2020-02-29T10:44:53Z</time>
      </trkpt>
      <trkpt lat="40.313420" lon="-5.973480">
        <ele>818.623</ele>
        <time>2020-02-29T10:45:13Z</time>
      </trkpt>
      <trkpt lat="40.313470" lon="-5.973470">
        <ele>819.208</ele>
        <time>2020-02-29T10:45:33Z</time>
      </trkpt>
      <trkpt lat="40.313680" lon="-5.973470">
        <ele>821.733</ele>
        <time>2020-02-29T10:45:53Z</time>
      </trkpt>
      <trkpt lat="40.313900" lon="-5.973530">
        <ele>824.996</ele>
        <time>2020-02-29T10:46:13Z</time>
      </trkpt>
      <trkpt lat="40.313940" lon="-5.973570">
        <ele>825.961</ele>
        <time>2020-02-29T10:46:33Z</time>
      </trkpt>
      <trkpt lat="40.313990" lon="-5.973700">
        <ele>827.732</ele>
        <time>2020-02-29T10:46:53Z</time>
      </trkpt>
      <trkpt lat="40.313990" lon="-5.973960">
        <ele>829.525</ele>
        <time>2020-02-29T10:47:13Z</time>
      </trkpt>
      <trkpt lat="40.314060" lon="-5.974420">
        <ele>831.764</ele>
        <time>2020-02-29T10:47:33Z</time>
      </trkpt>
      <trkpt lat="40.314080" lon="-5.974480">
        <ele>831.885</ele>
        <time>2020-02-29T10:47:53Z</time>
      </trkpt>
      <trkpt lat="40.314110" lon="-5.974540">
        <ele>832.072</ele>
        <time>2020-02-29T10:48:13Z</time>
      </trkpt>
      <trkpt lat="40.314130" lon="-5.974550">
        <ele>832.497</ele>
        <time>2020-02-29T10:48:33Z</time>
      </trkpt>
      <trkpt lat="40.314180" lon="-5.974550">
        <ele>833.623</ele>
        <time>2020-02-29T10:48:53Z</time>
      </trkpt>
      <trkpt lat="40.314200" lon="-5.974540">
        <ele>834.225</ele>
        <time>2020-02-29T10:49:13Z</time>
      </trkpt>
      <trkpt lat="40.314230" lon="-5.974510">
        <ele>835.208</ele>
        <time>2020-02-29T10:49:33Z</time>
      </trkpt>
      <trkpt lat="40.314310" lon="-5.974390">
        <ele>837.553</ele>
        <time>2020-02-29T10:49:53Z</time>
      </trkpt>
      <trkpt lat="40.314310" lon="-5.974380">
        <ele>837.556</ele>
        <time>2020-02-29T10:50:13Z</time>
      </trkpt>
      <trkpt lat="40.314350" lon="-5.974340">
        <ele>838.471</ele>
        <time>2020-02-29T10:50:33Z</time>
      </trkpt>
      <trkpt lat="40.314380" lon="-5.974340">
        <ele>839.142</ele>
        <time>2020-02-29T10:50:53Z</time>
      </trkpt>
      <trkpt lat="40.314420" lon="-5.974350">
        <ele>840.175</ele>
        <time>2020-02-29T10:51:13Z</time>
      </trkpt>
      <trkpt lat="40.314440" lon="-5.974370">
        <ele>840.694</ele>
        <time>2020-02-29T10:51:33Z</time>
      </trkpt>
      <trkpt lat="40.314450" lon="-5.974390">
        <ele>840.995</ele>
        <time>2020-02-29T10:51:53Z</time>
      </trkpt>
      <trkpt lat="40.314450" lon="-5.974400">
        <ele>841.092</ele>
        <time>2020-02-29T10:52:13Z</time>
      </trkpt>
      <trkpt lat="40.314790" lon="-5.975060">
        <ele>846.473</ele>
        <time>2020-02-29T10:52:33Z</time>
      </trkpt>
      <trkpt lat="40.315000" lon="-5.975310">
        <ele>851.585</ele>
        <time>2020-02-29T10:52:53Z</time>
      </trkpt>
      <trkpt lat="40.315280" lon="-5.975540">
        <ele>854.313</ele>
        <time>2020-02-29T10:53:13Z</time>
      </trkpt>
      <trkpt lat="40.315720" lon="-5.975740">
        <ele>859.708</ele>
        <time>2020-02-29T10:53:33Z</time>
      </trkpt>
      <trkpt lat="40.315840" lon="-5.975740">
        <ele>862.881</ele>
        <time>2020-02-29T10:53:53Z</time>
      </trkpt>
      <trkpt lat="40.315890" lon="-5.975710">
        <ele>864.774</ele>
        <time>2020-02-29T10:54:13Z</time>
      </trkpt>
      <trkpt lat="40.315920" lon="-5.975680">
        <ele>866.159</ele>
        <time>2020-02-29T10:54:33Z</time>
      </trkpt>
      <trkpt lat="40.315940" lon="-5.975650">
        <ele>867.460</ele>
        <time>2020-02-29T10:54:53Z</time>
      </trkpt>
      <trkpt lat="40.315950" lon="-5.975600">
        <ele>868.843</ele>
        <time>2020-02-29T10:55:13Z</time>
      </trkpt>
      <trkpt lat="40.315940" lon="-5.975470">
        <ele>870.862</ele>
        <time>2020-02-29T10:55:33Z</time>
      </trkpt>
      <trkpt lat="40.315850" lon="-5.975180">
        <ele>872.053</ele>
        <time>2020-02-29T10:55:53Z</time>
      </trkpt>
      <trkpt lat="40.315820" lon="-5.975020">
        <ele>873.390</ele>
        <time>2020-02-29T10:56:13Z</time>
      </trkpt>
      <trkpt lat="40.315790" lon="-5.974680">
        <ele>876.048</ele>
        <time>2020-02-29T10:56:33Z</time>
      </trkpt>
      <trkpt lat="40.315790" lon="-5.974430">
        <ele>878.261</ele>
        <time>2020-02-29T10:56:53Z</time>
      </trkpt>
      <trkpt lat="40.315800" lon="-5.974400">
        <ele>878.917</ele>
        <time>2020-02-29T10:57:13Z</time>
      </trkpt>
      <trkpt lat="40.315810" lon="-5.974390">
        <ele>879.408</ele>
        <time>2020-02-29T10:57:33Z</time>
      </trkpt>
      <trkpt lat="40.315830" lon="-5.974380">
        <ele>880.368</ele>
        <time>2020-02-29T10:57:53Z</time>
      </trkpt>
      <trkpt lat="40.315860" lon="-5.974380">
        <ele>881.451</ele>
        <time>2020-02-29T10:58:13Z</time>
      </trkpt>
      <trkpt lat="40.315910" lon="-5.974430">
        <ele>882.926</ele>
        <time>2020-02-29T10:58:33Z</time>
      </trkpt>
      <trkpt lat="40.315920" lon="-5.974450">
        <ele>883.177</ele>
        <time>2020-02-29T10:58:53Z</time>
      </trkpt>
      <trkpt lat="40.315950" lon="-5.974490">
        <ele>883.780</ele>
        <time>2020-02-29T10:59:13Z</time>
      </trkpt>
      <trkpt lat="40.316040" lon="-5.974810">
        <ele>883.599</ele>
        <time>2020-02-29T10:59:33Z</time>
      </trkpt>
      <trkpt lat="40.316180" lon="-5.975100">
        <ele>884.560</ele>
        <time>2020-02-29T10:59:53Z</time>
      </trkpt>
      <trkpt lat="40.316260" lon="-5.975220">
        <ele>884.727</ele>
        <time>2020-02-29T11:00:13Z</time>
      </trkpt>
      <trkpt lat="40.316290" lon="-5.975240">
        <ele>885.115</ele>
        <time>2020-02-29T11:00:33Z</time>
      </trkpt>
      <trkpt lat="40.316340" lon="-5.975300">
        <ele>885.465</ele>
        <time>2020-02-29T11:00:53Z</time>
      </trkpt>
      <trkpt lat="40.316620" lon="-5.975570">
        <ele>889.111</ele>
        <time>2020-02-29T11:01:13Z</time>
      </trkpt>
      <trkpt lat="40.317450" lon="-5.976230">
        <ele>902.008</ele>
        <time>2020-02-29T11:01:33Z</time>
      </trkpt>
      <trkpt lat="40.317920" lon="-5.976530">
        <ele>907.555</ele>
        <time>2020-02-29T11:01:53Z</time>
      </trkpt>
      <trkpt lat="40.318510" lon="-5.976830">
        <ele>916.368</ele>
        <time>2020-02-29T11:02:13Z</time>
      </trkpt>
      <trkpt lat="40.318890" lon="-5.976970">
        <ele>920.343</ele>
        <time>2020-02-29T11:02:33Z</time>
      </trkpt>
      <trkpt lat="40.319250" lon="-5.977070">
        <ele>923.234</ele>
        <time>2020-02-29T11:02:53Z</time>
      </trkpt>
      <trkpt lat="40.319630" lon="-5.977100">
        <ele>925.687</ele>
        <time>2020-02-29T11:03:13Z</time>
      </trkpt>
      <trkpt lat="40.319910" lon="-5.977070">
        <ele>928.956</ele>
        <time>2020-02-29T11:03:33Z</time>
      </trkpt>
      <trkpt lat="40.319930" lon="-5.977060">
        <ele>929.377</ele>
        <time>2020-02-29T11:03:53Z</time>
      </trkpt>
      <trkpt lat="40.320080" lon="-5.977030">
        <ele>930.564</ele>
        <time>2020-02-29T11:04:13Z</time>
      </trkpt>
      <trkpt lat="40.320280" lon="-5.976970">
        <ele>931.784</ele>
        <time>2020-02-29T11:04:33Z</time>
      </trkpt>
      <trkpt lat="40.320810" lon="-5.976900">
        <ele>939.707</ele>
        <time>2020-02-29T11:04:53Z</time>
      </trkpt>
      <trkpt lat="40.321000" lon="-5.976720">
        <ele>941.817</ele>
        <time>2020-02-29T11:05:13Z</time>
      </trkpt>
      <trkpt lat="40.321340" lon="-5.976290">
        <ele>946.208</ele>
        <time>2020-02-29T11:05:33Z</time>
      </trkpt>
      <trkpt lat="40.321350" lon="-5.976270">
        <ele>946.352</ele>
        <time>2020-02-29T11:05:53Z</time>
      </trkpt>
      <trkpt lat="40.321650" lon="-5.976070">
        <ele>946.965</ele>
        <time>2020-02-29T11:06:13Z</time>
      </trkpt>
      <trkpt lat="40.322120" lon="-5.975720">
        <ele>943.370</ele>
        <time>2020-02-29T11:06:33Z</time>
      </trkpt>
      <trkpt lat="40.322200" lon="-5.975670">
        <ele>942.671</ele>
        <time>2020-02-29T11:06:53Z</time>
      </trkpt>
      <trkpt lat="40.322500" lon="-5.975370">
        <ele>940.324</ele>
        <time>2020-02-29T11:07:13Z</time>
      </trkpt>
      <trkpt lat="40.323700" lon="-5.973710">
        <ele>934.843</ele>
        <time>2020-02-29T11:07:33Z</time>
      </trkpt>
      <trkpt lat="40.323850" lon="-5.973570">
        <ele>932.064</ele>
        <time>2020-02-29T11:07:53Z</time>
      </trkpt>
      <trkpt lat="40.323870" lon="-5.973660">
        <ele>931.421</ele>
        <time>2020-02-29T11:08:13Z</time>
      </trkpt>
      <trkpt lat="40.323900" lon="-5.973720">
        <ele>930.974</ele>
        <time>2020-02-29T11:08:33Z</time>
      </trkpt>
      <trkpt lat="40.323950" lon="-5.973790">
        <ele>930.656</ele>
        <time>2020-02-29T11:08:53Z</time>
      </trkpt>
      <trkpt lat="40.324040" lon="-5.973860">
        <ele>929.921</ele>
        <time>2020-02-29T11:09:13Z</time>
      </trkpt>
      <trkpt lat="40.324690" lon="-5.974070">
        <ele>928.708</ele>
        <time>2020-02-29T11:09:33Z</time>
      </trkpt>
      <trkpt lat="40.324790" lon="-5.974120">
        <ele>928.891</ele>
        <time>2020-02-29T11:09:53Z</time>
      </trkpt>
      <trkpt lat="40.325280" lon="-5.974300">
        <ele>930.064</ele>
        <time>2020-02-29T11:10:13Z</time>
      </trkpt>
      <trkpt lat="40.325410" lon="-5.974330">
        <ele>929.769</ele>
        <time>2020-02-29T11:10:33Z</time>
      </trkpt>
      <trkpt lat="40.325910" lon="-5.974520">
        <ele>924.580</ele>
        <time>2020-02-29T11:10:53Z</time>
      </trkpt>
      <trkpt lat="40.325950" lon="-5.974530">
        <ele>924.763</ele>
        <time>2020-02-29T11:11:13Z</time>
      </trkpt>
      <trkpt lat="40.326030" lon="-5.974590">
        <ele>925.262</ele>
        <time>2020-02-29T11:11:33Z</time>
      </trkpt>
      <trkpt lat="40.326160" lon="-5.974600">
        <ele>925.783</ele>
        <time>2020-02-29T11:11:53Z</time>
      </trkpt>
      <trkpt lat="40.326440" lon="-5.974680">
        <ele>925.960</ele>
        <time>2020-02-29T11:12:13Z</time>
      </trkpt>
      <trkpt lat="40.326820" lon="-5.974750">
        <ele>924.136</ele>
        <time>2020-02-29T11:12:33Z</time>
      </trkpt>
      <trkpt lat="40.327110" lon="-5.974820">
        <ele>924.817</ele>
        <time>2020-02-29T11:12:53Z</time>
      </trkpt>
      <trkpt lat="40.327370" lon="-5.974850">
        <ele>924.018</ele>
        <time>2020-02-29T11:13:13Z</time>
      </trkpt>
      <trkpt lat="40.328490" lon="-5.975080">
        <ele>923.908</ele>
        <time>2020-02-29T11:13:33Z</time>
      </trkpt>
      <trkpt lat="40.328710" lon="-5.975150">
        <ele>922.857</ele>
        <time>2020-02-29T11:13:53Z</time>
      </trkpt>
      <trkpt lat="40.329000" lon="-5.975420">
        <ele>921.720</ele>
        <time>2020-02-29T11:14:13Z</time>
      </trkpt>
      <trkpt lat="40.329170" lon="-5.975560">
        <ele>921.055</ele>
        <time>2020-02-29T11:14:33Z</time>
      </trkpt>
      <trkpt lat="40.331800" lon="-5.977500">
        <ele>903.616</ele>
        <time>2020-02-29T11:14:53Z</time>
      </trkpt>
      <trkpt lat="40.331810" lon="-5.977500">
        <ele>903.549</ele>
        <time>2020-02-29T11:15:13Z</time>
      </trkpt>
      <trkpt lat="40.333160" lon="-5.978540">
        <ele>894.438</ele>
        <time>2020-02-29T11:15:33Z</time>
      </trkpt>
      <trkpt lat="40.333570" lon="-5.978810">
        <ele>894.879</ele>
        <time>2020-02-29T11:15:53Z</time>
      </trkpt>
      <trkpt lat="40.337780" lon="-5.981950">
        <ele>901.186</ele>
        <time>2020-02-29T11:16:13Z</time>
      </trkpt>
      <trkpt lat="40.338680" lon="-5.982480">
        <ele>899.531</ele>
        <time>2020-02-29T11:16:33Z</time>
      </trkpt>
      <trkpt lat="40.338820" lon="-5.982620">
        <ele>900.261</ele>
        <time>2020-02-29T11:16:53Z</time>
      </trkpt>
      <trkpt lat="40.338990" lon="-5.982850">
        <ele>899.307</ele>
        <time>2020-02-29T11:17:13Z</time>
      </trkpt>
      <trkpt lat="40.339200" lon="-5.983220">
        <ele>896.108</ele>
        <time>2020-02-29T11:17:33Z</time>
      </trkpt>
      <trkpt lat="40.339290" lon="-5.983460">
        <ele>898.087</ele>
        <time>2020-02-29T11:17:53Z</time>
      </trkpt>
      <trkpt lat="40.339340" lon="-5.983550">
        <ele>899.060</ele>
        <time>2020-02-29T11:18:13Z</time>
      </trkpt>
      <trkpt lat="40.339410" lon="-5.983580">
        <ele>898.735</ele>
        <time>2020-02-29T11:18:33Z</time>
      </trkpt>
      <trkpt lat="40.339450" lon="-5.983610">
        <ele>899.096</ele>
        <time>2020-02-29T11:18:53Z</time>
      </trkpt>
      <trkpt lat="40.339560" lon="-5.983600">
        <ele>900.099</ele>
        <time>2020-02-29T11:19:13Z</time>
      </trkpt>
      <trkpt lat="40.339660" lon="-5.983520">
        <ele>899.428</ele>
        <time>2020-02-29T11:19:33Z</time>
      </trkpt>
      <trkpt lat="40.339820" lon="-5.983320">
        <ele>897.949</ele>
        <time>2020-02-29T11:19:53Z</time>
      </trkpt>
      <trkpt lat="40.340090" lon="-5.982860">
        <ele>894.686</ele>
        <time>2020-02-29T11:20:13Z</time>
      </trkpt>
      <trkpt lat="40.340180" lon="-5.982760">
        <ele>893.543</ele>
        <time>2020-02-29T11:20:33Z</time>
      </trkpt>
      <trkpt lat="40.340200" lon="-5.982750">
        <ele>893.564</ele>
        <time>2020-02-29T11:20:53Z</time>
      </trkpt>
      <trkpt lat="40.340310" lon="-5.982670">
        <ele>892.610</ele>
        <time>2020-02-29T11:21:13Z</time>
      </trkpt>
      <trkpt lat="40.340500" lon="-5.982610">
        <ele>892.508</ele>
        <time>2020-02-29T11:21:33Z</time>
      </trkpt>
      <trkpt lat="40.340680" lon="-5.982600">
        <ele>892.488</ele>
        <time>2020-02-29T11:21:53Z</time>
      </trkpt>
      <trkpt lat="40.341090" lon="-5.982720">
        <ele>894.571</ele>
        <time>2020-02-29T11:22:13Z</time>
      </trkpt>
      <trkpt lat="40.341250" lon="-5.982750">
        <ele>894.876</ele>
        <time>2020-02-29T11:22:33Z</time>
      </trkpt>
      <trkpt lat="40.341400" lon="-5.982730">
        <ele>893.887</ele>
        <time>2020-02-29T11:22:53Z</time>
      </trkpt>
      <trkpt lat="40.342360" lon="-5.982470">
        <ele>888.990</ele>
        <time>2020-02-29T11:23:13Z</time>
      </trkpt>
      <trkpt lat="40.342500" lon="-5.982470">
        <ele>889.479</ele>
        <time>2020-02-29T11:23:33Z</time>
      </trkpt>
      <trkpt lat="40.342650" lon="-5.982530">
        <ele>889.130</ele>
        <time>2020-02-29T11:23:53Z</time>
      </trkpt>
      <trkpt lat="40.342660" lon="-5.982530">
        <ele>889.057</ele>
        <time>2020-02-29T11:24:13Z</time>
      </trkpt>
      <trkpt lat="40.342880" lon="-5.982690">
        <ele>890.719</ele>
        <time>2020-02-29T11:24:33Z</time>
      </trkpt>
      <trkpt lat="40.342960" lon="-5.982700">
        <ele>890.709</ele>
        <time>2020-02-29T11:24:53Z</time>
      </trkpt>
      <trkpt lat="40.343170" lon="-5.982660">
        <ele>889.719</ele>
        <time>2020-02-29T11:25:13Z</time>
      </trkpt>
      <trkpt lat="40.343290" lon="-5.982620">
        <ele>889.008</ele>
        <time>2020-02-29T11:25:33Z</time>
      </trkpt>
      <trkpt lat="40.343630" lon="-5.982560">
        <ele>886.425</ele>
        <time>2020-02-29T11:25:53Z</time>
      </trkpt>
      <trkpt lat="40.343880" lon="-5.982580">
        <ele>884.878</ele>
        <time>2020-02-29T11:26:13Z</time>
      </trkpt>
      <trkpt lat="40.344090" lon="-5.982660">
        <ele>880.973</ele>
        <time>2020-02-29T11:26:33Z</time>
      </trkpt>
      <trkpt lat="40.344100" lon="-5.982660">
        <ele>880.694</ele>
        <time>2020-02-29T11:26:53Z</time>
      </trkpt>
      <trkpt lat="40.344280" lon="-5.982800">
        <ele>877.127</ele>
        <time>2020-02-29T11:27:13Z</time>
      </trkpt>
      <trkpt lat="40.344380" lon="-5.982930">
        <ele>875.876</ele>
        <time>2020-02-29T11:27:33Z</time>
      </trkpt>
      <trkpt lat="40.344420" lon="-5.982960">
        <ele>874.867</ele>
        <time>2020-02-29T11:27:53Z</time>
      </trkpt>
      <trkpt lat="40.344430" lon="-5.983010">
        <ele>875.054</ele>
        <time>2020-02-29T11:28:13Z</time>
      </trkpt>
      <trkpt lat="40.344450" lon="-5.983060">
        <ele>874.894</ele>
        <time>2020-02-29T11:28:33Z</time>
      </trkpt>
      <trkpt lat="40.344480" lon="-5.983330">
        <ele>876.857</ele>
        <time>2020-02-29T11:28:53Z</time>
      </trkpt>
      <trkpt lat="40.344520" lon="-5.983540">
        <ele>878.422</ele>
        <time>2020-02-29T11:29:13Z</time>
      </trkpt>
      <trkpt lat="40.344540" lon="-5.983600">
        <ele>878.808</ele>
        <time>2020-02-29T11:29:33Z</time>
      </trkpt>
      <trkpt lat="40.344580" lon="-5.983680">
        <ele>880.263</ele>
        <time>2020-02-29T11:29:53Z</time>
      </trkpt>
      <trkpt lat="40.344740" lon="-5.983830">
        <ele>880.136</ele>
        <time>2020-02-29T11:30:13Z</time>
      </trkpt>
      <trkpt lat="40.344890" lon="-5.983950">
        <ele>879.771</ele>
        <time>2020-02-29T11:30:33Z</time>
      </trkpt>
      <trkpt lat="40.344920" lon="-5.983960">
        <ele>879.292</ele>
        <time>2020-02-29T11:30:53Z</time>
      </trkpt>
      <trkpt lat="40.345040" lon="-5.984050">
        <ele>878.295</ele>
        <time>2020-02-29T11:31:13Z</time>
      </trkpt>
      <trkpt lat="40.345080" lon="-5.984070">
        <ele>877.814</ele>
        <time>2020-02-29T11:31:33Z</time>
      </trkpt>
      <trkpt lat="40.345090" lon="-5.984070">
        <ele>877.655</ele>
        <time>2020-02-29T11:31:53Z</time>
      </trkpt>
      <trkpt lat="40.345170" lon="-5.984100">
        <ele>876.712</ele>
        <time>2020-02-29T11:32:13Z</time>
      </trkpt>
      <trkpt lat="40.345370" lon="-5.984150">
        <ele>873.724</ele>
        <time>2020-02-29T11:32:33Z</time>
      </trkpt>
      <trkpt lat="40.345420" lon="-5.984170">
        <ele>872.904</ele>
        <time>2020-02-29T11:32:53Z</time>
      </trkpt>
      <trkpt lat="40.345450" lon="-5.984190">
        <ele>872.214</ele>
        <time>2020-02-29T11:33:13Z</time>
      </trkpt>
      <trkpt lat="40.345480" lon="-5.984220">
        <ele>871.408</ele>
        <time>2020-02-29T11:33:33Z</time>
      </trkpt>
      <trkpt lat="40.345490" lon="-5.984250">
        <ele>871.066</ele>
        <time>2020-02-29T11:33:53Z</time>
      </trkpt>
      <trkpt lat="40.345510" lon="-5.984280">
        <ele>870.369</ele>
        <time>2020-02-29T11:34:13Z</time>
      </trkpt>
      <trkpt lat="40.345540" lon="-5.984430">
        <ele>868.594</ele>
        <time>2020-02-29T11:34:33Z</time>
      </trkpt>
      <trkpt lat="40.345540" lon="-5.984470">
        <ele>868.045</ele>
        <time>2020-02-29T11:34:53Z</time>
      </trkpt>
      <trkpt lat="40.345530" lon="-5.984530">
        <ele>867.338</ele>
        <time>2020-02-29T11:35:13Z</time>
      </trkpt>
      <trkpt lat="40.345530" lon="-5.984580">
        <ele>866.477</ele>
        <time>2020-02-29T11:35:33Z</time>
      </trkpt>
      <trkpt lat="40.345520" lon="-5.984600">
        <ele>866.438</ele>
        <time>2020-02-29T11:35:53Z</time>
      </trkpt>
      <trkpt lat="40.345520" lon="-5.984630">
        <ele>865.995</ele>
        <time>2020-02-29T11:36:13Z</time>
      </trkpt>
      <trkpt lat="40.345500" lon="-5.984670">
        <ele>866.023</ele>
        <time>2020-02-29T11:36:33Z</time>
      </trkpt>
      <trkpt lat="40.345240" lon="-5.985590">
        <ele>863.383</ele>
        <time>2020-02-29T11:36:53Z</time>
      </trkpt>
      <trkpt lat="40.345170" lon="-5.985770">
        <ele>862.311</ele>
        <time>2020-02-29T11:37:13Z</time>
      </trkpt>
      <trkpt lat="40.344990" lon="-5.985990">
        <ele>862.108</ele>
        <time>2020-02-29T11:37:33Z</time>
      </trkpt>
      <trkpt lat="40.344880" lon="-5.986150">
        <ele>864.286</ele>
        <time>2020-02-29T11:37:53Z</time>
      </trkpt>
      <trkpt lat="40.344880" lon="-5.986250">
        <ele>865.059</ele>
        <time>2020-02-29T11:38:13Z</time>
      </trkpt>
      <trkpt lat="40.344920" lon="-5.986370">
        <ele>865.264</ele>
        <time>2020-02-29T11:38:33Z</time>
      </trkpt>
      <trkpt lat="40.344940" lon="-5.986410">
        <ele>865.715</ele>
        <time>2020-02-29T11:38:53Z</time>
      </trkpt>
      <trkpt lat="40.344990" lon="-5.986450">
        <ele>866.138</ele>
        <time>2020-02-29T11:39:13Z</time>
      </trkpt>
      <trkpt lat="40.345060" lon="-5.986480">
        <ele>866.657</ele>
        <time>2020-02-29T11:39:33Z</time>
      </trkpt>
      <trkpt lat="40.345130" lon="-5.986480">
        <ele>866.288</ele>
        <time>2020-02-29T11:39:53Z</time>
      </trkpt>
      <trkpt lat="40.345150" lon="-5.986490">
        <ele>866.435</ele>
        <time>2020-02-29T11:40:13Z</time>
      </trkpt>
      <trkpt lat="40.345340" lon="-5.986490">
        <ele>865.697</ele>
        <time>2020-02-29T11:40:33Z</time>
      </trkpt>
      <trkpt lat="40.345410" lon="-5.986480">
        <ele>865.323</ele>
        <time>2020-02-29T11:40:53Z</time>
      </trkpt>
      <trkpt lat="40.345500" lon="-5.986450">
        <ele>864.225</ele>
        <time>2020-02-29T11:41:13Z</time>
      </trkpt>
      <trkpt lat="40.345600" lon="-5.986390">
        <ele>862.408</ele>
        <time>2020-02-29T11:41:33Z</time>
      </trkpt>
      <trkpt lat="40.345850" lon="-5.986270">
        <ele>860.673</ele>
        <time>2020-02-29T11:41:53Z</time>
      </trkpt>
      <trkpt lat="40.345940" lon="-5.986240">
        <ele>860.186</ele>
        <time>2020-02-29T11:42:13Z</time>
      </trkpt>
      <trkpt lat="40.346190" lon="-5.986110">
        <ele>857.591</ele>
        <time>2020-02-29T11:42:33Z</time>
      </trkpt>
      <trkpt lat="40.346290" lon="-5.986070">
        <ele>857.252</ele>
        <time>2020-02-29T11:42:53Z</time>
      </trkpt>
      <trkpt lat="40.346510" lon="-5.986020">
        <ele>855.695</ele>
        <time>2020-02-29T11:43:13Z</time>
      </trkpt>
      <trkpt lat="40.346730" lon="-5.986020">
        <ele>853.744</ele>
        <time>2020-02-29T11:43:33Z</time>
      </trkpt>
      <trkpt lat="40.346780" lon="-5.986040">
        <ele>853.545</ele>
        <time>2020-02-29T11:43:53Z</time>
      </trkpt>
      <trkpt lat="40.346860" lon="-5.986100">
        <ele>853.962</ele>
        <time>2020-02-29T11:44:13Z</time>
      </trkpt>
      <trkpt lat="40.346870" lon="-5.986120">
        <ele>854.324</ele>
        <time>2020-02-29T11:44:33Z</time>
      </trkpt>
      <trkpt lat="40.346900" lon="-5.986160">
        <ele>854.804</ele>
        <time>2020-02-29T11:44:53Z</time>
      </trkpt>
      <trkpt lat="40.346970" lon="-5.986220">
        <ele>855.314</ele>
        <time>2020-02-29T11:45:13Z</time>
      </trkpt>
      <trkpt lat="40.347050" lon="-5.986250">
        <ele>855.808</ele>
        <time>2020-02-29T11:45:33Z</time>
      </trkpt>
      <trkpt lat="40.347180" lon="-5.986260">
        <ele>855.856</ele>
        <time>2020-02-29T11:45:53Z</time>
      </trkpt>
      <trkpt lat="40.347560" lon="-5.986200">
        <ele>853.689</ele>
        <time>2020-02-29T11:46:13Z</time>
      </trkpt>
      <trkpt lat="40.347910" lon="-5.986110">
        <ele>851.454</ele>
        <time>2020-02-29T11:46:33Z</time>
      </trkpt>
      <trkpt lat="40.347930" lon="-5.986110">
        <ele>851.585</ele>
        <time>2020-02-29T11:46:53Z</time>
      </trkpt>
      <trkpt lat="40.348770" lon="-5.985790">
        <ele>842.428</ele>
        <time>2020-02-29T11:47:13Z</time>
      </trkpt>
      <trkpt lat="40.349500" lon="-5.985550">
        <ele>835.957</ele>
        <time>2020-02-29T11:47:33Z</time>
      </trkpt>
      <trkpt lat="40.349610" lon="-5.985550">
        <ele>833.998</ele>
        <time>2020-02-29T11:47:53Z</time>
      </trkpt>
      <trkpt lat="40.349650" lon="-5.985560">
        <ele>833.475</ele>
        <time>2020-02-29T11:48:13Z</time>
      </trkpt>
      <trkpt lat="40.349670" lon="-5.985560">
        <ele>833.072</ele>
        <time>2020-02-29T11:48:33Z</time>
      </trkpt>
      <trkpt lat="40.349790" lon="-5.985640">
        <ele>831.013</ele>
        <time>2020-02-29T11:48:53Z</time>
      </trkpt>
      <trkpt lat="40.349860" lon="-5.985740">
        <ele>830.014</ele>
        <time>2020-02-29T11:49:13Z</time>
      </trkpt>
      <trkpt lat="40.349900" lon="-5.985820">
        <ele>829.708</ele>
        <time>2020-02-29T11:49:33Z</time>
      </trkpt>
      <trkpt lat="40.349940" lon="-5.986000">
        <ele>827.351</ele>
        <time>2020-02-29T11:49:53Z</time>
      </trkpt>
      <trkpt lat="40.349940" lon="-5.986080">
        <ele>826.614</ele>
        <time>2020-02-29T11:50:13Z</time>
      </trkpt>
      <trkpt lat="40.349950" lon="-5.986130">
        <ele>825.929</ele>
        <time>2020-02-29T11:50:33Z</time>
      </trkpt>
      <trkpt lat="40.349950" lon="-5.986320">
        <ele>824.730</ele>
        <time>2020-02-29T11:50:53Z</time>
      </trkpt>
      <trkpt lat="40.349970" lon="-5.986480">
        <ele>824.973</ele>
        <time>2020-02-29T11:51:13Z</time>
      </trkpt>
      <trkpt lat="40.349990" lon="-5.986540">
        <ele>825.112</ele>
        <time>2020-02-29T11:51:33Z</time>
      </trkpt>
      <trkpt lat="40.349990" lon="-5.986550">
        <ele>825.323</ele>
        <time>2020-02-29T11:51:53Z</time>
      </trkpt>
      <trkpt lat="40.350010" lon="-5.986610">
        <ele>825.690</ele>
        <time>2020-02-29T11:52:13Z</time>
      </trkpt>
      <trkpt lat="40.350310" lon="-5.987160">
        <ele>822.372</ele>
        <time>2020-02-29T11:52:33Z</time>
      </trkpt>
      <trkpt lat="40.350370" lon="-5.987430">
        <ele>822.813</ele>
        <time>2020-02-29T11:52:53Z</time>
      </trkpt>
      <trkpt lat="40.350390" lon="-5.987830">
        <ele>827.414</ele>
        <time>2020-02-29T11:53:13Z</time>
      </trkpt>
      <trkpt lat="40.350430" lon="-5.987870">
        <ele>827.908</ele>
        <time>2020-02-29T11:53:33Z</time>
      </trkpt>
      <trkpt lat="40.350450" lon="-5.987880">
        <ele>827.941</ele>
        <time>2020-02-29T11:53:53Z</time>
      </trkpt>
      <trkpt lat="40.350510" lon="-5.987880">
        <ele>827.434</ele>
        <time>2020-02-29T11:54:13Z</time>
      </trkpt>
      <trkpt lat="40.350560" lon="-5.987890">
        <ele>827.259</ele>
        <time>2020-02-29T11:54:33Z</time>
      </trkpt>
      <trkpt lat="40.350620" lon="-5.987880">
        <ele>826.990</ele>
        <time>2020-02-29T11:54:53Z</time>
      </trkpt>
      <trkpt lat="40.351010" lon="-5.987740">
        <ele>824.133</ele>
        <time>2020-02-29T11:55:13Z</time>
      </trkpt>
      <trkpt lat="40.351080" lon="-5.987700">
        <ele>823.562</ele>
        <time>2020-02-29T11:55:33Z</time>
      </trkpt>
      <trkpt lat="40.351090" lon="-5.987700">
        <ele>823.673</ele>
        <time>2020-02-29T11:55:53Z</time>
      </trkpt>
      <trkpt lat="40.351180" lon="-5.987620">
        <ele>822.420</ele>
        <time>2020-02-29T11:56:13Z</time>
      </trkpt>
      <trkpt lat="40.351210" lon="-5.987570">
        <ele>821.582</ele>
        <time>2020-02-29T11:56:33Z</time>
      </trkpt>
      <trkpt lat="40.351350" lon="-5.987390">
        <ele>819.943</ele>
        <time>2020-02-29T11:56:53Z</time>
      </trkpt>
      <trkpt lat="40.351450" lon="-5.987230">
        <ele>817.817</ele>
        <time>2020-02-29T11:57:13Z</time>
      </trkpt>
      <trkpt lat="40.351570" lon="-5.987080">
        <ele>815.708</ele>
        <time>2020-02-29T11:57:33Z</time>
      </trkpt>
      <trkpt lat="40.351650" lon="-5.987030">
        <ele>815.642</ele>
        <time>2020-02-29T11:57:53Z</time>
      </trkpt>
      <trkpt lat="40.351710" lon="-5.987010">
        <ele>815.385</ele>
        <time>2020-02-29T11:58:13Z</time>
      </trkpt>
      <trkpt lat="40.351820" lon="-5.986990">
        <ele>814.560</ele>
        <time>2020-02-29T11:58:33Z</time>
      </trkpt>
      <trkpt lat="40.351980" lon="-5.986990">
        <ele>813.811</ele>
        <time>2020-02-29T11:58:53Z</time>
      </trkpt>
      <trkpt lat="40.352010" lon="-5.987010">
        <ele>814.094</ele>
        <time>2020-02-29T11:59:13Z</time>
      </trkpt>
      <trkpt lat="40.352070" lon="-5.987030">
        <ele>813.863</ele>
        <time>2020-02-29T11:59:33Z</time>
      </trkpt>
      <trkpt lat="40.352140" lon="-5.987070">
        <ele>813.874</ele>
        <time>2020-02-29T11:59:53Z</time>
      </trkpt>
      <trkpt lat="40.352170" lon="-5.987080">
        <ele>813.661</ele>
        <time>2020-02-29T12:00:13Z</time>
      </trkpt>
      <trkpt lat="40.352310" lon="-5.987150">
        <ele>812.534</ele>
        <time>2020-02-29T12:00:33Z</time>
      </trkpt>
      <trkpt lat="40.352830" lon="-5.987510">
        <ele>802.755</ele>
        <time>2020-02-29T12:00:53Z</time>
      </trkpt>
      <trkpt lat="40.352840" lon="-5.987510">
        <ele>802.710</ele>
        <time>2020-02-29T12:01:13Z</time>
      </trkpt>
      <trkpt lat="40.352930" lon="-5.987580">
        <ele>802.208</ele>
        <time>2020-02-29T12:01:33Z</time>
      </trkpt>
      <trkpt lat="40.352990" lon="-5.987670">
        <ele>802.367</ele>
        <time>2020-02-29T12:01:53Z</time>
      </trkpt>
      <trkpt lat="40.353050" lon="-5.987820">
        <ele>802.530</ele>
        <time>2020-02-29T12:02:13Z</time>
      </trkpt>
      <trkpt lat="40.353140" lon="-5.987990">
        <ele>801.765</ele>
        <time>2020-02-29T12:02:33Z</time>
      </trkpt>
      <trkpt lat="40.353210" lon="-5.988080">
        <ele>800.936</ele>
        <time>2020-02-29T12:02:53Z</time>
      </trkpt>
      <trkpt lat="40.353380" lon="-5.988230">
        <ele>799.239</ele>
        <time>2020-02-29T12:03:13Z</time>
      </trkpt>
      <trkpt lat="40.353900" lon="-5.988640">
        <ele>792.468</ele>
        <time>2020-02-29T12:03:33Z</time>
      </trkpt>
      <trkpt lat="40.354310" lon="-5.989030">
        <ele>789.589</ele>
        <time>2020-02-29T12:03:53Z</time>
      </trkpt>
      <trkpt lat="40.354500" lon="-5.989190">
        <ele>787.986</ele>
        <time>2020-02-29T12:04:13Z</time>
      </trkpt>
      <trkpt lat="40.354590" lon="-5.989240">
        <ele>787.327</ele>
        <time>2020-02-29T12:04:33Z</time>
      </trkpt>
      <trkpt lat="40.355090" lon="-5.989620">
        <ele>784.968</ele>
        <time>2020-02-29T12:04:53Z</time>
      </trkpt>
      <trkpt lat="40.355210" lon="-5.989740">
        <ele>784.114</ele>
        <time>2020-02-29T12:05:13Z</time>
      </trkpt>
      <trkpt lat="40.355320" lon="-5.989880">
        <ele>783.608</ele>
        <time>2020-02-29T12:05:33Z</time>
      </trkpt>
      <trkpt lat="40.355350" lon="-5.989940">
        <ele>782.946</ele>
        <time>2020-02-29T12:05:53Z</time>
      </trkpt>
      <trkpt lat="40.355370" lon="-5.989960">
        <ele>782.999</ele>
        <time>2020-02-29T12:06:13Z</time>
      </trkpt>
      <trkpt lat="40.355410" lon="-5.990020">
        <ele>782.344</ele>
        <time>2020-02-29T12:06:33Z</time>
      </trkpt>
      <trkpt lat="40.355440" lon="-5.990090">
        <ele>781.275</ele>
        <time>2020-02-29T12:06:53Z</time>
      </trkpt>
      <trkpt lat="40.355480" lon="-5.990250">
        <ele>778.628</ele>
        <time>2020-02-29T12:07:13Z</time>
      </trkpt>
      <trkpt lat="40.355530" lon="-5.990390">
        <ele>777.247</ele>
        <time>2020-02-29T12:07:33Z</time>
      </trkpt>
      <trkpt lat="40.355630" lon="-5.990560">
        <ele>775.218</ele>
        <time>2020-02-29T12:07:53Z</time>
      </trkpt>
      <trkpt lat="40.355660" lon="-5.990600">
        <ele>774.885</ele>
        <time>2020-02-29T12:08:13Z</time>
      </trkpt>
      <trkpt lat="40.355900" lon="-5.990810">
        <ele>774.238</ele>
        <time>2020-02-29T12:08:33Z</time>
      </trkpt>
      <trkpt lat="40.356170" lon="-5.990990">
        <ele>772.770</ele>
        <time>2020-02-29T12:08:53Z</time>
      </trkpt>
      <trkpt lat="40.356430" lon="-5.991130">
        <ele>769.317</ele>
        <time>2020-02-29T12:09:13Z</time>
      </trkpt>
      <trkpt lat="40.356570" lon="-5.991180">
        <ele>767.708</ele>
        <time>2020-02-29T12:09:33Z</time>
      </trkpt>
      <trkpt lat="40.356750" lon="-5.991220">
        <ele>766.267</ele>
        <time>2020-02-29T12:09:53Z</time>
      </trkpt>
      <trkpt lat="40.357770" lon="-5.991330">
        <ele>761.980</ele>
        <time>2020-02-29T12:10:13Z</time>
      </trkpt>
      <trkpt lat="40.357880" lon="-5.991390">
        <ele>761.185</ele>
        <time>2020-02-29T12:10:33Z</time>
      </trkpt>
      <trkpt lat="40.357940" lon="-5.991460">
        <ele>759.626</ele>
        <time>2020-02-29T12:10:53Z</time>
      </trkpt>
      <trkpt lat="40.358580" lon="-5.992060">
        <ele>752.289</ele>
        <time>2020-02-29T12:11:13Z</time>
      </trkpt>
      <trkpt lat="40.358710" lon="-5.992160">
        <ele>751.048</ele>
        <time>2020-02-29T12:11:33Z</time>
      </trkpt>
      <trkpt lat="40.358750" lon="-5.992180">
        <ele>751.049</ele>
        <time>2020-02-29T12:11:53Z</time>
      </trkpt>
      <trkpt lat="40.359120" lon="-5.992490">
        <ele>748.766</ele>
        <time>2020-02-29T12:12:13Z</time>
      </trkpt>
      <trkpt lat="40.359240" lon="-5.992640">
        <ele>746.862</ele>
        <time>2020-02-29T12:12:33Z</time>
      </trkpt>
      <trkpt lat="40.359300" lon="-5.992740">
        <ele>745.383</ele>
        <time>2020-02-29T12:12:53Z</time>
      </trkpt>
      <trkpt lat="40.359450" lon="-5.992940">
        <ele>743.211</ele>
        <time>2020-02-29T12:13:13Z</time>
      </trkpt>
      <trkpt lat="40.359610" lon="-5.993050">
        <ele>743.508</ele>
        <time>2020-02-29T12:13:33Z</time>
      </trkpt>
      <trkpt lat="40.360110" lon="-5.993190">
        <ele>742.410</ele>
        <time>2020-02-29T12:13:53Z</time>
      </trkpt>
      <trkpt lat="40.360260" lon="-5.993210">
        <ele>741.873</ele>
        <time>2020-02-29T12:14:13Z</time>
      </trkpt>
      <trkpt lat="40.360440" lon="-5.993210">
        <ele>739.418</ele>
        <time>2020-02-29T12:14:33Z</time>
      </trkpt>
      <trkpt lat="40.360520" lon="-5.993200">
        <ele>738.459</ele>
        <time>2020-02-29T12:14:53Z</time>
      </trkpt>
      <trkpt lat="40.360640" lon="-5.993160">
        <ele>736.322</ele>
        <time>2020-02-29T12:15:13Z</time>
      </trkpt>
      <trkpt lat="40.360700" lon="-5.993130">
        <ele>735.081</ele>
        <time>2020-02-29T12:15:33Z</time>
      </trkpt>
      <trkpt lat="40.360780" lon="-5.993070">
        <ele>733.432</ele>
        <time>2020-02-29T12:15:53Z</time>
      </trkpt>
      <trkpt lat="40.360860" lon="-5.992980">
        <ele>732.219</ele>
        <time>2020-02-29T12:16:13Z</time>
      </trkpt>
      <trkpt lat="40.360930" lon="-5.992780">
        <ele>732.285</ele>
        <time>2020-02-29T12:16:33Z</time>
      </trkpt>
      <trkpt lat="40.360950" lon="-5.992670">
        <ele>732.389</ele>
        <time>2020-02-29T12:16:53Z</time>
      </trkpt>
      <trkpt lat="40.360950" lon="-5.992610">
        <ele>732.617</ele>
        <time>2020-02-29T12:17:13Z</time>
      </trkpt>
      <trkpt lat="40.360960" lon="-5.992580">
        <ele>732.508</ele>
        <time>2020-02-29T12:17:33Z</time>
      </trkpt>
      <trkpt lat="40.360950" lon="-5.992540">
        <ele>733.052</ele>
        <time>2020-02-29T12:17:53Z</time>
      </trkpt>
      <trkpt lat="40.360950" lon="-5.992490">
        <ele>733.285</ele>
        <time>2020-02-29T12:18:13Z</time>
      </trkpt>
      <trkpt lat="40.360940" lon="-5.992450">
        <ele>733.390</ele>
        <time>2020-02-29T12:18:33Z</time>
      </trkpt>
      <trkpt lat="40.360940" lon="-5.992430">
        <ele>733.321</ele>
        <time>2020-02-29T12:18:53Z</time>
      </trkpt>
      <trkpt lat="40.360790" lon="-5.991930">
        <ele>734.724</ele>
        <time>2020-02-29T12:19:13Z</time>
      </trkpt>
      <trkpt lat="40.360660" lon="-5.991230">
        <ele>727.653</ele>
        <time>2020-02-29T12:19:33Z</time>
      </trkpt>
      <trkpt lat="40.360600" lon="-5.991010">
        <ele>726.414</ele>
        <time>2020-02-29T12:19:53Z</time>
      </trkpt>
      <trkpt lat="40.360600" lon="-5.991000">
        <ele>726.371</ele>
        <time>2020-02-29T12:20:13Z</time>
      </trkpt>
      <trkpt lat="40.360490" lon="-5.990560">
        <ele>725.629</ele>
        <time>2020-02-29T12:20:33Z</time>
      </trkpt>
      <trkpt lat="40.360470" lon="-5.990420">
        <ele>724.800</ele>
        <time>2020-02-29T12:20:53Z</time>
      </trkpt>
      <trkpt lat="40.360470" lon="-5.990280">
        <ele>723.020</ele>
        <time>2020-02-29T12:21:13Z</time>
      </trkpt>
      <trkpt lat="40.360480" lon="-5.990230">
        <ele>722.308</ele>
        <time>2020-02-29T12:21:33Z</time>
      </trkpt>
      <trkpt lat="40.360480" lon="-5.990210">
        <ele>722.276</ele>
        <time>2020-02-29T12:21:53Z</time>
      </trkpt>
      <trkpt lat="40.360500" lon="-5.990170">
        <ele>721.059</ele>
        <time>2020-02-29T12:22:13Z</time>
      </trkpt>
      <trkpt lat="40.360520" lon="-5.990150">
        <ele>719.964</ele>
        <time>2020-02-29T12:22:33Z</time>
      </trkpt>
      <trkpt lat="40.360560" lon="-5.990140">
        <ele>717.965</ele>
        <time>2020-02-29T12:22:53Z</time>
      </trkpt>
      <trkpt lat="40.360880" lon="-5.990010">
        <ele>712.698</ele>
        <time>2020-02-29T12:23:13Z</time>
      </trkpt>
      <trkpt lat="40.360980" lon="-5.989960">
        <ele>711.537</ele>
        <time>2020-02-29T12:23:33Z</time>
      </trkpt>
      <trkpt lat="40.361040" lon="-5.989920">
        <ele>711.298</ele>
        <time>2020-02-29T12:23:53Z</time>
      </trkpt>
      <trkpt lat="40.361150" lon="-5.989870">
        <ele>710.215</ele>
        <time>2020-02-29T12:24:13Z</time>
      </trkpt>
      <trkpt lat="40.361630" lon="-5.989570">
        <ele>710.654</ele>
        <time>2020-02-29T12:24:33Z</time>
      </trkpt>
      <trkpt lat="40.361700" lon="-5.989550">
        <ele>710.556</ele>
        <time>2020-02-29T12:24:53Z</time>
      </trkpt>
      <trkpt lat="40.361760" lon="-5.989550">
        <ele>710.511</ele>
        <time>2020-02-29T12:25:13Z</time>
      </trkpt>
      <trkpt lat="40.362280" lon="-5.989630">
        <ele>707.808</ele>
        <time>2020-02-29T12:25:33Z</time>
      </trkpt>
      <trkpt lat="40.362480" lon="-5.989630">
        <ele>706.229</ele>
        <time>2020-02-29T12:25:53Z</time>
      </trkpt>
      <trkpt lat="40.362570" lon="-5.989610">
        <ele>706.312</ele>
        <time>2020-02-29T12:26:13Z</time>
      </trkpt>
      <trkpt lat="40.362620" lon="-5.989590">
        <ele>706.657</ele>
        <time>2020-02-29T12:26:33Z</time>
      </trkpt>
      <trkpt lat="40.362630" lon="-5.989580">
        <ele>706.958</ele>
        <time>2020-02-29T12:26:53Z</time>
      </trkpt>
      <trkpt lat="40.362680" lon="-5.989550">
        <ele>707.581</ele>
        <time>2020-02-29T12:27:13Z</time>
      </trkpt>
      <trkpt lat="40.362740" lon="-5.989490">
        <ele>708.950</ele>
        <time>2020-02-29T12:27:33Z</time>
      </trkpt>
      <trkpt lat="40.362810" lon="-5.989360">
        <ele>709.841</ele>
        <time>2020-02-29T12:27:53Z</time>
      </trkpt>
      <trkpt lat="40.362820" lon="-5.989310">
        <ele>709.998</ele>
        <time>2020-02-29T12:28:13Z</time>
      </trkpt>
      <trkpt lat="40.362820" lon="-5.989230">
        <ele>710.578</ele>
        <time>2020-02-29T12:28:33Z</time>
      </trkpt>
      <trkpt lat="40.362800" lon="-5.989140">
        <ele>711.233</ele>
        <time>2020-02-29T12:28:53Z</time>
      </trkpt>
      <trkpt lat="40.362690" lon="-5.988950">
        <ele>712.926</ele>
        <time>2020-02-29T12:29:13Z</time>
      </trkpt>
      <trkpt lat="40.362630" lon="-5.988890">
        <ele>714.908</ele>
        <time>2020-02-29T12:29:33Z</time>
      </trkpt>
      <trkpt lat="40.362600" lon="-5.988870">
        <ele>715.561</ele>
        <time>2020-02-29T12:29:53Z</time>
      </trkpt>
      <trkpt lat="40.362470" lon="-5.988750">
        <ele>716.774</ele>
        <time>2020-02-29T12:30:13Z</time>
      </trkpt>
      <trkpt lat="40.362450" lon="-5.988740">
        <ele>716.989</ele>
        <time>2020-02-29T12:30:33Z</time>
      </trkpt>
      <trkpt lat="40.362110" lon="-5.988390">
        <ele>719.240</ele>
        <time>2020-02-29T12:30:53Z</time>
      </trkpt>
      <trkpt lat="40.362040" lon="-5.988290">
        <ele>718.853</ele>
        <time>2020-02-29T12:31:13Z</time>
      </trkpt>
      <trkpt lat="40.362020" lon="-5.988270">
        <ele>719.032</ele>
        <time>2020-02-29T12:31:33Z</time>
      </trkpt>
      <trkpt lat="40.361980" lon="-5.988200">
        <ele>718.753</ele>
        <time>2020-02-29T12:31:53Z</time>
      </trkpt>
      <trkpt lat="40.361950" lon="-5.988100">
        <ele>717.740</ele>
        <time>2020-02-29T12:32:13Z</time>
      </trkpt>
      <trkpt lat="40.361980" lon="-5.988000">
        <ele>716.662</ele>
        <time>2020-02-29T12:32:33Z</time>
      </trkpt>
      <trkpt lat="40.362010" lon="-5.987970">
        <ele>716.383</ele>
        <time>2020-02-29T12:32:53Z</time>
      </trkpt>
      <trkpt lat="40.362080" lon="-5.987940">
        <ele>715.211</ele>
        <time>2020-02-29T12:33:13Z</time>
      </trkpt>
      <trkpt lat="40.362250" lon="-5.987940">
        <ele>712.208</ele>
        <time>2020-02-29T12:33:33Z</time>
      </trkpt>
      <trkpt lat="40.362350" lon="-5.987930">
        <ele>711.340</ele>
        <time>2020-02-29T12:33:53Z</time>
      </trkpt>
      <trkpt lat="40.362560" lon="-5.987890">
        <ele>709.923</ele>
        <time>2020-02-29T12:34:13Z</time>
      </trkpt>
      <trkpt lat="40.362700" lon="-5.987840">
        <ele>709.788</ele>
        <time>2020-02-29T12:34:33Z</time>
      </trkpt>
      <trkpt lat="40.362830" lon="-5.987730">
        <ele>710.869</ele>
        <time>2020-02-29T12:34:53Z</time>
      </trkpt>
      <trkpt lat="40.362940" lon="-5.987620">
        <ele>710.282</ele>
        <time>2020-02-29T12:35:13Z</time>
      </trkpt>
      <trkpt lat="40.363060" lon="-5.987470">
        <ele>709.491</ele>
        <time>2020-02-29T12:35:33Z</time>
      </trkpt>
      <trkpt lat="40.363110" lon="-5.987430">
        <ele>709.582</ele>
        <time>2020-02-29T12:35:53Z</time>
      </trkpt>
      <trkpt lat="40.363140" lon="-5.987420">
        <ele>709.329</ele>
        <time>2020-02-29T12:36:13Z</time>
      </trkpt>
      <trkpt lat="40.363200" lon="-5.987410">
        <ele>708.944</ele>
        <time>2020-02-29T12:36:33Z</time>
      </trkpt>
      <trkpt lat="40.363270" lon="-5.987410">
        <ele>708.205</ele>
        <time>2020-02-29T12:36:53Z</time>
      </trkpt>
      <trkpt lat="40.363290" lon="-5.987400">
        <ele>708.215</ele>
        <time>2020-02-29T12:37:13Z</time>
      </trkpt>
      <trkpt lat="40.363310" lon="-5.987400">
        <ele>708.008</ele>
        <time>2020-02-29T12:37:33Z</time>
      </trkpt>
      <trkpt lat="40.363350" lon="-5.987360">
        <ele>708.228</ele>
        <time>2020-02-29T12:37:53Z</time>
      </trkpt>
      <trkpt lat="40.363370" lon="-5.987330">
        <ele>708.211</ele>
        <time>2020-02-29T12:38:13Z</time>
      </trkpt>
      <trkpt lat="40.363370" lon="-5.987320">
        <ele>708.436</ele>
        <time>2020-02-29T12:38:33Z</time>
      </trkpt>
      <trkpt lat="40.363390" lon="-5.987280">
        <ele>708.657</ele>
        <time>2020-02-29T12:38:53Z</time>
      </trkpt>
      <trkpt lat="40.363390" lon="-5.987260">
        <ele>708.980</ele>
        <time>2020-02-29T12:39:13Z</time>
      </trkpt>
      <trkpt lat="40.363400" lon="-5.987220">
        <ele>709.329</ele>
        <time>2020-02-29T12:39:33Z</time>
      </trkpt>
      <trkpt lat="40.363400" lon="-5.986980">
        <ele>711.960</ele>
        <time>2020-02-29T12:39:53Z</time>
      </trkpt>
      <trkpt lat="40.363430" lon="-5.986860">
        <ele>712.337</ele>
        <time>2020-02-29T12:40:13Z</time>
      </trkpt>
      <trkpt lat="40.363460" lon="-5.986830">
        <ele>711.822</ele>
        <time>2020-02-29T12:40:33Z</time>
      </trkpt>
      <trkpt lat="40.363500" lon="-5.986810">
        <ele>711.162</ele>
        <time>2020-02-29T12:40:53Z</time>
      </trkpt>
      <trkpt lat="40.363560" lon="-5.986790">
        <ele>709.908</ele>
        <time>2020-02-29T12:41:13Z</time>
      </trkpt>
      <trkpt lat="40.363620" lon="-5.986790">
        <ele>708.508</ele>
        <time>2020-02-29T12:41:33Z</time>
      </trkpt>
      <trkpt lat="40.363720" lon="-5.986770">
        <ele>707.566</ele>
        <time>2020-02-29T12:41:53Z</time>
      </trkpt>
      <trkpt lat="40.364010" lon="-5.986780">
        <ele>704.339</ele>
        <time>2020-02-29T12:42:13Z</time>
      </trkpt>
      <trkpt lat="40.364490" lon="-5.986860">
        <ele>700.944</ele>
        <time>2020-02-29T12:42:33Z</time>
      </trkpt>
      <trkpt lat="40.364500" lon="-5.986870">
        <ele>700.725</ele>
        <time>2020-02-29T12:42:53Z</time>
      </trkpt>
      <trkpt lat="40.364670" lon="-5.986890">
        <ele>700.728</ele>
        <time>2020-02-29T12:43:13Z</time>
      </trkpt>
      <trkpt lat="40.364730" lon="-5.986890">
        <ele>700.827</ele>
        <time>2020-02-29T12:43:33Z</time>
      </trkpt>
      <trkpt lat="40.364830" lon="-5.986870">
        <ele>700.848</ele>
        <time>2020-02-29T12:43:53Z</time>
      </trkpt>
      <trkpt lat="40.365020" lon="-5.986810">
        <ele>700.435</ele>
        <time>2020-02-29T12:44:13Z</time>
      </trkpt>
      <trkpt lat="40.365030" lon="-5.986800">
        <ele>700.486</ele>
        <time>2020-02-29T12:44:33Z</time>
      </trkpt>
      <trkpt lat="40.365170" lon="-5.986780">
        <ele>699.660</ele>
        <time>2020-02-29T12:44:53Z</time>
      </trkpt>
      <trkpt lat="40.365340" lon="-5.986780">
        <ele>698.026</ele>
        <time>2020-02-29T12:45:13Z</time>
      </trkpt>
      <trkpt lat="40.365380" lon="-5.986770">
        <ele>697.408</ele>
        <time>2020-02-29T12:45:33Z</time>
      </trkpt>
      <trkpt lat="40.365740" lon="-5.986780">
        <ele>692.972</ele>
        <time>2020-02-29T12:45:53Z</time>
      </trkpt>
      <trkpt lat="40.366360" lon="-5.986860">
        <ele>688.945</ele>
        <time>2020-02-29T12:46:13Z</time>
      </trkpt>
      <trkpt lat="40.366760" lon="-5.986960">
        <ele>688.760</ele>
        <time>2020-02-29T12:46:33Z</time>
      </trkpt>
      <trkpt lat="40.366940" lon="-5.987020">
        <ele>686.641</ele>
        <time>2020-02-29T12:46:53Z</time>
      </trkpt>
      <trkpt lat="40.367020" lon="-5.987070">
        <ele>685.434</ele>
        <time>2020-02-29T12:47:13Z</time>
      </trkpt>
      <trkpt lat="40.367160" lon="-5.987190">
        <ele>683.883</ele>
        <time>2020-02-29T12:47:33Z</time>
      </trkpt>
      <trkpt lat="40.367320" lon="-5.987360">
        <ele>680.944</ele>
        <time>2020-02-29T12:47:53Z</time>
      </trkpt>
      <trkpt lat="40.367370" lon="-5.987400">
        <ele>680.491</ele>
        <time>2020-02-29T12:48:13Z</time>
      </trkpt>
      <trkpt lat="40.367470" lon="-5.987460">
        <ele>679.947</ele>
        <time>2020-02-29T12:48:33Z</time>
      </trkpt>
      <trkpt lat="40.367530" lon="-5.987480">
        <ele>679.229</ele>
        <time>2020-02-29T12:48:53Z</time>
      </trkpt>
      <trkpt lat="40.367730" lon="-5.987520">
        <ele>674.921</ele>
        <time>2020-02-29T12:49:13Z</time>
      </trkpt>
      <trkpt lat="40.367820" lon="-5.987550">
        <ele>673.208</ele>
        <time>2020-02-29T12:49:33Z</time>
      </trkpt>
      <trkpt lat="40.367830" lon="-5.987550">
        <ele>673.148</ele>
        <time>2020-02-29T12:49:53Z</time>
      </trkpt>
      <trkpt lat="40.368020" lon="-5.987630">
        <ele>670.971</ele>
        <time>2020-02-29T12:50:13Z</time>
      </trkpt>
      <trkpt lat="40.368310" lon="-5.987820">
        <ele>670.086</ele>
        <time>2020-02-29T12:50:33Z</time>
      </trkpt>
      <trkpt lat="40.368450" lon="-5.987880">
        <ele>670.067</ele>
        <time>2020-02-29T12:50:53Z</time>
      </trkpt>
      <trkpt lat="40.368550" lon="-5.987910">
        <ele>670.060</ele>
        <time>2020-02-29T12:51:13Z</time>
      </trkpt>
      <trkpt lat="40.368660" lon="-5.987930">
        <ele>670.069</ele>
        <time>2020-02-29T12:51:33Z</time>
      </trkpt>
      <trkpt lat="40.368850" lon="-5.987940">
        <ele>670.010</ele>
        <time>2020-02-29T12:51:53Z</time>
      </trkpt>
      <trkpt lat="40.369010" lon="-5.987930">
        <ele>670.047</ele>
        <time>2020-02-29T12:52:13Z</time>
      </trkpt>
      <trkpt lat="40.369120" lon="-5.987910">
        <ele>670.037</ele>
        <time>2020-02-29T12:52:33Z</time>
      </trkpt>
      <trkpt lat="40.369150" lon="-5.987910">
        <ele>670.049</ele>
        <time>2020-02-29T12:52:53Z</time>
      </trkpt>
      <trkpt lat="40.369450" lon="-5.987830">
        <ele>664.313</ele>
        <time>2020-02-29T12:53:13Z</time>
      </trkpt>
      <trkpt lat="40.369490" lon="-5.987830">
        <ele>663.508</ele>
        <time>2020-02-29T12:53:33Z</time>
      </trkpt>
      <trkpt lat="40.369530" lon="-5.987850">
        <ele>662.817</ele>
        <time>2020-02-29T12:53:53Z</time>
      </trkpt>
      <trkpt lat="40.369560" lon="-5.987880">
        <ele>662.220</ele>
        <time>2020-02-29T12:54:13Z</time>
      </trkpt>
      <trkpt lat="40.369580" lon="-5.987920">
        <ele>661.635</ele>
        <time>2020-02-29T12:54:33Z</time>
      </trkpt>
      <trkpt lat="40.369580" lon="-5.988030">
        <ele>661.286</ele>
        <time>2020-02-29T12:54:53Z</time>
      </trkpt>
      <trkpt lat="40.369570" lon="-5.988120">
        <ele>660.249</ele>
        <time>2020-02-29T12:55:13Z</time>
      </trkpt>
      <trkpt lat="40.369530" lon="-5.988290">
        <ele>658.438</ele>
        <time>2020-02-29T12:55:33Z</time>
      </trkpt>
      <trkpt lat="40.369410" lon="-5.988680">
        <ele>658.299</ele>
        <time>2020-02-29T12:55:53Z</time>
      </trkpt>
      <trkpt lat="40.369380" lon="-5.988830">
        <ele>657.396</ele>
        <time>2020-02-29T12:56:13Z</time>
      </trkpt>
      <trkpt lat="40.369380" lon="-5.988930">
        <ele>656.544</ele>
        <time>2020-02-29T12:56:33Z</time>
      </trkpt>
      <trkpt lat="40.369370" lon="-5.988950">
        <ele>656.805</ele>
        <time>2020-02-29T12:56:53Z</time>
      </trkpt>
      <trkpt lat="40.369370" lon="-5.989510">
        <ele>654.515</ele>
        <time>2020-02-29T12:57:13Z</time>
      </trkpt>
      <trkpt lat="40.369400" lon="-5.989630">
        <ele>653.208</ele>
        <time>2020-02-29T12:57:33Z</time>
      </trkpt>
      <trkpt lat="40.370400" lon="-5.991930">
        <ele>646.028</ele>
        <time>2020-02-29T12:57:53Z</time>
      </trkpt>
      <trkpt lat="40.370490" lon="-5.992060">
        <ele>645.381</ele>
        <time>2020-02-29T12:58:13Z</time>
      </trkpt>
      <trkpt lat="40.370510" lon="-5.992080">
        <ele>645.246</ele>
        <time>2020-02-29T12:58:33Z</time>
      </trkpt>
      <trkpt lat="40.370980" lon="-5.992380">
        <ele>647.217</ele>
        <time>2020-02-29T12:58:53Z</time>
      </trkpt>
      <trkpt lat="40.371250" lon="-5.992600">
        <ele>648.770</ele>
        <time>2020-02-29T12:59:13Z</time>
      </trkpt>
      <trkpt lat="40.371380" lon="-5.992680">
        <ele>648.739</ele>
        <time>2020-02-29T12:59:33Z</time>
      </trkpt>
      <trkpt lat="40.371460" lon="-5.992710">
        <ele>648.490</ele>
        <time>2020-02-29T12:59:53Z</time>
      </trkpt>
      <trkpt lat="40.372080" lon="-5.992800">
        <ele>653.197</ele>
        <time>2020-02-29T13:00:13Z</time>
      </trkpt>
      <trkpt lat="40.372130" lon="-5.992830">
        <ele>654.554</ele>
        <time>2020-02-29T13:00:33Z</time>
      </trkpt>
      <trkpt lat="40.372150" lon="-5.992850">
        <ele>655.056</ele>
        <time>2020-02-29T13:00:53Z</time>
      </trkpt>
      <trkpt lat="40.372190" lon="-5.992910">
        <ele>655.911</ele>
        <time>2020-02-29T13:01:13Z</time>
      </trkpt>
      <trkpt lat="40.372250" lon="-5.993040">
        <ele>656.908</ele>
        <time>2020-02-29T13:01:33Z</time>
      </trkpt>
      <trkpt lat="40.372290" lon="-5.993330">
        <ele>656.559</ele>
        <time>2020-02-29T13:01:53Z</time>
      </trkpt>
      <trkpt lat="40.372290" lon="-5.993800">
        <ele>653.792</ele>
        <time>2020-02-29T13:02:13Z</time>
      </trkpt>
      <trkpt lat="40.372300" lon="-5.993870">
        <ele>653.657</ele>
        <time>2020-02-29T13:02:33Z</time>
      </trkpt>
      <trkpt lat="40.372300" lon="-5.993930">
        <ele>653.278</ele>
        <time>2020-02-29T13:02:53Z</time>
      </trkpt>
      <trkpt lat="40.372310" lon="-5.993950">
        <ele>653.311</ele>
        <time>2020-02-29T13:03:13Z</time>
      </trkpt>
      <trkpt lat="40.372310" lon="-5.993980">
        <ele>653.110</ele>
        <time>2020-02-29T13:03:33Z</time>
      </trkpt>
      <trkpt lat="40.372390" lon="-5.994190">
        <ele>653.561</ele>
        <time>2020-02-29T13:03:53Z</time>
      </trkpt>
      <trkpt lat="40.372430" lon="-5.994270">
        <ele>653.848</ele>
        <time>2020-02-29T13:04:13Z</time>
      </trkpt>
      <trkpt lat="40.372490" lon="-5.994350">
        <ele>654.735</ele>
        <time>2020-02-29T13:04:33Z</time>
      </trkpt>
      <trkpt lat="40.372600" lon="-5.994620">
        <ele>654.386</ele>
        <time>2020-02-29T13:04:53Z</time>
      </trkpt>
      <trkpt lat="40.372670" lon="-5.994760">
        <ele>653.314</ele>
        <time>2020-02-29T13:05:13Z</time>
      </trkpt>
      <trkpt lat="40.372720" lon="-5.994830">
        <ele>652.508</ele>
        <time>2020-02-29T13:05:33Z</time>
      </trkpt>
      <trkpt lat="40.372860" lon="-5.994930">
        <ele>651.777</ele>
        <time>2020-02-29T13:05:53Z</time>
      </trkpt>
      <trkpt lat="40.373010" lon="-5.995000">
        <ele>652.240</ele>
        <time>2020-02-29T13:06:13Z</time>
      </trkpt>
      <trkpt lat="40.373230" lon="-5.995070">
        <ele>653.525</ele>
        <time>2020-02-29T13:06:33Z</time>
      </trkpt>
      <trkpt lat="40.373600" lon="-5.995230">
        <ele>653.356</ele>
        <time>2020-02-29T13:06:53Z</time>
      </trkpt>
      <trkpt lat="40.373930" lon="-5.995350">
        <ele>653.349</ele>
        <time>2020-02-29T13:07:13Z</time>
      </trkpt>
      <trkpt lat="40.374020" lon="-5.995370">
        <ele>653.448</ele>
        <time>2020-02-29T13:07:33Z</time>
      </trkpt>
      <trkpt lat="40.374090" lon="-5.995400">
        <ele>653.279</ele>
        <time>2020-02-29T13:07:53Z</time>
      </trkpt>
      <trkpt lat="40.374430" lon="-5.995450">
        <ele>653.436</ele>
        <time>2020-02-29T13:08:13Z</time>
      </trkpt>
      <trkpt lat="40.374510" lon="-5.995500">
        <ele>654.457</ele>
        <time>2020-02-29T13:08:33Z</time>
      </trkpt>
      <trkpt lat="40.374550" lon="-5.995570">
        <ele>654.300</ele>
        <time>2020-02-29T13:08:53Z</time>
      </trkpt>
      <trkpt lat="40.374610" lon="-5.995710">
        <ele>654.420</ele>
        <time>2020-02-29T13:09:13Z</time>
      </trkpt>
      <trkpt lat="40.374640" lon="-5.995810">
        <ele>653.908</ele>
        <time>2020-02-29T13:09:33Z</time>
      </trkpt>
      <trkpt lat="40.374720" lon="-5.995990">
        <ele>653.099</ele>
        <time>2020-02-29T13:09:53Z</time>
      </trkpt>
      <trkpt lat="40.374850" lon="-5.996150">
        <ele>651.572</ele>
        <time>2020-02-29T13:10:13Z</time>
      </trkpt>
      <trkpt lat="40.375110" lon="-5.996290">
        <ele>654.217</ele>
        <time>2020-02-29T13:10:33Z</time>
      </trkpt>
      <trkpt lat="40.375200" lon="-5.996420">
        <ele>654.398</ele>
        <time>2020-02-29T13:10:53Z</time>
      </trkpt>
      <trkpt lat="40.375410" lon="-5.996870">
        <ele>655.891</ele>
        <time>2020-02-29T13:11:13Z</time>
      </trkpt>
      <trkpt lat="40.375420" lon="-5.996930">
        <ele>655.730</ele>
        <time>2020-02-29T13:11:33Z</time>
      </trkpt>
      <trkpt lat="40.375430" lon="-5.996950">
        <ele>656.041</ele>
        <time>2020-02-29T13:11:53Z</time>
      </trkpt>
      <trkpt lat="40.375410" lon="-5.997040">
        <ele>657.258</ele>
        <time>2020-02-29T13:12:13Z</time>
      </trkpt>
      <trkpt lat="40.375140" lon="-5.997630">
        <ele>656.569</ele>
        <time>2020-02-29T13:12:33Z</time>
      </trkpt>
      <trkpt lat="40.375080" lon="-5.997810">
        <ele>655.904</ele>
        <time>2020-02-29T13:12:53Z</time>
      </trkpt>
      <trkpt lat="40.375070" lon="-5.997870">
        <ele>656.324</ele>
        <time>2020-02-29T13:13:13Z</time>
      </trkpt>
      <trkpt lat="40.375080" lon="-5.998470">
        <ele>656.608</ele>
        <time>2020-02-29T13:13:33Z</time>
      </trkpt>
      <trkpt lat="40.375150" lon="-5.998990">
        <ele>656.540</ele>
        <time>2020-02-29T13:13:53Z</time>
      </trkpt>
      <trkpt lat="40.375180" lon="-5.999100">
        <ele>657.143</ele>
        <time>2020-02-29T13:14:13Z</time>
      </trkpt>
      <trkpt lat="40.375290" lon="-5.999370">
        <ele>656.688</ele>
        <time>2020-02-29T13:14:33Z</time>
      </trkpt>
      <trkpt lat="40.375360" lon="-5.999480">
        <ele>656.069</ele>
        <time>2020-02-29T13:14:53Z</time>
      </trkpt>
      <trkpt lat="40.375610" lon="-5.999780">
        <ele>654.772</ele>
        <time>2020-02-29T13:15:13Z</time>
      </trkpt>
      <trkpt lat="40.375920" lon="-6.000090">
        <ele>659.781</ele>
        <time>2020-02-29T13:15:33Z</time>
      </trkpt>
      <trkpt lat="40.376140" lon="-6.000350">
        <ele>658.812</ele>
        <time>2020-02-29T13:15:53Z</time>
      </trkpt>
      <trkpt lat="40.376320" lon="-6.000590">
        <ele>657.479</ele>
        <time>2020-02-29T13:16:13Z</time>
      </trkpt>
      <trkpt lat="40.376570" lon="-6.000770">
        <ele>657.148</ele>
        <time>2020-02-29T13:16:33Z</time>
      </trkpt>
      <trkpt lat="40.376690" lon="-6.000840">
        <ele>657.061</ele>
        <time>2020-02-29T13:16:53Z</time>
      </trkpt>
      <trkpt lat="40.376930" lon="-6.000910">
        <ele>657.017</ele>
        <time>2020-02-29T13:17:13Z</time>
      </trkpt>
      <trkpt lat="40.377030" lon="-6.000930">
        <ele>656.508</ele>
        <time>2020-02-29T13:17:33Z</time>
      </trkpt>
      <trkpt lat="40.377240" lon="-6.000940">
        <ele>655.948</ele>
        <time>2020-02-29T13:17:53Z</time>
      </trkpt>
      <trkpt lat="40.377500" lon="-6.000920">
        <ele>655.531</ele>
        <time>2020-02-29T13:18:13Z</time>
      </trkpt>
      <trkpt lat="40.377760" lon="-6.000860">
        <ele>655.476</ele>
        <time>2020-02-29T13:18:33Z</time>
      </trkpt>
      <trkpt lat="40.378720" lon="-6.000540">
        <ele>649.667</ele>
        <time>2020-02-29T13:18:53Z</time>
      </trkpt>
      <trkpt lat="40.378830" lon="-6.000470">
        <ele>650.110</ele>
        <time>2020-02-29T13:19:13Z</time>
      </trkpt>
      <trkpt lat="40.378900" lon="-6.000410">
        <ele>650.939</ele>
        <time>2020-02-29T13:19:33Z</time>
      </trkpt>
      <trkpt lat="40.379120" lon="-6.000290">
        <ele>648.020</ele>
        <time>2020-02-29T13:19:53Z</time>
      </trkpt>
      <trkpt lat="40.379190" lon="-6.000270">
        <ele>647.187</ele>
        <time>2020-02-29T13:20:13Z</time>
      </trkpt>
      <trkpt lat="40.379660" lon="-6.000240">
        <ele>646.333</ele>
        <time>2020-02-29T13:20:33Z</time>
      </trkpt>
      <trkpt lat="40.380110" lon="-6.000260">
        <ele>645.623</ele>
        <time>2020-02-29T13:20:53Z</time>
      </trkpt>
      <trkpt lat="40.381220" lon="-6.000250">
        <ele>639.715</ele>
        <time>2020-02-29T13:21:13Z</time>
      </trkpt>
      <trkpt lat="40.381240" lon="-6.000270">
        <ele>639.508</ele>
        <time>2020-02-29T13:21:33Z</time>
      </trkpt>
      <trkpt lat="40.381260" lon="-6.000280">
        <ele>639.577</ele>
        <time>2020-02-29T13:21:53Z</time>
      </trkpt>
      <trkpt lat="40.381270" lon="-6.000280">
        <ele>639.590</ele>
        <time>2020-02-29T13:22:13Z</time>
      </trkpt>
      <trkpt lat="40.381320" lon="-6.000350">
        <ele>638.885</ele>
        <time>2020-02-29T13:22:33Z</time>
      </trkpt>
      <trkpt lat="40.381320" lon="-6.000380">
        <ele>638.456</ele>
        <time>2020-02-29T13:22:53Z</time>
      </trkpt>
      <trkpt lat="40.381340" lon="-6.000470">
        <ele>637.419</ele>
        <time>2020-02-29T13:23:13Z</time>
      </trkpt>
      <trkpt lat="40.381410" lon="-6.000640">
        <ele>635.838</ele>
        <time>2020-02-29T13:23:33Z</time>
      </trkpt>
      <trkpt lat="40.381500" lon="-6.000750">
        <ele>635.339</ele>
        <time>2020-02-29T13:23:53Z</time>
      </trkpt>
      <trkpt lat="40.382440" lon="-6.001600">
        <ele>632.856</ele>
        <time>2020-02-29T13:24:13Z</time>
      </trkpt>
      <trkpt lat="40.382620" lon="-6.001860">
        <ele>632.442</ele>
        <time>2020-02-29T13:24:33Z</time>
      </trkpt>
      <trkpt lat="40.382680" lon="-6.001980">
        <ele>632.322</ele>
        <time>2020-02-29T13:24:53Z</time>
      </trkpt>
      <trkpt lat="40.382830" lon="-6.002190">
        <ele>631.314</ele>
        <time>2020-02-29T13:25:13Z</time>
      </trkpt>
      <trkpt lat="40.382900" lon="-6.002270">
        <ele>630.808</ele>
        <time>2020-02-29T13:25:33Z</time>
      </trkpt>
      <trkpt lat="40.383270" lon="-6.002610">
        <ele>630.078</ele>
        <time>2020-02-29T13:25:53Z</time>
      </trkpt>
      <trkpt lat="40.383740" lon="-6.003220">
        <ele>627.271</ele>
        <time>2020-02-29T13:26:13Z</time>
      </trkpt>
      <trkpt lat="40.384240" lon="-6.003660">
        <ele>624.676</ele>
        <time>2020-02-29T13:26:33Z</time>
      </trkpt>
      <trkpt lat="40.384490" lon="-6.003840">
        <ele>622.967</ele>
        <time>2020-02-29T13:26:53Z</time>
      </trkpt>
      <trkpt lat="40.384590" lon="-6.003900">
        <ele>622.890</ele>
        <time>2020-02-29T13:27:13Z</time>
      </trkpt>
      <trkpt lat="40.384860" lon="-6.004110">
        <ele>621.939</ele>
        <time>2020-02-29T13:27:33Z</time>
      </trkpt>
      <trkpt lat="40.384940" lon="-6.004190">
        <ele>621.390</ele>
        <time>2020-02-29T13:27:53Z</time>
      </trkpt>
      <trkpt lat="40.385010" lon="-6.004240">
        <ele>621.347</ele>
        <time>2020-02-29T13:28:13Z</time>
      </trkpt>
      <trkpt lat="40.385360" lon="-6.004570">
        <ele>621.178</ele>
        <time>2020-02-29T13:28:33Z</time>
      </trkpt>
      <trkpt lat="40.385460" lon="-6.004650">
        <ele>621.533</ele>
        <time>2020-02-29T13:28:53Z</time>
      </trkpt>
      <trkpt lat="40.385460" lon="-6.004660">
        <ele>621.326</ele>
        <time>2020-02-29T13:29:13Z</time>
      </trkpt>
      <trkpt lat="40.385510" lon="-6.004700">
        <ele>621.508</ele>
        <time>2020-02-29T13:29:33Z</time>
      </trkpt>
      <trkpt lat="40.385560" lon="-6.004770">
        <ele>620.941</ele>
        <time>2020-02-29T13:29:53Z</time>
      </trkpt>
      <trkpt lat="40.385760" lon="-6.005180">
        <ele>617.354</ele>
        <time>2020-02-29T13:30:13Z</time>
      </trkpt>
      <trkpt lat="40.385860" lon="-6.005420">
        <ele>615.369</ele>
        <time>2020-02-29T13:30:33Z</time>
      </trkpt>
      <trkpt lat="40.385960" lon="-6.005600">
        <ele>615.320</ele>
        <time>2020-02-29T13:30:53Z</time>
      </trkpt>
      <trkpt lat="40.385970" lon="-6.005610">
        <ele>615.453</ele>
        <time>2020-02-29T13:31:13Z</time>
      </trkpt>
      <trkpt lat="40.386020" lon="-6.005690">
        <ele>615.682</ele>
        <time>2020-02-29T13:31:33Z</time>
      </trkpt>
      <trkpt lat="40.386050" lon="-6.005800">
        <ele>614.663</ele>
        <time>2020-02-29T13:31:53Z</time>
      </trkpt>
      <trkpt lat="40.386060" lon="-6.005810">
        <ele>614.880</ele>
        <time>2020-02-29T13:32:13Z</time>
      </trkpt>
      <trkpt lat="40.386060" lon="-6.006100">
        <ele>611.679</ele>
        <time>2020-02-29T13:32:33Z</time>
      </trkpt>
      <trkpt lat="40.386070" lon="-6.006200">
        <ele>610.905</ele>
        <time>2020-02-29T13:32:53Z</time>
      </trkpt>
      <trkpt lat="40.386110" lon="-6.006360">
        <ele>610.325</ele>
        <time>2020-02-29T13:33:13Z</time>
      </trkpt>
      <trkpt lat="40.386220" lon="-6.006580">
        <ele>611.308</ele>
        <time>2020-02-29T13:33:33Z</time>
      </trkpt>
      <trkpt lat="40.386290" lon="-6.006660">
        <ele>612.321</ele>
        <time>2020-02-29T13:33:53Z</time>
      </trkpt>
      <trkpt lat="40.386300" lon="-6.006680">
        <ele>612.114</ele>
        <time>2020-02-29T13:34:13Z</time>
      </trkpt>
      <trkpt lat="40.386520" lon="-6.006910">
        <ele>610.429</ele>
        <time>2020-02-29T13:34:33Z</time>
      </trkpt>
      <trkpt lat="40.386650" lon="-6.007000">
        <ele>609.720</ele>
        <time>2020-02-29T13:34:53Z</time>
      </trkpt>
      <trkpt lat="40.386920" lon="-6.007140">
        <ele>607.783</ele>
        <time>2020-02-29T13:35:13Z</time>
      </trkpt>
      <trkpt lat="40.387070" lon="-6.007240">
        <ele>607.282</ele>
        <time>2020-02-29T13:35:33Z</time>
      </trkpt>
      <trkpt lat="40.387150" lon="-6.007310">
        <ele>607.123</ele>
        <time>2020-02-29T13:35:53Z</time>
      </trkpt>
      <trkpt lat="40.387990" lon="-6.008270">
        <ele>607.750</ele>
        <time>2020-02-29T13:36:13Z</time>
      </trkpt>
      <trkpt lat="40.388080" lon="-6.008430">
        <ele>608.168</ele>
        <time>2020-02-29T13:36:33Z</time>
      </trkpt>
      <trkpt lat="40.388120" lon="-6.008600">
        <ele>607.942</ele>
        <time>2020-02-29T13:36:53Z</time>
      </trkpt>
      <trkpt lat="40.388140" lon="-6.009220">
        <ele>603.726</ele>
        <time>2020-02-29T13:37:13Z</time>
      </trkpt>
      <trkpt lat="40.388200" lon="-6.009960">
        <ele>599.008</ele>
        <time>2020-02-29T13:37:33Z</time>
      </trkpt>
      <trkpt lat="40.388240" lon="-6.010060">
        <ele>598.890</ele>
        <time>2020-02-29T13:37:53Z</time>
      </trkpt>
      <trkpt lat="40.388310" lon="-6.010170">
        <ele>598.793</ele>
        <time>2020-02-29T13:38:13Z</time>
      </trkpt>
      <trkpt lat="40.388360" lon="-6.010220">
        <ele>598.618</ele>
        <time>2020-02-29T13:38:33Z</time>
      </trkpt>
      <trkpt lat="40.388470" lon="-6.010280">
        <ele>598.959</ele>
        <time>2020-02-29T13:38:53Z</time>
      </trkpt>
      <trkpt lat="40.388610" lon="-6.010330">
        <ele>599.352</ele>
        <time>2020-02-29T13:39:13Z</time>
      </trkpt>
      <trkpt lat="40.390310" lon="-6.010610">
        <ele>599.791</ele>
        <time>2020-02-29T13:39:33Z</time>
      </trkpt>
      <trkpt lat="40.390340" lon="-6.010640">
        <ele>599.842</ele>
        <time>2020-02-29T13:39:53Z</time>
      </trkpt>
      <trkpt lat="40.390370" lon="-6.010690">
        <ele>599.649</ele>
        <time>2020-02-29T13:40:13Z</time>
      </trkpt>
      <trkpt lat="40.390430" lon="-6.010970">
        <ele>595.831</ele>
        <time>2020-02-29T13:40:33Z</time>
      </trkpt>
      <trkpt lat="40.390600" lon="-6.011320">
        <ele>592.261</ele>
        <time>2020-02-29T13:40:53Z</time>
      </trkpt>
      <trkpt lat="40.390730" lon="-6.011500">
        <ele>589.607</ele>
        <time>2020-02-29T13:41:13Z</time>
      </trkpt>
      <trkpt lat="40.390790" lon="-6.011550">
        <ele>588.908</ele>
        <time>2020-02-29T13:41:33Z</time>
      </trkpt>
      <trkpt lat="40.390920" lon="-6.011610">
        <ele>588.117</ele>
        <time>2020-02-29T13:41:53Z</time>
      </trkpt>
      <trkpt lat="40.391510" lon="-6.011600">
        <ele>590.810</ele>
        <time>2020-02-29T13:42:13Z</time>
      </trkpt>
      <trkpt lat="40.391600" lon="-6.011610">
        <ele>590.215</ele>
        <time>2020-02-29T13:42:33Z</time>
      </trkpt>
      <trkpt lat="40.391700" lon="-6.011610">
        <ele>590.086</ele>
        <time>2020-02-29T13:42:53Z</time>
      </trkpt>
      <trkpt lat="40.391910" lon="-6.011630">
        <ele>589.319</ele>
        <time>2020-02-29T13:43:13Z</time>
      </trkpt>
      <trkpt lat="40.392300" lon="-6.011700">
        <ele>591.098</ele>
        <time>2020-02-29T13:43:33Z</time>
      </trkpt>
      <trkpt lat="40.392310" lon="-6.011710">
        <ele>590.839</ele>
        <time>2020-02-29T13:43:53Z</time>
      </trkpt>
      <trkpt lat="40.392350" lon="-6.011720">
        <ele>591.046</ele>
        <time>2020-02-29T13:44:13Z</time>
      </trkpt>
      <trkpt lat="40.392470" lon="-6.011790">
        <ele>590.533</ele>
        <time>2020-02-29T13:44:33Z</time>
      </trkpt>
      <trkpt lat="40.393100" lon="-6.012220">
        <ele>587.923</ele>
        <time>2020-02-29T13:44:53Z</time>
      </trkpt>
      <trkpt lat="40.393510" lon="-6.012570">
        <ele>586.115</ele>
        <time>2020-02-29T13:45:13Z</time>
      </trkpt>
      <trkpt lat="40.393580" lon="-6.012650">
        <ele>585.908</ele>
        <time>2020-02-29T13:45:33Z</time>
      </trkpt>
      <trkpt lat="40.393740" lon="-6.012740">
        <ele>585.727</ele>
        <time>2020-02-29T13:45:53Z</time>
      </trkpt>
      <trkpt lat="40.393910" lon="-6.012790">
        <ele>585.740</ele>
        <time>2020-02-29T13:46:13Z</time>
      </trkpt>
      <trkpt lat="40.394020" lon="-6.012790">
        <ele>585.275</ele>
        <time>2020-02-29T13:46:33Z</time>
      </trkpt>
      <trkpt lat="40.394320" lon="-6.012740">
        <ele>586.016</ele>
        <time>2020-02-29T13:46:53Z</time>
      </trkpt>
      <trkpt lat="40.394390" lon="-6.012710">
        <ele>586.939</ele>
        <time>2020-02-29T13:47:13Z</time>
      </trkpt>
      <trkpt lat="40.394550" lon="-6.012660">
        <ele>589.848</ele>
        <time>2020-02-29T13:47:33Z</time>
      </trkpt>
      <trkpt lat="40.394710" lon="-6.012710">
        <ele>590.569</ele>
        <time>2020-02-29T13:47:53Z</time>
      </trkpt>
      <trkpt lat="40.394770" lon="-6.012750">
        <ele>591.016</ele>
        <time>2020-02-29T13:48:13Z</time>
      </trkpt>
      <trkpt lat="40.394870" lon="-6.012860">
        <ele>591.939</ele>
        <time>2020-02-29T13:48:33Z</time>
      </trkpt>
      <trkpt lat="40.394900" lon="-6.012910">
        <ele>592.001</ele>
        <time>2020-02-29T13:48:53Z</time>
      </trkpt>
      <trkpt lat="40.394910" lon="-6.012920">
        <ele>592.221</ele>
        <time>2020-02-29T13:49:13Z</time>
      </trkpt>
      <trkpt lat="40.394930" lon="-6.012970">
        <ele>592.008</ele>
        <time>2020-02-29T13:49:33Z</time>
      </trkpt>
      <trkpt lat="40.394950" lon="-6.013050">
        <ele>591.567</ele>
        <time>2020-02-29T13:49:53Z</time>
      </trkpt>
      <trkpt lat="40.394940" lon="-6.014130">
        <ele>587.180</ele>
        <time>2020-02-29T13:50:13Z</time>
      </trkpt>
      <trkpt lat="40.394980" lon="-6.014480">
        <ele>584.955</ele>
        <time>2020-02-29T13:50:33Z</time>
      </trkpt>
      <trkpt lat="40.395010" lon="-6.014550">
        <ele>584.626</ele>
        <time>2020-02-29T13:50:53Z</time>
      </trkpt>
      <trkpt lat="40.395020" lon="-6.014590">
        <ele>584.279</ele>
        <time>2020-02-29T13:51:13Z</time>
      </trkpt>
      <trkpt lat="40.395100" lon="-6.014740">
        <ele>583.278</ele>
        <time>2020-02-29T13:51:33Z</time>
      </trkpt>
      <trkpt lat="40.395140" lon="-6.014790">
        <ele>583.219</ele>
        <time>2020-02-29T13:51:53Z</time>
      </trkpt>
      <trkpt lat="40.395200" lon="-6.014840">
        <ele>583.186</ele>
        <time>2020-02-29T13:52:13Z</time>
      </trkpt>
      <trkpt lat="40.395460" lon="-6.014970">
        <ele>582.377</ele>
        <time>2020-02-29T13:52:33Z</time>
      </trkpt>
      <trkpt lat="40.395900" lon="-6.015080">
        <ele>581.861</ele>
        <time>2020-02-29T13:52:53Z</time>
      </trkpt>
      <trkpt lat="40.396130" lon="-6.015110">
        <ele>580.627</ele>
        <time>2020-02-29T13:53:13Z</time>
      </trkpt>
      <trkpt lat="40.396330" lon="-6.015120">
        <ele>579.608</ele>
        <time>2020-02-29T13:53:33Z</time>
      </trkpt>
      <trkpt lat="40.396390" lon="-6.015130">
        <ele>579.231</ele>
        <time>2020-02-29T13:53:53Z</time>
      </trkpt>
      <trkpt lat="40.396440" lon="-6.015120">
        <ele>579.014</ele>
        <time>2020-02-29T13:54:13Z</time>
      </trkpt>
      <trkpt lat="40.396490" lon="-6.015120">
        <ele>578.749</ele>
        <time>2020-02-29T13:54:33Z</time>
      </trkpt>
      <trkpt lat="40.396520" lon="-6.015110">
        <ele>578.740</ele>
        <time>2020-02-29T13:54:53Z</time>
      </trkpt>
      <trkpt lat="40.396600" lon="-6.015050">
        <ele>579.433</ele>
        <time>2020-02-29T13:55:13Z</time>
      </trkpt>
      <trkpt lat="40.396680" lon="-6.014920">
        <ele>582.442</ele>
        <time>2020-02-29T13:55:33Z</time>
      </trkpt>
      <trkpt lat="40.396750" lon="-6.014720">
        <ele>587.663</ele>
        <time>2020-02-29T13:55:53Z</time>
      </trkpt>
      <trkpt lat="40.396800" lon="-6.014640">
        <ele>588.840</ele>
        <time>2020-02-29T13:56:13Z</time>
      </trkpt>
      <trkpt lat="40.396850" lon="-6.014580">
        <ele>589.655</ele>
        <time>2020-02-29T13:56:33Z</time>
      </trkpt>
      <trkpt lat="40.396960" lon="-6.014530">
        <ele>589.407</ele>
        <time>2020-02-29T13:56:53Z</time>
      </trkpt>
      <trkpt lat="40.397180" lon="-6.014540">
        <ele>586.417</ele>
        <time>2020-02-29T13:57:13Z</time>
      </trkpt>
      <trkpt lat="40.397900" lon="-6.014260">
        <ele>584.108</ele>
        <time>2020-02-29T13:57:33Z</time>
      </trkpt>
      <trkpt lat="40.398020" lon="-6.014230">
        <ele>582.789</ele>
        <time>2020-02-29T13:57:53Z</time>
      </trkpt>
      <trkpt lat="40.398090" lon="-6.014200">
        <ele>583.262</ele>
        <time>2020-02-29T13:58:13Z</time>
      </trkpt>
      <trkpt lat="40.398130" lon="-6.014190">
        <ele>583.897</ele>
        <time>2020-02-29T13:58:33Z</time>
      </trkpt>
      <trkpt lat="40.398300" lon="-6.014060">
        <ele>589.058</ele>
        <time>2020-02-29T13:58:53Z</time>
      </trkpt>
      <trkpt lat="40.398340" lon="-6.014050">
        <ele>589.491</ele>
        <time>2020-02-29T13:59:13Z</time>
      </trkpt>
      <trkpt lat="40.398380" lon="-6.014050">
        <ele>589.770</ele>
        <time>2020-02-29T13:59:33Z</time>
      </trkpt>
      <trkpt lat="40.398440" lon="-6.014070">
        <ele>589.651</ele>
        <time>2020-02-29T13:59:53Z</time>
      </trkpt>
      <trkpt lat="40.398490" lon="-6.014110">
        <ele>588.878</ele>
        <time>2020-02-29T14:00:13Z</time>
      </trkpt>
      <trkpt lat="40.398540" lon="-6.014170">
        <ele>587.417</ele>
        <time>2020-02-29T14:00:33Z</time>
      </trkpt>
      <trkpt lat="40.398590" lon="-6.014200">
        <ele>586.987</ele>
        <time>2020-02-29T14:00:53Z</time>
      </trkpt>
      <trkpt lat="40.398680" lon="-6.014300">
        <ele>585.415</ele>
        <time>2020-02-29T14:01:13Z</time>
      </trkpt>
      <trkpt lat="40.398810" lon="-6.014420">
        <ele>584.908</ele>
        <time>2020-02-29T14:01:33Z</time>
      </trkpt>
      <trkpt lat="40.398920" lon="-6.014540">
        <ele>584.345</ele>
        <time>2020-02-29T14:01:53Z</time>
      </trkpt>
      <trkpt lat="40.398960" lon="-6.014570">
        <ele>584.568</ele>
        <time>2020-02-29T14:02:13Z</time>
      </trkpt>
      <trkpt lat="40.398990" lon="-6.014610">
        <ele>584.273</ele>
        <time>2020-02-29T14:02:33Z</time>
      </trkpt>
      <trkpt lat="40.399060" lon="-6.014680">
        <ele>584.384</ele>
        <time>2020-02-29T14:02:53Z</time>
      </trkpt>
      <trkpt lat="40.399090" lon="-6.014700">
        <ele>584.687</ele>
        <time>2020-02-29T14:03:13Z</time>
      </trkpt>
      <trkpt lat="40.399130" lon="-6.014750">
        <ele>584.536</ele>
        <time>2020-02-29T14:03:33Z</time>
      </trkpt>
      <trkpt lat="40.399260" lon="-6.014970">
        <ele>582.617</ele>
        <time>2020-02-29T14:03:53Z</time>
      </trkpt>
      <trkpt lat="40.399380" lon="-6.015130">
        <ele>581.934</ele>
        <time>2020-02-29T14:04:13Z</time>
      </trkpt>
      <trkpt lat="40.399490" lon="-6.015240">
        <ele>581.554</ele>
        <time>2020-02-29T14:04:33Z</time>
      </trkpt>
      <trkpt lat="40.399610" lon="-6.015300">
        <ele>581.956</ele>
        <time>2020-02-29T14:04:53Z</time>
      </trkpt>
      <trkpt lat="40.399660" lon="-6.015310">
        <ele>582.311</ele>
        <time>2020-02-29T14:05:13Z</time>
      </trkpt>
      <trkpt lat="40.400100" lon="-6.015290">
        <ele>582.608</ele>
        <time>2020-02-29T14:05:33Z</time>
      </trkpt>
      <trkpt lat="40.400130" lon="-6.015280">
        <ele>582.549</ele>
        <time>2020-02-29T14:05:53Z</time>
      </trkpt>
      <trkpt lat="40.400210" lon="-6.015270">
        <ele>581.992</ele>
        <time>2020-02-29T14:06:13Z</time>
      </trkpt>
      <trkpt lat="40.400300" lon="-6.015270">
        <ele>581.187</ele>
        <time>2020-02-29T14:06:33Z</time>
      </trkpt>
      <trkpt lat="40.400860" lon="-6.015100">
        <ele>579.038</ele>
        <time>2020-02-29T14:06:53Z</time>
      </trkpt>
      <trkpt lat="40.401000" lon="-6.015030">
        <ele>576.551</ele>
        <time>2020-02-29T14:07:13Z</time>
      </trkpt>
      <trkpt lat="40.401330" lon="-6.014830">
        <ele>577.210</ele>
        <time>2020-02-29T14:07:33Z</time>
      </trkpt>
      <trkpt lat="40.401340" lon="-6.014820">
        <ele>577.551</ele>
        <time>2020-02-29T14:07:53Z</time>
      </trkpt>
      <trkpt lat="40.401380" lon="-6.014800">
        <ele>578.098</ele>
        <time>2020-02-29T14:08:13Z</time>
      </trkpt>
      <trkpt lat="40.401500" lon="-6.014770">
        <ele>578.782</ele>
        <time>2020-02-29T14:08:33Z</time>
      </trkpt>
      <trkpt lat="40.402070" lon="-6.014890">
        <ele>573.743</ele>
        <time>2020-02-29T14:08:53Z</time>
      </trkpt>
      <trkpt lat="40.402580" lon="-6.015080">
        <ele>572.017</ele>
        <time>2020-02-29T14:09:13Z</time>
      </trkpt>
      <trkpt lat="40.402700" lon="-6.015140">
        <ele>570.408</ele>
        <time>2020-02-29T14:09:33Z</time>
      </trkpt>
      <trkpt lat="40.402940" lon="-6.015300">
        <ele>568.322</ele>
        <time>2020-02-29T14:09:53Z</time>
      </trkpt>
      <trkpt lat="40.403030" lon="-6.015380">
        <ele>567.955</ele>
        <time>2020-02-29T14:10:13Z</time>
      </trkpt>
      <trkpt lat="40.403040" lon="-6.015380">
        <ele>568.130</ele>
        <time>2020-02-29T14:10:33Z</time>
      </trkpt>
      <trkpt lat="40.403320" lon="-6.015680">
        <ele>568.921</ele>
        <time>2020-02-29T14:10:53Z</time>
      </trkpt>
      <trkpt lat="40.403400" lon="-6.015800">
        <ele>568.934</ele>
        <time>2020-02-29T14:11:13Z</time>
      </trkpt>
      <trkpt lat="40.403580" lon="-6.016260">
        <ele>565.783</ele>
        <time>2020-02-29T14:11:33Z</time>
      </trkpt>
      <trkpt lat="40.403720" lon="-6.016490">
        <ele>565.244</ele>
        <time>2020-02-29T14:11:53Z</time>
      </trkpt>
      <trkpt lat="40.403760" lon="-6.016540">
        <ele>565.391</ele>
        <time>2020-02-29T14:12:13Z</time>
      </trkpt>
      <trkpt lat="40.403870" lon="-6.016640">
        <ele>566.135</ele>
        <time>2020-02-29T14:12:33Z</time>
      </trkpt>
      <trkpt lat="40.403920" lon="-6.016670">
        <ele>567.286</ele>
        <time>2020-02-29T14:12:53Z</time>
      </trkpt>
      <trkpt lat="40.404000" lon="-6.016770">
        <ele>568.214</ele>
        <time>2020-02-29T14:13:13Z</time>
      </trkpt>
      <trkpt lat="40.404030" lon="-6.016820">
        <ele>568.308</ele>
        <time>2020-02-29T14:13:33Z</time>
      </trkpt>
      <trkpt lat="40.404050" lon="-6.016870">
        <ele>568.067</ele>
        <time>2020-02-29T14:13:53Z</time>
      </trkpt>
      <trkpt lat="40.404120" lon="-6.016980">
        <ele>568.410</ele>
        <time>2020-02-29T14:14:13Z</time>
      </trkpt>
      <trkpt lat="40.404300" lon="-6.017390">
        <ele>565.725</ele>
        <time>2020-02-29T14:14:33Z</time>
      </trkpt>
      <trkpt lat="40.404520" lon="-6.017760">
        <ele>562.686</ele>
        <time>2020-02-29T14:14:53Z</time>
      </trkpt>
      <trkpt lat="40.404790" lon="-6.018120">
        <ele>561.649</ele>
        <time>2020-02-29T14:15:13Z</time>
      </trkpt>
      <trkpt lat="40.404940" lon="-6.018280">
        <ele>561.398</ele>
        <time>2020-02-29T14:15:33Z</time>
      </trkpt>
      <trkpt lat="40.405030" lon="-6.018360">
        <ele>561.239</ele>
        <time>2020-02-29T14:15:53Z</time>
      </trkpt>
      <trkpt lat="40.405080" lon="-6.018420">
        <ele>561.096</ele>
        <time>2020-02-29T14:16:13Z</time>
      </trkpt>
      <trkpt lat="40.405370" lon="-6.018610">
        <ele>562.773</ele>
        <time>2020-02-29T14:16:33Z</time>
      </trkpt>
      <trkpt lat="40.405460" lon="-6.018680">
        <ele>562.585</ele>
        <time>2020-02-29T14:16:53Z</time>
      </trkpt>
      <trkpt lat="40.405590" lon="-6.018760">
        <ele>562.513</ele>
        <time>2020-02-29T14:17:13Z</time>
      </trkpt>
      <trkpt lat="40.405640" lon="-6.018800">
        <ele>561.708</ele>
        <time>2020-02-29T14:17:33Z</time>
      </trkpt>
      <trkpt lat="40.406010" lon="-6.018970">
        <ele>558.671</ele>
        <time>2020-02-29T14:17:53Z</time>
      </trkpt>
      <trkpt lat="40.406350" lon="-6.019060">
        <ele>558.244</ele>
        <time>2020-02-29T14:18:13Z</time>
      </trkpt>
      <trkpt lat="40.406530" lon="-6.019130">
        <ele>556.669</ele>
        <time>2020-02-29T14:18:33Z</time>
      </trkpt>
      <trkpt lat="40.406660" lon="-6.019160">
        <ele>556.290</ele>
        <time>2020-02-29T14:18:53Z</time>
      </trkpt>
      <trkpt lat="40.406700" lon="-6.019180">
        <ele>556.053</ele>
        <time>2020-02-29T14:19:13Z</time>
      </trkpt>
      <trkpt lat="40.406880" lon="-6.019230">
        <ele>556.522</ele>
        <time>2020-02-29T14:19:33Z</time>
      </trkpt>
      <trkpt lat="40.407050" lon="-6.019300">
        <ele>556.933</ele>
        <time>2020-02-29T14:19:53Z</time>
      </trkpt>
      <trkpt lat="40.407130" lon="-6.019350">
        <ele>556.860</ele>
        <time>2020-02-29T14:20:13Z</time>
      </trkpt>
      <trkpt lat="40.407370" lon="-6.019550">
        <ele>556.388</ele>
        <time>2020-02-29T14:20:33Z</time>
      </trkpt>
      <trkpt lat="40.407450" lon="-6.019650">
        <ele>555.624</ele>
        <time>2020-02-29T14:20:53Z</time>
      </trkpt>
      <trkpt lat="40.407480" lon="-6.019700">
        <ele>555.026</ele>
        <time>2020-02-29T14:21:13Z</time>
      </trkpt>
      <trkpt lat="40.407570" lon="-6.019800">
        <ele>554.908</ele>
        <time>2020-02-29T14:21:33Z</time>
      </trkpt>
      <trkpt lat="40.407710" lon="-6.020090">
        <ele>552.532</ele>
        <time>2020-02-29T14:21:53Z</time>
      </trkpt>
      <trkpt lat="40.407940" lon="-6.020820">
        <ele>545.545</ele>
        <time>2020-02-29T14:22:13Z</time>
      </trkpt>
      <trkpt lat="40.408030" lon="-6.021020">
        <ele>545.290</ele>
        <time>2020-02-29T14:22:33Z</time>
      </trkpt>
      <trkpt lat="40.408080" lon="-6.021090">
        <ele>545.261</ele>
        <time>2020-02-29T14:22:53Z</time>
      </trkpt>
      <trkpt lat="40.408210" lon="-6.021210">
        <ele>544.364</ele>
        <time>2020-02-29T14:23:13Z</time>
      </trkpt>
      <trkpt lat="40.408270" lon="-6.021230">
        <ele>544.463</ele>
        <time>2020-02-29T14:23:33Z</time>
      </trkpt>
      <trkpt lat="40.408360" lon="-6.021280">
        <ele>544.064</ele>
        <time>2020-02-29T14:23:53Z</time>
      </trkpt>
      <trkpt lat="40.408390" lon="-6.021290">
        <ele>543.721</ele>
        <time>2020-02-29T14:24:13Z</time>
      </trkpt>
      <trkpt lat="40.408480" lon="-6.021290">
        <ele>543.284</ele>
        <time>2020-02-29T14:24:33Z</time>
      </trkpt>
      <trkpt lat="40.408520" lon="-6.021280">
        <ele>543.007</ele>
        <time>2020-02-29T14:24:53Z</time>
      </trkpt>
      <trkpt lat="40.408780" lon="-6.021120">
        <ele>540.517</ele>
        <time>2020-02-29T14:25:13Z</time>
      </trkpt>
      <trkpt lat="40.408950" lon="-6.020990">
        <ele>539.308</ele>
        <time>2020-02-29T14:25:33Z</time>
      </trkpt>
      <trkpt lat="40.408960" lon="-6.020990">
        <ele>539.162</ele>
        <time>2020-02-29T14:25:53Z</time>
      </trkpt>
      <trkpt lat="40.409030" lon="-6.020920">
        <ele>538.955</ele>
        <time>2020-02-29T14:26:13Z</time>
      </trkpt>
      <trkpt lat="40.409270" lon="-6.020610">
        <ele>541.990</ele>
        <time>2020-02-29T14:26:33Z</time>
      </trkpt>
      <trkpt lat="40.409300" lon="-6.020580">
        <ele>542.441</ele>
        <time>2020-02-29T14:26:53Z</time>
      </trkpt>
      <trkpt lat="40.409330" lon="-6.020560">
        <ele>542.794</ele>
        <time>2020-02-29T14:27:13Z</time>
      </trkpt>
      <trkpt lat="40.409400" lon="-6.020540">
        <ele>542.763</ele>
        <time>2020-02-29T14:27:33Z</time>
      </trkpt>
      <trkpt lat="40.409550" lon="-6.020540">
        <ele>540.694</ele>
        <time>2020-02-29T14:27:53Z</time>
      </trkpt>
      <trkpt lat="40.409630" lon="-6.020530">
        <ele>539.581</ele>
        <time>2020-02-29T14:28:13Z</time>
      </trkpt>
      <trkpt lat="40.410360" lon="-6.020520">
        <ele>532.656</ele>
        <time>2020-02-29T14:28:33Z</time>
      </trkpt>
      <trkpt lat="40.410400" lon="-6.020510">
        <ele>532.659</ele>
        <time>2020-02-29T14:28:53Z</time>
      </trkpt>
      <trkpt lat="40.410420" lon="-6.020500">
        <ele>532.914</ele>
        <time>2020-02-29T14:29:13Z</time>
      </trkpt>
      <trkpt lat="40.410440" lon="-6.020500">
        <ele>532.608</ele>
        <time>2020-02-29T14:29:33Z</time>
      </trkpt>
      <trkpt lat="40.410460" lon="-6.020480">
        <ele>533.329</ele>
        <time>2020-02-29T14:29:53Z</time>
      </trkpt>
      <trkpt lat="40.410510" lon="-6.020450">
        <ele>534.182</ele>
        <time>2020-02-29T14:30:13Z</time>
      </trkpt>
      <trkpt lat="40.410530" lon="-6.020430">
        <ele>534.787</ele>
        <time>2020-02-29T14:30:33Z</time>
      </trkpt>
      <trkpt lat="40.410600" lon="-6.020400">
        <ele>535.888</ele>
        <time>2020-02-29T14:30:53Z</time>
      </trkpt>
      <trkpt lat="40.410640" lon="-6.020410">
        <ele>535.451</ele>
        <time>2020-02-29T14:31:13Z</time>
      </trkpt>
      <trkpt lat="40.410700" lon="-6.020410">
        <ele>535.610</ele>
        <time>2020-02-29T14:31:33Z</time>
      </trkpt>
      <trkpt lat="40.410790" lon="-6.020450">
        <ele>533.921</ele>
        <time>2020-02-29T14:31:53Z</time>
      </trkpt>
      <trkpt lat="40.410910" lon="-6.020530">
        <ele>531.278</ele>
        <time>2020-02-29T14:32:13Z</time>
      </trkpt>
      <trkpt lat="40.411100" lon="-6.020620">
        <ele>530.364</ele>
        <time>2020-02-29T14:32:33Z</time>
      </trkpt>
      <trkpt lat="40.411190" lon="-6.020650">
        <ele>530.006</ele>
        <time>2020-02-29T14:32:53Z</time>
      </trkpt>
      <trkpt lat="40.411700" lon="-6.020760">
        <ele>528.016</ele>
        <time>2020-02-29T14:33:13Z</time>
      </trkpt>
      <trkpt lat="40.411830" lon="-6.020800">
        <ele>526.808</ele>
        <time>2020-02-29T14:33:33Z</time>
      </trkpt>
      <trkpt lat="40.412080" lon="-6.020910">
        <ele>523.250</ele>
        <time>2020-02-29T14:33:53Z</time>
      </trkpt>
      <trkpt lat="40.412210" lon="-6.020940">
        <ele>522.033</ele>
        <time>2020-02-29T14:34:13Z</time>
      </trkpt>
      <trkpt lat="40.412290" lon="-6.020940">
        <ele>521.528</ele>
        <time>2020-02-29T14:34:33Z</time>
      </trkpt>
      <trkpt lat="40.412350" lon="-6.020920">
        <ele>521.729</ele>
        <time>2020-02-29T14:34:53Z</time>
      </trkpt>
      <trkpt lat="40.412430" lon="-6.020910">
        <ele>521.572</ele>
        <time>2020-02-29T14:35:13Z</time>
      </trkpt>
      <trkpt lat="40.412520" lon="-6.020870">
        <ele>521.761</ele>
        <time>2020-02-29T14:35:33Z</time>
      </trkpt>
      <trkpt lat="40.412620" lon="-6.020840">
        <ele>520.722</ele>
        <time>2020-02-29T14:35:53Z</time>
      </trkpt>
      <trkpt lat="40.412710" lon="-6.020790">
        <ele>520.559</ele>
        <time>2020-02-29T14:36:13Z</time>
      </trkpt>
      <trkpt lat="40.412990" lon="-6.020710">
        <ele>518.415</ele>
        <time>2020-02-29T14:36:33Z</time>
      </trkpt>
      <trkpt lat="40.413530" lon="-6.020730">
        <ele>511.665</ele>
        <time>2020-02-29T14:36:53Z</time>
      </trkpt>
      <trkpt lat="40.413980" lon="-6.020640">
        <ele>511.011</ele>
        <time>2020-02-29T14:37:13Z</time>
      </trkpt>
      <trkpt lat="40.414120" lon="-6.020570">
        <ele>511.208</ele>
        <time>2020-02-29T14:37:33Z</time>
      </trkpt>
      <trkpt lat="40.414220" lon="-6.020500">
        <ele>511.295</ele>
        <time>2020-02-29T14:37:53Z</time>
      </trkpt>
      <trkpt lat="40.414310" lon="-6.020420">
        <ele>511.148</ele>
        <time>2020-02-29T14:38:13Z</time>
      </trkpt>
      <trkpt lat="40.414340" lon="-6.020400">
        <ele>510.923</ele>
        <time>2020-02-29T14:38:33Z</time>
      </trkpt>
      <trkpt lat="40.414740" lon="-6.019910">
        <ele>509.414</ele>
        <time>2020-02-29T14:38:53Z</time>
      </trkpt>
      <trkpt lat="40.414850" lon="-6.019840">
        <ele>509.097</ele>
        <time>2020-02-29T14:39:13Z</time>
      </trkpt>
      <trkpt lat="40.415000" lon="-6.019770">
        <ele>508.126</ele>
        <time>2020-02-29T14:39:33Z</time>
      </trkpt>
      <trkpt lat="40.415060" lon="-6.019760">
        <ele>507.887</ele>
        <time>2020-02-29T14:39:53Z</time>
      </trkpt>
      <trkpt lat="40.415350" lon="-6.019830">
        <ele>504.044</ele>
        <time>2020-02-29T14:40:13Z</time>
      </trkpt>
      <trkpt lat="40.415520" lon="-6.019820">
        <ele>503.451</ele>
        <time>2020-02-29T14:40:33Z</time>
      </trkpt>
      <trkpt lat="40.415600" lon="-6.019850">
        <ele>502.901</ele>
        <time>2020-02-29T14:40:53Z</time>
      </trkpt>
      <trkpt lat="40.415610" lon="-6.019850">
        <ele>503.011</ele>
        <time>2020-02-29T14:41:13Z</time>
      </trkpt>
      <trkpt lat="40.415760" lon="-6.019940">
        <ele>502.408</ele>
        <time>2020-02-29T14:41:33Z</time>
      </trkpt>
      <trkpt lat="40.415760" lon="-6.019950">
        <ele>502.219</ele>
        <time>2020-02-29T14:41:53Z</time>
      </trkpt>
      <trkpt lat="40.415860" lon="-6.020010">
        <ele>501.822</ele>
        <time>2020-02-29T14:42:13Z</time>
      </trkpt>
      <trkpt lat="40.415940" lon="-6.020080">
        <ele>500.427</ele>
        <time>2020-02-29T14:42:33Z</time>
      </trkpt>
      <trkpt lat="40.416100" lon="-6.020170">
        <ele>498.458</ele>
        <time>2020-02-29T14:42:53Z</time>
      </trkpt>
      <trkpt lat="40.416200" lon="-6.020240">
        <ele>495.891</ele>
        <time>2020-02-29T14:43:13Z</time>
      </trkpt>
      <trkpt lat="40.416350" lon="-6.020240">
        <ele>494.140</ele>
        <time>2020-02-29T14:43:33Z</time>
      </trkpt>
      <trkpt lat="40.416450" lon="-6.020220">
        <ele>492.711</ele>
        <time>2020-02-29T14:43:53Z</time>
      </trkpt>
      <trkpt lat="40.416490" lon="-6.020190">
        <ele>492.488</ele>
        <time>2020-02-29T14:44:13Z</time>
      </trkpt>
      <trkpt lat="40.416530" lon="-6.020170">
        <ele>491.936</ele>
        <time>2020-02-29T14:44:33Z</time>
      </trkpt>
      <trkpt lat="40.416560" lon="-6.020130">
        <ele>492.017</ele>
        <time>2020-02-29T14:44:53Z</time>
      </trkpt>
      <trkpt lat="40.416620" lon="-6.019990">
        <ele>493.218</ele>
        <time>2020-02-29T14:45:13Z</time>
      </trkpt>
      <trkpt lat="40.416700" lon="-6.019750">
        <ele>496.708</ele>
        <time>2020-02-29T14:45:33Z</time>
      </trkpt>
      <trkpt lat="40.416790" lon="-6.019600">
        <ele>498.097</ele>
        <time>2020-02-29T14:45:53Z</time>
      </trkpt>
      <trkpt lat="40.416820" lon="-6.019570">
        <ele>498.020</ele>
        <time>2020-02-29T14:46:13Z</time>
      </trkpt>
      <trkpt lat="40.416880" lon="-6.019560">
        <ele>496.985</ele>
        <time>2020-02-29T14:46:33Z</time>
      </trkpt>
      <trkpt lat="40.416900" lon="-6.019550">
        <ele>496.766</ele>
        <time>2020-02-29T14:46:53Z</time>
      </trkpt>
      <trkpt lat="40.417220" lon="-6.019540">
        <ele>491.659</ele>
        <time>2020-02-29T14:47:13Z</time>
      </trkpt>
      <trkpt lat="40.417290" lon="-6.019510">
        <ele>492.348</ele>
        <time>2020-02-29T14:47:33Z</time>
      </trkpt>
      <trkpt lat="40.417340" lon="-6.019480">
        <ele>493.119</ele>
        <time>2020-02-29T14:47:53Z</time>
      </trkpt>
      <trkpt lat="40.417410" lon="-6.019420">
        <ele>494.546</ele>
        <time>2020-02-29T14:48:13Z</time>
      </trkpt>
      <trkpt lat="40.417450" lon="-6.019400">
        <ele>494.884</ele>
        <time>2020-02-29T14:48:33Z</time>
      </trkpt>
      <trkpt lat="40.417480" lon="-6.019400">
        <ele>494.807</ele>
        <time>2020-02-29T14:48:53Z</time>
      </trkpt>
      <trkpt lat="40.417560" lon="-6.019420">
        <ele>494.317</ele>
        <time>2020-02-29T14:49:13Z</time>
      </trkpt>
      <trkpt lat="40.417570" lon="-6.019430">
        <ele>494.108</ele>
        <time>2020-02-29T14:49:33Z</time>
      </trkpt>
      <trkpt lat="40.417630" lon="-6.019450">
        <ele>493.422</ele>
        <time>2020-02-29T14:49:53Z</time>
      </trkpt>
      <trkpt lat="40.417860" lon="-6.019600">
        <ele>489.325</ele>
        <time>2020-02-29T14:50:13Z</time>
      </trkpt>
      <trkpt lat="40.417910" lon="-6.019660">
        <ele>488.150</ele>
        <time>2020-02-29T14:50:33Z</time>
      </trkpt>
      <trkpt lat="40.417960" lon="-6.019860">
        <ele>484.561</ele>
        <time>2020-02-29T14:50:53Z</time>
      </trkpt>
      <trkpt lat="40.417960" lon="-6.019870">
        <ele>484.364</ele>
        <time>2020-02-29T14:51:13Z</time>
      </trkpt>
      <trkpt lat="40.418040" lon="-6.020190">
        <ele>480.173</ele>
        <time>2020-02-29T14:51:33Z</time>
      </trkpt>
      <trkpt lat="40.418090" lon="-6.020470">
        <ele>476.874</ele>
        <time>2020-02-29T14:51:53Z</time>
      </trkpt>
      <trkpt lat="40.418110" lon="-6.020540">
        <ele>476.081</ele>
        <time>2020-02-29T14:52:13Z</time>
      </trkpt>
      <trkpt lat="40.418190" lon="-6.020680">
        <ele>474.956</ele>
        <time>2020-02-29T14:52:33Z</time>
      </trkpt>
      <trkpt lat="40.418410" lon="-6.020930">
        <ele>474.159</ele>
        <time>2020-02-29T14:52:53Z</time>
      </trkpt>
      <trkpt lat="40.418570" lon="-6.021090">
        <ele>472.914</ele>
        <time>2020-02-29T14:53:13Z</time>
      </trkpt>
      <trkpt lat="40.418630" lon="-6.021130">
        <ele>472.408</ele>
        <time>2020-02-29T14:53:33Z</time>
      </trkpt>
      <trkpt lat="40.418660" lon="-6.021140">
        <ele>471.979</ele>
        <time>2020-02-29T14:53:53Z</time>
      </trkpt>
      <trkpt lat="40.418670" lon="-6.021150">
        <ele>471.692</ele>
        <time>2020-02-29T14:54:13Z</time>
      </trkpt>
      <trkpt lat="40.418710" lon="-6.021170">
        <ele>470.857</ele>
        <time>2020-02-29T14:54:33Z</time>
      </trkpt>
      <trkpt lat="40.418780" lon="-6.021160">
        <ele>470.358</ele>
        <time>2020-02-29T14:54:53Z</time>
      </trkpt>
      <trkpt lat="40.418850" lon="-6.021160">
        <ele>469.781</ele>
        <time>2020-02-29T14:55:13Z</time>
      </trkpt>
      <trkpt lat="40.418900" lon="-6.021130">
        <ele>469.510</ele>
        <time>2020-02-29T14:55:33Z</time>
      </trkpt>
      <trkpt lat="40.418920" lon="-6.021100">
        <ele>469.671</ele>
        <time>2020-02-29T14:55:53Z</time>
      </trkpt>
      <trkpt lat="40.418960" lon="-6.021060">
        <ele>469.628</ele>
        <time>2020-02-29T14:56:13Z</time>
      </trkpt>
      <trkpt lat="40.418970" lon="-6.021020">
        <ele>470.232</ele>
        <time>2020-02-29T14:56:33Z</time>
      </trkpt>
      <trkpt lat="40.419000" lon="-6.020980">
        <ele>470.492</ele>
        <time>2020-02-29T14:56:53Z</time>
      </trkpt>
      <trkpt lat="40.419010" lon="-6.020960">
        <ele>470.511</ele>
        <time>2020-02-29T14:57:13Z</time>
      </trkpt>
      <trkpt lat="40.419040" lon="-6.020930">
        <ele>470.508</ele>
        <time>2020-02-29T14:57:33Z</time>
      </trkpt>
      <trkpt lat="40.419090" lon="-6.020910">
        <ele>470.017</ele>
        <time>2020-02-29T14:57:53Z</time>
      </trkpt>
      <trkpt lat="40.419670" lon="-6.020940">
        <ele>459.840</ele>
        <time>2020-02-29T14:58:13Z</time>
      </trkpt>
      <trkpt lat="40.419810" lon="-6.020960">
        <ele>457.795</ele>
        <time>2020-02-29T14:58:33Z</time>
      </trkpt>
      <trkpt lat="40.419870" lon="-6.020930">
        <ele>457.586</ele>
        <time>2020-02-29T14:58:53Z</time>
      </trkpt>
      <trkpt lat="40.419960" lon="-6.020860">
        <ele>457.399</ele>
        <time>2020-02-29T14:59:13Z</time>
      </trkpt>
      <trkpt lat="40.420090" lon="-6.020640">
        <ele>458.538</ele>
        <time>2020-02-29T14:59:33Z</time>
      </trkpt>
      <trkpt lat="40.420150" lon="-6.020560">
        <ele>458.719</ele>
        <time>2020-02-29T14:59:53Z</time>
      </trkpt>
      <trkpt lat="40.420210" lon="-6.020500">
        <ele>458.126</ele>
        <time>2020-02-29T15:00:13Z</time>
      </trkpt>
      <trkpt lat="40.420400" lon="-6.020370">
        <ele>454.358</ele>
        <time>2020-02-29T15:00:33Z</time>
      </trkpt>
      <trkpt lat="40.420490" lon="-6.020290">
        <ele>452.752</ele>
        <time>2020-02-29T15:00:53Z</time>
      </trkpt>
      <trkpt lat="40.420560" lon="-6.020210">
        <ele>451.817</ele>
        <time>2020-02-29T15:01:13Z</time>
      </trkpt>
      <trkpt lat="40.420660" lon="-6.020060">
        <ele>450.008</ele>
        <time>2020-02-29T15:01:33Z</time>
      </trkpt>
      <trkpt lat="40.421240" lon="-6.019050">
        <ele>440.739</ele>
        <time>2020-02-29T15:01:53Z</time>
      </trkpt>
      <trkpt lat="40.421330" lon="-6.018860">
        <ele>439.472</ele>
        <time>2020-02-29T15:02:13Z</time>
      </trkpt>
      <trkpt lat="40.421430" lon="-6.018590">
        <ele>436.677</ele>
        <time>2020-02-29T15:02:33Z</time>
      </trkpt>
      <trkpt lat="40.421460" lon="-6.018390">
        <ele>434.918</ele>
        <time>2020-02-29T15:02:53Z</time>
      </trkpt>
      <trkpt lat="40.421460" lon="-6.018330">
        <ele>434.771</ele>
        <time>2020-02-29T15:03:13Z</time>
      </trkpt>
      <trkpt lat="40.421450" lon="-6.018280">
        <ele>434.480</ele>
        <time>2020-02-29T15:03:33Z</time>
      </trkpt>
      <trkpt lat="40.421440" lon="-6.018260">
        <ele>434.661</ele>
        <time>2020-02-29T15:03:53Z</time>
      </trkpt>
      <trkpt lat="40.421430" lon="-6.018220">
        <ele>434.438</ele>
        <time>2020-02-29T15:04:13Z</time>
      </trkpt>
      <trkpt lat="40.421400" lon="-6.018170">
        <ele>434.928</ele>
        <time>2020-02-29T15:04:33Z</time>
      </trkpt>
      <trkpt lat="40.421260" lon="-6.018080">
        <ele>436.589</ele>
        <time>2020-02-29T15:04:53Z</time>
      </trkpt>
      <trkpt lat="40.421210" lon="-6.018030">
        <ele>437.317</ele>
        <time>2020-02-29T15:05:13Z</time>
      </trkpt>
      <trkpt lat="40.421170" lon="-6.017960">
        <ele>438.408</ele>
        <time>2020-02-29T15:05:33Z</time>
      </trkpt>
      <trkpt lat="40.421170" lon="-6.017930">
        <ele>438.636</ele>
        <time>2020-02-29T15:05:53Z</time>
      </trkpt>
      <trkpt lat="40.421190" lon="-6.017810">
        <ele>438.659</ele>
        <time>2020-02-29T15:06:13Z</time>
      </trkpt>
      <trkpt lat="40.421230" lon="-6.017690">
        <ele>438.164</ele>
        <time>2020-02-29T15:06:33Z</time>
      </trkpt>
      <trkpt lat="40.421300" lon="-6.017540">
        <ele>436.785</ele>
        <time>2020-02-29T15:06:53Z</time>
      </trkpt>
      <trkpt lat="40.421400" lon="-6.017390">
        <ele>434.828</ele>
        <time>2020-02-29T15:07:13Z</time>
      </trkpt>
      <trkpt lat="40.421440" lon="-6.017360">
        <ele>433.657</ele>
        <time>2020-02-29T15:07:33Z</time>
      </trkpt>
      <trkpt lat="40.421610" lon="-6.017110">
        <ele>431.048</ele>
        <time>2020-02-29T15:07:53Z</time>
      </trkpt>
      <trkpt lat="40.421660" lon="-6.017010">
        <ele>431.045</ele>
        <time>2020-02-29T15:08:13Z</time>
      </trkpt>
      <trkpt lat="40.421670" lon="-6.017010">
        <ele>430.814</ele>
        <time>2020-02-29T15:08:33Z</time>
      </trkpt>
      <trkpt lat="40.421740" lon="-6.016850">
        <ele>432.154</ele>
        <time>2020-02-29T15:08:53Z</time>
      </trkpt>
      <trkpt lat="40.421780" lon="-6.016790">
        <ele>432.309</ele>
        <time>2020-02-29T15:09:13Z</time>
      </trkpt>
      <trkpt lat="40.421860" lon="-6.016700">
        <ele>432.208</ele>
        <time>2020-02-29T15:09:33Z</time>
      </trkpt>
      <trkpt lat="40.421910" lon="-6.016690">
        <ele>431.385</ele>
        <time>2020-02-29T15:09:53Z</time>
      </trkpt>
      <trkpt lat="40.421990" lon="-6.016690">
        <ele>430.238</ele>
        <time>2020-02-29T15:10:13Z</time>
      </trkpt>
      <trkpt lat="40.422050" lon="-6.016710">
        <ele>429.473</ele>
        <time>2020-02-29T15:10:33Z</time>
      </trkpt>
      <trkpt lat="40.422090" lon="-6.016710">
        <ele>429.124</ele>
        <time>2020-02-29T15:10:53Z</time>
      </trkpt>
      <trkpt lat="40.422160" lon="-6.016730">
        <ele>428.137</ele>
        <time>2020-02-29T15:11:13Z</time>
      </trkpt>
      <trkpt lat="40.422240" lon="-6.016740">
        <ele>427.266</ele>
        <time>2020-02-29T15:11:33Z</time>
      </trkpt>
      <trkpt lat="40.422260" lon="-6.016750">
        <ele>426.867</ele>
        <time>2020-02-29T15:11:53Z</time>
      </trkpt>
      <trkpt lat="40.422310" lon="-6.016750">
        <ele>426.344</ele>
        <time>2020-02-29T15:12:13Z</time>
      </trkpt>
      <trkpt lat="40.422420" lon="-6.016730">
        <ele>425.718</ele>
        <time>2020-02-29T15:12:33Z</time>
      </trkpt>
      <trkpt lat="40.422620" lon="-6.016470">
        <ele>427.098</ele>
        <time>2020-02-29T15:12:53Z</time>
      </trkpt>
      <trkpt lat="40.422910" lon="-6.015960">
        <ele>420.717</ele>
        <time>2020-02-29T15:13:13Z</time>
      </trkpt>
      <trkpt lat="40.423160" lon="-6.015360">
        <ele>418.108</ele>
        <time>2020-02-29T15:13:33Z</time>
      </trkpt>
      <trkpt lat="40.423220" lon="-6.015260">
        <ele>417.665</ele>
        <time>2020-02-29T15:13:53Z</time>
      </trkpt>
      <trkpt lat="40.423270" lon="-6.015200">
        <ele>417.298</ele>
        <time>2020-02-29T15:14:13Z</time>
      </trkpt>
      <trkpt lat="40.423390" lon="-6.015100">
        <ele>415.513</ele>
        <time>2020-02-29T15:14:33Z</time>
      </trkpt>
      <trkpt lat="40.423490" lon="-6.015000">
        <ele>413.954</ele>
        <time>2020-02-29T15:14:53Z</time>
      </trkpt>
      <trkpt lat="40.423590" lon="-6.014860">
        <ele>413.237</ele>
        <time>2020-02-29T15:15:13Z</time>
      </trkpt>
      <trkpt lat="40.423750" lon="-6.014480">
        <ele>414.166</ele>
        <time>2020-02-29T15:15:33Z</time>
      </trkpt>
      <trkpt lat="40.423880" lon="-6.014110">
        <ele>410.177</ele>
        <time>2020-02-29T15:15:53Z</time>
      </trkpt>
      <trkpt lat="40.423890" lon="-6.014060">
        <ele>409.694</ele>
        <time>2020-02-29T15:16:13Z</time>
      </trkpt>
      <trkpt lat="40.423920" lon="-6.014000">
        <ele>409.137</ele>
        <time>2020-02-29T15:16:33Z</time>
      </trkpt>
      <trkpt lat="40.423990" lon="-6.013920">
        <ele>408.349</ele>
        <time>2020-02-29T15:16:53Z</time>
      </trkpt>
      <trkpt lat="40.424040" lon="-6.013890">
        <ele>407.913</ele>
        <time>2020-02-29T15:17:13Z</time>
      </trkpt>
      <trkpt lat="40.424100" lon="-6.013890">
        <ele>407.508</ele>
        <time>2020-02-29T15:17:33Z</time>
      </trkpt>
      <trkpt lat="40.424210" lon="-6.013940">
        <ele>406.757</ele>
        <time>2020-02-29T15:17:53Z</time>
      </trkpt>
      <trkpt lat="40.424640" lon="-6.014240">
        <ele>406.850</ele>
        <time>2020-02-29T15:18:13Z</time>
      </trkpt>
      <trkpt lat="40.424670" lon="-6.014250">
        <ele>407.185</ele>
        <time>2020-02-29T15:18:33Z</time>
      </trkpt>
      <trkpt lat="40.424720" lon="-6.014250">
        <ele>407.676</ele>
        <time>2020-02-29T15:18:53Z</time>
      </trkpt>
      <trkpt lat="40.424780" lon="-6.014200">
        <ele>408.549</ele>
        <time>2020-02-29T15:19:13Z</time>
      </trkpt>
      <trkpt lat="40.425040" lon="-6.013700">
        <ele>411.348</ele>
        <time>2020-02-29T15:19:33Z</time>
      </trkpt>
      <trkpt lat="40.425090" lon="-6.013630">
        <ele>411.639</ele>
        <time>2020-02-29T15:19:53Z</time>
      </trkpt>
      <trkpt lat="40.425150" lon="-6.013590">
        <ele>412.176</ele>
        <time>2020-02-29T15:20:13Z</time>
      </trkpt>
      <trkpt lat="40.425240" lon="-6.013570">
        <ele>412.943</ele>
        <time>2020-02-29T15:20:33Z</time>
      </trkpt>
      <trkpt lat="40.425330" lon="-6.013590">
        <ele>412.764</ele>
        <time>2020-02-29T15:20:53Z</time>
      </trkpt>
      <trkpt lat="40.425530" lon="-6.013720">
        <ele>410.110</ele>
        <time>2020-02-29T15:21:13Z</time>
      </trkpt>
      <trkpt lat="40.425470" lon="-6.013870">
        <ele>409.708</ele>
        <time>2020-02-29T15:21:33Z</time>
      </trkpt>
      <trkpt lat="40.425450" lon="-6.013940">
        <ele>409.878</ele>
        <time>2020-02-29T15:21:53Z</time>
      </trkpt>
      <trkpt lat="40.425430" lon="-6.014110">
        <ele>409.821</ele>
        <time>2020-02-29T15:22:13Z</time>
      </trkpt>
      <trkpt lat="40.425430" lon="-6.014170">
        <ele>409.776</ele>
        <time>2020-02-29T15:22:33Z</time>
      </trkpt>
      <trkpt lat="40.425440" lon="-6.014250">
        <ele>409.277</ele>
        <time>2020-02-29T15:22:53Z</time>
      </trkpt>
      <trkpt lat="40.425490" lon="-6.014360">
        <ele>407.750</ele>
        <time>2020-02-29T15:23:13Z</time>
      </trkpt>
      <trkpt lat="40.425570" lon="-6.014460">
        <ele>405.719</ele>
        <time>2020-02-29T15:23:33Z</time>
      </trkpt>
      <trkpt lat="40.425640" lon="-6.014530">
        <ele>404.770</ele>
        <time>2020-02-29T15:23:53Z</time>
      </trkpt>
      <trkpt lat="40.426120" lon="-6.015100">
        <ele>404.297</ele>
        <time>2020-02-29T15:24:13Z</time>
      </trkpt>
      <trkpt lat="40.426150" lon="-6.015150">
        <ele>405.087</ele>
        <time>2020-02-29T15:24:33Z</time>
      </trkpt>
      <trkpt lat="40.426170" lon="-6.015170">
        <ele>405.542</ele>
        <time>2020-02-29T15:24:53Z</time>
      </trkpt>
      <trkpt lat="40.426210" lon="-6.015280">
        <ele>406.926</ele>
        <time>2020-02-29T15:25:13Z</time>
      </trkpt>
      <trkpt lat="40.426220" lon="-6.015350">
        <ele>408.008</ele>
        <time>2020-02-29T15:25:33Z</time>
      </trkpt>
      <trkpt lat="40.426210" lon="-6.015510">
        <ele>409.782</ele>
        <time>2020-02-29T15:25:53Z</time>
      </trkpt>
      <trkpt lat="40.426010" lon="-6.016290">
        <ele>411.415</ele>
        <time>2020-02-29T15:26:13Z</time>
      </trkpt>
      <trkpt lat="40.425980" lon="-6.016520">
        <ele>412.420</ele>
        <time>2020-02-29T15:26:33Z</time>
      </trkpt>
      <trkpt lat="40.425980" lon="-6.016780">
        <ele>413.691</ele>
        <time>2020-02-29T15:26:53Z</time>
      </trkpt>
      <trkpt lat="40.426010" lon="-6.016940">
        <ele>414.864</ele>
        <time>2020-02-29T15:27:13Z</time>
      </trkpt>
      <trkpt lat="40.426120" lon="-6.017240">
        <ele>420.443</ele>
        <time>2020-02-29T15:27:33Z</time>
      </trkpt>
      <trkpt lat="40.426350" lon="-6.017620">
        <ele>426.064</ele>
        <time>2020-02-29T15:27:53Z</time>
      </trkpt>
      <trkpt lat="40.426370" lon="-6.017670">
        <ele>426.151</ele>
        <time>2020-02-29T15:28:13Z</time>
      </trkpt>
      <trkpt lat="40.426380" lon="-6.017730">
        <ele>426.185</ele>
        <time>2020-02-29T15:28:33Z</time>
      </trkpt>
      <trkpt lat="40.426380" lon="-6.017820">
        <ele>426.189</ele>
        <time>2020-02-29T15:28:53Z</time>
      </trkpt>
      <trkpt lat="40.426370" lon="-6.017870">
        <ele>426.217</ele>
        <time>2020-02-29T15:29:13Z</time>
      </trkpt>
      <trkpt lat="40.426340" lon="-6.017940">
        <ele>426.208</ele>
        <time>2020-02-29T15:29:33Z</time>
      </trkpt>
      <trkpt lat="40.426240" lon="-6.018070">
        <ele>426.172</ele>
        <time>2020-02-29T15:29:53Z</time>
      </trkpt>
      <trkpt lat="40.426130" lon="-6.018170">
        <ele>426.475</ele>
        <time>2020-02-29T15:30:13Z</time>
      </trkpt>
      <trkpt lat="40.426100" lon="-6.018220">
        <ele>426.690</ele>
        <time>2020-02-29T15:30:33Z</time>
      </trkpt>
      <trkpt lat="40.426060" lon="-6.018320">
        <ele>426.941</ele>
        <time>2020-02-29T15:30:53Z</time>
      </trkpt>
      <trkpt lat="40.425970" lon="-6.018710">
        <ele>429.794</ele>
        <time>2020-02-29T15:31:13Z</time>
      </trkpt>
      <trkpt lat="40.425940" lon="-6.018990">
        <ele>431.923</ele>
        <time>2020-02-29T15:31:33Z</time>
      </trkpt>
      <trkpt lat="40.425950" lon="-6.019210">
        <ele>433.844</ele>
        <time>2020-02-29T15:31:53Z</time>
      </trkpt>
      <trkpt lat="40.425990" lon="-6.019370">
        <ele>435.271</ele>
        <time>2020-02-29T15:32:13Z</time>
      </trkpt>
      <trkpt lat="40.426680" lon="-6.021060">
        <ele>452.441</ele>
        <time>2020-02-29T15:32:33Z</time>
      </trkpt>
      <trkpt lat="40.426690" lon="-6.021110">
        <ele>452.781</ele>
        <time>2020-02-29T15:32:53Z</time>
      </trkpt>
      <trkpt lat="40.426690" lon="-6.021190">
        <ele>453.709</ele>
        <time>2020-02-29T15:33:13Z</time>
      </trkpt>
      <trkpt lat="40.426670" lon="-6.021290">
        <ele>454.608</ele>
        <time>2020-02-29T15:33:33Z</time>
      </trkpt>
      <trkpt lat="40.426650" lon="-6.021340">
        <ele>454.898</ele>
        <time>2020-02-29T15:33:53Z</time>
      </trkpt>
      <trkpt lat="40.426580" lon="-6.021410">
        <ele>453.941</ele>
        <time>2020-02-29T15:34:13Z</time>
      </trkpt>
      <trkpt lat="40.426480" lon="-6.021470">
        <ele>452.426</ele>
        <time>2020-02-29T15:34:33Z</time>
      </trkpt>
      <trkpt lat="40.426260" lon="-6.021520">
        <ele>449.987</ele>
        <time>2020-02-29T15:34:53Z</time>
      </trkpt>
      <trkpt lat="40.426160" lon="-6.021520">
        <ele>448.810</ele>
        <time>2020-02-29T15:35:13Z</time>
      </trkpt>
      <trkpt lat="40.425930" lon="-6.021540">
        <ele>450.529</ele>
        <time>2020-02-29T15:35:33Z</time>
      </trkpt>
      <trkpt lat="40.425770" lon="-6.021540">
        <ele>452.070</ele>
        <time>2020-02-29T15:35:53Z</time>
      </trkpt>
      <trkpt lat="40.425580" lon="-6.021580">
        <ele>454.917</ele>
        <time>2020-02-29T15:36:13Z</time>
      </trkpt>
      <trkpt lat="40.425510" lon="-6.021610">
        <ele>455.027</ele>
        <time>2020-02-29T15:36:33Z</time>
      </trkpt>
      <trkpt lat="40.425470" lon="-6.021640">
        <ele>454.968</ele>
        <time>2020-02-29T15:36:53Z</time>
      </trkpt>
      <trkpt lat="40.425380" lon="-6.021760">
        <ele>454.514</ele>
        <time>2020-02-29T15:37:13Z</time>
      </trkpt>
      <trkpt lat="40.425340" lon="-6.021830">
        <ele>454.308</ele>
        <time>2020-02-29T15:37:33Z</time>
      </trkpt>
      <trkpt lat="40.425310" lon="-6.021920">
        <ele>454.426</ele>
        <time>2020-02-29T15:37:53Z</time>
      </trkpt>
      <trkpt lat="40.425310" lon="-6.022160">
        <ele>456.749</ele>
        <time>2020-02-29T15:38:13Z</time>
      </trkpt>
      <trkpt lat="40.425350" lon="-6.022290">
        <ele>458.084</ele>
        <time>2020-02-29T15:38:33Z</time>
      </trkpt>
      <trkpt lat="40.425420" lon="-6.022450">
        <ele>459.495</ele>
        <time>2020-02-29T15:38:53Z</time>
      </trkpt>
      <trkpt lat="40.425450" lon="-6.022490">
        <ele>459.888</ele>
        <time>2020-02-29T15:39:13Z</time>
      </trkpt>
      <trkpt lat="40.425480" lon="-6.022500">
        <ele>460.267</ele>
        <time>2020-02-29T15:39:33Z</time>
      </trkpt>
      <trkpt lat="40.425570" lon="-6.022550">
        <ele>461.118</ele>
        <time>2020-02-29T15:39:53Z</time>
      </trkpt>
      <trkpt lat="40.425620" lon="-6.022560">
        <ele>461.255</ele>
        <time>2020-02-29T15:40:13Z</time>
      </trkpt>
      <trkpt lat="40.425760" lon="-6.022610">
        <ele>461.763</ele>
        <time>2020-02-29T15:40:33Z</time>
      </trkpt>
      <trkpt lat="40.426110" lon="-6.022630">
        <ele>464.144</ele>
        <time>2020-02-29T15:40:53Z</time>
      </trkpt>
      <trkpt lat="40.427030" lon="-6.022730">
        <ele>466.818</ele>
        <time>2020-02-29T15:41:13Z</time>
      </trkpt>
      <trkpt lat="40.427150" lon="-6.022770">
        <ele>467.508</ele>
        <time>2020-02-29T15:41:33Z</time>
      </trkpt>
      <trkpt lat="40.427210" lon="-6.022810">
        <ele>467.780</ele>
        <time>2020-02-29T15:41:53Z</time>
      </trkpt>
      <trkpt lat="40.427240" lon="-6.022820">
        <ele>467.883</ele>
        <time>2020-02-29T15:42:13Z</time>
      </trkpt>
      <trkpt lat="40.427290" lon="-6.022890">
        <ele>467.738</ele>
        <time>2020-02-29T15:42:33Z</time>
      </trkpt>
      <trkpt lat="40.427360" lon="-6.023100">
        <ele>466.749</ele>
        <time>2020-02-29T15:42:53Z</time>
      </trkpt>
      <trkpt lat="40.427390" lon="-6.023160">
        <ele>466.572</ele>
        <time>2020-02-29T15:43:13Z</time>
      </trkpt>
      <trkpt lat="40.427410" lon="-6.023250">
        <ele>466.281</ele>
        <time>2020-02-29T15:43:33Z</time>
      </trkpt>
      <trkpt lat="40.427420" lon="-6.023370">
        <ele>465.672</ele>
        <time>2020-02-29T15:43:53Z</time>
      </trkpt>
      <trkpt lat="40.427440" lon="-6.023460">
        <ele>465.229</ele>
        <time>2020-02-29T15:44:13Z</time>
      </trkpt>
      <trkpt lat="40.427440" lon="-6.023480">
        <ele>465.127</ele>
        <time>2020-02-29T15:44:33Z</time>
      </trkpt>
      <trkpt lat="40.427510" lon="-6.023710">
        <ele>464.068</ele>
        <time>2020-02-29T15:44:53Z</time>
      </trkpt>
      <trkpt lat="40.427570" lon="-6.023850">
        <ele>462.714</ele>
        <time>2020-02-29T15:45:13Z</time>
      </trkpt>
      <trkpt lat="40.427690" lon="-6.024020">
        <ele>461.608</ele>
        <time>2020-02-29T15:45:33Z</time>
      </trkpt>
      <trkpt lat="40.427780" lon="-6.024090">
        <ele>461.566</ele>
        <time>2020-02-29T15:45:53Z</time>
      </trkpt>
      <trkpt lat="40.428220" lon="-6.024330">
        <ele>458.779</ele>
        <time>2020-02-29T15:46:13Z</time>
      </trkpt>
      <trkpt lat="40.428380" lon="-6.024440">
        <ele>458.214</ele>
        <time>2020-02-29T15:46:33Z</time>
      </trkpt>
      <trkpt lat="40.429360" lon="-6.025230">
        <ele>453.245</ele>
        <time>2020-02-29T15:46:53Z</time>
      </trkpt>
      <trkpt lat="40.429490" lon="-6.025310">
        <ele>452.488</ele>
        <time>2020-02-29T15:47:13Z</time>
      </trkpt>
      <trkpt lat="40.429620" lon="-6.025370">
        <ele>451.027</ele>
        <time>2020-02-29T15:47:33Z</time>
      </trkpt>
      <trkpt lat="40.429890" lon="-6.025430">
        <ele>450.788</ele>
        <time>2020-02-29T15:47:53Z</time>
      </trkpt>
      <trkpt lat="40.430150" lon="-6.025440">
        <ele>451.565</ele>
        <time>2020-02-29T15:48:13Z</time>
      </trkpt>
      <trkpt lat="40.430560" lon="-6.025380">
        <ele>451.347</ele>
        <time>2020-02-29T15:48:33Z</time>
      </trkpt>
      <trkpt lat="40.430730" lon="-6.025380">
        <ele>451.529</ele>
        <time>2020-02-29T15:48:53Z</time>
      </trkpt>
      <trkpt lat="40.430790" lon="-6.025390">
        <ele>451.521</ele>
        <time>2020-02-29T15:49:13Z</time>
      </trkpt>
      <trkpt lat="40.430820" lon="-6.025400">
        <ele>451.508</ele>
        <time>2020-02-29T15:49:33Z</time>
      </trkpt>
      <trkpt lat="40.430870" lon="-6.025430">
        <ele>451.798</ele>
        <time>2020-02-29T15:49:53Z</time>
      </trkpt>
      <trkpt lat="40.430910" lon="-6.025480">
        <ele>451.751</ele>
        <time>2020-02-29T15:50:13Z</time>
      </trkpt>
      <trkpt lat="40.430970" lon="-6.025580">
        <ele>451.946</ele>
        <time>2020-02-29T15:50:33Z</time>
      </trkpt>
      <trkpt lat="40.431070" lon="-6.025830">
        <ele>452.657</ele>
        <time>2020-02-29T15:50:53Z</time>
      </trkpt>
      <trkpt lat="40.431100" lon="-6.025940">
        <ele>453.280</ele>
        <time>2020-02-29T15:51:13Z</time>
      </trkpt>
      <trkpt lat="40.431140" lon="-6.026040">
        <ele>454.049</ele>
        <time>2020-02-29T15:51:33Z</time>
      </trkpt>
      <trkpt lat="40.431190" lon="-6.026110">
        <ele>454.610</ele>
        <time>2020-02-29T15:51:53Z</time>
      </trkpt>
      <trkpt lat="40.431220" lon="-6.026140">
        <ele>454.867</ele>
        <time>2020-02-29T15:52:13Z</time>
      </trkpt>
      <trkpt lat="40.431280" lon="-6.026170">
        <ele>455.211</ele>
        <time>2020-02-29T15:52:33Z</time>
      </trkpt>
      <trkpt lat="40.431320" lon="-6.026180">
        <ele>455.521</ele>
        <time>2020-02-29T15:52:53Z</time>
      </trkpt>
      <trkpt lat="40.431420" lon="-6.026140">
        <ele>456.203</ele>
        <time>2020-02-29T15:53:13Z</time>
      </trkpt>
      <trkpt lat="40.431460" lon="-6.026110">
        <ele>456.508</ele>
        <time>2020-02-29T15:53:33Z</time>
      </trkpt>
      <trkpt lat="40.431770" lon="-6.025810">
        <ele>459.025</ele>
        <time>2020-02-29T15:53:53Z</time>
      </trkpt>
      <trkpt lat="40.431980" lon="-6.025640">
        <ele>460.068</ele>
        <time>2020-02-29T15:54:13Z</time>
      </trkpt>
      <trkpt lat="40.432060" lon="-6.025600">
        <ele>460.683</ele>
        <time>2020-02-29T15:54:33Z</time>
      </trkpt>
      <trkpt lat="40.432070" lon="-6.025590">
        <ele>460.684</ele>
        <time>2020-02-29T15:54:53Z</time>
      </trkpt>
      <trkpt lat="40.432190" lon="-6.025540">
        <ele>461.677</ele>
        <time>2020-02-29T15:55:13Z</time>
      </trkpt>
      <trkpt lat="40.432340" lon="-6.025530">
        <ele>463.156</ele>
        <time>2020-02-29T15:55:33Z</time>
      </trkpt>
      <trkpt lat="40.432490" lon="-6.025560">
        <ele>464.917</ele>
        <time>2020-02-29T15:55:53Z</time>
      </trkpt>
      <trkpt lat="40.432700" lon="-6.025670">
        <ele>468.724</ele>
        <time>2020-02-29T15:56:13Z</time>
      </trkpt>
      <trkpt lat="40.432860" lon="-6.025820">
        <ele>471.856</ele>
        <time>2020-02-29T15:56:33Z</time>
      </trkpt>
      <trkpt lat="40.432910" lon="-6.025900">
        <ele>472.859</ele>
        <time>2020-02-29T15:56:53Z</time>
      </trkpt>
      <trkpt lat="40.432970" lon="-6.026020">
        <ele>474.214</ele>
        <time>2020-02-29T15:57:13Z</time>
      </trkpt>
      <trkpt lat="40.432990" lon="-6.026040">
        <ele>474.608</ele>
        <time>2020-02-29T15:57:33Z</time>
      </trkpt>
      <trkpt lat="40.433050" lon="-6.026180">
        <ele>476.299</ele>
        <time>2020-02-29T15:57:53Z</time>
      </trkpt>
      <trkpt lat="40.433100" lon="-6.026340">
        <ele>477.492</ele>
        <time>2020-02-29T15:58:13Z</time>
      </trkpt>
      <trkpt lat="40.433140" lon="-6.026540">
        <ele>478.687</ele>
        <time>2020-02-29T15:58:33Z</time>
      </trkpt>
      <trkpt lat="40.433140" lon="-6.026910">
        <ele>478.938</ele>
        <time>2020-02-29T15:58:53Z</time>
      </trkpt>
      <trkpt lat="40.433150" lon="-6.026950">
        <ele>479.021</ele>
        <time>2020-02-29T15:59:13Z</time>
      </trkpt>
      <trkpt lat="40.433150" lon="-6.027040">
        <ele>479.420</ele>
        <time>2020-02-29T15:59:33Z</time>
      </trkpt>
      <trkpt lat="40.433060" lon="-6.027960">
        <ele>482.771</ele>
        <time>2020-02-29T15:59:53Z</time>
      </trkpt>
      <trkpt lat="40.433010" lon="-6.028220">
        <ele>483.028</ele>
        <time>2020-02-29T16:00:13Z</time>
      </trkpt>
      <trkpt lat="40.432990" lon="-6.028890">
        <ele>486.385</ele>
        <time>2020-02-29T16:00:33Z</time>
      </trkpt>
      <trkpt lat="40.433020" lon="-6.029000">
        <ele>486.789</ele>
        <time>2020-02-29T16:00:53Z</time>
      </trkpt>
      <trkpt lat="40.433070" lon="-6.029090">
        <ele>487.317</ele>
        <time>2020-02-29T16:01:13Z</time>
      </trkpt>
      <trkpt lat="40.433230" lon="-6.029310">
        <ele>490.008</ele>
        <time>2020-02-29T16:01:33Z</time>
      </trkpt>
      <trkpt lat="40.433960" lon="-6.030070">
        <ele>498.792</ele>
        <time>2020-02-29T16:01:53Z</time>
      </trkpt>
      <trkpt lat="40.434370" lon="-6.030620">
        <ele>503.215</ele>
        <time>2020-02-29T16:02:13Z</time>
      </trkpt>
      <trkpt lat="40.434640" lon="-6.031300">
        <ele>503.970</ele>
        <time>2020-02-29T16:02:33Z</time>
      </trkpt>
      <trkpt lat="40.434700" lon="-6.031510">
        <ele>504.191</ele>
        <time>2020-02-29T16:02:53Z</time>
      </trkpt>
      <trkpt lat="40.434720" lon="-6.031650">
        <ele>504.944</ele>
        <time>2020-02-29T16:03:13Z</time>
      </trkpt>
      <trkpt lat="40.434710" lon="-6.031840">
        <ele>507.633</ele>
        <time>2020-02-29T16:03:33Z</time>
      </trkpt>
      <trkpt lat="40.434990" lon="-6.032090">
        <ele>507.784</ele>
        <time>2020-02-29T16:03:53Z</time>
      </trkpt>
      <trkpt lat="40.435100" lon="-6.032210">
        <ele>508.251</ele>
        <time>2020-02-29T16:04:13Z</time>
      </trkpt>
      <trkpt lat="40.435310" lon="-6.032520">
        <ele>510.249</ele>
        <time>2020-02-29T16:04:33Z</time>
      </trkpt>
      <trkpt lat="40.435420" lon="-6.032710">
        <ele>512.302</ele>
        <time>2020-02-29T16:04:53Z</time>
      </trkpt>
      <trkpt lat="40.435750" lon="-6.033390">
        <ele>515.722</ele>
        <time>2020-02-29T16:05:13Z</time>
      </trkpt>
      <trkpt lat="40.435940" lon="-6.033880">
        <ele>518.608</ele>
        <time>2020-02-29T16:05:33Z</time>
      </trkpt>
      <trkpt lat="40.436230" lon="-6.035010">
        <ele>524.828</ele>
        <time>2020-02-29T16:05:53Z</time>
      </trkpt>
      <trkpt lat="40.436330" lon="-6.035230">
        <ele>525.541</ele>
        <time>2020-02-29T16:06:13Z</time>
      </trkpt>
      <trkpt lat="40.436390" lon="-6.035280">
        <ele>525.026</ele>
        <time>2020-02-29T16:06:33Z</time>
      </trkpt>
      <trkpt lat="40.436460" lon="-6.035320">
        <ele>525.857</ele>
        <time>2020-02-29T16:06:53Z</time>
      </trkpt>
      <trkpt lat="40.436520" lon="-6.035340">
        <ele>526.190</ele>
        <time>2020-02-29T16:07:13Z</time>
      </trkpt>
      <trkpt lat="40.436790" lon="-6.035360">
        <ele>526.939</ele>
        <time>2020-02-29T16:07:33Z</time>
      </trkpt>
      <trkpt lat="40.437440" lon="-6.035350">
        <ele>530.940</ele>
        <time>2020-02-29T16:07:53Z</time>
      </trkpt>
      <trkpt lat="40.437600" lon="-6.035360">
        <ele>531.887</ele>
        <time>2020-02-29T16:08:13Z</time>
      </trkpt>
      <trkpt lat="40.437710" lon="-6.035390">
        <ele>532.858</ele>
        <time>2020-02-29T16:08:33Z</time>
      </trkpt>
      <trkpt lat="40.437910" lon="-6.035510">
        <ele>534.352</ele>
        <time>2020-02-29T16:08:53Z</time>
      </trkpt>
      <trkpt lat="40.438060" lon="-6.035670">
        <ele>536.017</ele>
        <time>2020-02-29T16:09:13Z</time>
      </trkpt>
      <trkpt lat="40.438060" lon="-6.035680">
        <ele>536.208</ele>
        <time>2020-02-29T16:09:33Z</time>
      </trkpt>
      <trkpt lat="40.438390" lon="-6.036110">
        <ele>538.529</ele>
        <time>2020-02-29T16:09:53Z</time>
      </trkpt>
      <trkpt lat="40.438780" lon="-6.036760">
        <ele>543.682</ele>
        <time>2020-02-29T16:10:13Z</time>
      </trkpt>
      <trkpt lat="40.439160" lon="-6.037520">
        <ele>551.157</ele>
        <time>2020-02-29T16:10:33Z</time>
      </trkpt>
      <trkpt lat="40.439230" lon="-6.037630">
        <ele>551.018</ele>
        <time>2020-02-29T16:10:53Z</time>
      </trkpt>
      <trkpt lat="40.439240" lon="-6.037630">
        <ele>551.031</ele>
        <time>2020-02-29T16:11:13Z</time>
      </trkpt>
      <trkpt lat="40.439360" lon="-6.037760">
        <ele>551.610</ele>
        <time>2020-02-29T16:11:33Z</time>
      </trkpt>
      <trkpt lat="40.439440" lon="-6.037800">
        <ele>552.061</ele>
        <time>2020-02-29T16:11:53Z</time>
      </trkpt>
      <trkpt lat="40.439500" lon="-6.037820">
        <ele>552.628</ele>
        <time>2020-02-29T16:12:13Z</time>
      </trkpt>
      <trkpt lat="40.439570" lon="-6.037820">
        <ele>553.413</ele>
        <time>2020-02-29T16:12:33Z</time>
      </trkpt>
      <trkpt lat="40.439650" lon="-6.037810">
        <ele>554.343</ele>
        <time>2020-02-29T16:12:53Z</time>
      </trkpt>
      <trkpt lat="40.439780" lon="-6.037760">
        <ele>555.107</ele>
        <time>2020-02-29T16:13:13Z</time>
      </trkpt>
      <trkpt lat="40.439920" lon="-6.037660">
        <ele>554.608</ele>
        <time>2020-02-29T16:13:33Z</time>
      </trkpt>
      <trkpt lat="40.440550" lon="-6.037010">
        <ele>555.295</ele>
        <time>2020-02-29T16:13:53Z</time>
      </trkpt>
      <trkpt lat="40.440610" lon="-6.036930">
        <ele>555.648</ele>
        <time>2020-02-29T16:14:13Z</time>
      </trkpt>
      <trkpt lat="40.440670" lon="-6.036820">
        <ele>556.573</ele>
        <time>2020-02-29T16:14:33Z</time>
      </trkpt>
      <trkpt lat="40.440760" lon="-6.036600">
        <ele>558.494</ele>
        <time>2020-02-29T16:14:53Z</time>
      </trkpt>
      <trkpt lat="40.440830" lon="-6.036340">
        <ele>562.577</ele>
        <time>2020-02-29T16:15:13Z</time>
      </trkpt>
      <trkpt lat="40.440880" lon="-6.036200">
        <ele>564.696</ele>
        <time>2020-02-29T16:15:33Z</time>
      </trkpt>
      <trkpt lat="40.440910" lon="-6.036050">
        <ele>566.417</ele>
        <time>2020-02-29T16:15:53Z</time>
      </trkpt>
      <trkpt lat="40.440950" lon="-6.035930">
        <ele>567.964</ele>
        <time>2020-02-29T16:16:13Z</time>
      </trkpt>
      <trkpt lat="40.441110" lon="-6.035650">
        <ele>569.341</ele>
        <time>2020-02-29T16:16:33Z</time>
      </trkpt>
      <trkpt lat="40.441220" lon="-6.035530">
        <ele>569.581</ele>
        <time>2020-02-29T16:16:53Z</time>
      </trkpt>
      <trkpt lat="40.441420" lon="-6.035440">
        <ele>570.209</ele>
        <time>2020-02-29T16:17:13Z</time>
      </trkpt>
      <trkpt lat="40.441490" lon="-6.035420">
        <ele>570.208</ele>
        <time>2020-02-29T16:17:33Z</time>
      </trkpt>
      <trkpt lat="40.441580" lon="-6.035380">
        <ele>570.028</ele>
        <time>2020-02-29T16:17:53Z</time>
      </trkpt>
      <trkpt lat="40.442250" lon="-6.035180">
        <ele>574.571</ele>
        <time>2020-02-29T16:18:13Z</time>
      </trkpt>
      <trkpt lat="40.442530" lon="-6.035070">
        <ele>577.886</ele>
        <time>2020-02-29T16:18:33Z</time>
      </trkpt>
      <trkpt lat="40.442730" lon="-6.034960">
        <ele>579.797</ele>
        <time>2020-02-29T16:18:53Z</time>
      </trkpt>
      <trkpt lat="40.443640" lon="-6.034340">
        <ele>589.150</ele>
        <time>2020-02-29T16:19:13Z</time>
      </trkpt>
      <trkpt lat="40.444340" lon="-6.033780">
        <ele>597.729</ele>
        <time>2020-02-29T16:19:33Z</time>
      </trkpt>
      <trkpt lat="40.444590" lon="-6.033470">
        <ele>600.840</ele>
        <time>2020-02-29T16:19:53Z</time>
      </trkpt>
      <trkpt lat="40.444950" lon="-6.032680">
        <ele>602.977</ele>
        <time>2020-02-29T16:20:13Z</time>
      </trkpt>
      <trkpt lat="40.445110" lon="-6.032400">
        <ele>605.742</ele>
        <time>2020-02-29T16:20:33Z</time>
      </trkpt>
      <trkpt lat="40.445270" lon="-6.032230">
        <ele>607.022</ele>
        <time>2020-02-29T16:20:53Z</time>
      </trkpt>
      <trkpt lat="40.445480" lon="-6.032060">
        <ele>607.014</ele>
        <time>2020-02-29T16:21:13Z</time>
      </trkpt>
      <trkpt lat="40.445610" lon="-6.032000">
        <ele>606.608</ele>
        <time>2020-02-29T16:21:33Z</time>
      </trkpt>
      <trkpt lat="40.446000" lon="-6.031860">
        <ele>605.838</ele>
        <time>2020-02-29T16:21:53Z</time>
      </trkpt>
      <trkpt lat="40.446250" lon="-6.031800">
        <ele>605.611</ele>
        <time>2020-02-29T16:22:13Z</time>
      </trkpt>
      <trkpt lat="40.446430" lon="-6.031780">
        <ele>605.436</ele>
        <time>2020-02-29T16:22:33Z</time>
      </trkpt>
      <trkpt lat="40.446640" lon="-6.031810">
        <ele>606.177</ele>
        <time>2020-02-29T16:22:53Z</time>
      </trkpt>
      <trkpt lat="40.446940" lon="-6.031910">
        <ele>603.270</ele>
        <time>2020-02-29T16:23:13Z</time>
      </trkpt>
      <trkpt lat="40.447150" lon="-6.032050">
        <ele>601.459</ele>
        <time>2020-02-29T16:23:33Z</time>
      </trkpt>
      <trkpt lat="40.447360" lon="-6.032220">
        <ele>599.040</ele>
        <time>2020-02-29T16:23:53Z</time>
      </trkpt>
      <trkpt lat="40.447650" lon="-6.032540">
        <ele>601.597</ele>
        <time>2020-02-29T16:24:13Z</time>
      </trkpt>
      <trkpt lat="40.447870" lon="-6.032720">
        <ele>602.293</ele>
        <time>2020-02-29T16:24:33Z</time>
      </trkpt>
      <trkpt lat="40.448020" lon="-6.032810">
        <ele>601.665</ele>
        <time>2020-02-29T16:24:53Z</time>
      </trkpt>
      <trkpt lat="40.448220" lon="-6.032860">
        <ele>601.221</ele>
        <time>2020-02-29T16:25:13Z</time>
      </trkpt>
      <trkpt lat="40.448410" lon="-6.032840">
        <ele>599.208</ele>
        <time>2020-02-29T16:25:33Z</time>
      </trkpt>
      <trkpt lat="40.448600" lon="-6.032860">
        <ele>598.113</ele>
        <time>2020-02-29T16:25:53Z</time>
      </trkpt>
      <trkpt lat="40.448680" lon="-6.032880">
        <ele>597.876</ele>
        <time>2020-02-29T16:26:13Z</time>
      </trkpt>
      <trkpt lat="40.448720" lon="-6.032880">
        <ele>597.281</ele>
        <time>2020-02-29T16:26:33Z</time>
      </trkpt>
      <trkpt lat="40.448780" lon="-6.032900">
        <ele>597.072</ele>
        <time>2020-02-29T16:26:53Z</time>
      </trkpt>
      <trkpt lat="40.448840" lon="-6.032910">
        <ele>596.545</ele>
        <time>2020-02-29T16:27:13Z</time>
      </trkpt>
      <trkpt lat="40.448910" lon="-6.032940">
        <ele>596.374</ele>
        <time>2020-02-29T16:27:33Z</time>
      </trkpt>
      <trkpt lat="40.448930" lon="-6.032960">
        <ele>596.575</ele>
        <time>2020-02-29T16:27:53Z</time>
      </trkpt>
      <trkpt lat="40.449000" lon="-6.033000">
        <ele>596.412</ele>
        <time>2020-02-29T16:28:13Z</time>
      </trkpt>
      <trkpt lat="40.449050" lon="-6.033040">
        <ele>596.752</ele>
        <time>2020-02-29T16:28:33Z</time>
      </trkpt>
      <trkpt lat="40.449100" lon="-6.033070">
        <ele>596.753</ele>
        <time>2020-02-29T16:28:53Z</time>
      </trkpt>
      <trkpt lat="40.449200" lon="-6.033170">
        <ele>598.008</ele>
        <time>2020-02-29T16:29:13Z</time>
      </trkpt>
      <trkpt lat="40.449280" lon="-6.033270">
        <ele>599.008</ele>
        <time>2020-02-29T16:29:33Z</time>
      </trkpt>
      <trkpt lat="40.449440" lon="-6.033580">
        <ele>602.319</ele>
        <time>2020-02-29T16:29:53Z</time>
      </trkpt>
      <trkpt lat="40.449480" lon="-6.033640">
        <ele>601.852</ele>
        <time>2020-02-29T16:30:13Z</time>
      </trkpt>
      <trkpt lat="40.449510" lon="-6.033710">
        <ele>601.427</ele>
        <time>2020-02-29T16:30:33Z</time>
      </trkpt>
      <trkpt lat="40.449560" lon="-6.033780">
        <ele>600.368</ele>
        <time>2020-02-29T16:30:53Z</time>
      </trkpt>
      <trkpt lat="40.449820" lon="-6.034380">
        <ele>598.161</ele>
        <time>2020-02-29T16:31:13Z</time>
      </trkpt>
      <trkpt lat="40.449830" lon="-6.034420">
        <ele>598.090</ele>
        <time>2020-02-29T16:31:33Z</time>
      </trkpt>
      <trkpt lat="40.450280" lon="-6.035460">
        <ele>595.541</ele>
        <time>2020-02-29T16:31:53Z</time>
      </trkpt>
      <trkpt lat="40.450310" lon="-6.035640">
        <ele>595.718</ele>
        <time>2020-02-29T16:32:13Z</time>
      </trkpt>
      <trkpt lat="40.450310" lon="-6.035910">
        <ele>594.672</ele>
        <time>2020-02-29T16:32:33Z</time>
      </trkpt>
      <trkpt lat="40.450100" lon="-6.036950">
        <ele>589.213</ele>
        <time>2020-02-29T16:32:53Z</time>
      </trkpt>
      <trkpt lat="40.450010" lon="-6.037280">
        <ele>588.214</ele>
        <time>2020-02-29T16:33:13Z</time>
      </trkpt>
      <trkpt lat="40.450010" lon="-6.037300">
        <ele>588.008</ele>
        <time>2020-02-29T16:33:33Z</time>
      </trkpt>
      <trkpt lat="40.449960" lon="-6.037510">
        <ele>587.311</ele>
        <time>2020-02-29T16:33:53Z</time>
      </trkpt>
      <trkpt lat="40.449950" lon="-6.037530">
        <ele>587.524</ele>
        <time>2020-02-29T16:34:13Z</time>
      </trkpt>
      <trkpt lat="40.449880" lon="-6.038000">
        <ele>587.849</ele>
        <time>2020-02-29T16:34:33Z</time>
      </trkpt>
      <trkpt lat="40.449880" lon="-6.038100">
        <ele>587.550</ele>
        <time>2020-02-29T16:34:53Z</time>
      </trkpt>
      <trkpt lat="40.449900" lon="-6.038250">
        <ele>587.113</ele>
        <time>2020-02-29T16:35:13Z</time>
      </trkpt>
      <trkpt lat="40.449960" lon="-6.038380">
        <ele>586.652</ele>
        <time>2020-02-29T16:35:33Z</time>
      </trkpt>
      <trkpt lat="40.450060" lon="-6.038500">
        <ele>587.843</ele>
        <time>2020-02-29T16:35:53Z</time>
      </trkpt>
      <trkpt lat="40.450190" lon="-6.038590">
        <ele>589.590</ele>
        <time>2020-02-29T16:36:13Z</time>
      </trkpt>
      <trkpt lat="40.450290" lon="-6.038620">
        <ele>590.231</ele>
        <time>2020-02-29T16:36:33Z</time>
      </trkpt>
      <trkpt lat="40.450440" lon="-6.038630">
        <ele>590.061</ele>
        <time>2020-02-29T16:36:53Z</time>
      </trkpt>
      <trkpt lat="40.451090" lon="-6.038560">
        <ele>587.207</ele>
        <time>2020-02-29T16:37:13Z</time>
      </trkpt>
      <trkpt lat="40.451220" lon="-6.038530">
        <ele>586.908</ele>
        <time>2020-02-29T16:37:33Z</time>
      </trkpt>
      <trkpt lat="40.451420" lon="-6.038410">
        <ele>584.467</ele>
        <time>2020-02-29T16:37:53Z</time>
      </trkpt>
      <trkpt lat="40.451590" lon="-6.038220">
        <ele>582.760</ele>
        <time>2020-02-29T16:38:13Z</time>
      </trkpt>
      <trkpt lat="40.452030" lon="-6.037630">
        <ele>578.125</ele>
        <time>2020-02-29T16:38:33Z</time>
      </trkpt>
      <trkpt lat="40.452190" lon="-6.037510">
        <ele>576.056</ele>
        <time>2020-02-29T16:38:53Z</time>
      </trkpt>
      <trkpt lat="40.452320" lon="-6.037460">
        <ele>576.689</ele>
        <time>2020-02-29T16:39:13Z</time>
      </trkpt>
      <trkpt lat="40.452480" lon="-6.037480">
        <ele>579.368</ele>
        <time>2020-02-29T16:39:33Z</time>
      </trkpt>
      <trkpt lat="40.452650" lon="-6.037560">
        <ele>580.599</ele>
        <time>2020-02-29T16:39:53Z</time>
      </trkpt>
      <trkpt lat="40.452770" lon="-6.037670">
        <ele>582.466</ele>
        <time>2020-02-29T16:40:13Z</time>
      </trkpt>
      <trkpt lat="40.452820" lon="-6.037760">
        <ele>583.694</ele>
        <time>2020-02-29T16:40:33Z</time>
      </trkpt>
      <trkpt lat="40.452870" lon="-6.037930">
        <ele>585.257</ele>
        <time>2020-02-29T16:40:53Z</time>
      </trkpt>
      <trkpt lat="40.452870" lon="-6.037960">
        <ele>585.622</ele>
        <time>2020-02-29T16:41:13Z</time>
      </trkpt>
      <trkpt lat="40.453020" lon="-6.038740">
        <ele>585.708</ele>
        <time>2020-02-29T16:41:33Z</time>
      </trkpt>
      <trkpt lat="40.453200" lon="-6.039360">
        <ele>582.593</ele>
        <time>2020-02-29T16:41:53Z</time>
      </trkpt>
      <trkpt lat="40.453200" lon="-6.039370">
        <ele>582.686</ele>
        <time>2020-02-29T16:42:13Z</time>
      </trkpt>
      <trkpt lat="40.453670" lon="-6.040750">
        <ele>580.691</ele>
        <time>2020-02-29T16:42:33Z</time>
      </trkpt>
      <trkpt lat="40.453840" lon="-6.041190">
        <ele>582.412</ele>
        <time>2020-02-29T16:42:53Z</time>
      </trkpt>
      <trkpt lat="40.454000" lon="-6.041370">
        <ele>583.515</ele>
        <time>2020-02-29T16:43:13Z</time>
      </trkpt>
      <trkpt lat="40.454240" lon="-6.041530">
        <ele>584.324</ele>
        <time>2020-02-29T16:43:33Z</time>
      </trkpt>
      <trkpt lat="40.454250" lon="-6.041530">
        <ele>584.165</ele>
        <time>2020-02-29T16:43:53Z</time>
      </trkpt>
      <trkpt lat="40.454740" lon="-6.041810">
        <ele>587.422</ele>
        <time>2020-02-29T16:44:13Z</time>
      </trkpt>
      <trkpt lat="40.455300" lon="-6.042100">
        <ele>583.471</ele>
        <time>2020-02-29T16:44:33Z</time>
      </trkpt>
      <trkpt lat="40.455530" lon="-6.042290">
        <ele>583.341</ele>
        <time>2020-02-29T16:44:53Z</time>
      </trkpt>
      <trkpt lat="40.455600" lon="-6.042370">
        <ele>583.615</ele>
        <time>2020-02-29T16:45:13Z</time>
      </trkpt>
      <trkpt lat="40.455660" lon="-6.042460">
        <ele>584.008</ele>
        <time>2020-02-29T16:45:33Z</time>
      </trkpt>
      <trkpt lat="40.455860" lon="-6.042960">
        <ele>586.881</ele>
        <time>2020-02-29T16:45:53Z</time>
      </trkpt>
      <trkpt lat="40.455950" lon="-6.043240">
        <ele>587.034</ele>
        <time>2020-02-29T16:46:13Z</time>
      </trkpt>
      <trkpt lat="40.456040" lon="-6.043460">
        <ele>587.229</ele>
        <time>2020-02-29T16:46:33Z</time>
      </trkpt>
      <trkpt lat="40.456210" lon="-6.043700">
        <ele>586.990</ele>
        <time>2020-02-29T16:46:53Z</time>
      </trkpt>
      <trkpt lat="40.456380" lon="-6.043840">
        <ele>586.653</ele>
        <time>2020-02-29T16:47:13Z</time>
      </trkpt>
      <trkpt lat="40.456540" lon="-6.043940">
        <ele>586.372</ele>
        <time>2020-02-29T16:47:33Z</time>
      </trkpt>
      <trkpt lat="40.456540" lon="-6.043950">
        <ele>586.383</ele>
        <time>2020-02-29T16:47:53Z</time>
      </trkpt>
      <trkpt lat="40.456930" lon="-6.044120">
        <ele>587.170</ele>
        <time>2020-02-29T16:48:13Z</time>
      </trkpt>
      <trkpt lat="40.457140" lon="-6.044280">
        <ele>588.358</ele>
        <time>2020-02-29T16:48:33Z</time>
      </trkpt>
      <trkpt lat="40.457340" lon="-6.044470">
        <ele>589.852</ele>
        <time>2020-02-29T16:48:53Z</time>
      </trkpt>
      <trkpt lat="40.457770" lon="-6.045060">
        <ele>592.917</ele>
        <time>2020-02-29T16:49:13Z</time>
      </trkpt>
      <trkpt lat="40.458090" lon="-6.045330">
        <ele>595.908</ele>
        <time>2020-02-29T16:49:33Z</time>
      </trkpt>
      <trkpt lat="40.458420" lon="-6.045460">
        <ele>595.679</ele>
        <time>2020-02-29T16:49:53Z</time>
      </trkpt>
      <trkpt lat="40.458690" lon="-6.045460">
        <ele>593.562</ele>
        <time>2020-02-29T16:50:13Z</time>
      </trkpt>
      <trkpt lat="40.458870" lon="-6.045430">
        <ele>592.657</ele>
        <time>2020-02-29T16:50:33Z</time>
      </trkpt>
      <trkpt lat="40.459600" lon="-6.045220">
        <ele>592.958</ele>
        <time>2020-02-29T16:50:53Z</time>
      </trkpt>
      <trkpt lat="40.460170" lon="-6.044980">
        <ele>594.721</ele>
        <time>2020-02-29T16:51:13Z</time>
      </trkpt>
      <trkpt lat="40.460790" lon="-6.044600">
        <ele>596.530</ele>
        <time>2020-02-29T16:51:33Z</time>
      </trkpt>
      <trkpt lat="40.460860" lon="-6.044570">
        <ele>596.521</ele>
        <time>2020-02-29T16:51:53Z</time>
      </trkpt>
      <trkpt lat="40.460970" lon="-6.044490">
        <ele>596.778</ele>
        <time>2020-02-29T16:52:13Z</time>
      </trkpt>
      <trkpt lat="40.462310" lon="-6.043650">
        <ele>596.421</ele>
        <time>2020-02-29T16:52:33Z</time>
      </trkpt>
      <trkpt lat="40.462380" lon="-6.043630">
        <ele>596.341</ele>
        <time>2020-02-29T16:52:53Z</time>
      </trkpt>
      <trkpt lat="40.462500" lon="-6.043580">
        <ele>596.105</ele>
        <time>2020-02-29T16:53:13Z</time>
      </trkpt>
      <trkpt lat="40.462600" lon="-6.043560">
        <ele>596.208</ele>
        <time>2020-02-29T16:53:33Z</time>
      </trkpt>
      <trkpt lat="40.462730" lon="-6.043550">
        <ele>596.236</ele>
        <time>2020-02-29T16:53:53Z</time>
      </trkpt>
      <trkpt lat="40.462900" lon="-6.043570">
        <ele>596.539</ele>
        <time>2020-02-29T16:54:13Z</time>
      </trkpt>
      <trkpt lat="40.462910" lon="-6.043580">
        <ele>596.594</ele>
        <time>2020-02-29T16:54:33Z</time>
      </trkpt>
      <trkpt lat="40.463620" lon="-6.043760">
        <ele>603.515</ele>
        <time>2020-02-29T16:54:53Z</time>
      </trkpt>
      <trkpt lat="40.463810" lon="-6.043770">
        <ele>605.318</ele>
        <time>2020-02-29T16:55:13Z</time>
      </trkpt>
      <trkpt lat="40.463970" lon="-6.043740">
        <ele>606.247</ele>
        <time>2020-02-29T16:55:33Z</time>
      </trkpt>
      <trkpt lat="40.464130" lon="-6.043690">
        <ele>606.648</ele>
        <time>2020-02-29T16:55:53Z</time>
      </trkpt>
      <trkpt lat="40.464150" lon="-6.043670">
        <ele>606.715</ele>
        <time>2020-02-29T16:56:13Z</time>
      </trkpt>
      <trkpt lat="40.464390" lon="-6.043570">
        <ele>607.414</ele>
        <time>2020-02-29T16:56:33Z</time>
      </trkpt>
      <trkpt lat="40.464770" lon="-6.043380">
        <ele>610.554</ele>
        <time>2020-02-29T16:56:53Z</time>
      </trkpt>
      <trkpt lat="40.465090" lon="-6.043140">
        <ele>612.509</ele>
        <time>2020-02-29T16:57:13Z</time>
      </trkpt>
      <trkpt lat="40.467140" lon="-6.041170">
        <ele>615.908</ele>
        <time>2020-02-29T16:57:33Z</time>
      </trkpt>
      <trkpt lat="40.467260" lon="-6.041340">
        <ele>615.075</ele>
        <time>2020-02-29T16:57:53Z</time>
      </trkpt>
      <trkpt lat="40.467330" lon="-6.041520">
        <ele>614.118</ele>
        <time>2020-02-29T16:58:13Z</time>
      </trkpt>
      <trkpt lat="40.467370" lon="-6.041740">
        <ele>613.373</ele>
        <time>2020-02-29T16:58:33Z</time>
      </trkpt>
      <trkpt lat="40.467370" lon="-6.041890">
        <ele>613.184</ele>
        <time>2020-02-29T16:58:53Z</time>
      </trkpt>
      <trkpt lat="40.467320" lon="-6.042180">
        <ele>612.227</ele>
        <time>2020-02-29T16:59:13Z</time>
      </trkpt>
      <trkpt lat="40.467130" lon="-6.042870">
        <ele>612.116</ele>
        <time>2020-02-29T16:59:33Z</time>
      </trkpt>
      <trkpt lat="40.466940" lon="-6.043400">
        <ele>613.717</ele>
        <time>2020-02-29T16:59:53Z</time>
      </trkpt>
      <trkpt lat="40.466650" lon="-6.044000">
        <ele>610.664</ele>
        <time>2020-02-29T17:00:13Z</time>
      </trkpt>
      <trkpt lat="40.466420" lon="-6.044330">
        <ele>608.888</ele>
        <time>2020-02-29T17:00:33Z</time>
      </trkpt>
      <trkpt lat="40.466210" lon="-6.044540">
        <ele>607.524</ele>
        <time>2020-02-29T17:00:53Z</time>
      </trkpt>
      <trkpt lat="40.465900" lon="-6.044890">
        <ele>605.626</ele>
        <time>2020-02-29T17:01:13Z</time>
      </trkpt>
      <trkpt lat="40.465850" lon="-6.044970">
        <ele>605.208</ele>
        <time>2020-02-29T17:01:33Z</time>
      </trkpt>
      <trkpt lat="40.465820" lon="-6.045060">
        <ele>604.652</ele>
        <time>2020-02-29T17:01:53Z</time>
      </trkpt>
      <trkpt lat="40.465820" lon="-6.045100">
        <ele>604.345</ele>
        <time>2020-02-29T17:02:13Z</time>
      </trkpt>
      <trkpt lat="40.465810" lon="-6.045120">
        <ele>604.290</ele>
        <time>2020-02-29T17:02:33Z</time>
      </trkpt>
      <trkpt lat="40.465820" lon="-6.045330">
        <ele>603.041</ele>
        <time>2020-02-29T17:02:53Z</time>
      </trkpt>
      <trkpt lat="40.465870" lon="-6.045560">
        <ele>603.114</ele>
        <time>2020-02-29T17:03:13Z</time>
      </trkpt>
      <trkpt lat="40.465870" lon="-6.045670">
        <ele>603.613</ele>
        <time>2020-02-29T17:03:33Z</time>
      </trkpt>
      <trkpt lat="40.465880" lon="-6.045750">
        <ele>604.074</ele>
        <time>2020-02-29T17:03:53Z</time>
      </trkpt>
      <trkpt lat="40.465880" lon="-6.045850">
        <ele>604.541</ele>
        <time>2020-02-29T17:04:13Z</time>
      </trkpt>
      <trkpt lat="40.465860" lon="-6.045970">
        <ele>605.244</ele>
        <time>2020-02-29T17:04:33Z</time>
      </trkpt>
      <trkpt lat="40.465810" lon="-6.046100">
        <ele>605.705</ele>
        <time>2020-02-29T17:04:53Z</time>
      </trkpt>
      <trkpt lat="40.465730" lon="-6.046440">
        <ele>608.415</ele>
        <time>2020-02-29T17:05:13Z</time>
      </trkpt>
      <trkpt lat="40.465690" lon="-6.046700">
        <ele>610.508</ele>
        <time>2020-02-29T17:05:33Z</time>
      </trkpt>
      <trkpt lat="40.465680" lon="-6.046720">
        <ele>610.518</ele>
        <time>2020-02-29T17:05:53Z</time>
      </trkpt>
      <trkpt lat="40.465660" lon="-6.047010">
        <ele>611.081</ele>
        <time>2020-02-29T17:06:13Z</time>
      </trkpt>
      <trkpt lat="40.465650" lon="-6.047990">
        <ele>612.456</ele>
        <time>2020-02-29T17:06:33Z</time>
      </trkpt>
      <trkpt lat="40.465600" lon="-6.048340">
        <ele>610.997</ele>
        <time>2020-02-29T17:06:53Z</time>
      </trkpt>
      <trkpt lat="40.465590" lon="-6.048350">
        <ele>610.870</ele>
        <time>2020-02-29T17:07:13Z</time>
      </trkpt>
      <trkpt lat="40.465550" lon="-6.048480">
        <ele>611.629</ele>
        <time>2020-02-29T17:07:33Z</time>
      </trkpt>
      <trkpt lat="40.465430" lon="-6.048760">
        <ele>613.910</ele>
        <time>2020-02-29T17:07:53Z</time>
      </trkpt>
      <trkpt lat="40.465350" lon="-6.048900">
        <ele>614.657</ele>
        <time>2020-02-29T17:08:13Z</time>
      </trkpt>
      <trkpt lat="40.465260" lon="-6.049130">
        <ele>614.799</ele>
        <time>2020-02-29T17:08:33Z</time>
      </trkpt>
      <trkpt lat="40.465200" lon="-6.049350">
        <ele>614.507</ele>
        <time>2020-02-29T17:08:53Z</time>
      </trkpt>
      <trkpt lat="40.465080" lon="-6.050090">
        <ele>613.027</ele>
        <time>2020-02-29T17:09:13Z</time>
      </trkpt>
      <trkpt lat="40.465080" lon="-6.050460">
        <ele>610.608</ele>
        <time>2020-02-29T17:09:33Z</time>
      </trkpt>
      <trkpt lat="40.465110" lon="-6.050950">
        <ele>610.343</ele>
        <time>2020-02-29T17:09:53Z</time>
      </trkpt>
      <trkpt lat="40.465100" lon="-6.051290">
        <ele>610.276</ele>
        <time>2020-02-29T17:10:13Z</time>
      </trkpt>
      <trkpt lat="40.465030" lon="-6.051580">
        <ele>611.561</ele>
        <time>2020-02-29T17:10:33Z</time>
      </trkpt>
      <trkpt lat="40.464940" lon="-6.051750">
        <ele>613.112</ele>
        <time>2020-02-29T17:10:53Z</time>
      </trkpt>
      <trkpt lat="40.464800" lon="-6.052130">
        <ele>617.865</ele>
        <time>2020-02-29T17:11:13Z</time>
      </trkpt>
      <trkpt lat="40.464700" lon="-6.052620">
        <ele>621.084</ele>
        <time>2020-02-29T17:11:33Z</time>
      </trkpt>
      <trkpt lat="40.464310" lon="-6.055170">
        <ele>621.395</ele>
        <time>2020-02-29T17:11:53Z</time>
      </trkpt>
      <trkpt lat="40.464310" lon="-6.055200">
        <ele>621.882</ele>
        <time>2020-02-29T17:12:13Z</time>
      </trkpt>
      <trkpt lat="40.464150" lon="-6.056070">
        <ele>629.389</ele>
        <time>2020-02-29T17:12:33Z</time>
      </trkpt>
      <trkpt lat="40.464070" lon="-6.056770">
        <ele>634.506</ele>
        <time>2020-02-29T17:12:53Z</time>
      </trkpt>
      <trkpt lat="40.464020" lon="-6.056960">
        <ele>634.426</ele>
        <time>2020-02-29T17:13:13Z</time>
      </trkpt>
      <trkpt lat="40.463800" lon="-6.057440">
        <ele>634.608</ele>
        <time>2020-02-29T17:13:33Z</time>
      </trkpt>
      <trkpt lat="40.463780" lon="-6.057590">
        <ele>635.362</ele>
        <time>2020-02-29T17:13:53Z</time>
      </trkpt>
      <trkpt lat="40.463780" lon="-6.057760">
        <ele>636.355</ele>
        <time>2020-02-29T17:14:13Z</time>
      </trkpt>
      <trkpt lat="40.463800" lon="-6.057890">
        <ele>637.470</ele>
        <time>2020-02-29T17:14:33Z</time>
      </trkpt>
      <trkpt lat="40.464340" lon="-6.059840">
        <ele>655.651</ele>
        <time>2020-02-29T17:14:53Z</time>
      </trkpt>
      <trkpt lat="40.464440" lon="-6.061250">
        <ele>666.444</ele>
        <time>2020-02-29T17:15:13Z</time>
      </trkpt>
      <trkpt lat="40.464430" lon="-6.061350">
        <ele>666.723</ele>
        <time>2020-02-29T17:15:33Z</time>
      </trkpt>
      <trkpt lat="40.464420" lon="-6.061380">
        <ele>666.774</ele>
        <time>2020-02-29T17:15:53Z</time>
      </trkpt>
      <trkpt lat="40.464420" lon="-6.061390">
        <ele>666.881</ele>
        <time>2020-02-29T17:16:13Z</time>
      </trkpt>
      <trkpt lat="40.464410" lon="-6.061420">
        <ele>667.361</ele>
        <time>2020-02-29T17:16:33Z</time>
      </trkpt>
      <trkpt lat="40.464370" lon="-6.061480">
        <ele>668.121</ele>
        <time>2020-02-29T17:16:53Z</time>
      </trkpt>
      <trkpt lat="40.464050" lon="-6.061620">
        <ele>666.113</ele>
        <time>2020-02-29T17:17:13Z</time>
      </trkpt>
      <trkpt lat="40.463920" lon="-6.061700">
        <ele>665.208</ele>
        <time>2020-02-29T17:17:33Z</time>
      </trkpt>
      <trkpt lat="40.463870" lon="-6.061760">
        <ele>665.530</ele>
        <time>2020-02-29T17:17:53Z</time>
      </trkpt>
      <trkpt lat="40.463820" lon="-6.061850">
        <ele>666.673</ele>
        <time>2020-02-29T17:18:13Z</time>
      </trkpt>
      <trkpt lat="40.463820" lon="-6.061860">
        <ele>666.798</ele>
        <time>2020-02-29T17:18:33Z</time>
      </trkpt>
      <trkpt lat="40.463790" lon="-6.061900">
        <ele>667.119</ele>
        <time>2020-02-29T17:18:53Z</time>
      </trkpt>
      <trkpt lat="40.463780" lon="-6.061920">
        <ele>667.412</ele>
        <time>2020-02-29T17:19:13Z</time>
      </trkpt>
      <trkpt lat="40.463750" lon="-6.062020">
        <ele>668.611</ele>
        <time>2020-02-29T17:19:33Z</time>
      </trkpt>
      <trkpt lat="40.463750" lon="-6.062100">
        <ele>669.742</ele>
        <time>2020-02-29T17:19:53Z</time>
      </trkpt>
      <trkpt lat="40.463740" lon="-6.062170">
        <ele>670.619</ele>
        <time>2020-02-29T17:20:13Z</time>
      </trkpt>
      <trkpt lat="40.463740" lon="-6.062210">
        <ele>671.278</ele>
        <time>2020-02-29T17:20:33Z</time>
      </trkpt>
      <trkpt lat="40.463720" lon="-6.062290">
        <ele>671.733</ele>
        <time>2020-02-29T17:20:53Z</time>
      </trkpt>
      <trkpt lat="40.463710" lon="-6.062300">
        <ele>671.626</ele>
        <time>2020-02-29T17:21:13Z</time>
      </trkpt>
      <trkpt lat="40.463660" lon="-6.062390">
        <ele>671.708</ele>
        <time>2020-02-29T17:21:33Z</time>
      </trkpt>
      <trkpt lat="40.463640" lon="-6.062410">
        <ele>671.741</ele>
        <time>2020-02-29T17:21:53Z</time>
      </trkpt>
      <trkpt lat="40.463590" lon="-6.062430">
        <ele>671.944</ele>
        <time>2020-02-29T17:22:13Z</time>
      </trkpt>
      <trkpt lat="40.463510" lon="-6.062450">
        <ele>673.419</ele>
        <time>2020-02-29T17:22:33Z</time>
      </trkpt>
      <trkpt lat="40.463470" lon="-6.062480">
        <ele>674.450</ele>
        <time>2020-02-29T17:22:53Z</time>
      </trkpt>
      <trkpt lat="40.463440" lon="-6.062520">
        <ele>675.213</ele>
        <time>2020-02-29T17:23:13Z</time>
      </trkpt>
      <trkpt lat="40.463430" lon="-6.062560">
        <ele>675.662</ele>
        <time>2020-02-29T17:23:33Z</time>
      </trkpt>
      <trkpt lat="40.463430" lon="-6.062710">
        <ele>676.393</ele>
        <time>2020-02-29T17:23:53Z</time>
      </trkpt>
      <trkpt lat="40.463450" lon="-6.062890">
        <ele>678.290</ele>
        <time>2020-02-29T17:24:13Z</time>
      </trkpt>
      <trkpt lat="40.463500" lon="-6.063110">
        <ele>681.495</ele>
        <time>2020-02-29T17:24:33Z</time>
      </trkpt>
      <trkpt lat="40.463510" lon="-6.063190">
        <ele>682.949</ele>
        <time>2020-02-29T17:24:53Z</time>
      </trkpt>
      <trkpt lat="40.463500" lon="-6.063370">
        <ele>686.323</ele>
        <time>2020-02-29T17:25:13Z</time>
      </trkpt>
      <trkpt lat="40.463450" lon="-6.063670">
        <ele>691.408</ele>
        <time>2020-02-29T17:25:33Z</time>
      </trkpt>
      <trkpt lat="40.463450" lon="-6.063710">
        <ele>692.123</ele>
        <time>2020-02-29T17:25:53Z</time>
      </trkpt>
      <trkpt lat="40.463460" lon="-6.063730">
        <ele>692.636</ele>
        <time>2020-02-29T17:26:13Z</time>
      </trkpt>
      <trkpt lat="40.463460" lon="-6.063740">
        <ele>692.731</ele>
        <time>2020-02-29T17:26:33Z</time>
      </trkpt>
      <trkpt lat="40.463470" lon="-6.063740">
        <ele>692.892</ele>
        <time>2020-02-29T17:26:53Z</time>
      </trkpt>
      <trkpt lat="40.463470" lon="-6.063750">
        <ele>693.025</ele>
        <time>2020-02-29T17:27:13Z</time>
      </trkpt>
      <trkpt lat="40.463480" lon="-6.063750">
        <ele>693.114</ele>
        <time>2020-02-29T17:27:33Z</time>
      </trkpt>
      <trkpt lat="40.463490" lon="-6.063760">
        <ele>693.385</ele>
        <time>2020-02-29T17:27:53Z</time>
      </trkpt>
      <trkpt lat="40.463550" lon="-6.063760">
        <ele>693.812</ele>
        <time>2020-02-29T17:28:13Z</time>
      </trkpt>
      <trkpt lat="40.463650" lon="-6.063700">
        <ele>693.576</ele>
        <time>2020-02-29T17:28:33Z</time>
      </trkpt>
      <trkpt lat="40.463730" lon="-6.063640">
        <ele>693.490</ele>
        <time>2020-02-29T17:28:53Z</time>
      </trkpt>
      <trkpt lat="40.463780" lon="-6.063580">
        <ele>692.719</ele>
        <time>2020-02-29T17:29:13Z</time>
      </trkpt>
      <trkpt lat="40.463950" lon="-6.063500">
        <ele>692.408</ele>
        <time>2020-02-29T17:29:33Z</time>
      </trkpt>
      <trkpt lat="40.464040" lon="-6.063470">
        <ele>692.371</ele>
        <time>2020-02-29T17:29:53Z</time>
      </trkpt>
      <trkpt lat="40.464170" lon="-6.063470">
        <ele>693.564</ele>
        <time>2020-02-29T17:30:13Z</time>
      </trkpt>
      <trkpt lat="40.464400" lon="-6.063500">
        <ele>696.819</ele>
        <time>2020-02-29T17:30:33Z</time>
      </trkpt>
      <trkpt lat="40.464650" lon="-6.063500">
        <ele>698.560</ele>
        <time>2020-02-29T17:30:53Z</time>
      </trkpt>
      <trkpt lat="40.464680" lon="-6.063530">
        <ele>699.353</ele>
        <time>2020-02-29T17:31:13Z</time>
      </trkpt>
      <trkpt lat="40.464680" lon="-6.063590">
        <ele>700.472</ele>
        <time>2020-02-29T17:31:33Z</time>
      </trkpt>
      <trkpt lat="40.464640" lon="-6.063670">
        <ele>701.933</ele>
        <time>2020-02-29T17:31:53Z</time>
      </trkpt>
      <trkpt lat="40.464610" lon="-6.063710">
        <ele>702.990</ele>
        <time>2020-02-29T17:32:13Z</time>
      </trkpt>
      <trkpt lat="40.464420" lon="-6.063850">
        <ele>708.318</ele>
        <time>2020-02-29T17:32:33Z</time>
      </trkpt>
      <trkpt lat="40.464300" lon="-6.063900">
        <ele>708.898</ele>
        <time>2020-02-29T17:32:53Z</time>
      </trkpt>
      <trkpt lat="40.464210" lon="-6.063950">
        <ele>709.617</ele>
        <time>2020-02-29T17:33:13Z</time>
      </trkpt>
      <trkpt lat="40.464100" lon="-6.064050">
        <ele>711.008</ele>
        <time>2020-02-29T17:33:33Z</time>
      </trkpt>
      <trkpt lat="40.463920" lon="-6.064290">
        <ele>712.525</ele>
        <time>2020-02-29T17:33:53Z</time>
      </trkpt>
      <trkpt lat="40.463740" lon="-6.064610">
        <ele>716.258</ele>
        <time>2020-02-29T17:34:13Z</time>
      </trkpt>
      <trkpt lat="40.463650" lon="-6.064730">
        <ele>717.213</ele>
        <time>2020-02-29T17:34:33Z</time>
      </trkpt>
      <trkpt lat="40.463500" lon="-6.064890">
        <ele>720.244</ele>
        <time>2020-02-29T17:34:53Z</time>
      </trkpt>
      <trkpt lat="40.463420" lon="-6.064950">
        <ele>722.137</ele>
        <time>2020-02-29T17:35:13Z</time>
      </trkpt>
      <trkpt lat="40.463370" lon="-6.065000">
        <ele>724.126</ele>
        <time>2020-02-29T17:35:33Z</time>
      </trkpt>
      <trkpt lat="40.463360" lon="-6.065020">
        <ele>724.927</ele>
        <time>2020-02-29T17:35:53Z</time>
      </trkpt>
      <trkpt lat="40.463220" lon="-6.065130">
        <ele>727.544</ele>
        <time>2020-02-29T17:36:13Z</time>
      </trkpt>
      <trkpt lat="40.463180" lon="-6.065150">
        <ele>727.732</ele>
        <time>2020-02-29T17:36:33Z</time>
      </trkpt>
      <trkpt lat="40.463130" lon="-6.065190">
        <ele>728.392</ele>
        <time>2020-02-29T17:36:53Z</time>
      </trkpt>
      <trkpt lat="40.463050" lon="-6.065220">
        <ele>728.111</ele>
        <time>2020-02-29T17:37:13Z</time>
      </trkpt>
      <trkpt lat="40.463020" lon="-6.065220">
        <ele>728.008</ele>
        <time>2020-02-29T17:37:33Z</time>
      </trkpt>
      <trkpt lat="40.462940" lon="-6.065170">
        <ele>726.367</ele>
        <time>2020-02-29T17:37:53Z</time>
      </trkpt>
      <trkpt lat="40.462890" lon="-6.065130">
        <ele>724.970</ele>
        <time>2020-02-29T17:38:13Z</time>
      </trkpt>
      <trkpt lat="40.462720" lon="-6.065060">
        <ele>722.955</ele>
        <time>2020-02-29T17:38:33Z</time>
      </trkpt>
      <trkpt lat="40.462340" lon="-6.065030">
        <ele>722.866</ele>
        <time>2020-02-29T17:38:53Z</time>
      </trkpt>
      <trkpt lat="40.462230" lon="-6.065030">
        <ele>722.949</ele>
        <time>2020-02-29T17:39:13Z</time>
      </trkpt>
      <trkpt lat="40.462060" lon="-6.065050">
        <ele>723.358</ele>
        <time>2020-02-29T17:39:33Z</time>
      </trkpt>
      <trkpt lat="40.461910" lon="-6.065110">
        <ele>724.539</ele>
        <time>2020-02-29T17:39:53Z</time>
      </trkpt>
      <trkpt lat="40.461770" lon="-6.065150">
        <ele>724.576</ele>
        <time>2020-02-29T17:40:13Z</time>
      </trkpt>
      <trkpt lat="40.461700" lon="-6.065180">
        <ele>724.563</ele>
        <time>2020-02-29T17:40:33Z</time>
      </trkpt>
      <trkpt lat="40.461650" lon="-6.065190">
        <ele>724.344</ele>
        <time>2020-02-29T17:40:53Z</time>
      </trkpt>
      <trkpt lat="40.461540" lon="-6.065250">
        <ele>724.618</ele>
        <time>2020-02-29T17:41:13Z</time>
      </trkpt>
      <trkpt lat="40.461400" lon="-6.065430">
        <ele>728.508</ele>
        <time>2020-02-29T17:41:33Z</time>
      </trkpt>
      <trkpt lat="40.461400" lon="-6.065440">
        <ele>728.830</ele>
        <time>2020-02-29T17:41:53Z</time>
      </trkpt>
      <trkpt lat="40.461000" lon="-6.066100">
        <ele>741.553</ele>
        <time>2020-02-29T17:42:13Z</time>
      </trkpt>
      <trkpt lat="40.460970" lon="-6.066130">
        <ele>741.918</ele>
        <time>2020-02-29T17:42:33Z</time>
      </trkpt>
      <trkpt lat="40.460920" lon="-6.066160">
        <ele>742.139</ele>
        <time>2020-02-29T17:42:53Z</time>
      </trkpt>
      <trkpt lat="40.460870" lon="-6.066160">
        <ele>741.662</ele>
        <time>2020-02-29T17:43:13Z</time>
      </trkpt>
      <trkpt lat="40.460850" lon="-6.066140">
        <ele>740.921</ele>
        <time>2020-02-29T17:43:33Z</time>
      </trkpt>
      <trkpt lat="40.460820" lon="-6.066120">
        <ele>740.532</ele>
        <time>2020-02-29T17:43:53Z</time>
      </trkpt>
      <trkpt lat="40.460690" lon="-6.065940">
        <ele>740.379</ele>
        <time>2020-02-29T17:44:13Z</time>
      </trkpt>
      <trkpt lat="40.460520" lon="-6.065640">
        <ele>739.759</ele>
        <time>2020-02-29T17:44:33Z</time>
      </trkpt>
      <trkpt lat="40.460370" lon="-6.065300">
        <ele>737.303</ele>
        <time>2020-02-29T17:44:53Z</time>
      </trkpt>
      <trkpt lat="40.460330" lon="-6.065240">
        <ele>737.123</ele>
        <time>2020-02-29T17:45:13Z</time>
      </trkpt>
      <trkpt lat="40.460300" lon="-6.065210">
        <ele>737.008</ele>
        <time>2020-02-29T17:45:33Z</time>
      </trkpt>
      <trkpt lat="40.460230" lon="-6.065170">
        <ele>737.379</ele>
        <time>2020-02-29T17:45:53Z</time>
      </trkpt>
      <trkpt lat="40.460340" lon="-6.065480">
        <ele>740.122</ele>
        <time>2020-02-29T17:46:13Z</time>
      </trkpt>
      <trkpt lat="40.460590" lon="-6.066320">
        <ele>750.547</ele>
        <time>2020-02-29T17:46:33Z</time>
      </trkpt>
      <trkpt lat="40.460740" lon="-6.066740">
        <ele>755.868</ele>
        <time>2020-02-29T17:46:53Z</time>
      </trkpt>
      <trkpt lat="40.460800" lon="-6.066830">
        <ele>755.851</ele>
        <time>2020-02-29T17:47:13Z</time>
      </trkpt>
      <trkpt lat="40.460850" lon="-6.066880">
        <ele>755.790</ele>
        <time>2020-02-29T17:47:33Z</time>
      </trkpt>
      <trkpt lat="40.460990" lon="-6.066920">
        <ele>755.561</ele>
        <time>2020-02-29T17:47:53Z</time>
      </trkpt>
      <trkpt lat="40.461060" lon="-6.066920">
        <ele>755.178</ele>
        <time>2020-02-29T17:48:13Z</time>
      </trkpt>
      <trkpt lat="40.461110" lon="-6.066910">
        <ele>754.698</ele>
        <time>2020-02-29T17:48:33Z</time>
      </trkpt>
      <trkpt lat="40.461220" lon="-6.066850">
        <ele>755.815</ele>
        <time>2020-02-29T17:48:53Z</time>
      </trkpt>
      <trkpt lat="40.461350" lon="-6.066730">
        <ele>756.326</ele>
        <time>2020-02-29T17:49:13Z</time>
      </trkpt>
      <trkpt lat="40.461380" lon="-6.066690">
        <ele>756.208</ele>
        <time>2020-02-29T17:49:33Z</time>
      </trkpt>
      <trkpt lat="40.461430" lon="-6.066570">
        <ele>756.323</ele>
        <time>2020-02-29T17:49:53Z</time>
      </trkpt>
      <trkpt lat="40.461450" lon="-6.066540">
        <ele>756.516</ele>
        <time>2020-02-29T17:50:13Z</time>
      </trkpt>
      <trkpt lat="40.461580" lon="-6.066110">
        <ele>751.141</ele>
        <time>2020-02-29T17:50:33Z</time>
      </trkpt>
      <trkpt lat="40.461580" lon="-6.066100">
        <ele>750.852</ele>
        <time>2020-02-29T17:50:53Z</time>
      </trkpt>
      <trkpt lat="40.461620" lon="-6.065990">
        <ele>748.295</ele>
        <time>2020-02-29T17:51:13Z</time>
      </trkpt>
      <trkpt lat="40.461670" lon="-6.065910">
        <ele>746.574</ele>
        <time>2020-02-29T17:51:33Z</time>
      </trkpt>
      <trkpt lat="40.461770" lon="-6.065780">
        <ele>743.915</ele>
        <time>2020-02-29T17:51:53Z</time>
      </trkpt>
      <trkpt lat="40.461820" lon="-6.065740">
        <ele>743.222</ele>
        <time>2020-02-29T17:52:13Z</time>
      </trkpt>
      <trkpt lat="40.461870" lon="-6.065710">
        <ele>742.944</ele>
        <time>2020-02-29T17:52:33Z</time>
      </trkpt>
      <trkpt lat="40.461970" lon="-6.065680">
        <ele>743.305</ele>
        <time>2020-02-29T17:52:53Z</time>
      </trkpt>
      <trkpt lat="40.462080" lon="-6.065680">
        <ele>745.015</ele>
        <time>2020-02-29T17:53:13Z</time>
      </trkpt>
      <trkpt lat="40.462160" lon="-6.065710">
        <ele>747.708</ele>
        <time>2020-02-29T17:53:33Z</time>
      </trkpt>
      <trkpt lat="40.462180" lon="-6.065710">
        <ele>748.188</ele>
        <time>2020-02-29T17:53:53Z</time>
      </trkpt>
      <trkpt lat="40.462320" lon="-6.065770">
        <ele>751.661</ele>
        <time>2020-02-29T17:54:13Z</time>
      </trkpt>
      <trkpt lat="40.462640" lon="-6.065970">
        <ele>758.456</ele>
        <time>2020-02-29T17:54:33Z</time>
      </trkpt>
      <trkpt lat="40.462660" lon="-6.065990">
        <ele>758.897</ele>
        <time>2020-02-29T17:54:53Z</time>
      </trkpt>
      <trkpt lat="40.462850" lon="-6.066130">
        <ele>759.850</ele>
        <time>2020-02-29T17:55:13Z</time>
      </trkpt>
      <trkpt lat="40.463030" lon="-6.066220">
        <ele>757.599</ele>
        <time>2020-02-29T17:55:33Z</time>
      </trkpt>
      <trkpt lat="40.463180" lon="-6.066280">
        <ele>758.360</ele>
        <time>2020-02-29T17:55:53Z</time>
      </trkpt>
      <trkpt lat="40.463280" lon="-6.066310">
        <ele>759.047</ele>
        <time>2020-02-29T17:56:13Z</time>
      </trkpt>
      <trkpt lat="40.463350" lon="-6.066310">
        <ele>759.468</ele>
        <time>2020-02-29T17:56:33Z</time>
      </trkpt>
      <trkpt lat="40.463410" lon="-6.066300">
        <ele>760.642</ele>
        <time>2020-02-29T17:56:53Z</time>
      </trkpt>
      <trkpt lat="40.463500" lon="-6.066270">
        <ele>761.926</ele>
        <time>2020-02-29T17:57:13Z</time>
      </trkpt>
      <trkpt lat="40.463570" lon="-6.066230">
        <ele>762.508</ele>
        <time>2020-02-29T17:57:33Z</time>
      </trkpt>
      <trkpt lat="40.463630" lon="-6.066170">
        <ele>762.470</ele>
        <time>2020-02-29T17:57:53Z</time>
      </trkpt>
      <trkpt lat="40.463910" lon="-6.065810">
        <ele>761.943</ele>
        <time>2020-02-29T17:58:13Z</time>
      </trkpt>
      <trkpt lat="40.464050" lon="-6.065700">
        <ele>762.218</ele>
        <time>2020-02-29T17:58:33Z</time>
      </trkpt>
      <trkpt lat="40.464160" lon="-6.065630">
        <ele>762.569</ele>
        <time>2020-02-29T17:58:53Z</time>
      </trkpt>
      <trkpt lat="40.464210" lon="-6.065610">
        <ele>763.362</ele>
        <time>2020-02-29T17:59:13Z</time>
      </trkpt>
      <trkpt lat="40.464230" lon="-6.065610">
        <ele>763.951</ele>
        <time>2020-02-29T17:59:33Z</time>
      </trkpt>
      <trkpt lat="40.464260" lon="-6.065600">
        <ele>764.592</ele>
        <time>2020-02-29T17:59:53Z</time>
      </trkpt>
      <trkpt lat="40.464310" lon="-6.065600">
        <ele>766.129</ele>
        <time>2020-02-29T18:00:13Z</time>
      </trkpt>
      <trkpt lat="40.464410" lon="-6.065620">
        <ele>769.852</ele>
        <time>2020-02-29T18:00:33Z</time>
      </trkpt>
      <trkpt lat="40.464460" lon="-6.065640">
        <ele>771.553</ele>
        <time>2020-02-29T18:00:53Z</time>
      </trkpt>
      <trkpt lat="40.464500" lon="-6.065670">
        <ele>772.608</ele>
        <time>2020-02-29T18:01:13Z</time>
      </trkpt>
      <trkpt lat="40.464920" lon="-6.066110">
        <ele>785.108</ele>
        <time>2020-02-29T18:01:33Z</time>
      </trkpt>
      <trkpt lat="40.465060" lon="-6.066220">
        <ele>785.779</ele>
        <time>2020-02-29T18:01:53Z</time>
      </trkpt>
      <trkpt lat="40.465210" lon="-6.066300">
        <ele>785.062</ele>
        <time>2020-02-29T18:02:13Z</time>
      </trkpt>
      <trkpt lat="40.465330" lon="-6.066340">
        <ele>785.177</ele>
        <time>2020-02-29T18:02:33Z</time>
      </trkpt>
      <trkpt lat="40.465380" lon="-6.066340">
        <ele>785.458</ele>
        <time>2020-02-29T18:02:53Z</time>
      </trkpt>
      <trkpt lat="40.465430" lon="-6.066350">
        <ele>786.021</ele>
        <time>2020-02-29T18:03:13Z</time>
      </trkpt>
      <trkpt lat="40.465520" lon="-6.066340">
        <ele>786.260</ele>
        <time>2020-02-29T18:03:33Z</time>
      </trkpt>
      <trkpt lat="40.465610" lon="-6.066320">
        <ele>786.641</ele>
        <time>2020-02-29T18:03:53Z</time>
      </trkpt>
      <trkpt lat="40.465680" lon="-6.066290">
        <ele>786.648</ele>
        <time>2020-02-29T18:04:13Z</time>
      </trkpt>
      <trkpt lat="40.465770" lon="-6.066230">
        <ele>785.947</ele>
        <time>2020-02-29T18:04:33Z</time>
      </trkpt>
      <trkpt lat="40.465910" lon="-6.066070">
        <ele>784.329</ele>
        <time>2020-02-29T18:04:53Z</time>
      </trkpt>
      <trkpt lat="40.466450" lon="-6.065330">
        <ele>794.621</ele>
        <time>2020-02-29T18:05:13Z</time>
      </trkpt>
      <trkpt lat="40.467280" lon="-6.064060">
        <ele>800.408</ele>
        <time>2020-02-29T18:05:33Z</time>
      </trkpt>
      <trkpt lat="40.467390" lon="-6.063830">
        <ele>801.638</ele>
        <time>2020-02-29T18:05:53Z</time>
      </trkpt>
      <trkpt lat="40.467480" lon="-6.063560">
        <ele>803.771</ele>
        <time>2020-02-29T18:06:13Z</time>
      </trkpt>
      <trkpt lat="40.467630" lon="-6.062860">
        <ele>803.766</ele>
        <time>2020-02-29T18:06:33Z</time>
      </trkpt>
      <trkpt lat="40.467760" lon="-6.062430">
        <ele>806.287</ele>
        <time>2020-02-29T18:06:53Z</time>
      </trkpt>
      <trkpt lat="40.467810" lon="-6.062320">
        <ele>807.190</ele>
        <time>2020-02-29T18:07:13Z</time>
      </trkpt>
      <trkpt lat="40.468080" lon="-6.061920">
        <ele>808.429</ele>
        <time>2020-02-29T18:07:33Z</time>
      </trkpt>
      <trkpt lat="40.468850" lon="-6.060890">
        <ele>816.480</ele>
        <time>2020-02-29T18:07:53Z</time>
      </trkpt>
      <trkpt lat="40.469190" lon="-6.060370">
        <ele>821.377</ele>
        <time>2020-02-29T18:08:13Z</time>
      </trkpt>
      <trkpt lat="40.469340" lon="-6.060180">
        <ele>823.328</ele>
        <time>2020-02-29T18:08:33Z</time>
      </trkpt>
      <trkpt lat="40.469520" lon="-6.059990">
        <ele>823.889</ele>
        <time>2020-02-29T18:08:53Z</time>
      </trkpt>
      <trkpt lat="40.469600" lon="-6.059920">
        <ele>822.917</ele>
        <time>2020-02-29T18:09:13Z</time>
      </trkpt>
      <trkpt lat="40.469700" lon="-6.059870">
        <ele>822.908</ele>
        <time>2020-02-29T18:09:33Z</time>
      </trkpt>
      <trkpt lat="40.469770" lon="-6.059850">
        <ele>822.956</ele>
        <time>2020-02-29T18:09:53Z</time>
      </trkpt>
      <trkpt lat="40.469890" lon="-6.059850">
        <ele>823.679</ele>
        <time>2020-02-29T18:10:13Z</time>
      </trkpt>
      <trkpt lat="40.470130" lon="-6.059870">
        <ele>826.654</ele>
        <time>2020-02-29T18:10:33Z</time>
      </trkpt>
      <trkpt lat="40.470390" lon="-6.059920">
        <ele>831.375</ele>
        <time>2020-02-29T18:10:53Z</time>
      </trkpt>
      <trkpt lat="40.470610" lon="-6.059980">
        <ele>834.468</ele>
        <time>2020-02-29T18:11:13Z</time>
      </trkpt>
      <trkpt lat="40.470620" lon="-6.059990">
        <ele>834.647</ele>
        <time>2020-02-29T18:11:33Z</time>
      </trkpt>
      <trkpt lat="40.470820" lon="-6.060050">
        <ele>835.168</ele>
        <time>2020-02-29T18:11:53Z</time>
      </trkpt>
      <trkpt lat="40.470930" lon="-6.060110">
        <ele>836.045</ele>
        <time>2020-02-29T18:12:13Z</time>
      </trkpt>
      <trkpt lat="40.470990" lon="-6.060160">
        <ele>836.522</ele>
        <time>2020-02-29T18:12:33Z</time>
      </trkpt>
      <trkpt lat="40.471210" lon="-6.060310">
        <ele>837.362</ele>
        <time>2020-02-29T18:12:53Z</time>
      </trkpt>
      <trkpt lat="40.471310" lon="-6.060430">
        <ele>838.808</ele>
        <time>2020-02-29T18:13:13Z</time>
      </trkpt>
      <trkpt lat="40.471390" lon="-6.060550">
        <ele>839.908</ele>
        <time>2020-02-29T18:13:33Z</time>
      </trkpt>
      <trkpt lat="40.471500" lon="-6.060750">
        <ele>838.436</ele>
        <time>2020-02-29T18:13:53Z</time>
      </trkpt>
      <trkpt lat="40.471550" lon="-6.060910">
        <ele>838.159</ele>
        <time>2020-02-29T18:14:13Z</time>
      </trkpt>
      <trkpt lat="40.471700" lon="-6.061650">
        <ele>843.824</ele>
        <time>2020-02-29T18:14:33Z</time>
      </trkpt>
      <trkpt lat="40.471750" lon="-6.061990">
        <ele>846.585</ele>
        <time>2020-02-29T18:14:53Z</time>
      </trkpt>
      <trkpt lat="40.471780" lon="-6.062080">
        <ele>847.018</ele>
        <time>2020-02-29T18:15:13Z</time>
      </trkpt>
      <trkpt lat="40.471780" lon="-6.062110">
        <ele>847.377</ele>
        <time>2020-02-29T18:15:33Z</time>
      </trkpt>
      <trkpt lat="40.471830" lon="-6.062380">
        <ele>849.418</ele>
        <time>2020-02-29T18:15:53Z</time>
      </trkpt>
      <trkpt lat="40.471850" lon="-6.062580">
        <ele>851.115</ele>
        <time>2020-02-29T18:16:13Z</time>
      </trkpt>
      <trkpt lat="40.471860" lon="-6.062990">
        <ele>856.162</ele>
        <time>2020-02-29T18:16:33Z</time>
      </trkpt>
      <trkpt lat="40.471820" lon="-6.063380">
        <ele>858.783</ele>
        <time>2020-02-29T18:16:53Z</time>
      </trkpt>
      <trkpt lat="40.471780" lon="-6.063580">
        <ele>858.611</ele>
        <time>2020-02-29T18:17:13Z</time>
      </trkpt>
      <trkpt lat="40.471700" lon="-6.063810">
        <ele>859.608</ele>
        <time>2020-02-29T18:17:33Z</time>
      </trkpt>
      <trkpt lat="40.471460" lon="-6.064380">
        <ele>861.230</ele>
        <time>2020-02-29T18:17:53Z</time>
      </trkpt>
      <trkpt lat="40.471160" lon="-6.065000">
        <ele>865.313</ele>
        <time>2020-02-29T18:18:13Z</time>
      </trkpt>
      <trkpt lat="40.470930" lon="-6.065410">
        <ele>865.798</ele>
        <time>2020-02-29T18:18:33Z</time>
      </trkpt>
      <trkpt lat="40.470880" lon="-6.065480">
        <ele>865.469</ele>
        <time>2020-02-29T18:18:53Z</time>
      </trkpt>
      <trkpt lat="40.470850" lon="-6.065540">
        <ele>865.012</ele>
        <time>2020-02-29T18:19:13Z</time>
      </trkpt>
      <trkpt lat="40.470690" lon="-6.065750">
        <ele>866.091</ele>
        <time>2020-02-29T18:19:33Z</time>
      </trkpt>
      <trkpt lat="40.470470" lon="-6.065950">
        <ele>867.872</ele>
        <time>2020-02-29T18:19:53Z</time>
      </trkpt>
      <trkpt lat="40.470380" lon="-6.066010">
        <ele>868.069</ele>
        <time>2020-02-29T18:20:13Z</time>
      </trkpt>
      <trkpt lat="40.470290" lon="-6.066050">
        <ele>868.437</ele>
        <time>2020-02-29T18:20:33Z</time>
      </trkpt>
      <trkpt lat="40.470090" lon="-6.066100">
        <ele>868.849</ele>
        <time>2020-02-29T18:20:53Z</time>
      </trkpt>
      <trkpt lat="40.469510" lon="-6.066140">
        <ele>870.813</ele>
        <time>2020-02-29T18:21:13Z</time>
      </trkpt>
      <trkpt lat="40.469160" lon="-6.066230">
        <ele>870.908</ele>
        <time>2020-02-29T18:21:33Z</time>
      </trkpt>
      <trkpt lat="40.469040" lon="-6.066300">
        <ele>871.537</ele>
        <time>2020-02-29T18:21:53Z</time>
      </trkpt>
      <trkpt lat="40.468940" lon="-6.066380">
        <ele>872.780</ele>
        <time>2020-02-29T18:22:13Z</time>
      </trkpt>
      <trkpt lat="40.468740" lon="-6.066590">
        <ele>874.265</ele>
        <time>2020-02-29T18:22:33Z</time>
      </trkpt>
      <trkpt lat="40.468650" lon="-6.066730">
        <ele>875.476</ele>
        <time>2020-02-29T18:22:53Z</time>
      </trkpt>
      <trkpt lat="40.468640" lon="-6.066760">
        <ele>875.589</ele>
        <time>2020-02-29T18:23:13Z</time>
      </trkpt>
      <trkpt lat="40.468610" lon="-6.066810">
        <ele>875.578</ele>
        <time>2020-02-29T18:23:33Z</time>
      </trkpt>
      <trkpt lat="40.468510" lon="-6.067110">
        <ele>875.429</ele>
        <time>2020-02-29T18:23:53Z</time>
      </trkpt>
      <trkpt lat="40.468460" lon="-6.067320">
        <ele>875.956</ele>
        <time>2020-02-29T18:24:13Z</time>
      </trkpt>
      <trkpt lat="40.468440" lon="-6.067630">
        <ele>877.912</ele>
        <time>2020-02-29T18:24:33Z</time>
      </trkpt>
      <trkpt lat="40.468450" lon="-6.067670">
        <ele>878.432</ele>
        <time>2020-02-29T18:24:53Z</time>
      </trkpt>
      <trkpt lat="40.468510" lon="-6.068620">
        <ele>888.105</ele>
        <time>2020-02-29T18:25:13Z</time>
      </trkpt>
      <trkpt lat="40.468520" lon="-6.068640">
        <ele>888.108</ele>
        <time>2020-02-29T18:25:33Z</time>
      </trkpt>
      <trkpt lat="40.468520" lon="-6.069140">
        <ele>889.625</ele>
        <time>2020-02-29T18:25:53Z</time>
      </trkpt>
      <trkpt lat="40.468500" lon="-6.069370">
        <ele>891.538</ele>
        <time>2020-02-29T18:26:13Z</time>
      </trkpt>
      <trkpt lat="40.468410" lon="-6.069760">
        <ele>895.613</ele>
        <time>2020-02-29T18:26:33Z</time>
      </trkpt>
      <trkpt lat="40.468230" lon="-6.070260">
        <ele>896.274</ele>
        <time>2020-02-29T18:26:53Z</time>
      </trkpt>
      <trkpt lat="40.468100" lon="-6.070520">
        <ele>897.517</ele>
        <time>2020-02-29T18:27:13Z</time>
      </trkpt>
      <trkpt lat="40.467840" lon="-6.071190">
        <ele>901.186</ele>
        <time>2020-02-29T18:27:33Z</time>
      </trkpt>
      <trkpt lat="40.467800" lon="-6.071370">
        <ele>900.837</ele>
        <time>2020-02-29T18:27:53Z</time>
      </trkpt>
      <trkpt lat="40.467710" lon="-6.071950">
        <ele>903.944</ele>
        <time>2020-02-29T18:28:13Z</time>
      </trkpt>
      <trkpt lat="40.467680" lon="-6.072690">
        <ele>907.252</ele>
        <time>2020-02-29T18:28:33Z</time>
      </trkpt>
      <trkpt lat="40.467700" lon="-6.072920">
        <ele>908.553</ele>
        <time>2020-02-29T18:28:53Z</time>
      </trkpt>
      <trkpt lat="40.467750" lon="-6.073240">
        <ele>907.408</ele>
        <time>2020-02-29T18:29:13Z</time>
      </trkpt>
      <trkpt lat="40.467980" lon="-6.074010">
        <ele>906.808</ele>
        <time>2020-02-29T18:29:33Z</time>
      </trkpt>
      <trkpt lat="40.468000" lon="-6.074040">
        <ele>906.729</ele>
        <time>2020-02-29T18:29:53Z</time>
      </trkpt>
      <trkpt lat="40.468110" lon="-6.074480">
        <ele>907.962</ele>
        <time>2020-02-29T18:30:13Z</time>
      </trkpt>
      <trkpt lat="40.468140" lon="-6.074650">
        <ele>907.747</ele>
        <time>2020-02-29T18:30:33Z</time>
      </trkpt>
      <trkpt lat="40.468180" lon="-6.075190">
        <ele>909.028</ele>
        <time>2020-02-29T18:30:53Z</time>
      </trkpt>
      <trkpt lat="40.468190" lon="-6.077280">
        <ele>906.671</ele>
        <time>2020-02-29T18:31:13Z</time>
      </trkpt>
      <trkpt lat="40.468220" lon="-6.077750">
        <ele>908.520</ele>
        <time>2020-02-29T18:31:33Z</time>
      </trkpt>
      <trkpt lat="40.468320" lon="-6.078250">
        <ele>911.171</ele>
        <time>2020-02-29T18:31:53Z</time>
      </trkpt>
      <trkpt lat="40.468380" lon="-6.078450">
        <ele>912.888</ele>
        <time>2020-02-29T18:32:13Z</time>
      </trkpt>
      <trkpt lat="40.468540" lon="-6.078820">
        <ele>917.094</ele>
        <time>2020-02-29T18:32:33Z</time>
      </trkpt>
      <trkpt lat="40.468710" lon="-6.079060">
        <ele>919.857</ele>
        <time>2020-02-29T18:32:53Z</time>
      </trkpt>
      <trkpt lat="40.468950" lon="-6.079280">
        <ele>919.922</ele>
        <time>2020-02-29T18:33:13Z</time>
      </trkpt>
      <trkpt lat="40.469060" lon="-6.079360">
        <ele>920.208</ele>
        <time>2020-02-29T18:33:33Z</time>
      </trkpt>
      <trkpt lat="40.469230" lon="-6.079420">
        <ele>920.653</ele>
        <time>2020-02-29T18:33:53Z</time>
      </trkpt>
      <trkpt lat="40.469520" lon="-6.079470">
        <ele>924.686</ele>
        <time>2020-02-29T18:34:13Z</time>
      </trkpt>
      <trkpt lat="40.469740" lon="-6.079490">
        <ele>928.151</ele>
        <time>2020-02-29T18:34:33Z</time>
      </trkpt>
      <trkpt lat="40.470440" lon="-6.079450">
        <ele>931.752</ele>
        <time>2020-02-29T18:34:53Z</time>
      </trkpt>
      <trkpt lat="40.470640" lon="-6.079470">
        <ele>932.845</ele>
        <time>2020-02-29T18:35:13Z</time>
      </trkpt>
      <trkpt lat="40.470890" lon="-6.079560">
        <ele>934.614</ele>
        <time>2020-02-29T18:35:33Z</time>
      </trkpt>
      <trkpt lat="40.470970" lon="-6.079610">
        <ele>935.545</ele>
        <time>2020-02-29T18:35:53Z</time>
      </trkpt>
      <trkpt lat="40.471220" lon="-6.079810">
        <ele>936.392</ele>
        <time>2020-02-29T18:36:13Z</time>
      </trkpt>
      <trkpt lat="40.471360" lon="-6.079950">
        <ele>935.174</ele>
        <time>2020-02-29T18:36:33Z</time>
      </trkpt>
      <trkpt lat="40.471760" lon="-6.080450">
        <ele>937.356</ele>
        <time>2020-02-29T18:36:53Z</time>
      </trkpt>
      <trkpt lat="40.472000" lon="-6.080660">
        <ele>940.621</ele>
        <time>2020-02-29T18:37:13Z</time>
      </trkpt>
      <trkpt lat="40.472070" lon="-6.080700">
        <ele>941.708</ele>
        <time>2020-02-29T18:37:33Z</time>
      </trkpt>
      <trkpt lat="40.472250" lon="-6.080770">
        <ele>943.381</ele>
        <time>2020-02-29T18:37:53Z</time>
      </trkpt>
      <trkpt lat="40.472450" lon="-6.080800">
        <ele>945.274</ele>
        <time>2020-02-29T18:38:13Z</time>
      </trkpt>
      <trkpt lat="40.472660" lon="-6.080780">
        <ele>947.529</ele>
        <time>2020-02-29T18:38:33Z</time>
      </trkpt>
      <trkpt lat="40.472880" lon="-6.080730">
        <ele>949.560</ele>
        <time>2020-02-29T18:38:53Z</time>
      </trkpt>
      <trkpt lat="40.473290" lon="-6.080590">
        <ele>950.623</ele>
        <time>2020-02-29T18:39:13Z</time>
      </trkpt>
      <trkpt lat="40.473460" lon="-6.080510">
        <ele>951.822</ele>
        <time>2020-02-29T18:39:33Z</time>
      </trkpt>
      <trkpt lat="40.473600" lon="-6.080420">
        <ele>952.843</ele>
        <time>2020-02-29T18:39:53Z</time>
      </trkpt>
      <trkpt lat="40.473820" lon="-6.080230">
        <ele>951.610</ele>
        <time>2020-02-29T18:40:13Z</time>
      </trkpt>
      <trkpt lat="40.473950" lon="-6.080090">
        <ele>951.962</ele>
        <time>2020-02-29T18:40:33Z</time>
      </trkpt>
      <trkpt lat="40.474120" lon="-6.079860">
        <ele>952.783</ele>
        <time>2020-02-29T18:40:53Z</time>
      </trkpt>
      <trkpt lat="40.474190" lon="-6.079740">
        <ele>954.111</ele>
        <time>2020-02-29T18:41:13Z</time>
      </trkpt>
      <trkpt lat="40.474850" lon="-6.078370">
        <ele>961.508</ele>
        <time>2020-02-29T18:41:33Z</time>
      </trkpt>
      <trkpt lat="40.475180" lon="-6.077860">
        <ele>962.860</ele>
        <time>2020-02-29T18:41:53Z</time>
      </trkpt>
      <trkpt lat="40.475460" lon="-6.077550">
        <ele>964.513</ele>
        <time>2020-02-29T18:42:13Z</time>
      </trkpt>
      <trkpt lat="40.475470" lon="-6.077530">
        <ele>964.548</ele>
        <time>2020-02-29T18:42:33Z</time>
      </trkpt>
      <trkpt lat="40.475740" lon="-6.077280">
        <ele>966.689</ele>
        <time>2020-02-29T18:42:53Z</time>
      </trkpt>
      <trkpt lat="40.477110" lon="-6.076360">
        <ele>980.682</ele>
        <time>2020-02-29T18:43:13Z</time>
      </trkpt>
      <trkpt lat="40.477490" lon="-6.076130">
        <ele>981.181</ele>
        <time>2020-02-29T18:43:33Z</time>
      </trkpt>
      <trkpt lat="40.477900" lon="-6.075960">
        <ele>982.432</ele>
        <time>2020-02-29T18:43:53Z</time>
      </trkpt>
      <trkpt lat="40.478220" lon="-6.075910">
        <ele>983.189</ele>
        <time>2020-02-29T18:44:13Z</time>
      </trkpt>
      <trkpt lat="40.478300" lon="-6.075910">
        <ele>983.471</ele>
        <time>2020-02-29T18:44:33Z</time>
      </trkpt>
      <trkpt lat="40.478550" lon="-6.075960">
        <ele>986.741</ele>
        <time>2020-02-29T18:44:53Z</time>
      </trkpt>
      <trkpt lat="40.478750" lon="-6.076040">
        <ele>988.215</ele>
        <time>2020-02-29T18:45:13Z</time>
      </trkpt>
      <trkpt lat="40.478790" lon="-6.076050">
        <ele>988.408</ele>
        <time>2020-02-29T18:45:33Z</time>
      </trkpt>
      <trkpt lat="40.478910" lon="-6.076140">
        <ele>988.861</ele>
        <time>2020-02-29T18:45:53Z</time>
      </trkpt>
      <trkpt lat="40.478970" lon="-6.076170">
        <ele>988.544</ele>
        <time>2020-02-29T18:46:13Z</time>
      </trkpt>
      <trkpt lat="40.479200" lon="-6.076380">
        <ele>987.079</ele>
        <time>2020-02-29T18:46:33Z</time>
      </trkpt>
      <trkpt lat="40.479310" lon="-6.076500">
        <ele>986.890</ele>
        <time>2020-02-29T18:46:53Z</time>
      </trkpt>
      <trkpt lat="40.479440" lon="-6.076690">
        <ele>985.053</ele>
        <time>2020-02-29T18:47:13Z</time>
      </trkpt>
      <trkpt lat="40.479860" lon="-6.077570">
        <ele>982.462</ele>
        <time>2020-02-29T18:47:33Z</time>
      </trkpt>
      <trkpt lat="40.480100" lon="-6.078370">
        <ele>981.713</ele>
        <time>2020-02-29T18:47:53Z</time>
      </trkpt>
      <trkpt lat="40.480090" lon="-6.079790">
        <ele>973.350</ele>
        <time>2020-02-29T18:48:13Z</time>
      </trkpt>
      <trkpt lat="40.480060" lon="-6.080400">
        <ele>967.226</ele>
        <time>2020-02-29T18:48:33Z</time>
      </trkpt>
      <trkpt lat="40.480070" lon="-6.081180">
        <ele>967.247</ele>
        <time>2020-02-29T18:48:53Z</time>
      </trkpt>
      <trkpt lat="40.480110" lon="-6.081470">
        <ele>965.911</ele>
        <time>2020-02-29T18:49:13Z</time>
      </trkpt>
      <trkpt lat="40.480140" lon="-6.081610">
        <ele>964.408</ele>
        <time>2020-02-29T18:49:33Z</time>
      </trkpt>
      <trkpt lat="40.480220" lon="-6.081870">
        <ele>959.986</ele>
        <time>2020-02-29T18:49:53Z</time>
      </trkpt>
      <trkpt lat="40.480230" lon="-6.081880">
        <ele>959.629</ele>
        <time>2020-02-29T18:50:13Z</time>
      </trkpt>
      <trkpt lat="40.480410" lon="-6.082320">
        <ele>954.924</ele>
        <time>2020-02-29T18:50:33Z</time>
      </trkpt>
      <trkpt lat="40.480740" lon="-6.082910">
        <ele>952.845</ele>
        <time>2020-02-29T18:50:53Z</time>
      </trkpt>
      <trkpt lat="40.480910" lon="-6.083160">
        <ele>954.268</ele>
        <time>2020-02-29T18:51:13Z</time>
      </trkpt>
      <trkpt lat="40.481090" lon="-6.083390">
        <ele>958.837</ele>
        <time>2020-02-29T18:51:33Z</time>
      </trkpt>
      <trkpt lat="40.481290" lon="-6.083600">
        <ele>964.728</ele>
        <time>2020-02-29T18:51:53Z</time>
      </trkpt>
      <trkpt lat="40.481450" lon="-6.083730">
        <ele>970.025</ele>
        <time>2020-02-29T18:52:13Z</time>
      </trkpt>
      <trkpt lat="40.481570" lon="-6.083810">
        <ele>972.624</ele>
        <time>2020-02-29T18:52:33Z</time>
      </trkpt>
      <trkpt lat="40.482670" lon="-6.084340">
        <ele>981.204</ele>
        <time>2020-02-29T18:52:53Z</time>
      </trkpt>
      <trkpt lat="40.483010" lon="-6.084590">
        <ele>983.614</ele>
        <time>2020-02-29T18:53:13Z</time>
      </trkpt>
      <trkpt lat="40.483320" lon="-6.084880">
        <ele>986.908</ele>
        <time>2020-02-29T18:53:33Z</time>
      </trkpt>
      <trkpt lat="40.483560" lon="-6.085220">
        <ele>990.756</ele>
        <time>2020-02-29T18:53:53Z</time>
      </trkpt>
      <trkpt lat="40.483580" lon="-6.085240">
        <ele>990.859</ele>
        <time>2020-02-29T18:54:13Z</time>
      </trkpt>
      <trkpt lat="40.484290" lon="-6.086500">
        <ele>990.134</ele>
        <time>2020-02-29T18:54:33Z</time>
      </trkpt>
      <trkpt lat="40.484530" lon="-6.086810">
        <ele>988.055</ele>
        <time>2020-02-29T18:54:53Z</time>
      </trkpt>
      <trkpt lat="40.485290" lon="-6.087400">
        <ele>993.048</ele>
        <time>2020-02-29T18:55:13Z</time>
      </trkpt>
      <trkpt lat="40.485470" lon="-6.087510">
        <ele>993.137</ele>
        <time>2020-02-29T18:55:33Z</time>
      </trkpt>
      <trkpt lat="40.486250" lon="-6.087880">
        <ele>996.778</ele>
        <time>2020-02-29T18:55:53Z</time>
      </trkpt>
      <trkpt lat="40.486260" lon="-6.087890">
        <ele>996.885</ele>
        <time>2020-02-29T18:56:13Z</time>
      </trkpt>
      <trkpt lat="40.487280" lon="-6.088290">
        <ele>1011.479</ele>
        <time>2020-02-29T18:56:33Z</time>
      </trkpt>
      <trkpt lat="40.487280" lon="-6.088300">
        <ele>1011.405</ele>
        <time>2020-02-29T18:56:53Z</time>
      </trkpt>
      <trkpt lat="40.487570" lon="-6.088490">
        <ele>1017.625</ele>
        <time>2020-02-29T18:57:13Z</time>
      </trkpt>
      <trkpt lat="40.487850" lon="-6.088760">
        <ele>1019.208</ele>
        <time>2020-02-29T18:57:33Z</time>
      </trkpt>
      <trkpt lat="40.487980" lon="-6.088920">
        <ele>1019.691</ele>
        <time>2020-02-29T18:57:53Z</time>
      </trkpt>
      <trkpt lat="40.488080" lon="-6.089070">
        <ele>1020.814</ele>
        <time>2020-02-29T18:58:13Z</time>
      </trkpt>
      <trkpt lat="40.488290" lon="-6.089490">
        <ele>1023.979</ele>
        <time>2020-02-29T18:58:33Z</time>
      </trkpt>
      <trkpt lat="40.489640" lon="-6.093200">
        <ele>1031.810</ele>
        <time>2020-02-29T18:58:53Z</time>
      </trkpt>
      <trkpt lat="40.489610" lon="-6.094300">
        <ele>1031.543</ele>
        <time>2020-02-29T18:59:13Z</time>
      </trkpt>
      <trkpt lat="40.489510" lon="-6.095060">
        <ele>1033.622</ele>
        <time>2020-02-29T18:59:33Z</time>
      </trkpt>
      <trkpt lat="40.489410" lon="-6.095560">
        <ele>1031.643</ele>
        <time>2020-02-29T18:59:53Z</time>
      </trkpt>
      <trkpt lat="40.489390" lon="-6.095810">
        <ele>1032.020</ele>
        <time>2020-02-29T19:00:13Z</time>
      </trkpt>
      <trkpt lat="40.489410" lon="-6.095990">
        <ele>1031.733</ele>
        <time>2020-02-29T19:00:33Z</time>
      </trkpt>
      <trkpt lat="40.489520" lon="-6.096440">
        <ele>1033.523</ele>
        <time>2020-02-29T19:00:53Z</time>
      </trkpt>
      <trkpt lat="40.489590" lon="-6.096640">
        <ele>1034.615</ele>
        <time>2020-02-29T19:01:13Z</time>
      </trkpt>
      <trkpt lat="40.489660" lon="-6.097020">
        <ele>1035.308</ele>
        <time>2020-02-29T19:01:33Z</time>
      </trkpt>
      <trkpt lat="40.489640" lon="-6.097260">
        <ele>1036.327</ele>
        <time>2020-02-29T19:01:53Z</time>
      </trkpt>
      <trkpt lat="40.489460" lon="-6.097950">
        <ele>1037.540</ele>
        <time>2020-02-29T19:02:13Z</time>
      </trkpt>
      <trkpt lat="40.489370" lon="-6.099820">
        <ele>1039.185</ele>
        <time>2020-02-29T19:02:33Z</time>
      </trkpt>
      <trkpt lat="40.489300" lon="-6.100670">
        <ele>1038.866</ele>
        <time>2020-02-29T19:02:53Z</time>
      </trkpt>
      <trkpt lat="40.489330" lon="-6.101290">
        <ele>1036.969</ele>
        <time>2020-02-29T19:03:13Z</time>
      </trkpt>
      <trkpt lat="40.489320" lon="-6.101490">
        <ele>1037.498</ele>
        <time>2020-02-29T19:03:33Z</time>
      </trkpt>
      <trkpt lat="40.489080" lon="-6.103070">
        <ele>1042.099</ele>
        <time>2020-02-29T19:03:53Z</time>
      </trkpt>
      <trkpt lat="40.489050" lon="-6.103160">
        <ele>1042.486</ele>
        <time>2020-02-29T19:04:13Z</time>
      </trkpt>
      <trkpt lat="40.488980" lon="-6.103290">
        <ele>1043.623</ele>
        <time>2020-02-29T19:04:33Z</time>
      </trkpt>
      <trkpt lat="40.488570" lon="-6.103730">
        <ele>1045.483</ele>
        <time>2020-02-29T19:04:53Z</time>
      </trkpt>
      <trkpt lat="40.488520" lon="-6.103850">
        <ele>1044.811</ele>
        <time>2020-02-29T19:05:13Z</time>
      </trkpt>
      <trkpt lat="40.488520" lon="-6.103930">
        <ele>1044.108</ele>
        <time>2020-02-29T19:05:33Z</time>
      </trkpt>
      <trkpt lat="40.488600" lon="-6.104210">
        <ele>1042.386</ele>
        <time>2020-02-29T19:05:53Z</time>
      </trkpt>
      <trkpt lat="40.488760" lon="-6.104580">
        <ele>1042.639</ele>
        <time>2020-02-29T19:06:13Z</time>
      </trkpt>
      <trkpt lat="40.488780" lon="-6.104660">
        <ele>1042.934</ele>
        <time>2020-02-29T19:06:33Z</time>
      </trkpt>
      <trkpt lat="40.488900" lon="-6.105690">
        <ele>1047.335</ele>
        <time>2020-02-29T19:06:53Z</time>
      </trkpt>
      <trkpt lat="40.488900" lon="-6.105920">
        <ele>1049.488</ele>
        <time>2020-02-29T19:07:13Z</time>
      </trkpt>
      <trkpt lat="40.488910" lon="-6.106020">
        <ele>1050.147</ele>
        <time>2020-02-29T19:07:33Z</time>
      </trkpt>
      <trkpt lat="40.488880" lon="-6.106190">
        <ele>1050.828</ele>
        <time>2020-02-29T19:07:53Z</time>
      </trkpt>
      <trkpt lat="40.488860" lon="-6.106220">
        <ele>1050.865</ele>
        <time>2020-02-29T19:08:13Z</time>
      </trkpt>
      <trkpt lat="40.488820" lon="-6.106360">
        <ele>1050.498</ele>
        <time>2020-02-29T19:08:33Z</time>
      </trkpt>
      <trkpt lat="40.488630" lon="-6.106730">
        <ele>1046.215</ele>
        <time>2020-02-29T19:08:53Z</time>
      </trkpt>
      <trkpt lat="40.488550" lon="-6.106860">
        <ele>1044.926</ele>
        <time>2020-02-29T19:09:13Z</time>
      </trkpt>
      <trkpt lat="40.488310" lon="-6.107040">
        <ele>1043.908</ele>
        <time>2020-02-29T19:09:33Z</time>
      </trkpt>
      <trkpt lat="40.488220" lon="-6.107150">
        <ele>1044.593</ele>
        <time>2020-02-29T19:09:53Z</time>
      </trkpt>
      <trkpt lat="40.487990" lon="-6.107530">
        <ele>1046.856</ele>
        <time>2020-02-29T19:10:13Z</time>
      </trkpt>
      <trkpt lat="40.487960" lon="-6.107710">
        <ele>1047.881</ele>
        <time>2020-02-29T19:10:33Z</time>
      </trkpt>
      <trkpt lat="40.487970" lon="-6.107790">
        <ele>1047.982</ele>
        <time>2020-02-29T19:10:53Z</time>
      </trkpt>
      <trkpt lat="40.488020" lon="-6.107910">
        <ele>1047.495</ele>
        <time>2020-02-29T19:11:13Z</time>
      </trkpt>
      <trkpt lat="40.488080" lon="-6.108170">
        <ele>1046.984</ele>
        <time>2020-02-29T19:11:33Z</time>
      </trkpt>
      <trkpt lat="40.488100" lon="-6.108390">
        <ele>1046.775</ele>
        <time>2020-02-29T19:11:53Z</time>
      </trkpt>
      <trkpt lat="40.488100" lon="-6.108630">
        <ele>1046.152</ele>
        <time>2020-02-29T19:12:13Z</time>
      </trkpt>
      <trkpt lat="40.488080" lon="-6.108870">
        <ele>1045.298</ele>
        <time>2020-02-29T19:12:33Z</time>
      </trkpt>
      <trkpt lat="40.488140" lon="-6.108990">
        <ele>1045.815</ele>
        <time>2020-02-29T19:12:53Z</time>
      </trkpt>
      <trkpt lat="40.488240" lon="-6.109140">
        <ele>1047.226</ele>
        <time>2020-02-29T19:13:13Z</time>
      </trkpt>
      <trkpt lat="40.488330" lon="-6.109220">
        <ele>1048.408</ele>
        <time>2020-02-29T19:13:33Z</time>
      </trkpt>
      <trkpt lat="40.488440" lon="-6.109390">
        <ele>1050.553</ele>
        <time>2020-02-29T19:13:53Z</time>
      </trkpt>
      <trkpt lat="40.488460" lon="-6.109400">
        <ele>1050.796</ele>
        <time>2020-02-29T19:14:13Z</time>
      </trkpt>
      <trkpt lat="40.488520" lon="-6.109490">
        <ele>1051.731</ele>
        <time>2020-02-29T19:14:33Z</time>
      </trkpt>
      <trkpt lat="40.488570" lon="-6.109550">
        <ele>1052.552</ele>
        <time>2020-02-29T19:14:53Z</time>
      </trkpt>
      <trkpt lat="40.488570" lon="-6.109560">
        <ele>1052.685</ele>
        <time>2020-02-29T19:15:13Z</time>
      </trkpt>
      <trkpt lat="40.488670" lon="-6.109740">
        <ele>1054.084</ele>
        <time>2020-02-29T19:15:33Z</time>
      </trkpt>
      <trkpt lat="40.488680" lon="-6.109780">
        <ele>1053.975</ele>
        <time>2020-02-29T19:15:53Z</time>
      </trkpt>
      <trkpt lat="40.488740" lon="-6.109890">
        <ele>1053.792</ele>
        <time>2020-02-29T19:16:13Z</time>
      </trkpt>
      <trkpt lat="40.488810" lon="-6.109980">
        <ele>1053.346</ele>
        <time>2020-02-29T19:16:33Z</time>
      </trkpt>
      <trkpt lat="40.488970" lon="-6.110320">
        <ele>1051.188</ele>
        <time>2020-02-29T19:16:53Z</time>
      </trkpt>
      <trkpt lat="40.489040" lon="-6.110400">
        <ele>1050.416</ele>
        <time>2020-02-29T19:17:13Z</time>
      </trkpt>
      <trkpt lat="40.489320" lon="-6.110320">
        <ele>1048.608</ele>
        <time>2020-02-29T19:17:33Z</time>
      </trkpt>
      <trkpt lat="40.489390" lon="-6.110390">
        <ele>1048.868</ele>
        <time>2020-02-29T19:17:53Z</time>
      </trkpt>
      <trkpt lat="40.489470" lon="-6.110450">
        <ele>1049.441</ele>
        <time>2020-02-29T19:18:13Z</time>
      </trkpt>
      <trkpt lat="40.489510" lon="-6.110470">
        <ele>1049.896</ele>
        <time>2020-02-29T19:18:33Z</time>
      </trkpt>
      <trkpt lat="40.489450" lon="-6.110610">
        <ele>1050.877</ele>
        <time>2020-02-29T19:18:53Z</time>
      </trkpt>
      <trkpt lat="40.489450" lon="-6.110680">
        <ele>1051.890</ele>
        <time>2020-02-29T19:19:13Z</time>
      </trkpt>
    </trkseg>
  </trk>
</gpx>
